<?xml version="1.0" encoding="utf-8"?>
<gpx xmlns:xsi="http://www.w3.org/2001/XMLSchema-instance" xmlns:xsd="http://www.w3.org/2001/XMLSchema" version="1.1" creator="Shapelink.com" xmlns="http://www.topografix.com/GPX/1/1" xmlns:gpxtpx="http://www.garmin.com/xmlschemas/TrackPointExtension/v1">
  <metadata>
    <name>Otros 87.60 km, 2017-09-03</name>
    <desc></desc>
    <author><name>Jörgen Larsson</name></author> 
    <time>2017-09-03T10:00:08Z</time>
  </metadata>
  <trk>
    <name>Otros 87.60 km, 2017-09-03</name>
    <trkseg>
      <trkpt lat="58.934739" lon="17.524244">
        <ele>24.4</ele>
        <time>2017-09-03T10:00:08Z</time>
      </trkpt>
      <trkpt lat="58.934712" lon="17.524244">
        <ele>24.2</ele>
        <time>2017-09-03T10:00:09Z</time>
      </trkpt>
      <trkpt lat="58.934678" lon="17.524246">
        <ele>24.2</ele>
        <time>2017-09-03T10:00:10Z</time>
      </trkpt>
      <trkpt lat="58.934639" lon="17.524244">
        <ele>24.2</ele>
        <time>2017-09-03T10:00:11Z</time>
      </trkpt>
      <trkpt lat="58.934592" lon="17.524239">
        <ele>24</ele>
        <time>2017-09-03T10:00:12Z</time>
      </trkpt>
      <trkpt lat="58.934534" lon="17.524231">
        <ele>24</ele>
        <time>2017-09-03T10:00:13Z</time>
      </trkpt>
      <trkpt lat="58.934469" lon="17.524223">
        <ele>24</ele>
        <time>2017-09-03T10:00:14Z</time>
      </trkpt>
      <trkpt lat="58.934397" lon="17.524214">
        <ele>24</ele>
        <time>2017-09-03T10:00:15Z</time>
      </trkpt>
      <trkpt lat="58.934325" lon="17.524213">
        <ele>24.2</ele>
        <time>2017-09-03T10:00:16Z</time>
      </trkpt>
      <trkpt lat="58.934256" lon="17.524216">
        <ele>24.2</ele>
        <time>2017-09-03T10:00:17Z</time>
      </trkpt>
      <trkpt lat="58.934189" lon="17.52422">
        <ele>24</ele>
        <time>2017-09-03T10:00:18Z</time>
      </trkpt>
      <trkpt lat="58.934124" lon="17.52423">
        <ele>23.8</ele>
        <time>2017-09-03T10:00:19Z</time>
      </trkpt>
      <trkpt lat="58.934057" lon="17.524246">
        <ele>23.8</ele>
        <time>2017-09-03T10:00:20Z</time>
      </trkpt>
      <trkpt lat="58.933987" lon="17.524273">
        <ele>23.6</ele>
        <time>2017-09-03T10:00:21Z</time>
      </trkpt>
      <trkpt lat="58.933917" lon="17.524302">
        <ele>23.6</ele>
        <time>2017-09-03T10:00:22Z</time>
      </trkpt>
      <trkpt lat="58.933848" lon="17.524336">
        <ele>23.6</ele>
        <time>2017-09-03T10:00:23Z</time>
      </trkpt>
      <trkpt lat="58.93378" lon="17.524376">
        <ele>23.6</ele>
        <time>2017-09-03T10:00:24Z</time>
      </trkpt>
      <trkpt lat="58.933711" lon="17.524428">
        <ele>23.6</ele>
        <time>2017-09-03T10:00:25Z</time>
      </trkpt>
      <trkpt lat="58.933643" lon="17.524494">
        <ele>23.6</ele>
        <time>2017-09-03T10:00:26Z</time>
      </trkpt>
      <trkpt lat="58.933577" lon="17.524568">
        <ele>23.6</ele>
        <time>2017-09-03T10:00:27Z</time>
      </trkpt>
      <trkpt lat="58.933517" lon="17.524642">
        <ele>23.6</ele>
        <time>2017-09-03T10:00:28Z</time>
      </trkpt>
      <trkpt lat="58.93346" lon="17.524725">
        <ele>23.6</ele>
        <time>2017-09-03T10:00:29Z</time>
      </trkpt>
      <trkpt lat="58.933406" lon="17.524808">
        <ele>23.6</ele>
        <time>2017-09-03T10:00:30Z</time>
      </trkpt>
      <trkpt lat="58.933353" lon="17.524893">
        <ele>23.6</ele>
        <time>2017-09-03T10:00:31Z</time>
      </trkpt>
      <trkpt lat="58.9333" lon="17.52498">
        <ele>23.6</ele>
        <time>2017-09-03T10:00:32Z</time>
      </trkpt>
      <trkpt lat="58.933247" lon="17.52507">
        <ele>23.8</ele>
        <time>2017-09-03T10:00:33Z</time>
      </trkpt>
      <trkpt lat="58.933195" lon="17.525161">
        <ele>24.2</ele>
        <time>2017-09-03T10:00:34Z</time>
      </trkpt>
      <trkpt lat="58.933141" lon="17.525258">
        <ele>24.4</ele>
        <time>2017-09-03T10:00:35Z</time>
      </trkpt>
      <trkpt lat="58.933088" lon="17.525358">
        <ele>24.6</ele>
        <time>2017-09-03T10:00:36Z</time>
      </trkpt>
      <trkpt lat="58.93303" lon="17.525473">
        <ele>24.8</ele>
        <time>2017-09-03T10:00:37Z</time>
      </trkpt>
      <trkpt lat="58.932981" lon="17.525587">
        <ele>24.8</ele>
        <time>2017-09-03T10:00:38Z</time>
      </trkpt>
      <trkpt lat="58.932929" lon="17.525713">
        <ele>24.8</ele>
        <time>2017-09-03T10:00:39Z</time>
      </trkpt>
      <trkpt lat="58.93288" lon="17.525844">
        <ele>24.8</ele>
        <time>2017-09-03T10:00:40Z</time>
      </trkpt>
      <trkpt lat="58.932839" lon="17.52598">
        <ele>25</ele>
        <time>2017-09-03T10:00:41Z</time>
      </trkpt>
      <trkpt lat="58.932808" lon="17.526117">
        <ele>25</ele>
        <time>2017-09-03T10:00:42Z</time>
      </trkpt>
      <trkpt lat="58.932781" lon="17.526252">
        <ele>25</ele>
        <time>2017-09-03T10:00:43Z</time>
      </trkpt>
      <trkpt lat="58.932757" lon="17.526381">
        <ele>25</ele>
        <time>2017-09-03T10:00:44Z</time>
      </trkpt>
      <trkpt lat="58.932732" lon="17.526512">
        <ele>25.2</ele>
        <time>2017-09-03T10:00:45Z</time>
      </trkpt>
      <trkpt lat="58.932708" lon="17.526647">
        <ele>25.2</ele>
        <time>2017-09-03T10:00:46Z</time>
      </trkpt>
      <trkpt lat="58.932686" lon="17.526786">
        <ele>25.2</ele>
        <time>2017-09-03T10:00:47Z</time>
      </trkpt>
      <trkpt lat="58.932671" lon="17.526924">
        <ele>25.2</ele>
        <time>2017-09-03T10:00:48Z</time>
      </trkpt>
      <trkpt lat="58.932666" lon="17.527062">
        <ele>25.2</ele>
        <time>2017-09-03T10:00:49Z</time>
      </trkpt>
      <trkpt lat="58.932667" lon="17.527203">
        <ele>25.2</ele>
        <time>2017-09-03T10:00:50Z</time>
      </trkpt>
      <trkpt lat="58.932674" lon="17.527345">
        <ele>25.2</ele>
        <time>2017-09-03T10:00:51Z</time>
      </trkpt>
      <trkpt lat="58.932684" lon="17.527488">
        <ele>25.2</ele>
        <time>2017-09-03T10:00:52Z</time>
      </trkpt>
      <trkpt lat="58.932691" lon="17.527634">
        <ele>25.4</ele>
        <time>2017-09-03T10:00:53Z</time>
      </trkpt>
      <trkpt lat="58.932694" lon="17.52778">
        <ele>25.6</ele>
        <time>2017-09-03T10:00:54Z</time>
      </trkpt>
      <trkpt lat="58.9327" lon="17.527926">
        <ele>25.8</ele>
        <time>2017-09-03T10:00:55Z</time>
      </trkpt>
      <trkpt lat="58.932709" lon="17.528068">
        <ele>26</ele>
        <time>2017-09-03T10:00:56Z</time>
      </trkpt>
      <trkpt lat="58.932717" lon="17.528212">
        <ele>26</ele>
        <time>2017-09-03T10:00:57Z</time>
      </trkpt>
      <trkpt lat="58.932723" lon="17.528357">
        <ele>26.2</ele>
        <time>2017-09-03T10:00:58Z</time>
      </trkpt>
      <trkpt lat="58.932729" lon="17.528503">
        <ele>26.2</ele>
        <time>2017-09-03T10:00:59Z</time>
      </trkpt>
      <trkpt lat="58.932735" lon="17.528647">
        <ele>26.2</ele>
        <time>2017-09-03T10:01:00Z</time>
      </trkpt>
      <trkpt lat="58.932742" lon="17.528794">
        <ele>26.2</ele>
        <time>2017-09-03T10:01:01Z</time>
      </trkpt>
      <trkpt lat="58.932748" lon="17.528943">
        <ele>26.2</ele>
        <time>2017-09-03T10:01:02Z</time>
      </trkpt>
      <trkpt lat="58.932755" lon="17.529095">
        <ele>26.2</ele>
        <time>2017-09-03T10:01:03Z</time>
      </trkpt>
      <trkpt lat="58.93276" lon="17.529243">
        <ele>26.2</ele>
        <time>2017-09-03T10:01:04Z</time>
      </trkpt>
      <trkpt lat="58.932761" lon="17.529391">
        <ele>26.2</ele>
        <time>2017-09-03T10:01:05Z</time>
      </trkpt>
      <trkpt lat="58.932763" lon="17.529542">
        <ele>26.2</ele>
        <time>2017-09-03T10:01:06Z</time>
      </trkpt>
      <trkpt lat="58.932765" lon="17.529694">
        <ele>26.2</ele>
        <time>2017-09-03T10:01:07Z</time>
      </trkpt>
      <trkpt lat="58.932767" lon="17.529847">
        <ele>26.2</ele>
        <time>2017-09-03T10:01:08Z</time>
      </trkpt>
      <trkpt lat="58.932768" lon="17.530001">
        <ele>26.2</ele>
        <time>2017-09-03T10:01:09Z</time>
      </trkpt>
      <trkpt lat="58.932771" lon="17.530153">
        <ele>26.4</ele>
        <time>2017-09-03T10:01:10Z</time>
      </trkpt>
      <trkpt lat="58.932776" lon="17.530309">
        <ele>26.4</ele>
        <time>2017-09-03T10:01:11Z</time>
      </trkpt>
      <trkpt lat="58.932779" lon="17.530467">
        <ele>26.6</ele>
        <time>2017-09-03T10:01:12Z</time>
      </trkpt>
      <trkpt lat="58.932783" lon="17.530625">
        <ele>26.6</ele>
        <time>2017-09-03T10:01:13Z</time>
      </trkpt>
      <trkpt lat="58.932786" lon="17.530788">
        <ele>26.6</ele>
        <time>2017-09-03T10:01:14Z</time>
      </trkpt>
      <trkpt lat="58.932788" lon="17.530949">
        <ele>26.6</ele>
        <time>2017-09-03T10:01:15Z</time>
      </trkpt>
      <trkpt lat="58.932787" lon="17.531111">
        <ele>26.6</ele>
        <time>2017-09-03T10:01:16Z</time>
      </trkpt>
      <trkpt lat="58.932784" lon="17.531272">
        <ele>26.6</ele>
        <time>2017-09-03T10:01:17Z</time>
      </trkpt>
      <trkpt lat="58.932783" lon="17.531426">
        <ele>26.6</ele>
        <time>2017-09-03T10:01:18Z</time>
      </trkpt>
      <trkpt lat="58.932782" lon="17.53158">
        <ele>26.6</ele>
        <time>2017-09-03T10:01:19Z</time>
      </trkpt>
      <trkpt lat="58.93278" lon="17.531732">
        <ele>26.6</ele>
        <time>2017-09-03T10:01:20Z</time>
      </trkpt>
      <trkpt lat="58.932774" lon="17.531879">
        <ele>26.8</ele>
        <time>2017-09-03T10:01:21Z</time>
      </trkpt>
      <trkpt lat="58.932768" lon="17.532016">
        <ele>26.8</ele>
        <time>2017-09-03T10:01:22Z</time>
      </trkpt>
      <trkpt lat="58.932761" lon="17.532143">
        <ele>26.6</ele>
        <time>2017-09-03T10:01:23Z</time>
      </trkpt>
      <trkpt lat="58.932755" lon="17.532258">
        <ele>26.6</ele>
        <time>2017-09-03T10:01:24Z</time>
      </trkpt>
      <trkpt lat="58.932754" lon="17.532372">
        <ele>26.6</ele>
        <time>2017-09-03T10:01:25Z</time>
      </trkpt>
      <trkpt lat="58.932762" lon="17.532488">
        <ele>26.6</ele>
        <time>2017-09-03T10:01:26Z</time>
      </trkpt>
      <trkpt lat="58.932772" lon="17.532607">
        <ele>26.6</ele>
        <time>2017-09-03T10:01:27Z</time>
      </trkpt>
      <trkpt lat="58.932785" lon="17.532704">
        <ele>26.6</ele>
        <time>2017-09-03T10:01:28Z</time>
      </trkpt>
      <trkpt lat="58.932796" lon="17.532786">
        <ele>26.6</ele>
        <time>2017-09-03T10:01:29Z</time>
      </trkpt>
      <trkpt lat="58.932804" lon="17.532874">
        <ele>26.6</ele>
        <time>2017-09-03T10:01:30Z</time>
      </trkpt>
      <trkpt lat="58.932804" lon="17.532972">
        <ele>26.6</ele>
        <time>2017-09-03T10:01:31Z</time>
      </trkpt>
      <trkpt lat="58.93279" lon="17.533071">
        <ele>26.8</ele>
        <time>2017-09-03T10:01:32Z</time>
      </trkpt>
      <trkpt lat="58.932756" lon="17.533161">
        <ele>26.8</ele>
        <time>2017-09-03T10:01:33Z</time>
      </trkpt>
      <trkpt lat="58.932707" lon="17.533238">
        <ele>26.8</ele>
        <time>2017-09-03T10:01:34Z</time>
      </trkpt>
      <trkpt lat="58.932647" lon="17.533314">
        <ele>26.8</ele>
        <time>2017-09-03T10:01:35Z</time>
      </trkpt>
      <trkpt lat="58.932583" lon="17.533389">
        <ele>26.8</ele>
        <time>2017-09-03T10:01:36Z</time>
      </trkpt>
      <trkpt lat="58.932516" lon="17.533458">
        <ele>27</ele>
        <time>2017-09-03T10:01:37Z</time>
      </trkpt>
      <trkpt lat="58.932445" lon="17.533523">
        <ele>27</ele>
        <time>2017-09-03T10:01:38Z</time>
      </trkpt>
      <trkpt lat="58.932371" lon="17.533583">
        <ele>27</ele>
        <time>2017-09-03T10:01:39Z</time>
      </trkpt>
      <trkpt lat="58.932294" lon="17.533642">
        <ele>27</ele>
        <time>2017-09-03T10:01:40Z</time>
      </trkpt>
      <trkpt lat="58.932217" lon="17.533698">
        <ele>27</ele>
        <time>2017-09-03T10:01:41Z</time>
      </trkpt>
      <trkpt lat="58.932139" lon="17.53375">
        <ele>27</ele>
        <time>2017-09-03T10:01:42Z</time>
      </trkpt>
      <trkpt lat="58.932062" lon="17.533801">
        <ele>27.2</ele>
        <time>2017-09-03T10:01:43Z</time>
      </trkpt>
      <trkpt lat="58.931985" lon="17.533851">
        <ele>27.2</ele>
        <time>2017-09-03T10:01:44Z</time>
      </trkpt>
      <trkpt lat="58.931905" lon="17.533894">
        <ele>27.2</ele>
        <time>2017-09-03T10:01:45Z</time>
      </trkpt>
      <trkpt lat="58.931823" lon="17.533928">
        <ele>27.2</ele>
        <time>2017-09-03T10:01:46Z</time>
      </trkpt>
      <trkpt lat="58.931742" lon="17.533954">
        <ele>27.2</ele>
        <time>2017-09-03T10:01:47Z</time>
      </trkpt>
      <trkpt lat="58.93166" lon="17.533977">
        <ele>27.2</ele>
        <time>2017-09-03T10:01:48Z</time>
      </trkpt>
      <trkpt lat="58.931579" lon="17.534003">
        <ele>27</ele>
        <time>2017-09-03T10:01:49Z</time>
      </trkpt>
      <trkpt lat="58.931496" lon="17.534037">
        <ele>27</ele>
        <time>2017-09-03T10:01:50Z</time>
      </trkpt>
      <trkpt lat="58.931411" lon="17.534083">
        <ele>27</ele>
        <time>2017-09-03T10:01:51Z</time>
      </trkpt>
      <trkpt lat="58.931325" lon="17.534142">
        <ele>26.8</ele>
        <time>2017-09-03T10:01:52Z</time>
      </trkpt>
      <trkpt lat="58.931235" lon="17.53421">
        <ele>26.8</ele>
        <time>2017-09-03T10:01:53Z</time>
      </trkpt>
      <trkpt lat="58.931143" lon="17.534278">
        <ele>26.8</ele>
        <time>2017-09-03T10:01:54Z</time>
      </trkpt>
      <trkpt lat="58.931048" lon="17.53434">
        <ele>26.6</ele>
        <time>2017-09-03T10:01:55Z</time>
      </trkpt>
      <trkpt lat="58.930953" lon="17.5344">
        <ele>26.6</ele>
        <time>2017-09-03T10:01:56Z</time>
      </trkpt>
      <trkpt lat="58.93086" lon="17.534455">
        <ele>26.6</ele>
        <time>2017-09-03T10:01:57Z</time>
      </trkpt>
      <trkpt lat="58.930768" lon="17.534505">
        <ele>26.6</ele>
        <time>2017-09-03T10:01:58Z</time>
      </trkpt>
      <trkpt lat="58.930679" lon="17.534548">
        <ele>26.6</ele>
        <time>2017-09-03T10:01:59Z</time>
      </trkpt>
      <trkpt lat="58.930589" lon="17.53459">
        <ele>26.6</ele>
        <time>2017-09-03T10:02:00Z</time>
      </trkpt>
      <trkpt lat="58.930502" lon="17.534631">
        <ele>26.6</ele>
        <time>2017-09-03T10:02:01Z</time>
      </trkpt>
      <trkpt lat="58.930419" lon="17.534671">
        <ele>26.6</ele>
        <time>2017-09-03T10:02:02Z</time>
      </trkpt>
      <trkpt lat="58.930337" lon="17.534707">
        <ele>26.6</ele>
        <time>2017-09-03T10:02:03Z</time>
      </trkpt>
      <trkpt lat="58.930255" lon="17.534741">
        <ele>26.6</ele>
        <time>2017-09-03T10:02:04Z</time>
      </trkpt>
      <trkpt lat="58.930172" lon="17.534777">
        <ele>26.6</ele>
        <time>2017-09-03T10:02:05Z</time>
      </trkpt>
      <trkpt lat="58.930086" lon="17.534811">
        <ele>26.6</ele>
        <time>2017-09-03T10:02:06Z</time>
      </trkpt>
      <trkpt lat="58.929995" lon="17.534845">
        <ele>26.8</ele>
        <time>2017-09-03T10:02:07Z</time>
      </trkpt>
      <trkpt lat="58.929902" lon="17.534877">
        <ele>27</ele>
        <time>2017-09-03T10:02:08Z</time>
      </trkpt>
      <trkpt lat="58.929809" lon="17.534908">
        <ele>27.4</ele>
        <time>2017-09-03T10:02:09Z</time>
      </trkpt>
      <trkpt lat="58.929716" lon="17.53494">
        <ele>27.8</ele>
        <time>2017-09-03T10:02:10Z</time>
      </trkpt>
      <trkpt lat="58.929622" lon="17.534971">
        <ele>28</ele>
        <time>2017-09-03T10:02:11Z</time>
      </trkpt>
      <trkpt lat="58.929528" lon="17.535001">
        <ele>28</ele>
        <time>2017-09-03T10:02:12Z</time>
      </trkpt>
      <trkpt lat="58.929433" lon="17.535031">
        <ele>28.4</ele>
        <time>2017-09-03T10:02:13Z</time>
      </trkpt>
      <trkpt lat="58.929339" lon="17.535063">
        <ele>28.4</ele>
        <time>2017-09-03T10:02:14Z</time>
      </trkpt>
      <trkpt lat="58.929247" lon="17.535092">
        <ele>28.4</ele>
        <time>2017-09-03T10:02:15Z</time>
      </trkpt>
      <trkpt lat="58.92916" lon="17.535119">
        <ele>28.4</ele>
        <time>2017-09-03T10:02:16Z</time>
      </trkpt>
      <trkpt lat="58.929077" lon="17.535144">
        <ele>28.4</ele>
        <time>2017-09-03T10:02:17Z</time>
      </trkpt>
      <trkpt lat="58.928997" lon="17.535168">
        <ele>28.4</ele>
        <time>2017-09-03T10:02:18Z</time>
      </trkpt>
      <trkpt lat="58.928916" lon="17.535194">
        <ele>28.4</ele>
        <time>2017-09-03T10:02:19Z</time>
      </trkpt>
      <trkpt lat="58.928833" lon="17.53522">
        <ele>28.2</ele>
        <time>2017-09-03T10:02:20Z</time>
      </trkpt>
      <trkpt lat="58.92875" lon="17.535245">
        <ele>27.6</ele>
        <time>2017-09-03T10:02:21Z</time>
      </trkpt>
      <trkpt lat="58.92867" lon="17.535271">
        <ele>27.2</ele>
        <time>2017-09-03T10:02:22Z</time>
      </trkpt>
      <trkpt lat="58.928596" lon="17.535297">
        <ele>26.8</ele>
        <time>2017-09-03T10:02:23Z</time>
      </trkpt>
      <trkpt lat="58.928528" lon="17.535321">
        <ele>26.6</ele>
        <time>2017-09-03T10:02:24Z</time>
      </trkpt>
      <trkpt lat="58.928465" lon="17.535357">
        <ele>26.6</ele>
        <time>2017-09-03T10:02:25Z</time>
      </trkpt>
      <trkpt lat="58.928408" lon="17.535422">
        <ele>26.4</ele>
        <time>2017-09-03T10:02:26Z</time>
      </trkpt>
      <trkpt lat="58.928356" lon="17.535507">
        <ele>26.4</ele>
        <time>2017-09-03T10:02:27Z</time>
      </trkpt>
      <trkpt lat="58.928297" lon="17.535581">
        <ele>26.4</ele>
        <time>2017-09-03T10:02:28Z</time>
      </trkpt>
      <trkpt lat="58.928227" lon="17.535628">
        <ele>26.4</ele>
        <time>2017-09-03T10:02:29Z</time>
      </trkpt>
      <trkpt lat="58.928154" lon="17.535661">
        <ele>26.4</ele>
        <time>2017-09-03T10:02:30Z</time>
      </trkpt>
      <trkpt lat="58.928074" lon="17.535685">
        <ele>26.4</ele>
        <time>2017-09-03T10:02:31Z</time>
      </trkpt>
      <trkpt lat="58.927985" lon="17.535706">
        <ele>26.2</ele>
        <time>2017-09-03T10:02:32Z</time>
      </trkpt>
      <trkpt lat="58.927887" lon="17.535731">
        <ele>26.2</ele>
        <time>2017-09-03T10:02:33Z</time>
      </trkpt>
      <trkpt lat="58.927784" lon="17.535761">
        <ele>26.2</ele>
        <time>2017-09-03T10:02:34Z</time>
      </trkpt>
      <trkpt lat="58.927677" lon="17.535794">
        <ele>26.2</ele>
        <time>2017-09-03T10:02:35Z</time>
      </trkpt>
      <trkpt lat="58.927565" lon="17.535827">
        <ele>26.2</ele>
        <time>2017-09-03T10:02:36Z</time>
      </trkpt>
      <trkpt lat="58.92745" lon="17.535862">
        <ele>26</ele>
        <time>2017-09-03T10:02:37Z</time>
      </trkpt>
      <trkpt lat="58.927335" lon="17.535896">
        <ele>26</ele>
        <time>2017-09-03T10:02:38Z</time>
      </trkpt>
      <trkpt lat="58.927218" lon="17.535933">
        <ele>26</ele>
        <time>2017-09-03T10:02:39Z</time>
      </trkpt>
      <trkpt lat="58.9271" lon="17.535974">
        <ele>26</ele>
        <time>2017-09-03T10:02:40Z</time>
      </trkpt>
      <trkpt lat="58.926982" lon="17.536016">
        <ele>26</ele>
        <time>2017-09-03T10:02:41Z</time>
      </trkpt>
      <trkpt lat="58.926864" lon="17.536059">
        <ele>25.8</ele>
        <time>2017-09-03T10:02:42Z</time>
      </trkpt>
      <trkpt lat="58.926743" lon="17.536107">
        <ele>25.8</ele>
        <time>2017-09-03T10:02:43Z</time>
      </trkpt>
      <trkpt lat="58.926621" lon="17.53616">
        <ele>25.6</ele>
        <time>2017-09-03T10:02:44Z</time>
      </trkpt>
      <trkpt lat="58.926499" lon="17.536219">
        <ele>25.6</ele>
        <time>2017-09-03T10:02:45Z</time>
      </trkpt>
      <trkpt lat="58.926378" lon="17.53628">
        <ele>25.6</ele>
        <time>2017-09-03T10:02:46Z</time>
      </trkpt>
      <trkpt lat="58.926258" lon="17.536344">
        <ele>25.8</ele>
        <time>2017-09-03T10:02:47Z</time>
      </trkpt>
      <trkpt lat="58.926139" lon="17.536413">
        <ele>25.8</ele>
        <time>2017-09-03T10:02:48Z</time>
      </trkpt>
      <trkpt lat="58.926022" lon="17.536484">
        <ele>25.8</ele>
        <time>2017-09-03T10:02:49Z</time>
      </trkpt>
      <trkpt lat="58.925907" lon="17.536558">
        <ele>25.8</ele>
        <time>2017-09-03T10:02:50Z</time>
      </trkpt>
      <trkpt lat="58.925795" lon="17.536635">
        <ele>25.8</ele>
        <time>2017-09-03T10:02:51Z</time>
      </trkpt>
      <trkpt lat="58.925686" lon="17.536714">
        <ele>25.8</ele>
        <time>2017-09-03T10:02:52Z</time>
      </trkpt>
      <trkpt lat="58.925578" lon="17.536797">
        <ele>25.6</ele>
        <time>2017-09-03T10:02:53Z</time>
      </trkpt>
      <trkpt lat="58.925471" lon="17.536879">
        <ele>25.8</ele>
        <time>2017-09-03T10:02:54Z</time>
      </trkpt>
      <trkpt lat="58.925366" lon="17.536961">
        <ele>25.8</ele>
        <time>2017-09-03T10:02:55Z</time>
      </trkpt>
      <trkpt lat="58.925261" lon="17.537046">
        <ele>25.8</ele>
        <time>2017-09-03T10:02:56Z</time>
      </trkpt>
      <trkpt lat="58.925156" lon="17.537133">
        <ele>25.8</ele>
        <time>2017-09-03T10:02:57Z</time>
      </trkpt>
      <trkpt lat="58.925049" lon="17.537226">
        <ele>25.8</ele>
        <time>2017-09-03T10:02:58Z</time>
      </trkpt>
      <trkpt lat="58.924941" lon="17.537321">
        <ele>25.8</ele>
        <time>2017-09-03T10:02:59Z</time>
      </trkpt>
      <trkpt lat="58.924831" lon="17.53742">
        <ele>25.8</ele>
        <time>2017-09-03T10:03:00Z</time>
      </trkpt>
      <trkpt lat="58.924723" lon="17.537521">
        <ele>25.8</ele>
        <time>2017-09-03T10:03:01Z</time>
      </trkpt>
      <trkpt lat="58.924616" lon="17.537621">
        <ele>25.8</ele>
        <time>2017-09-03T10:03:02Z</time>
      </trkpt>
      <trkpt lat="58.924511" lon="17.537718">
        <ele>25.8</ele>
        <time>2017-09-03T10:03:03Z</time>
      </trkpt>
      <trkpt lat="58.924406" lon="17.537814">
        <ele>25.8</ele>
        <time>2017-09-03T10:03:04Z</time>
      </trkpt>
      <trkpt lat="58.924299" lon="17.53791">
        <ele>25.6</ele>
        <time>2017-09-03T10:03:05Z</time>
      </trkpt>
      <trkpt lat="58.924191" lon="17.538008">
        <ele>25.2</ele>
        <time>2017-09-03T10:03:06Z</time>
      </trkpt>
      <trkpt lat="58.924084" lon="17.538108">
        <ele>24.8</ele>
        <time>2017-09-03T10:03:07Z</time>
      </trkpt>
      <trkpt lat="58.923977" lon="17.538207">
        <ele>24.4</ele>
        <time>2017-09-03T10:03:08Z</time>
      </trkpt>
      <trkpt lat="58.923872" lon="17.538301">
        <ele>24.2</ele>
        <time>2017-09-03T10:03:09Z</time>
      </trkpt>
      <trkpt lat="58.923766" lon="17.538392">
        <ele>24.2</ele>
        <time>2017-09-03T10:03:10Z</time>
      </trkpt>
      <trkpt lat="58.923661" lon="17.538485">
        <ele>24</ele>
        <time>2017-09-03T10:03:11Z</time>
      </trkpt>
      <trkpt lat="58.923555" lon="17.53858">
        <ele>23.8</ele>
        <time>2017-09-03T10:03:12Z</time>
      </trkpt>
      <trkpt lat="58.92345" lon="17.538676">
        <ele>23.6</ele>
        <time>2017-09-03T10:03:13Z</time>
      </trkpt>
      <trkpt lat="58.923344" lon="17.538772">
        <ele>23.4</ele>
        <time>2017-09-03T10:03:14Z</time>
      </trkpt>
      <trkpt lat="58.923238" lon="17.53887">
        <ele>23.4</ele>
        <time>2017-09-03T10:03:15Z</time>
      </trkpt>
      <trkpt lat="58.923131" lon="17.538967">
        <ele>23.2</ele>
        <time>2017-09-03T10:03:16Z</time>
      </trkpt>
      <trkpt lat="58.923023" lon="17.539064">
        <ele>22.6</ele>
        <time>2017-09-03T10:03:17Z</time>
      </trkpt>
      <trkpt lat="58.922913" lon="17.539161">
        <ele>22.2</ele>
        <time>2017-09-03T10:03:18Z</time>
      </trkpt>
      <trkpt lat="58.922803" lon="17.53926">
        <ele>22</ele>
        <time>2017-09-03T10:03:19Z</time>
      </trkpt>
      <trkpt lat="58.922691" lon="17.539361">
        <ele>21.8</ele>
        <time>2017-09-03T10:03:20Z</time>
      </trkpt>
      <trkpt lat="58.922578" lon="17.539461">
        <ele>21.8</ele>
        <time>2017-09-03T10:03:21Z</time>
      </trkpt>
      <trkpt lat="58.922464" lon="17.539564">
        <ele>21.8</ele>
        <time>2017-09-03T10:03:22Z</time>
      </trkpt>
      <trkpt lat="58.92235" lon="17.539667">
        <ele>21.6</ele>
        <time>2017-09-03T10:03:23Z</time>
      </trkpt>
      <trkpt lat="58.922236" lon="17.539769">
        <ele>21.4</ele>
        <time>2017-09-03T10:03:24Z</time>
      </trkpt>
      <trkpt lat="58.922124" lon="17.53987">
        <ele>21.2</ele>
        <time>2017-09-03T10:03:25Z</time>
      </trkpt>
      <trkpt lat="58.922013" lon="17.53997">
        <ele>21</ele>
        <time>2017-09-03T10:03:26Z</time>
      </trkpt>
      <trkpt lat="58.921905" lon="17.540069">
        <ele>21</ele>
        <time>2017-09-03T10:03:27Z</time>
      </trkpt>
      <trkpt lat="58.921796" lon="17.540169">
        <ele>21.2</ele>
        <time>2017-09-03T10:03:28Z</time>
      </trkpt>
      <trkpt lat="58.921685" lon="17.54027">
        <ele>21.2</ele>
        <time>2017-09-03T10:03:29Z</time>
      </trkpt>
      <trkpt lat="58.921571" lon="17.540374">
        <ele>21.6</ele>
        <time>2017-09-03T10:03:30Z</time>
      </trkpt>
      <trkpt lat="58.921457" lon="17.540479">
        <ele>21.6</ele>
        <time>2017-09-03T10:03:31Z</time>
      </trkpt>
      <trkpt lat="58.921341" lon="17.540584">
        <ele>21.8</ele>
        <time>2017-09-03T10:03:32Z</time>
      </trkpt>
      <trkpt lat="58.921224" lon="17.540687">
        <ele>21.8</ele>
        <time>2017-09-03T10:03:33Z</time>
      </trkpt>
      <trkpt lat="58.921105" lon="17.540789">
        <ele>21.8</ele>
        <time>2017-09-03T10:03:34Z</time>
      </trkpt>
      <trkpt lat="58.920985" lon="17.540894">
        <ele>21.8</ele>
        <time>2017-09-03T10:03:35Z</time>
      </trkpt>
      <trkpt lat="58.920865" lon="17.541002">
        <ele>21.8</ele>
        <time>2017-09-03T10:03:36Z</time>
      </trkpt>
      <trkpt lat="58.920745" lon="17.54111">
        <ele>21.8</ele>
        <time>2017-09-03T10:03:37Z</time>
      </trkpt>
      <trkpt lat="58.920626" lon="17.541218">
        <ele>21.6</ele>
        <time>2017-09-03T10:03:38Z</time>
      </trkpt>
      <trkpt lat="58.920507" lon="17.541327">
        <ele>21.4</ele>
        <time>2017-09-03T10:03:39Z</time>
      </trkpt>
      <trkpt lat="58.92039" lon="17.541436">
        <ele>21.2</ele>
        <time>2017-09-03T10:03:40Z</time>
      </trkpt>
      <trkpt lat="58.920274" lon="17.541539">
        <ele>21</ele>
        <time>2017-09-03T10:03:41Z</time>
      </trkpt>
      <trkpt lat="58.920159" lon="17.541637">
        <ele>21</ele>
        <time>2017-09-03T10:03:42Z</time>
      </trkpt>
      <trkpt lat="58.920046" lon="17.541737">
        <ele>21</ele>
        <time>2017-09-03T10:03:43Z</time>
      </trkpt>
      <trkpt lat="58.919932" lon="17.541838">
        <ele>21</ele>
        <time>2017-09-03T10:03:44Z</time>
      </trkpt>
      <trkpt lat="58.919818" lon="17.541939">
        <ele>21.2</ele>
        <time>2017-09-03T10:03:45Z</time>
      </trkpt>
      <trkpt lat="58.919705" lon="17.542041">
        <ele>21.4</ele>
        <time>2017-09-03T10:03:46Z</time>
      </trkpt>
      <trkpt lat="58.919593" lon="17.542142">
        <ele>21.4</ele>
        <time>2017-09-03T10:03:47Z</time>
      </trkpt>
      <trkpt lat="58.91948" lon="17.542242">
        <ele>21.4</ele>
        <time>2017-09-03T10:03:48Z</time>
      </trkpt>
      <trkpt lat="58.919366" lon="17.542346">
        <ele>21.4</ele>
        <time>2017-09-03T10:03:49Z</time>
      </trkpt>
      <trkpt lat="58.919251" lon="17.542451">
        <ele>21.4</ele>
        <time>2017-09-03T10:03:50Z</time>
      </trkpt>
      <trkpt lat="58.919137" lon="17.542556">
        <ele>21.4</ele>
        <time>2017-09-03T10:03:51Z</time>
      </trkpt>
      <trkpt lat="58.919024" lon="17.542662">
        <ele>21.4</ele>
        <time>2017-09-03T10:03:52Z</time>
      </trkpt>
      <trkpt lat="58.918911" lon="17.542767">
        <ele>21.4</ele>
        <time>2017-09-03T10:03:53Z</time>
      </trkpt>
      <trkpt lat="58.9188" lon="17.542868">
        <ele>21.4</ele>
        <time>2017-09-03T10:03:54Z</time>
      </trkpt>
      <trkpt lat="58.918689" lon="17.542969">
        <ele>21.4</ele>
        <time>2017-09-03T10:03:55Z</time>
      </trkpt>
      <trkpt lat="58.918579" lon="17.54307">
        <ele>21.6</ele>
        <time>2017-09-03T10:03:56Z</time>
      </trkpt>
      <trkpt lat="58.918469" lon="17.54317">
        <ele>21.6</ele>
        <time>2017-09-03T10:03:57Z</time>
      </trkpt>
      <trkpt lat="58.918358" lon="17.543271">
        <ele>22</ele>
        <time>2017-09-03T10:03:58Z</time>
      </trkpt>
      <trkpt lat="58.918248" lon="17.543371">
        <ele>22.2</ele>
        <time>2017-09-03T10:03:59Z</time>
      </trkpt>
      <trkpt lat="58.918138" lon="17.543472">
        <ele>22.4</ele>
        <time>2017-09-03T10:04:00Z</time>
      </trkpt>
      <trkpt lat="58.91803" lon="17.543574">
        <ele>22.6</ele>
        <time>2017-09-03T10:04:01Z</time>
      </trkpt>
      <trkpt lat="58.917924" lon="17.543674">
        <ele>22.8</ele>
        <time>2017-09-03T10:04:02Z</time>
      </trkpt>
      <trkpt lat="58.917821" lon="17.54377">
        <ele>22.8</ele>
        <time>2017-09-03T10:04:03Z</time>
      </trkpt>
      <trkpt lat="58.917719" lon="17.543862">
        <ele>23</ele>
        <time>2017-09-03T10:04:04Z</time>
      </trkpt>
      <trkpt lat="58.917619" lon="17.543955">
        <ele>23</ele>
        <time>2017-09-03T10:04:05Z</time>
      </trkpt>
      <trkpt lat="58.91752" lon="17.544046">
        <ele>23</ele>
        <time>2017-09-03T10:04:06Z</time>
      </trkpt>
      <trkpt lat="58.91742" lon="17.544137">
        <ele>23</ele>
        <time>2017-09-03T10:04:07Z</time>
      </trkpt>
      <trkpt lat="58.91732" lon="17.54423">
        <ele>23</ele>
        <time>2017-09-03T10:04:08Z</time>
      </trkpt>
      <trkpt lat="58.917219" lon="17.544323">
        <ele>23.4</ele>
        <time>2017-09-03T10:04:09Z</time>
      </trkpt>
      <trkpt lat="58.917118" lon="17.544419">
        <ele>23.4</ele>
        <time>2017-09-03T10:04:10Z</time>
      </trkpt>
      <trkpt lat="58.917015" lon="17.544514">
        <ele>23.4</ele>
        <time>2017-09-03T10:04:11Z</time>
      </trkpt>
      <trkpt lat="58.91691" lon="17.544609">
        <ele>23.6</ele>
        <time>2017-09-03T10:04:12Z</time>
      </trkpt>
      <trkpt lat="58.916807" lon="17.544706">
        <ele>23.6</ele>
        <time>2017-09-03T10:04:13Z</time>
      </trkpt>
      <trkpt lat="58.916702" lon="17.544805">
        <ele>23.6</ele>
        <time>2017-09-03T10:04:14Z</time>
      </trkpt>
      <trkpt lat="58.916594" lon="17.544903">
        <ele>23.6</ele>
        <time>2017-09-03T10:04:15Z</time>
      </trkpt>
      <trkpt lat="58.916485" lon="17.545007">
        <ele>23.6</ele>
        <time>2017-09-03T10:04:16Z</time>
      </trkpt>
      <trkpt lat="58.916376" lon="17.545113">
        <ele>23.6</ele>
        <time>2017-09-03T10:04:17Z</time>
      </trkpt>
      <trkpt lat="58.916268" lon="17.545215">
        <ele>23.6</ele>
        <time>2017-09-03T10:04:18Z</time>
      </trkpt>
      <trkpt lat="58.916161" lon="17.545314">
        <ele>23.6</ele>
        <time>2017-09-03T10:04:19Z</time>
      </trkpt>
      <trkpt lat="58.916054" lon="17.545413">
        <ele>23.6</ele>
        <time>2017-09-03T10:04:20Z</time>
      </trkpt>
      <trkpt lat="58.915947" lon="17.545512">
        <ele>23.6</ele>
        <time>2017-09-03T10:04:21Z</time>
      </trkpt>
      <trkpt lat="58.915837" lon="17.545609">
        <ele>23.6</ele>
        <time>2017-09-03T10:04:22Z</time>
      </trkpt>
      <trkpt lat="58.915729" lon="17.545712">
        <ele>23.6</ele>
        <time>2017-09-03T10:04:23Z</time>
      </trkpt>
      <trkpt lat="58.915621" lon="17.545816">
        <ele>23.6</ele>
        <time>2017-09-03T10:04:24Z</time>
      </trkpt>
      <trkpt lat="58.915514" lon="17.545919">
        <ele>23.6</ele>
        <time>2017-09-03T10:04:25Z</time>
      </trkpt>
      <trkpt lat="58.915409" lon="17.546021">
        <ele>23.6</ele>
        <time>2017-09-03T10:04:26Z</time>
      </trkpt>
      <trkpt lat="58.915303" lon="17.546121">
        <ele>23.6</ele>
        <time>2017-09-03T10:04:27Z</time>
      </trkpt>
      <trkpt lat="58.915198" lon="17.54622">
        <ele>23.6</ele>
        <time>2017-09-03T10:04:28Z</time>
      </trkpt>
      <trkpt lat="58.915095" lon="17.546318">
        <ele>23.6</ele>
        <time>2017-09-03T10:04:29Z</time>
      </trkpt>
      <trkpt lat="58.914994" lon="17.546413">
        <ele>23.6</ele>
        <time>2017-09-03T10:04:30Z</time>
      </trkpt>
      <trkpt lat="58.914892" lon="17.546506">
        <ele>23.6</ele>
        <time>2017-09-03T10:04:31Z</time>
      </trkpt>
      <trkpt lat="58.91479" lon="17.5466">
        <ele>23.6</ele>
        <time>2017-09-03T10:04:32Z</time>
      </trkpt>
      <trkpt lat="58.914688" lon="17.546696">
        <ele>23.8</ele>
        <time>2017-09-03T10:04:33Z</time>
      </trkpt>
      <trkpt lat="58.914586" lon="17.546793">
        <ele>23.8</ele>
        <time>2017-09-03T10:04:34Z</time>
      </trkpt>
      <trkpt lat="58.914484" lon="17.54689">
        <ele>24</ele>
        <time>2017-09-03T10:04:35Z</time>
      </trkpt>
      <trkpt lat="58.914382" lon="17.546987">
        <ele>24</ele>
        <time>2017-09-03T10:04:36Z</time>
      </trkpt>
      <trkpt lat="58.914279" lon="17.547088">
        <ele>24</ele>
        <time>2017-09-03T10:04:37Z</time>
      </trkpt>
      <trkpt lat="58.914177" lon="17.547194">
        <ele>24</ele>
        <time>2017-09-03T10:04:38Z</time>
      </trkpt>
      <trkpt lat="58.914076" lon="17.547301">
        <ele>24</ele>
        <time>2017-09-03T10:04:39Z</time>
      </trkpt>
      <trkpt lat="58.913974" lon="17.547407">
        <ele>24</ele>
        <time>2017-09-03T10:04:40Z</time>
      </trkpt>
      <trkpt lat="58.913872" lon="17.547511">
        <ele>23.8</ele>
        <time>2017-09-03T10:04:41Z</time>
      </trkpt>
      <trkpt lat="58.913771" lon="17.547614">
        <ele>24</ele>
        <time>2017-09-03T10:04:42Z</time>
      </trkpt>
      <trkpt lat="58.91367" lon="17.547715">
        <ele>24.2</ele>
        <time>2017-09-03T10:04:43Z</time>
      </trkpt>
      <trkpt lat="58.91357" lon="17.547812">
        <ele>24.2</ele>
        <time>2017-09-03T10:04:44Z</time>
      </trkpt>
      <trkpt lat="58.913472" lon="17.547906">
        <ele>24.4</ele>
        <time>2017-09-03T10:04:45Z</time>
      </trkpt>
      <trkpt lat="58.913373" lon="17.547999">
        <ele>24.8</ele>
        <time>2017-09-03T10:04:46Z</time>
      </trkpt>
      <trkpt lat="58.913275" lon="17.548092">
        <ele>25</ele>
        <time>2017-09-03T10:04:47Z</time>
      </trkpt>
      <trkpt lat="58.913177" lon="17.548186">
        <ele>25.4</ele>
        <time>2017-09-03T10:04:48Z</time>
      </trkpt>
      <trkpt lat="58.91308" lon="17.548277">
        <ele>25.6</ele>
        <time>2017-09-03T10:04:49Z</time>
      </trkpt>
      <trkpt lat="58.912982" lon="17.548366">
        <ele>25.6</ele>
        <time>2017-09-03T10:04:50Z</time>
      </trkpt>
      <trkpt lat="58.912883" lon="17.548454">
        <ele>25.6</ele>
        <time>2017-09-03T10:04:51Z</time>
      </trkpt>
      <trkpt lat="58.912785" lon="17.548541">
        <ele>25.8</ele>
        <time>2017-09-03T10:04:52Z</time>
      </trkpt>
      <trkpt lat="58.912683" lon="17.548624">
        <ele>25.8</ele>
        <time>2017-09-03T10:04:53Z</time>
      </trkpt>
      <trkpt lat="58.912579" lon="17.548697">
        <ele>26</ele>
        <time>2017-09-03T10:04:54Z</time>
      </trkpt>
      <trkpt lat="58.912472" lon="17.548764">
        <ele>26.2</ele>
        <time>2017-09-03T10:04:55Z</time>
      </trkpt>
      <trkpt lat="58.912361" lon="17.548821">
        <ele>26.4</ele>
        <time>2017-09-03T10:04:56Z</time>
      </trkpt>
      <trkpt lat="58.912246" lon="17.548866">
        <ele>26.6</ele>
        <time>2017-09-03T10:04:57Z</time>
      </trkpt>
      <trkpt lat="58.912128" lon="17.548901">
        <ele>26.8</ele>
        <time>2017-09-03T10:04:58Z</time>
      </trkpt>
      <trkpt lat="58.912009" lon="17.548934">
        <ele>26.8</ele>
        <time>2017-09-03T10:04:59Z</time>
      </trkpt>
      <trkpt lat="58.911888" lon="17.548965">
        <ele>26.8</ele>
        <time>2017-09-03T10:05:00Z</time>
      </trkpt>
      <trkpt lat="58.911768" lon="17.548994">
        <ele>27</ele>
        <time>2017-09-03T10:05:01Z</time>
      </trkpt>
      <trkpt lat="58.911647" lon="17.549024">
        <ele>27</ele>
        <time>2017-09-03T10:05:02Z</time>
      </trkpt>
      <trkpt lat="58.911527" lon="17.549054">
        <ele>27</ele>
        <time>2017-09-03T10:05:03Z</time>
      </trkpt>
      <trkpt lat="58.911404" lon="17.549083">
        <ele>27</ele>
        <time>2017-09-03T10:05:04Z</time>
      </trkpt>
      <trkpt lat="58.911278" lon="17.549114">
        <ele>27</ele>
        <time>2017-09-03T10:05:05Z</time>
      </trkpt>
      <trkpt lat="58.911153" lon="17.549142">
        <ele>27</ele>
        <time>2017-09-03T10:05:06Z</time>
      </trkpt>
      <trkpt lat="58.911028" lon="17.549171">
        <ele>27</ele>
        <time>2017-09-03T10:05:07Z</time>
      </trkpt>
      <trkpt lat="58.910903" lon="17.549202">
        <ele>26.8</ele>
        <time>2017-09-03T10:05:08Z</time>
      </trkpt>
      <trkpt lat="58.910779" lon="17.549232">
        <ele>26.6</ele>
        <time>2017-09-03T10:05:09Z</time>
      </trkpt>
      <trkpt lat="58.910656" lon="17.549263">
        <ele>26.4</ele>
        <time>2017-09-03T10:05:10Z</time>
      </trkpt>
      <trkpt lat="58.910534" lon="17.549294">
        <ele>26.2</ele>
        <time>2017-09-03T10:05:11Z</time>
      </trkpt>
      <trkpt lat="58.91041" lon="17.549326">
        <ele>26</ele>
        <time>2017-09-03T10:05:12Z</time>
      </trkpt>
      <trkpt lat="58.910286" lon="17.549359">
        <ele>25.8</ele>
        <time>2017-09-03T10:05:13Z</time>
      </trkpt>
      <trkpt lat="58.910161" lon="17.549393">
        <ele>25.6</ele>
        <time>2017-09-03T10:05:14Z</time>
      </trkpt>
      <trkpt lat="58.910037" lon="17.549423">
        <ele>25.6</ele>
        <time>2017-09-03T10:05:15Z</time>
      </trkpt>
      <trkpt lat="58.909915" lon="17.549454">
        <ele>25.4</ele>
        <time>2017-09-03T10:05:16Z</time>
      </trkpt>
      <trkpt lat="58.909792" lon="17.549487">
        <ele>25.2</ele>
        <time>2017-09-03T10:05:17Z</time>
      </trkpt>
      <trkpt lat="58.909669" lon="17.549521">
        <ele>25.2</ele>
        <time>2017-09-03T10:05:18Z</time>
      </trkpt>
      <trkpt lat="58.909547" lon="17.549553">
        <ele>25</ele>
        <time>2017-09-03T10:05:19Z</time>
      </trkpt>
      <trkpt lat="58.909423" lon="17.549584">
        <ele>24.8</ele>
        <time>2017-09-03T10:05:20Z</time>
      </trkpt>
      <trkpt lat="58.9093" lon="17.549615">
        <ele>24.8</ele>
        <time>2017-09-03T10:05:21Z</time>
      </trkpt>
      <trkpt lat="58.909179" lon="17.549646">
        <ele>24.6</ele>
        <time>2017-09-03T10:05:22Z</time>
      </trkpt>
      <trkpt lat="58.909058" lon="17.549679">
        <ele>24.6</ele>
        <time>2017-09-03T10:05:23Z</time>
      </trkpt>
      <trkpt lat="58.908938" lon="17.54971">
        <ele>24.4</ele>
        <time>2017-09-03T10:05:24Z</time>
      </trkpt>
      <trkpt lat="58.90882" lon="17.549742">
        <ele>24.4</ele>
        <time>2017-09-03T10:05:25Z</time>
      </trkpt>
      <trkpt lat="58.908702" lon="17.549775">
        <ele>24.2</ele>
        <time>2017-09-03T10:05:26Z</time>
      </trkpt>
      <trkpt lat="58.908586" lon="17.549805">
        <ele>24.2</ele>
        <time>2017-09-03T10:05:27Z</time>
      </trkpt>
      <trkpt lat="58.908468" lon="17.549832">
        <ele>24.2</ele>
        <time>2017-09-03T10:05:28Z</time>
      </trkpt>
      <trkpt lat="58.908352" lon="17.549861">
        <ele>24.2</ele>
        <time>2017-09-03T10:05:29Z</time>
      </trkpt>
      <trkpt lat="58.908236" lon="17.549889">
        <ele>24.2</ele>
        <time>2017-09-03T10:05:30Z</time>
      </trkpt>
      <trkpt lat="58.908119" lon="17.54992">
        <ele>24.2</ele>
        <time>2017-09-03T10:05:31Z</time>
      </trkpt>
      <trkpt lat="58.908001" lon="17.549953">
        <ele>24</ele>
        <time>2017-09-03T10:05:32Z</time>
      </trkpt>
      <trkpt lat="58.907883" lon="17.549987">
        <ele>24</ele>
        <time>2017-09-03T10:05:33Z</time>
      </trkpt>
      <trkpt lat="58.907766" lon="17.55002">
        <ele>24</ele>
        <time>2017-09-03T10:05:34Z</time>
      </trkpt>
      <trkpt lat="58.907649" lon="17.550049">
        <ele>23.8</ele>
        <time>2017-09-03T10:05:35Z</time>
      </trkpt>
      <trkpt lat="58.907534" lon="17.550076">
        <ele>23.8</ele>
        <time>2017-09-03T10:05:36Z</time>
      </trkpt>
      <trkpt lat="58.907418" lon="17.550104">
        <ele>23.8</ele>
        <time>2017-09-03T10:05:37Z</time>
      </trkpt>
      <trkpt lat="58.907303" lon="17.550134">
        <ele>23.8</ele>
        <time>2017-09-03T10:05:38Z</time>
      </trkpt>
      <trkpt lat="58.907187" lon="17.550165">
        <ele>23.8</ele>
        <time>2017-09-03T10:05:39Z</time>
      </trkpt>
      <trkpt lat="58.907073" lon="17.550199">
        <ele>23.6</ele>
        <time>2017-09-03T10:05:40Z</time>
      </trkpt>
      <trkpt lat="58.90696" lon="17.550234">
        <ele>23.6</ele>
        <time>2017-09-03T10:05:41Z</time>
      </trkpt>
      <trkpt lat="58.90685" lon="17.550264">
        <ele>23.6</ele>
        <time>2017-09-03T10:05:42Z</time>
      </trkpt>
      <trkpt lat="58.90674" lon="17.550292">
        <ele>23.4</ele>
        <time>2017-09-03T10:05:43Z</time>
      </trkpt>
      <trkpt lat="58.906631" lon="17.550322">
        <ele>23.4</ele>
        <time>2017-09-03T10:05:44Z</time>
      </trkpt>
      <trkpt lat="58.906521" lon="17.550352">
        <ele>23.4</ele>
        <time>2017-09-03T10:05:45Z</time>
      </trkpt>
      <trkpt lat="58.906414" lon="17.550382">
        <ele>23.2</ele>
        <time>2017-09-03T10:05:46Z</time>
      </trkpt>
      <trkpt lat="58.906312" lon="17.550409">
        <ele>23.2</ele>
        <time>2017-09-03T10:05:47Z</time>
      </trkpt>
      <trkpt lat="58.906213" lon="17.550437">
        <ele>23.2</ele>
        <time>2017-09-03T10:05:48Z</time>
      </trkpt>
      <trkpt lat="58.906118" lon="17.55046">
        <ele>23.2</ele>
        <time>2017-09-03T10:05:49Z</time>
      </trkpt>
      <trkpt lat="58.906024" lon="17.550479">
        <ele>23.4</ele>
        <time>2017-09-03T10:05:50Z</time>
      </trkpt>
      <trkpt lat="58.905931" lon="17.550485">
        <ele>23.4</ele>
        <time>2017-09-03T10:05:51Z</time>
      </trkpt>
      <trkpt lat="58.905838" lon="17.550466">
        <ele>23.4</ele>
        <time>2017-09-03T10:05:52Z</time>
      </trkpt>
      <trkpt lat="58.905747" lon="17.550427">
        <ele>23.4</ele>
        <time>2017-09-03T10:05:53Z</time>
      </trkpt>
      <trkpt lat="58.905655" lon="17.550402">
        <ele>23.4</ele>
        <time>2017-09-03T10:05:54Z</time>
      </trkpt>
      <trkpt lat="58.905562" lon="17.550418">
        <ele>23.4</ele>
        <time>2017-09-03T10:05:55Z</time>
      </trkpt>
      <trkpt lat="58.905466" lon="17.55046">
        <ele>23.4</ele>
        <time>2017-09-03T10:05:56Z</time>
      </trkpt>
      <trkpt lat="58.905363" lon="17.550489">
        <ele>23.4</ele>
        <time>2017-09-03T10:05:57Z</time>
      </trkpt>
      <trkpt lat="58.905254" lon="17.550488">
        <ele>23.4</ele>
        <time>2017-09-03T10:05:58Z</time>
      </trkpt>
      <trkpt lat="58.90514" lon="17.550451">
        <ele>23.4</ele>
        <time>2017-09-03T10:05:59Z</time>
      </trkpt>
      <trkpt lat="58.905022" lon="17.550396">
        <ele>23.4</ele>
        <time>2017-09-03T10:06:00Z</time>
      </trkpt>
      <trkpt lat="58.904903" lon="17.55034">
        <ele>23.4</ele>
        <time>2017-09-03T10:06:01Z</time>
      </trkpt>
      <trkpt lat="58.904783" lon="17.550286">
        <ele>23.4</ele>
        <time>2017-09-03T10:06:02Z</time>
      </trkpt>
      <trkpt lat="58.90466" lon="17.550231">
        <ele>23.4</ele>
        <time>2017-09-03T10:06:03Z</time>
      </trkpt>
      <trkpt lat="58.904537" lon="17.55018">
        <ele>23.4</ele>
        <time>2017-09-03T10:06:04Z</time>
      </trkpt>
      <trkpt lat="58.904414" lon="17.550127">
        <ele>23.4</ele>
        <time>2017-09-03T10:06:05Z</time>
      </trkpt>
      <trkpt lat="58.904291" lon="17.550071">
        <ele>23.4</ele>
        <time>2017-09-03T10:06:06Z</time>
      </trkpt>
      <trkpt lat="58.90417" lon="17.550017">
        <ele>23.4</ele>
        <time>2017-09-03T10:06:07Z</time>
      </trkpt>
      <trkpt lat="58.90405" lon="17.549961">
        <ele>23.4</ele>
        <time>2017-09-03T10:06:08Z</time>
      </trkpt>
      <trkpt lat="58.903934" lon="17.549906">
        <ele>23.4</ele>
        <time>2017-09-03T10:06:09Z</time>
      </trkpt>
      <trkpt lat="58.90382" lon="17.549851">
        <ele>23.4</ele>
        <time>2017-09-03T10:06:10Z</time>
      </trkpt>
      <trkpt lat="58.90371" lon="17.549799">
        <ele>23.4</ele>
        <time>2017-09-03T10:06:11Z</time>
      </trkpt>
      <trkpt lat="58.903601" lon="17.549748">
        <ele>23.2</ele>
        <time>2017-09-03T10:06:12Z</time>
      </trkpt>
      <trkpt lat="58.903494" lon="17.549699">
        <ele>23.2</ele>
        <time>2017-09-03T10:06:13Z</time>
      </trkpt>
      <trkpt lat="58.903387" lon="17.549648">
        <ele>23.2</ele>
        <time>2017-09-03T10:06:14Z</time>
      </trkpt>
      <trkpt lat="58.903283" lon="17.549597">
        <ele>22.8</ele>
        <time>2017-09-03T10:06:15Z</time>
      </trkpt>
      <trkpt lat="58.903179" lon="17.549546">
        <ele>22.8</ele>
        <time>2017-09-03T10:06:16Z</time>
      </trkpt>
      <trkpt lat="58.903075" lon="17.549495">
        <ele>22.8</ele>
        <time>2017-09-03T10:06:17Z</time>
      </trkpt>
      <trkpt lat="58.902972" lon="17.549444">
        <ele>22.6</ele>
        <time>2017-09-03T10:06:18Z</time>
      </trkpt>
      <trkpt lat="58.902867" lon="17.549391">
        <ele>22.6</ele>
        <time>2017-09-03T10:06:19Z</time>
      </trkpt>
      <trkpt lat="58.902761" lon="17.549337">
        <ele>22.6</ele>
        <time>2017-09-03T10:06:20Z</time>
      </trkpt>
      <trkpt lat="58.902654" lon="17.549285">
        <ele>22.8</ele>
        <time>2017-09-03T10:06:21Z</time>
      </trkpt>
      <trkpt lat="58.902545" lon="17.549234">
        <ele>22.6</ele>
        <time>2017-09-03T10:06:22Z</time>
      </trkpt>
      <trkpt lat="58.902435" lon="17.549183">
        <ele>22.6</ele>
        <time>2017-09-03T10:06:23Z</time>
      </trkpt>
      <trkpt lat="58.902324" lon="17.549134">
        <ele>22.6</ele>
        <time>2017-09-03T10:06:24Z</time>
      </trkpt>
      <trkpt lat="58.902212" lon="17.549089">
        <ele>22.6</ele>
        <time>2017-09-03T10:06:25Z</time>
      </trkpt>
      <trkpt lat="58.902099" lon="17.54905">
        <ele>22.6</ele>
        <time>2017-09-03T10:06:26Z</time>
      </trkpt>
      <trkpt lat="58.901983" lon="17.54902">
        <ele>22.6</ele>
        <time>2017-09-03T10:06:27Z</time>
      </trkpt>
      <trkpt lat="58.901869" lon="17.548999">
        <ele>22.8</ele>
        <time>2017-09-03T10:06:28Z</time>
      </trkpt>
      <trkpt lat="58.901752" lon="17.548994">
        <ele>22.8</ele>
        <time>2017-09-03T10:06:29Z</time>
      </trkpt>
      <trkpt lat="58.901634" lon="17.549006">
        <ele>22.6</ele>
        <time>2017-09-03T10:06:30Z</time>
      </trkpt>
      <trkpt lat="58.901513" lon="17.549037">
        <ele>22.6</ele>
        <time>2017-09-03T10:06:31Z</time>
      </trkpt>
      <trkpt lat="58.901394" lon="17.549082">
        <ele>22.6</ele>
        <time>2017-09-03T10:06:32Z</time>
      </trkpt>
      <trkpt lat="58.901279" lon="17.549139">
        <ele>22.6</ele>
        <time>2017-09-03T10:06:33Z</time>
      </trkpt>
      <trkpt lat="58.901167" lon="17.549212">
        <ele>22.6</ele>
        <time>2017-09-03T10:06:34Z</time>
      </trkpt>
      <trkpt lat="58.901055" lon="17.549303">
        <ele>22.6</ele>
        <time>2017-09-03T10:06:35Z</time>
      </trkpt>
      <trkpt lat="58.900945" lon="17.549412">
        <ele>22.6</ele>
        <time>2017-09-03T10:06:36Z</time>
      </trkpt>
      <trkpt lat="58.900837" lon="17.549521">
        <ele>22.6</ele>
        <time>2017-09-03T10:06:37Z</time>
      </trkpt>
      <trkpt lat="58.900727" lon="17.549629">
        <ele>22.6</ele>
        <time>2017-09-03T10:06:38Z</time>
      </trkpt>
      <trkpt lat="58.900616" lon="17.549737">
        <ele>22.4</ele>
        <time>2017-09-03T10:06:39Z</time>
      </trkpt>
      <trkpt lat="58.900505" lon="17.549847">
        <ele>22.4</ele>
        <time>2017-09-03T10:06:40Z</time>
      </trkpt>
      <trkpt lat="58.900394" lon="17.549957">
        <ele>22.4</ele>
        <time>2017-09-03T10:06:41Z</time>
      </trkpt>
      <trkpt lat="58.900282" lon="17.550059">
        <ele>22.4</ele>
        <time>2017-09-03T10:06:42Z</time>
      </trkpt>
      <trkpt lat="58.900169" lon="17.550145">
        <ele>22.4</ele>
        <time>2017-09-03T10:06:43Z</time>
      </trkpt>
      <trkpt lat="58.900051" lon="17.550202">
        <ele>22.4</ele>
        <time>2017-09-03T10:06:44Z</time>
      </trkpt>
      <trkpt lat="58.89993" lon="17.550232">
        <ele>22.4</ele>
        <time>2017-09-03T10:06:45Z</time>
      </trkpt>
      <trkpt lat="58.899809" lon="17.550238">
        <ele>22.4</ele>
        <time>2017-09-03T10:06:46Z</time>
      </trkpt>
      <trkpt lat="58.899694" lon="17.550226">
        <ele>22.4</ele>
        <time>2017-09-03T10:06:47Z</time>
      </trkpt>
      <trkpt lat="58.899585" lon="17.550209">
        <ele>22.4</ele>
        <time>2017-09-03T10:06:48Z</time>
      </trkpt>
      <trkpt lat="58.899483" lon="17.550191">
        <ele>22.4</ele>
        <time>2017-09-03T10:06:49Z</time>
      </trkpt>
      <trkpt lat="58.899385" lon="17.550175">
        <ele>22.6</ele>
        <time>2017-09-03T10:06:50Z</time>
      </trkpt>
      <trkpt lat="58.89929" lon="17.550156">
        <ele>22.6</ele>
        <time>2017-09-03T10:06:51Z</time>
      </trkpt>
      <trkpt lat="58.899198" lon="17.55014">
        <ele>22.6</ele>
        <time>2017-09-03T10:06:52Z</time>
      </trkpt>
      <trkpt lat="58.899111" lon="17.550128">
        <ele>22.8</ele>
        <time>2017-09-03T10:06:53Z</time>
      </trkpt>
      <trkpt lat="58.89903" lon="17.550119">
        <ele>23.2</ele>
        <time>2017-09-03T10:06:54Z</time>
      </trkpt>
      <trkpt lat="58.898955" lon="17.550102">
        <ele>23.4</ele>
        <time>2017-09-03T10:06:55Z</time>
      </trkpt>
      <trkpt lat="58.898893" lon="17.550041">
        <ele>23.6</ele>
        <time>2017-09-03T10:06:56Z</time>
      </trkpt>
      <trkpt lat="58.898856" lon="17.549926">
        <ele>23.8</ele>
        <time>2017-09-03T10:06:57Z</time>
      </trkpt>
      <trkpt lat="58.898844" lon="17.549783">
        <ele>24</ele>
        <time>2017-09-03T10:06:58Z</time>
      </trkpt>
      <trkpt lat="58.89885" lon="17.549625">
        <ele>24</ele>
        <time>2017-09-03T10:06:59Z</time>
      </trkpt>
      <trkpt lat="58.898864" lon="17.549449">
        <ele>24.2</ele>
        <time>2017-09-03T10:07:00Z</time>
      </trkpt>
      <trkpt lat="58.89888" lon="17.549251">
        <ele>24.2</ele>
        <time>2017-09-03T10:07:01Z</time>
      </trkpt>
      <trkpt lat="58.898899" lon="17.54904">
        <ele>24.2</ele>
        <time>2017-09-03T10:07:02Z</time>
      </trkpt>
      <trkpt lat="58.89892" lon="17.548827">
        <ele>24.2</ele>
        <time>2017-09-03T10:07:03Z</time>
      </trkpt>
      <trkpt lat="58.898944" lon="17.548616">
        <ele>24.2</ele>
        <time>2017-09-03T10:07:04Z</time>
      </trkpt>
      <trkpt lat="58.898967" lon="17.548407">
        <ele>24.4</ele>
        <time>2017-09-03T10:07:05Z</time>
      </trkpt>
      <trkpt lat="58.89899" lon="17.548199">
        <ele>24.4</ele>
        <time>2017-09-03T10:07:06Z</time>
      </trkpt>
      <trkpt lat="58.899007" lon="17.547994">
        <ele>24.4</ele>
        <time>2017-09-03T10:07:07Z</time>
      </trkpt>
      <trkpt lat="58.899013" lon="17.547788">
        <ele>24.2</ele>
        <time>2017-09-03T10:07:08Z</time>
      </trkpt>
      <trkpt lat="58.899009" lon="17.547585">
        <ele>24</ele>
        <time>2017-09-03T10:07:09Z</time>
      </trkpt>
      <trkpt lat="58.898994" lon="17.547386">
        <ele>23.6</ele>
        <time>2017-09-03T10:07:10Z</time>
      </trkpt>
      <trkpt lat="58.898969" lon="17.547196">
        <ele>23.4</ele>
        <time>2017-09-03T10:07:11Z</time>
      </trkpt>
      <trkpt lat="58.898935" lon="17.547009">
        <ele>23</ele>
        <time>2017-09-03T10:07:12Z</time>
      </trkpt>
      <trkpt lat="58.898892" lon="17.546825">
        <ele>22.8</ele>
        <time>2017-09-03T10:07:13Z</time>
      </trkpt>
      <trkpt lat="58.898845" lon="17.546643">
        <ele>22.6</ele>
        <time>2017-09-03T10:07:14Z</time>
      </trkpt>
      <trkpt lat="58.898799" lon="17.546462">
        <ele>22.4</ele>
        <time>2017-09-03T10:07:15Z</time>
      </trkpt>
      <trkpt lat="58.898752" lon="17.54628">
        <ele>22.4</ele>
        <time>2017-09-03T10:07:16Z</time>
      </trkpt>
      <trkpt lat="58.898707" lon="17.546103">
        <ele>22.4</ele>
        <time>2017-09-03T10:07:17Z</time>
      </trkpt>
      <trkpt lat="58.898668" lon="17.545923">
        <ele>22.4</ele>
        <time>2017-09-03T10:07:18Z</time>
      </trkpt>
      <trkpt lat="58.898635" lon="17.545738">
        <ele>22.2</ele>
        <time>2017-09-03T10:07:19Z</time>
      </trkpt>
      <trkpt lat="58.89861" lon="17.545551">
        <ele>22.2</ele>
        <time>2017-09-03T10:07:20Z</time>
      </trkpt>
      <trkpt lat="58.898591" lon="17.545367">
        <ele>22.2</ele>
        <time>2017-09-03T10:07:21Z</time>
      </trkpt>
      <trkpt lat="58.898579" lon="17.545187">
        <ele>22.2</ele>
        <time>2017-09-03T10:07:22Z</time>
      </trkpt>
      <trkpt lat="58.898579" lon="17.545015">
        <ele>22.2</ele>
        <time>2017-09-03T10:07:23Z</time>
      </trkpt>
      <trkpt lat="58.898595" lon="17.544849">
        <ele>22.2</ele>
        <time>2017-09-03T10:07:24Z</time>
      </trkpt>
      <trkpt lat="58.898622" lon="17.544692">
        <ele>22.2</ele>
        <time>2017-09-03T10:07:25Z</time>
      </trkpt>
      <trkpt lat="58.898652" lon="17.54454">
        <ele>22.2</ele>
        <time>2017-09-03T10:07:26Z</time>
      </trkpt>
      <trkpt lat="58.898679" lon="17.544386">
        <ele>22.2</ele>
        <time>2017-09-03T10:07:27Z</time>
      </trkpt>
      <trkpt lat="58.8987" lon="17.544228">
        <ele>22.2</ele>
        <time>2017-09-03T10:07:28Z</time>
      </trkpt>
      <trkpt lat="58.898713" lon="17.544064">
        <ele>22.2</ele>
        <time>2017-09-03T10:07:29Z</time>
      </trkpt>
      <trkpt lat="58.89872" lon="17.543901">
        <ele>22.4</ele>
        <time>2017-09-03T10:07:30Z</time>
      </trkpt>
      <trkpt lat="58.898722" lon="17.543742">
        <ele>22.6</ele>
        <time>2017-09-03T10:07:31Z</time>
      </trkpt>
      <trkpt lat="58.898722" lon="17.543583">
        <ele>23</ele>
        <time>2017-09-03T10:07:32Z</time>
      </trkpt>
      <trkpt lat="58.89872" lon="17.543426">
        <ele>23.6</ele>
        <time>2017-09-03T10:07:33Z</time>
      </trkpt>
      <trkpt lat="58.898719" lon="17.543274">
        <ele>24.2</ele>
        <time>2017-09-03T10:07:34Z</time>
      </trkpt>
      <trkpt lat="58.898719" lon="17.543127">
        <ele>24.8</ele>
        <time>2017-09-03T10:07:35Z</time>
      </trkpt>
      <trkpt lat="58.898716" lon="17.542977">
        <ele>25.6</ele>
        <time>2017-09-03T10:07:36Z</time>
      </trkpt>
      <trkpt lat="58.898714" lon="17.542832">
        <ele>26</ele>
        <time>2017-09-03T10:07:37Z</time>
      </trkpt>
      <trkpt lat="58.898713" lon="17.542684">
        <ele>26.2</ele>
        <time>2017-09-03T10:07:38Z</time>
      </trkpt>
      <trkpt lat="58.89871" lon="17.542532">
        <ele>26.4</ele>
        <time>2017-09-03T10:07:39Z</time>
      </trkpt>
      <trkpt lat="58.898704" lon="17.542377">
        <ele>26.8</ele>
        <time>2017-09-03T10:07:40Z</time>
      </trkpt>
      <trkpt lat="58.898693" lon="17.542217">
        <ele>27</ele>
        <time>2017-09-03T10:07:41Z</time>
      </trkpt>
      <trkpt lat="58.898682" lon="17.542055">
        <ele>27.6</ele>
        <time>2017-09-03T10:07:42Z</time>
      </trkpt>
      <trkpt lat="58.89867" lon="17.541891">
        <ele>28</ele>
        <time>2017-09-03T10:07:43Z</time>
      </trkpt>
      <trkpt lat="58.898659" lon="17.54172">
        <ele>28.2</ele>
        <time>2017-09-03T10:07:44Z</time>
      </trkpt>
      <trkpt lat="58.898648" lon="17.541544">
        <ele>28.2</ele>
        <time>2017-09-03T10:07:45Z</time>
      </trkpt>
      <trkpt lat="58.898634" lon="17.541364">
        <ele>28.4</ele>
        <time>2017-09-03T10:07:46Z</time>
      </trkpt>
      <trkpt lat="58.89862" lon="17.541182">
        <ele>28.4</ele>
        <time>2017-09-03T10:07:47Z</time>
      </trkpt>
      <trkpt lat="58.898605" lon="17.541002">
        <ele>28.6</ele>
        <time>2017-09-03T10:07:48Z</time>
      </trkpt>
      <trkpt lat="58.898589" lon="17.540828">
        <ele>28.6</ele>
        <time>2017-09-03T10:07:49Z</time>
      </trkpt>
      <trkpt lat="58.898573" lon="17.540656">
        <ele>28.6</ele>
        <time>2017-09-03T10:07:50Z</time>
      </trkpt>
      <trkpt lat="58.898561" lon="17.540484">
        <ele>28.6</ele>
        <time>2017-09-03T10:07:51Z</time>
      </trkpt>
      <trkpt lat="58.898551" lon="17.540312">
        <ele>28.6</ele>
        <time>2017-09-03T10:07:52Z</time>
      </trkpt>
      <trkpt lat="58.898541" lon="17.540143">
        <ele>28.8</ele>
        <time>2017-09-03T10:07:53Z</time>
      </trkpt>
      <trkpt lat="58.898531" lon="17.539973">
        <ele>28.8</ele>
        <time>2017-09-03T10:07:54Z</time>
      </trkpt>
      <trkpt lat="58.898521" lon="17.539802">
        <ele>28.8</ele>
        <time>2017-09-03T10:07:55Z</time>
      </trkpt>
      <trkpt lat="58.898512" lon="17.539632">
        <ele>28.8</ele>
        <time>2017-09-03T10:07:56Z</time>
      </trkpt>
      <trkpt lat="58.898503" lon="17.53946">
        <ele>29</ele>
        <time>2017-09-03T10:07:57Z</time>
      </trkpt>
      <trkpt lat="58.898496" lon="17.539289">
        <ele>29</ele>
        <time>2017-09-03T10:07:58Z</time>
      </trkpt>
      <trkpt lat="58.898491" lon="17.539116">
        <ele>29.4</ele>
        <time>2017-09-03T10:07:59Z</time>
      </trkpt>
      <trkpt lat="58.898484" lon="17.538939">
        <ele>29.6</ele>
        <time>2017-09-03T10:08:00Z</time>
      </trkpt>
      <trkpt lat="58.898478" lon="17.538759">
        <ele>29.8</ele>
        <time>2017-09-03T10:08:01Z</time>
      </trkpt>
      <trkpt lat="58.898474" lon="17.538579">
        <ele>30</ele>
        <time>2017-09-03T10:08:02Z</time>
      </trkpt>
      <trkpt lat="58.898472" lon="17.538396">
        <ele>30.4</ele>
        <time>2017-09-03T10:08:03Z</time>
      </trkpt>
      <trkpt lat="58.898471" lon="17.53821">
        <ele>30.4</ele>
        <time>2017-09-03T10:08:04Z</time>
      </trkpt>
      <trkpt lat="58.898473" lon="17.538023">
        <ele>30.6</ele>
        <time>2017-09-03T10:08:05Z</time>
      </trkpt>
      <trkpt lat="58.898477" lon="17.537836">
        <ele>31</ele>
        <time>2017-09-03T10:08:06Z</time>
      </trkpt>
      <trkpt lat="58.898481" lon="17.537649">
        <ele>31</ele>
        <time>2017-09-03T10:08:07Z</time>
      </trkpt>
      <trkpt lat="58.898488" lon="17.537464">
        <ele>31</ele>
        <time>2017-09-03T10:08:08Z</time>
      </trkpt>
      <trkpt lat="58.898497" lon="17.537281">
        <ele>31</ele>
        <time>2017-09-03T10:08:09Z</time>
      </trkpt>
      <trkpt lat="58.898512" lon="17.537099">
        <ele>31</ele>
        <time>2017-09-03T10:08:10Z</time>
      </trkpt>
      <trkpt lat="58.898534" lon="17.536916">
        <ele>31.2</ele>
        <time>2017-09-03T10:08:11Z</time>
      </trkpt>
      <trkpt lat="58.898566" lon="17.536733">
        <ele>31</ele>
        <time>2017-09-03T10:08:12Z</time>
      </trkpt>
      <trkpt lat="58.898604" lon="17.536546">
        <ele>31</ele>
        <time>2017-09-03T10:08:13Z</time>
      </trkpt>
      <trkpt lat="58.898647" lon="17.536361">
        <ele>31</ele>
        <time>2017-09-03T10:08:14Z</time>
      </trkpt>
      <trkpt lat="58.898695" lon="17.536174">
        <ele>31</ele>
        <time>2017-09-03T10:08:15Z</time>
      </trkpt>
      <trkpt lat="58.898747" lon="17.535987">
        <ele>31</ele>
        <time>2017-09-03T10:08:16Z</time>
      </trkpt>
      <trkpt lat="58.898801" lon="17.535804">
        <ele>30.8</ele>
        <time>2017-09-03T10:08:17Z</time>
      </trkpt>
      <trkpt lat="58.898855" lon="17.535621">
        <ele>30.8</ele>
        <time>2017-09-03T10:08:18Z</time>
      </trkpt>
      <trkpt lat="58.898911" lon="17.535438">
        <ele>30.8</ele>
        <time>2017-09-03T10:08:19Z</time>
      </trkpt>
      <trkpt lat="58.898968" lon="17.535251">
        <ele>30.8</ele>
        <time>2017-09-03T10:08:20Z</time>
      </trkpt>
      <trkpt lat="58.899026" lon="17.535062">
        <ele>30.6</ele>
        <time>2017-09-03T10:08:21Z</time>
      </trkpt>
      <trkpt lat="58.899083" lon="17.53487">
        <ele>30.6</ele>
        <time>2017-09-03T10:08:22Z</time>
      </trkpt>
      <trkpt lat="58.899139" lon="17.534671">
        <ele>30.4</ele>
        <time>2017-09-03T10:08:23Z</time>
      </trkpt>
      <trkpt lat="58.899194" lon="17.534469">
        <ele>30.2</ele>
        <time>2017-09-03T10:08:24Z</time>
      </trkpt>
      <trkpt lat="58.899245" lon="17.534265">
        <ele>30</ele>
        <time>2017-09-03T10:08:25Z</time>
      </trkpt>
      <trkpt lat="58.89929" lon="17.534062">
        <ele>29.6</ele>
        <time>2017-09-03T10:08:26Z</time>
      </trkpt>
      <trkpt lat="58.899335" lon="17.533862">
        <ele>29.4</ele>
        <time>2017-09-03T10:08:27Z</time>
      </trkpt>
      <trkpt lat="58.899379" lon="17.533659">
        <ele>29</ele>
        <time>2017-09-03T10:08:28Z</time>
      </trkpt>
      <trkpt lat="58.899424" lon="17.533448">
        <ele>28.6</ele>
        <time>2017-09-03T10:08:29Z</time>
      </trkpt>
      <trkpt lat="58.899469" lon="17.533231">
        <ele>28.2</ele>
        <time>2017-09-03T10:08:30Z</time>
      </trkpt>
      <trkpt lat="58.899518" lon="17.53301">
        <ele>27.8</ele>
        <time>2017-09-03T10:08:31Z</time>
      </trkpt>
      <trkpt lat="58.899569" lon="17.532781">
        <ele>27.6</ele>
        <time>2017-09-03T10:08:32Z</time>
      </trkpt>
      <trkpt lat="58.899621" lon="17.532547">
        <ele>27.6</ele>
        <time>2017-09-03T10:08:33Z</time>
      </trkpt>
      <trkpt lat="58.899675" lon="17.532306">
        <ele>27.4</ele>
        <time>2017-09-03T10:08:34Z</time>
      </trkpt>
      <trkpt lat="58.89973" lon="17.53206">
        <ele>27.4</ele>
        <time>2017-09-03T10:08:35Z</time>
      </trkpt>
      <trkpt lat="58.899787" lon="17.531812">
        <ele>27.4</ele>
        <time>2017-09-03T10:08:36Z</time>
      </trkpt>
      <trkpt lat="58.899846" lon="17.531567">
        <ele>27.2</ele>
        <time>2017-09-03T10:08:37Z</time>
      </trkpt>
      <trkpt lat="58.899906" lon="17.531323">
        <ele>27.2</ele>
        <time>2017-09-03T10:08:38Z</time>
      </trkpt>
      <trkpt lat="58.89997" lon="17.531077">
        <ele>27.2</ele>
        <time>2017-09-03T10:08:39Z</time>
      </trkpt>
      <trkpt lat="58.900036" lon="17.530832">
        <ele>27</ele>
        <time>2017-09-03T10:08:40Z</time>
      </trkpt>
      <trkpt lat="58.900102" lon="17.53059">
        <ele>26.4</ele>
        <time>2017-09-03T10:08:41Z</time>
      </trkpt>
      <trkpt lat="58.900169" lon="17.53035">
        <ele>25.4</ele>
        <time>2017-09-03T10:08:42Z</time>
      </trkpt>
      <trkpt lat="58.900235" lon="17.530114">
        <ele>24.8</ele>
        <time>2017-09-03T10:08:43Z</time>
      </trkpt>
      <trkpt lat="58.900302" lon="17.529879">
        <ele>24.2</ele>
        <time>2017-09-03T10:08:44Z</time>
      </trkpt>
      <trkpt lat="58.900366" lon="17.529652">
        <ele>23.6</ele>
        <time>2017-09-03T10:08:45Z</time>
      </trkpt>
      <trkpt lat="58.900428" lon="17.52943">
        <ele>23.2</ele>
        <time>2017-09-03T10:08:46Z</time>
      </trkpt>
      <trkpt lat="58.900489" lon="17.52921">
        <ele>22.8</ele>
        <time>2017-09-03T10:08:47Z</time>
      </trkpt>
      <trkpt lat="58.900547" lon="17.528992">
        <ele>22</ele>
        <time>2017-09-03T10:08:48Z</time>
      </trkpt>
      <trkpt lat="58.900604" lon="17.528782">
        <ele>21.4</ele>
        <time>2017-09-03T10:08:49Z</time>
      </trkpt>
      <trkpt lat="58.900661" lon="17.528578">
        <ele>20.8</ele>
        <time>2017-09-03T10:08:50Z</time>
      </trkpt>
      <trkpt lat="58.900717" lon="17.528377">
        <ele>20.6</ele>
        <time>2017-09-03T10:08:51Z</time>
      </trkpt>
      <trkpt lat="58.900774" lon="17.528183">
        <ele>20.4</ele>
        <time>2017-09-03T10:08:52Z</time>
      </trkpt>
      <trkpt lat="58.900831" lon="17.527989">
        <ele>20.4</ele>
        <time>2017-09-03T10:08:53Z</time>
      </trkpt>
      <trkpt lat="58.900886" lon="17.527801">
        <ele>20.4</ele>
        <time>2017-09-03T10:08:54Z</time>
      </trkpt>
      <trkpt lat="58.900937" lon="17.527617">
        <ele>20.2</ele>
        <time>2017-09-03T10:08:55Z</time>
      </trkpt>
      <trkpt lat="58.900986" lon="17.527437">
        <ele>20.2</ele>
        <time>2017-09-03T10:08:56Z</time>
      </trkpt>
      <trkpt lat="58.901032" lon="17.52726">
        <ele>20.2</ele>
        <time>2017-09-03T10:08:57Z</time>
      </trkpt>
      <trkpt lat="58.90108" lon="17.527088">
        <ele>20.2</ele>
        <time>2017-09-03T10:08:58Z</time>
      </trkpt>
      <trkpt lat="58.901127" lon="17.52692">
        <ele>20.2</ele>
        <time>2017-09-03T10:08:59Z</time>
      </trkpt>
      <trkpt lat="58.901174" lon="17.526752">
        <ele>20.6</ele>
        <time>2017-09-03T10:09:00Z</time>
      </trkpt>
      <trkpt lat="58.901221" lon="17.526587">
        <ele>20.8</ele>
        <time>2017-09-03T10:09:01Z</time>
      </trkpt>
      <trkpt lat="58.901265" lon="17.526425">
        <ele>21.2</ele>
        <time>2017-09-03T10:09:02Z</time>
      </trkpt>
      <trkpt lat="58.901306" lon="17.526268">
        <ele>21.4</ele>
        <time>2017-09-03T10:09:03Z</time>
      </trkpt>
      <trkpt lat="58.901346" lon="17.526121">
        <ele>22</ele>
        <time>2017-09-03T10:09:04Z</time>
      </trkpt>
      <trkpt lat="58.901386" lon="17.525973">
        <ele>22.4</ele>
        <time>2017-09-03T10:09:05Z</time>
      </trkpt>
      <trkpt lat="58.901423" lon="17.525819">
        <ele>22.8</ele>
        <time>2017-09-03T10:09:06Z</time>
      </trkpt>
      <trkpt lat="58.901459" lon="17.525663">
        <ele>23</ele>
        <time>2017-09-03T10:09:07Z</time>
      </trkpt>
      <trkpt lat="58.901493" lon="17.525507">
        <ele>23.4</ele>
        <time>2017-09-03T10:09:08Z</time>
      </trkpt>
      <trkpt lat="58.901523" lon="17.525347">
        <ele>24.8</ele>
        <time>2017-09-03T10:09:09Z</time>
      </trkpt>
      <trkpt lat="58.901548" lon="17.525182">
        <ele>25.6</ele>
        <time>2017-09-03T10:09:10Z</time>
      </trkpt>
      <trkpt lat="58.901568" lon="17.525013">
        <ele>26.2</ele>
        <time>2017-09-03T10:09:11Z</time>
      </trkpt>
      <trkpt lat="58.901585" lon="17.524834">
        <ele>26.8</ele>
        <time>2017-09-03T10:09:12Z</time>
      </trkpt>
      <trkpt lat="58.901602" lon="17.524646">
        <ele>27</ele>
        <time>2017-09-03T10:09:13Z</time>
      </trkpt>
      <trkpt lat="58.901618" lon="17.524448">
        <ele>27.2</ele>
        <time>2017-09-03T10:09:14Z</time>
      </trkpt>
      <trkpt lat="58.901635" lon="17.524243">
        <ele>27.2</ele>
        <time>2017-09-03T10:09:15Z</time>
      </trkpt>
      <trkpt lat="58.901653" lon="17.524029">
        <ele>27.2</ele>
        <time>2017-09-03T10:09:16Z</time>
      </trkpt>
      <trkpt lat="58.901671" lon="17.523806">
        <ele>27.2</ele>
        <time>2017-09-03T10:09:17Z</time>
      </trkpt>
      <trkpt lat="58.90169" lon="17.523574">
        <ele>27.2</ele>
        <time>2017-09-03T10:09:18Z</time>
      </trkpt>
      <trkpt lat="58.901707" lon="17.523337">
        <ele>27.2</ele>
        <time>2017-09-03T10:09:19Z</time>
      </trkpt>
      <trkpt lat="58.901728" lon="17.523095">
        <ele>27.2</ele>
        <time>2017-09-03T10:09:20Z</time>
      </trkpt>
      <trkpt lat="58.901753" lon="17.522854">
        <ele>27.2</ele>
        <time>2017-09-03T10:09:21Z</time>
      </trkpt>
      <trkpt lat="58.901781" lon="17.522619">
        <ele>27.2</ele>
        <time>2017-09-03T10:09:22Z</time>
      </trkpt>
      <trkpt lat="58.901817" lon="17.522392">
        <ele>27</ele>
        <time>2017-09-03T10:09:23Z</time>
      </trkpt>
      <trkpt lat="58.901864" lon="17.522171">
        <ele>26.6</ele>
        <time>2017-09-03T10:09:24Z</time>
      </trkpt>
      <trkpt lat="58.901923" lon="17.521957">
        <ele>26.2</ele>
        <time>2017-09-03T10:09:25Z</time>
      </trkpt>
      <trkpt lat="58.90199" lon="17.521754">
        <ele>25.6</ele>
        <time>2017-09-03T10:09:26Z</time>
      </trkpt>
      <trkpt lat="58.902064" lon="17.521564">
        <ele>24.8</ele>
        <time>2017-09-03T10:09:27Z</time>
      </trkpt>
      <trkpt lat="58.902144" lon="17.521386">
        <ele>24.2</ele>
        <time>2017-09-03T10:09:28Z</time>
      </trkpt>
      <trkpt lat="58.902226" lon="17.521213">
        <ele>23.6</ele>
        <time>2017-09-03T10:09:29Z</time>
      </trkpt>
      <trkpt lat="58.902307" lon="17.521043">
        <ele>23.4</ele>
        <time>2017-09-03T10:09:30Z</time>
      </trkpt>
      <trkpt lat="58.902387" lon="17.520879">
        <ele>23.2</ele>
        <time>2017-09-03T10:09:31Z</time>
      </trkpt>
      <trkpt lat="58.902466" lon="17.520723">
        <ele>23.2</ele>
        <time>2017-09-03T10:09:32Z</time>
      </trkpt>
      <trkpt lat="58.902545" lon="17.520573">
        <ele>23.2</ele>
        <time>2017-09-03T10:09:33Z</time>
      </trkpt>
      <trkpt lat="58.902624" lon="17.520425">
        <ele>23</ele>
        <time>2017-09-03T10:09:34Z</time>
      </trkpt>
      <trkpt lat="58.902701" lon="17.520279">
        <ele>23</ele>
        <time>2017-09-03T10:09:35Z</time>
      </trkpt>
      <trkpt lat="58.902776" lon="17.520137">
        <ele>23</ele>
        <time>2017-09-03T10:09:36Z</time>
      </trkpt>
      <trkpt lat="58.90285" lon="17.520004">
        <ele>23</ele>
        <time>2017-09-03T10:09:37Z</time>
      </trkpt>
      <trkpt lat="58.902924" lon="17.51987">
        <ele>23</ele>
        <time>2017-09-03T10:09:38Z</time>
      </trkpt>
      <trkpt lat="58.902997" lon="17.519733">
        <ele>23</ele>
        <time>2017-09-03T10:09:39Z</time>
      </trkpt>
      <trkpt lat="58.903069" lon="17.519593">
        <ele>23</ele>
        <time>2017-09-03T10:09:40Z</time>
      </trkpt>
      <trkpt lat="58.903139" lon="17.519459">
        <ele>23</ele>
        <time>2017-09-03T10:09:41Z</time>
      </trkpt>
      <trkpt lat="58.903208" lon="17.519328">
        <ele>23</ele>
        <time>2017-09-03T10:09:42Z</time>
      </trkpt>
      <trkpt lat="58.903276" lon="17.519197">
        <ele>22.8</ele>
        <time>2017-09-03T10:09:43Z</time>
      </trkpt>
      <trkpt lat="58.903344" lon="17.519068">
        <ele>23.2</ele>
        <time>2017-09-03T10:09:44Z</time>
      </trkpt>
      <trkpt lat="58.90341" lon="17.51894">
        <ele>23.2</ele>
        <time>2017-09-03T10:09:45Z</time>
      </trkpt>
      <trkpt lat="58.903474" lon="17.518814">
        <ele>23.4</ele>
        <time>2017-09-03T10:09:46Z</time>
      </trkpt>
      <trkpt lat="58.903536" lon="17.518691">
        <ele>23.4</ele>
        <time>2017-09-03T10:09:47Z</time>
      </trkpt>
      <trkpt lat="58.903599" lon="17.518573">
        <ele>23.6</ele>
        <time>2017-09-03T10:09:48Z</time>
      </trkpt>
      <trkpt lat="58.903659" lon="17.518455">
        <ele>23.8</ele>
        <time>2017-09-03T10:09:49Z</time>
      </trkpt>
      <trkpt lat="58.903717" lon="17.518333">
        <ele>24</ele>
        <time>2017-09-03T10:09:50Z</time>
      </trkpt>
      <trkpt lat="58.903775" lon="17.518209">
        <ele>24.2</ele>
        <time>2017-09-03T10:09:51Z</time>
      </trkpt>
      <trkpt lat="58.90383" lon="17.518078">
        <ele>24.2</ele>
        <time>2017-09-03T10:09:52Z</time>
      </trkpt>
      <trkpt lat="58.903882" lon="17.517942">
        <ele>24.2</ele>
        <time>2017-09-03T10:09:53Z</time>
      </trkpt>
      <trkpt lat="58.90393" lon="17.517806">
        <ele>24.6</ele>
        <time>2017-09-03T10:09:54Z</time>
      </trkpt>
      <trkpt lat="58.903975" lon="17.517673">
        <ele>25</ele>
        <time>2017-09-03T10:09:55Z</time>
      </trkpt>
      <trkpt lat="58.904014" lon="17.51754">
        <ele>25.8</ele>
        <time>2017-09-03T10:09:56Z</time>
      </trkpt>
      <trkpt lat="58.904047" lon="17.517408">
        <ele>26.2</ele>
        <time>2017-09-03T10:09:57Z</time>
      </trkpt>
      <trkpt lat="58.904076" lon="17.517275">
        <ele>26.4</ele>
        <time>2017-09-03T10:09:58Z</time>
      </trkpt>
      <trkpt lat="58.904103" lon="17.517138">
        <ele>26.6</ele>
        <time>2017-09-03T10:09:59Z</time>
      </trkpt>
      <trkpt lat="58.904127" lon="17.516999">
        <ele>26.8</ele>
        <time>2017-09-03T10:10:00Z</time>
      </trkpt>
      <trkpt lat="58.904149" lon="17.516852">
        <ele>27</ele>
        <time>2017-09-03T10:10:01Z</time>
      </trkpt>
      <trkpt lat="58.904168" lon="17.516699">
        <ele>27.2</ele>
        <time>2017-09-03T10:10:02Z</time>
      </trkpt>
      <trkpt lat="58.904184" lon="17.516546">
        <ele>27.2</ele>
        <time>2017-09-03T10:10:03Z</time>
      </trkpt>
      <trkpt lat="58.904198" lon="17.51639">
        <ele>27.4</ele>
        <time>2017-09-03T10:10:04Z</time>
      </trkpt>
      <trkpt lat="58.904208" lon="17.516227">
        <ele>27.6</ele>
        <time>2017-09-03T10:10:05Z</time>
      </trkpt>
      <trkpt lat="58.904216" lon="17.516057">
        <ele>27.8</ele>
        <time>2017-09-03T10:10:06Z</time>
      </trkpt>
      <trkpt lat="58.904223" lon="17.515878">
        <ele>28</ele>
        <time>2017-09-03T10:10:07Z</time>
      </trkpt>
      <trkpt lat="58.904228" lon="17.51569">
        <ele>28.2</ele>
        <time>2017-09-03T10:10:08Z</time>
      </trkpt>
      <trkpt lat="58.904232" lon="17.515497">
        <ele>29</ele>
        <time>2017-09-03T10:10:09Z</time>
      </trkpt>
      <trkpt lat="58.904238" lon="17.515299">
        <ele>29.2</ele>
        <time>2017-09-03T10:10:10Z</time>
      </trkpt>
      <trkpt lat="58.904244" lon="17.515101">
        <ele>29.4</ele>
        <time>2017-09-03T10:10:11Z</time>
      </trkpt>
      <trkpt lat="58.904249" lon="17.514907">
        <ele>29.6</ele>
        <time>2017-09-03T10:10:12Z</time>
      </trkpt>
      <trkpt lat="58.904253" lon="17.514716">
        <ele>29.6</ele>
        <time>2017-09-03T10:10:13Z</time>
      </trkpt>
      <trkpt lat="58.904258" lon="17.514525">
        <ele>29.6</ele>
        <time>2017-09-03T10:10:14Z</time>
      </trkpt>
      <trkpt lat="58.904265" lon="17.514337">
        <ele>29.6</ele>
        <time>2017-09-03T10:10:15Z</time>
      </trkpt>
      <trkpt lat="58.904275" lon="17.514154">
        <ele>29.8</ele>
        <time>2017-09-03T10:10:16Z</time>
      </trkpt>
      <trkpt lat="58.904289" lon="17.513979">
        <ele>29.8</ele>
        <time>2017-09-03T10:10:17Z</time>
      </trkpt>
      <trkpt lat="58.904306" lon="17.513806">
        <ele>29.8</ele>
        <time>2017-09-03T10:10:18Z</time>
      </trkpt>
      <trkpt lat="58.904326" lon="17.51363">
        <ele>30</ele>
        <time>2017-09-03T10:10:19Z</time>
      </trkpt>
      <trkpt lat="58.90435" lon="17.513453">
        <ele>30</ele>
        <time>2017-09-03T10:10:20Z</time>
      </trkpt>
      <trkpt lat="58.904377" lon="17.51328">
        <ele>30</ele>
        <time>2017-09-03T10:10:21Z</time>
      </trkpt>
      <trkpt lat="58.904406" lon="17.513107">
        <ele>30</ele>
        <time>2017-09-03T10:10:22Z</time>
      </trkpt>
      <trkpt lat="58.904437" lon="17.512934">
        <ele>30</ele>
        <time>2017-09-03T10:10:23Z</time>
      </trkpt>
      <trkpt lat="58.904468" lon="17.512759">
        <ele>30</ele>
        <time>2017-09-03T10:10:24Z</time>
      </trkpt>
      <trkpt lat="58.904502" lon="17.512581">
        <ele>30</ele>
        <time>2017-09-03T10:10:25Z</time>
      </trkpt>
      <trkpt lat="58.904534" lon="17.512402">
        <ele>30</ele>
        <time>2017-09-03T10:10:26Z</time>
      </trkpt>
      <trkpt lat="58.904566" lon="17.512222">
        <ele>30</ele>
        <time>2017-09-03T10:10:27Z</time>
      </trkpt>
      <trkpt lat="58.904597" lon="17.512045">
        <ele>30</ele>
        <time>2017-09-03T10:10:28Z</time>
      </trkpt>
      <trkpt lat="58.904629" lon="17.511867">
        <ele>30</ele>
        <time>2017-09-03T10:10:29Z</time>
      </trkpt>
      <trkpt lat="58.904664" lon="17.511688">
        <ele>30</ele>
        <time>2017-09-03T10:10:30Z</time>
      </trkpt>
      <trkpt lat="58.904699" lon="17.511504">
        <ele>30</ele>
        <time>2017-09-03T10:10:31Z</time>
      </trkpt>
      <trkpt lat="58.904736" lon="17.511315">
        <ele>30</ele>
        <time>2017-09-03T10:10:32Z</time>
      </trkpt>
      <trkpt lat="58.904773" lon="17.511118">
        <ele>30</ele>
        <time>2017-09-03T10:10:33Z</time>
      </trkpt>
      <trkpt lat="58.90481" lon="17.510919">
        <ele>30</ele>
        <time>2017-09-03T10:10:34Z</time>
      </trkpt>
      <trkpt lat="58.904847" lon="17.51072">
        <ele>30</ele>
        <time>2017-09-03T10:10:35Z</time>
      </trkpt>
      <trkpt lat="58.904883" lon="17.510519">
        <ele>30</ele>
        <time>2017-09-03T10:10:36Z</time>
      </trkpt>
      <trkpt lat="58.904916" lon="17.51032">
        <ele>29.8</ele>
        <time>2017-09-03T10:10:37Z</time>
      </trkpt>
      <trkpt lat="58.904948" lon="17.510124">
        <ele>29.6</ele>
        <time>2017-09-03T10:10:38Z</time>
      </trkpt>
      <trkpt lat="58.904982" lon="17.509932">
        <ele>29.4</ele>
        <time>2017-09-03T10:10:39Z</time>
      </trkpt>
      <trkpt lat="58.905017" lon="17.509742">
        <ele>29.4</ele>
        <time>2017-09-03T10:10:40Z</time>
      </trkpt>
      <trkpt lat="58.905053" lon="17.509553">
        <ele>29</ele>
        <time>2017-09-03T10:10:41Z</time>
      </trkpt>
      <trkpt lat="58.905089" lon="17.509365">
        <ele>28.8</ele>
        <time>2017-09-03T10:10:42Z</time>
      </trkpt>
      <trkpt lat="58.905122" lon="17.50918">
        <ele>28.4</ele>
        <time>2017-09-03T10:10:43Z</time>
      </trkpt>
      <trkpt lat="58.905155" lon="17.508998">
        <ele>28.2</ele>
        <time>2017-09-03T10:10:44Z</time>
      </trkpt>
      <trkpt lat="58.905186" lon="17.508817">
        <ele>28.2</ele>
        <time>2017-09-03T10:10:45Z</time>
      </trkpt>
      <trkpt lat="58.905217" lon="17.508639">
        <ele>28</ele>
        <time>2017-09-03T10:10:46Z</time>
      </trkpt>
      <trkpt lat="58.905252" lon="17.508465">
        <ele>28</ele>
        <time>2017-09-03T10:10:47Z</time>
      </trkpt>
      <trkpt lat="58.905286" lon="17.50829">
        <ele>28</ele>
        <time>2017-09-03T10:10:48Z</time>
      </trkpt>
      <trkpt lat="58.905321" lon="17.508117">
        <ele>28</ele>
        <time>2017-09-03T10:10:49Z</time>
      </trkpt>
      <trkpt lat="58.905356" lon="17.507946">
        <ele>28</ele>
        <time>2017-09-03T10:10:50Z</time>
      </trkpt>
      <trkpt lat="58.905392" lon="17.507776">
        <ele>28</ele>
        <time>2017-09-03T10:10:51Z</time>
      </trkpt>
      <trkpt lat="58.905426" lon="17.507606">
        <ele>28</ele>
        <time>2017-09-03T10:10:52Z</time>
      </trkpt>
      <trkpt lat="58.905459" lon="17.507437">
        <ele>28</ele>
        <time>2017-09-03T10:10:53Z</time>
      </trkpt>
      <trkpt lat="58.90549" lon="17.507268">
        <ele>28.2</ele>
        <time>2017-09-03T10:10:54Z</time>
      </trkpt>
      <trkpt lat="58.90552" lon="17.5071">
        <ele>28.4</ele>
        <time>2017-09-03T10:10:55Z</time>
      </trkpt>
      <trkpt lat="58.90555" lon="17.506931">
        <ele>28.6</ele>
        <time>2017-09-03T10:10:56Z</time>
      </trkpt>
      <trkpt lat="58.90558" lon="17.506759">
        <ele>28.8</ele>
        <time>2017-09-03T10:10:57Z</time>
      </trkpt>
      <trkpt lat="58.905608" lon="17.506584">
        <ele>28.8</ele>
        <time>2017-09-03T10:10:58Z</time>
      </trkpt>
      <trkpt lat="58.905636" lon="17.506405">
        <ele>29</ele>
        <time>2017-09-03T10:10:59Z</time>
      </trkpt>
      <trkpt lat="58.905662" lon="17.506222">
        <ele>29.2</ele>
        <time>2017-09-03T10:11:00Z</time>
      </trkpt>
      <trkpt lat="58.905685" lon="17.506037">
        <ele>29.2</ele>
        <time>2017-09-03T10:11:01Z</time>
      </trkpt>
      <trkpt lat="58.905707" lon="17.505853">
        <ele>29.4</ele>
        <time>2017-09-03T10:11:02Z</time>
      </trkpt>
      <trkpt lat="58.905727" lon="17.50567">
        <ele>29.4</ele>
        <time>2017-09-03T10:11:03Z</time>
      </trkpt>
      <trkpt lat="58.905746" lon="17.505487">
        <ele>29.6</ele>
        <time>2017-09-03T10:11:04Z</time>
      </trkpt>
      <trkpt lat="58.905765" lon="17.505303">
        <ele>29.6</ele>
        <time>2017-09-03T10:11:05Z</time>
      </trkpt>
      <trkpt lat="58.905785" lon="17.50512">
        <ele>29.6</ele>
        <time>2017-09-03T10:11:06Z</time>
      </trkpt>
      <trkpt lat="58.905804" lon="17.504937">
        <ele>29.6</ele>
        <time>2017-09-03T10:11:07Z</time>
      </trkpt>
      <trkpt lat="58.905822" lon="17.504755">
        <ele>29.6</ele>
        <time>2017-09-03T10:11:08Z</time>
      </trkpt>
      <trkpt lat="58.905839" lon="17.504572">
        <ele>29.8</ele>
        <time>2017-09-03T10:11:09Z</time>
      </trkpt>
      <trkpt lat="58.905858" lon="17.504386">
        <ele>29.8</ele>
        <time>2017-09-03T10:11:10Z</time>
      </trkpt>
      <trkpt lat="58.905878" lon="17.504196">
        <ele>29.8</ele>
        <time>2017-09-03T10:11:11Z</time>
      </trkpt>
      <trkpt lat="58.905897" lon="17.504002">
        <ele>29.8</ele>
        <time>2017-09-03T10:11:12Z</time>
      </trkpt>
      <trkpt lat="58.905915" lon="17.503803">
        <ele>29.8</ele>
        <time>2017-09-03T10:11:13Z</time>
      </trkpt>
      <trkpt lat="58.905935" lon="17.503601">
        <ele>29.6</ele>
        <time>2017-09-03T10:11:14Z</time>
      </trkpt>
      <trkpt lat="58.905954" lon="17.503397">
        <ele>29.6</ele>
        <time>2017-09-03T10:11:15Z</time>
      </trkpt>
      <trkpt lat="58.905973" lon="17.503192">
        <ele>29.6</ele>
        <time>2017-09-03T10:11:16Z</time>
      </trkpt>
      <trkpt lat="58.905993" lon="17.502988">
        <ele>29.6</ele>
        <time>2017-09-03T10:11:17Z</time>
      </trkpt>
      <trkpt lat="58.906012" lon="17.502787">
        <ele>29.4</ele>
        <time>2017-09-03T10:11:18Z</time>
      </trkpt>
      <trkpt lat="58.906032" lon="17.502588">
        <ele>29.4</ele>
        <time>2017-09-03T10:11:19Z</time>
      </trkpt>
      <trkpt lat="58.906054" lon="17.502389">
        <ele>29.2</ele>
        <time>2017-09-03T10:11:20Z</time>
      </trkpt>
      <trkpt lat="58.906075" lon="17.502188">
        <ele>29</ele>
        <time>2017-09-03T10:11:21Z</time>
      </trkpt>
      <trkpt lat="58.906095" lon="17.501983">
        <ele>29</ele>
        <time>2017-09-03T10:11:22Z</time>
      </trkpt>
      <trkpt lat="58.906114" lon="17.501775">
        <ele>29</ele>
        <time>2017-09-03T10:11:23Z</time>
      </trkpt>
      <trkpt lat="58.906133" lon="17.501565">
        <ele>28.6</ele>
        <time>2017-09-03T10:11:24Z</time>
      </trkpt>
      <trkpt lat="58.906153" lon="17.501352">
        <ele>28.4</ele>
        <time>2017-09-03T10:11:25Z</time>
      </trkpt>
      <trkpt lat="58.906175" lon="17.501137">
        <ele>28.4</ele>
        <time>2017-09-03T10:11:26Z</time>
      </trkpt>
      <trkpt lat="58.906196" lon="17.500922">
        <ele>28.4</ele>
        <time>2017-09-03T10:11:27Z</time>
      </trkpt>
      <trkpt lat="58.906217" lon="17.50071">
        <ele>28.2</ele>
        <time>2017-09-03T10:11:28Z</time>
      </trkpt>
      <trkpt lat="58.906238" lon="17.500499">
        <ele>28.2</ele>
        <time>2017-09-03T10:11:29Z</time>
      </trkpt>
      <trkpt lat="58.906259" lon="17.500286">
        <ele>28</ele>
        <time>2017-09-03T10:11:30Z</time>
      </trkpt>
      <trkpt lat="58.906282" lon="17.500073">
        <ele>28</ele>
        <time>2017-09-03T10:11:31Z</time>
      </trkpt>
      <trkpt lat="58.906303" lon="17.499859">
        <ele>28</ele>
        <time>2017-09-03T10:11:32Z</time>
      </trkpt>
      <trkpt lat="58.906324" lon="17.499648">
        <ele>27.8</ele>
        <time>2017-09-03T10:11:33Z</time>
      </trkpt>
      <trkpt lat="58.906344" lon="17.499439">
        <ele>27.8</ele>
        <time>2017-09-03T10:11:34Z</time>
      </trkpt>
      <trkpt lat="58.906365" lon="17.499228">
        <ele>27.8</ele>
        <time>2017-09-03T10:11:35Z</time>
      </trkpt>
      <trkpt lat="58.906385" lon="17.499012">
        <ele>27.6</ele>
        <time>2017-09-03T10:11:36Z</time>
      </trkpt>
      <trkpt lat="58.906406" lon="17.498789">
        <ele>27.6</ele>
        <time>2017-09-03T10:11:37Z</time>
      </trkpt>
      <trkpt lat="58.906428" lon="17.498559">
        <ele>27.6</ele>
        <time>2017-09-03T10:11:38Z</time>
      </trkpt>
      <trkpt lat="58.906452" lon="17.498328">
        <ele>27.4</ele>
        <time>2017-09-03T10:11:39Z</time>
      </trkpt>
      <trkpt lat="58.906476" lon="17.498098">
        <ele>27.2</ele>
        <time>2017-09-03T10:11:40Z</time>
      </trkpt>
      <trkpt lat="58.906499" lon="17.497868">
        <ele>26.8</ele>
        <time>2017-09-03T10:11:41Z</time>
      </trkpt>
      <trkpt lat="58.906523" lon="17.497636">
        <ele>26</ele>
        <time>2017-09-03T10:11:42Z</time>
      </trkpt>
      <trkpt lat="58.906547" lon="17.497401">
        <ele>25.4</ele>
        <time>2017-09-03T10:11:43Z</time>
      </trkpt>
      <trkpt lat="58.906572" lon="17.497163">
        <ele>25.2</ele>
        <time>2017-09-03T10:11:44Z</time>
      </trkpt>
      <trkpt lat="58.906601" lon="17.496924">
        <ele>25</ele>
        <time>2017-09-03T10:11:45Z</time>
      </trkpt>
      <trkpt lat="58.906634" lon="17.496685">
        <ele>24.6</ele>
        <time>2017-09-03T10:11:46Z</time>
      </trkpt>
      <trkpt lat="58.906669" lon="17.49645">
        <ele>24.4</ele>
        <time>2017-09-03T10:11:47Z</time>
      </trkpt>
      <trkpt lat="58.906705" lon="17.496222">
        <ele>24.2</ele>
        <time>2017-09-03T10:11:48Z</time>
      </trkpt>
      <trkpt lat="58.906742" lon="17.496002">
        <ele>24.2</ele>
        <time>2017-09-03T10:11:49Z</time>
      </trkpt>
      <trkpt lat="58.906782" lon="17.495792">
        <ele>24.2</ele>
        <time>2017-09-03T10:11:50Z</time>
      </trkpt>
      <trkpt lat="58.906824" lon="17.495592">
        <ele>24</ele>
        <time>2017-09-03T10:11:51Z</time>
      </trkpt>
      <trkpt lat="58.906869" lon="17.495397">
        <ele>24</ele>
        <time>2017-09-03T10:11:52Z</time>
      </trkpt>
      <trkpt lat="58.906914" lon="17.495202">
        <ele>24</ele>
        <time>2017-09-03T10:11:53Z</time>
      </trkpt>
      <trkpt lat="58.906962" lon="17.495009">
        <ele>24.2</ele>
        <time>2017-09-03T10:11:54Z</time>
      </trkpt>
      <trkpt lat="58.907016" lon="17.494825">
        <ele>24.2</ele>
        <time>2017-09-03T10:11:55Z</time>
      </trkpt>
      <trkpt lat="58.907073" lon="17.494647">
        <ele>24.2</ele>
        <time>2017-09-03T10:11:56Z</time>
      </trkpt>
      <trkpt lat="58.907131" lon="17.494468">
        <ele>24.2</ele>
        <time>2017-09-03T10:11:57Z</time>
      </trkpt>
      <trkpt lat="58.90719" lon="17.494294">
        <ele>24.2</ele>
        <time>2017-09-03T10:11:58Z</time>
      </trkpt>
      <trkpt lat="58.907249" lon="17.494125">
        <ele>24.2</ele>
        <time>2017-09-03T10:11:59Z</time>
      </trkpt>
      <trkpt lat="58.907308" lon="17.493956">
        <ele>24.2</ele>
        <time>2017-09-03T10:12:00Z</time>
      </trkpt>
      <trkpt lat="58.907366" lon="17.493786">
        <ele>24.2</ele>
        <time>2017-09-03T10:12:01Z</time>
      </trkpt>
      <trkpt lat="58.907424" lon="17.493615">
        <ele>24.2</ele>
        <time>2017-09-03T10:12:02Z</time>
      </trkpt>
      <trkpt lat="58.907482" lon="17.493443">
        <ele>23.8</ele>
        <time>2017-09-03T10:12:03Z</time>
      </trkpt>
      <trkpt lat="58.907539" lon="17.493275">
        <ele>23.8</ele>
        <time>2017-09-03T10:12:04Z</time>
      </trkpt>
      <trkpt lat="58.907595" lon="17.493111">
        <ele>23.8</ele>
        <time>2017-09-03T10:12:05Z</time>
      </trkpt>
      <trkpt lat="58.907652" lon="17.492949">
        <ele>23.6</ele>
        <time>2017-09-03T10:12:06Z</time>
      </trkpt>
      <trkpt lat="58.907708" lon="17.492786">
        <ele>23.8</ele>
        <time>2017-09-03T10:12:07Z</time>
      </trkpt>
      <trkpt lat="58.907765" lon="17.492623">
        <ele>23.8</ele>
        <time>2017-09-03T10:12:08Z</time>
      </trkpt>
      <trkpt lat="58.907822" lon="17.492459">
        <ele>23.6</ele>
        <time>2017-09-03T10:12:09Z</time>
      </trkpt>
      <trkpt lat="58.907879" lon="17.492292">
        <ele>23.6</ele>
        <time>2017-09-03T10:12:10Z</time>
      </trkpt>
      <trkpt lat="58.907935" lon="17.492126">
        <ele>23.6</ele>
        <time>2017-09-03T10:12:11Z</time>
      </trkpt>
      <trkpt lat="58.907991" lon="17.491962">
        <ele>23.4</ele>
        <time>2017-09-03T10:12:12Z</time>
      </trkpt>
      <trkpt lat="58.908046" lon="17.491798">
        <ele>23.4</ele>
        <time>2017-09-03T10:12:13Z</time>
      </trkpt>
      <trkpt lat="58.908101" lon="17.491637">
        <ele>23.2</ele>
        <time>2017-09-03T10:12:14Z</time>
      </trkpt>
      <trkpt lat="58.908156" lon="17.491478">
        <ele>23</ele>
        <time>2017-09-03T10:12:15Z</time>
      </trkpt>
      <trkpt lat="58.908213" lon="17.491319">
        <ele>23</ele>
        <time>2017-09-03T10:12:16Z</time>
      </trkpt>
      <trkpt lat="58.908269" lon="17.491159">
        <ele>22.8</ele>
        <time>2017-09-03T10:12:17Z</time>
      </trkpt>
      <trkpt lat="58.908326" lon="17.491">
        <ele>22.6</ele>
        <time>2017-09-03T10:12:18Z</time>
      </trkpt>
      <trkpt lat="58.90838" lon="17.49084">
        <ele>22.6</ele>
        <time>2017-09-03T10:12:19Z</time>
      </trkpt>
      <trkpt lat="58.908434" lon="17.490685">
        <ele>22.6</ele>
        <time>2017-09-03T10:12:20Z</time>
      </trkpt>
      <trkpt lat="58.908487" lon="17.490532">
        <ele>22.6</ele>
        <time>2017-09-03T10:12:21Z</time>
      </trkpt>
      <trkpt lat="58.908539" lon="17.49038">
        <ele>22.6</ele>
        <time>2017-09-03T10:12:22Z</time>
      </trkpt>
      <trkpt lat="58.90859" lon="17.490229">
        <ele>22.6</ele>
        <time>2017-09-03T10:12:23Z</time>
      </trkpt>
      <trkpt lat="58.908641" lon="17.490079">
        <ele>22.6</ele>
        <time>2017-09-03T10:12:24Z</time>
      </trkpt>
      <trkpt lat="58.90869" lon="17.489929">
        <ele>22.6</ele>
        <time>2017-09-03T10:12:25Z</time>
      </trkpt>
      <trkpt lat="58.908739" lon="17.489777">
        <ele>22.6</ele>
        <time>2017-09-03T10:12:26Z</time>
      </trkpt>
      <trkpt lat="58.908788" lon="17.489625">
        <ele>22.6</ele>
        <time>2017-09-03T10:12:27Z</time>
      </trkpt>
      <trkpt lat="58.908838" lon="17.489474">
        <ele>22.8</ele>
        <time>2017-09-03T10:12:28Z</time>
      </trkpt>
      <trkpt lat="58.908891" lon="17.48932">
        <ele>23</ele>
        <time>2017-09-03T10:12:29Z</time>
      </trkpt>
      <trkpt lat="58.908943" lon="17.489162">
        <ele>23</ele>
        <time>2017-09-03T10:12:30Z</time>
      </trkpt>
      <trkpt lat="58.908994" lon="17.489">
        <ele>23</ele>
        <time>2017-09-03T10:12:31Z</time>
      </trkpt>
      <trkpt lat="58.909046" lon="17.488837">
        <ele>23.2</ele>
        <time>2017-09-03T10:12:32Z</time>
      </trkpt>
      <trkpt lat="58.9091" lon="17.488672">
        <ele>23.4</ele>
        <time>2017-09-03T10:12:33Z</time>
      </trkpt>
      <trkpt lat="58.909155" lon="17.488504">
        <ele>23.4</ele>
        <time>2017-09-03T10:12:34Z</time>
      </trkpt>
      <trkpt lat="58.909209" lon="17.488329">
        <ele>23.6</ele>
        <time>2017-09-03T10:12:35Z</time>
      </trkpt>
      <trkpt lat="58.909262" lon="17.488149">
        <ele>23.6</ele>
        <time>2017-09-03T10:12:36Z</time>
      </trkpt>
      <trkpt lat="58.909315" lon="17.487967">
        <ele>23.8</ele>
        <time>2017-09-03T10:12:37Z</time>
      </trkpt>
      <trkpt lat="58.909368" lon="17.487788">
        <ele>23.8</ele>
        <time>2017-09-03T10:12:38Z</time>
      </trkpt>
      <trkpt lat="58.909418" lon="17.487611">
        <ele>23.8</ele>
        <time>2017-09-03T10:12:39Z</time>
      </trkpt>
      <trkpt lat="58.909466" lon="17.487431">
        <ele>24</ele>
        <time>2017-09-03T10:12:40Z</time>
      </trkpt>
      <trkpt lat="58.909512" lon="17.48725">
        <ele>24</ele>
        <time>2017-09-03T10:12:41Z</time>
      </trkpt>
      <trkpt lat="58.909558" lon="17.487073">
        <ele>24</ele>
        <time>2017-09-03T10:12:42Z</time>
      </trkpt>
      <trkpt lat="58.909603" lon="17.486898">
        <ele>24</ele>
        <time>2017-09-03T10:12:43Z</time>
      </trkpt>
      <trkpt lat="58.909647" lon="17.486722">
        <ele>24.2</ele>
        <time>2017-09-03T10:12:44Z</time>
      </trkpt>
      <trkpt lat="58.90969" lon="17.486547">
        <ele>24.2</ele>
        <time>2017-09-03T10:12:45Z</time>
      </trkpt>
      <trkpt lat="58.909731" lon="17.486377">
        <ele>24.2</ele>
        <time>2017-09-03T10:12:46Z</time>
      </trkpt>
      <trkpt lat="58.909769" lon="17.486211">
        <ele>24.4</ele>
        <time>2017-09-03T10:12:47Z</time>
      </trkpt>
      <trkpt lat="58.909805" lon="17.486053">
        <ele>24.4</ele>
        <time>2017-09-03T10:12:48Z</time>
      </trkpt>
      <trkpt lat="58.90984" lon="17.485904">
        <ele>24.6</ele>
        <time>2017-09-03T10:12:49Z</time>
      </trkpt>
      <trkpt lat="58.909872" lon="17.485762">
        <ele>24.6</ele>
        <time>2017-09-03T10:12:50Z</time>
      </trkpt>
      <trkpt lat="58.909906" lon="17.485627">
        <ele>24.8</ele>
        <time>2017-09-03T10:12:51Z</time>
      </trkpt>
      <trkpt lat="58.909939" lon="17.485496">
        <ele>24.8</ele>
        <time>2017-09-03T10:12:52Z</time>
      </trkpt>
      <trkpt lat="58.90997" lon="17.485367">
        <ele>25</ele>
        <time>2017-09-03T10:12:53Z</time>
      </trkpt>
      <trkpt lat="58.910002" lon="17.485242">
        <ele>25</ele>
        <time>2017-09-03T10:12:54Z</time>
      </trkpt>
      <trkpt lat="58.910033" lon="17.485124">
        <ele>25.2</ele>
        <time>2017-09-03T10:12:55Z</time>
      </trkpt>
      <trkpt lat="58.910063" lon="17.485006">
        <ele>25.8</ele>
        <time>2017-09-03T10:12:56Z</time>
      </trkpt>
      <trkpt lat="58.91009" lon="17.484887">
        <ele>26.4</ele>
        <time>2017-09-03T10:12:57Z</time>
      </trkpt>
      <trkpt lat="58.910118" lon="17.484771">
        <ele>26.6</ele>
        <time>2017-09-03T10:12:58Z</time>
      </trkpt>
      <trkpt lat="58.910146" lon="17.484657">
        <ele>27</ele>
        <time>2017-09-03T10:12:59Z</time>
      </trkpt>
      <trkpt lat="58.910177" lon="17.484542">
        <ele>27.2</ele>
        <time>2017-09-03T10:13:00Z</time>
      </trkpt>
      <trkpt lat="58.910205" lon="17.484422">
        <ele>27.6</ele>
        <time>2017-09-03T10:13:01Z</time>
      </trkpt>
      <trkpt lat="58.910233" lon="17.484296">
        <ele>27.8</ele>
        <time>2017-09-03T10:13:02Z</time>
      </trkpt>
      <trkpt lat="58.910267" lon="17.484168">
        <ele>28.2</ele>
        <time>2017-09-03T10:13:03Z</time>
      </trkpt>
      <trkpt lat="58.910302" lon="17.484034">
        <ele>28.8</ele>
        <time>2017-09-03T10:13:04Z</time>
      </trkpt>
      <trkpt lat="58.910336" lon="17.483889">
        <ele>29.4</ele>
        <time>2017-09-03T10:13:05Z</time>
      </trkpt>
      <trkpt lat="58.910372" lon="17.483733">
        <ele>30</ele>
        <time>2017-09-03T10:13:06Z</time>
      </trkpt>
      <trkpt lat="58.910411" lon="17.483573">
        <ele>30.2</ele>
        <time>2017-09-03T10:13:07Z</time>
      </trkpt>
      <trkpt lat="58.910451" lon="17.483411">
        <ele>30.6</ele>
        <time>2017-09-03T10:13:08Z</time>
      </trkpt>
      <trkpt lat="58.910491" lon="17.483247">
        <ele>30.8</ele>
        <time>2017-09-03T10:13:09Z</time>
      </trkpt>
      <trkpt lat="58.910531" lon="17.483083">
        <ele>31</ele>
        <time>2017-09-03T10:13:10Z</time>
      </trkpt>
      <trkpt lat="58.91057" lon="17.482917">
        <ele>31</ele>
        <time>2017-09-03T10:13:11Z</time>
      </trkpt>
      <trkpt lat="58.910611" lon="17.482749">
        <ele>31.2</ele>
        <time>2017-09-03T10:13:12Z</time>
      </trkpt>
      <trkpt lat="58.910653" lon="17.482579">
        <ele>31.2</ele>
        <time>2017-09-03T10:13:13Z</time>
      </trkpt>
      <trkpt lat="58.910695" lon="17.482407">
        <ele>31.2</ele>
        <time>2017-09-03T10:13:14Z</time>
      </trkpt>
      <trkpt lat="58.910737" lon="17.482234">
        <ele>31.2</ele>
        <time>2017-09-03T10:13:15Z</time>
      </trkpt>
      <trkpt lat="58.91078" lon="17.482061">
        <ele>31.4</ele>
        <time>2017-09-03T10:13:16Z</time>
      </trkpt>
      <trkpt lat="58.910824" lon="17.481889">
        <ele>31.4</ele>
        <time>2017-09-03T10:13:17Z</time>
      </trkpt>
      <trkpt lat="58.910867" lon="17.481716">
        <ele>31.4</ele>
        <time>2017-09-03T10:13:18Z</time>
      </trkpt>
      <trkpt lat="58.91091" lon="17.481545">
        <ele>31.6</ele>
        <time>2017-09-03T10:13:19Z</time>
      </trkpt>
      <trkpt lat="58.910952" lon="17.481375">
        <ele>31.6</ele>
        <time>2017-09-03T10:13:20Z</time>
      </trkpt>
      <trkpt lat="58.910993" lon="17.481204">
        <ele>31.6</ele>
        <time>2017-09-03T10:13:21Z</time>
      </trkpt>
      <trkpt lat="58.911034" lon="17.481035">
        <ele>31.6</ele>
        <time>2017-09-03T10:13:22Z</time>
      </trkpt>
      <trkpt lat="58.911075" lon="17.480866">
        <ele>31.6</ele>
        <time>2017-09-03T10:13:23Z</time>
      </trkpt>
      <trkpt lat="58.911116" lon="17.480697">
        <ele>31.6</ele>
        <time>2017-09-03T10:13:24Z</time>
      </trkpt>
      <trkpt lat="58.911157" lon="17.480527">
        <ele>31.6</ele>
        <time>2017-09-03T10:13:25Z</time>
      </trkpt>
      <trkpt lat="58.9112" lon="17.480357">
        <ele>31.6</ele>
        <time>2017-09-03T10:13:26Z</time>
      </trkpt>
      <trkpt lat="58.911242" lon="17.480187">
        <ele>32</ele>
        <time>2017-09-03T10:13:27Z</time>
      </trkpt>
      <trkpt lat="58.911285" lon="17.480013">
        <ele>32.2</ele>
        <time>2017-09-03T10:13:28Z</time>
      </trkpt>
      <trkpt lat="58.91133" lon="17.479832">
        <ele>32.2</ele>
        <time>2017-09-03T10:13:29Z</time>
      </trkpt>
      <trkpt lat="58.911375" lon="17.479644">
        <ele>32.4</ele>
        <time>2017-09-03T10:13:30Z</time>
      </trkpt>
      <trkpt lat="58.91142" lon="17.479449">
        <ele>32.4</ele>
        <time>2017-09-03T10:13:31Z</time>
      </trkpt>
      <trkpt lat="58.911466" lon="17.479253">
        <ele>32.4</ele>
        <time>2017-09-03T10:13:32Z</time>
      </trkpt>
      <trkpt lat="58.911514" lon="17.479058">
        <ele>32.4</ele>
        <time>2017-09-03T10:13:33Z</time>
      </trkpt>
      <trkpt lat="58.911561" lon="17.478861">
        <ele>32.4</ele>
        <time>2017-09-03T10:13:34Z</time>
      </trkpt>
      <trkpt lat="58.911609" lon="17.478661">
        <ele>32.4</ele>
        <time>2017-09-03T10:13:35Z</time>
      </trkpt>
      <trkpt lat="58.911658" lon="17.478461">
        <ele>32.2</ele>
        <time>2017-09-03T10:13:36Z</time>
      </trkpt>
      <trkpt lat="58.911707" lon="17.478261">
        <ele>32</ele>
        <time>2017-09-03T10:13:37Z</time>
      </trkpt>
      <trkpt lat="58.911754" lon="17.478063">
        <ele>31.8</ele>
        <time>2017-09-03T10:13:38Z</time>
      </trkpt>
      <trkpt lat="58.911799" lon="17.477868">
        <ele>31.8</ele>
        <time>2017-09-03T10:13:39Z</time>
      </trkpt>
      <trkpt lat="58.911845" lon="17.477675">
        <ele>31.6</ele>
        <time>2017-09-03T10:13:40Z</time>
      </trkpt>
      <trkpt lat="58.911891" lon="17.477484">
        <ele>31.2</ele>
        <time>2017-09-03T10:13:41Z</time>
      </trkpt>
      <trkpt lat="58.911937" lon="17.477295">
        <ele>31</ele>
        <time>2017-09-03T10:13:42Z</time>
      </trkpt>
      <trkpt lat="58.911984" lon="17.477107">
        <ele>30.6</ele>
        <time>2017-09-03T10:13:43Z</time>
      </trkpt>
      <trkpt lat="58.912032" lon="17.476918">
        <ele>30.6</ele>
        <time>2017-09-03T10:13:44Z</time>
      </trkpt>
      <trkpt lat="58.91208" lon="17.476726">
        <ele>30.4</ele>
        <time>2017-09-03T10:13:45Z</time>
      </trkpt>
      <trkpt lat="58.912127" lon="17.476531">
        <ele>30.4</ele>
        <time>2017-09-03T10:13:46Z</time>
      </trkpt>
      <trkpt lat="58.912173" lon="17.476339">
        <ele>30.2</ele>
        <time>2017-09-03T10:13:47Z</time>
      </trkpt>
      <trkpt lat="58.912219" lon="17.476149">
        <ele>30</ele>
        <time>2017-09-03T10:13:48Z</time>
      </trkpt>
      <trkpt lat="58.912265" lon="17.475962">
        <ele>30</ele>
        <time>2017-09-03T10:13:49Z</time>
      </trkpt>
      <trkpt lat="58.91231" lon="17.475777">
        <ele>30</ele>
        <time>2017-09-03T10:13:50Z</time>
      </trkpt>
      <trkpt lat="58.912356" lon="17.475592">
        <ele>30</ele>
        <time>2017-09-03T10:13:51Z</time>
      </trkpt>
      <trkpt lat="58.912401" lon="17.475407">
        <ele>30</ele>
        <time>2017-09-03T10:13:52Z</time>
      </trkpt>
      <trkpt lat="58.912446" lon="17.475221">
        <ele>30</ele>
        <time>2017-09-03T10:13:53Z</time>
      </trkpt>
      <trkpt lat="58.912491" lon="17.475035">
        <ele>30</ele>
        <time>2017-09-03T10:13:54Z</time>
      </trkpt>
      <trkpt lat="58.912536" lon="17.47485">
        <ele>30</ele>
        <time>2017-09-03T10:13:55Z</time>
      </trkpt>
      <trkpt lat="58.912582" lon="17.474666">
        <ele>30</ele>
        <time>2017-09-03T10:13:56Z</time>
      </trkpt>
      <trkpt lat="58.912629" lon="17.47448">
        <ele>30</ele>
        <time>2017-09-03T10:13:57Z</time>
      </trkpt>
      <trkpt lat="58.912676" lon="17.474291">
        <ele>30.2</ele>
        <time>2017-09-03T10:13:58Z</time>
      </trkpt>
      <trkpt lat="58.912723" lon="17.474099">
        <ele>30</ele>
        <time>2017-09-03T10:13:59Z</time>
      </trkpt>
      <trkpt lat="58.912771" lon="17.473905">
        <ele>30</ele>
        <time>2017-09-03T10:14:00Z</time>
      </trkpt>
      <trkpt lat="58.912819" lon="17.47371">
        <ele>29.8</ele>
        <time>2017-09-03T10:14:01Z</time>
      </trkpt>
      <trkpt lat="58.912868" lon="17.473515">
        <ele>29.8</ele>
        <time>2017-09-03T10:14:02Z</time>
      </trkpt>
      <trkpt lat="58.912916" lon="17.473323">
        <ele>29.8</ele>
        <time>2017-09-03T10:14:03Z</time>
      </trkpt>
      <trkpt lat="58.912964" lon="17.473133">
        <ele>29.8</ele>
        <time>2017-09-03T10:14:04Z</time>
      </trkpt>
      <trkpt lat="58.913013" lon="17.472945">
        <ele>29.6</ele>
        <time>2017-09-03T10:14:05Z</time>
      </trkpt>
      <trkpt lat="58.913065" lon="17.472764">
        <ele>29.6</ele>
        <time>2017-09-03T10:14:06Z</time>
      </trkpt>
      <trkpt lat="58.913122" lon="17.472596">
        <ele>29.4</ele>
        <time>2017-09-03T10:14:07Z</time>
      </trkpt>
      <trkpt lat="58.913183" lon="17.472447">
        <ele>29</ele>
        <time>2017-09-03T10:14:08Z</time>
      </trkpt>
      <trkpt lat="58.91325" lon="17.472321">
        <ele>28.6</ele>
        <time>2017-09-03T10:14:09Z</time>
      </trkpt>
      <trkpt lat="58.91332" lon="17.472222">
        <ele>28.4</ele>
        <time>2017-09-03T10:14:10Z</time>
      </trkpt>
      <trkpt lat="58.913388" lon="17.472137">
        <ele>28.4</ele>
        <time>2017-09-03T10:14:11Z</time>
      </trkpt>
      <trkpt lat="58.913445" lon="17.472039">
        <ele>28.2</ele>
        <time>2017-09-03T10:14:12Z</time>
      </trkpt>
      <trkpt lat="58.913479" lon="17.471918">
        <ele>28.2</ele>
        <time>2017-09-03T10:14:13Z</time>
      </trkpt>
      <trkpt lat="58.913475" lon="17.47179">
        <ele>28</ele>
        <time>2017-09-03T10:14:14Z</time>
      </trkpt>
      <trkpt lat="58.913436" lon="17.471677">
        <ele>27.8</ele>
        <time>2017-09-03T10:14:15Z</time>
      </trkpt>
      <trkpt lat="58.913374" lon="17.471593">
        <ele>27.8</ele>
        <time>2017-09-03T10:14:16Z</time>
      </trkpt>
      <trkpt lat="58.913294" lon="17.471516">
        <ele>27.8</ele>
        <time>2017-09-03T10:14:17Z</time>
      </trkpt>
      <trkpt lat="58.913205" lon="17.471427">
        <ele>27.8</ele>
        <time>2017-09-03T10:14:18Z</time>
      </trkpt>
      <trkpt lat="58.913114" lon="17.471316">
        <ele>27.8</ele>
        <time>2017-09-03T10:14:19Z</time>
      </trkpt>
      <trkpt lat="58.913027" lon="17.471182">
        <ele>27.8</ele>
        <time>2017-09-03T10:14:20Z</time>
      </trkpt>
      <trkpt lat="58.912943" lon="17.47103">
        <ele>27.8</ele>
        <time>2017-09-03T10:14:21Z</time>
      </trkpt>
      <trkpt lat="58.912862" lon="17.47087">
        <ele>27.8</ele>
        <time>2017-09-03T10:14:22Z</time>
      </trkpt>
      <trkpt lat="58.912785" lon="17.470704">
        <ele>27.8</ele>
        <time>2017-09-03T10:14:23Z</time>
      </trkpt>
      <trkpt lat="58.912713" lon="17.47053">
        <ele>27.8</ele>
        <time>2017-09-03T10:14:24Z</time>
      </trkpt>
      <trkpt lat="58.912643" lon="17.470356">
        <ele>27.8</ele>
        <time>2017-09-03T10:14:25Z</time>
      </trkpt>
      <trkpt lat="58.912573" lon="17.470181">
        <ele>27.6</ele>
        <time>2017-09-03T10:14:26Z</time>
      </trkpt>
      <trkpt lat="58.912503" lon="17.470003">
        <ele>27.6</ele>
        <time>2017-09-03T10:14:27Z</time>
      </trkpt>
      <trkpt lat="58.912433" lon="17.46982">
        <ele>27.2</ele>
        <time>2017-09-03T10:14:28Z</time>
      </trkpt>
      <trkpt lat="58.912362" lon="17.469634">
        <ele>27</ele>
        <time>2017-09-03T10:14:29Z</time>
      </trkpt>
      <trkpt lat="58.912289" lon="17.469446">
        <ele>26.6</ele>
        <time>2017-09-03T10:14:30Z</time>
      </trkpt>
      <trkpt lat="58.912217" lon="17.469256">
        <ele>26.2</ele>
        <time>2017-09-03T10:14:31Z</time>
      </trkpt>
      <trkpt lat="58.912145" lon="17.469063">
        <ele>25.4</ele>
        <time>2017-09-03T10:14:32Z</time>
      </trkpt>
      <trkpt lat="58.912074" lon="17.468869">
        <ele>25</ele>
        <time>2017-09-03T10:14:33Z</time>
      </trkpt>
      <trkpt lat="58.912002" lon="17.468674">
        <ele>24.6</ele>
        <time>2017-09-03T10:14:34Z</time>
      </trkpt>
      <trkpt lat="58.91193" lon="17.468478">
        <ele>24.4</ele>
        <time>2017-09-03T10:14:35Z</time>
      </trkpt>
      <trkpt lat="58.911858" lon="17.468284">
        <ele>24</ele>
        <time>2017-09-03T10:14:36Z</time>
      </trkpt>
      <trkpt lat="58.911786" lon="17.468089">
        <ele>23.8</ele>
        <time>2017-09-03T10:14:37Z</time>
      </trkpt>
      <trkpt lat="58.911714" lon="17.467895">
        <ele>23.4</ele>
        <time>2017-09-03T10:14:38Z</time>
      </trkpt>
      <trkpt lat="58.911642" lon="17.467703">
        <ele>23</ele>
        <time>2017-09-03T10:14:39Z</time>
      </trkpt>
      <trkpt lat="58.91157" lon="17.467513">
        <ele>22.6</ele>
        <time>2017-09-03T10:14:40Z</time>
      </trkpt>
      <trkpt lat="58.911501" lon="17.467323">
        <ele>22.4</ele>
        <time>2017-09-03T10:14:41Z</time>
      </trkpt>
      <trkpt lat="58.911431" lon="17.467135">
        <ele>22.2</ele>
        <time>2017-09-03T10:14:42Z</time>
      </trkpt>
      <trkpt lat="58.911361" lon="17.466948">
        <ele>21.6</ele>
        <time>2017-09-03T10:14:43Z</time>
      </trkpt>
      <trkpt lat="58.911291" lon="17.466762">
        <ele>21.4</ele>
        <time>2017-09-03T10:14:44Z</time>
      </trkpt>
      <trkpt lat="58.911223" lon="17.466577">
        <ele>21.2</ele>
        <time>2017-09-03T10:14:45Z</time>
      </trkpt>
      <trkpt lat="58.911155" lon="17.466391">
        <ele>21</ele>
        <time>2017-09-03T10:14:46Z</time>
      </trkpt>
      <trkpt lat="58.911086" lon="17.466205">
        <ele>21</ele>
        <time>2017-09-03T10:14:47Z</time>
      </trkpt>
      <trkpt lat="58.911018" lon="17.466017">
        <ele>20.8</ele>
        <time>2017-09-03T10:14:48Z</time>
      </trkpt>
      <trkpt lat="58.91095" lon="17.465832">
        <ele>20.8</ele>
        <time>2017-09-03T10:14:49Z</time>
      </trkpt>
      <trkpt lat="58.910881" lon="17.465649">
        <ele>20.8</ele>
        <time>2017-09-03T10:14:50Z</time>
      </trkpt>
      <trkpt lat="58.910812" lon="17.465467">
        <ele>20.8</ele>
        <time>2017-09-03T10:14:51Z</time>
      </trkpt>
      <trkpt lat="58.910744" lon="17.465284">
        <ele>20.8</ele>
        <time>2017-09-03T10:14:52Z</time>
      </trkpt>
      <trkpt lat="58.910677" lon="17.465104">
        <ele>20.8</ele>
        <time>2017-09-03T10:14:53Z</time>
      </trkpt>
      <trkpt lat="58.910611" lon="17.464928">
        <ele>20.8</ele>
        <time>2017-09-03T10:14:54Z</time>
      </trkpt>
      <trkpt lat="58.910546" lon="17.464756">
        <ele>20.8</ele>
        <time>2017-09-03T10:14:55Z</time>
      </trkpt>
      <trkpt lat="58.91048" lon="17.464588">
        <ele>20.8</ele>
        <time>2017-09-03T10:14:56Z</time>
      </trkpt>
      <trkpt lat="58.910412" lon="17.464423">
        <ele>20.8</ele>
        <time>2017-09-03T10:14:57Z</time>
      </trkpt>
      <trkpt lat="58.910343" lon="17.46426">
        <ele>21.2</ele>
        <time>2017-09-03T10:14:58Z</time>
      </trkpt>
      <trkpt lat="58.910274" lon="17.464098">
        <ele>21.6</ele>
        <time>2017-09-03T10:14:59Z</time>
      </trkpt>
      <trkpt lat="58.910202" lon="17.463939">
        <ele>22</ele>
        <time>2017-09-03T10:15:00Z</time>
      </trkpt>
      <trkpt lat="58.910129" lon="17.463785">
        <ele>22.4</ele>
        <time>2017-09-03T10:15:01Z</time>
      </trkpt>
      <trkpt lat="58.910056" lon="17.463638">
        <ele>23</ele>
        <time>2017-09-03T10:15:02Z</time>
      </trkpt>
      <trkpt lat="58.909983" lon="17.463498">
        <ele>23.8</ele>
        <time>2017-09-03T10:15:03Z</time>
      </trkpt>
      <trkpt lat="58.909912" lon="17.463361">
        <ele>24.8</ele>
        <time>2017-09-03T10:15:04Z</time>
      </trkpt>
      <trkpt lat="58.909842" lon="17.463224">
        <ele>25.4</ele>
        <time>2017-09-03T10:15:05Z</time>
      </trkpt>
      <trkpt lat="58.909771" lon="17.46309">
        <ele>26</ele>
        <time>2017-09-03T10:15:06Z</time>
      </trkpt>
      <trkpt lat="58.909697" lon="17.462962">
        <ele>26.8</ele>
        <time>2017-09-03T10:15:07Z</time>
      </trkpt>
      <trkpt lat="58.909623" lon="17.462837">
        <ele>27</ele>
        <time>2017-09-03T10:15:08Z</time>
      </trkpt>
      <trkpt lat="58.909548" lon="17.462715">
        <ele>27.2</ele>
        <time>2017-09-03T10:15:09Z</time>
      </trkpt>
      <trkpt lat="58.909471" lon="17.462596">
        <ele>27.6</ele>
        <time>2017-09-03T10:15:10Z</time>
      </trkpt>
      <trkpt lat="58.909393" lon="17.46248">
        <ele>28.2</ele>
        <time>2017-09-03T10:15:11Z</time>
      </trkpt>
      <trkpt lat="58.909314" lon="17.462365">
        <ele>28.6</ele>
        <time>2017-09-03T10:15:12Z</time>
      </trkpt>
      <trkpt lat="58.909234" lon="17.462251">
        <ele>29.2</ele>
        <time>2017-09-03T10:15:13Z</time>
      </trkpt>
      <trkpt lat="58.909154" lon="17.462139">
        <ele>29.6</ele>
        <time>2017-09-03T10:15:14Z</time>
      </trkpt>
      <trkpt lat="58.909072" lon="17.462028">
        <ele>29.8</ele>
        <time>2017-09-03T10:15:15Z</time>
      </trkpt>
      <trkpt lat="58.908991" lon="17.461917">
        <ele>30</ele>
        <time>2017-09-03T10:15:16Z</time>
      </trkpt>
      <trkpt lat="58.908911" lon="17.461807">
        <ele>30</ele>
        <time>2017-09-03T10:15:17Z</time>
      </trkpt>
      <trkpt lat="58.908832" lon="17.461697">
        <ele>30.2</ele>
        <time>2017-09-03T10:15:18Z</time>
      </trkpt>
      <trkpt lat="58.908755" lon="17.461587">
        <ele>30.2</ele>
        <time>2017-09-03T10:15:19Z</time>
      </trkpt>
      <trkpt lat="58.908677" lon="17.461477">
        <ele>30.4</ele>
        <time>2017-09-03T10:15:20Z</time>
      </trkpt>
      <trkpt lat="58.908599" lon="17.461368">
        <ele>30.4</ele>
        <time>2017-09-03T10:15:21Z</time>
      </trkpt>
      <trkpt lat="58.908522" lon="17.461259">
        <ele>30.6</ele>
        <time>2017-09-03T10:15:22Z</time>
      </trkpt>
      <trkpt lat="58.908444" lon="17.461152">
        <ele>30.6</ele>
        <time>2017-09-03T10:15:23Z</time>
      </trkpt>
      <trkpt lat="58.908367" lon="17.461045">
        <ele>30.8</ele>
        <time>2017-09-03T10:15:24Z</time>
      </trkpt>
      <trkpt lat="58.908292" lon="17.460938">
        <ele>31.2</ele>
        <time>2017-09-03T10:15:25Z</time>
      </trkpt>
      <trkpt lat="58.908217" lon="17.460831">
        <ele>31.4</ele>
        <time>2017-09-03T10:15:26Z</time>
      </trkpt>
      <trkpt lat="58.908142" lon="17.460726">
        <ele>31.6</ele>
        <time>2017-09-03T10:15:27Z</time>
      </trkpt>
      <trkpt lat="58.908066" lon="17.460621">
        <ele>32</ele>
        <time>2017-09-03T10:15:28Z</time>
      </trkpt>
      <trkpt lat="58.907991" lon="17.460516">
        <ele>32.4</ele>
        <time>2017-09-03T10:15:29Z</time>
      </trkpt>
      <trkpt lat="58.907915" lon="17.46041">
        <ele>32.6</ele>
        <time>2017-09-03T10:15:30Z</time>
      </trkpt>
      <trkpt lat="58.90784" lon="17.460306">
        <ele>33</ele>
        <time>2017-09-03T10:15:31Z</time>
      </trkpt>
      <trkpt lat="58.907767" lon="17.460202">
        <ele>33.2</ele>
        <time>2017-09-03T10:15:32Z</time>
      </trkpt>
      <trkpt lat="58.907695" lon="17.4601">
        <ele>33.4</ele>
        <time>2017-09-03T10:15:33Z</time>
      </trkpt>
      <trkpt lat="58.907623" lon="17.459999">
        <ele>33.4</ele>
        <time>2017-09-03T10:15:34Z</time>
      </trkpt>
      <trkpt lat="58.907551" lon="17.459899">
        <ele>33.4</ele>
        <time>2017-09-03T10:15:35Z</time>
      </trkpt>
      <trkpt lat="58.907479" lon="17.459798">
        <ele>33.4</ele>
        <time>2017-09-03T10:15:36Z</time>
      </trkpt>
      <trkpt lat="58.907408" lon="17.459697">
        <ele>34</ele>
        <time>2017-09-03T10:15:37Z</time>
      </trkpt>
      <trkpt lat="58.907336" lon="17.459596">
        <ele>34.2</ele>
        <time>2017-09-03T10:15:38Z</time>
      </trkpt>
      <trkpt lat="58.907265" lon="17.459497">
        <ele>34.4</ele>
        <time>2017-09-03T10:15:39Z</time>
      </trkpt>
      <trkpt lat="58.907193" lon="17.459398">
        <ele>34.6</ele>
        <time>2017-09-03T10:15:40Z</time>
      </trkpt>
      <trkpt lat="58.907123" lon="17.459299">
        <ele>35</ele>
        <time>2017-09-03T10:15:41Z</time>
      </trkpt>
      <trkpt lat="58.907052" lon="17.459202">
        <ele>35.2</ele>
        <time>2017-09-03T10:15:42Z</time>
      </trkpt>
      <trkpt lat="58.906982" lon="17.459105">
        <ele>35.6</ele>
        <time>2017-09-03T10:15:43Z</time>
      </trkpt>
      <trkpt lat="58.906912" lon="17.45901">
        <ele>35.8</ele>
        <time>2017-09-03T10:15:44Z</time>
      </trkpt>
      <trkpt lat="58.906842" lon="17.458918">
        <ele>36</ele>
        <time>2017-09-03T10:15:45Z</time>
      </trkpt>
      <trkpt lat="58.906771" lon="17.458829">
        <ele>36</ele>
        <time>2017-09-03T10:15:46Z</time>
      </trkpt>
      <trkpt lat="58.906699" lon="17.45874">
        <ele>36</ele>
        <time>2017-09-03T10:15:47Z</time>
      </trkpt>
      <trkpt lat="58.906629" lon="17.45865">
        <ele>36.2</ele>
        <time>2017-09-03T10:15:48Z</time>
      </trkpt>
      <trkpt lat="58.906557" lon="17.458561">
        <ele>36.4</ele>
        <time>2017-09-03T10:15:49Z</time>
      </trkpt>
      <trkpt lat="58.906486" lon="17.458474">
        <ele>36.4</ele>
        <time>2017-09-03T10:15:50Z</time>
      </trkpt>
      <trkpt lat="58.906415" lon="17.458387">
        <ele>36.6</ele>
        <time>2017-09-03T10:15:51Z</time>
      </trkpt>
      <trkpt lat="58.906344" lon="17.4583">
        <ele>36.8</ele>
        <time>2017-09-03T10:15:52Z</time>
      </trkpt>
      <trkpt lat="58.906273" lon="17.458215">
        <ele>37</ele>
        <time>2017-09-03T10:15:53Z</time>
      </trkpt>
      <trkpt lat="58.906201" lon="17.458133">
        <ele>37.2</ele>
        <time>2017-09-03T10:15:54Z</time>
      </trkpt>
      <trkpt lat="58.90613" lon="17.458053">
        <ele>37.4</ele>
        <time>2017-09-03T10:15:55Z</time>
      </trkpt>
      <trkpt lat="58.906061" lon="17.457976">
        <ele>37.4</ele>
        <time>2017-09-03T10:15:56Z</time>
      </trkpt>
      <trkpt lat="58.905993" lon="17.457903">
        <ele>37.6</ele>
        <time>2017-09-03T10:15:57Z</time>
      </trkpt>
      <trkpt lat="58.905924" lon="17.457827">
        <ele>37.8</ele>
        <time>2017-09-03T10:15:58Z</time>
      </trkpt>
      <trkpt lat="58.905854" lon="17.457752">
        <ele>37.8</ele>
        <time>2017-09-03T10:15:59Z</time>
      </trkpt>
      <trkpt lat="58.905782" lon="17.457676">
        <ele>38</ele>
        <time>2017-09-03T10:16:00Z</time>
      </trkpt>
      <trkpt lat="58.905709" lon="17.457598">
        <ele>38</ele>
        <time>2017-09-03T10:16:01Z</time>
      </trkpt>
      <trkpt lat="58.905638" lon="17.457523">
        <ele>38.2</ele>
        <time>2017-09-03T10:16:02Z</time>
      </trkpt>
      <trkpt lat="58.905569" lon="17.457447">
        <ele>38.4</ele>
        <time>2017-09-03T10:16:03Z</time>
      </trkpt>
      <trkpt lat="58.905499" lon="17.457375">
        <ele>38.8</ele>
        <time>2017-09-03T10:16:04Z</time>
      </trkpt>
      <trkpt lat="58.905428" lon="17.457306">
        <ele>39.2</ele>
        <time>2017-09-03T10:16:05Z</time>
      </trkpt>
      <trkpt lat="58.905357" lon="17.457237">
        <ele>39.6</ele>
        <time>2017-09-03T10:16:06Z</time>
      </trkpt>
      <trkpt lat="58.905288" lon="17.457166">
        <ele>39.8</ele>
        <time>2017-09-03T10:16:07Z</time>
      </trkpt>
      <trkpt lat="58.905219" lon="17.457092">
        <ele>40.2</ele>
        <time>2017-09-03T10:16:08Z</time>
      </trkpt>
      <trkpt lat="58.905149" lon="17.457017">
        <ele>40.4</ele>
        <time>2017-09-03T10:16:09Z</time>
      </trkpt>
      <trkpt lat="58.905075" lon="17.456949">
        <ele>40.8</ele>
        <time>2017-09-03T10:16:10Z</time>
      </trkpt>
      <trkpt lat="58.905003" lon="17.456883">
        <ele>41</ele>
        <time>2017-09-03T10:16:11Z</time>
      </trkpt>
      <trkpt lat="58.904927" lon="17.456815">
        <ele>41.2</ele>
        <time>2017-09-03T10:16:12Z</time>
      </trkpt>
      <trkpt lat="58.904848" lon="17.45675">
        <ele>41.4</ele>
        <time>2017-09-03T10:16:13Z</time>
      </trkpt>
      <trkpt lat="58.904767" lon="17.45668">
        <ele>41.6</ele>
        <time>2017-09-03T10:16:14Z</time>
      </trkpt>
      <trkpt lat="58.904682" lon="17.45661">
        <ele>41.6</ele>
        <time>2017-09-03T10:16:15Z</time>
      </trkpt>
      <trkpt lat="58.904593" lon="17.456543">
        <ele>41.8</ele>
        <time>2017-09-03T10:16:16Z</time>
      </trkpt>
      <trkpt lat="58.904506" lon="17.456473">
        <ele>41.8</ele>
        <time>2017-09-03T10:16:17Z</time>
      </trkpt>
      <trkpt lat="58.904417" lon="17.456403">
        <ele>41.8</ele>
        <time>2017-09-03T10:16:18Z</time>
      </trkpt>
      <trkpt lat="58.904325" lon="17.456335">
        <ele>41.8</ele>
        <time>2017-09-03T10:16:19Z</time>
      </trkpt>
      <trkpt lat="58.904235" lon="17.456266">
        <ele>41.8</ele>
        <time>2017-09-03T10:16:20Z</time>
      </trkpt>
      <trkpt lat="58.904143" lon="17.456202">
        <ele>41.8</ele>
        <time>2017-09-03T10:16:21Z</time>
      </trkpt>
      <trkpt lat="58.904052" lon="17.456139">
        <ele>41.6</ele>
        <time>2017-09-03T10:16:22Z</time>
      </trkpt>
      <trkpt lat="58.90396" lon="17.456079">
        <ele>41.6</ele>
        <time>2017-09-03T10:16:23Z</time>
      </trkpt>
      <trkpt lat="58.903868" lon="17.456014">
        <ele>41.6</ele>
        <time>2017-09-03T10:16:24Z</time>
      </trkpt>
      <trkpt lat="58.903775" lon="17.455944">
        <ele>41.4</ele>
        <time>2017-09-03T10:16:25Z</time>
      </trkpt>
      <trkpt lat="58.90368" lon="17.455876">
        <ele>41.4</ele>
        <time>2017-09-03T10:16:26Z</time>
      </trkpt>
      <trkpt lat="58.903584" lon="17.45581">
        <ele>41</ele>
        <time>2017-09-03T10:16:27Z</time>
      </trkpt>
      <trkpt lat="58.903487" lon="17.455742">
        <ele>40.6</ele>
        <time>2017-09-03T10:16:28Z</time>
      </trkpt>
      <trkpt lat="58.903387" lon="17.455678">
        <ele>40.4</ele>
        <time>2017-09-03T10:16:29Z</time>
      </trkpt>
      <trkpt lat="58.903286" lon="17.455615">
        <ele>40.2</ele>
        <time>2017-09-03T10:16:30Z</time>
      </trkpt>
      <trkpt lat="58.903184" lon="17.455552">
        <ele>39.6</ele>
        <time>2017-09-03T10:16:31Z</time>
      </trkpt>
      <trkpt lat="58.90308" lon="17.455487">
        <ele>39.4</ele>
        <time>2017-09-03T10:16:32Z</time>
      </trkpt>
      <trkpt lat="58.902973" lon="17.455425">
        <ele>39</ele>
        <time>2017-09-03T10:16:33Z</time>
      </trkpt>
      <trkpt lat="58.902865" lon="17.455363">
        <ele>38.2</ele>
        <time>2017-09-03T10:16:34Z</time>
      </trkpt>
      <trkpt lat="58.902756" lon="17.455301">
        <ele>37.6</ele>
        <time>2017-09-03T10:16:35Z</time>
      </trkpt>
      <trkpt lat="58.902647" lon="17.455239">
        <ele>36.8</ele>
        <time>2017-09-03T10:16:36Z</time>
      </trkpt>
      <trkpt lat="58.902538" lon="17.45518">
        <ele>36.4</ele>
        <time>2017-09-03T10:16:37Z</time>
      </trkpt>
      <trkpt lat="58.90243" lon="17.455124">
        <ele>35.6</ele>
        <time>2017-09-03T10:16:38Z</time>
      </trkpt>
      <trkpt lat="58.902321" lon="17.455069">
        <ele>35.2</ele>
        <time>2017-09-03T10:16:39Z</time>
      </trkpt>
      <trkpt lat="58.902212" lon="17.455015">
        <ele>34.6</ele>
        <time>2017-09-03T10:16:40Z</time>
      </trkpt>
      <trkpt lat="58.902103" lon="17.454964">
        <ele>34</ele>
        <time>2017-09-03T10:16:41Z</time>
      </trkpt>
      <trkpt lat="58.901993" lon="17.454914">
        <ele>33.4</ele>
        <time>2017-09-03T10:16:42Z</time>
      </trkpt>
      <trkpt lat="58.901882" lon="17.454865">
        <ele>32.6</ele>
        <time>2017-09-03T10:16:43Z</time>
      </trkpt>
      <trkpt lat="58.90177" lon="17.454819">
        <ele>31.8</ele>
        <time>2017-09-03T10:16:44Z</time>
      </trkpt>
      <trkpt lat="58.901658" lon="17.454775">
        <ele>31</ele>
        <time>2017-09-03T10:16:45Z</time>
      </trkpt>
      <trkpt lat="58.901546" lon="17.45473">
        <ele>30.6</ele>
        <time>2017-09-03T10:16:46Z</time>
      </trkpt>
      <trkpt lat="58.901434" lon="17.454685">
        <ele>30</ele>
        <time>2017-09-03T10:16:47Z</time>
      </trkpt>
      <trkpt lat="58.901322" lon="17.454641">
        <ele>29.6</ele>
        <time>2017-09-03T10:16:48Z</time>
      </trkpt>
      <trkpt lat="58.90121" lon="17.454597">
        <ele>29.4</ele>
        <time>2017-09-03T10:16:49Z</time>
      </trkpt>
      <trkpt lat="58.901099" lon="17.454555">
        <ele>29.2</ele>
        <time>2017-09-03T10:16:50Z</time>
      </trkpt>
      <trkpt lat="58.900987" lon="17.454514">
        <ele>29</ele>
        <time>2017-09-03T10:16:51Z</time>
      </trkpt>
      <trkpt lat="58.900875" lon="17.454479">
        <ele>28.6</ele>
        <time>2017-09-03T10:16:52Z</time>
      </trkpt>
      <trkpt lat="58.900764" lon="17.45444">
        <ele>28</ele>
        <time>2017-09-03T10:16:53Z</time>
      </trkpt>
      <trkpt lat="58.900655" lon="17.454394">
        <ele>27.8</ele>
        <time>2017-09-03T10:16:54Z</time>
      </trkpt>
      <trkpt lat="58.900546" lon="17.454347">
        <ele>27.2</ele>
        <time>2017-09-03T10:16:55Z</time>
      </trkpt>
      <trkpt lat="58.900439" lon="17.454297">
        <ele>26.8</ele>
        <time>2017-09-03T10:16:56Z</time>
      </trkpt>
      <trkpt lat="58.900332" lon="17.454249">
        <ele>26.4</ele>
        <time>2017-09-03T10:16:57Z</time>
      </trkpt>
      <trkpt lat="58.900226" lon="17.454197">
        <ele>26</ele>
        <time>2017-09-03T10:16:58Z</time>
      </trkpt>
      <trkpt lat="58.900118" lon="17.454142">
        <ele>25.6</ele>
        <time>2017-09-03T10:16:59Z</time>
      </trkpt>
      <trkpt lat="58.90001" lon="17.454087">
        <ele>25.2</ele>
        <time>2017-09-03T10:17:00Z</time>
      </trkpt>
      <trkpt lat="58.899901" lon="17.454031">
        <ele>24.8</ele>
        <time>2017-09-03T10:17:01Z</time>
      </trkpt>
      <trkpt lat="58.899792" lon="17.453969">
        <ele>24.4</ele>
        <time>2017-09-03T10:17:02Z</time>
      </trkpt>
      <trkpt lat="58.899685" lon="17.453906">
        <ele>24.4</ele>
        <time>2017-09-03T10:17:03Z</time>
      </trkpt>
      <trkpt lat="58.899577" lon="17.453839">
        <ele>24.2</ele>
        <time>2017-09-03T10:17:04Z</time>
      </trkpt>
      <trkpt lat="58.89947" lon="17.453767">
        <ele>23.8</ele>
        <time>2017-09-03T10:17:05Z</time>
      </trkpt>
      <trkpt lat="58.899363" lon="17.453689">
        <ele>23.6</ele>
        <time>2017-09-03T10:17:06Z</time>
      </trkpt>
      <trkpt lat="58.899254" lon="17.453604">
        <ele>23.6</ele>
        <time>2017-09-03T10:17:07Z</time>
      </trkpt>
      <trkpt lat="58.899148" lon="17.453522">
        <ele>23.4</ele>
        <time>2017-09-03T10:17:08Z</time>
      </trkpt>
      <trkpt lat="58.899043" lon="17.453439">
        <ele>23.4</ele>
        <time>2017-09-03T10:17:09Z</time>
      </trkpt>
      <trkpt lat="58.898939" lon="17.453353">
        <ele>23.2</ele>
        <time>2017-09-03T10:17:10Z</time>
      </trkpt>
      <trkpt lat="58.898837" lon="17.453264">
        <ele>23.2</ele>
        <time>2017-09-03T10:17:11Z</time>
      </trkpt>
      <trkpt lat="58.898735" lon="17.453172">
        <ele>23.2</ele>
        <time>2017-09-03T10:17:12Z</time>
      </trkpt>
      <trkpt lat="58.898635" lon="17.453078">
        <ele>23</ele>
        <time>2017-09-03T10:17:13Z</time>
      </trkpt>
      <trkpt lat="58.898533" lon="17.452979">
        <ele>23</ele>
        <time>2017-09-03T10:17:14Z</time>
      </trkpt>
      <trkpt lat="58.898433" lon="17.452881">
        <ele>22.8</ele>
        <time>2017-09-03T10:17:15Z</time>
      </trkpt>
      <trkpt lat="58.898332" lon="17.45278">
        <ele>22.6</ele>
        <time>2017-09-03T10:17:16Z</time>
      </trkpt>
      <trkpt lat="58.898232" lon="17.452676">
        <ele>22.4</ele>
        <time>2017-09-03T10:17:17Z</time>
      </trkpt>
      <trkpt lat="58.898134" lon="17.452571">
        <ele>22.4</ele>
        <time>2017-09-03T10:17:18Z</time>
      </trkpt>
      <trkpt lat="58.898038" lon="17.452464">
        <ele>22.2</ele>
        <time>2017-09-03T10:17:19Z</time>
      </trkpt>
      <trkpt lat="58.897942" lon="17.452354">
        <ele>22</ele>
        <time>2017-09-03T10:17:20Z</time>
      </trkpt>
      <trkpt lat="58.897847" lon="17.452241">
        <ele>21.8</ele>
        <time>2017-09-03T10:17:21Z</time>
      </trkpt>
      <trkpt lat="58.897752" lon="17.452128">
        <ele>21.6</ele>
        <time>2017-09-03T10:17:22Z</time>
      </trkpt>
      <trkpt lat="58.897657" lon="17.452017">
        <ele>21.6</ele>
        <time>2017-09-03T10:17:23Z</time>
      </trkpt>
      <trkpt lat="58.897563" lon="17.451907">
        <ele>21.4</ele>
        <time>2017-09-03T10:17:24Z</time>
      </trkpt>
      <trkpt lat="58.89747" lon="17.451798">
        <ele>21.4</ele>
        <time>2017-09-03T10:17:25Z</time>
      </trkpt>
      <trkpt lat="58.897378" lon="17.451689">
        <ele>21.2</ele>
        <time>2017-09-03T10:17:26Z</time>
      </trkpt>
      <trkpt lat="58.897288" lon="17.451581">
        <ele>21.2</ele>
        <time>2017-09-03T10:17:27Z</time>
      </trkpt>
      <trkpt lat="58.8972" lon="17.451475">
        <ele>21</ele>
        <time>2017-09-03T10:17:28Z</time>
      </trkpt>
      <trkpt lat="58.897113" lon="17.45137">
        <ele>21</ele>
        <time>2017-09-03T10:17:29Z</time>
      </trkpt>
      <trkpt lat="58.897028" lon="17.451267">
        <ele>21</ele>
        <time>2017-09-03T10:17:30Z</time>
      </trkpt>
      <trkpt lat="58.896944" lon="17.451164">
        <ele>21</ele>
        <time>2017-09-03T10:17:31Z</time>
      </trkpt>
      <trkpt lat="58.89686" lon="17.451061">
        <ele>21</ele>
        <time>2017-09-03T10:17:32Z</time>
      </trkpt>
      <trkpt lat="58.896776" lon="17.450958">
        <ele>21</ele>
        <time>2017-09-03T10:17:33Z</time>
      </trkpt>
      <trkpt lat="58.896693" lon="17.450855">
        <ele>21</ele>
        <time>2017-09-03T10:17:34Z</time>
      </trkpt>
      <trkpt lat="58.896611" lon="17.450753">
        <ele>21</ele>
        <time>2017-09-03T10:17:35Z</time>
      </trkpt>
      <trkpt lat="58.896528" lon="17.450653">
        <ele>21</ele>
        <time>2017-09-03T10:17:36Z</time>
      </trkpt>
      <trkpt lat="58.896447" lon="17.450556">
        <ele>21.2</ele>
        <time>2017-09-03T10:17:37Z</time>
      </trkpt>
      <trkpt lat="58.896367" lon="17.45046">
        <ele>21.2</ele>
        <time>2017-09-03T10:17:38Z</time>
      </trkpt>
      <trkpt lat="58.89629" lon="17.450366">
        <ele>21.4</ele>
        <time>2017-09-03T10:17:39Z</time>
      </trkpt>
      <trkpt lat="58.896213" lon="17.450273">
        <ele>21.8</ele>
        <time>2017-09-03T10:17:40Z</time>
      </trkpt>
      <trkpt lat="58.896138" lon="17.450182">
        <ele>22</ele>
        <time>2017-09-03T10:17:41Z</time>
      </trkpt>
      <trkpt lat="58.896063" lon="17.450096">
        <ele>22</ele>
        <time>2017-09-03T10:17:42Z</time>
      </trkpt>
      <trkpt lat="58.895988" lon="17.45001">
        <ele>22.4</ele>
        <time>2017-09-03T10:17:43Z</time>
      </trkpt>
      <trkpt lat="58.895916" lon="17.449925">
        <ele>22.6</ele>
        <time>2017-09-03T10:17:44Z</time>
      </trkpt>
      <trkpt lat="58.895843" lon="17.449841">
        <ele>23</ele>
        <time>2017-09-03T10:17:45Z</time>
      </trkpt>
      <trkpt lat="58.89577" lon="17.44976">
        <ele>23.4</ele>
        <time>2017-09-03T10:17:46Z</time>
      </trkpt>
      <trkpt lat="58.895697" lon="17.44968">
        <ele>23.8</ele>
        <time>2017-09-03T10:17:47Z</time>
      </trkpt>
      <trkpt lat="58.895623" lon="17.4496">
        <ele>24.2</ele>
        <time>2017-09-03T10:17:48Z</time>
      </trkpt>
      <trkpt lat="58.89555" lon="17.449521">
        <ele>24.4</ele>
        <time>2017-09-03T10:17:49Z</time>
      </trkpt>
      <trkpt lat="58.895476" lon="17.449441">
        <ele>24.6</ele>
        <time>2017-09-03T10:17:50Z</time>
      </trkpt>
      <trkpt lat="58.895402" lon="17.449366">
        <ele>24.8</ele>
        <time>2017-09-03T10:17:51Z</time>
      </trkpt>
      <trkpt lat="58.895329" lon="17.449292">
        <ele>25.2</ele>
        <time>2017-09-03T10:17:52Z</time>
      </trkpt>
      <trkpt lat="58.895258" lon="17.44922">
        <ele>25.4</ele>
        <time>2017-09-03T10:17:53Z</time>
      </trkpt>
      <trkpt lat="58.895188" lon="17.449149">
        <ele>25.6</ele>
        <time>2017-09-03T10:17:54Z</time>
      </trkpt>
      <trkpt lat="58.895118" lon="17.449079">
        <ele>25.6</ele>
        <time>2017-09-03T10:17:55Z</time>
      </trkpt>
      <trkpt lat="58.895049" lon="17.44901">
        <ele>25.6</ele>
        <time>2017-09-03T10:17:56Z</time>
      </trkpt>
      <trkpt lat="58.89498" lon="17.448943">
        <ele>25.8</ele>
        <time>2017-09-03T10:17:57Z</time>
      </trkpt>
      <trkpt lat="58.89491" lon="17.448873">
        <ele>25.8</ele>
        <time>2017-09-03T10:17:58Z</time>
      </trkpt>
      <trkpt lat="58.894841" lon="17.448805">
        <ele>25.8</ele>
        <time>2017-09-03T10:17:59Z</time>
      </trkpt>
      <trkpt lat="58.894772" lon="17.44874">
        <ele>25.8</ele>
        <time>2017-09-03T10:18:00Z</time>
      </trkpt>
      <trkpt lat="58.894704" lon="17.448675">
        <ele>25.8</ele>
        <time>2017-09-03T10:18:01Z</time>
      </trkpt>
      <trkpt lat="58.894636" lon="17.448615">
        <ele>26</ele>
        <time>2017-09-03T10:18:02Z</time>
      </trkpt>
      <trkpt lat="58.894569" lon="17.448553">
        <ele>26</ele>
        <time>2017-09-03T10:18:03Z</time>
      </trkpt>
      <trkpt lat="58.8945" lon="17.448494">
        <ele>26</ele>
        <time>2017-09-03T10:18:04Z</time>
      </trkpt>
      <trkpt lat="58.894432" lon="17.448432">
        <ele>26.2</ele>
        <time>2017-09-03T10:18:05Z</time>
      </trkpt>
      <trkpt lat="58.894361" lon="17.448375">
        <ele>26.6</ele>
        <time>2017-09-03T10:18:06Z</time>
      </trkpt>
      <trkpt lat="58.894293" lon="17.448314">
        <ele>26.8</ele>
        <time>2017-09-03T10:18:07Z</time>
      </trkpt>
      <trkpt lat="58.894223" lon="17.448255">
        <ele>26.8</ele>
        <time>2017-09-03T10:18:08Z</time>
      </trkpt>
      <trkpt lat="58.894154" lon="17.448195">
        <ele>27</ele>
        <time>2017-09-03T10:18:09Z</time>
      </trkpt>
      <trkpt lat="58.894085" lon="17.448133">
        <ele>27.2</ele>
        <time>2017-09-03T10:18:10Z</time>
      </trkpt>
      <trkpt lat="58.894017" lon="17.448068">
        <ele>27.2</ele>
        <time>2017-09-03T10:18:11Z</time>
      </trkpt>
      <trkpt lat="58.893948" lon="17.448007">
        <ele>27.4</ele>
        <time>2017-09-03T10:18:12Z</time>
      </trkpt>
      <trkpt lat="58.893878" lon="17.447948">
        <ele>27.4</ele>
        <time>2017-09-03T10:18:13Z</time>
      </trkpt>
      <trkpt lat="58.893807" lon="17.447887">
        <ele>27.6</ele>
        <time>2017-09-03T10:18:14Z</time>
      </trkpt>
      <trkpt lat="58.893735" lon="17.447826">
        <ele>27.6</ele>
        <time>2017-09-03T10:18:15Z</time>
      </trkpt>
      <trkpt lat="58.893664" lon="17.447765">
        <ele>27.6</ele>
        <time>2017-09-03T10:18:16Z</time>
      </trkpt>
      <trkpt lat="58.893593" lon="17.447705">
        <ele>27.8</ele>
        <time>2017-09-03T10:18:17Z</time>
      </trkpt>
      <trkpt lat="58.893523" lon="17.447644">
        <ele>27.8</ele>
        <time>2017-09-03T10:18:18Z</time>
      </trkpt>
      <trkpt lat="58.893451" lon="17.447587">
        <ele>27.8</ele>
        <time>2017-09-03T10:18:19Z</time>
      </trkpt>
      <trkpt lat="58.89338" lon="17.44753">
        <ele>28</ele>
        <time>2017-09-03T10:18:20Z</time>
      </trkpt>
      <trkpt lat="58.89331" lon="17.447475">
        <ele>28.2</ele>
        <time>2017-09-03T10:18:21Z</time>
      </trkpt>
      <trkpt lat="58.893242" lon="17.447422">
        <ele>28.2</ele>
        <time>2017-09-03T10:18:22Z</time>
      </trkpt>
      <trkpt lat="58.893176" lon="17.447369">
        <ele>28.4</ele>
        <time>2017-09-03T10:18:23Z</time>
      </trkpt>
      <trkpt lat="58.893113" lon="17.447315">
        <ele>28.6</ele>
        <time>2017-09-03T10:18:24Z</time>
      </trkpt>
      <trkpt lat="58.89305" lon="17.447264">
        <ele>28.6</ele>
        <time>2017-09-03T10:18:25Z</time>
      </trkpt>
      <trkpt lat="58.892987" lon="17.447217">
        <ele>28.8</ele>
        <time>2017-09-03T10:18:26Z</time>
      </trkpt>
      <trkpt lat="58.892924" lon="17.447171">
        <ele>28.8</ele>
        <time>2017-09-03T10:18:27Z</time>
      </trkpt>
      <trkpt lat="58.892863" lon="17.447128">
        <ele>29</ele>
        <time>2017-09-03T10:18:28Z</time>
      </trkpt>
      <trkpt lat="58.892804" lon="17.447085">
        <ele>29</ele>
        <time>2017-09-03T10:18:29Z</time>
      </trkpt>
      <trkpt lat="58.892743" lon="17.447042">
        <ele>29.2</ele>
        <time>2017-09-03T10:18:30Z</time>
      </trkpt>
      <trkpt lat="58.892682" lon="17.446997">
        <ele>29.4</ele>
        <time>2017-09-03T10:18:31Z</time>
      </trkpt>
      <trkpt lat="58.892623" lon="17.446956">
        <ele>29.8</ele>
        <time>2017-09-03T10:18:32Z</time>
      </trkpt>
      <trkpt lat="58.892565" lon="17.446916">
        <ele>30.2</ele>
        <time>2017-09-03T10:18:33Z</time>
      </trkpt>
      <trkpt lat="58.892506" lon="17.446879">
        <ele>30.6</ele>
        <time>2017-09-03T10:18:34Z</time>
      </trkpt>
      <trkpt lat="58.892448" lon="17.446844">
        <ele>31</ele>
        <time>2017-09-03T10:18:35Z</time>
      </trkpt>
      <trkpt lat="58.892389" lon="17.446809">
        <ele>31.4</ele>
        <time>2017-09-03T10:18:36Z</time>
      </trkpt>
      <trkpt lat="58.892331" lon="17.446776">
        <ele>31.8</ele>
        <time>2017-09-03T10:18:37Z</time>
      </trkpt>
      <trkpt lat="58.892274" lon="17.446742">
        <ele>32.4</ele>
        <time>2017-09-03T10:18:38Z</time>
      </trkpt>
      <trkpt lat="58.892214" lon="17.446706">
        <ele>32.8</ele>
        <time>2017-09-03T10:18:39Z</time>
      </trkpt>
      <trkpt lat="58.892152" lon="17.446669">
        <ele>33</ele>
        <time>2017-09-03T10:18:40Z</time>
      </trkpt>
      <trkpt lat="58.892085" lon="17.446633">
        <ele>33.4</ele>
        <time>2017-09-03T10:18:41Z</time>
      </trkpt>
      <trkpt lat="58.892018" lon="17.446599">
        <ele>33.8</ele>
        <time>2017-09-03T10:18:42Z</time>
      </trkpt>
      <trkpt lat="58.891953" lon="17.446563">
        <ele>34.2</ele>
        <time>2017-09-03T10:18:43Z</time>
      </trkpt>
      <trkpt lat="58.891889" lon="17.446527">
        <ele>34.4</ele>
        <time>2017-09-03T10:18:44Z</time>
      </trkpt>
      <trkpt lat="58.891826" lon="17.446488">
        <ele>34.6</ele>
        <time>2017-09-03T10:18:45Z</time>
      </trkpt>
      <trkpt lat="58.891762" lon="17.446447">
        <ele>34.8</ele>
        <time>2017-09-03T10:18:46Z</time>
      </trkpt>
      <trkpt lat="58.891697" lon="17.4464">
        <ele>34.8</ele>
        <time>2017-09-03T10:18:47Z</time>
      </trkpt>
      <trkpt lat="58.891628" lon="17.446356">
        <ele>34.8</ele>
        <time>2017-09-03T10:18:48Z</time>
      </trkpt>
      <trkpt lat="58.891553" lon="17.446308">
        <ele>35</ele>
        <time>2017-09-03T10:18:49Z</time>
      </trkpt>
      <trkpt lat="58.891474" lon="17.446266">
        <ele>35.6</ele>
        <time>2017-09-03T10:18:50Z</time>
      </trkpt>
      <trkpt lat="58.891397" lon="17.446212">
        <ele>35.8</ele>
        <time>2017-09-03T10:18:51Z</time>
      </trkpt>
      <trkpt lat="58.891314" lon="17.446158">
        <ele>36</ele>
        <time>2017-09-03T10:18:52Z</time>
      </trkpt>
      <trkpt lat="58.891228" lon="17.446107">
        <ele>36</ele>
        <time>2017-09-03T10:18:53Z</time>
      </trkpt>
      <trkpt lat="58.891139" lon="17.446051">
        <ele>36.2</ele>
        <time>2017-09-03T10:18:54Z</time>
      </trkpt>
      <trkpt lat="58.891046" lon="17.445997">
        <ele>36.2</ele>
        <time>2017-09-03T10:18:55Z</time>
      </trkpt>
      <trkpt lat="58.890951" lon="17.445945">
        <ele>36.2</ele>
        <time>2017-09-03T10:18:56Z</time>
      </trkpt>
      <trkpt lat="58.890855" lon="17.445891">
        <ele>36.6</ele>
        <time>2017-09-03T10:18:57Z</time>
      </trkpt>
      <trkpt lat="58.890758" lon="17.445831">
        <ele>36.8</ele>
        <time>2017-09-03T10:18:58Z</time>
      </trkpt>
      <trkpt lat="58.890658" lon="17.445776">
        <ele>36.8</ele>
        <time>2017-09-03T10:18:59Z</time>
      </trkpt>
      <trkpt lat="58.89056" lon="17.445716">
        <ele>37</ele>
        <time>2017-09-03T10:19:00Z</time>
      </trkpt>
      <trkpt lat="58.890462" lon="17.445657">
        <ele>37</ele>
        <time>2017-09-03T10:19:01Z</time>
      </trkpt>
      <trkpt lat="58.890363" lon="17.445603">
        <ele>37.2</ele>
        <time>2017-09-03T10:19:02Z</time>
      </trkpt>
      <trkpt lat="58.890262" lon="17.44555">
        <ele>37.2</ele>
        <time>2017-09-03T10:19:03Z</time>
      </trkpt>
      <trkpt lat="58.890162" lon="17.445496">
        <ele>37.6</ele>
        <time>2017-09-03T10:19:04Z</time>
      </trkpt>
      <trkpt lat="58.890062" lon="17.445442">
        <ele>37.4</ele>
        <time>2017-09-03T10:19:05Z</time>
      </trkpt>
      <trkpt lat="58.889962" lon="17.44539">
        <ele>37.8</ele>
        <time>2017-09-03T10:19:06Z</time>
      </trkpt>
      <trkpt lat="58.889862" lon="17.445334">
        <ele>38.2</ele>
        <time>2017-09-03T10:19:07Z</time>
      </trkpt>
      <trkpt lat="58.889761" lon="17.445274">
        <ele>38.4</ele>
        <time>2017-09-03T10:19:08Z</time>
      </trkpt>
      <trkpt lat="58.889661" lon="17.445216">
        <ele>38.6</ele>
        <time>2017-09-03T10:19:09Z</time>
      </trkpt>
      <trkpt lat="58.88956" lon="17.445156">
        <ele>38.8</ele>
        <time>2017-09-03T10:19:10Z</time>
      </trkpt>
      <trkpt lat="58.889456" lon="17.445098">
        <ele>39.2</ele>
        <time>2017-09-03T10:19:11Z</time>
      </trkpt>
      <trkpt lat="58.889352" lon="17.445035">
        <ele>39.4</ele>
        <time>2017-09-03T10:19:12Z</time>
      </trkpt>
      <trkpt lat="58.889246" lon="17.444973">
        <ele>39.6</ele>
        <time>2017-09-03T10:19:13Z</time>
      </trkpt>
      <trkpt lat="58.889136" lon="17.444917">
        <ele>39.8</ele>
        <time>2017-09-03T10:19:14Z</time>
      </trkpt>
      <trkpt lat="58.889023" lon="17.444858">
        <ele>39.8</ele>
        <time>2017-09-03T10:19:15Z</time>
      </trkpt>
      <trkpt lat="58.888904" lon="17.444797">
        <ele>40</ele>
        <time>2017-09-03T10:19:16Z</time>
      </trkpt>
      <trkpt lat="58.888784" lon="17.44473">
        <ele>40.2</ele>
        <time>2017-09-03T10:19:17Z</time>
      </trkpt>
      <trkpt lat="58.888667" lon="17.444652">
        <ele>40.4</ele>
        <time>2017-09-03T10:19:18Z</time>
      </trkpt>
      <trkpt lat="58.888554" lon="17.444561">
        <ele>40.4</ele>
        <time>2017-09-03T10:19:19Z</time>
      </trkpt>
      <trkpt lat="58.888444" lon="17.444463">
        <ele>40.4</ele>
        <time>2017-09-03T10:19:20Z</time>
      </trkpt>
      <trkpt lat="58.888335" lon="17.444367">
        <ele>40.6</ele>
        <time>2017-09-03T10:19:21Z</time>
      </trkpt>
      <trkpt lat="58.888225" lon="17.444276">
        <ele>40.6</ele>
        <time>2017-09-03T10:19:22Z</time>
      </trkpt>
      <trkpt lat="58.888113" lon="17.444187">
        <ele>40.8</ele>
        <time>2017-09-03T10:19:23Z</time>
      </trkpt>
      <trkpt lat="58.888001" lon="17.444098">
        <ele>41</ele>
        <time>2017-09-03T10:19:24Z</time>
      </trkpt>
      <trkpt lat="58.887887" lon="17.444009">
        <ele>41</ele>
        <time>2017-09-03T10:19:25Z</time>
      </trkpt>
      <trkpt lat="58.887772" lon="17.44392">
        <ele>41</ele>
        <time>2017-09-03T10:19:26Z</time>
      </trkpt>
      <trkpt lat="58.887657" lon="17.443833">
        <ele>41.2</ele>
        <time>2017-09-03T10:19:27Z</time>
      </trkpt>
      <trkpt lat="58.887543" lon="17.443749">
        <ele>41.2</ele>
        <time>2017-09-03T10:19:28Z</time>
      </trkpt>
      <trkpt lat="58.887432" lon="17.443667">
        <ele>41.2</ele>
        <time>2017-09-03T10:19:29Z</time>
      </trkpt>
      <trkpt lat="58.887327" lon="17.443582">
        <ele>41.4</ele>
        <time>2017-09-03T10:19:30Z</time>
      </trkpt>
      <trkpt lat="58.88722" lon="17.443497">
        <ele>41.4</ele>
        <time>2017-09-03T10:19:31Z</time>
      </trkpt>
      <trkpt lat="58.887116" lon="17.443414">
        <ele>41.4</ele>
        <time>2017-09-03T10:19:32Z</time>
      </trkpt>
      <trkpt lat="58.887015" lon="17.443334">
        <ele>41.4</ele>
        <time>2017-09-03T10:19:33Z</time>
      </trkpt>
      <trkpt lat="58.886914" lon="17.443256">
        <ele>41.6</ele>
        <time>2017-09-03T10:19:34Z</time>
      </trkpt>
      <trkpt lat="58.886812" lon="17.443178">
        <ele>41.8</ele>
        <time>2017-09-03T10:19:35Z</time>
      </trkpt>
      <trkpt lat="58.886708" lon="17.4431">
        <ele>42.2</ele>
        <time>2017-09-03T10:19:36Z</time>
      </trkpt>
      <trkpt lat="58.886602" lon="17.443019">
        <ele>43</ele>
        <time>2017-09-03T10:19:37Z</time>
      </trkpt>
      <trkpt lat="58.886496" lon="17.442938">
        <ele>43.6</ele>
        <time>2017-09-03T10:19:38Z</time>
      </trkpt>
      <trkpt lat="58.886388" lon="17.44286">
        <ele>44.2</ele>
        <time>2017-09-03T10:19:39Z</time>
      </trkpt>
      <trkpt lat="58.88628" lon="17.442785">
        <ele>44.6</ele>
        <time>2017-09-03T10:19:40Z</time>
      </trkpt>
      <trkpt lat="58.88617" lon="17.442714">
        <ele>45.2</ele>
        <time>2017-09-03T10:19:41Z</time>
      </trkpt>
      <trkpt lat="58.886059" lon="17.442644">
        <ele>45.4</ele>
        <time>2017-09-03T10:19:42Z</time>
      </trkpt>
      <trkpt lat="58.885942" lon="17.442574">
        <ele>45.8</ele>
        <time>2017-09-03T10:19:43Z</time>
      </trkpt>
      <trkpt lat="58.885821" lon="17.442507">
        <ele>46.2</ele>
        <time>2017-09-03T10:19:44Z</time>
      </trkpt>
      <trkpt lat="58.885697" lon="17.442446">
        <ele>46.4</ele>
        <time>2017-09-03T10:19:45Z</time>
      </trkpt>
      <trkpt lat="58.885571" lon="17.442388">
        <ele>46.6</ele>
        <time>2017-09-03T10:19:46Z</time>
      </trkpt>
      <trkpt lat="58.885443" lon="17.442332">
        <ele>46.6</ele>
        <time>2017-09-03T10:19:47Z</time>
      </trkpt>
      <trkpt lat="58.885315" lon="17.442279">
        <ele>46.6</ele>
        <time>2017-09-03T10:19:48Z</time>
      </trkpt>
      <trkpt lat="58.885187" lon="17.442232">
        <ele>46.6</ele>
        <time>2017-09-03T10:19:49Z</time>
      </trkpt>
      <trkpt lat="58.885059" lon="17.442194">
        <ele>46.6</ele>
        <time>2017-09-03T10:19:50Z</time>
      </trkpt>
      <trkpt lat="58.88493" lon="17.44216">
        <ele>46.6</ele>
        <time>2017-09-03T10:19:51Z</time>
      </trkpt>
      <trkpt lat="58.884803" lon="17.442128">
        <ele>46.6</ele>
        <time>2017-09-03T10:19:52Z</time>
      </trkpt>
      <trkpt lat="58.884676" lon="17.442099">
        <ele>46.6</ele>
        <time>2017-09-03T10:19:53Z</time>
      </trkpt>
      <trkpt lat="58.88455" lon="17.442073">
        <ele>46.4</ele>
        <time>2017-09-03T10:19:54Z</time>
      </trkpt>
      <trkpt lat="58.884424" lon="17.442051">
        <ele>46.4</ele>
        <time>2017-09-03T10:19:55Z</time>
      </trkpt>
      <trkpt lat="58.8843" lon="17.442032">
        <ele>46</ele>
        <time>2017-09-03T10:19:56Z</time>
      </trkpt>
      <trkpt lat="58.884179" lon="17.442015">
        <ele>45.6</ele>
        <time>2017-09-03T10:19:57Z</time>
      </trkpt>
      <trkpt lat="58.88406" lon="17.441999">
        <ele>45.4</ele>
        <time>2017-09-03T10:19:58Z</time>
      </trkpt>
      <trkpt lat="58.883944" lon="17.441985">
        <ele>45</ele>
        <time>2017-09-03T10:19:59Z</time>
      </trkpt>
      <trkpt lat="58.883831" lon="17.44197">
        <ele>44.8</ele>
        <time>2017-09-03T10:20:00Z</time>
      </trkpt>
      <trkpt lat="58.883717" lon="17.441958">
        <ele>44.6</ele>
        <time>2017-09-03T10:20:01Z</time>
      </trkpt>
      <trkpt lat="58.883605" lon="17.441945">
        <ele>44.6</ele>
        <time>2017-09-03T10:20:02Z</time>
      </trkpt>
      <trkpt lat="58.883493" lon="17.44193">
        <ele>44.6</ele>
        <time>2017-09-03T10:20:03Z</time>
      </trkpt>
      <trkpt lat="58.883382" lon="17.441917">
        <ele>44.6</ele>
        <time>2017-09-03T10:20:04Z</time>
      </trkpt>
      <trkpt lat="58.88327" lon="17.441904">
        <ele>44.4</ele>
        <time>2017-09-03T10:20:05Z</time>
      </trkpt>
      <trkpt lat="58.883157" lon="17.44189">
        <ele>44.4</ele>
        <time>2017-09-03T10:20:06Z</time>
      </trkpt>
      <trkpt lat="58.883041" lon="17.441881">
        <ele>44.4</ele>
        <time>2017-09-03T10:20:07Z</time>
      </trkpt>
      <trkpt lat="58.882929" lon="17.441869">
        <ele>44.4</ele>
        <time>2017-09-03T10:20:08Z</time>
      </trkpt>
      <trkpt lat="58.882818" lon="17.441856">
        <ele>44.8</ele>
        <time>2017-09-03T10:20:09Z</time>
      </trkpt>
      <trkpt lat="58.882708" lon="17.441844">
        <ele>45</ele>
        <time>2017-09-03T10:20:10Z</time>
      </trkpt>
      <trkpt lat="58.882599" lon="17.441831">
        <ele>45.2</ele>
        <time>2017-09-03T10:20:11Z</time>
      </trkpt>
      <trkpt lat="58.882492" lon="17.441817">
        <ele>45.8</ele>
        <time>2017-09-03T10:20:12Z</time>
      </trkpt>
      <trkpt lat="58.882383" lon="17.441805">
        <ele>46.2</ele>
        <time>2017-09-03T10:20:13Z</time>
      </trkpt>
      <trkpt lat="58.882274" lon="17.441794">
        <ele>46.6</ele>
        <time>2017-09-03T10:20:14Z</time>
      </trkpt>
      <trkpt lat="58.882165" lon="17.44178">
        <ele>46.6</ele>
        <time>2017-09-03T10:20:15Z</time>
      </trkpt>
      <trkpt lat="58.882057" lon="17.441763">
        <ele>47</ele>
        <time>2017-09-03T10:20:16Z</time>
      </trkpt>
      <trkpt lat="58.881947" lon="17.441744">
        <ele>47</ele>
        <time>2017-09-03T10:20:17Z</time>
      </trkpt>
      <trkpt lat="58.881834" lon="17.441729">
        <ele>47</ele>
        <time>2017-09-03T10:20:18Z</time>
      </trkpt>
      <trkpt lat="58.881719" lon="17.441712">
        <ele>47.2</ele>
        <time>2017-09-03T10:20:19Z</time>
      </trkpt>
      <trkpt lat="58.881602" lon="17.441697">
        <ele>47.2</ele>
        <time>2017-09-03T10:20:20Z</time>
      </trkpt>
      <trkpt lat="58.881488" lon="17.441674">
        <ele>47.2</ele>
        <time>2017-09-03T10:20:21Z</time>
      </trkpt>
      <trkpt lat="58.881376" lon="17.441641">
        <ele>47.2</ele>
        <time>2017-09-03T10:20:22Z</time>
      </trkpt>
      <trkpt lat="58.881266" lon="17.4416">
        <ele>47.2</ele>
        <time>2017-09-03T10:20:23Z</time>
      </trkpt>
      <trkpt lat="58.881157" lon="17.44156">
        <ele>47.2</ele>
        <time>2017-09-03T10:20:24Z</time>
      </trkpt>
      <trkpt lat="58.881047" lon="17.441518">
        <ele>47.2</ele>
        <time>2017-09-03T10:20:25Z</time>
      </trkpt>
      <trkpt lat="58.880937" lon="17.441476">
        <ele>47</ele>
        <time>2017-09-03T10:20:26Z</time>
      </trkpt>
      <trkpt lat="58.880826" lon="17.441432">
        <ele>47</ele>
        <time>2017-09-03T10:20:27Z</time>
      </trkpt>
      <trkpt lat="58.880714" lon="17.441382">
        <ele>46.8</ele>
        <time>2017-09-03T10:20:28Z</time>
      </trkpt>
      <trkpt lat="58.880602" lon="17.441327">
        <ele>46.6</ele>
        <time>2017-09-03T10:20:29Z</time>
      </trkpt>
      <trkpt lat="58.880487" lon="17.44127">
        <ele>46.4</ele>
        <time>2017-09-03T10:20:30Z</time>
      </trkpt>
      <trkpt lat="58.880369" lon="17.441209">
        <ele>46.2</ele>
        <time>2017-09-03T10:20:31Z</time>
      </trkpt>
      <trkpt lat="58.88025" lon="17.441142">
        <ele>46.2</ele>
        <time>2017-09-03T10:20:32Z</time>
      </trkpt>
      <trkpt lat="58.880127" lon="17.44107">
        <ele>46</ele>
        <time>2017-09-03T10:20:33Z</time>
      </trkpt>
      <trkpt lat="58.880001" lon="17.441002">
        <ele>46</ele>
        <time>2017-09-03T10:20:34Z</time>
      </trkpt>
      <trkpt lat="58.879874" lon="17.440936">
        <ele>45.8</ele>
        <time>2017-09-03T10:20:35Z</time>
      </trkpt>
      <trkpt lat="58.879747" lon="17.440867">
        <ele>45.8</ele>
        <time>2017-09-03T10:20:36Z</time>
      </trkpt>
      <trkpt lat="58.879619" lon="17.440797">
        <ele>45.6</ele>
        <time>2017-09-03T10:20:37Z</time>
      </trkpt>
      <trkpt lat="58.879491" lon="17.440732">
        <ele>45.4</ele>
        <time>2017-09-03T10:20:38Z</time>
      </trkpt>
      <trkpt lat="58.879363" lon="17.44067">
        <ele>45</ele>
        <time>2017-09-03T10:20:39Z</time>
      </trkpt>
      <trkpt lat="58.879237" lon="17.440611">
        <ele>44.6</ele>
        <time>2017-09-03T10:20:40Z</time>
      </trkpt>
      <trkpt lat="58.87911" lon="17.440558">
        <ele>44.2</ele>
        <time>2017-09-03T10:20:41Z</time>
      </trkpt>
      <trkpt lat="58.878984" lon="17.440509">
        <ele>43.6</ele>
        <time>2017-09-03T10:20:42Z</time>
      </trkpt>
      <trkpt lat="58.87886" lon="17.440466">
        <ele>42.8</ele>
        <time>2017-09-03T10:20:43Z</time>
      </trkpt>
      <trkpt lat="58.878736" lon="17.440429">
        <ele>42.4</ele>
        <time>2017-09-03T10:20:44Z</time>
      </trkpt>
      <trkpt lat="58.878613" lon="17.440397">
        <ele>41.6</ele>
        <time>2017-09-03T10:20:45Z</time>
      </trkpt>
      <trkpt lat="58.87849" lon="17.440372">
        <ele>40.8</ele>
        <time>2017-09-03T10:20:46Z</time>
      </trkpt>
      <trkpt lat="58.878367" lon="17.44035">
        <ele>40</ele>
        <time>2017-09-03T10:20:47Z</time>
      </trkpt>
      <trkpt lat="58.878243" lon="17.440331">
        <ele>39.6</ele>
        <time>2017-09-03T10:20:48Z</time>
      </trkpt>
      <trkpt lat="58.878117" lon="17.440312">
        <ele>39.2</ele>
        <time>2017-09-03T10:20:49Z</time>
      </trkpt>
      <trkpt lat="58.877989" lon="17.440298">
        <ele>39</ele>
        <time>2017-09-03T10:20:50Z</time>
      </trkpt>
      <trkpt lat="58.877859" lon="17.440289">
        <ele>39</ele>
        <time>2017-09-03T10:20:51Z</time>
      </trkpt>
      <trkpt lat="58.877729" lon="17.440281">
        <ele>38.8</ele>
        <time>2017-09-03T10:20:52Z</time>
      </trkpt>
      <trkpt lat="58.8776" lon="17.44027">
        <ele>38.4</ele>
        <time>2017-09-03T10:20:53Z</time>
      </trkpt>
      <trkpt lat="58.87747" lon="17.440257">
        <ele>38.4</ele>
        <time>2017-09-03T10:20:54Z</time>
      </trkpt>
      <trkpt lat="58.877339" lon="17.440245">
        <ele>38.2</ele>
        <time>2017-09-03T10:20:55Z</time>
      </trkpt>
      <trkpt lat="58.877209" lon="17.440232">
        <ele>38.2</ele>
        <time>2017-09-03T10:20:56Z</time>
      </trkpt>
      <trkpt lat="58.877079" lon="17.440217">
        <ele>37.8</ele>
        <time>2017-09-03T10:20:57Z</time>
      </trkpt>
      <trkpt lat="58.876948" lon="17.440204">
        <ele>37.6</ele>
        <time>2017-09-03T10:20:58Z</time>
      </trkpt>
      <trkpt lat="58.876819" lon="17.440192">
        <ele>37.4</ele>
        <time>2017-09-03T10:20:59Z</time>
      </trkpt>
      <trkpt lat="58.876691" lon="17.440181">
        <ele>37</ele>
        <time>2017-09-03T10:21:00Z</time>
      </trkpt>
      <trkpt lat="58.876562" lon="17.440172">
        <ele>36.8</ele>
        <time>2017-09-03T10:21:01Z</time>
      </trkpt>
      <trkpt lat="58.876431" lon="17.440161">
        <ele>36.6</ele>
        <time>2017-09-03T10:21:02Z</time>
      </trkpt>
      <trkpt lat="58.876298" lon="17.440149">
        <ele>36.6</ele>
        <time>2017-09-03T10:21:03Z</time>
      </trkpt>
      <trkpt lat="58.876166" lon="17.440138">
        <ele>36.6</ele>
        <time>2017-09-03T10:21:04Z</time>
      </trkpt>
      <trkpt lat="58.876033" lon="17.440126">
        <ele>36.4</ele>
        <time>2017-09-03T10:21:05Z</time>
      </trkpt>
      <trkpt lat="58.875901" lon="17.440114">
        <ele>36.2</ele>
        <time>2017-09-03T10:21:06Z</time>
      </trkpt>
      <trkpt lat="58.87577" lon="17.4401">
        <ele>36</ele>
        <time>2017-09-03T10:21:07Z</time>
      </trkpt>
      <trkpt lat="58.875638" lon="17.440082">
        <ele>36</ele>
        <time>2017-09-03T10:21:08Z</time>
      </trkpt>
      <trkpt lat="58.875504" lon="17.440062">
        <ele>35.8</ele>
        <time>2017-09-03T10:21:09Z</time>
      </trkpt>
      <trkpt lat="58.875369" lon="17.440035">
        <ele>35.4</ele>
        <time>2017-09-03T10:21:10Z</time>
      </trkpt>
      <trkpt lat="58.875232" lon="17.440004">
        <ele>35.2</ele>
        <time>2017-09-03T10:21:11Z</time>
      </trkpt>
      <trkpt lat="58.875097" lon="17.439972">
        <ele>35</ele>
        <time>2017-09-03T10:21:12Z</time>
      </trkpt>
      <trkpt lat="58.874963" lon="17.439933">
        <ele>35</ele>
        <time>2017-09-03T10:21:13Z</time>
      </trkpt>
      <trkpt lat="58.874832" lon="17.439885">
        <ele>34.8</ele>
        <time>2017-09-03T10:21:14Z</time>
      </trkpt>
      <trkpt lat="58.8747" lon="17.439833">
        <ele>34.8</ele>
        <time>2017-09-03T10:21:15Z</time>
      </trkpt>
      <trkpt lat="58.874568" lon="17.439778">
        <ele>34.8</ele>
        <time>2017-09-03T10:21:16Z</time>
      </trkpt>
      <trkpt lat="58.874436" lon="17.43972">
        <ele>34.8</ele>
        <time>2017-09-03T10:21:17Z</time>
      </trkpt>
      <trkpt lat="58.874306" lon="17.439656">
        <ele>34.8</ele>
        <time>2017-09-03T10:21:18Z</time>
      </trkpt>
      <trkpt lat="58.874178" lon="17.439587">
        <ele>34.8</ele>
        <time>2017-09-03T10:21:19Z</time>
      </trkpt>
      <trkpt lat="58.874052" lon="17.439514">
        <ele>34.8</ele>
        <time>2017-09-03T10:21:20Z</time>
      </trkpt>
      <trkpt lat="58.873927" lon="17.43944">
        <ele>34.8</ele>
        <time>2017-09-03T10:21:21Z</time>
      </trkpt>
      <trkpt lat="58.873802" lon="17.43936">
        <ele>34.8</ele>
        <time>2017-09-03T10:21:22Z</time>
      </trkpt>
      <trkpt lat="58.873676" lon="17.439277">
        <ele>34.8</ele>
        <time>2017-09-03T10:21:23Z</time>
      </trkpt>
      <trkpt lat="58.87355" lon="17.439194">
        <ele>34.8</ele>
        <time>2017-09-03T10:21:24Z</time>
      </trkpt>
      <trkpt lat="58.873426" lon="17.439113">
        <ele>34.8</ele>
        <time>2017-09-03T10:21:25Z</time>
      </trkpt>
      <trkpt lat="58.873301" lon="17.439031">
        <ele>34.8</ele>
        <time>2017-09-03T10:21:26Z</time>
      </trkpt>
      <trkpt lat="58.873177" lon="17.438949">
        <ele>34.8</ele>
        <time>2017-09-03T10:21:27Z</time>
      </trkpt>
      <trkpt lat="58.873054" lon="17.438867">
        <ele>34.8</ele>
        <time>2017-09-03T10:21:28Z</time>
      </trkpt>
      <trkpt lat="58.872932" lon="17.438784">
        <ele>35</ele>
        <time>2017-09-03T10:21:29Z</time>
      </trkpt>
      <trkpt lat="58.872811" lon="17.438701">
        <ele>35</ele>
        <time>2017-09-03T10:21:30Z</time>
      </trkpt>
      <trkpt lat="58.87269" lon="17.438618">
        <ele>35</ele>
        <time>2017-09-03T10:21:31Z</time>
      </trkpt>
      <trkpt lat="58.872567" lon="17.438537">
        <ele>35</ele>
        <time>2017-09-03T10:21:32Z</time>
      </trkpt>
      <trkpt lat="58.872445" lon="17.438455">
        <ele>35</ele>
        <time>2017-09-03T10:21:33Z</time>
      </trkpt>
      <trkpt lat="58.872321" lon="17.438374">
        <ele>35</ele>
        <time>2017-09-03T10:21:34Z</time>
      </trkpt>
      <trkpt lat="58.872198" lon="17.438293">
        <ele>35</ele>
        <time>2017-09-03T10:21:35Z</time>
      </trkpt>
      <trkpt lat="58.872074" lon="17.438209">
        <ele>35</ele>
        <time>2017-09-03T10:21:36Z</time>
      </trkpt>
      <trkpt lat="58.871948" lon="17.438126">
        <ele>35.2</ele>
        <time>2017-09-03T10:21:37Z</time>
      </trkpt>
      <trkpt lat="58.871822" lon="17.438043">
        <ele>35.2</ele>
        <time>2017-09-03T10:21:38Z</time>
      </trkpt>
      <trkpt lat="58.871697" lon="17.437959">
        <ele>35.2</ele>
        <time>2017-09-03T10:21:39Z</time>
      </trkpt>
      <trkpt lat="58.871573" lon="17.437875">
        <ele>35.2</ele>
        <time>2017-09-03T10:21:40Z</time>
      </trkpt>
      <trkpt lat="58.87145" lon="17.437794">
        <ele>35</ele>
        <time>2017-09-03T10:21:41Z</time>
      </trkpt>
      <trkpt lat="58.871328" lon="17.437712">
        <ele>35</ele>
        <time>2017-09-03T10:21:42Z</time>
      </trkpt>
      <trkpt lat="58.871208" lon="17.437622">
        <ele>35</ele>
        <time>2017-09-03T10:21:43Z</time>
      </trkpt>
      <trkpt lat="58.871091" lon="17.437526">
        <ele>34.8</ele>
        <time>2017-09-03T10:21:44Z</time>
      </trkpt>
      <trkpt lat="58.870975" lon="17.437419">
        <ele>34.6</ele>
        <time>2017-09-03T10:21:45Z</time>
      </trkpt>
      <trkpt lat="58.870858" lon="17.437304">
        <ele>34.2</ele>
        <time>2017-09-03T10:21:46Z</time>
      </trkpt>
      <trkpt lat="58.87074" lon="17.437183">
        <ele>34</ele>
        <time>2017-09-03T10:21:47Z</time>
      </trkpt>
      <trkpt lat="58.870624" lon="17.437057">
        <ele>33.8</ele>
        <time>2017-09-03T10:21:48Z</time>
      </trkpt>
      <trkpt lat="58.87051" lon="17.436924">
        <ele>33.6</ele>
        <time>2017-09-03T10:21:49Z</time>
      </trkpt>
      <trkpt lat="58.870396" lon="17.436788">
        <ele>33.2</ele>
        <time>2017-09-03T10:21:50Z</time>
      </trkpt>
      <trkpt lat="58.870283" lon="17.436648">
        <ele>32.6</ele>
        <time>2017-09-03T10:21:51Z</time>
      </trkpt>
      <trkpt lat="58.87017" lon="17.4365">
        <ele>32.2</ele>
        <time>2017-09-03T10:21:52Z</time>
      </trkpt>
      <trkpt lat="58.870059" lon="17.436344">
        <ele>32</ele>
        <time>2017-09-03T10:21:53Z</time>
      </trkpt>
      <trkpt lat="58.869949" lon="17.436183">
        <ele>32</ele>
        <time>2017-09-03T10:21:54Z</time>
      </trkpt>
      <trkpt lat="58.86984" lon="17.43602">
        <ele>31.8</ele>
        <time>2017-09-03T10:21:55Z</time>
      </trkpt>
      <trkpt lat="58.869732" lon="17.435852">
        <ele>31.8</ele>
        <time>2017-09-03T10:21:56Z</time>
      </trkpt>
      <trkpt lat="58.869627" lon="17.435681">
        <ele>31.6</ele>
        <time>2017-09-03T10:21:57Z</time>
      </trkpt>
      <trkpt lat="58.869526" lon="17.435508">
        <ele>31.4</ele>
        <time>2017-09-03T10:21:58Z</time>
      </trkpt>
      <trkpt lat="58.869431" lon="17.435328">
        <ele>31.2</ele>
        <time>2017-09-03T10:21:59Z</time>
      </trkpt>
      <trkpt lat="58.869342" lon="17.435145">
        <ele>31.2</ele>
        <time>2017-09-03T10:22:00Z</time>
      </trkpt>
      <trkpt lat="58.869259" lon="17.434961">
        <ele>30.6</ele>
        <time>2017-09-03T10:22:01Z</time>
      </trkpt>
      <trkpt lat="58.86918" lon="17.434778">
        <ele>30.2</ele>
        <time>2017-09-03T10:22:02Z</time>
      </trkpt>
      <trkpt lat="58.869103" lon="17.434598">
        <ele>29.8</ele>
        <time>2017-09-03T10:22:03Z</time>
      </trkpt>
      <trkpt lat="58.869026" lon="17.43442">
        <ele>29.6</ele>
        <time>2017-09-03T10:22:04Z</time>
      </trkpt>
      <trkpt lat="58.868949" lon="17.434244">
        <ele>29.4</ele>
        <time>2017-09-03T10:22:05Z</time>
      </trkpt>
      <trkpt lat="58.868872" lon="17.434067">
        <ele>29.4</ele>
        <time>2017-09-03T10:22:06Z</time>
      </trkpt>
      <trkpt lat="58.868796" lon="17.433892">
        <ele>29.4</ele>
        <time>2017-09-03T10:22:07Z</time>
      </trkpt>
      <trkpt lat="58.868722" lon="17.433716">
        <ele>29.2</ele>
        <time>2017-09-03T10:22:08Z</time>
      </trkpt>
      <trkpt lat="58.868646" lon="17.433545">
        <ele>29.2</ele>
        <time>2017-09-03T10:22:09Z</time>
      </trkpt>
      <trkpt lat="58.868569" lon="17.433379">
        <ele>29.2</ele>
        <time>2017-09-03T10:22:10Z</time>
      </trkpt>
      <trkpt lat="58.868494" lon="17.433213">
        <ele>29.2</ele>
        <time>2017-09-03T10:22:11Z</time>
      </trkpt>
      <trkpt lat="58.868419" lon="17.43305">
        <ele>29.2</ele>
        <time>2017-09-03T10:22:12Z</time>
      </trkpt>
      <trkpt lat="58.868346" lon="17.432887">
        <ele>29.2</ele>
        <time>2017-09-03T10:22:13Z</time>
      </trkpt>
      <trkpt lat="58.868275" lon="17.432725">
        <ele>29.2</ele>
        <time>2017-09-03T10:22:14Z</time>
      </trkpt>
      <trkpt lat="58.868205" lon="17.432563">
        <ele>29.4</ele>
        <time>2017-09-03T10:22:15Z</time>
      </trkpt>
      <trkpt lat="58.868134" lon="17.432398">
        <ele>29.4</ele>
        <time>2017-09-03T10:22:16Z</time>
      </trkpt>
      <trkpt lat="58.86806" lon="17.432231">
        <ele>29.6</ele>
        <time>2017-09-03T10:22:17Z</time>
      </trkpt>
      <trkpt lat="58.867985" lon="17.432064">
        <ele>29.8</ele>
        <time>2017-09-03T10:22:18Z</time>
      </trkpt>
      <trkpt lat="58.867911" lon="17.431897">
        <ele>29.8</ele>
        <time>2017-09-03T10:22:19Z</time>
      </trkpt>
      <trkpt lat="58.86784" lon="17.431729">
        <ele>30.2</ele>
        <time>2017-09-03T10:22:20Z</time>
      </trkpt>
      <trkpt lat="58.867769" lon="17.431559">
        <ele>30.2</ele>
        <time>2017-09-03T10:22:21Z</time>
      </trkpt>
      <trkpt lat="58.867697" lon="17.43139">
        <ele>30.8</ele>
        <time>2017-09-03T10:22:22Z</time>
      </trkpt>
      <trkpt lat="58.867622" lon="17.431225">
        <ele>31</ele>
        <time>2017-09-03T10:22:23Z</time>
      </trkpt>
      <trkpt lat="58.867548" lon="17.431066">
        <ele>31.2</ele>
        <time>2017-09-03T10:22:24Z</time>
      </trkpt>
      <trkpt lat="58.867477" lon="17.430909">
        <ele>31.4</ele>
        <time>2017-09-03T10:22:25Z</time>
      </trkpt>
      <trkpt lat="58.867406" lon="17.430752">
        <ele>31.4</ele>
        <time>2017-09-03T10:22:26Z</time>
      </trkpt>
      <trkpt lat="58.867337" lon="17.430596">
        <ele>31.6</ele>
        <time>2017-09-03T10:22:27Z</time>
      </trkpt>
      <trkpt lat="58.867267" lon="17.430438">
        <ele>31.6</ele>
        <time>2017-09-03T10:22:28Z</time>
      </trkpt>
      <trkpt lat="58.867198" lon="17.430278">
        <ele>31.8</ele>
        <time>2017-09-03T10:22:29Z</time>
      </trkpt>
      <trkpt lat="58.867128" lon="17.430116">
        <ele>32</ele>
        <time>2017-09-03T10:22:30Z</time>
      </trkpt>
      <trkpt lat="58.867056" lon="17.429955">
        <ele>32</ele>
        <time>2017-09-03T10:22:31Z</time>
      </trkpt>
      <trkpt lat="58.866984" lon="17.429794">
        <ele>32.2</ele>
        <time>2017-09-03T10:22:32Z</time>
      </trkpt>
      <trkpt lat="58.866912" lon="17.429631">
        <ele>32.2</ele>
        <time>2017-09-03T10:22:33Z</time>
      </trkpt>
      <trkpt lat="58.86684" lon="17.429465">
        <ele>32.2</ele>
        <time>2017-09-03T10:22:34Z</time>
      </trkpt>
      <trkpt lat="58.866767" lon="17.4293">
        <ele>32.2</ele>
        <time>2017-09-03T10:22:35Z</time>
      </trkpt>
      <trkpt lat="58.866692" lon="17.429134">
        <ele>32.2</ele>
        <time>2017-09-03T10:22:36Z</time>
      </trkpt>
      <trkpt lat="58.866617" lon="17.428967">
        <ele>32.2</ele>
        <time>2017-09-03T10:22:37Z</time>
      </trkpt>
      <trkpt lat="58.866542" lon="17.428801">
        <ele>32.2</ele>
        <time>2017-09-03T10:22:38Z</time>
      </trkpt>
      <trkpt lat="58.866469" lon="17.428633">
        <ele>32.2</ele>
        <time>2017-09-03T10:22:39Z</time>
      </trkpt>
      <trkpt lat="58.866395" lon="17.428467">
        <ele>32.2</ele>
        <time>2017-09-03T10:22:40Z</time>
      </trkpt>
      <trkpt lat="58.866321" lon="17.428304">
        <ele>32</ele>
        <time>2017-09-03T10:22:41Z</time>
      </trkpt>
      <trkpt lat="58.866248" lon="17.42814">
        <ele>31.6</ele>
        <time>2017-09-03T10:22:42Z</time>
      </trkpt>
      <trkpt lat="58.866175" lon="17.427975">
        <ele>31.4</ele>
        <time>2017-09-03T10:22:43Z</time>
      </trkpt>
      <trkpt lat="58.866103" lon="17.427811">
        <ele>31.4</ele>
        <time>2017-09-03T10:22:44Z</time>
      </trkpt>
      <trkpt lat="58.866031" lon="17.427646">
        <ele>31.2</ele>
        <time>2017-09-03T10:22:45Z</time>
      </trkpt>
      <trkpt lat="58.865958" lon="17.427482">
        <ele>31.2</ele>
        <time>2017-09-03T10:22:46Z</time>
      </trkpt>
      <trkpt lat="58.865884" lon="17.427316">
        <ele>31</ele>
        <time>2017-09-03T10:22:47Z</time>
      </trkpt>
      <trkpt lat="58.865808" lon="17.42715">
        <ele>30.8</ele>
        <time>2017-09-03T10:22:48Z</time>
      </trkpt>
      <trkpt lat="58.865733" lon="17.426982">
        <ele>30.8</ele>
        <time>2017-09-03T10:22:49Z</time>
      </trkpt>
      <trkpt lat="58.865658" lon="17.426813">
        <ele>30.8</ele>
        <time>2017-09-03T10:22:50Z</time>
      </trkpt>
      <trkpt lat="58.865583" lon="17.426643">
        <ele>30.4</ele>
        <time>2017-09-03T10:22:51Z</time>
      </trkpt>
      <trkpt lat="58.865507" lon="17.426476">
        <ele>30.2</ele>
        <time>2017-09-03T10:22:52Z</time>
      </trkpt>
      <trkpt lat="58.865429" lon="17.426312">
        <ele>30</ele>
        <time>2017-09-03T10:22:53Z</time>
      </trkpt>
      <trkpt lat="58.865352" lon="17.426151">
        <ele>29.6</ele>
        <time>2017-09-03T10:22:54Z</time>
      </trkpt>
      <trkpt lat="58.865275" lon="17.425994">
        <ele>29.6</ele>
        <time>2017-09-03T10:22:55Z</time>
      </trkpt>
      <trkpt lat="58.8652" lon="17.425841">
        <ele>29.4</ele>
        <time>2017-09-03T10:22:56Z</time>
      </trkpt>
      <trkpt lat="58.865125" lon="17.425692">
        <ele>29.2</ele>
        <time>2017-09-03T10:22:57Z</time>
      </trkpt>
      <trkpt lat="58.865049" lon="17.425544">
        <ele>29</ele>
        <time>2017-09-03T10:22:58Z</time>
      </trkpt>
      <trkpt lat="58.864974" lon="17.4254">
        <ele>28.8</ele>
        <time>2017-09-03T10:22:59Z</time>
      </trkpt>
      <trkpt lat="58.864899" lon="17.425262">
        <ele>28.4</ele>
        <time>2017-09-03T10:23:00Z</time>
      </trkpt>
      <trkpt lat="58.864826" lon="17.425127">
        <ele>28.4</ele>
        <time>2017-09-03T10:23:01Z</time>
      </trkpt>
      <trkpt lat="58.864753" lon="17.424995">
        <ele>28.4</ele>
        <time>2017-09-03T10:23:02Z</time>
      </trkpt>
      <trkpt lat="58.864679" lon="17.424868">
        <ele>28.2</ele>
        <time>2017-09-03T10:23:03Z</time>
      </trkpt>
      <trkpt lat="58.864605" lon="17.424743">
        <ele>28.2</ele>
        <time>2017-09-03T10:23:04Z</time>
      </trkpt>
      <trkpt lat="58.86453" lon="17.424615">
        <ele>28.2</ele>
        <time>2017-09-03T10:23:05Z</time>
      </trkpt>
      <trkpt lat="58.864455" lon="17.42449">
        <ele>28.2</ele>
        <time>2017-09-03T10:23:06Z</time>
      </trkpt>
      <trkpt lat="58.864377" lon="17.424366">
        <ele>28.2</ele>
        <time>2017-09-03T10:23:07Z</time>
      </trkpt>
      <trkpt lat="58.8643" lon="17.424243">
        <ele>28.2</ele>
        <time>2017-09-03T10:23:08Z</time>
      </trkpt>
      <trkpt lat="58.864222" lon="17.424122">
        <ele>28.2</ele>
        <time>2017-09-03T10:23:09Z</time>
      </trkpt>
      <trkpt lat="58.864143" lon="17.424004">
        <ele>28.6</ele>
        <time>2017-09-03T10:23:10Z</time>
      </trkpt>
      <trkpt lat="58.864065" lon="17.423888">
        <ele>29</ele>
        <time>2017-09-03T10:23:11Z</time>
      </trkpt>
      <trkpt lat="58.863988" lon="17.423772">
        <ele>29.6</ele>
        <time>2017-09-03T10:23:12Z</time>
      </trkpt>
      <trkpt lat="58.863912" lon="17.423654">
        <ele>29.8</ele>
        <time>2017-09-03T10:23:13Z</time>
      </trkpt>
      <trkpt lat="58.863837" lon="17.423538">
        <ele>29.8</ele>
        <time>2017-09-03T10:23:14Z</time>
      </trkpt>
      <trkpt lat="58.863762" lon="17.423422">
        <ele>30</ele>
        <time>2017-09-03T10:23:15Z</time>
      </trkpt>
      <trkpt lat="58.863689" lon="17.423306">
        <ele>30</ele>
        <time>2017-09-03T10:23:16Z</time>
      </trkpt>
      <trkpt lat="58.863614" lon="17.423191">
        <ele>30.2</ele>
        <time>2017-09-03T10:23:17Z</time>
      </trkpt>
      <trkpt lat="58.863539" lon="17.423077">
        <ele>30.2</ele>
        <time>2017-09-03T10:23:18Z</time>
      </trkpt>
      <trkpt lat="58.863467" lon="17.422964">
        <ele>30.2</ele>
        <time>2017-09-03T10:23:19Z</time>
      </trkpt>
      <trkpt lat="58.863396" lon="17.422855">
        <ele>30.4</ele>
        <time>2017-09-03T10:23:20Z</time>
      </trkpt>
      <trkpt lat="58.863323" lon="17.422744">
        <ele>30.4</ele>
        <time>2017-09-03T10:23:21Z</time>
      </trkpt>
      <trkpt lat="58.86325" lon="17.42263">
        <ele>30.4</ele>
        <time>2017-09-03T10:23:22Z</time>
      </trkpt>
      <trkpt lat="58.863177" lon="17.422514">
        <ele>30.4</ele>
        <time>2017-09-03T10:23:23Z</time>
      </trkpt>
      <trkpt lat="58.863102" lon="17.422397">
        <ele>30.4</ele>
        <time>2017-09-03T10:23:24Z</time>
      </trkpt>
      <trkpt lat="58.863029" lon="17.422277">
        <ele>30.4</ele>
        <time>2017-09-03T10:23:25Z</time>
      </trkpt>
      <trkpt lat="58.862956" lon="17.422157">
        <ele>30.2</ele>
        <time>2017-09-03T10:23:26Z</time>
      </trkpt>
      <trkpt lat="58.862884" lon="17.422038">
        <ele>30.2</ele>
        <time>2017-09-03T10:23:27Z</time>
      </trkpt>
      <trkpt lat="58.862814" lon="17.421915">
        <ele>30.4</ele>
        <time>2017-09-03T10:23:28Z</time>
      </trkpt>
      <trkpt lat="58.862745" lon="17.421792">
        <ele>30.4</ele>
        <time>2017-09-03T10:23:29Z</time>
      </trkpt>
      <trkpt lat="58.862677" lon="17.42167">
        <ele>30.4</ele>
        <time>2017-09-03T10:23:30Z</time>
      </trkpt>
      <trkpt lat="58.862608" lon="17.421546">
        <ele>30.4</ele>
        <time>2017-09-03T10:23:31Z</time>
      </trkpt>
      <trkpt lat="58.862538" lon="17.421418">
        <ele>30.4</ele>
        <time>2017-09-03T10:23:32Z</time>
      </trkpt>
      <trkpt lat="58.862469" lon="17.421286">
        <ele>30.4</ele>
        <time>2017-09-03T10:23:33Z</time>
      </trkpt>
      <trkpt lat="58.862402" lon="17.421151">
        <ele>30.6</ele>
        <time>2017-09-03T10:23:34Z</time>
      </trkpt>
      <trkpt lat="58.862333" lon="17.421015">
        <ele>30.6</ele>
        <time>2017-09-03T10:23:35Z</time>
      </trkpt>
      <trkpt lat="58.862266" lon="17.420879">
        <ele>30.6</ele>
        <time>2017-09-03T10:23:36Z</time>
      </trkpt>
      <trkpt lat="58.8622" lon="17.420745">
        <ele>30.6</ele>
        <time>2017-09-03T10:23:37Z</time>
      </trkpt>
      <trkpt lat="58.862134" lon="17.42061">
        <ele>30.4</ele>
        <time>2017-09-03T10:23:38Z</time>
      </trkpt>
      <trkpt lat="58.862068" lon="17.420475">
        <ele>30.4</ele>
        <time>2017-09-03T10:23:39Z</time>
      </trkpt>
      <trkpt lat="58.862003" lon="17.420342">
        <ele>30.2</ele>
        <time>2017-09-03T10:23:40Z</time>
      </trkpt>
      <trkpt lat="58.861938" lon="17.420209">
        <ele>30.2</ele>
        <time>2017-09-03T10:23:41Z</time>
      </trkpt>
      <trkpt lat="58.861873" lon="17.420078">
        <ele>30.2</ele>
        <time>2017-09-03T10:23:42Z</time>
      </trkpt>
      <trkpt lat="58.861809" lon="17.419948">
        <ele>30.2</ele>
        <time>2017-09-03T10:23:43Z</time>
      </trkpt>
      <trkpt lat="58.861744" lon="17.419819">
        <ele>30.2</ele>
        <time>2017-09-03T10:23:44Z</time>
      </trkpt>
      <trkpt lat="58.86168" lon="17.419689">
        <ele>30.2</ele>
        <time>2017-09-03T10:23:45Z</time>
      </trkpt>
      <trkpt lat="58.861617" lon="17.419557">
        <ele>30.2</ele>
        <time>2017-09-03T10:23:46Z</time>
      </trkpt>
      <trkpt lat="58.861551" lon="17.419426">
        <ele>30.2</ele>
        <time>2017-09-03T10:23:47Z</time>
      </trkpt>
      <trkpt lat="58.861488" lon="17.419295">
        <ele>30.2</ele>
        <time>2017-09-03T10:23:48Z</time>
      </trkpt>
      <trkpt lat="58.861422" lon="17.419166">
        <ele>30</ele>
        <time>2017-09-03T10:23:49Z</time>
      </trkpt>
      <trkpt lat="58.861357" lon="17.419041">
        <ele>30</ele>
        <time>2017-09-03T10:23:50Z</time>
      </trkpt>
      <trkpt lat="58.86129" lon="17.418921">
        <ele>30</ele>
        <time>2017-09-03T10:23:51Z</time>
      </trkpt>
      <trkpt lat="58.861224" lon="17.418802">
        <ele>29.8</ele>
        <time>2017-09-03T10:23:52Z</time>
      </trkpt>
      <trkpt lat="58.861157" lon="17.418687">
        <ele>29.8</ele>
        <time>2017-09-03T10:23:53Z</time>
      </trkpt>
      <trkpt lat="58.861088" lon="17.418574">
        <ele>29.6</ele>
        <time>2017-09-03T10:23:54Z</time>
      </trkpt>
      <trkpt lat="58.861018" lon="17.418466">
        <ele>29.6</ele>
        <time>2017-09-03T10:23:55Z</time>
      </trkpt>
      <trkpt lat="58.860946" lon="17.418362">
        <ele>29.6</ele>
        <time>2017-09-03T10:23:56Z</time>
      </trkpt>
      <trkpt lat="58.860873" lon="17.41826">
        <ele>29.4</ele>
        <time>2017-09-03T10:23:57Z</time>
      </trkpt>
      <trkpt lat="58.8608" lon="17.418158">
        <ele>29.4</ele>
        <time>2017-09-03T10:23:58Z</time>
      </trkpt>
      <trkpt lat="58.860726" lon="17.41806">
        <ele>29.4</ele>
        <time>2017-09-03T10:23:59Z</time>
      </trkpt>
      <trkpt lat="58.860651" lon="17.417964">
        <ele>29.2</ele>
        <time>2017-09-03T10:24:00Z</time>
      </trkpt>
      <trkpt lat="58.860578" lon="17.417872">
        <ele>29.2</ele>
        <time>2017-09-03T10:24:01Z</time>
      </trkpt>
      <trkpt lat="58.860504" lon="17.417785">
        <ele>29.2</ele>
        <time>2017-09-03T10:24:02Z</time>
      </trkpt>
      <trkpt lat="58.860432" lon="17.417701">
        <ele>29.2</ele>
        <time>2017-09-03T10:24:03Z</time>
      </trkpt>
      <trkpt lat="58.860363" lon="17.417623">
        <ele>29.2</ele>
        <time>2017-09-03T10:24:04Z</time>
      </trkpt>
      <trkpt lat="58.860294" lon="17.417549">
        <ele>29.2</ele>
        <time>2017-09-03T10:24:05Z</time>
      </trkpt>
      <trkpt lat="58.860225" lon="17.417479">
        <ele>29.2</ele>
        <time>2017-09-03T10:24:06Z</time>
      </trkpt>
      <trkpt lat="58.860156" lon="17.417409">
        <ele>29.2</ele>
        <time>2017-09-03T10:24:07Z</time>
      </trkpt>
      <trkpt lat="58.860086" lon="17.41734">
        <ele>29.2</ele>
        <time>2017-09-03T10:24:08Z</time>
      </trkpt>
      <trkpt lat="58.860016" lon="17.417272">
        <ele>29.2</ele>
        <time>2017-09-03T10:24:09Z</time>
      </trkpt>
      <trkpt lat="58.859948" lon="17.417205">
        <ele>29.2</ele>
        <time>2017-09-03T10:24:10Z</time>
      </trkpt>
      <trkpt lat="58.859882" lon="17.41714">
        <ele>29.4</ele>
        <time>2017-09-03T10:24:11Z</time>
      </trkpt>
      <trkpt lat="58.859817" lon="17.417075">
        <ele>29.8</ele>
        <time>2017-09-03T10:24:12Z</time>
      </trkpt>
      <trkpt lat="58.85975" lon="17.41701">
        <ele>30.2</ele>
        <time>2017-09-03T10:24:13Z</time>
      </trkpt>
      <trkpt lat="58.859683" lon="17.416945">
        <ele>30.6</ele>
        <time>2017-09-03T10:24:14Z</time>
      </trkpt>
      <trkpt lat="58.859618" lon="17.416882">
        <ele>31</ele>
        <time>2017-09-03T10:24:15Z</time>
      </trkpt>
      <trkpt lat="58.859553" lon="17.416823">
        <ele>31.2</ele>
        <time>2017-09-03T10:24:16Z</time>
      </trkpt>
      <trkpt lat="58.859487" lon="17.416766">
        <ele>31.6</ele>
        <time>2017-09-03T10:24:17Z</time>
      </trkpt>
      <trkpt lat="58.859423" lon="17.416709">
        <ele>32</ele>
        <time>2017-09-03T10:24:18Z</time>
      </trkpt>
      <trkpt lat="58.85936" lon="17.416648">
        <ele>32.4</ele>
        <time>2017-09-03T10:24:19Z</time>
      </trkpt>
      <trkpt lat="58.859296" lon="17.416586">
        <ele>32.6</ele>
        <time>2017-09-03T10:24:20Z</time>
      </trkpt>
      <trkpt lat="58.85923" lon="17.416523">
        <ele>33.2</ele>
        <time>2017-09-03T10:24:21Z</time>
      </trkpt>
      <trkpt lat="58.859166" lon="17.416458">
        <ele>33.6</ele>
        <time>2017-09-03T10:24:22Z</time>
      </trkpt>
      <trkpt lat="58.859104" lon="17.416391">
        <ele>34</ele>
        <time>2017-09-03T10:24:23Z</time>
      </trkpt>
      <trkpt lat="58.859039" lon="17.416326">
        <ele>34.2</ele>
        <time>2017-09-03T10:24:24Z</time>
      </trkpt>
      <trkpt lat="58.858973" lon="17.41626">
        <ele>34.6</ele>
        <time>2017-09-03T10:24:25Z</time>
      </trkpt>
      <trkpt lat="58.858904" lon="17.416189">
        <ele>35</ele>
        <time>2017-09-03T10:24:26Z</time>
      </trkpt>
      <trkpt lat="58.858836" lon="17.416117">
        <ele>35.6</ele>
        <time>2017-09-03T10:24:27Z</time>
      </trkpt>
      <trkpt lat="58.858769" lon="17.416042">
        <ele>36.2</ele>
        <time>2017-09-03T10:24:28Z</time>
      </trkpt>
      <trkpt lat="58.858703" lon="17.415969">
        <ele>36.6</ele>
        <time>2017-09-03T10:24:29Z</time>
      </trkpt>
      <trkpt lat="58.858637" lon="17.415895">
        <ele>37</ele>
        <time>2017-09-03T10:24:30Z</time>
      </trkpt>
      <trkpt lat="58.858571" lon="17.415819">
        <ele>37.2</ele>
        <time>2017-09-03T10:24:31Z</time>
      </trkpt>
      <trkpt lat="58.858505" lon="17.41574">
        <ele>37.6</ele>
        <time>2017-09-03T10:24:32Z</time>
      </trkpt>
      <trkpt lat="58.85844" lon="17.415659">
        <ele>38</ele>
        <time>2017-09-03T10:24:33Z</time>
      </trkpt>
      <trkpt lat="58.858377" lon="17.415578">
        <ele>38.2</ele>
        <time>2017-09-03T10:24:34Z</time>
      </trkpt>
      <trkpt lat="58.858315" lon="17.415494">
        <ele>38.8</ele>
        <time>2017-09-03T10:24:35Z</time>
      </trkpt>
      <trkpt lat="58.858253" lon="17.41541">
        <ele>39.2</ele>
        <time>2017-09-03T10:24:36Z</time>
      </trkpt>
      <trkpt lat="58.85819" lon="17.415324">
        <ele>39.4</ele>
        <time>2017-09-03T10:24:37Z</time>
      </trkpt>
      <trkpt lat="58.858129" lon="17.415235">
        <ele>39.6</ele>
        <time>2017-09-03T10:24:38Z</time>
      </trkpt>
      <trkpt lat="58.858069" lon="17.415147">
        <ele>39.8</ele>
        <time>2017-09-03T10:24:39Z</time>
      </trkpt>
      <trkpt lat="58.85801" lon="17.41506">
        <ele>40</ele>
        <time>2017-09-03T10:24:40Z</time>
      </trkpt>
      <trkpt lat="58.857951" lon="17.414971">
        <ele>40</ele>
        <time>2017-09-03T10:24:41Z</time>
      </trkpt>
      <trkpt lat="58.857893" lon="17.414879">
        <ele>40.2</ele>
        <time>2017-09-03T10:24:42Z</time>
      </trkpt>
      <trkpt lat="58.857833" lon="17.414785">
        <ele>40.2</ele>
        <time>2017-09-03T10:24:43Z</time>
      </trkpt>
      <trkpt lat="58.857773" lon="17.414687">
        <ele>40.2</ele>
        <time>2017-09-03T10:24:44Z</time>
      </trkpt>
      <trkpt lat="58.857714" lon="17.414588">
        <ele>40.4</ele>
        <time>2017-09-03T10:24:45Z</time>
      </trkpt>
      <trkpt lat="58.857655" lon="17.414489">
        <ele>40.4</ele>
        <time>2017-09-03T10:24:46Z</time>
      </trkpt>
      <trkpt lat="58.857596" lon="17.414388">
        <ele>40.4</ele>
        <time>2017-09-03T10:24:47Z</time>
      </trkpt>
      <trkpt lat="58.857537" lon="17.414287">
        <ele>40.4</ele>
        <time>2017-09-03T10:24:48Z</time>
      </trkpt>
      <trkpt lat="58.857479" lon="17.414186">
        <ele>40.4</ele>
        <time>2017-09-03T10:24:49Z</time>
      </trkpt>
      <trkpt lat="58.857421" lon="17.414087">
        <ele>40.6</ele>
        <time>2017-09-03T10:24:50Z</time>
      </trkpt>
      <trkpt lat="58.857362" lon="17.413987">
        <ele>40.6</ele>
        <time>2017-09-03T10:24:51Z</time>
      </trkpt>
      <trkpt lat="58.857304" lon="17.413886">
        <ele>40.8</ele>
        <time>2017-09-03T10:24:52Z</time>
      </trkpt>
      <trkpt lat="58.857246" lon="17.413786">
        <ele>40.8</ele>
        <time>2017-09-03T10:24:53Z</time>
      </trkpt>
      <trkpt lat="58.857187" lon="17.413688">
        <ele>40.8</ele>
        <time>2017-09-03T10:24:54Z</time>
      </trkpt>
      <trkpt lat="58.857129" lon="17.41359">
        <ele>41.2</ele>
        <time>2017-09-03T10:24:55Z</time>
      </trkpt>
      <trkpt lat="58.85707" lon="17.41349">
        <ele>41.4</ele>
        <time>2017-09-03T10:24:56Z</time>
      </trkpt>
      <trkpt lat="58.857011" lon="17.413389">
        <ele>41.6</ele>
        <time>2017-09-03T10:24:57Z</time>
      </trkpt>
      <trkpt lat="58.856952" lon="17.41329">
        <ele>41.8</ele>
        <time>2017-09-03T10:24:58Z</time>
      </trkpt>
      <trkpt lat="58.856893" lon="17.413192">
        <ele>42</ele>
        <time>2017-09-03T10:24:59Z</time>
      </trkpt>
      <trkpt lat="58.856833" lon="17.413094">
        <ele>42</ele>
        <time>2017-09-03T10:25:00Z</time>
      </trkpt>
      <trkpt lat="58.856772" lon="17.412995">
        <ele>42.2</ele>
        <time>2017-09-03T10:25:01Z</time>
      </trkpt>
      <trkpt lat="58.85671" lon="17.412897">
        <ele>42.4</ele>
        <time>2017-09-03T10:25:02Z</time>
      </trkpt>
      <trkpt lat="58.856647" lon="17.412801">
        <ele>42.6</ele>
        <time>2017-09-03T10:25:03Z</time>
      </trkpt>
      <trkpt lat="58.856585" lon="17.412707">
        <ele>42.6</ele>
        <time>2017-09-03T10:25:04Z</time>
      </trkpt>
      <trkpt lat="58.856523" lon="17.412616">
        <ele>43</ele>
        <time>2017-09-03T10:25:05Z</time>
      </trkpt>
      <trkpt lat="58.856461" lon="17.412525">
        <ele>43.4</ele>
        <time>2017-09-03T10:25:06Z</time>
      </trkpt>
      <trkpt lat="58.856398" lon="17.412434">
        <ele>43.6</ele>
        <time>2017-09-03T10:25:07Z</time>
      </trkpt>
      <trkpt lat="58.856334" lon="17.412345">
        <ele>43.8</ele>
        <time>2017-09-03T10:25:08Z</time>
      </trkpt>
      <trkpt lat="58.85627" lon="17.412258">
        <ele>44.4</ele>
        <time>2017-09-03T10:25:09Z</time>
      </trkpt>
      <trkpt lat="58.856205" lon="17.412172">
        <ele>44.6</ele>
        <time>2017-09-03T10:25:10Z</time>
      </trkpt>
      <trkpt lat="58.856138" lon="17.412086">
        <ele>45</ele>
        <time>2017-09-03T10:25:11Z</time>
      </trkpt>
      <trkpt lat="58.856073" lon="17.412">
        <ele>45.2</ele>
        <time>2017-09-03T10:25:12Z</time>
      </trkpt>
      <trkpt lat="58.856008" lon="17.411915">
        <ele>45.4</ele>
        <time>2017-09-03T10:25:13Z</time>
      </trkpt>
      <trkpt lat="58.855941" lon="17.411833">
        <ele>45.6</ele>
        <time>2017-09-03T10:25:14Z</time>
      </trkpt>
      <trkpt lat="58.855873" lon="17.411753">
        <ele>45.6</ele>
        <time>2017-09-03T10:25:15Z</time>
      </trkpt>
      <trkpt lat="58.855804" lon="17.411673">
        <ele>45.8</ele>
        <time>2017-09-03T10:25:16Z</time>
      </trkpt>
      <trkpt lat="58.855735" lon="17.411594">
        <ele>46</ele>
        <time>2017-09-03T10:25:17Z</time>
      </trkpt>
      <trkpt lat="58.855666" lon="17.411514">
        <ele>46.2</ele>
        <time>2017-09-03T10:25:18Z</time>
      </trkpt>
      <trkpt lat="58.855599" lon="17.411435">
        <ele>46.4</ele>
        <time>2017-09-03T10:25:19Z</time>
      </trkpt>
      <trkpt lat="58.855531" lon="17.411357">
        <ele>46.6</ele>
        <time>2017-09-03T10:25:20Z</time>
      </trkpt>
      <trkpt lat="58.855461" lon="17.41128">
        <ele>46.8</ele>
        <time>2017-09-03T10:25:21Z</time>
      </trkpt>
      <trkpt lat="58.85539" lon="17.411201">
        <ele>47</ele>
        <time>2017-09-03T10:25:22Z</time>
      </trkpt>
      <trkpt lat="58.855319" lon="17.41112">
        <ele>47.2</ele>
        <time>2017-09-03T10:25:23Z</time>
      </trkpt>
      <trkpt lat="58.855246" lon="17.411036">
        <ele>47.6</ele>
        <time>2017-09-03T10:25:24Z</time>
      </trkpt>
      <trkpt lat="58.855172" lon="17.410952">
        <ele>47.8</ele>
        <time>2017-09-03T10:25:25Z</time>
      </trkpt>
      <trkpt lat="58.855096" lon="17.410867">
        <ele>48.2</ele>
        <time>2017-09-03T10:25:26Z</time>
      </trkpt>
      <trkpt lat="58.855021" lon="17.410781">
        <ele>48.4</ele>
        <time>2017-09-03T10:25:27Z</time>
      </trkpt>
      <trkpt lat="58.854944" lon="17.410698">
        <ele>48.6</ele>
        <time>2017-09-03T10:25:28Z</time>
      </trkpt>
      <trkpt lat="58.854866" lon="17.410611">
        <ele>48.8</ele>
        <time>2017-09-03T10:25:29Z</time>
      </trkpt>
      <trkpt lat="58.854787" lon="17.410521">
        <ele>48.8</ele>
        <time>2017-09-03T10:25:30Z</time>
      </trkpt>
      <trkpt lat="58.854707" lon="17.410433">
        <ele>49</ele>
        <time>2017-09-03T10:25:31Z</time>
      </trkpt>
      <trkpt lat="58.854626" lon="17.410345">
        <ele>49</ele>
        <time>2017-09-03T10:25:32Z</time>
      </trkpt>
      <trkpt lat="58.854545" lon="17.410252">
        <ele>49.2</ele>
        <time>2017-09-03T10:25:33Z</time>
      </trkpt>
      <trkpt lat="58.854462" lon="17.410159">
        <ele>49.2</ele>
        <time>2017-09-03T10:25:34Z</time>
      </trkpt>
      <trkpt lat="58.854378" lon="17.410063">
        <ele>49.2</ele>
        <time>2017-09-03T10:25:35Z</time>
      </trkpt>
      <trkpt lat="58.854294" lon="17.409963">
        <ele>49.2</ele>
        <time>2017-09-03T10:25:36Z</time>
      </trkpt>
      <trkpt lat="58.854211" lon="17.409864">
        <ele>49.2</ele>
        <time>2017-09-03T10:25:37Z</time>
      </trkpt>
      <trkpt lat="58.854128" lon="17.409762">
        <ele>49.2</ele>
        <time>2017-09-03T10:25:38Z</time>
      </trkpt>
      <trkpt lat="58.854046" lon="17.409655">
        <ele>49.2</ele>
        <time>2017-09-03T10:25:39Z</time>
      </trkpt>
      <trkpt lat="58.853967" lon="17.409546">
        <ele>49.2</ele>
        <time>2017-09-03T10:25:40Z</time>
      </trkpt>
      <trkpt lat="58.853885" lon="17.409429">
        <ele>49</ele>
        <time>2017-09-03T10:25:41Z</time>
      </trkpt>
      <trkpt lat="58.853803" lon="17.409306">
        <ele>49</ele>
        <time>2017-09-03T10:25:42Z</time>
      </trkpt>
      <trkpt lat="58.85372" lon="17.409179">
        <ele>48.8</ele>
        <time>2017-09-03T10:25:43Z</time>
      </trkpt>
      <trkpt lat="58.853636" lon="17.409042">
        <ele>48.6</ele>
        <time>2017-09-03T10:25:44Z</time>
      </trkpt>
      <trkpt lat="58.853553" lon="17.408897">
        <ele>48.6</ele>
        <time>2017-09-03T10:25:45Z</time>
      </trkpt>
      <trkpt lat="58.853472" lon="17.408747">
        <ele>48.4</ele>
        <time>2017-09-03T10:25:46Z</time>
      </trkpt>
      <trkpt lat="58.853395" lon="17.408593">
        <ele>48.2</ele>
        <time>2017-09-03T10:25:47Z</time>
      </trkpt>
      <trkpt lat="58.853319" lon="17.408439">
        <ele>48</ele>
        <time>2017-09-03T10:25:48Z</time>
      </trkpt>
      <trkpt lat="58.853244" lon="17.408284">
        <ele>47.8</ele>
        <time>2017-09-03T10:25:49Z</time>
      </trkpt>
      <trkpt lat="58.853172" lon="17.408127">
        <ele>47.4</ele>
        <time>2017-09-03T10:25:50Z</time>
      </trkpt>
      <trkpt lat="58.853102" lon="17.407968">
        <ele>47</ele>
        <time>2017-09-03T10:25:51Z</time>
      </trkpt>
      <trkpt lat="58.853035" lon="17.407806">
        <ele>46.8</ele>
        <time>2017-09-03T10:25:52Z</time>
      </trkpt>
      <trkpt lat="58.852969" lon="17.407637">
        <ele>46.6</ele>
        <time>2017-09-03T10:25:53Z</time>
      </trkpt>
      <trkpt lat="58.852905" lon="17.407465">
        <ele>46.2</ele>
        <time>2017-09-03T10:25:54Z</time>
      </trkpt>
      <trkpt lat="58.852843" lon="17.407292">
        <ele>46</ele>
        <time>2017-09-03T10:25:55Z</time>
      </trkpt>
      <trkpt lat="58.852783" lon="17.407113">
        <ele>45.4</ele>
        <time>2017-09-03T10:25:56Z</time>
      </trkpt>
      <trkpt lat="58.852723" lon="17.406928">
        <ele>45</ele>
        <time>2017-09-03T10:25:57Z</time>
      </trkpt>
      <trkpt lat="58.852665" lon="17.406736">
        <ele>44.8</ele>
        <time>2017-09-03T10:25:58Z</time>
      </trkpt>
      <trkpt lat="58.85261" lon="17.406536">
        <ele>44.8</ele>
        <time>2017-09-03T10:25:59Z</time>
      </trkpt>
      <trkpt lat="58.85256" lon="17.406341">
        <ele>44.6</ele>
        <time>2017-09-03T10:26:00Z</time>
      </trkpt>
      <trkpt lat="58.852514" lon="17.406146">
        <ele>44.6</ele>
        <time>2017-09-03T10:26:01Z</time>
      </trkpt>
      <trkpt lat="58.852471" lon="17.405954">
        <ele>44.4</ele>
        <time>2017-09-03T10:26:02Z</time>
      </trkpt>
      <trkpt lat="58.85243" lon="17.405768">
        <ele>44.4</ele>
        <time>2017-09-03T10:26:03Z</time>
      </trkpt>
      <trkpt lat="58.852395" lon="17.405585">
        <ele>44.4</ele>
        <time>2017-09-03T10:26:04Z</time>
      </trkpt>
      <trkpt lat="58.852363" lon="17.405407">
        <ele>44.4</ele>
        <time>2017-09-03T10:26:05Z</time>
      </trkpt>
      <trkpt lat="58.852333" lon="17.405237">
        <ele>44.4</ele>
        <time>2017-09-03T10:26:06Z</time>
      </trkpt>
      <trkpt lat="58.852305" lon="17.405071">
        <ele>44.2</ele>
        <time>2017-09-03T10:26:07Z</time>
      </trkpt>
      <trkpt lat="58.852281" lon="17.404913">
        <ele>44.2</ele>
        <time>2017-09-03T10:26:08Z</time>
      </trkpt>
      <trkpt lat="58.852259" lon="17.404754">
        <ele>44.2</ele>
        <time>2017-09-03T10:26:09Z</time>
      </trkpt>
      <trkpt lat="58.85224" lon="17.404595">
        <ele>44.2</ele>
        <time>2017-09-03T10:26:10Z</time>
      </trkpt>
      <trkpt lat="58.852222" lon="17.404434">
        <ele>44.2</ele>
        <time>2017-09-03T10:26:11Z</time>
      </trkpt>
      <trkpt lat="58.852204" lon="17.404276">
        <ele>44.4</ele>
        <time>2017-09-03T10:26:12Z</time>
      </trkpt>
      <trkpt lat="58.852186" lon="17.404119">
        <ele>44.4</ele>
        <time>2017-09-03T10:26:13Z</time>
      </trkpt>
      <trkpt lat="58.852169" lon="17.403961">
        <ele>44.8</ele>
        <time>2017-09-03T10:26:14Z</time>
      </trkpt>
      <trkpt lat="58.852152" lon="17.403807">
        <ele>45.4</ele>
        <time>2017-09-03T10:26:15Z</time>
      </trkpt>
      <trkpt lat="58.852135" lon="17.403657">
        <ele>46</ele>
        <time>2017-09-03T10:26:16Z</time>
      </trkpt>
      <trkpt lat="58.852117" lon="17.403508">
        <ele>46.6</ele>
        <time>2017-09-03T10:26:17Z</time>
      </trkpt>
      <trkpt lat="58.852101" lon="17.403357">
        <ele>47</ele>
        <time>2017-09-03T10:26:18Z</time>
      </trkpt>
      <trkpt lat="58.852085" lon="17.403207">
        <ele>47.4</ele>
        <time>2017-09-03T10:26:19Z</time>
      </trkpt>
      <trkpt lat="58.852069" lon="17.403058">
        <ele>47.8</ele>
        <time>2017-09-03T10:26:20Z</time>
      </trkpt>
      <trkpt lat="58.852053" lon="17.402914">
        <ele>48</ele>
        <time>2017-09-03T10:26:21Z</time>
      </trkpt>
      <trkpt lat="58.852036" lon="17.402771">
        <ele>48.4</ele>
        <time>2017-09-03T10:26:22Z</time>
      </trkpt>
      <trkpt lat="58.852018" lon="17.402627">
        <ele>48.6</ele>
        <time>2017-09-03T10:26:23Z</time>
      </trkpt>
      <trkpt lat="58.851998" lon="17.402479">
        <ele>49</ele>
        <time>2017-09-03T10:26:24Z</time>
      </trkpt>
      <trkpt lat="58.851979" lon="17.402332">
        <ele>49.2</ele>
        <time>2017-09-03T10:26:25Z</time>
      </trkpt>
      <trkpt lat="58.851956" lon="17.402179">
        <ele>49.4</ele>
        <time>2017-09-03T10:26:26Z</time>
      </trkpt>
      <trkpt lat="58.85193" lon="17.402022">
        <ele>49.4</ele>
        <time>2017-09-03T10:26:27Z</time>
      </trkpt>
      <trkpt lat="58.851902" lon="17.401861">
        <ele>49.6</ele>
        <time>2017-09-03T10:26:28Z</time>
      </trkpt>
      <trkpt lat="58.851872" lon="17.401699">
        <ele>49.6</ele>
        <time>2017-09-03T10:26:29Z</time>
      </trkpt>
      <trkpt lat="58.851838" lon="17.401535">
        <ele>49.6</ele>
        <time>2017-09-03T10:26:30Z</time>
      </trkpt>
      <trkpt lat="58.851802" lon="17.40137">
        <ele>49.6</ele>
        <time>2017-09-03T10:26:31Z</time>
      </trkpt>
      <trkpt lat="58.851764" lon="17.401204">
        <ele>49.6</ele>
        <time>2017-09-03T10:26:32Z</time>
      </trkpt>
      <trkpt lat="58.851725" lon="17.401037">
        <ele>49.6</ele>
        <time>2017-09-03T10:26:33Z</time>
      </trkpt>
      <trkpt lat="58.851684" lon="17.400866">
        <ele>49.6</ele>
        <time>2017-09-03T10:26:34Z</time>
      </trkpt>
      <trkpt lat="58.851642" lon="17.400699">
        <ele>49.6</ele>
        <time>2017-09-03T10:26:35Z</time>
      </trkpt>
      <trkpt lat="58.851597" lon="17.400535">
        <ele>49.6</ele>
        <time>2017-09-03T10:26:36Z</time>
      </trkpt>
      <trkpt lat="58.851548" lon="17.400372">
        <ele>49.6</ele>
        <time>2017-09-03T10:26:37Z</time>
      </trkpt>
      <trkpt lat="58.851497" lon="17.400212">
        <ele>49.6</ele>
        <time>2017-09-03T10:26:38Z</time>
      </trkpt>
      <trkpt lat="58.851441" lon="17.400049">
        <ele>49.4</ele>
        <time>2017-09-03T10:26:39Z</time>
      </trkpt>
      <trkpt lat="58.851384" lon="17.399886">
        <ele>49.4</ele>
        <time>2017-09-03T10:26:40Z</time>
      </trkpt>
      <trkpt lat="58.851325" lon="17.399721">
        <ele>49</ele>
        <time>2017-09-03T10:26:41Z</time>
      </trkpt>
      <trkpt lat="58.851265" lon="17.399559">
        <ele>48.4</ele>
        <time>2017-09-03T10:26:42Z</time>
      </trkpt>
      <trkpt lat="58.851202" lon="17.399399">
        <ele>48.2</ele>
        <time>2017-09-03T10:26:43Z</time>
      </trkpt>
      <trkpt lat="58.851137" lon="17.399242">
        <ele>48</ele>
        <time>2017-09-03T10:26:44Z</time>
      </trkpt>
      <trkpt lat="58.851069" lon="17.399089">
        <ele>47.8</ele>
        <time>2017-09-03T10:26:45Z</time>
      </trkpt>
      <trkpt lat="58.851" lon="17.398938">
        <ele>47.8</ele>
        <time>2017-09-03T10:26:46Z</time>
      </trkpt>
      <trkpt lat="58.850932" lon="17.398789">
        <ele>47.6</ele>
        <time>2017-09-03T10:26:47Z</time>
      </trkpt>
      <trkpt lat="58.850864" lon="17.398642">
        <ele>47.4</ele>
        <time>2017-09-03T10:26:48Z</time>
      </trkpt>
      <trkpt lat="58.850796" lon="17.398496">
        <ele>47.2</ele>
        <time>2017-09-03T10:26:49Z</time>
      </trkpt>
      <trkpt lat="58.85073" lon="17.39835">
        <ele>47</ele>
        <time>2017-09-03T10:26:50Z</time>
      </trkpt>
      <trkpt lat="58.850664" lon="17.398207">
        <ele>46.6</ele>
        <time>2017-09-03T10:26:51Z</time>
      </trkpt>
      <trkpt lat="58.850599" lon="17.398065">
        <ele>46.4</ele>
        <time>2017-09-03T10:26:52Z</time>
      </trkpt>
      <trkpt lat="58.850533" lon="17.39792">
        <ele>46.2</ele>
        <time>2017-09-03T10:26:53Z</time>
      </trkpt>
      <trkpt lat="58.850466" lon="17.397771">
        <ele>46.2</ele>
        <time>2017-09-03T10:26:54Z</time>
      </trkpt>
      <trkpt lat="58.8504" lon="17.397617">
        <ele>46</ele>
        <time>2017-09-03T10:26:55Z</time>
      </trkpt>
      <trkpt lat="58.850333" lon="17.397455">
        <ele>45.8</ele>
        <time>2017-09-03T10:26:56Z</time>
      </trkpt>
      <trkpt lat="58.850266" lon="17.397287">
        <ele>45.6</ele>
        <time>2017-09-03T10:26:57Z</time>
      </trkpt>
      <trkpt lat="58.850201" lon="17.397113">
        <ele>45.4</ele>
        <time>2017-09-03T10:26:58Z</time>
      </trkpt>
      <trkpt lat="58.850136" lon="17.396934">
        <ele>45.4</ele>
        <time>2017-09-03T10:26:59Z</time>
      </trkpt>
      <trkpt lat="58.850073" lon="17.396748">
        <ele>45.2</ele>
        <time>2017-09-03T10:27:00Z</time>
      </trkpt>
      <trkpt lat="58.85001" lon="17.396554">
        <ele>45</ele>
        <time>2017-09-03T10:27:01Z</time>
      </trkpt>
      <trkpt lat="58.84995" lon="17.396359">
        <ele>44.8</ele>
        <time>2017-09-03T10:27:02Z</time>
      </trkpt>
      <trkpt lat="58.849892" lon="17.396162">
        <ele>44.6</ele>
        <time>2017-09-03T10:27:03Z</time>
      </trkpt>
      <trkpt lat="58.849837" lon="17.395962">
        <ele>44.2</ele>
        <time>2017-09-03T10:27:04Z</time>
      </trkpt>
      <trkpt lat="58.849784" lon="17.39576">
        <ele>44</ele>
        <time>2017-09-03T10:27:05Z</time>
      </trkpt>
      <trkpt lat="58.849737" lon="17.395555">
        <ele>43.6</ele>
        <time>2017-09-03T10:27:06Z</time>
      </trkpt>
      <trkpt lat="58.849693" lon="17.395349">
        <ele>43</ele>
        <time>2017-09-03T10:27:07Z</time>
      </trkpt>
      <trkpt lat="58.849652" lon="17.395144">
        <ele>42.8</ele>
        <time>2017-09-03T10:27:08Z</time>
      </trkpt>
      <trkpt lat="58.849616" lon="17.39494">
        <ele>42.4</ele>
        <time>2017-09-03T10:27:09Z</time>
      </trkpt>
      <trkpt lat="58.849583" lon="17.394737">
        <ele>42</ele>
        <time>2017-09-03T10:27:10Z</time>
      </trkpt>
      <trkpt lat="58.84955" lon="17.394533">
        <ele>41.4</ele>
        <time>2017-09-03T10:27:11Z</time>
      </trkpt>
      <trkpt lat="58.849521" lon="17.394328">
        <ele>41</ele>
        <time>2017-09-03T10:27:12Z</time>
      </trkpt>
      <trkpt lat="58.849495" lon="17.394124">
        <ele>40.6</ele>
        <time>2017-09-03T10:27:13Z</time>
      </trkpt>
      <trkpt lat="58.849472" lon="17.393923">
        <ele>40.4</ele>
        <time>2017-09-03T10:27:14Z</time>
      </trkpt>
      <trkpt lat="58.849454" lon="17.393731">
        <ele>40</ele>
        <time>2017-09-03T10:27:15Z</time>
      </trkpt>
      <trkpt lat="58.849437" lon="17.393542">
        <ele>39.8</ele>
        <time>2017-09-03T10:27:16Z</time>
      </trkpt>
      <trkpt lat="58.84942" lon="17.393356">
        <ele>39.8</ele>
        <time>2017-09-03T10:27:17Z</time>
      </trkpt>
      <trkpt lat="58.849406" lon="17.393174">
        <ele>39.6</ele>
        <time>2017-09-03T10:27:18Z</time>
      </trkpt>
      <trkpt lat="58.849395" lon="17.392991">
        <ele>39.6</ele>
        <time>2017-09-03T10:27:19Z</time>
      </trkpt>
      <trkpt lat="58.849384" lon="17.392806">
        <ele>39.6</ele>
        <time>2017-09-03T10:27:20Z</time>
      </trkpt>
      <trkpt lat="58.84937" lon="17.392618">
        <ele>39.6</ele>
        <time>2017-09-03T10:27:21Z</time>
      </trkpt>
      <trkpt lat="58.849357" lon="17.392428">
        <ele>39.6</ele>
        <time>2017-09-03T10:27:22Z</time>
      </trkpt>
      <trkpt lat="58.849342" lon="17.392235">
        <ele>39.6</ele>
        <time>2017-09-03T10:27:23Z</time>
      </trkpt>
      <trkpt lat="58.849329" lon="17.392039">
        <ele>39.8</ele>
        <time>2017-09-03T10:27:24Z</time>
      </trkpt>
      <trkpt lat="58.849317" lon="17.391847">
        <ele>39.8</ele>
        <time>2017-09-03T10:27:25Z</time>
      </trkpt>
      <trkpt lat="58.849305" lon="17.391651">
        <ele>39.8</ele>
        <time>2017-09-03T10:27:26Z</time>
      </trkpt>
      <trkpt lat="58.849292" lon="17.391456">
        <ele>40</ele>
        <time>2017-09-03T10:27:27Z</time>
      </trkpt>
      <trkpt lat="58.849278" lon="17.391261">
        <ele>40</ele>
        <time>2017-09-03T10:27:28Z</time>
      </trkpt>
      <trkpt lat="58.849265" lon="17.391065">
        <ele>40</ele>
        <time>2017-09-03T10:27:29Z</time>
      </trkpt>
      <trkpt lat="58.849253" lon="17.390869">
        <ele>40</ele>
        <time>2017-09-03T10:27:30Z</time>
      </trkpt>
      <trkpt lat="58.849241" lon="17.390671">
        <ele>40</ele>
        <time>2017-09-03T10:27:31Z</time>
      </trkpt>
      <trkpt lat="58.849229" lon="17.390473">
        <ele>40</ele>
        <time>2017-09-03T10:27:32Z</time>
      </trkpt>
      <trkpt lat="58.849216" lon="17.390274">
        <ele>40</ele>
        <time>2017-09-03T10:27:33Z</time>
      </trkpt>
      <trkpt lat="58.849204" lon="17.390071">
        <ele>40</ele>
        <time>2017-09-03T10:27:34Z</time>
      </trkpt>
      <trkpt lat="58.849192" lon="17.389864">
        <ele>39.8</ele>
        <time>2017-09-03T10:27:35Z</time>
      </trkpt>
      <trkpt lat="58.849178" lon="17.389651">
        <ele>39.8</ele>
        <time>2017-09-03T10:27:36Z</time>
      </trkpt>
      <trkpt lat="58.849164" lon="17.389437">
        <ele>39.4</ele>
        <time>2017-09-03T10:27:37Z</time>
      </trkpt>
      <trkpt lat="58.849149" lon="17.389225">
        <ele>39.2</ele>
        <time>2017-09-03T10:27:38Z</time>
      </trkpt>
      <trkpt lat="58.849133" lon="17.389014">
        <ele>38.8</ele>
        <time>2017-09-03T10:27:39Z</time>
      </trkpt>
      <trkpt lat="58.849115" lon="17.388803">
        <ele>38.8</ele>
        <time>2017-09-03T10:27:40Z</time>
      </trkpt>
      <trkpt lat="58.849095" lon="17.388592">
        <ele>38.4</ele>
        <time>2017-09-03T10:27:41Z</time>
      </trkpt>
      <trkpt lat="58.849071" lon="17.388379">
        <ele>38.4</ele>
        <time>2017-09-03T10:27:42Z</time>
      </trkpt>
      <trkpt lat="58.849044" lon="17.388168">
        <ele>38.2</ele>
        <time>2017-09-03T10:27:43Z</time>
      </trkpt>
      <trkpt lat="58.849014" lon="17.387961">
        <ele>38.2</ele>
        <time>2017-09-03T10:27:44Z</time>
      </trkpt>
      <trkpt lat="58.848981" lon="17.387757">
        <ele>38</ele>
        <time>2017-09-03T10:27:45Z</time>
      </trkpt>
      <trkpt lat="58.848946" lon="17.387555">
        <ele>38</ele>
        <time>2017-09-03T10:27:46Z</time>
      </trkpt>
      <trkpt lat="58.848908" lon="17.387355">
        <ele>37.8</ele>
        <time>2017-09-03T10:27:47Z</time>
      </trkpt>
      <trkpt lat="58.848869" lon="17.387158">
        <ele>37.8</ele>
        <time>2017-09-03T10:27:48Z</time>
      </trkpt>
      <trkpt lat="58.848827" lon="17.386963">
        <ele>37.6</ele>
        <time>2017-09-03T10:27:49Z</time>
      </trkpt>
      <trkpt lat="58.848784" lon="17.38677">
        <ele>37.6</ele>
        <time>2017-09-03T10:27:50Z</time>
      </trkpt>
      <trkpt lat="58.848738" lon="17.386581">
        <ele>37.6</ele>
        <time>2017-09-03T10:27:51Z</time>
      </trkpt>
      <trkpt lat="58.848691" lon="17.386395">
        <ele>37.6</ele>
        <time>2017-09-03T10:27:52Z</time>
      </trkpt>
      <trkpt lat="58.848643" lon="17.38621">
        <ele>37.4</ele>
        <time>2017-09-03T10:27:53Z</time>
      </trkpt>
      <trkpt lat="58.848591" lon="17.386025">
        <ele>37.4</ele>
        <time>2017-09-03T10:27:54Z</time>
      </trkpt>
      <trkpt lat="58.848536" lon="17.385837">
        <ele>37.2</ele>
        <time>2017-09-03T10:27:55Z</time>
      </trkpt>
      <trkpt lat="58.848477" lon="17.38565">
        <ele>37.2</ele>
        <time>2017-09-03T10:27:56Z</time>
      </trkpt>
      <trkpt lat="58.848415" lon="17.38547">
        <ele>36.8</ele>
        <time>2017-09-03T10:27:57Z</time>
      </trkpt>
      <trkpt lat="58.848352" lon="17.385296">
        <ele>36.6</ele>
        <time>2017-09-03T10:27:58Z</time>
      </trkpt>
      <trkpt lat="58.848288" lon="17.385127">
        <ele>36.4</ele>
        <time>2017-09-03T10:27:59Z</time>
      </trkpt>
      <trkpt lat="58.848221" lon="17.384961">
        <ele>36.4</ele>
        <time>2017-09-03T10:28:00Z</time>
      </trkpt>
      <trkpt lat="58.848151" lon="17.384797">
        <ele>36.4</ele>
        <time>2017-09-03T10:28:01Z</time>
      </trkpt>
      <trkpt lat="58.848075" lon="17.384631">
        <ele>36.4</ele>
        <time>2017-09-03T10:28:02Z</time>
      </trkpt>
      <trkpt lat="58.847995" lon="17.384461">
        <ele>36.4</ele>
        <time>2017-09-03T10:28:03Z</time>
      </trkpt>
      <trkpt lat="58.84791" lon="17.384288">
        <ele>36.2</ele>
        <time>2017-09-03T10:28:04Z</time>
      </trkpt>
      <trkpt lat="58.847822" lon="17.384115">
        <ele>36.2</ele>
        <time>2017-09-03T10:28:05Z</time>
      </trkpt>
      <trkpt lat="58.847732" lon="17.383945">
        <ele>36</ele>
        <time>2017-09-03T10:28:06Z</time>
      </trkpt>
      <trkpt lat="58.84764" lon="17.383779">
        <ele>36</ele>
        <time>2017-09-03T10:28:07Z</time>
      </trkpt>
      <trkpt lat="58.847545" lon="17.383616">
        <ele>35.8</ele>
        <time>2017-09-03T10:28:08Z</time>
      </trkpt>
      <trkpt lat="58.84745" lon="17.383457">
        <ele>35.8</ele>
        <time>2017-09-03T10:28:09Z</time>
      </trkpt>
      <trkpt lat="58.847352" lon="17.383304">
        <ele>35.6</ele>
        <time>2017-09-03T10:28:10Z</time>
      </trkpt>
      <trkpt lat="58.847252" lon="17.383161">
        <ele>35.2</ele>
        <time>2017-09-03T10:28:11Z</time>
      </trkpt>
      <trkpt lat="58.84715" lon="17.383025">
        <ele>35</ele>
        <time>2017-09-03T10:28:12Z</time>
      </trkpt>
      <trkpt lat="58.847044" lon="17.3829">
        <ele>34.8</ele>
        <time>2017-09-03T10:28:13Z</time>
      </trkpt>
      <trkpt lat="58.846938" lon="17.38278">
        <ele>34.8</ele>
        <time>2017-09-03T10:28:14Z</time>
      </trkpt>
      <trkpt lat="58.846833" lon="17.382665">
        <ele>34.8</ele>
        <time>2017-09-03T10:28:15Z</time>
      </trkpt>
      <trkpt lat="58.846727" lon="17.382553">
        <ele>34.6</ele>
        <time>2017-09-03T10:28:16Z</time>
      </trkpt>
      <trkpt lat="58.846622" lon="17.382447">
        <ele>34.6</ele>
        <time>2017-09-03T10:28:17Z</time>
      </trkpt>
      <trkpt lat="58.846514" lon="17.38235">
        <ele>34.2</ele>
        <time>2017-09-03T10:28:18Z</time>
      </trkpt>
      <trkpt lat="58.846404" lon="17.382261">
        <ele>33.8</ele>
        <time>2017-09-03T10:28:19Z</time>
      </trkpt>
      <trkpt lat="58.846293" lon="17.382182">
        <ele>33.6</ele>
        <time>2017-09-03T10:28:20Z</time>
      </trkpt>
      <trkpt lat="58.84618" lon="17.382107">
        <ele>33.2</ele>
        <time>2017-09-03T10:28:21Z</time>
      </trkpt>
      <trkpt lat="58.846067" lon="17.382036">
        <ele>32.2</ele>
        <time>2017-09-03T10:28:22Z</time>
      </trkpt>
      <trkpt lat="58.845955" lon="17.38197">
        <ele>31.6</ele>
        <time>2017-09-03T10:28:23Z</time>
      </trkpt>
      <trkpt lat="58.845844" lon="17.381909">
        <ele>31</ele>
        <time>2017-09-03T10:28:24Z</time>
      </trkpt>
      <trkpt lat="58.845737" lon="17.381858">
        <ele>30.6</ele>
        <time>2017-09-03T10:28:25Z</time>
      </trkpt>
      <trkpt lat="58.845635" lon="17.381812">
        <ele>30.4</ele>
        <time>2017-09-03T10:28:26Z</time>
      </trkpt>
      <trkpt lat="58.845537" lon="17.381774">
        <ele>30.2</ele>
        <time>2017-09-03T10:28:27Z</time>
      </trkpt>
      <trkpt lat="58.845443" lon="17.381739">
        <ele>30.2</ele>
        <time>2017-09-03T10:28:28Z</time>
      </trkpt>
      <trkpt lat="58.845352" lon="17.381702">
        <ele>30.2</ele>
        <time>2017-09-03T10:28:29Z</time>
      </trkpt>
      <trkpt lat="58.845264" lon="17.381665">
        <ele>30</ele>
        <time>2017-09-03T10:28:30Z</time>
      </trkpt>
      <trkpt lat="58.845179" lon="17.38163">
        <ele>30</ele>
        <time>2017-09-03T10:28:31Z</time>
      </trkpt>
      <trkpt lat="58.845099" lon="17.381596">
        <ele>30</ele>
        <time>2017-09-03T10:28:32Z</time>
      </trkpt>
      <trkpt lat="58.845021" lon="17.381564">
        <ele>30</ele>
        <time>2017-09-03T10:28:33Z</time>
      </trkpt>
      <trkpt lat="58.844945" lon="17.381532">
        <ele>30.4</ele>
        <time>2017-09-03T10:28:34Z</time>
      </trkpt>
      <trkpt lat="58.84487" lon="17.381499">
        <ele>31</ele>
        <time>2017-09-03T10:28:35Z</time>
      </trkpt>
      <trkpt lat="58.844792" lon="17.381468">
        <ele>31.8</ele>
        <time>2017-09-03T10:28:36Z</time>
      </trkpt>
      <trkpt lat="58.844712" lon="17.381438">
        <ele>32.4</ele>
        <time>2017-09-03T10:28:37Z</time>
      </trkpt>
      <trkpt lat="58.844628" lon="17.381407">
        <ele>33</ele>
        <time>2017-09-03T10:28:38Z</time>
      </trkpt>
      <trkpt lat="58.844543" lon="17.381375">
        <ele>33.6</ele>
        <time>2017-09-03T10:28:39Z</time>
      </trkpt>
      <trkpt lat="58.844456" lon="17.381342">
        <ele>34.2</ele>
        <time>2017-09-03T10:28:40Z</time>
      </trkpt>
      <trkpt lat="58.844368" lon="17.38131">
        <ele>34.8</ele>
        <time>2017-09-03T10:28:41Z</time>
      </trkpt>
      <trkpt lat="58.844281" lon="17.381277">
        <ele>35.2</ele>
        <time>2017-09-03T10:28:42Z</time>
      </trkpt>
      <trkpt lat="58.844195" lon="17.381245">
        <ele>35.8</ele>
        <time>2017-09-03T10:28:43Z</time>
      </trkpt>
      <trkpt lat="58.844107" lon="17.381213">
        <ele>36</ele>
        <time>2017-09-03T10:28:44Z</time>
      </trkpt>
      <trkpt lat="58.844018" lon="17.38118">
        <ele>36.4</ele>
        <time>2017-09-03T10:28:45Z</time>
      </trkpt>
      <trkpt lat="58.843928" lon="17.381146">
        <ele>36.6</ele>
        <time>2017-09-03T10:28:46Z</time>
      </trkpt>
      <trkpt lat="58.843837" lon="17.38111">
        <ele>37</ele>
        <time>2017-09-03T10:28:47Z</time>
      </trkpt>
      <trkpt lat="58.843745" lon="17.381074">
        <ele>37.2</ele>
        <time>2017-09-03T10:28:48Z</time>
      </trkpt>
      <trkpt lat="58.843654" lon="17.381038">
        <ele>37.8</ele>
        <time>2017-09-03T10:28:49Z</time>
      </trkpt>
      <trkpt lat="58.843562" lon="17.381005">
        <ele>38</ele>
        <time>2017-09-03T10:28:50Z</time>
      </trkpt>
      <trkpt lat="58.84347" lon="17.380972">
        <ele>38.2</ele>
        <time>2017-09-03T10:28:51Z</time>
      </trkpt>
      <trkpt lat="58.843376" lon="17.380937">
        <ele>38.2</ele>
        <time>2017-09-03T10:28:52Z</time>
      </trkpt>
      <trkpt lat="58.84328" lon="17.380899">
        <ele>38.4</ele>
        <time>2017-09-03T10:28:53Z</time>
      </trkpt>
      <trkpt lat="58.843183" lon="17.380862">
        <ele>38.4</ele>
        <time>2017-09-03T10:28:54Z</time>
      </trkpt>
      <trkpt lat="58.843082" lon="17.380825">
        <ele>38.4</ele>
        <time>2017-09-03T10:28:55Z</time>
      </trkpt>
      <trkpt lat="58.842978" lon="17.380786">
        <ele>38.4</ele>
        <time>2017-09-03T10:28:56Z</time>
      </trkpt>
      <trkpt lat="58.842872" lon="17.380743">
        <ele>38.4</ele>
        <time>2017-09-03T10:28:57Z</time>
      </trkpt>
      <trkpt lat="58.842762" lon="17.3807">
        <ele>38.4</ele>
        <time>2017-09-03T10:28:58Z</time>
      </trkpt>
      <trkpt lat="58.84265" lon="17.380656">
        <ele>38.4</ele>
        <time>2017-09-03T10:28:59Z</time>
      </trkpt>
      <trkpt lat="58.842538" lon="17.380612">
        <ele>38.2</ele>
        <time>2017-09-03T10:29:00Z</time>
      </trkpt>
      <trkpt lat="58.842427" lon="17.380566">
        <ele>38</ele>
        <time>2017-09-03T10:29:01Z</time>
      </trkpt>
      <trkpt lat="58.842316" lon="17.380519">
        <ele>37.8</ele>
        <time>2017-09-03T10:29:02Z</time>
      </trkpt>
      <trkpt lat="58.842206" lon="17.380476">
        <ele>37.8</ele>
        <time>2017-09-03T10:29:03Z</time>
      </trkpt>
      <trkpt lat="58.842096" lon="17.380431">
        <ele>37.6</ele>
        <time>2017-09-03T10:29:04Z</time>
      </trkpt>
      <trkpt lat="58.841987" lon="17.380386">
        <ele>37.4</ele>
        <time>2017-09-03T10:29:05Z</time>
      </trkpt>
      <trkpt lat="58.841878" lon="17.380343">
        <ele>36.8</ele>
        <time>2017-09-03T10:29:06Z</time>
      </trkpt>
      <trkpt lat="58.841771" lon="17.3803">
        <ele>36.4</ele>
        <time>2017-09-03T10:29:07Z</time>
      </trkpt>
      <trkpt lat="58.841667" lon="17.380256">
        <ele>36.2</ele>
        <time>2017-09-03T10:29:08Z</time>
      </trkpt>
      <trkpt lat="58.841561" lon="17.380209">
        <ele>36</ele>
        <time>2017-09-03T10:29:09Z</time>
      </trkpt>
      <trkpt lat="58.841456" lon="17.380155">
        <ele>36</ele>
        <time>2017-09-03T10:29:10Z</time>
      </trkpt>
      <trkpt lat="58.841351" lon="17.380098">
        <ele>36</ele>
        <time>2017-09-03T10:29:11Z</time>
      </trkpt>
      <trkpt lat="58.841249" lon="17.38004">
        <ele>35.8</ele>
        <time>2017-09-03T10:29:12Z</time>
      </trkpt>
      <trkpt lat="58.841151" lon="17.379978">
        <ele>35.8</ele>
        <time>2017-09-03T10:29:13Z</time>
      </trkpt>
      <trkpt lat="58.841057" lon="17.379911">
        <ele>35.8</ele>
        <time>2017-09-03T10:29:14Z</time>
      </trkpt>
      <trkpt lat="58.840964" lon="17.379846">
        <ele>35.8</ele>
        <time>2017-09-03T10:29:15Z</time>
      </trkpt>
      <trkpt lat="58.840875" lon="17.379779">
        <ele>35.8</ele>
        <time>2017-09-03T10:29:16Z</time>
      </trkpt>
      <trkpt lat="58.840788" lon="17.379702">
        <ele>35.8</ele>
        <time>2017-09-03T10:29:17Z</time>
      </trkpt>
      <trkpt lat="58.840701" lon="17.379617">
        <ele>35.8</ele>
        <time>2017-09-03T10:29:18Z</time>
      </trkpt>
      <trkpt lat="58.840614" lon="17.379529">
        <ele>35.8</ele>
        <time>2017-09-03T10:29:19Z</time>
      </trkpt>
      <trkpt lat="58.840527" lon="17.379437">
        <ele>36</ele>
        <time>2017-09-03T10:29:20Z</time>
      </trkpt>
      <trkpt lat="58.840441" lon="17.379347">
        <ele>36</ele>
        <time>2017-09-03T10:29:21Z</time>
      </trkpt>
      <trkpt lat="58.840355" lon="17.379258">
        <ele>36.4</ele>
        <time>2017-09-03T10:29:22Z</time>
      </trkpt>
      <trkpt lat="58.840269" lon="17.379169">
        <ele>36.6</ele>
        <time>2017-09-03T10:29:23Z</time>
      </trkpt>
      <trkpt lat="58.840183" lon="17.37908">
        <ele>36.8</ele>
        <time>2017-09-03T10:29:24Z</time>
      </trkpt>
      <trkpt lat="58.840097" lon="17.378988">
        <ele>36.8</ele>
        <time>2017-09-03T10:29:25Z</time>
      </trkpt>
      <trkpt lat="58.840008" lon="17.378896">
        <ele>36.8</ele>
        <time>2017-09-03T10:29:26Z</time>
      </trkpt>
      <trkpt lat="58.839918" lon="17.378804">
        <ele>37</ele>
        <time>2017-09-03T10:29:27Z</time>
      </trkpt>
      <trkpt lat="58.839828" lon="17.378714">
        <ele>37</ele>
        <time>2017-09-03T10:29:28Z</time>
      </trkpt>
      <trkpt lat="58.839739" lon="17.378623">
        <ele>37</ele>
        <time>2017-09-03T10:29:29Z</time>
      </trkpt>
      <trkpt lat="58.839651" lon="17.378532">
        <ele>37</ele>
        <time>2017-09-03T10:29:30Z</time>
      </trkpt>
      <trkpt lat="58.839563" lon="17.378439">
        <ele>37</ele>
        <time>2017-09-03T10:29:31Z</time>
      </trkpt>
      <trkpt lat="58.839475" lon="17.378346">
        <ele>36.8</ele>
        <time>2017-09-03T10:29:32Z</time>
      </trkpt>
      <trkpt lat="58.839387" lon="17.378253">
        <ele>36.6</ele>
        <time>2017-09-03T10:29:33Z</time>
      </trkpt>
      <trkpt lat="58.839299" lon="17.378159">
        <ele>36.6</ele>
        <time>2017-09-03T10:29:34Z</time>
      </trkpt>
      <trkpt lat="58.839207" lon="17.378063">
        <ele>36.4</ele>
        <time>2017-09-03T10:29:35Z</time>
      </trkpt>
      <trkpt lat="58.839113" lon="17.377967">
        <ele>36.4</ele>
        <time>2017-09-03T10:29:36Z</time>
      </trkpt>
      <trkpt lat="58.83902" lon="17.377873">
        <ele>36.2</ele>
        <time>2017-09-03T10:29:37Z</time>
      </trkpt>
      <trkpt lat="58.83893" lon="17.377779">
        <ele>36.2</ele>
        <time>2017-09-03T10:29:38Z</time>
      </trkpt>
      <trkpt lat="58.83884" lon="17.37768">
        <ele>36.2</ele>
        <time>2017-09-03T10:29:39Z</time>
      </trkpt>
      <trkpt lat="58.838752" lon="17.377582">
        <ele>36.2</ele>
        <time>2017-09-03T10:29:40Z</time>
      </trkpt>
      <trkpt lat="58.838664" lon="17.377483">
        <ele>36</ele>
        <time>2017-09-03T10:29:41Z</time>
      </trkpt>
      <trkpt lat="58.838577" lon="17.377378">
        <ele>36</ele>
        <time>2017-09-03T10:29:42Z</time>
      </trkpt>
      <trkpt lat="58.838492" lon="17.377266">
        <ele>36</ele>
        <time>2017-09-03T10:29:43Z</time>
      </trkpt>
      <trkpt lat="58.838407" lon="17.377147">
        <ele>36</ele>
        <time>2017-09-03T10:29:44Z</time>
      </trkpt>
      <trkpt lat="58.838322" lon="17.377022">
        <ele>36</ele>
        <time>2017-09-03T10:29:45Z</time>
      </trkpt>
      <trkpt lat="58.838236" lon="17.376889">
        <ele>36</ele>
        <time>2017-09-03T10:29:46Z</time>
      </trkpt>
      <trkpt lat="58.838152" lon="17.376758">
        <ele>36</ele>
        <time>2017-09-03T10:29:47Z</time>
      </trkpt>
      <trkpt lat="58.838072" lon="17.376628">
        <ele>36</ele>
        <time>2017-09-03T10:29:48Z</time>
      </trkpt>
      <trkpt lat="58.837994" lon="17.3765">
        <ele>36</ele>
        <time>2017-09-03T10:29:49Z</time>
      </trkpt>
      <trkpt lat="58.837918" lon="17.376374">
        <ele>36</ele>
        <time>2017-09-03T10:29:50Z</time>
      </trkpt>
      <trkpt lat="58.837846" lon="17.37625">
        <ele>36</ele>
        <time>2017-09-03T10:29:51Z</time>
      </trkpt>
      <trkpt lat="58.837775" lon="17.376128">
        <ele>36</ele>
        <time>2017-09-03T10:29:52Z</time>
      </trkpt>
      <trkpt lat="58.837705" lon="17.376008">
        <ele>36</ele>
        <time>2017-09-03T10:29:53Z</time>
      </trkpt>
      <trkpt lat="58.837634" lon="17.375887">
        <ele>36.2</ele>
        <time>2017-09-03T10:29:54Z</time>
      </trkpt>
      <trkpt lat="58.837564" lon="17.375768">
        <ele>36.2</ele>
        <time>2017-09-03T10:29:55Z</time>
      </trkpt>
      <trkpt lat="58.837495" lon="17.375648">
        <ele>36.2</ele>
        <time>2017-09-03T10:29:56Z</time>
      </trkpt>
      <trkpt lat="58.837426" lon="17.37553">
        <ele>36.4</ele>
        <time>2017-09-03T10:29:57Z</time>
      </trkpt>
      <trkpt lat="58.837359" lon="17.375412">
        <ele>36.4</ele>
        <time>2017-09-03T10:29:58Z</time>
      </trkpt>
      <trkpt lat="58.837293" lon="17.375296">
        <ele>36.4</ele>
        <time>2017-09-03T10:29:59Z</time>
      </trkpt>
      <trkpt lat="58.837227" lon="17.375183">
        <ele>36.8</ele>
        <time>2017-09-03T10:30:00Z</time>
      </trkpt>
      <trkpt lat="58.837165" lon="17.375074">
        <ele>36.8</ele>
        <time>2017-09-03T10:30:01Z</time>
      </trkpt>
      <trkpt lat="58.837101" lon="17.374971">
        <ele>37</ele>
        <time>2017-09-03T10:30:02Z</time>
      </trkpt>
      <trkpt lat="58.837038" lon="17.374867">
        <ele>37</ele>
        <time>2017-09-03T10:30:03Z</time>
      </trkpt>
      <trkpt lat="58.836974" lon="17.374761">
        <ele>37.2</ele>
        <time>2017-09-03T10:30:04Z</time>
      </trkpt>
      <trkpt lat="58.836914" lon="17.374657">
        <ele>37.2</ele>
        <time>2017-09-03T10:30:05Z</time>
      </trkpt>
      <trkpt lat="58.836853" lon="17.374555">
        <ele>37.4</ele>
        <time>2017-09-03T10:30:06Z</time>
      </trkpt>
      <trkpt lat="58.836793" lon="17.374454">
        <ele>37.8</ele>
        <time>2017-09-03T10:30:07Z</time>
      </trkpt>
      <trkpt lat="58.836732" lon="17.374347">
        <ele>38</ele>
        <time>2017-09-03T10:30:08Z</time>
      </trkpt>
      <trkpt lat="58.836667" lon="17.374236">
        <ele>38.2</ele>
        <time>2017-09-03T10:30:09Z</time>
      </trkpt>
      <trkpt lat="58.836597" lon="17.374122">
        <ele>38.6</ele>
        <time>2017-09-03T10:30:10Z</time>
      </trkpt>
      <trkpt lat="58.836525" lon="17.374003">
        <ele>38.8</ele>
        <time>2017-09-03T10:30:11Z</time>
      </trkpt>
      <trkpt lat="58.836454" lon="17.37388">
        <ele>39</ele>
        <time>2017-09-03T10:30:12Z</time>
      </trkpt>
      <trkpt lat="58.836381" lon="17.373758">
        <ele>39.2</ele>
        <time>2017-09-03T10:30:13Z</time>
      </trkpt>
      <trkpt lat="58.836308" lon="17.373637">
        <ele>39.4</ele>
        <time>2017-09-03T10:30:14Z</time>
      </trkpt>
      <trkpt lat="58.836234" lon="17.373516">
        <ele>39.6</ele>
        <time>2017-09-03T10:30:15Z</time>
      </trkpt>
      <trkpt lat="58.836158" lon="17.373392">
        <ele>39.6</ele>
        <time>2017-09-03T10:30:16Z</time>
      </trkpt>
      <trkpt lat="58.83608" lon="17.373265">
        <ele>39.8</ele>
        <time>2017-09-03T10:30:17Z</time>
      </trkpt>
      <trkpt lat="58.835999" lon="17.373131">
        <ele>39.8</ele>
        <time>2017-09-03T10:30:18Z</time>
      </trkpt>
      <trkpt lat="58.835917" lon="17.372993">
        <ele>39.8</ele>
        <time>2017-09-03T10:30:19Z</time>
      </trkpt>
      <trkpt lat="58.835833" lon="17.37285">
        <ele>39.8</ele>
        <time>2017-09-03T10:30:20Z</time>
      </trkpt>
      <trkpt lat="58.835748" lon="17.372702">
        <ele>39.8</ele>
        <time>2017-09-03T10:30:21Z</time>
      </trkpt>
      <trkpt lat="58.835664" lon="17.372553">
        <ele>39.8</ele>
        <time>2017-09-03T10:30:22Z</time>
      </trkpt>
      <trkpt lat="58.83558" lon="17.372405">
        <ele>39.8</ele>
        <time>2017-09-03T10:30:23Z</time>
      </trkpt>
      <trkpt lat="58.835496" lon="17.372253">
        <ele>39.4</ele>
        <time>2017-09-03T10:30:24Z</time>
      </trkpt>
      <trkpt lat="58.835411" lon="17.372104">
        <ele>38.8</ele>
        <time>2017-09-03T10:30:25Z</time>
      </trkpt>
      <trkpt lat="58.835326" lon="17.371953">
        <ele>38.2</ele>
        <time>2017-09-03T10:30:26Z</time>
      </trkpt>
      <trkpt lat="58.835242" lon="17.371804">
        <ele>37.8</ele>
        <time>2017-09-03T10:30:27Z</time>
      </trkpt>
      <trkpt lat="58.835161" lon="17.371659">
        <ele>37.6</ele>
        <time>2017-09-03T10:30:28Z</time>
      </trkpt>
      <trkpt lat="58.835081" lon="17.371517">
        <ele>37.4</ele>
        <time>2017-09-03T10:30:29Z</time>
      </trkpt>
      <trkpt lat="58.835002" lon="17.371379">
        <ele>37.4</ele>
        <time>2017-09-03T10:30:30Z</time>
      </trkpt>
      <trkpt lat="58.834926" lon="17.371242">
        <ele>37.2</ele>
        <time>2017-09-03T10:30:31Z</time>
      </trkpt>
      <trkpt lat="58.83485" lon="17.371107">
        <ele>37.2</ele>
        <time>2017-09-03T10:30:32Z</time>
      </trkpt>
      <trkpt lat="58.834776" lon="17.370972">
        <ele>37.2</ele>
        <time>2017-09-03T10:30:33Z</time>
      </trkpt>
      <trkpt lat="58.834702" lon="17.370838">
        <ele>37.2</ele>
        <time>2017-09-03T10:30:34Z</time>
      </trkpt>
      <trkpt lat="58.834628" lon="17.37071">
        <ele>37.2</ele>
        <time>2017-09-03T10:30:35Z</time>
      </trkpt>
      <trkpt lat="58.834554" lon="17.370585">
        <ele>37.2</ele>
        <time>2017-09-03T10:30:36Z</time>
      </trkpt>
      <trkpt lat="58.834481" lon="17.370459">
        <ele>37.2</ele>
        <time>2017-09-03T10:30:37Z</time>
      </trkpt>
      <trkpt lat="58.834406" lon="17.370333">
        <ele>37.2</ele>
        <time>2017-09-03T10:30:38Z</time>
      </trkpt>
      <trkpt lat="58.834332" lon="17.370205">
        <ele>37.4</ele>
        <time>2017-09-03T10:30:39Z</time>
      </trkpt>
      <trkpt lat="58.834259" lon="17.370078">
        <ele>37.4</ele>
        <time>2017-09-03T10:30:40Z</time>
      </trkpt>
      <trkpt lat="58.834186" lon="17.369955">
        <ele>37.8</ele>
        <time>2017-09-03T10:30:41Z</time>
      </trkpt>
      <trkpt lat="58.834112" lon="17.369832">
        <ele>38.4</ele>
        <time>2017-09-03T10:30:42Z</time>
      </trkpt>
      <trkpt lat="58.834038" lon="17.369708">
        <ele>38.8</ele>
        <time>2017-09-03T10:30:43Z</time>
      </trkpt>
      <trkpt lat="58.833963" lon="17.369582">
        <ele>39.2</ele>
        <time>2017-09-03T10:30:44Z</time>
      </trkpt>
      <trkpt lat="58.833888" lon="17.369456">
        <ele>39.6</ele>
        <time>2017-09-03T10:30:45Z</time>
      </trkpt>
      <trkpt lat="58.833815" lon="17.369335">
        <ele>40</ele>
        <time>2017-09-03T10:30:46Z</time>
      </trkpt>
      <trkpt lat="58.833744" lon="17.369215">
        <ele>40.2</ele>
        <time>2017-09-03T10:30:47Z</time>
      </trkpt>
      <trkpt lat="58.833674" lon="17.369093">
        <ele>40.4</ele>
        <time>2017-09-03T10:30:48Z</time>
      </trkpt>
      <trkpt lat="58.833606" lon="17.368974">
        <ele>40.6</ele>
        <time>2017-09-03T10:30:49Z</time>
      </trkpt>
      <trkpt lat="58.833537" lon="17.368857">
        <ele>41</ele>
        <time>2017-09-03T10:30:50Z</time>
      </trkpt>
      <trkpt lat="58.833467" lon="17.36874">
        <ele>41.2</ele>
        <time>2017-09-03T10:30:51Z</time>
      </trkpt>
      <trkpt lat="58.833398" lon="17.368625">
        <ele>41.4</ele>
        <time>2017-09-03T10:30:52Z</time>
      </trkpt>
      <trkpt lat="58.833329" lon="17.368513">
        <ele>41.6</ele>
        <time>2017-09-03T10:30:53Z</time>
      </trkpt>
      <trkpt lat="58.833262" lon="17.368401">
        <ele>41.8</ele>
        <time>2017-09-03T10:30:54Z</time>
      </trkpt>
      <trkpt lat="58.833197" lon="17.36829">
        <ele>42</ele>
        <time>2017-09-03T10:30:55Z</time>
      </trkpt>
      <trkpt lat="58.833133" lon="17.368184">
        <ele>42.2</ele>
        <time>2017-09-03T10:30:56Z</time>
      </trkpt>
      <trkpt lat="58.833069" lon="17.368078">
        <ele>42.4</ele>
        <time>2017-09-03T10:30:57Z</time>
      </trkpt>
      <trkpt lat="58.833004" lon="17.36797">
        <ele>42.6</ele>
        <time>2017-09-03T10:30:58Z</time>
      </trkpt>
      <trkpt lat="58.832937" lon="17.367857">
        <ele>43</ele>
        <time>2017-09-03T10:30:59Z</time>
      </trkpt>
      <trkpt lat="58.832871" lon="17.367744">
        <ele>43.2</ele>
        <time>2017-09-03T10:31:00Z</time>
      </trkpt>
      <trkpt lat="58.832805" lon="17.367633">
        <ele>43.4</ele>
        <time>2017-09-03T10:31:01Z</time>
      </trkpt>
      <trkpt lat="58.832741" lon="17.367526">
        <ele>43.6</ele>
        <time>2017-09-03T10:31:02Z</time>
      </trkpt>
      <trkpt lat="58.832677" lon="17.367419">
        <ele>43.8</ele>
        <time>2017-09-03T10:31:03Z</time>
      </trkpt>
      <trkpt lat="58.832613" lon="17.367311">
        <ele>44.2</ele>
        <time>2017-09-03T10:31:04Z</time>
      </trkpt>
      <trkpt lat="58.832549" lon="17.367201">
        <ele>44.4</ele>
        <time>2017-09-03T10:31:05Z</time>
      </trkpt>
      <trkpt lat="58.832484" lon="17.36709">
        <ele>44.8</ele>
        <time>2017-09-03T10:31:06Z</time>
      </trkpt>
      <trkpt lat="58.832419" lon="17.366976">
        <ele>45</ele>
        <time>2017-09-03T10:31:07Z</time>
      </trkpt>
      <trkpt lat="58.832352" lon="17.366863">
        <ele>45.2</ele>
        <time>2017-09-03T10:31:08Z</time>
      </trkpt>
      <trkpt lat="58.832285" lon="17.366752">
        <ele>45.6</ele>
        <time>2017-09-03T10:31:09Z</time>
      </trkpt>
      <trkpt lat="58.83222" lon="17.366643">
        <ele>45.8</ele>
        <time>2017-09-03T10:31:10Z</time>
      </trkpt>
      <trkpt lat="58.832155" lon="17.366532">
        <ele>46.2</ele>
        <time>2017-09-03T10:31:11Z</time>
      </trkpt>
      <trkpt lat="58.832088" lon="17.36642">
        <ele>46.6</ele>
        <time>2017-09-03T10:31:12Z</time>
      </trkpt>
      <trkpt lat="58.83202" lon="17.366303">
        <ele>46.8</ele>
        <time>2017-09-03T10:31:13Z</time>
      </trkpt>
      <trkpt lat="58.831953" lon="17.366185">
        <ele>47</ele>
        <time>2017-09-03T10:31:14Z</time>
      </trkpt>
      <trkpt lat="58.831884" lon="17.36607">
        <ele>47.2</ele>
        <time>2017-09-03T10:31:15Z</time>
      </trkpt>
      <trkpt lat="58.831814" lon="17.365957">
        <ele>47.2</ele>
        <time>2017-09-03T10:31:16Z</time>
      </trkpt>
      <trkpt lat="58.831741" lon="17.365842">
        <ele>47.6</ele>
        <time>2017-09-03T10:31:17Z</time>
      </trkpt>
      <trkpt lat="58.831668" lon="17.365724">
        <ele>47.6</ele>
        <time>2017-09-03T10:31:18Z</time>
      </trkpt>
      <trkpt lat="58.831594" lon="17.365603">
        <ele>48</ele>
        <time>2017-09-03T10:31:19Z</time>
      </trkpt>
      <trkpt lat="58.831519" lon="17.365483">
        <ele>48.2</ele>
        <time>2017-09-03T10:31:20Z</time>
      </trkpt>
      <trkpt lat="58.831443" lon="17.365364">
        <ele>48.2</ele>
        <time>2017-09-03T10:31:21Z</time>
      </trkpt>
      <trkpt lat="58.831366" lon="17.365246">
        <ele>48.4</ele>
        <time>2017-09-03T10:31:22Z</time>
      </trkpt>
      <trkpt lat="58.831287" lon="17.365131">
        <ele>48.6</ele>
        <time>2017-09-03T10:31:23Z</time>
      </trkpt>
      <trkpt lat="58.831206" lon="17.36502">
        <ele>48.6</ele>
        <time>2017-09-03T10:31:24Z</time>
      </trkpt>
      <trkpt lat="58.831124" lon="17.36491">
        <ele>48.6</ele>
        <time>2017-09-03T10:31:25Z</time>
      </trkpt>
      <trkpt lat="58.831042" lon="17.364805">
        <ele>48.6</ele>
        <time>2017-09-03T10:31:26Z</time>
      </trkpt>
      <trkpt lat="58.830958" lon="17.364702">
        <ele>48.6</ele>
        <time>2017-09-03T10:31:27Z</time>
      </trkpt>
      <trkpt lat="58.830873" lon="17.364604">
        <ele>48.6</ele>
        <time>2017-09-03T10:31:28Z</time>
      </trkpt>
      <trkpt lat="58.830783" lon="17.364504">
        <ele>48.6</ele>
        <time>2017-09-03T10:31:29Z</time>
      </trkpt>
      <trkpt lat="58.830689" lon="17.364405">
        <ele>48.6</ele>
        <time>2017-09-03T10:31:30Z</time>
      </trkpt>
      <trkpt lat="58.830591" lon="17.364309">
        <ele>48.6</ele>
        <time>2017-09-03T10:31:31Z</time>
      </trkpt>
      <trkpt lat="58.830491" lon="17.36422">
        <ele>48.6</ele>
        <time>2017-09-03T10:31:32Z</time>
      </trkpt>
      <trkpt lat="58.830388" lon="17.364132">
        <ele>48.4</ele>
        <time>2017-09-03T10:31:33Z</time>
      </trkpt>
      <trkpt lat="58.830283" lon="17.364049">
        <ele>48.4</ele>
        <time>2017-09-03T10:31:34Z</time>
      </trkpt>
      <trkpt lat="58.830175" lon="17.363966">
        <ele>48</ele>
        <time>2017-09-03T10:31:35Z</time>
      </trkpt>
      <trkpt lat="58.830065" lon="17.363886">
        <ele>47.8</ele>
        <time>2017-09-03T10:31:36Z</time>
      </trkpt>
      <trkpt lat="58.829952" lon="17.363808">
        <ele>47.6</ele>
        <time>2017-09-03T10:31:37Z</time>
      </trkpt>
      <trkpt lat="58.829836" lon="17.363732">
        <ele>47</ele>
        <time>2017-09-03T10:31:38Z</time>
      </trkpt>
      <trkpt lat="58.829718" lon="17.363662">
        <ele>46.6</ele>
        <time>2017-09-03T10:31:39Z</time>
      </trkpt>
      <trkpt lat="58.829596" lon="17.363595">
        <ele>46.2</ele>
        <time>2017-09-03T10:31:40Z</time>
      </trkpt>
      <trkpt lat="58.82947" lon="17.363532">
        <ele>45.6</ele>
        <time>2017-09-03T10:31:41Z</time>
      </trkpt>
      <trkpt lat="58.82934" lon="17.363472">
        <ele>44.8</ele>
        <time>2017-09-03T10:31:42Z</time>
      </trkpt>
      <trkpt lat="58.829207" lon="17.363412">
        <ele>44</ele>
        <time>2017-09-03T10:31:43Z</time>
      </trkpt>
      <trkpt lat="58.829071" lon="17.363352">
        <ele>43.2</ele>
        <time>2017-09-03T10:31:44Z</time>
      </trkpt>
      <trkpt lat="58.828937" lon="17.363292">
        <ele>42.4</ele>
        <time>2017-09-03T10:31:45Z</time>
      </trkpt>
      <trkpt lat="58.828804" lon="17.363233">
        <ele>41.8</ele>
        <time>2017-09-03T10:31:46Z</time>
      </trkpt>
      <trkpt lat="58.828673" lon="17.363176">
        <ele>41.2</ele>
        <time>2017-09-03T10:31:47Z</time>
      </trkpt>
      <trkpt lat="58.828545" lon="17.36312">
        <ele>40.4</ele>
        <time>2017-09-03T10:31:48Z</time>
      </trkpt>
      <trkpt lat="58.828422" lon="17.363064">
        <ele>39.6</ele>
        <time>2017-09-03T10:31:49Z</time>
      </trkpt>
      <trkpt lat="58.8283" lon="17.363012">
        <ele>38.6</ele>
        <time>2017-09-03T10:31:50Z</time>
      </trkpt>
      <trkpt lat="58.82818" lon="17.362961">
        <ele>36.8</ele>
        <time>2017-09-03T10:31:51Z</time>
      </trkpt>
      <trkpt lat="58.828059" lon="17.362911">
        <ele>35.6</ele>
        <time>2017-09-03T10:31:52Z</time>
      </trkpt>
      <trkpt lat="58.827941" lon="17.362858">
        <ele>34.6</ele>
        <time>2017-09-03T10:31:53Z</time>
      </trkpt>
      <trkpt lat="58.827823" lon="17.362803">
        <ele>34</ele>
        <time>2017-09-03T10:31:54Z</time>
      </trkpt>
      <trkpt lat="58.827706" lon="17.362748">
        <ele>33.8</ele>
        <time>2017-09-03T10:31:55Z</time>
      </trkpt>
      <trkpt lat="58.827591" lon="17.362693">
        <ele>33.6</ele>
        <time>2017-09-03T10:31:56Z</time>
      </trkpt>
      <trkpt lat="58.827479" lon="17.36264">
        <ele>33.4</ele>
        <time>2017-09-03T10:31:57Z</time>
      </trkpt>
      <trkpt lat="58.827367" lon="17.362588">
        <ele>33.2</ele>
        <time>2017-09-03T10:31:58Z</time>
      </trkpt>
      <trkpt lat="58.827253" lon="17.362537">
        <ele>33</ele>
        <time>2017-09-03T10:31:59Z</time>
      </trkpt>
      <trkpt lat="58.827136" lon="17.362483">
        <ele>33</ele>
        <time>2017-09-03T10:32:00Z</time>
      </trkpt>
      <trkpt lat="58.827022" lon="17.362429">
        <ele>32.6</ele>
        <time>2017-09-03T10:32:01Z</time>
      </trkpt>
      <trkpt lat="58.826908" lon="17.362376">
        <ele>32.6</ele>
        <time>2017-09-03T10:32:02Z</time>
      </trkpt>
      <trkpt lat="58.826797" lon="17.362326">
        <ele>32.4</ele>
        <time>2017-09-03T10:32:03Z</time>
      </trkpt>
      <trkpt lat="58.826686" lon="17.362277">
        <ele>32.4</ele>
        <time>2017-09-03T10:32:04Z</time>
      </trkpt>
      <trkpt lat="58.826575" lon="17.362229">
        <ele>32.8</ele>
        <time>2017-09-03T10:32:05Z</time>
      </trkpt>
      <trkpt lat="58.826465" lon="17.362179">
        <ele>32.6</ele>
        <time>2017-09-03T10:32:06Z</time>
      </trkpt>
      <trkpt lat="58.826354" lon="17.362126">
        <ele>32.8</ele>
        <time>2017-09-03T10:32:07Z</time>
      </trkpt>
      <trkpt lat="58.82624" lon="17.362071">
        <ele>33</ele>
        <time>2017-09-03T10:32:08Z</time>
      </trkpt>
      <trkpt lat="58.826125" lon="17.362014">
        <ele>33</ele>
        <time>2017-09-03T10:32:09Z</time>
      </trkpt>
      <trkpt lat="58.82601" lon="17.361954">
        <ele>33</ele>
        <time>2017-09-03T10:32:10Z</time>
      </trkpt>
      <trkpt lat="58.825894" lon="17.361891">
        <ele>33.2</ele>
        <time>2017-09-03T10:32:11Z</time>
      </trkpt>
      <trkpt lat="58.825778" lon="17.361825">
        <ele>33.2</ele>
        <time>2017-09-03T10:32:12Z</time>
      </trkpt>
      <trkpt lat="58.825662" lon="17.361759">
        <ele>33.6</ele>
        <time>2017-09-03T10:32:13Z</time>
      </trkpt>
      <trkpt lat="58.825545" lon="17.361695">
        <ele>33.8</ele>
        <time>2017-09-03T10:32:14Z</time>
      </trkpt>
      <trkpt lat="58.825427" lon="17.361632">
        <ele>34</ele>
        <time>2017-09-03T10:32:15Z</time>
      </trkpt>
      <trkpt lat="58.825307" lon="17.361563">
        <ele>34</ele>
        <time>2017-09-03T10:32:16Z</time>
      </trkpt>
      <trkpt lat="58.825188" lon="17.361494">
        <ele>34</ele>
        <time>2017-09-03T10:32:17Z</time>
      </trkpt>
      <trkpt lat="58.825071" lon="17.361427">
        <ele>34</ele>
        <time>2017-09-03T10:32:18Z</time>
      </trkpt>
      <trkpt lat="58.824952" lon="17.361358">
        <ele>34.2</ele>
        <time>2017-09-03T10:32:19Z</time>
      </trkpt>
      <trkpt lat="58.824832" lon="17.361286">
        <ele>34.2</ele>
        <time>2017-09-03T10:32:20Z</time>
      </trkpt>
      <trkpt lat="58.82471" lon="17.361214">
        <ele>34.2</ele>
        <time>2017-09-03T10:32:21Z</time>
      </trkpt>
      <trkpt lat="58.824587" lon="17.361141">
        <ele>34.2</ele>
        <time>2017-09-03T10:32:22Z</time>
      </trkpt>
      <trkpt lat="58.824465" lon="17.361068">
        <ele>34.2</ele>
        <time>2017-09-03T10:32:23Z</time>
      </trkpt>
      <trkpt lat="58.824344" lon="17.360994">
        <ele>34.2</ele>
        <time>2017-09-03T10:32:24Z</time>
      </trkpt>
      <trkpt lat="58.824226" lon="17.360922">
        <ele>33.6</ele>
        <time>2017-09-03T10:32:25Z</time>
      </trkpt>
      <trkpt lat="58.824105" lon="17.360854">
        <ele>33.2</ele>
        <time>2017-09-03T10:32:26Z</time>
      </trkpt>
      <trkpt lat="58.823983" lon="17.360786">
        <ele>32.8</ele>
        <time>2017-09-03T10:32:27Z</time>
      </trkpt>
      <trkpt lat="58.823859" lon="17.360716">
        <ele>32.6</ele>
        <time>2017-09-03T10:32:28Z</time>
      </trkpt>
      <trkpt lat="58.823735" lon="17.360648">
        <ele>32.4</ele>
        <time>2017-09-03T10:32:29Z</time>
      </trkpt>
      <trkpt lat="58.823612" lon="17.360577">
        <ele>32.4</ele>
        <time>2017-09-03T10:32:30Z</time>
      </trkpt>
      <trkpt lat="58.823488" lon="17.360506">
        <ele>32.2</ele>
        <time>2017-09-03T10:32:31Z</time>
      </trkpt>
      <trkpt lat="58.823364" lon="17.360433">
        <ele>32.2</ele>
        <time>2017-09-03T10:32:32Z</time>
      </trkpt>
      <trkpt lat="58.82324" lon="17.360359">
        <ele>32</ele>
        <time>2017-09-03T10:32:33Z</time>
      </trkpt>
      <trkpt lat="58.823118" lon="17.360288">
        <ele>32</ele>
        <time>2017-09-03T10:32:34Z</time>
      </trkpt>
      <trkpt lat="58.822994" lon="17.360213">
        <ele>32</ele>
        <time>2017-09-03T10:32:35Z</time>
      </trkpt>
      <trkpt lat="58.822869" lon="17.360138">
        <ele>31.8</ele>
        <time>2017-09-03T10:32:36Z</time>
      </trkpt>
      <trkpt lat="58.822744" lon="17.360061">
        <ele>31.8</ele>
        <time>2017-09-03T10:32:37Z</time>
      </trkpt>
      <trkpt lat="58.822619" lon="17.359983">
        <ele>31.8</ele>
        <time>2017-09-03T10:32:38Z</time>
      </trkpt>
      <trkpt lat="58.822491" lon="17.359904">
        <ele>31.6</ele>
        <time>2017-09-03T10:32:39Z</time>
      </trkpt>
      <trkpt lat="58.822362" lon="17.359828">
        <ele>31.2</ele>
        <time>2017-09-03T10:32:40Z</time>
      </trkpt>
      <trkpt lat="58.822232" lon="17.359757">
        <ele>31</ele>
        <time>2017-09-03T10:32:41Z</time>
      </trkpt>
      <trkpt lat="58.822101" lon="17.35969">
        <ele>30.8</ele>
        <time>2017-09-03T10:32:42Z</time>
      </trkpt>
      <trkpt lat="58.82197" lon="17.359626">
        <ele>30.4</ele>
        <time>2017-09-03T10:32:43Z</time>
      </trkpt>
      <trkpt lat="58.821839" lon="17.359563">
        <ele>30</ele>
        <time>2017-09-03T10:32:44Z</time>
      </trkpt>
      <trkpt lat="58.821711" lon="17.35951">
        <ele>29.6</ele>
        <time>2017-09-03T10:32:45Z</time>
      </trkpt>
      <trkpt lat="58.821584" lon="17.359462">
        <ele>29.2</ele>
        <time>2017-09-03T10:32:46Z</time>
      </trkpt>
      <trkpt lat="58.821463" lon="17.359414">
        <ele>29</ele>
        <time>2017-09-03T10:32:47Z</time>
      </trkpt>
      <trkpt lat="58.821347" lon="17.359367">
        <ele>29</ele>
        <time>2017-09-03T10:32:48Z</time>
      </trkpt>
      <trkpt lat="58.821233" lon="17.359326">
        <ele>28.8</ele>
        <time>2017-09-03T10:32:49Z</time>
      </trkpt>
      <trkpt lat="58.82112" lon="17.35929">
        <ele>28.8</ele>
        <time>2017-09-03T10:32:50Z</time>
      </trkpt>
      <trkpt lat="58.821009" lon="17.359257">
        <ele>28.8</ele>
        <time>2017-09-03T10:32:51Z</time>
      </trkpt>
      <trkpt lat="58.820899" lon="17.359224">
        <ele>28.8</ele>
        <time>2017-09-03T10:32:52Z</time>
      </trkpt>
      <trkpt lat="58.820792" lon="17.359188">
        <ele>28.8</ele>
        <time>2017-09-03T10:32:53Z</time>
      </trkpt>
      <trkpt lat="58.820686" lon="17.359155">
        <ele>28.8</ele>
        <time>2017-09-03T10:32:54Z</time>
      </trkpt>
      <trkpt lat="58.820581" lon="17.359123">
        <ele>28.8</ele>
        <time>2017-09-03T10:32:55Z</time>
      </trkpt>
      <trkpt lat="58.820474" lon="17.359091">
        <ele>29.4</ele>
        <time>2017-09-03T10:32:56Z</time>
      </trkpt>
      <trkpt lat="58.820369" lon="17.359056">
        <ele>29.6</ele>
        <time>2017-09-03T10:32:57Z</time>
      </trkpt>
      <trkpt lat="58.820264" lon="17.359017">
        <ele>30</ele>
        <time>2017-09-03T10:32:58Z</time>
      </trkpt>
      <trkpt lat="58.820157" lon="17.358982">
        <ele>30.4</ele>
        <time>2017-09-03T10:32:59Z</time>
      </trkpt>
      <trkpt lat="58.820047" lon="17.358949">
        <ele>30.6</ele>
        <time>2017-09-03T10:33:00Z</time>
      </trkpt>
      <trkpt lat="58.819939" lon="17.358914">
        <ele>30.8</ele>
        <time>2017-09-03T10:33:01Z</time>
      </trkpt>
      <trkpt lat="58.819827" lon="17.35888">
        <ele>31</ele>
        <time>2017-09-03T10:33:02Z</time>
      </trkpt>
      <trkpt lat="58.819714" lon="17.358843">
        <ele>31</ele>
        <time>2017-09-03T10:33:03Z</time>
      </trkpt>
      <trkpt lat="58.819599" lon="17.358807">
        <ele>31</ele>
        <time>2017-09-03T10:33:04Z</time>
      </trkpt>
      <trkpt lat="58.819485" lon="17.358772">
        <ele>31</ele>
        <time>2017-09-03T10:33:05Z</time>
      </trkpt>
      <trkpt lat="58.819371" lon="17.358738">
        <ele>31</ele>
        <time>2017-09-03T10:33:06Z</time>
      </trkpt>
      <trkpt lat="58.819256" lon="17.358702">
        <ele>31</ele>
        <time>2017-09-03T10:33:07Z</time>
      </trkpt>
      <trkpt lat="58.81914" lon="17.358664">
        <ele>31</ele>
        <time>2017-09-03T10:33:08Z</time>
      </trkpt>
      <trkpt lat="58.819023" lon="17.358627">
        <ele>31</ele>
        <time>2017-09-03T10:33:09Z</time>
      </trkpt>
      <trkpt lat="58.818904" lon="17.358589">
        <ele>31</ele>
        <time>2017-09-03T10:33:10Z</time>
      </trkpt>
      <trkpt lat="58.818784" lon="17.358548">
        <ele>31</ele>
        <time>2017-09-03T10:33:11Z</time>
      </trkpt>
      <trkpt lat="58.81866" lon="17.358503">
        <ele>31</ele>
        <time>2017-09-03T10:33:12Z</time>
      </trkpt>
      <trkpt lat="58.818532" lon="17.358455">
        <ele>31</ele>
        <time>2017-09-03T10:33:13Z</time>
      </trkpt>
      <trkpt lat="58.818402" lon="17.358405">
        <ele>31</ele>
        <time>2017-09-03T10:33:14Z</time>
      </trkpt>
      <trkpt lat="58.818272" lon="17.358352">
        <ele>30.8</ele>
        <time>2017-09-03T10:33:15Z</time>
      </trkpt>
      <trkpt lat="58.818141" lon="17.358294">
        <ele>30.8</ele>
        <time>2017-09-03T10:33:16Z</time>
      </trkpt>
      <trkpt lat="58.818012" lon="17.35823">
        <ele>30.8</ele>
        <time>2017-09-03T10:33:17Z</time>
      </trkpt>
      <trkpt lat="58.817886" lon="17.358161">
        <ele>30.6</ele>
        <time>2017-09-03T10:33:18Z</time>
      </trkpt>
      <trkpt lat="58.817763" lon="17.358089">
        <ele>30.4</ele>
        <time>2017-09-03T10:33:19Z</time>
      </trkpt>
      <trkpt lat="58.817642" lon="17.358012">
        <ele>30</ele>
        <time>2017-09-03T10:33:20Z</time>
      </trkpt>
      <trkpt lat="58.817522" lon="17.357928">
        <ele>29.8</ele>
        <time>2017-09-03T10:33:21Z</time>
      </trkpt>
      <trkpt lat="58.817403" lon="17.357837">
        <ele>29.6</ele>
        <time>2017-09-03T10:33:22Z</time>
      </trkpt>
      <trkpt lat="58.817282" lon="17.357742">
        <ele>29.4</ele>
        <time>2017-09-03T10:33:23Z</time>
      </trkpt>
      <trkpt lat="58.817163" lon="17.357638">
        <ele>29.2</ele>
        <time>2017-09-03T10:33:24Z</time>
      </trkpt>
      <trkpt lat="58.817044" lon="17.357529">
        <ele>29.2</ele>
        <time>2017-09-03T10:33:25Z</time>
      </trkpt>
      <trkpt lat="58.816926" lon="17.357417">
        <ele>29</ele>
        <time>2017-09-03T10:33:26Z</time>
      </trkpt>
      <trkpt lat="58.816808" lon="17.357298">
        <ele>28.8</ele>
        <time>2017-09-03T10:33:27Z</time>
      </trkpt>
      <trkpt lat="58.816691" lon="17.35717">
        <ele>28.8</ele>
        <time>2017-09-03T10:33:28Z</time>
      </trkpt>
      <trkpt lat="58.816573" lon="17.357032">
        <ele>28.6</ele>
        <time>2017-09-03T10:33:29Z</time>
      </trkpt>
      <trkpt lat="58.816457" lon="17.356886">
        <ele>28.4</ele>
        <time>2017-09-03T10:33:30Z</time>
      </trkpt>
      <trkpt lat="58.816343" lon="17.356735">
        <ele>28.2</ele>
        <time>2017-09-03T10:33:31Z</time>
      </trkpt>
      <trkpt lat="58.816229" lon="17.356578">
        <ele>28.2</ele>
        <time>2017-09-03T10:33:32Z</time>
      </trkpt>
      <trkpt lat="58.816117" lon="17.356417">
        <ele>28</ele>
        <time>2017-09-03T10:33:33Z</time>
      </trkpt>
      <trkpt lat="58.816007" lon="17.356248">
        <ele>27.8</ele>
        <time>2017-09-03T10:33:34Z</time>
      </trkpt>
      <trkpt lat="58.815902" lon="17.356071">
        <ele>27.4</ele>
        <time>2017-09-03T10:33:35Z</time>
      </trkpt>
      <trkpt lat="58.815797" lon="17.355889">
        <ele>27.2</ele>
        <time>2017-09-03T10:33:36Z</time>
      </trkpt>
      <trkpt lat="58.815694" lon="17.355706">
        <ele>27</ele>
        <time>2017-09-03T10:33:37Z</time>
      </trkpt>
      <trkpt lat="58.815595" lon="17.355521">
        <ele>26.6</ele>
        <time>2017-09-03T10:33:38Z</time>
      </trkpt>
      <trkpt lat="58.8155" lon="17.355331">
        <ele>26.4</ele>
        <time>2017-09-03T10:33:39Z</time>
      </trkpt>
      <trkpt lat="58.815411" lon="17.35514">
        <ele>26.2</ele>
        <time>2017-09-03T10:33:40Z</time>
      </trkpt>
      <trkpt lat="58.815325" lon="17.354951">
        <ele>26</ele>
        <time>2017-09-03T10:33:41Z</time>
      </trkpt>
      <trkpt lat="58.815243" lon="17.354761">
        <ele>26</ele>
        <time>2017-09-03T10:33:42Z</time>
      </trkpt>
      <trkpt lat="58.815165" lon="17.354572">
        <ele>25.8</ele>
        <time>2017-09-03T10:33:43Z</time>
      </trkpt>
      <trkpt lat="58.815092" lon="17.354384">
        <ele>25.8</ele>
        <time>2017-09-03T10:33:44Z</time>
      </trkpt>
      <trkpt lat="58.815022" lon="17.354192">
        <ele>25.8</ele>
        <time>2017-09-03T10:33:45Z</time>
      </trkpt>
      <trkpt lat="58.814953" lon="17.353996">
        <ele>25.8</ele>
        <time>2017-09-03T10:33:46Z</time>
      </trkpt>
      <trkpt lat="58.814884" lon="17.3538">
        <ele>25.6</ele>
        <time>2017-09-03T10:33:47Z</time>
      </trkpt>
      <trkpt lat="58.814816" lon="17.353608">
        <ele>25.6</ele>
        <time>2017-09-03T10:33:48Z</time>
      </trkpt>
      <trkpt lat="58.81475" lon="17.353421">
        <ele>25.6</ele>
        <time>2017-09-03T10:33:49Z</time>
      </trkpt>
      <trkpt lat="58.814684" lon="17.353241">
        <ele>25.6</ele>
        <time>2017-09-03T10:33:50Z</time>
      </trkpt>
      <trkpt lat="58.814619" lon="17.353065">
        <ele>25.6</ele>
        <time>2017-09-03T10:33:51Z</time>
      </trkpt>
      <trkpt lat="58.814556" lon="17.35289">
        <ele>25.8</ele>
        <time>2017-09-03T10:33:52Z</time>
      </trkpt>
      <trkpt lat="58.814493" lon="17.352717">
        <ele>26</ele>
        <time>2017-09-03T10:33:53Z</time>
      </trkpt>
      <trkpt lat="58.814432" lon="17.352547">
        <ele>26</ele>
        <time>2017-09-03T10:33:54Z</time>
      </trkpt>
      <trkpt lat="58.81437" lon="17.352377">
        <ele>26.2</ele>
        <time>2017-09-03T10:33:55Z</time>
      </trkpt>
      <trkpt lat="58.81431" lon="17.352206">
        <ele>26.2</ele>
        <time>2017-09-03T10:33:56Z</time>
      </trkpt>
      <trkpt lat="58.81425" lon="17.352034">
        <ele>26.2</ele>
        <time>2017-09-03T10:33:57Z</time>
      </trkpt>
      <trkpt lat="58.814189" lon="17.351863">
        <ele>26.2</ele>
        <time>2017-09-03T10:33:58Z</time>
      </trkpt>
      <trkpt lat="58.814127" lon="17.351689">
        <ele>26.2</ele>
        <time>2017-09-03T10:33:59Z</time>
      </trkpt>
      <trkpt lat="58.814063" lon="17.351514">
        <ele>26.2</ele>
        <time>2017-09-03T10:34:00Z</time>
      </trkpt>
      <trkpt lat="58.813999" lon="17.351338">
        <ele>26.2</ele>
        <time>2017-09-03T10:34:01Z</time>
      </trkpt>
      <trkpt lat="58.813937" lon="17.351165">
        <ele>26.2</ele>
        <time>2017-09-03T10:34:02Z</time>
      </trkpt>
      <trkpt lat="58.813874" lon="17.350993">
        <ele>26.2</ele>
        <time>2017-09-03T10:34:03Z</time>
      </trkpt>
      <trkpt lat="58.813813" lon="17.350819">
        <ele>26.2</ele>
        <time>2017-09-03T10:34:04Z</time>
      </trkpt>
      <trkpt lat="58.813751" lon="17.350642">
        <ele>26.2</ele>
        <time>2017-09-03T10:34:05Z</time>
      </trkpt>
      <trkpt lat="58.813689" lon="17.350463">
        <ele>26</ele>
        <time>2017-09-03T10:34:06Z</time>
      </trkpt>
      <trkpt lat="58.813626" lon="17.350285">
        <ele>25.8</ele>
        <time>2017-09-03T10:34:07Z</time>
      </trkpt>
      <trkpt lat="58.813565" lon="17.35011">
        <ele>25.2</ele>
        <time>2017-09-03T10:34:08Z</time>
      </trkpt>
      <trkpt lat="58.813501" lon="17.34994">
        <ele>24.8</ele>
        <time>2017-09-03T10:34:09Z</time>
      </trkpt>
      <trkpt lat="58.81344" lon="17.349772">
        <ele>24.6</ele>
        <time>2017-09-03T10:34:10Z</time>
      </trkpt>
      <trkpt lat="58.813379" lon="17.349605">
        <ele>24.4</ele>
        <time>2017-09-03T10:34:11Z</time>
      </trkpt>
      <trkpt lat="58.813317" lon="17.349437">
        <ele>24.4</ele>
        <time>2017-09-03T10:34:12Z</time>
      </trkpt>
      <trkpt lat="58.813256" lon="17.34927">
        <ele>24.4</ele>
        <time>2017-09-03T10:34:13Z</time>
      </trkpt>
      <trkpt lat="58.813195" lon="17.349103">
        <ele>24.4</ele>
        <time>2017-09-03T10:34:14Z</time>
      </trkpt>
      <trkpt lat="58.813135" lon="17.348935">
        <ele>24.4</ele>
        <time>2017-09-03T10:34:15Z</time>
      </trkpt>
      <trkpt lat="58.813075" lon="17.348767">
        <ele>24.4</ele>
        <time>2017-09-03T10:34:16Z</time>
      </trkpt>
      <trkpt lat="58.813015" lon="17.348604">
        <ele>24.4</ele>
        <time>2017-09-03T10:34:17Z</time>
      </trkpt>
      <trkpt lat="58.812955" lon="17.348438">
        <ele>24.4</ele>
        <time>2017-09-03T10:34:18Z</time>
      </trkpt>
      <trkpt lat="58.812897" lon="17.348269">
        <ele>24.4</ele>
        <time>2017-09-03T10:34:19Z</time>
      </trkpt>
      <trkpt lat="58.812839" lon="17.348099">
        <ele>24.4</ele>
        <time>2017-09-03T10:34:20Z</time>
      </trkpt>
      <trkpt lat="58.812779" lon="17.347927">
        <ele>24.4</ele>
        <time>2017-09-03T10:34:21Z</time>
      </trkpt>
      <trkpt lat="58.812717" lon="17.347756">
        <ele>24.4</ele>
        <time>2017-09-03T10:34:22Z</time>
      </trkpt>
      <trkpt lat="58.812658" lon="17.347587">
        <ele>24.6</ele>
        <time>2017-09-03T10:34:23Z</time>
      </trkpt>
      <trkpt lat="58.812597" lon="17.347418">
        <ele>25.2</ele>
        <time>2017-09-03T10:34:24Z</time>
      </trkpt>
      <trkpt lat="58.812538" lon="17.347252">
        <ele>25.4</ele>
        <time>2017-09-03T10:34:25Z</time>
      </trkpt>
      <trkpt lat="58.81248" lon="17.347088">
        <ele>25.4</ele>
        <time>2017-09-03T10:34:26Z</time>
      </trkpt>
      <trkpt lat="58.812423" lon="17.346926">
        <ele>25.6</ele>
        <time>2017-09-03T10:34:27Z</time>
      </trkpt>
      <trkpt lat="58.812366" lon="17.346767">
        <ele>25.6</ele>
        <time>2017-09-03T10:34:28Z</time>
      </trkpt>
      <trkpt lat="58.812313" lon="17.346609">
        <ele>25.8</ele>
        <time>2017-09-03T10:34:29Z</time>
      </trkpt>
      <trkpt lat="58.81226" lon="17.346455">
        <ele>26.2</ele>
        <time>2017-09-03T10:34:30Z</time>
      </trkpt>
      <trkpt lat="58.812205" lon="17.346301">
        <ele>26.4</ele>
        <time>2017-09-03T10:34:31Z</time>
      </trkpt>
      <trkpt lat="58.812151" lon="17.346145">
        <ele>26.8</ele>
        <time>2017-09-03T10:34:32Z</time>
      </trkpt>
      <trkpt lat="58.812098" lon="17.345985">
        <ele>27</ele>
        <time>2017-09-03T10:34:33Z</time>
      </trkpt>
      <trkpt lat="58.812044" lon="17.345822">
        <ele>27.2</ele>
        <time>2017-09-03T10:34:34Z</time>
      </trkpt>
      <trkpt lat="58.81199" lon="17.345658">
        <ele>27.4</ele>
        <time>2017-09-03T10:34:35Z</time>
      </trkpt>
      <trkpt lat="58.811935" lon="17.34549">
        <ele>27.6</ele>
        <time>2017-09-03T10:34:36Z</time>
      </trkpt>
      <trkpt lat="58.811882" lon="17.345319">
        <ele>27.8</ele>
        <time>2017-09-03T10:34:37Z</time>
      </trkpt>
      <trkpt lat="58.811831" lon="17.34515">
        <ele>27.8</ele>
        <time>2017-09-03T10:34:38Z</time>
      </trkpt>
      <trkpt lat="58.811781" lon="17.344982">
        <ele>28</ele>
        <time>2017-09-03T10:34:39Z</time>
      </trkpt>
      <trkpt lat="58.811732" lon="17.34481">
        <ele>28.2</ele>
        <time>2017-09-03T10:34:40Z</time>
      </trkpt>
      <trkpt lat="58.811685" lon="17.344634">
        <ele>28.2</ele>
        <time>2017-09-03T10:34:41Z</time>
      </trkpt>
      <trkpt lat="58.811638" lon="17.344454">
        <ele>28.4</ele>
        <time>2017-09-03T10:34:42Z</time>
      </trkpt>
      <trkpt lat="58.811591" lon="17.344274">
        <ele>28.4</ele>
        <time>2017-09-03T10:34:43Z</time>
      </trkpt>
      <trkpt lat="58.811544" lon="17.34409">
        <ele>28.4</ele>
        <time>2017-09-03T10:34:44Z</time>
      </trkpt>
      <trkpt lat="58.811496" lon="17.343905">
        <ele>28.4</ele>
        <time>2017-09-03T10:34:45Z</time>
      </trkpt>
      <trkpt lat="58.811447" lon="17.343721">
        <ele>28.4</ele>
        <time>2017-09-03T10:34:46Z</time>
      </trkpt>
      <trkpt lat="58.811398" lon="17.343535">
        <ele>28.4</ele>
        <time>2017-09-03T10:34:47Z</time>
      </trkpt>
      <trkpt lat="58.81135" lon="17.343347">
        <ele>28.4</ele>
        <time>2017-09-03T10:34:48Z</time>
      </trkpt>
      <trkpt lat="58.811301" lon="17.343161">
        <ele>28.4</ele>
        <time>2017-09-03T10:34:49Z</time>
      </trkpt>
      <trkpt lat="58.811251" lon="17.342973">
        <ele>28.4</ele>
        <time>2017-09-03T10:34:50Z</time>
      </trkpt>
      <trkpt lat="58.811201" lon="17.342782">
        <ele>28.4</ele>
        <time>2017-09-03T10:34:51Z</time>
      </trkpt>
      <trkpt lat="58.811151" lon="17.342588">
        <ele>28.4</ele>
        <time>2017-09-03T10:34:52Z</time>
      </trkpt>
      <trkpt lat="58.8111" lon="17.342389">
        <ele>28</ele>
        <time>2017-09-03T10:34:53Z</time>
      </trkpt>
      <trkpt lat="58.811049" lon="17.342184">
        <ele>27.4</ele>
        <time>2017-09-03T10:34:54Z</time>
      </trkpt>
      <trkpt lat="58.810997" lon="17.341976">
        <ele>27.2</ele>
        <time>2017-09-03T10:34:55Z</time>
      </trkpt>
      <trkpt lat="58.810946" lon="17.341766">
        <ele>26.8</ele>
        <time>2017-09-03T10:34:56Z</time>
      </trkpt>
      <trkpt lat="58.810895" lon="17.341557">
        <ele>26.6</ele>
        <time>2017-09-03T10:34:57Z</time>
      </trkpt>
      <trkpt lat="58.810844" lon="17.341352">
        <ele>26.4</ele>
        <time>2017-09-03T10:34:58Z</time>
      </trkpt>
      <trkpt lat="58.810793" lon="17.34115">
        <ele>26.2</ele>
        <time>2017-09-03T10:34:59Z</time>
      </trkpt>
      <trkpt lat="58.810743" lon="17.340953">
        <ele>26.2</ele>
        <time>2017-09-03T10:35:00Z</time>
      </trkpt>
      <trkpt lat="58.810694" lon="17.340756">
        <ele>26.2</ele>
        <time>2017-09-03T10:35:01Z</time>
      </trkpt>
      <trkpt lat="58.810646" lon="17.340561">
        <ele>26</ele>
        <time>2017-09-03T10:35:02Z</time>
      </trkpt>
      <trkpt lat="58.810598" lon="17.340373">
        <ele>25.8</ele>
        <time>2017-09-03T10:35:03Z</time>
      </trkpt>
      <trkpt lat="58.810551" lon="17.340187">
        <ele>25.8</ele>
        <time>2017-09-03T10:35:04Z</time>
      </trkpt>
      <trkpt lat="58.810506" lon="17.340003">
        <ele>25.6</ele>
        <time>2017-09-03T10:35:05Z</time>
      </trkpt>
      <trkpt lat="58.810459" lon="17.339822">
        <ele>25.6</ele>
        <time>2017-09-03T10:35:06Z</time>
      </trkpt>
      <trkpt lat="58.810413" lon="17.339639">
        <ele>25.6</ele>
        <time>2017-09-03T10:35:07Z</time>
      </trkpt>
      <trkpt lat="58.810367" lon="17.339453">
        <ele>25.6</ele>
        <time>2017-09-03T10:35:08Z</time>
      </trkpt>
      <trkpt lat="58.810322" lon="17.339268">
        <ele>25.4</ele>
        <time>2017-09-03T10:35:09Z</time>
      </trkpt>
      <trkpt lat="58.810275" lon="17.339085">
        <ele>25.4</ele>
        <time>2017-09-03T10:35:10Z</time>
      </trkpt>
      <trkpt lat="58.810227" lon="17.338903">
        <ele>25.4</ele>
        <time>2017-09-03T10:35:11Z</time>
      </trkpt>
      <trkpt lat="58.810178" lon="17.338719">
        <ele>25.4</ele>
        <time>2017-09-03T10:35:12Z</time>
      </trkpt>
      <trkpt lat="58.81013" lon="17.338536">
        <ele>25.4</ele>
        <time>2017-09-03T10:35:13Z</time>
      </trkpt>
      <trkpt lat="58.810083" lon="17.338352">
        <ele>25.4</ele>
        <time>2017-09-03T10:35:14Z</time>
      </trkpt>
      <trkpt lat="58.810034" lon="17.338169">
        <ele>25.4</ele>
        <time>2017-09-03T10:35:15Z</time>
      </trkpt>
      <trkpt lat="58.809987" lon="17.337986">
        <ele>25.2</ele>
        <time>2017-09-03T10:35:16Z</time>
      </trkpt>
      <trkpt lat="58.809942" lon="17.337805">
        <ele>25.2</ele>
        <time>2017-09-03T10:35:17Z</time>
      </trkpt>
      <trkpt lat="58.809899" lon="17.337634">
        <ele>25</ele>
        <time>2017-09-03T10:35:18Z</time>
      </trkpt>
      <trkpt lat="58.80986" lon="17.337474">
        <ele>24.8</ele>
        <time>2017-09-03T10:35:19Z</time>
      </trkpt>
      <trkpt lat="58.809821" lon="17.337321">
        <ele>24.6</ele>
        <time>2017-09-03T10:35:20Z</time>
      </trkpt>
      <trkpt lat="58.809783" lon="17.337166">
        <ele>24.6</ele>
        <time>2017-09-03T10:35:21Z</time>
      </trkpt>
      <trkpt lat="58.809742" lon="17.337007">
        <ele>24.6</ele>
        <time>2017-09-03T10:35:22Z</time>
      </trkpt>
      <trkpt lat="58.809701" lon="17.336847">
        <ele>24.4</ele>
        <time>2017-09-03T10:35:23Z</time>
      </trkpt>
      <trkpt lat="58.809658" lon="17.336688">
        <ele>24.4</ele>
        <time>2017-09-03T10:35:24Z</time>
      </trkpt>
      <trkpt lat="58.809615" lon="17.336535">
        <ele>24.4</ele>
        <time>2017-09-03T10:35:25Z</time>
      </trkpt>
      <trkpt lat="58.809574" lon="17.336391">
        <ele>24.4</ele>
        <time>2017-09-03T10:35:26Z</time>
      </trkpt>
      <trkpt lat="58.809534" lon="17.336254">
        <ele>24.4</ele>
        <time>2017-09-03T10:35:27Z</time>
      </trkpt>
      <trkpt lat="58.809497" lon="17.33612">
        <ele>24.4</ele>
        <time>2017-09-03T10:35:28Z</time>
      </trkpt>
      <trkpt lat="58.809465" lon="17.335986">
        <ele>24.2</ele>
        <time>2017-09-03T10:35:29Z</time>
      </trkpt>
      <trkpt lat="58.809445" lon="17.335846">
        <ele>24.2</ele>
        <time>2017-09-03T10:35:30Z</time>
      </trkpt>
      <trkpt lat="58.809447" lon="17.3357">
        <ele>24</ele>
        <time>2017-09-03T10:35:31Z</time>
      </trkpt>
      <trkpt lat="58.809479" lon="17.335564">
        <ele>23.4</ele>
        <time>2017-09-03T10:35:32Z</time>
      </trkpt>
      <trkpt lat="58.809535" lon="17.335444">
        <ele>23</ele>
        <time>2017-09-03T10:35:33Z</time>
      </trkpt>
      <trkpt lat="58.809608" lon="17.335346">
        <ele>22.4</ele>
        <time>2017-09-03T10:35:34Z</time>
      </trkpt>
      <trkpt lat="58.809688" lon="17.335257">
        <ele>22.2</ele>
        <time>2017-09-03T10:35:35Z</time>
      </trkpt>
      <trkpt lat="58.809775" lon="17.33517">
        <ele>22</ele>
        <time>2017-09-03T10:35:36Z</time>
      </trkpt>
      <trkpt lat="58.809869" lon="17.335082">
        <ele>21.6</ele>
        <time>2017-09-03T10:35:37Z</time>
      </trkpt>
      <trkpt lat="58.809971" lon="17.334996">
        <ele>21.2</ele>
        <time>2017-09-03T10:35:38Z</time>
      </trkpt>
      <trkpt lat="58.810073" lon="17.334912">
        <ele>20.8</ele>
        <time>2017-09-03T10:35:39Z</time>
      </trkpt>
      <trkpt lat="58.810174" lon="17.334827">
        <ele>20.4</ele>
        <time>2017-09-03T10:35:40Z</time>
      </trkpt>
      <trkpt lat="58.810272" lon="17.334738">
        <ele>20</ele>
        <time>2017-09-03T10:35:41Z</time>
      </trkpt>
      <trkpt lat="58.810368" lon="17.334649">
        <ele>20</ele>
        <time>2017-09-03T10:35:42Z</time>
      </trkpt>
      <trkpt lat="58.810462" lon="17.334562">
        <ele>19.8</ele>
        <time>2017-09-03T10:35:43Z</time>
      </trkpt>
      <trkpt lat="58.810556" lon="17.334476">
        <ele>19.8</ele>
        <time>2017-09-03T10:35:44Z</time>
      </trkpt>
      <trkpt lat="58.810648" lon="17.33439">
        <ele>19.8</ele>
        <time>2017-09-03T10:35:45Z</time>
      </trkpt>
      <trkpt lat="58.810739" lon="17.334307">
        <ele>19.8</ele>
        <time>2017-09-03T10:35:46Z</time>
      </trkpt>
      <trkpt lat="58.810831" lon="17.334226">
        <ele>19.8</ele>
        <time>2017-09-03T10:35:47Z</time>
      </trkpt>
      <trkpt lat="58.810922" lon="17.334143">
        <ele>19.8</ele>
        <time>2017-09-03T10:35:48Z</time>
      </trkpt>
      <trkpt lat="58.811013" lon="17.334061">
        <ele>19.8</ele>
        <time>2017-09-03T10:35:49Z</time>
      </trkpt>
      <trkpt lat="58.811102" lon="17.333979">
        <ele>19.8</ele>
        <time>2017-09-03T10:35:50Z</time>
      </trkpt>
      <trkpt lat="58.811189" lon="17.333896">
        <ele>20.2</ele>
        <time>2017-09-03T10:35:51Z</time>
      </trkpt>
      <trkpt lat="58.811276" lon="17.333813">
        <ele>20.2</ele>
        <time>2017-09-03T10:35:52Z</time>
      </trkpt>
      <trkpt lat="58.811362" lon="17.333731">
        <ele>20.2</ele>
        <time>2017-09-03T10:35:53Z</time>
      </trkpt>
      <trkpt lat="58.811449" lon="17.333651">
        <ele>20.4</ele>
        <time>2017-09-03T10:35:54Z</time>
      </trkpt>
      <trkpt lat="58.811533" lon="17.333576">
        <ele>20.4</ele>
        <time>2017-09-03T10:35:55Z</time>
      </trkpt>
      <trkpt lat="58.811618" lon="17.3335">
        <ele>20.4</ele>
        <time>2017-09-03T10:35:56Z</time>
      </trkpt>
      <trkpt lat="58.8117" lon="17.333423">
        <ele>20.4</ele>
        <time>2017-09-03T10:35:57Z</time>
      </trkpt>
      <trkpt lat="58.811781" lon="17.333344">
        <ele>20.4</ele>
        <time>2017-09-03T10:35:58Z</time>
      </trkpt>
      <trkpt lat="58.811862" lon="17.333263">
        <ele>20.4</ele>
        <time>2017-09-03T10:35:59Z</time>
      </trkpt>
      <trkpt lat="58.811942" lon="17.333182">
        <ele>20.4</ele>
        <time>2017-09-03T10:36:00Z</time>
      </trkpt>
      <trkpt lat="58.812022" lon="17.333098">
        <ele>20.4</ele>
        <time>2017-09-03T10:36:01Z</time>
      </trkpt>
      <trkpt lat="58.812103" lon="17.333013">
        <ele>20.4</ele>
        <time>2017-09-03T10:36:02Z</time>
      </trkpt>
      <trkpt lat="58.812182" lon="17.332925">
        <ele>20.4</ele>
        <time>2017-09-03T10:36:03Z</time>
      </trkpt>
      <trkpt lat="58.81226" lon="17.332836">
        <ele>20.4</ele>
        <time>2017-09-03T10:36:04Z</time>
      </trkpt>
      <trkpt lat="58.812337" lon="17.332746">
        <ele>20.4</ele>
        <time>2017-09-03T10:36:05Z</time>
      </trkpt>
      <trkpt lat="58.812414" lon="17.332653">
        <ele>20.4</ele>
        <time>2017-09-03T10:36:06Z</time>
      </trkpt>
      <trkpt lat="58.81249" lon="17.332557">
        <ele>20.4</ele>
        <time>2017-09-03T10:36:07Z</time>
      </trkpt>
      <trkpt lat="58.812566" lon="17.332462">
        <ele>20.4</ele>
        <time>2017-09-03T10:36:08Z</time>
      </trkpt>
      <trkpt lat="58.81264" lon="17.332368">
        <ele>20.4</ele>
        <time>2017-09-03T10:36:09Z</time>
      </trkpt>
      <trkpt lat="58.812714" lon="17.332275">
        <ele>20.4</ele>
        <time>2017-09-03T10:36:10Z</time>
      </trkpt>
      <trkpt lat="58.812786" lon="17.33218">
        <ele>20.4</ele>
        <time>2017-09-03T10:36:11Z</time>
      </trkpt>
      <trkpt lat="58.812859" lon="17.332082">
        <ele>20.4</ele>
        <time>2017-09-03T10:36:12Z</time>
      </trkpt>
      <trkpt lat="58.812934" lon="17.331979">
        <ele>20.6</ele>
        <time>2017-09-03T10:36:13Z</time>
      </trkpt>
      <trkpt lat="58.813011" lon="17.331875">
        <ele>20.6</ele>
        <time>2017-09-03T10:36:14Z</time>
      </trkpt>
      <trkpt lat="58.813087" lon="17.331769">
        <ele>20.8</ele>
        <time>2017-09-03T10:36:15Z</time>
      </trkpt>
      <trkpt lat="58.813162" lon="17.331663">
        <ele>20.8</ele>
        <time>2017-09-03T10:36:16Z</time>
      </trkpt>
      <trkpt lat="58.813234" lon="17.33156">
        <ele>20.8</ele>
        <time>2017-09-03T10:36:17Z</time>
      </trkpt>
      <trkpt lat="58.813305" lon="17.33146">
        <ele>21</ele>
        <time>2017-09-03T10:36:18Z</time>
      </trkpt>
      <trkpt lat="58.813377" lon="17.331362">
        <ele>21</ele>
        <time>2017-09-03T10:36:19Z</time>
      </trkpt>
      <trkpt lat="58.813447" lon="17.331261">
        <ele>21</ele>
        <time>2017-09-03T10:36:20Z</time>
      </trkpt>
      <trkpt lat="58.813517" lon="17.331162">
        <ele>21</ele>
        <time>2017-09-03T10:36:21Z</time>
      </trkpt>
      <trkpt lat="58.813583" lon="17.331067">
        <ele>21</ele>
        <time>2017-09-03T10:36:22Z</time>
      </trkpt>
      <trkpt lat="58.813647" lon="17.330976">
        <ele>21</ele>
        <time>2017-09-03T10:36:23Z</time>
      </trkpt>
      <trkpt lat="58.813707" lon="17.330887">
        <ele>21.2</ele>
        <time>2017-09-03T10:36:24Z</time>
      </trkpt>
      <trkpt lat="58.813766" lon="17.330803">
        <ele>21.4</ele>
        <time>2017-09-03T10:36:25Z</time>
      </trkpt>
      <trkpt lat="58.813824" lon="17.330714">
        <ele>21.6</ele>
        <time>2017-09-03T10:36:26Z</time>
      </trkpt>
      <trkpt lat="58.813883" lon="17.330627">
        <ele>22</ele>
        <time>2017-09-03T10:36:27Z</time>
      </trkpt>
      <trkpt lat="58.81394" lon="17.330539">
        <ele>22</ele>
        <time>2017-09-03T10:36:28Z</time>
      </trkpt>
      <trkpt lat="58.814002" lon="17.330453">
        <ele>22.4</ele>
        <time>2017-09-03T10:36:29Z</time>
      </trkpt>
      <trkpt lat="58.814066" lon="17.330361">
        <ele>22.6</ele>
        <time>2017-09-03T10:36:30Z</time>
      </trkpt>
      <trkpt lat="58.814134" lon="17.330269">
        <ele>22.8</ele>
        <time>2017-09-03T10:36:31Z</time>
      </trkpt>
      <trkpt lat="58.814205" lon="17.330172">
        <ele>23</ele>
        <time>2017-09-03T10:36:32Z</time>
      </trkpt>
      <trkpt lat="58.814277" lon="17.330072">
        <ele>23.6</ele>
        <time>2017-09-03T10:36:33Z</time>
      </trkpt>
      <trkpt lat="58.814349" lon="17.329974">
        <ele>24</ele>
        <time>2017-09-03T10:36:34Z</time>
      </trkpt>
      <trkpt lat="58.814423" lon="17.329874">
        <ele>24.2</ele>
        <time>2017-09-03T10:36:35Z</time>
      </trkpt>
      <trkpt lat="58.814497" lon="17.329769">
        <ele>24.6</ele>
        <time>2017-09-03T10:36:36Z</time>
      </trkpt>
      <trkpt lat="58.814572" lon="17.32966">
        <ele>24.6</ele>
        <time>2017-09-03T10:36:37Z</time>
      </trkpt>
      <trkpt lat="58.81465" lon="17.329549">
        <ele>24.8</ele>
        <time>2017-09-03T10:36:38Z</time>
      </trkpt>
      <trkpt lat="58.81473" lon="17.32944">
        <ele>24.8</ele>
        <time>2017-09-03T10:36:39Z</time>
      </trkpt>
      <trkpt lat="58.814811" lon="17.329332">
        <ele>24.8</ele>
        <time>2017-09-03T10:36:40Z</time>
      </trkpt>
      <trkpt lat="58.81489" lon="17.329221">
        <ele>24.8</ele>
        <time>2017-09-03T10:36:41Z</time>
      </trkpt>
      <trkpt lat="58.814968" lon="17.329112">
        <ele>24.8</ele>
        <time>2017-09-03T10:36:42Z</time>
      </trkpt>
      <trkpt lat="58.815046" lon="17.329004">
        <ele>24.8</ele>
        <time>2017-09-03T10:36:43Z</time>
      </trkpt>
      <trkpt lat="58.815124" lon="17.328898">
        <ele>24.8</ele>
        <time>2017-09-03T10:36:44Z</time>
      </trkpt>
      <trkpt lat="58.8152" lon="17.328792">
        <ele>24.8</ele>
        <time>2017-09-03T10:36:45Z</time>
      </trkpt>
      <trkpt lat="58.815276" lon="17.328685">
        <ele>25</ele>
        <time>2017-09-03T10:36:46Z</time>
      </trkpt>
      <trkpt lat="58.81535" lon="17.32858">
        <ele>24.8</ele>
        <time>2017-09-03T10:36:47Z</time>
      </trkpt>
      <trkpt lat="58.815423" lon="17.328474">
        <ele>24.2</ele>
        <time>2017-09-03T10:36:48Z</time>
      </trkpt>
      <trkpt lat="58.815494" lon="17.328373">
        <ele>24</ele>
        <time>2017-09-03T10:36:49Z</time>
      </trkpt>
      <trkpt lat="58.815562" lon="17.328275">
        <ele>23.8</ele>
        <time>2017-09-03T10:36:50Z</time>
      </trkpt>
      <trkpt lat="58.815629" lon="17.328178">
        <ele>23.8</ele>
        <time>2017-09-03T10:36:51Z</time>
      </trkpt>
      <trkpt lat="58.815696" lon="17.328081">
        <ele>23.8</ele>
        <time>2017-09-03T10:36:52Z</time>
      </trkpt>
      <trkpt lat="58.815761" lon="17.327985">
        <ele>23.8</ele>
        <time>2017-09-03T10:36:53Z</time>
      </trkpt>
      <trkpt lat="58.815829" lon="17.327884">
        <ele>23.8</ele>
        <time>2017-09-03T10:36:54Z</time>
      </trkpt>
      <trkpt lat="58.815897" lon="17.327782">
        <ele>23.8</ele>
        <time>2017-09-03T10:36:55Z</time>
      </trkpt>
      <trkpt lat="58.815967" lon="17.327682">
        <ele>23.8</ele>
        <time>2017-09-03T10:36:56Z</time>
      </trkpt>
      <trkpt lat="58.816036" lon="17.327582">
        <ele>23.8</ele>
        <time>2017-09-03T10:36:57Z</time>
      </trkpt>
      <trkpt lat="58.816104" lon="17.327484">
        <ele>23.8</ele>
        <time>2017-09-03T10:36:58Z</time>
      </trkpt>
      <trkpt lat="58.81617" lon="17.327386">
        <ele>23.8</ele>
        <time>2017-09-03T10:36:59Z</time>
      </trkpt>
      <trkpt lat="58.816237" lon="17.327291">
        <ele>23.8</ele>
        <time>2017-09-03T10:37:00Z</time>
      </trkpt>
      <trkpt lat="58.816306" lon="17.327193">
        <ele>24</ele>
        <time>2017-09-03T10:37:01Z</time>
      </trkpt>
      <trkpt lat="58.816376" lon="17.327092">
        <ele>24</ele>
        <time>2017-09-03T10:37:02Z</time>
      </trkpt>
      <trkpt lat="58.816447" lon="17.326989">
        <ele>24.2</ele>
        <time>2017-09-03T10:37:03Z</time>
      </trkpt>
      <trkpt lat="58.816517" lon="17.326887">
        <ele>24.2</ele>
        <time>2017-09-03T10:37:04Z</time>
      </trkpt>
      <trkpt lat="58.816589" lon="17.326788">
        <ele>24.4</ele>
        <time>2017-09-03T10:37:05Z</time>
      </trkpt>
      <trkpt lat="58.81666" lon="17.326689">
        <ele>24.6</ele>
        <time>2017-09-03T10:37:06Z</time>
      </trkpt>
      <trkpt lat="58.816732" lon="17.326585">
        <ele>24.8</ele>
        <time>2017-09-03T10:37:07Z</time>
      </trkpt>
      <trkpt lat="58.816805" lon="17.326479">
        <ele>25</ele>
        <time>2017-09-03T10:37:08Z</time>
      </trkpt>
      <trkpt lat="58.816881" lon="17.326369">
        <ele>25.2</ele>
        <time>2017-09-03T10:37:09Z</time>
      </trkpt>
      <trkpt lat="58.816962" lon="17.326256">
        <ele>25.2</ele>
        <time>2017-09-03T10:37:10Z</time>
      </trkpt>
      <trkpt lat="58.817045" lon="17.32615">
        <ele>25.4</ele>
        <time>2017-09-03T10:37:11Z</time>
      </trkpt>
      <trkpt lat="58.817128" lon="17.32605">
        <ele>25.4</ele>
        <time>2017-09-03T10:37:12Z</time>
      </trkpt>
      <trkpt lat="58.817211" lon="17.325958">
        <ele>25.4</ele>
        <time>2017-09-03T10:37:13Z</time>
      </trkpt>
      <trkpt lat="58.817295" lon="17.325863">
        <ele>25.4</ele>
        <time>2017-09-03T10:37:14Z</time>
      </trkpt>
      <trkpt lat="58.817383" lon="17.325768">
        <ele>25.6</ele>
        <time>2017-09-03T10:37:15Z</time>
      </trkpt>
      <trkpt lat="58.817474" lon="17.325677">
        <ele>25.6</ele>
        <time>2017-09-03T10:37:16Z</time>
      </trkpt>
      <trkpt lat="58.817568" lon="17.325591">
        <ele>25.6</ele>
        <time>2017-09-03T10:37:17Z</time>
      </trkpt>
      <trkpt lat="58.817663" lon="17.325505">
        <ele>25.6</ele>
        <time>2017-09-03T10:37:18Z</time>
      </trkpt>
      <trkpt lat="58.817758" lon="17.325423">
        <ele>25.8</ele>
        <time>2017-09-03T10:37:19Z</time>
      </trkpt>
      <trkpt lat="58.817853" lon="17.325345">
        <ele>25.8</ele>
        <time>2017-09-03T10:37:20Z</time>
      </trkpt>
      <trkpt lat="58.817951" lon="17.325268">
        <ele>25.8</ele>
        <time>2017-09-03T10:37:21Z</time>
      </trkpt>
      <trkpt lat="58.818051" lon="17.325193">
        <ele>25.8</ele>
        <time>2017-09-03T10:37:22Z</time>
      </trkpt>
      <trkpt lat="58.818149" lon="17.325121">
        <ele>25.8</ele>
        <time>2017-09-03T10:37:23Z</time>
      </trkpt>
      <trkpt lat="58.818249" lon="17.325051">
        <ele>26</ele>
        <time>2017-09-03T10:37:24Z</time>
      </trkpt>
      <trkpt lat="58.818349" lon="17.324991">
        <ele>26</ele>
        <time>2017-09-03T10:37:25Z</time>
      </trkpt>
      <trkpt lat="58.81845" lon="17.324942">
        <ele>26</ele>
        <time>2017-09-03T10:37:26Z</time>
      </trkpt>
      <trkpt lat="58.818551" lon="17.324906">
        <ele>26</ele>
        <time>2017-09-03T10:37:27Z</time>
      </trkpt>
      <trkpt lat="58.818652" lon="17.324878">
        <ele>26</ele>
        <time>2017-09-03T10:37:28Z</time>
      </trkpt>
      <trkpt lat="58.818749" lon="17.324855">
        <ele>26</ele>
        <time>2017-09-03T10:37:29Z</time>
      </trkpt>
      <trkpt lat="58.818846" lon="17.324839">
        <ele>26</ele>
        <time>2017-09-03T10:37:30Z</time>
      </trkpt>
      <trkpt lat="58.818942" lon="17.324829">
        <ele>26</ele>
        <time>2017-09-03T10:37:31Z</time>
      </trkpt>
      <trkpt lat="58.819036" lon="17.324822">
        <ele>26</ele>
        <time>2017-09-03T10:37:32Z</time>
      </trkpt>
      <trkpt lat="58.819127" lon="17.324818">
        <ele>26</ele>
        <time>2017-09-03T10:37:33Z</time>
      </trkpt>
      <trkpt lat="58.819217" lon="17.324813">
        <ele>26</ele>
        <time>2017-09-03T10:37:34Z</time>
      </trkpt>
      <trkpt lat="58.819305" lon="17.324811">
        <ele>26</ele>
        <time>2017-09-03T10:37:35Z</time>
      </trkpt>
      <trkpt lat="58.819391" lon="17.324814">
        <ele>26.2</ele>
        <time>2017-09-03T10:37:36Z</time>
      </trkpt>
      <trkpt lat="58.819473" lon="17.324814">
        <ele>26.2</ele>
        <time>2017-09-03T10:37:37Z</time>
      </trkpt>
      <trkpt lat="58.81955" lon="17.324815">
        <ele>26.2</ele>
        <time>2017-09-03T10:37:38Z</time>
      </trkpt>
      <trkpt lat="58.819626" lon="17.324819">
        <ele>26.2</ele>
        <time>2017-09-03T10:37:39Z</time>
      </trkpt>
      <trkpt lat="58.819702" lon="17.324823">
        <ele>26.2</ele>
        <time>2017-09-03T10:37:40Z</time>
      </trkpt>
      <trkpt lat="58.819777" lon="17.32483">
        <ele>26.2</ele>
        <time>2017-09-03T10:37:41Z</time>
      </trkpt>
      <trkpt lat="58.819853" lon="17.324842">
        <ele>26.4</ele>
        <time>2017-09-03T10:37:42Z</time>
      </trkpt>
      <trkpt lat="58.81993" lon="17.324852">
        <ele>26.6</ele>
        <time>2017-09-03T10:37:43Z</time>
      </trkpt>
      <trkpt lat="58.820007" lon="17.324859">
        <ele>26.8</ele>
        <time>2017-09-03T10:37:44Z</time>
      </trkpt>
      <trkpt lat="58.820085" lon="17.324867">
        <ele>27</ele>
        <time>2017-09-03T10:37:45Z</time>
      </trkpt>
      <trkpt lat="58.820161" lon="17.324875">
        <ele>27.4</ele>
        <time>2017-09-03T10:37:46Z</time>
      </trkpt>
      <trkpt lat="58.820238" lon="17.324879">
        <ele>27.8</ele>
        <time>2017-09-03T10:37:47Z</time>
      </trkpt>
      <trkpt lat="58.820316" lon="17.324887">
        <ele>28</ele>
        <time>2017-09-03T10:37:48Z</time>
      </trkpt>
      <trkpt lat="58.820395" lon="17.324897">
        <ele>28.2</ele>
        <time>2017-09-03T10:37:49Z</time>
      </trkpt>
      <trkpt lat="58.820476" lon="17.324908">
        <ele>28.2</ele>
        <time>2017-09-03T10:37:50Z</time>
      </trkpt>
      <trkpt lat="58.820558" lon="17.324917">
        <ele>28.4</ele>
        <time>2017-09-03T10:37:51Z</time>
      </trkpt>
      <trkpt lat="58.820641" lon="17.324927">
        <ele>28.4</ele>
        <time>2017-09-03T10:37:52Z</time>
      </trkpt>
      <trkpt lat="58.820724" lon="17.324937">
        <ele>28.4</ele>
        <time>2017-09-03T10:37:53Z</time>
      </trkpt>
      <trkpt lat="58.820805" lon="17.324947">
        <ele>28.4</ele>
        <time>2017-09-03T10:37:54Z</time>
      </trkpt>
      <trkpt lat="58.820887" lon="17.324956">
        <ele>28.6</ele>
        <time>2017-09-03T10:37:55Z</time>
      </trkpt>
      <trkpt lat="58.820966" lon="17.324965">
        <ele>28.6</ele>
        <time>2017-09-03T10:37:56Z</time>
      </trkpt>
      <trkpt lat="58.821043" lon="17.324971">
        <ele>28.6</ele>
        <time>2017-09-03T10:37:57Z</time>
      </trkpt>
      <trkpt lat="58.821118" lon="17.324977">
        <ele>28.6</ele>
        <time>2017-09-03T10:37:58Z</time>
      </trkpt>
      <trkpt lat="58.82119" lon="17.324982">
        <ele>28.8</ele>
        <time>2017-09-03T10:37:59Z</time>
      </trkpt>
      <trkpt lat="58.821262" lon="17.324985">
        <ele>28.8</ele>
        <time>2017-09-03T10:38:00Z</time>
      </trkpt>
      <trkpt lat="58.821333" lon="17.32499">
        <ele>29</ele>
        <time>2017-09-03T10:38:01Z</time>
      </trkpt>
      <trkpt lat="58.821404" lon="17.324994">
        <ele>28.8</ele>
        <time>2017-09-03T10:38:02Z</time>
      </trkpt>
      <trkpt lat="58.821477" lon="17.324995">
        <ele>29.2</ele>
        <time>2017-09-03T10:38:03Z</time>
      </trkpt>
      <trkpt lat="58.821551" lon="17.324997">
        <ele>29.2</ele>
        <time>2017-09-03T10:38:04Z</time>
      </trkpt>
      <trkpt lat="58.821628" lon="17.325001">
        <ele>29.4</ele>
        <time>2017-09-03T10:38:05Z</time>
      </trkpt>
      <trkpt lat="58.821704" lon="17.325002">
        <ele>29.4</ele>
        <time>2017-09-03T10:38:06Z</time>
      </trkpt>
      <trkpt lat="58.821778" lon="17.324999">
        <ele>29.6</ele>
        <time>2017-09-03T10:38:07Z</time>
      </trkpt>
      <trkpt lat="58.821852" lon="17.324995">
        <ele>29.6</ele>
        <time>2017-09-03T10:38:08Z</time>
      </trkpt>
      <trkpt lat="58.821925" lon="17.324989">
        <ele>29.8</ele>
        <time>2017-09-03T10:38:09Z</time>
      </trkpt>
      <trkpt lat="58.821998" lon="17.324979">
        <ele>29.8</ele>
        <time>2017-09-03T10:38:10Z</time>
      </trkpt>
      <trkpt lat="58.822073" lon="17.32497">
        <ele>30</ele>
        <time>2017-09-03T10:38:11Z</time>
      </trkpt>
      <trkpt lat="58.822151" lon="17.324955">
        <ele>30</ele>
        <time>2017-09-03T10:38:12Z</time>
      </trkpt>
      <trkpt lat="58.822234" lon="17.324931">
        <ele>30</ele>
        <time>2017-09-03T10:38:13Z</time>
      </trkpt>
      <trkpt lat="58.822318" lon="17.324899">
        <ele>30.2</ele>
        <time>2017-09-03T10:38:14Z</time>
      </trkpt>
      <trkpt lat="58.822401" lon="17.324863">
        <ele>30.2</ele>
        <time>2017-09-03T10:38:15Z</time>
      </trkpt>
      <trkpt lat="58.82248" lon="17.324821">
        <ele>30.2</ele>
        <time>2017-09-03T10:38:16Z</time>
      </trkpt>
      <trkpt lat="58.822556" lon="17.324777">
        <ele>30.2</ele>
        <time>2017-09-03T10:38:17Z</time>
      </trkpt>
      <trkpt lat="58.822632" lon="17.324732">
        <ele>30.2</ele>
        <time>2017-09-03T10:38:18Z</time>
      </trkpt>
      <trkpt lat="58.82271" lon="17.324686">
        <ele>30.2</ele>
        <time>2017-09-03T10:38:19Z</time>
      </trkpt>
      <trkpt lat="58.822789" lon="17.324638">
        <ele>30.2</ele>
        <time>2017-09-03T10:38:20Z</time>
      </trkpt>
      <trkpt lat="58.822867" lon="17.324589">
        <ele>30.2</ele>
        <time>2017-09-03T10:38:21Z</time>
      </trkpt>
      <trkpt lat="58.822947" lon="17.324536">
        <ele>30.2</ele>
        <time>2017-09-03T10:38:22Z</time>
      </trkpt>
      <trkpt lat="58.82303" lon="17.324481">
        <ele>30.2</ele>
        <time>2017-09-03T10:38:23Z</time>
      </trkpt>
      <trkpt lat="58.823113" lon="17.324427">
        <ele>30.2</ele>
        <time>2017-09-03T10:38:24Z</time>
      </trkpt>
      <trkpt lat="58.823196" lon="17.324373">
        <ele>30.2</ele>
        <time>2017-09-03T10:38:25Z</time>
      </trkpt>
      <trkpt lat="58.823277" lon="17.324321">
        <ele>30.2</ele>
        <time>2017-09-03T10:38:26Z</time>
      </trkpt>
      <trkpt lat="58.823356" lon="17.32427">
        <ele>30.2</ele>
        <time>2017-09-03T10:38:27Z</time>
      </trkpt>
      <trkpt lat="58.823438" lon="17.324214">
        <ele>30.2</ele>
        <time>2017-09-03T10:38:28Z</time>
      </trkpt>
      <trkpt lat="58.823524" lon="17.324156">
        <ele>30</ele>
        <time>2017-09-03T10:38:29Z</time>
      </trkpt>
      <trkpt lat="58.823612" lon="17.324096">
        <ele>30</ele>
        <time>2017-09-03T10:38:30Z</time>
      </trkpt>
      <trkpt lat="58.823706" lon="17.324032">
        <ele>30</ele>
        <time>2017-09-03T10:38:31Z</time>
      </trkpt>
      <trkpt lat="58.823802" lon="17.323966">
        <ele>29.8</ele>
        <time>2017-09-03T10:38:32Z</time>
      </trkpt>
      <trkpt lat="58.823899" lon="17.3239">
        <ele>29.8</ele>
        <time>2017-09-03T10:38:33Z</time>
      </trkpt>
      <trkpt lat="58.823998" lon="17.323834">
        <ele>29.6</ele>
        <time>2017-09-03T10:38:34Z</time>
      </trkpt>
      <trkpt lat="58.824099" lon="17.323773">
        <ele>29.4</ele>
        <time>2017-09-03T10:38:35Z</time>
      </trkpt>
      <trkpt lat="58.8242" lon="17.323715">
        <ele>29.4</ele>
        <time>2017-09-03T10:38:36Z</time>
      </trkpt>
      <trkpt lat="58.824302" lon="17.32365">
        <ele>29.4</ele>
        <time>2017-09-03T10:38:37Z</time>
      </trkpt>
      <trkpt lat="58.824404" lon="17.32359">
        <ele>29.4</ele>
        <time>2017-09-03T10:38:38Z</time>
      </trkpt>
      <trkpt lat="58.824507" lon="17.323526">
        <ele>29.2</ele>
        <time>2017-09-03T10:38:39Z</time>
      </trkpt>
      <trkpt lat="58.82461" lon="17.323461">
        <ele>29</ele>
        <time>2017-09-03T10:38:40Z</time>
      </trkpt>
      <trkpt lat="58.824715" lon="17.3234">
        <ele>28.8</ele>
        <time>2017-09-03T10:38:41Z</time>
      </trkpt>
      <trkpt lat="58.824823" lon="17.323337">
        <ele>28.2</ele>
        <time>2017-09-03T10:38:42Z</time>
      </trkpt>
      <trkpt lat="58.824932" lon="17.323271">
        <ele>27.6</ele>
        <time>2017-09-03T10:38:43Z</time>
      </trkpt>
      <trkpt lat="58.825041" lon="17.323202">
        <ele>26.8</ele>
        <time>2017-09-03T10:38:44Z</time>
      </trkpt>
      <trkpt lat="58.825149" lon="17.32313">
        <ele>26.2</ele>
        <time>2017-09-03T10:38:45Z</time>
      </trkpt>
      <trkpt lat="58.82526" lon="17.323067">
        <ele>25.8</ele>
        <time>2017-09-03T10:38:46Z</time>
      </trkpt>
      <trkpt lat="58.825371" lon="17.323002">
        <ele>25.6</ele>
        <time>2017-09-03T10:38:47Z</time>
      </trkpt>
      <trkpt lat="58.825478" lon="17.322934">
        <ele>25.4</ele>
        <time>2017-09-03T10:38:48Z</time>
      </trkpt>
      <trkpt lat="58.825586" lon="17.322866">
        <ele>25.4</ele>
        <time>2017-09-03T10:38:49Z</time>
      </trkpt>
      <trkpt lat="58.825693" lon="17.322797">
        <ele>25.2</ele>
        <time>2017-09-03T10:38:50Z</time>
      </trkpt>
      <trkpt lat="58.825799" lon="17.322731">
        <ele>25.2</ele>
        <time>2017-09-03T10:38:51Z</time>
      </trkpt>
      <trkpt lat="58.825907" lon="17.322664">
        <ele>25</ele>
        <time>2017-09-03T10:38:52Z</time>
      </trkpt>
      <trkpt lat="58.826014" lon="17.322594">
        <ele>25</ele>
        <time>2017-09-03T10:38:53Z</time>
      </trkpt>
      <trkpt lat="58.82612" lon="17.322524">
        <ele>25</ele>
        <time>2017-09-03T10:38:54Z</time>
      </trkpt>
      <trkpt lat="58.826224" lon="17.32245">
        <ele>25</ele>
        <time>2017-09-03T10:38:55Z</time>
      </trkpt>
      <trkpt lat="58.826328" lon="17.322377">
        <ele>25</ele>
        <time>2017-09-03T10:38:56Z</time>
      </trkpt>
      <trkpt lat="58.826432" lon="17.322308">
        <ele>25</ele>
        <time>2017-09-03T10:38:57Z</time>
      </trkpt>
      <trkpt lat="58.826536" lon="17.322243">
        <ele>25</ele>
        <time>2017-09-03T10:38:58Z</time>
      </trkpt>
      <trkpt lat="58.826637" lon="17.322177">
        <ele>25</ele>
        <time>2017-09-03T10:38:59Z</time>
      </trkpt>
      <trkpt lat="58.826736" lon="17.322111">
        <ele>25</ele>
        <time>2017-09-03T10:39:00Z</time>
      </trkpt>
      <trkpt lat="58.826835" lon="17.322047">
        <ele>25</ele>
        <time>2017-09-03T10:39:01Z</time>
      </trkpt>
      <trkpt lat="58.826933" lon="17.321983">
        <ele>25</ele>
        <time>2017-09-03T10:39:02Z</time>
      </trkpt>
      <trkpt lat="58.827033" lon="17.321918">
        <ele>25</ele>
        <time>2017-09-03T10:39:03Z</time>
      </trkpt>
      <trkpt lat="58.827132" lon="17.321854">
        <ele>25</ele>
        <time>2017-09-03T10:39:04Z</time>
      </trkpt>
      <trkpt lat="58.827231" lon="17.32179">
        <ele>25</ele>
        <time>2017-09-03T10:39:05Z</time>
      </trkpt>
      <trkpt lat="58.827327" lon="17.321728">
        <ele>25.2</ele>
        <time>2017-09-03T10:39:06Z</time>
      </trkpt>
      <trkpt lat="58.827424" lon="17.321667">
        <ele>25.2</ele>
        <time>2017-09-03T10:39:07Z</time>
      </trkpt>
      <trkpt lat="58.827523" lon="17.321608">
        <ele>25.2</ele>
        <time>2017-09-03T10:39:08Z</time>
      </trkpt>
      <trkpt lat="58.827622" lon="17.321551">
        <ele>25.2</ele>
        <time>2017-09-03T10:39:09Z</time>
      </trkpt>
      <trkpt lat="58.827719" lon="17.321494">
        <ele>25.2</ele>
        <time>2017-09-03T10:39:10Z</time>
      </trkpt>
      <trkpt lat="58.827816" lon="17.321443">
        <ele>25.2</ele>
        <time>2017-09-03T10:39:11Z</time>
      </trkpt>
      <trkpt lat="58.827914" lon="17.321392">
        <ele>25.2</ele>
        <time>2017-09-03T10:39:12Z</time>
      </trkpt>
      <trkpt lat="58.828008" lon="17.321343">
        <ele>25.4</ele>
        <time>2017-09-03T10:39:13Z</time>
      </trkpt>
      <trkpt lat="58.828101" lon="17.321291">
        <ele>25.4</ele>
        <time>2017-09-03T10:39:14Z</time>
      </trkpt>
      <trkpt lat="58.828194" lon="17.32124">
        <ele>25.4</ele>
        <time>2017-09-03T10:39:15Z</time>
      </trkpt>
      <trkpt lat="58.828287" lon="17.32119">
        <ele>25.4</ele>
        <time>2017-09-03T10:39:16Z</time>
      </trkpt>
      <trkpt lat="58.828379" lon="17.321139">
        <ele>25.4</ele>
        <time>2017-09-03T10:39:17Z</time>
      </trkpt>
      <trkpt lat="58.82847" lon="17.321088">
        <ele>25.4</ele>
        <time>2017-09-03T10:39:18Z</time>
      </trkpt>
      <trkpt lat="58.828562" lon="17.321037">
        <ele>25.4</ele>
        <time>2017-09-03T10:39:19Z</time>
      </trkpt>
      <trkpt lat="58.828651" lon="17.320985">
        <ele>25.4</ele>
        <time>2017-09-03T10:39:20Z</time>
      </trkpt>
      <trkpt lat="58.82874" lon="17.320935">
        <ele>25.4</ele>
        <time>2017-09-03T10:39:21Z</time>
      </trkpt>
      <trkpt lat="58.828828" lon="17.320886">
        <ele>25.4</ele>
        <time>2017-09-03T10:39:22Z</time>
      </trkpt>
      <trkpt lat="58.828918" lon="17.320834">
        <ele>25.4</ele>
        <time>2017-09-03T10:39:23Z</time>
      </trkpt>
      <trkpt lat="58.829011" lon="17.320784">
        <ele>25.4</ele>
        <time>2017-09-03T10:39:24Z</time>
      </trkpt>
      <trkpt lat="58.829105" lon="17.320737">
        <ele>25.6</ele>
        <time>2017-09-03T10:39:25Z</time>
      </trkpt>
      <trkpt lat="58.829199" lon="17.320684">
        <ele>25.6</ele>
        <time>2017-09-03T10:39:26Z</time>
      </trkpt>
      <trkpt lat="58.829295" lon="17.320629">
        <ele>25.6</ele>
        <time>2017-09-03T10:39:27Z</time>
      </trkpt>
      <trkpt lat="58.829392" lon="17.320574">
        <ele>25.6</ele>
        <time>2017-09-03T10:39:28Z</time>
      </trkpt>
      <trkpt lat="58.82949" lon="17.320521">
        <ele>25.6</ele>
        <time>2017-09-03T10:39:29Z</time>
      </trkpt>
      <trkpt lat="58.829589" lon="17.320467">
        <ele>25.6</ele>
        <time>2017-09-03T10:39:30Z</time>
      </trkpt>
      <trkpt lat="58.829688" lon="17.320413">
        <ele>25.6</ele>
        <time>2017-09-03T10:39:31Z</time>
      </trkpt>
      <trkpt lat="58.829786" lon="17.320359">
        <ele>25.6</ele>
        <time>2017-09-03T10:39:32Z</time>
      </trkpt>
      <trkpt lat="58.829885" lon="17.320303">
        <ele>25.6</ele>
        <time>2017-09-03T10:39:33Z</time>
      </trkpt>
      <trkpt lat="58.829983" lon="17.320248">
        <ele>25.4</ele>
        <time>2017-09-03T10:39:34Z</time>
      </trkpt>
      <trkpt lat="58.830083" lon="17.320191">
        <ele>25.4</ele>
        <time>2017-09-03T10:39:35Z</time>
      </trkpt>
      <trkpt lat="58.830184" lon="17.320133">
        <ele>25.4</ele>
        <time>2017-09-03T10:39:36Z</time>
      </trkpt>
      <trkpt lat="58.830282" lon="17.320068">
        <ele>25.4</ele>
        <time>2017-09-03T10:39:37Z</time>
      </trkpt>
      <trkpt lat="58.830379" lon="17.32">
        <ele>25.4</ele>
        <time>2017-09-03T10:39:38Z</time>
      </trkpt>
      <trkpt lat="58.830475" lon="17.319932">
        <ele>25.4</ele>
        <time>2017-09-03T10:39:39Z</time>
      </trkpt>
      <trkpt lat="58.83057" lon="17.319862">
        <ele>25.4</ele>
        <time>2017-09-03T10:39:40Z</time>
      </trkpt>
      <trkpt lat="58.830663" lon="17.31979">
        <ele>25.2</ele>
        <time>2017-09-03T10:39:41Z</time>
      </trkpt>
      <trkpt lat="58.830756" lon="17.319715">
        <ele>25.2</ele>
        <time>2017-09-03T10:39:42Z</time>
      </trkpt>
      <trkpt lat="58.830847" lon="17.319636">
        <ele>25</ele>
        <time>2017-09-03T10:39:43Z</time>
      </trkpt>
      <trkpt lat="58.830937" lon="17.31955">
        <ele>25</ele>
        <time>2017-09-03T10:39:44Z</time>
      </trkpt>
      <trkpt lat="58.831026" lon="17.319459">
        <ele>25</ele>
        <time>2017-09-03T10:39:45Z</time>
      </trkpt>
      <trkpt lat="58.831114" lon="17.319365">
        <ele>25</ele>
        <time>2017-09-03T10:39:46Z</time>
      </trkpt>
      <trkpt lat="58.831201" lon="17.319266">
        <ele>25</ele>
        <time>2017-09-03T10:39:47Z</time>
      </trkpt>
      <trkpt lat="58.831286" lon="17.319164">
        <ele>25</ele>
        <time>2017-09-03T10:39:48Z</time>
      </trkpt>
      <trkpt lat="58.83137" lon="17.31906">
        <ele>25.2</ele>
        <time>2017-09-03T10:39:49Z</time>
      </trkpt>
      <trkpt lat="58.831451" lon="17.318952">
        <ele>25.2</ele>
        <time>2017-09-03T10:39:50Z</time>
      </trkpt>
      <trkpt lat="58.831534" lon="17.31884">
        <ele>25.2</ele>
        <time>2017-09-03T10:39:51Z</time>
      </trkpt>
      <trkpt lat="58.831616" lon="17.318724">
        <ele>25.4</ele>
        <time>2017-09-03T10:39:52Z</time>
      </trkpt>
      <trkpt lat="58.831699" lon="17.318599">
        <ele>25.4</ele>
        <time>2017-09-03T10:39:53Z</time>
      </trkpt>
      <trkpt lat="58.831778" lon="17.31847">
        <ele>25.6</ele>
        <time>2017-09-03T10:39:54Z</time>
      </trkpt>
      <trkpt lat="58.831858" lon="17.318334">
        <ele>25.6</ele>
        <time>2017-09-03T10:39:55Z</time>
      </trkpt>
      <trkpt lat="58.831939" lon="17.318193">
        <ele>25.8</ele>
        <time>2017-09-03T10:39:56Z</time>
      </trkpt>
      <trkpt lat="58.832019" lon="17.31805">
        <ele>25.8</ele>
        <time>2017-09-03T10:39:57Z</time>
      </trkpt>
      <trkpt lat="58.832097" lon="17.317906">
        <ele>25.8</ele>
        <time>2017-09-03T10:39:58Z</time>
      </trkpt>
      <trkpt lat="58.832171" lon="17.317758">
        <ele>25.8</ele>
        <time>2017-09-03T10:39:59Z</time>
      </trkpt>
      <trkpt lat="58.832245" lon="17.31761">
        <ele>25.8</ele>
        <time>2017-09-03T10:40:00Z</time>
      </trkpt>
      <trkpt lat="58.832319" lon="17.317461">
        <ele>25.8</ele>
        <time>2017-09-03T10:40:01Z</time>
      </trkpt>
      <trkpt lat="58.832392" lon="17.317315">
        <ele>25.8</ele>
        <time>2017-09-03T10:40:02Z</time>
      </trkpt>
      <trkpt lat="58.832466" lon="17.317178">
        <ele>25.8</ele>
        <time>2017-09-03T10:40:03Z</time>
      </trkpt>
      <trkpt lat="58.832538" lon="17.31704">
        <ele>25.8</ele>
        <time>2017-09-03T10:40:04Z</time>
      </trkpt>
      <trkpt lat="58.832609" lon="17.316901">
        <ele>25.8</ele>
        <time>2017-09-03T10:40:05Z</time>
      </trkpt>
      <trkpt lat="58.83268" lon="17.316762">
        <ele>25.8</ele>
        <time>2017-09-03T10:40:06Z</time>
      </trkpt>
      <trkpt lat="58.83275" lon="17.316624">
        <ele>25.6</ele>
        <time>2017-09-03T10:40:07Z</time>
      </trkpt>
      <trkpt lat="58.832817" lon="17.316485">
        <ele>25.6</ele>
        <time>2017-09-03T10:40:08Z</time>
      </trkpt>
      <trkpt lat="58.832883" lon="17.316345">
        <ele>25.6</ele>
        <time>2017-09-03T10:40:09Z</time>
      </trkpt>
      <trkpt lat="58.832948" lon="17.316205">
        <ele>25.6</ele>
        <time>2017-09-03T10:40:10Z</time>
      </trkpt>
      <trkpt lat="58.833012" lon="17.316065">
        <ele>25.6</ele>
        <time>2017-09-03T10:40:11Z</time>
      </trkpt>
      <trkpt lat="58.833074" lon="17.315922">
        <ele>25.6</ele>
        <time>2017-09-03T10:40:12Z</time>
      </trkpt>
      <trkpt lat="58.833136" lon="17.315775">
        <ele>25.6</ele>
        <time>2017-09-03T10:40:13Z</time>
      </trkpt>
      <trkpt lat="58.833196" lon="17.315626">
        <ele>25.6</ele>
        <time>2017-09-03T10:40:14Z</time>
      </trkpt>
      <trkpt lat="58.833253" lon="17.315476">
        <ele>25.6</ele>
        <time>2017-09-03T10:40:15Z</time>
      </trkpt>
      <trkpt lat="58.83331" lon="17.315326">
        <ele>25.8</ele>
        <time>2017-09-03T10:40:16Z</time>
      </trkpt>
      <trkpt lat="58.833367" lon="17.315176">
        <ele>26</ele>
        <time>2017-09-03T10:40:17Z</time>
      </trkpt>
      <trkpt lat="58.833423" lon="17.315024">
        <ele>26.2</ele>
        <time>2017-09-03T10:40:18Z</time>
      </trkpt>
      <trkpt lat="58.833477" lon="17.314868">
        <ele>26.6</ele>
        <time>2017-09-03T10:40:19Z</time>
      </trkpt>
      <trkpt lat="58.833528" lon="17.314708">
        <ele>26.8</ele>
        <time>2017-09-03T10:40:20Z</time>
      </trkpt>
      <trkpt lat="58.833576" lon="17.314546">
        <ele>27</ele>
        <time>2017-09-03T10:40:21Z</time>
      </trkpt>
      <trkpt lat="58.833624" lon="17.314387">
        <ele>27</ele>
        <time>2017-09-03T10:40:22Z</time>
      </trkpt>
      <trkpt lat="58.83367" lon="17.314226">
        <ele>27.2</ele>
        <time>2017-09-03T10:40:23Z</time>
      </trkpt>
      <trkpt lat="58.833713" lon="17.314059">
        <ele>27.4</ele>
        <time>2017-09-03T10:40:24Z</time>
      </trkpt>
      <trkpt lat="58.833751" lon="17.313889">
        <ele>27.6</ele>
        <time>2017-09-03T10:40:25Z</time>
      </trkpt>
      <trkpt lat="58.833788" lon="17.313717">
        <ele>27.6</ele>
        <time>2017-09-03T10:40:26Z</time>
      </trkpt>
      <trkpt lat="58.833824" lon="17.313546">
        <ele>27.8</ele>
        <time>2017-09-03T10:40:27Z</time>
      </trkpt>
      <trkpt lat="58.833858" lon="17.313375">
        <ele>27.8</ele>
        <time>2017-09-03T10:40:28Z</time>
      </trkpt>
      <trkpt lat="58.83389" lon="17.313198">
        <ele>28</ele>
        <time>2017-09-03T10:40:29Z</time>
      </trkpt>
      <trkpt lat="58.83392" lon="17.313014">
        <ele>28.2</ele>
        <time>2017-09-03T10:40:30Z</time>
      </trkpt>
      <trkpt lat="58.83395" lon="17.312825">
        <ele>28.4</ele>
        <time>2017-09-03T10:40:31Z</time>
      </trkpt>
      <trkpt lat="58.83398" lon="17.312633">
        <ele>28.4</ele>
        <time>2017-09-03T10:40:32Z</time>
      </trkpt>
      <trkpt lat="58.834008" lon="17.31244">
        <ele>28.6</ele>
        <time>2017-09-03T10:40:33Z</time>
      </trkpt>
      <trkpt lat="58.834035" lon="17.312247">
        <ele>28.6</ele>
        <time>2017-09-03T10:40:34Z</time>
      </trkpt>
      <trkpt lat="58.834062" lon="17.312059">
        <ele>28.8</ele>
        <time>2017-09-03T10:40:35Z</time>
      </trkpt>
      <trkpt lat="58.834088" lon="17.311871">
        <ele>28.8</ele>
        <time>2017-09-03T10:40:36Z</time>
      </trkpt>
      <trkpt lat="58.834114" lon="17.31168">
        <ele>29</ele>
        <time>2017-09-03T10:40:37Z</time>
      </trkpt>
      <trkpt lat="58.83414" lon="17.31149">
        <ele>29</ele>
        <time>2017-09-03T10:40:38Z</time>
      </trkpt>
      <trkpt lat="58.834168" lon="17.311298">
        <ele>29</ele>
        <time>2017-09-03T10:40:39Z</time>
      </trkpt>
      <trkpt lat="58.834196" lon="17.311107">
        <ele>29.2</ele>
        <time>2017-09-03T10:40:40Z</time>
      </trkpt>
      <trkpt lat="58.834225" lon="17.310915">
        <ele>29.2</ele>
        <time>2017-09-03T10:40:41Z</time>
      </trkpt>
      <trkpt lat="58.834254" lon="17.31072">
        <ele>29.2</ele>
        <time>2017-09-03T10:40:42Z</time>
      </trkpt>
      <trkpt lat="58.834283" lon="17.310523">
        <ele>29.2</ele>
        <time>2017-09-03T10:40:43Z</time>
      </trkpt>
      <trkpt lat="58.834313" lon="17.310328">
        <ele>29.2</ele>
        <time>2017-09-03T10:40:44Z</time>
      </trkpt>
      <trkpt lat="58.834344" lon="17.310133">
        <ele>29.2</ele>
        <time>2017-09-03T10:40:45Z</time>
      </trkpt>
      <trkpt lat="58.834376" lon="17.30994">
        <ele>29.2</ele>
        <time>2017-09-03T10:40:46Z</time>
      </trkpt>
      <trkpt lat="58.834409" lon="17.309747">
        <ele>29</ele>
        <time>2017-09-03T10:40:47Z</time>
      </trkpt>
      <trkpt lat="58.83444" lon="17.309555">
        <ele>29</ele>
        <time>2017-09-03T10:40:48Z</time>
      </trkpt>
      <trkpt lat="58.834474" lon="17.309366">
        <ele>28.8</ele>
        <time>2017-09-03T10:40:49Z</time>
      </trkpt>
      <trkpt lat="58.83451" lon="17.309177">
        <ele>28.8</ele>
        <time>2017-09-03T10:40:50Z</time>
      </trkpt>
      <trkpt lat="58.834548" lon="17.308988">
        <ele>28.8</ele>
        <time>2017-09-03T10:40:51Z</time>
      </trkpt>
      <trkpt lat="58.834586" lon="17.3088">
        <ele>28.2</ele>
        <time>2017-09-03T10:40:52Z</time>
      </trkpt>
      <trkpt lat="58.834623" lon="17.308614">
        <ele>27.8</ele>
        <time>2017-09-03T10:40:53Z</time>
      </trkpt>
      <trkpt lat="58.834664" lon="17.30843">
        <ele>27.4</ele>
        <time>2017-09-03T10:40:54Z</time>
      </trkpt>
      <trkpt lat="58.834708" lon="17.308249">
        <ele>27.2</ele>
        <time>2017-09-03T10:40:55Z</time>
      </trkpt>
      <trkpt lat="58.834755" lon="17.308068">
        <ele>27</ele>
        <time>2017-09-03T10:40:56Z</time>
      </trkpt>
      <trkpt lat="58.834803" lon="17.307884">
        <ele>26.8</ele>
        <time>2017-09-03T10:40:57Z</time>
      </trkpt>
      <trkpt lat="58.834851" lon="17.307699">
        <ele>26.6</ele>
        <time>2017-09-03T10:40:58Z</time>
      </trkpt>
      <trkpt lat="58.8349" lon="17.307513">
        <ele>26.4</ele>
        <time>2017-09-03T10:40:59Z</time>
      </trkpt>
      <trkpt lat="58.83495" lon="17.307324">
        <ele>26.2</ele>
        <time>2017-09-03T10:41:00Z</time>
      </trkpt>
      <trkpt lat="58.835002" lon="17.307135">
        <ele>25.8</ele>
        <time>2017-09-03T10:41:01Z</time>
      </trkpt>
      <trkpt lat="58.835055" lon="17.306949">
        <ele>25.4</ele>
        <time>2017-09-03T10:41:02Z</time>
      </trkpt>
      <trkpt lat="58.83511" lon="17.306761">
        <ele>24.8</ele>
        <time>2017-09-03T10:41:03Z</time>
      </trkpt>
      <trkpt lat="58.835165" lon="17.306574">
        <ele>24.4</ele>
        <time>2017-09-03T10:41:04Z</time>
      </trkpt>
      <trkpt lat="58.835222" lon="17.306388">
        <ele>24.2</ele>
        <time>2017-09-03T10:41:05Z</time>
      </trkpt>
      <trkpt lat="58.835278" lon="17.306204">
        <ele>23.8</ele>
        <time>2017-09-03T10:41:06Z</time>
      </trkpt>
      <trkpt lat="58.835337" lon="17.306023">
        <ele>23.6</ele>
        <time>2017-09-03T10:41:07Z</time>
      </trkpt>
      <trkpt lat="58.835397" lon="17.305844">
        <ele>23.4</ele>
        <time>2017-09-03T10:41:08Z</time>
      </trkpt>
      <trkpt lat="58.835459" lon="17.305669">
        <ele>23</ele>
        <time>2017-09-03T10:41:09Z</time>
      </trkpt>
      <trkpt lat="58.835521" lon="17.305496">
        <ele>22.8</ele>
        <time>2017-09-03T10:41:10Z</time>
      </trkpt>
      <trkpt lat="58.835584" lon="17.305326">
        <ele>22.8</ele>
        <time>2017-09-03T10:41:11Z</time>
      </trkpt>
      <trkpt lat="58.835648" lon="17.305157">
        <ele>22.6</ele>
        <time>2017-09-03T10:41:12Z</time>
      </trkpt>
      <trkpt lat="58.835713" lon="17.304991">
        <ele>22.6</ele>
        <time>2017-09-03T10:41:13Z</time>
      </trkpt>
      <trkpt lat="58.835778" lon="17.304826">
        <ele>22.6</ele>
        <time>2017-09-03T10:41:14Z</time>
      </trkpt>
      <trkpt lat="58.835844" lon="17.304663">
        <ele>22.6</ele>
        <time>2017-09-03T10:41:15Z</time>
      </trkpt>
      <trkpt lat="58.835912" lon="17.304501">
        <ele>22.6</ele>
        <time>2017-09-03T10:41:16Z</time>
      </trkpt>
      <trkpt lat="58.83598" lon="17.304342">
        <ele>22.6</ele>
        <time>2017-09-03T10:41:17Z</time>
      </trkpt>
      <trkpt lat="58.836047" lon="17.304184">
        <ele>22.6</ele>
        <time>2017-09-03T10:41:18Z</time>
      </trkpt>
      <trkpt lat="58.836113" lon="17.304031">
        <ele>22.4</ele>
        <time>2017-09-03T10:41:19Z</time>
      </trkpt>
      <trkpt lat="58.83618" lon="17.303882">
        <ele>22.2</ele>
        <time>2017-09-03T10:41:20Z</time>
      </trkpt>
      <trkpt lat="58.836246" lon="17.303735">
        <ele>22.2</ele>
        <time>2017-09-03T10:41:21Z</time>
      </trkpt>
      <trkpt lat="58.836313" lon="17.303592">
        <ele>22.2</ele>
        <time>2017-09-03T10:41:22Z</time>
      </trkpt>
      <trkpt lat="58.836381" lon="17.303453">
        <ele>22.2</ele>
        <time>2017-09-03T10:41:23Z</time>
      </trkpt>
      <trkpt lat="58.836451" lon="17.303315">
        <ele>22.2</ele>
        <time>2017-09-03T10:41:24Z</time>
      </trkpt>
      <trkpt lat="58.836522" lon="17.303175">
        <ele>22.2</ele>
        <time>2017-09-03T10:41:25Z</time>
      </trkpt>
      <trkpt lat="58.836595" lon="17.303037">
        <ele>22</ele>
        <time>2017-09-03T10:41:26Z</time>
      </trkpt>
      <trkpt lat="58.83667" lon="17.302899">
        <ele>22</ele>
        <time>2017-09-03T10:41:27Z</time>
      </trkpt>
      <trkpt lat="58.836748" lon="17.302757">
        <ele>22</ele>
        <time>2017-09-03T10:41:28Z</time>
      </trkpt>
      <trkpt lat="58.836827" lon="17.302615">
        <ele>22</ele>
        <time>2017-09-03T10:41:29Z</time>
      </trkpt>
      <trkpt lat="58.836907" lon="17.302476">
        <ele>22</ele>
        <time>2017-09-03T10:41:30Z</time>
      </trkpt>
      <trkpt lat="58.836988" lon="17.302336">
        <ele>22</ele>
        <time>2017-09-03T10:41:31Z</time>
      </trkpt>
      <trkpt lat="58.83707" lon="17.302196">
        <ele>22</ele>
        <time>2017-09-03T10:41:32Z</time>
      </trkpt>
      <trkpt lat="58.837153" lon="17.302059">
        <ele>22.2</ele>
        <time>2017-09-03T10:41:33Z</time>
      </trkpt>
      <trkpt lat="58.837238" lon="17.301925">
        <ele>22.4</ele>
        <time>2017-09-03T10:41:34Z</time>
      </trkpt>
      <trkpt lat="58.837324" lon="17.301793">
        <ele>22.6</ele>
        <time>2017-09-03T10:41:35Z</time>
      </trkpt>
      <trkpt lat="58.837409" lon="17.301659">
        <ele>22.8</ele>
        <time>2017-09-03T10:41:36Z</time>
      </trkpt>
      <trkpt lat="58.837495" lon="17.301529">
        <ele>23.4</ele>
        <time>2017-09-03T10:41:37Z</time>
      </trkpt>
      <trkpt lat="58.837582" lon="17.301404">
        <ele>23.6</ele>
        <time>2017-09-03T10:41:38Z</time>
      </trkpt>
      <trkpt lat="58.83767" lon="17.301284">
        <ele>23.8</ele>
        <time>2017-09-03T10:41:39Z</time>
      </trkpt>
      <trkpt lat="58.837756" lon="17.301166">
        <ele>23.8</ele>
        <time>2017-09-03T10:41:40Z</time>
      </trkpt>
      <trkpt lat="58.837843" lon="17.301046">
        <ele>23.8</ele>
        <time>2017-09-03T10:41:41Z</time>
      </trkpt>
      <trkpt lat="58.837929" lon="17.300926">
        <ele>23.8</ele>
        <time>2017-09-03T10:41:42Z</time>
      </trkpt>
      <trkpt lat="58.838016" lon="17.300811">
        <ele>24</ele>
        <time>2017-09-03T10:41:43Z</time>
      </trkpt>
      <trkpt lat="58.838105" lon="17.300702">
        <ele>24</ele>
        <time>2017-09-03T10:41:44Z</time>
      </trkpt>
      <trkpt lat="58.838194" lon="17.300602">
        <ele>24</ele>
        <time>2017-09-03T10:41:45Z</time>
      </trkpt>
      <trkpt lat="58.838282" lon="17.300505">
        <ele>23.8</ele>
        <time>2017-09-03T10:41:46Z</time>
      </trkpt>
      <trkpt lat="58.83837" lon="17.300406">
        <ele>23.8</ele>
        <time>2017-09-03T10:41:47Z</time>
      </trkpt>
      <trkpt lat="58.838459" lon="17.300307">
        <ele>23.4</ele>
        <time>2017-09-03T10:41:48Z</time>
      </trkpt>
      <trkpt lat="58.838549" lon="17.300212">
        <ele>22.6</ele>
        <time>2017-09-03T10:41:49Z</time>
      </trkpt>
      <trkpt lat="58.83864" lon="17.300119">
        <ele>22.2</ele>
        <time>2017-09-03T10:41:50Z</time>
      </trkpt>
      <trkpt lat="58.83873" lon="17.300027">
        <ele>21.8</ele>
        <time>2017-09-03T10:41:51Z</time>
      </trkpt>
      <trkpt lat="58.838822" lon="17.299936">
        <ele>21.8</ele>
        <time>2017-09-03T10:41:52Z</time>
      </trkpt>
      <trkpt lat="58.838913" lon="17.299845">
        <ele>21.6</ele>
        <time>2017-09-03T10:41:53Z</time>
      </trkpt>
      <trkpt lat="58.839005" lon="17.299756">
        <ele>21.6</ele>
        <time>2017-09-03T10:41:54Z</time>
      </trkpt>
      <trkpt lat="58.839097" lon="17.299668">
        <ele>21.4</ele>
        <time>2017-09-03T10:41:55Z</time>
      </trkpt>
      <trkpt lat="58.839189" lon="17.299581">
        <ele>21.4</ele>
        <time>2017-09-03T10:41:56Z</time>
      </trkpt>
      <trkpt lat="58.839281" lon="17.299494">
        <ele>21.4</ele>
        <time>2017-09-03T10:41:57Z</time>
      </trkpt>
      <trkpt lat="58.839373" lon="17.299407">
        <ele>21.4</ele>
        <time>2017-09-03T10:41:58Z</time>
      </trkpt>
      <trkpt lat="58.839466" lon="17.299323">
        <ele>21.4</ele>
        <time>2017-09-03T10:41:59Z</time>
      </trkpt>
      <trkpt lat="58.839558" lon="17.299241">
        <ele>21.4</ele>
        <time>2017-09-03T10:42:00Z</time>
      </trkpt>
      <trkpt lat="58.839648" lon="17.299159">
        <ele>21.4</ele>
        <time>2017-09-03T10:42:01Z</time>
      </trkpt>
      <trkpt lat="58.839739" lon="17.299077">
        <ele>21.4</ele>
        <time>2017-09-03T10:42:02Z</time>
      </trkpt>
      <trkpt lat="58.839828" lon="17.298994">
        <ele>21.4</ele>
        <time>2017-09-03T10:42:03Z</time>
      </trkpt>
      <trkpt lat="58.839916" lon="17.298909">
        <ele>21.4</ele>
        <time>2017-09-03T10:42:04Z</time>
      </trkpt>
      <trkpt lat="58.840003" lon="17.298825">
        <ele>21.2</ele>
        <time>2017-09-03T10:42:05Z</time>
      </trkpt>
      <trkpt lat="58.84009" lon="17.298745">
        <ele>21.2</ele>
        <time>2017-09-03T10:42:06Z</time>
      </trkpt>
      <trkpt lat="58.840176" lon="17.298666">
        <ele>21.2</ele>
        <time>2017-09-03T10:42:07Z</time>
      </trkpt>
      <trkpt lat="58.84026" lon="17.298587">
        <ele>21.2</ele>
        <time>2017-09-03T10:42:08Z</time>
      </trkpt>
      <trkpt lat="58.840341" lon="17.298512">
        <ele>21.4</ele>
        <time>2017-09-03T10:42:09Z</time>
      </trkpt>
      <trkpt lat="58.84042" lon="17.29844">
        <ele>21.4</ele>
        <time>2017-09-03T10:42:10Z</time>
      </trkpt>
      <trkpt lat="58.840496" lon="17.298368">
        <ele>21.4</ele>
        <time>2017-09-03T10:42:11Z</time>
      </trkpt>
      <trkpt lat="58.840571" lon="17.298298">
        <ele>21.4</ele>
        <time>2017-09-03T10:42:12Z</time>
      </trkpt>
      <trkpt lat="58.840644" lon="17.298229">
        <ele>21.4</ele>
        <time>2017-09-03T10:42:13Z</time>
      </trkpt>
      <trkpt lat="58.840717" lon="17.298162">
        <ele>21.6</ele>
        <time>2017-09-03T10:42:14Z</time>
      </trkpt>
      <trkpt lat="58.840788" lon="17.298098">
        <ele>21.6</ele>
        <time>2017-09-03T10:42:15Z</time>
      </trkpt>
      <trkpt lat="58.840857" lon="17.298036">
        <ele>21.6</ele>
        <time>2017-09-03T10:42:16Z</time>
      </trkpt>
      <trkpt lat="58.840929" lon="17.297974">
        <ele>22</ele>
        <time>2017-09-03T10:42:17Z</time>
      </trkpt>
      <trkpt lat="58.841006" lon="17.297906">
        <ele>22.2</ele>
        <time>2017-09-03T10:42:18Z</time>
      </trkpt>
      <trkpt lat="58.841086" lon="17.297843">
        <ele>22.6</ele>
        <time>2017-09-03T10:42:19Z</time>
      </trkpt>
      <trkpt lat="58.841173" lon="17.297772">
        <ele>23</ele>
        <time>2017-09-03T10:42:20Z</time>
      </trkpt>
      <trkpt lat="58.841263" lon="17.297697">
        <ele>23.2</ele>
        <time>2017-09-03T10:42:21Z</time>
      </trkpt>
      <trkpt lat="58.841349" lon="17.297622">
        <ele>23.6</ele>
        <time>2017-09-03T10:42:22Z</time>
      </trkpt>
      <trkpt lat="58.841437" lon="17.297541">
        <ele>23.8</ele>
        <time>2017-09-03T10:42:23Z</time>
      </trkpt>
      <trkpt lat="58.841526" lon="17.297454">
        <ele>24</ele>
        <time>2017-09-03T10:42:24Z</time>
      </trkpt>
      <trkpt lat="58.841616" lon="17.297366">
        <ele>24.2</ele>
        <time>2017-09-03T10:42:25Z</time>
      </trkpt>
      <trkpt lat="58.841709" lon="17.297278">
        <ele>24.2</ele>
        <time>2017-09-03T10:42:26Z</time>
      </trkpt>
      <trkpt lat="58.841804" lon="17.297188">
        <ele>24.4</ele>
        <time>2017-09-03T10:42:27Z</time>
      </trkpt>
      <trkpt lat="58.841897" lon="17.2971">
        <ele>24.4</ele>
        <time>2017-09-03T10:42:28Z</time>
      </trkpt>
      <trkpt lat="58.841988" lon="17.297016">
        <ele>24.6</ele>
        <time>2017-09-03T10:42:29Z</time>
      </trkpt>
      <trkpt lat="58.842078" lon="17.296935">
        <ele>24.6</ele>
        <time>2017-09-03T10:42:30Z</time>
      </trkpt>
      <trkpt lat="58.842166" lon="17.296857">
        <ele>24.6</ele>
        <time>2017-09-03T10:42:31Z</time>
      </trkpt>
      <trkpt lat="58.842253" lon="17.296777">
        <ele>24.8</ele>
        <time>2017-09-03T10:42:32Z</time>
      </trkpt>
      <trkpt lat="58.842342" lon="17.296694">
        <ele>25</ele>
        <time>2017-09-03T10:42:33Z</time>
      </trkpt>
      <trkpt lat="58.842431" lon="17.29661">
        <ele>25.2</ele>
        <time>2017-09-03T10:42:34Z</time>
      </trkpt>
      <trkpt lat="58.842523" lon="17.296529">
        <ele>25.4</ele>
        <time>2017-09-03T10:42:35Z</time>
      </trkpt>
      <trkpt lat="58.842615" lon="17.296448">
        <ele>25.4</ele>
        <time>2017-09-03T10:42:36Z</time>
      </trkpt>
      <trkpt lat="58.842707" lon="17.296367">
        <ele>25.6</ele>
        <time>2017-09-03T10:42:37Z</time>
      </trkpt>
      <trkpt lat="58.842796" lon="17.296284">
        <ele>25.6</ele>
        <time>2017-09-03T10:42:38Z</time>
      </trkpt>
      <trkpt lat="58.842882" lon="17.296203">
        <ele>25.8</ele>
        <time>2017-09-03T10:42:39Z</time>
      </trkpt>
      <trkpt lat="58.842967" lon="17.296126">
        <ele>25.8</ele>
        <time>2017-09-03T10:42:40Z</time>
      </trkpt>
      <trkpt lat="58.84305" lon="17.296053">
        <ele>26</ele>
        <time>2017-09-03T10:42:41Z</time>
      </trkpt>
      <trkpt lat="58.843129" lon="17.29598">
        <ele>26</ele>
        <time>2017-09-03T10:42:42Z</time>
      </trkpt>
      <trkpt lat="58.843208" lon="17.295906">
        <ele>26.2</ele>
        <time>2017-09-03T10:42:43Z</time>
      </trkpt>
      <trkpt lat="58.843286" lon="17.295831">
        <ele>26.2</ele>
        <time>2017-09-03T10:42:44Z</time>
      </trkpt>
      <trkpt lat="58.843364" lon="17.295759">
        <ele>27</ele>
        <time>2017-09-03T10:42:45Z</time>
      </trkpt>
      <trkpt lat="58.843442" lon="17.295685">
        <ele>27.6</ele>
        <time>2017-09-03T10:42:46Z</time>
      </trkpt>
      <trkpt lat="58.843519" lon="17.295611">
        <ele>28.4</ele>
        <time>2017-09-03T10:42:47Z</time>
      </trkpt>
      <trkpt lat="58.843594" lon="17.29554">
        <ele>29</ele>
        <time>2017-09-03T10:42:48Z</time>
      </trkpt>
      <trkpt lat="58.843669" lon="17.295469">
        <ele>29.4</ele>
        <time>2017-09-03T10:42:49Z</time>
      </trkpt>
      <trkpt lat="58.843744" lon="17.295396">
        <ele>30</ele>
        <time>2017-09-03T10:42:50Z</time>
      </trkpt>
      <trkpt lat="58.84382" lon="17.295327">
        <ele>30.4</ele>
        <time>2017-09-03T10:42:51Z</time>
      </trkpt>
      <trkpt lat="58.843898" lon="17.295259">
        <ele>30.8</ele>
        <time>2017-09-03T10:42:52Z</time>
      </trkpt>
      <trkpt lat="58.843976" lon="17.295192">
        <ele>31.2</ele>
        <time>2017-09-03T10:42:53Z</time>
      </trkpt>
      <trkpt lat="58.844053" lon="17.295119">
        <ele>31.4</ele>
        <time>2017-09-03T10:42:54Z</time>
      </trkpt>
      <trkpt lat="58.844129" lon="17.295044">
        <ele>31.6</ele>
        <time>2017-09-03T10:42:55Z</time>
      </trkpt>
      <trkpt lat="58.844206" lon="17.29497">
        <ele>31.8</ele>
        <time>2017-09-03T10:42:56Z</time>
      </trkpt>
      <trkpt lat="58.844281" lon="17.2949">
        <ele>31.8</ele>
        <time>2017-09-03T10:42:57Z</time>
      </trkpt>
      <trkpt lat="58.844355" lon="17.294833">
        <ele>31.8</ele>
        <time>2017-09-03T10:42:58Z</time>
      </trkpt>
      <trkpt lat="58.844431" lon="17.29476">
        <ele>31.8</ele>
        <time>2017-09-03T10:42:59Z</time>
      </trkpt>
      <trkpt lat="58.84451" lon="17.29468">
        <ele>31.8</ele>
        <time>2017-09-03T10:43:00Z</time>
      </trkpt>
      <trkpt lat="58.844589" lon="17.294598">
        <ele>32</ele>
        <time>2017-09-03T10:43:01Z</time>
      </trkpt>
      <trkpt lat="58.844669" lon="17.294513">
        <ele>32</ele>
        <time>2017-09-03T10:43:02Z</time>
      </trkpt>
      <trkpt lat="58.844746" lon="17.294421">
        <ele>32</ele>
        <time>2017-09-03T10:43:03Z</time>
      </trkpt>
      <trkpt lat="58.844823" lon="17.294318">
        <ele>32.2</ele>
        <time>2017-09-03T10:43:04Z</time>
      </trkpt>
      <trkpt lat="58.844897" lon="17.2942">
        <ele>32.2</ele>
        <time>2017-09-03T10:43:05Z</time>
      </trkpt>
      <trkpt lat="58.844969" lon="17.294068">
        <ele>32</ele>
        <time>2017-09-03T10:43:06Z</time>
      </trkpt>
      <trkpt lat="58.84504" lon="17.293926">
        <ele>32</ele>
        <time>2017-09-03T10:43:07Z</time>
      </trkpt>
      <trkpt lat="58.845108" lon="17.29378">
        <ele>31.8</ele>
        <time>2017-09-03T10:43:08Z</time>
      </trkpt>
      <trkpt lat="58.84517" lon="17.293621">
        <ele>31.6</ele>
        <time>2017-09-03T10:43:09Z</time>
      </trkpt>
      <trkpt lat="58.84523" lon="17.293455">
        <ele>31.4</ele>
        <time>2017-09-03T10:43:10Z</time>
      </trkpt>
      <trkpt lat="58.845289" lon="17.293277">
        <ele>31.2</ele>
        <time>2017-09-03T10:43:11Z</time>
      </trkpt>
      <trkpt lat="58.845342" lon="17.293089">
        <ele>31.2</ele>
        <time>2017-09-03T10:43:12Z</time>
      </trkpt>
      <trkpt lat="58.845391" lon="17.292893">
        <ele>31</ele>
        <time>2017-09-03T10:43:13Z</time>
      </trkpt>
      <trkpt lat="58.845434" lon="17.292691">
        <ele>30.6</ele>
        <time>2017-09-03T10:43:14Z</time>
      </trkpt>
      <trkpt lat="58.845476" lon="17.292482">
        <ele>30.4</ele>
        <time>2017-09-03T10:43:15Z</time>
      </trkpt>
      <trkpt lat="58.845519" lon="17.292266">
        <ele>30.4</ele>
        <time>2017-09-03T10:43:16Z</time>
      </trkpt>
      <trkpt lat="58.845561" lon="17.292044">
        <ele>30</ele>
        <time>2017-09-03T10:43:17Z</time>
      </trkpt>
      <trkpt lat="58.845604" lon="17.29182">
        <ele>29.6</ele>
        <time>2017-09-03T10:43:18Z</time>
      </trkpt>
      <trkpt lat="58.845648" lon="17.291595">
        <ele>29.4</ele>
        <time>2017-09-03T10:43:19Z</time>
      </trkpt>
      <trkpt lat="58.845693" lon="17.291368">
        <ele>28.8</ele>
        <time>2017-09-03T10:43:20Z</time>
      </trkpt>
      <trkpt lat="58.845738" lon="17.291141">
        <ele>28.4</ele>
        <time>2017-09-03T10:43:21Z</time>
      </trkpt>
      <trkpt lat="58.845782" lon="17.290918">
        <ele>28</ele>
        <time>2017-09-03T10:43:22Z</time>
      </trkpt>
      <trkpt lat="58.845826" lon="17.290697">
        <ele>27.8</ele>
        <time>2017-09-03T10:43:23Z</time>
      </trkpt>
      <trkpt lat="58.845868" lon="17.290478">
        <ele>27.4</ele>
        <time>2017-09-03T10:43:24Z</time>
      </trkpt>
      <trkpt lat="58.845909" lon="17.290261">
        <ele>26.4</ele>
        <time>2017-09-03T10:43:25Z</time>
      </trkpt>
      <trkpt lat="58.845949" lon="17.290051">
        <ele>25.6</ele>
        <time>2017-09-03T10:43:26Z</time>
      </trkpt>
      <trkpt lat="58.845989" lon="17.289847">
        <ele>25</ele>
        <time>2017-09-03T10:43:27Z</time>
      </trkpt>
      <trkpt lat="58.846027" lon="17.28965">
        <ele>24.8</ele>
        <time>2017-09-03T10:43:28Z</time>
      </trkpt>
      <trkpt lat="58.846065" lon="17.289457">
        <ele>24.8</ele>
        <time>2017-09-03T10:43:29Z</time>
      </trkpt>
      <trkpt lat="58.846102" lon="17.289271">
        <ele>24.6</ele>
        <time>2017-09-03T10:43:30Z</time>
      </trkpt>
      <trkpt lat="58.846139" lon="17.28909">
        <ele>24.6</ele>
        <time>2017-09-03T10:43:31Z</time>
      </trkpt>
      <trkpt lat="58.846176" lon="17.288906">
        <ele>24.6</ele>
        <time>2017-09-03T10:43:32Z</time>
      </trkpt>
      <trkpt lat="58.846212" lon="17.288721">
        <ele>24.6</ele>
        <time>2017-09-03T10:43:33Z</time>
      </trkpt>
      <trkpt lat="58.846248" lon="17.288534">
        <ele>24.6</ele>
        <time>2017-09-03T10:43:34Z</time>
      </trkpt>
      <trkpt lat="58.846284" lon="17.288344">
        <ele>24.6</ele>
        <time>2017-09-03T10:43:35Z</time>
      </trkpt>
      <trkpt lat="58.84632" lon="17.288154">
        <ele>24.8</ele>
        <time>2017-09-03T10:43:36Z</time>
      </trkpt>
      <trkpt lat="58.846358" lon="17.287966">
        <ele>25</ele>
        <time>2017-09-03T10:43:37Z</time>
      </trkpt>
      <trkpt lat="58.846396" lon="17.287777">
        <ele>25.2</ele>
        <time>2017-09-03T10:43:38Z</time>
      </trkpt>
      <trkpt lat="58.846435" lon="17.287589">
        <ele>25.2</ele>
        <time>2017-09-03T10:43:39Z</time>
      </trkpt>
      <trkpt lat="58.846471" lon="17.287397">
        <ele>25.2</ele>
        <time>2017-09-03T10:43:40Z</time>
      </trkpt>
      <trkpt lat="58.846507" lon="17.287205">
        <ele>25.2</ele>
        <time>2017-09-03T10:43:41Z</time>
      </trkpt>
      <trkpt lat="58.846544" lon="17.287014">
        <ele>25.2</ele>
        <time>2017-09-03T10:43:42Z</time>
      </trkpt>
      <trkpt lat="58.846581" lon="17.286823">
        <ele>25.2</ele>
        <time>2017-09-03T10:43:43Z</time>
      </trkpt>
      <trkpt lat="58.846616" lon="17.28663">
        <ele>25.2</ele>
        <time>2017-09-03T10:43:44Z</time>
      </trkpt>
      <trkpt lat="58.846646" lon="17.286438">
        <ele>25.2</ele>
        <time>2017-09-03T10:43:45Z</time>
      </trkpt>
      <trkpt lat="58.846675" lon="17.286247">
        <ele>25.2</ele>
        <time>2017-09-03T10:43:46Z</time>
      </trkpt>
      <trkpt lat="58.846706" lon="17.28606">
        <ele>25.2</ele>
        <time>2017-09-03T10:43:47Z</time>
      </trkpt>
      <trkpt lat="58.846737" lon="17.285873">
        <ele>25</ele>
        <time>2017-09-03T10:43:48Z</time>
      </trkpt>
      <trkpt lat="58.846766" lon="17.285683">
        <ele>24.6</ele>
        <time>2017-09-03T10:43:49Z</time>
      </trkpt>
      <trkpt lat="58.846793" lon="17.285491">
        <ele>24.4</ele>
        <time>2017-09-03T10:43:50Z</time>
      </trkpt>
      <trkpt lat="58.846817" lon="17.285297">
        <ele>24.4</ele>
        <time>2017-09-03T10:43:51Z</time>
      </trkpt>
      <trkpt lat="58.846839" lon="17.285096">
        <ele>24.2</ele>
        <time>2017-09-03T10:43:52Z</time>
      </trkpt>
      <trkpt lat="58.846861" lon="17.284889">
        <ele>24.2</ele>
        <time>2017-09-03T10:43:53Z</time>
      </trkpt>
      <trkpt lat="58.846881" lon="17.284677">
        <ele>24</ele>
        <time>2017-09-03T10:43:54Z</time>
      </trkpt>
      <trkpt lat="58.8469" lon="17.284462">
        <ele>24</ele>
        <time>2017-09-03T10:43:55Z</time>
      </trkpt>
      <trkpt lat="58.846918" lon="17.284241">
        <ele>24</ele>
        <time>2017-09-03T10:43:56Z</time>
      </trkpt>
      <trkpt lat="58.846935" lon="17.284011">
        <ele>23.8</ele>
        <time>2017-09-03T10:43:57Z</time>
      </trkpt>
      <trkpt lat="58.846949" lon="17.283774">
        <ele>23.8</ele>
        <time>2017-09-03T10:43:58Z</time>
      </trkpt>
      <trkpt lat="58.84696" lon="17.283532">
        <ele>23.6</ele>
        <time>2017-09-03T10:43:59Z</time>
      </trkpt>
      <trkpt lat="58.846969" lon="17.283286">
        <ele>23.6</ele>
        <time>2017-09-03T10:44:00Z</time>
      </trkpt>
      <trkpt lat="58.846977" lon="17.283037">
        <ele>23.6</ele>
        <time>2017-09-03T10:44:01Z</time>
      </trkpt>
      <trkpt lat="58.846984" lon="17.282789">
        <ele>23.4</ele>
        <time>2017-09-03T10:44:02Z</time>
      </trkpt>
      <trkpt lat="58.846987" lon="17.282542">
        <ele>23.4</ele>
        <time>2017-09-03T10:44:03Z</time>
      </trkpt>
      <trkpt lat="58.846984" lon="17.282293">
        <ele>23.2</ele>
        <time>2017-09-03T10:44:04Z</time>
      </trkpt>
      <trkpt lat="58.846979" lon="17.282046">
        <ele>22.4</ele>
        <time>2017-09-03T10:44:05Z</time>
      </trkpt>
      <trkpt lat="58.846973" lon="17.281798">
        <ele>21.8</ele>
        <time>2017-09-03T10:44:06Z</time>
      </trkpt>
      <trkpt lat="58.846965" lon="17.281552">
        <ele>21.2</ele>
        <time>2017-09-03T10:44:07Z</time>
      </trkpt>
      <trkpt lat="58.846955" lon="17.281308">
        <ele>21</ele>
        <time>2017-09-03T10:44:08Z</time>
      </trkpt>
      <trkpt lat="58.846944" lon="17.281071">
        <ele>21</ele>
        <time>2017-09-03T10:44:09Z</time>
      </trkpt>
      <trkpt lat="58.846928" lon="17.280839">
        <ele>21</ele>
        <time>2017-09-03T10:44:10Z</time>
      </trkpt>
      <trkpt lat="58.846909" lon="17.280612">
        <ele>21</ele>
        <time>2017-09-03T10:44:11Z</time>
      </trkpt>
      <trkpt lat="58.846893" lon="17.280389">
        <ele>21</ele>
        <time>2017-09-03T10:44:12Z</time>
      </trkpt>
      <trkpt lat="58.846875" lon="17.280172">
        <ele>21</ele>
        <time>2017-09-03T10:44:13Z</time>
      </trkpt>
      <trkpt lat="58.846858" lon="17.279963">
        <ele>20.8</ele>
        <time>2017-09-03T10:44:14Z</time>
      </trkpt>
      <trkpt lat="58.846838" lon="17.279764">
        <ele>20.8</ele>
        <time>2017-09-03T10:44:15Z</time>
      </trkpt>
      <trkpt lat="58.846818" lon="17.279572">
        <ele>20.8</ele>
        <time>2017-09-03T10:44:16Z</time>
      </trkpt>
      <trkpt lat="58.846796" lon="17.27939">
        <ele>20.8</ele>
        <time>2017-09-03T10:44:17Z</time>
      </trkpt>
      <trkpt lat="58.846773" lon="17.279213">
        <ele>20.8</ele>
        <time>2017-09-03T10:44:18Z</time>
      </trkpt>
      <trkpt lat="58.846752" lon="17.279039">
        <ele>21</ele>
        <time>2017-09-03T10:44:19Z</time>
      </trkpt>
      <trkpt lat="58.846731" lon="17.278871">
        <ele>21</ele>
        <time>2017-09-03T10:44:20Z</time>
      </trkpt>
      <trkpt lat="58.846709" lon="17.278709">
        <ele>21</ele>
        <time>2017-09-03T10:44:21Z</time>
      </trkpt>
      <trkpt lat="58.846684" lon="17.278552">
        <ele>21</ele>
        <time>2017-09-03T10:44:22Z</time>
      </trkpt>
      <trkpt lat="58.846656" lon="17.278396">
        <ele>21.2</ele>
        <time>2017-09-03T10:44:23Z</time>
      </trkpt>
      <trkpt lat="58.846627" lon="17.278244">
        <ele>21.2</ele>
        <time>2017-09-03T10:44:24Z</time>
      </trkpt>
      <trkpt lat="58.846596" lon="17.278096">
        <ele>21.4</ele>
        <time>2017-09-03T10:44:25Z</time>
      </trkpt>
      <trkpt lat="58.846568" lon="17.277947">
        <ele>21.4</ele>
        <time>2017-09-03T10:44:26Z</time>
      </trkpt>
      <trkpt lat="58.846538" lon="17.277797">
        <ele>22</ele>
        <time>2017-09-03T10:44:27Z</time>
      </trkpt>
      <trkpt lat="58.846504" lon="17.277649">
        <ele>23</ele>
        <time>2017-09-03T10:44:28Z</time>
      </trkpt>
      <trkpt lat="58.846469" lon="17.277506">
        <ele>23.8</ele>
        <time>2017-09-03T10:44:29Z</time>
      </trkpt>
      <trkpt lat="58.846438" lon="17.277362">
        <ele>24.4</ele>
        <time>2017-09-03T10:44:30Z</time>
      </trkpt>
      <trkpt lat="58.846409" lon="17.277219">
        <ele>25</ele>
        <time>2017-09-03T10:44:31Z</time>
      </trkpt>
      <trkpt lat="58.846378" lon="17.277072">
        <ele>25.8</ele>
        <time>2017-09-03T10:44:32Z</time>
      </trkpt>
      <trkpt lat="58.846343" lon="17.276922">
        <ele>26.4</ele>
        <time>2017-09-03T10:44:33Z</time>
      </trkpt>
      <trkpt lat="58.846306" lon="17.27677">
        <ele>27</ele>
        <time>2017-09-03T10:44:34Z</time>
      </trkpt>
      <trkpt lat="58.846268" lon="17.276618">
        <ele>27.4</ele>
        <time>2017-09-03T10:44:35Z</time>
      </trkpt>
      <trkpt lat="58.846229" lon="17.276472">
        <ele>28.2</ele>
        <time>2017-09-03T10:44:36Z</time>
      </trkpt>
      <trkpt lat="58.846187" lon="17.276324">
        <ele>28.8</ele>
        <time>2017-09-03T10:44:37Z</time>
      </trkpt>
      <trkpt lat="58.846144" lon="17.276178">
        <ele>29.2</ele>
        <time>2017-09-03T10:44:38Z</time>
      </trkpt>
      <trkpt lat="58.8461" lon="17.276031">
        <ele>29.8</ele>
        <time>2017-09-03T10:44:39Z</time>
      </trkpt>
      <trkpt lat="58.846055" lon="17.275887">
        <ele>30.2</ele>
        <time>2017-09-03T10:44:40Z</time>
      </trkpt>
      <trkpt lat="58.846008" lon="17.275742">
        <ele>30.4</ele>
        <time>2017-09-03T10:44:41Z</time>
      </trkpt>
      <trkpt lat="58.84596" lon="17.275595">
        <ele>30.8</ele>
        <time>2017-09-03T10:44:42Z</time>
      </trkpt>
      <trkpt lat="58.84591" lon="17.275445">
        <ele>31</ele>
        <time>2017-09-03T10:44:43Z</time>
      </trkpt>
      <trkpt lat="58.845859" lon="17.275295">
        <ele>31.2</ele>
        <time>2017-09-03T10:44:44Z</time>
      </trkpt>
      <trkpt lat="58.845809" lon="17.275145">
        <ele>31.4</ele>
        <time>2017-09-03T10:44:45Z</time>
      </trkpt>
      <trkpt lat="58.845761" lon="17.274995">
        <ele>31.6</ele>
        <time>2017-09-03T10:44:46Z</time>
      </trkpt>
      <trkpt lat="58.845713" lon="17.274842">
        <ele>32</ele>
        <time>2017-09-03T10:44:47Z</time>
      </trkpt>
      <trkpt lat="58.845665" lon="17.274685">
        <ele>32.6</ele>
        <time>2017-09-03T10:44:48Z</time>
      </trkpt>
      <trkpt lat="58.845616" lon="17.274531">
        <ele>33</ele>
        <time>2017-09-03T10:44:49Z</time>
      </trkpt>
      <trkpt lat="58.845569" lon="17.274379">
        <ele>33.2</ele>
        <time>2017-09-03T10:44:50Z</time>
      </trkpt>
      <trkpt lat="58.845521" lon="17.274225">
        <ele>33.6</ele>
        <time>2017-09-03T10:44:51Z</time>
      </trkpt>
      <trkpt lat="58.845471" lon="17.274068">
        <ele>33.8</ele>
        <time>2017-09-03T10:44:52Z</time>
      </trkpt>
      <trkpt lat="58.84542" lon="17.273913">
        <ele>34</ele>
        <time>2017-09-03T10:44:53Z</time>
      </trkpt>
      <trkpt lat="58.845371" lon="17.27376">
        <ele>34.2</ele>
        <time>2017-09-03T10:44:54Z</time>
      </trkpt>
      <trkpt lat="58.845323" lon="17.273607">
        <ele>34.2</ele>
        <time>2017-09-03T10:44:55Z</time>
      </trkpt>
      <trkpt lat="58.845274" lon="17.273452">
        <ele>34.4</ele>
        <time>2017-09-03T10:44:56Z</time>
      </trkpt>
      <trkpt lat="58.845224" lon="17.273295">
        <ele>34.4</ele>
        <time>2017-09-03T10:44:57Z</time>
      </trkpt>
      <trkpt lat="58.845175" lon="17.273139">
        <ele>34.4</ele>
        <time>2017-09-03T10:44:58Z</time>
      </trkpt>
      <trkpt lat="58.845127" lon="17.272984">
        <ele>34.4</ele>
        <time>2017-09-03T10:44:59Z</time>
      </trkpt>
      <trkpt lat="58.84508" lon="17.272828">
        <ele>34.4</ele>
        <time>2017-09-03T10:45:00Z</time>
      </trkpt>
      <trkpt lat="58.845033" lon="17.272671">
        <ele>34.6</ele>
        <time>2017-09-03T10:45:01Z</time>
      </trkpt>
      <trkpt lat="58.844988" lon="17.272513">
        <ele>35</ele>
        <time>2017-09-03T10:45:02Z</time>
      </trkpt>
      <trkpt lat="58.844944" lon="17.272355">
        <ele>35.2</ele>
        <time>2017-09-03T10:45:03Z</time>
      </trkpt>
      <trkpt lat="58.844902" lon="17.272197">
        <ele>35.2</ele>
        <time>2017-09-03T10:45:04Z</time>
      </trkpt>
      <trkpt lat="58.84486" lon="17.272037">
        <ele>35.4</ele>
        <time>2017-09-03T10:45:05Z</time>
      </trkpt>
      <trkpt lat="58.844819" lon="17.271875">
        <ele>35.4</ele>
        <time>2017-09-03T10:45:06Z</time>
      </trkpt>
      <trkpt lat="58.844779" lon="17.271712">
        <ele>35.8</ele>
        <time>2017-09-03T10:45:07Z</time>
      </trkpt>
      <trkpt lat="58.844743" lon="17.271546">
        <ele>35.8</ele>
        <time>2017-09-03T10:45:08Z</time>
      </trkpt>
      <trkpt lat="58.844707" lon="17.271375">
        <ele>36</ele>
        <time>2017-09-03T10:45:09Z</time>
      </trkpt>
      <trkpt lat="58.84467" lon="17.271199">
        <ele>36</ele>
        <time>2017-09-03T10:45:10Z</time>
      </trkpt>
      <trkpt lat="58.844633" lon="17.271017">
        <ele>36</ele>
        <time>2017-09-03T10:45:11Z</time>
      </trkpt>
      <trkpt lat="58.844596" lon="17.270835">
        <ele>36</ele>
        <time>2017-09-03T10:45:12Z</time>
      </trkpt>
      <trkpt lat="58.844561" lon="17.270656">
        <ele>36</ele>
        <time>2017-09-03T10:45:13Z</time>
      </trkpt>
      <trkpt lat="58.844529" lon="17.270478">
        <ele>36.2</ele>
        <time>2017-09-03T10:45:14Z</time>
      </trkpt>
      <trkpt lat="58.844502" lon="17.270302">
        <ele>36.2</ele>
        <time>2017-09-03T10:45:15Z</time>
      </trkpt>
      <trkpt lat="58.844477" lon="17.27013">
        <ele>36.2</ele>
        <time>2017-09-03T10:45:16Z</time>
      </trkpt>
      <trkpt lat="58.844452" lon="17.269962">
        <ele>36.2</ele>
        <time>2017-09-03T10:45:17Z</time>
      </trkpt>
      <trkpt lat="58.844426" lon="17.269793">
        <ele>36.4</ele>
        <time>2017-09-03T10:45:18Z</time>
      </trkpt>
      <trkpt lat="58.844401" lon="17.26962">
        <ele>36.4</ele>
        <time>2017-09-03T10:45:19Z</time>
      </trkpt>
      <trkpt lat="58.844378" lon="17.269445">
        <ele>36.4</ele>
        <time>2017-09-03T10:45:20Z</time>
      </trkpt>
      <trkpt lat="58.844358" lon="17.269272">
        <ele>36.6</ele>
        <time>2017-09-03T10:45:21Z</time>
      </trkpt>
      <trkpt lat="58.844341" lon="17.269098">
        <ele>36.6</ele>
        <time>2017-09-03T10:45:22Z</time>
      </trkpt>
      <trkpt lat="58.844327" lon="17.268924">
        <ele>36.6</ele>
        <time>2017-09-03T10:45:23Z</time>
      </trkpt>
      <trkpt lat="58.844314" lon="17.268746">
        <ele>36.6</ele>
        <time>2017-09-03T10:45:24Z</time>
      </trkpt>
      <trkpt lat="58.844299" lon="17.268567">
        <ele>36.8</ele>
        <time>2017-09-03T10:45:25Z</time>
      </trkpt>
      <trkpt lat="58.844285" lon="17.268388">
        <ele>37</ele>
        <time>2017-09-03T10:45:26Z</time>
      </trkpt>
      <trkpt lat="58.844273" lon="17.268207">
        <ele>37</ele>
        <time>2017-09-03T10:45:27Z</time>
      </trkpt>
      <trkpt lat="58.844263" lon="17.268026">
        <ele>37.2</ele>
        <time>2017-09-03T10:45:28Z</time>
      </trkpt>
      <trkpt lat="58.844255" lon="17.267843">
        <ele>37.4</ele>
        <time>2017-09-03T10:45:29Z</time>
      </trkpt>
      <trkpt lat="58.84425" lon="17.267661">
        <ele>37.6</ele>
        <time>2017-09-03T10:45:30Z</time>
      </trkpt>
      <trkpt lat="58.844245" lon="17.267484">
        <ele>37.6</ele>
        <time>2017-09-03T10:45:31Z</time>
      </trkpt>
      <trkpt lat="58.84424" lon="17.26731">
        <ele>37.6</ele>
        <time>2017-09-03T10:45:32Z</time>
      </trkpt>
      <trkpt lat="58.844235" lon="17.267141">
        <ele>37.8</ele>
        <time>2017-09-03T10:45:33Z</time>
      </trkpt>
      <trkpt lat="58.844233" lon="17.266972">
        <ele>38</ele>
        <time>2017-09-03T10:45:34Z</time>
      </trkpt>
      <trkpt lat="58.844232" lon="17.266802">
        <ele>38.2</ele>
        <time>2017-09-03T10:45:35Z</time>
      </trkpt>
      <trkpt lat="58.844232" lon="17.266631">
        <ele>38.2</ele>
        <time>2017-09-03T10:45:36Z</time>
      </trkpt>
      <trkpt lat="58.844233" lon="17.266465">
        <ele>38.4</ele>
        <time>2017-09-03T10:45:37Z</time>
      </trkpt>
      <trkpt lat="58.844235" lon="17.266302">
        <ele>38.4</ele>
        <time>2017-09-03T10:45:38Z</time>
      </trkpt>
      <trkpt lat="58.844239" lon="17.266139">
        <ele>38.6</ele>
        <time>2017-09-03T10:45:39Z</time>
      </trkpt>
      <trkpt lat="58.844244" lon="17.265974">
        <ele>38.6</ele>
        <time>2017-09-03T10:45:40Z</time>
      </trkpt>
      <trkpt lat="58.844251" lon="17.26581">
        <ele>38.8</ele>
        <time>2017-09-03T10:45:41Z</time>
      </trkpt>
      <trkpt lat="58.84426" lon="17.265645">
        <ele>39</ele>
        <time>2017-09-03T10:45:42Z</time>
      </trkpt>
      <trkpt lat="58.84427" lon="17.265481">
        <ele>39</ele>
        <time>2017-09-03T10:45:43Z</time>
      </trkpt>
      <trkpt lat="58.844279" lon="17.265318">
        <ele>39.4</ele>
        <time>2017-09-03T10:45:44Z</time>
      </trkpt>
      <trkpt lat="58.844288" lon="17.265156">
        <ele>40</ele>
        <time>2017-09-03T10:45:45Z</time>
      </trkpt>
      <trkpt lat="58.844297" lon="17.264994">
        <ele>40.4</ele>
        <time>2017-09-03T10:45:46Z</time>
      </trkpt>
      <trkpt lat="58.844306" lon="17.264831">
        <ele>40.8</ele>
        <time>2017-09-03T10:45:47Z</time>
      </trkpt>
      <trkpt lat="58.844314" lon="17.264667">
        <ele>41</ele>
        <time>2017-09-03T10:45:48Z</time>
      </trkpt>
      <trkpt lat="58.844323" lon="17.264502">
        <ele>41.2</ele>
        <time>2017-09-03T10:45:49Z</time>
      </trkpt>
      <trkpt lat="58.844332" lon="17.264336">
        <ele>41.6</ele>
        <time>2017-09-03T10:45:50Z</time>
      </trkpt>
      <trkpt lat="58.844342" lon="17.264168">
        <ele>41.8</ele>
        <time>2017-09-03T10:45:51Z</time>
      </trkpt>
      <trkpt lat="58.84435" lon="17.264003">
        <ele>41.8</ele>
        <time>2017-09-03T10:45:52Z</time>
      </trkpt>
      <trkpt lat="58.844359" lon="17.263837">
        <ele>42</ele>
        <time>2017-09-03T10:45:53Z</time>
      </trkpt>
      <trkpt lat="58.844367" lon="17.263667">
        <ele>42.4</ele>
        <time>2017-09-03T10:45:54Z</time>
      </trkpt>
      <trkpt lat="58.844375" lon="17.263491">
        <ele>42.4</ele>
        <time>2017-09-03T10:45:55Z</time>
      </trkpt>
      <trkpt lat="58.844383" lon="17.263316">
        <ele>42.6</ele>
        <time>2017-09-03T10:45:56Z</time>
      </trkpt>
      <trkpt lat="58.844392" lon="17.263142">
        <ele>42.6</ele>
        <time>2017-09-03T10:45:57Z</time>
      </trkpt>
      <trkpt lat="58.8444" lon="17.262964">
        <ele>42.6</ele>
        <time>2017-09-03T10:45:58Z</time>
      </trkpt>
      <trkpt lat="58.844406" lon="17.262782">
        <ele>42.6</ele>
        <time>2017-09-03T10:45:59Z</time>
      </trkpt>
      <trkpt lat="58.844409" lon="17.262597">
        <ele>42.8</ele>
        <time>2017-09-03T10:46:00Z</time>
      </trkpt>
      <trkpt lat="58.844409" lon="17.262411">
        <ele>42.8</ele>
        <time>2017-09-03T10:46:01Z</time>
      </trkpt>
      <trkpt lat="58.84441" lon="17.262226">
        <ele>43</ele>
        <time>2017-09-03T10:46:02Z</time>
      </trkpt>
      <trkpt lat="58.844412" lon="17.262042">
        <ele>43</ele>
        <time>2017-09-03T10:46:03Z</time>
      </trkpt>
      <trkpt lat="58.844412" lon="17.261856">
        <ele>43</ele>
        <time>2017-09-03T10:46:04Z</time>
      </trkpt>
      <trkpt lat="58.844412" lon="17.261666">
        <ele>43</ele>
        <time>2017-09-03T10:46:05Z</time>
      </trkpt>
      <trkpt lat="58.84441" lon="17.261473">
        <ele>43</ele>
        <time>2017-09-03T10:46:06Z</time>
      </trkpt>
      <trkpt lat="58.844409" lon="17.261282">
        <ele>43.2</ele>
        <time>2017-09-03T10:46:07Z</time>
      </trkpt>
      <trkpt lat="58.844409" lon="17.261092">
        <ele>43.2</ele>
        <time>2017-09-03T10:46:08Z</time>
      </trkpt>
      <trkpt lat="58.84441" lon="17.2609">
        <ele>43.2</ele>
        <time>2017-09-03T10:46:09Z</time>
      </trkpt>
      <trkpt lat="58.84441" lon="17.260705">
        <ele>43.2</ele>
        <time>2017-09-03T10:46:10Z</time>
      </trkpt>
      <trkpt lat="58.844408" lon="17.260509">
        <ele>43.2</ele>
        <time>2017-09-03T10:46:11Z</time>
      </trkpt>
      <trkpt lat="58.844409" lon="17.260313">
        <ele>43.4</ele>
        <time>2017-09-03T10:46:12Z</time>
      </trkpt>
      <trkpt lat="58.844409" lon="17.260117">
        <ele>43.4</ele>
        <time>2017-09-03T10:46:13Z</time>
      </trkpt>
      <trkpt lat="58.844409" lon="17.259922">
        <ele>43.4</ele>
        <time>2017-09-03T10:46:14Z</time>
      </trkpt>
      <trkpt lat="58.844409" lon="17.259724">
        <ele>43.4</ele>
        <time>2017-09-03T10:46:15Z</time>
      </trkpt>
      <trkpt lat="58.844409" lon="17.259526">
        <ele>43.4</ele>
        <time>2017-09-03T10:46:16Z</time>
      </trkpt>
      <trkpt lat="58.844407" lon="17.259328">
        <ele>43.4</ele>
        <time>2017-09-03T10:46:17Z</time>
      </trkpt>
      <trkpt lat="58.844404" lon="17.259128">
        <ele>43.4</ele>
        <time>2017-09-03T10:46:18Z</time>
      </trkpt>
      <trkpt lat="58.844403" lon="17.258926">
        <ele>43.4</ele>
        <time>2017-09-03T10:46:19Z</time>
      </trkpt>
      <trkpt lat="58.844402" lon="17.258721">
        <ele>43.4</ele>
        <time>2017-09-03T10:46:20Z</time>
      </trkpt>
      <trkpt lat="58.844403" lon="17.258516">
        <ele>43.4</ele>
        <time>2017-09-03T10:46:21Z</time>
      </trkpt>
      <trkpt lat="58.844404" lon="17.258312">
        <ele>43.4</ele>
        <time>2017-09-03T10:46:22Z</time>
      </trkpt>
      <trkpt lat="58.844405" lon="17.258108">
        <ele>43.4</ele>
        <time>2017-09-03T10:46:23Z</time>
      </trkpt>
      <trkpt lat="58.844406" lon="17.257904">
        <ele>43.4</ele>
        <time>2017-09-03T10:46:24Z</time>
      </trkpt>
      <trkpt lat="58.844407" lon="17.257699">
        <ele>43.2</ele>
        <time>2017-09-03T10:46:25Z</time>
      </trkpt>
      <trkpt lat="58.844407" lon="17.257497">
        <ele>43.2</ele>
        <time>2017-09-03T10:46:26Z</time>
      </trkpt>
      <trkpt lat="58.844408" lon="17.257297">
        <ele>43</ele>
        <time>2017-09-03T10:46:27Z</time>
      </trkpt>
      <trkpt lat="58.844408" lon="17.257102">
        <ele>43</ele>
        <time>2017-09-03T10:46:28Z</time>
      </trkpt>
      <trkpt lat="58.844408" lon="17.256907">
        <ele>43</ele>
        <time>2017-09-03T10:46:29Z</time>
      </trkpt>
      <trkpt lat="58.844406" lon="17.25671">
        <ele>42.8</ele>
        <time>2017-09-03T10:46:30Z</time>
      </trkpt>
      <trkpt lat="58.844406" lon="17.256511">
        <ele>42.8</ele>
        <time>2017-09-03T10:46:31Z</time>
      </trkpt>
      <trkpt lat="58.844408" lon="17.256312">
        <ele>42.8</ele>
        <time>2017-09-03T10:46:32Z</time>
      </trkpt>
      <trkpt lat="58.844408" lon="17.256111">
        <ele>42.8</ele>
        <time>2017-09-03T10:46:33Z</time>
      </trkpt>
      <trkpt lat="58.844409" lon="17.25591">
        <ele>42.6</ele>
        <time>2017-09-03T10:46:34Z</time>
      </trkpt>
      <trkpt lat="58.84441" lon="17.255708">
        <ele>42.6</ele>
        <time>2017-09-03T10:46:35Z</time>
      </trkpt>
      <trkpt lat="58.844409" lon="17.255506">
        <ele>42.4</ele>
        <time>2017-09-03T10:46:36Z</time>
      </trkpt>
      <trkpt lat="58.844407" lon="17.255305">
        <ele>42.4</ele>
        <time>2017-09-03T10:46:37Z</time>
      </trkpt>
      <trkpt lat="58.844405" lon="17.255105">
        <ele>42.2</ele>
        <time>2017-09-03T10:46:38Z</time>
      </trkpt>
      <trkpt lat="58.844404" lon="17.254905">
        <ele>42.2</ele>
        <time>2017-09-03T10:46:39Z</time>
      </trkpt>
      <trkpt lat="58.844405" lon="17.254706">
        <ele>42.2</ele>
        <time>2017-09-03T10:46:40Z</time>
      </trkpt>
      <trkpt lat="58.844407" lon="17.254509">
        <ele>42.2</ele>
        <time>2017-09-03T10:46:41Z</time>
      </trkpt>
      <trkpt lat="58.844409" lon="17.254311">
        <ele>42.2</ele>
        <time>2017-09-03T10:46:42Z</time>
      </trkpt>
      <trkpt lat="58.844411" lon="17.254111">
        <ele>42.2</ele>
        <time>2017-09-03T10:46:43Z</time>
      </trkpt>
      <trkpt lat="58.844412" lon="17.253913">
        <ele>42.2</ele>
        <time>2017-09-03T10:46:44Z</time>
      </trkpt>
      <trkpt lat="58.844411" lon="17.253715">
        <ele>42.2</ele>
        <time>2017-09-03T10:46:45Z</time>
      </trkpt>
      <trkpt lat="58.844411" lon="17.253517">
        <ele>42.2</ele>
        <time>2017-09-03T10:46:46Z</time>
      </trkpt>
      <trkpt lat="58.84441" lon="17.253321">
        <ele>42.2</ele>
        <time>2017-09-03T10:46:47Z</time>
      </trkpt>
      <trkpt lat="58.844411" lon="17.253128">
        <ele>42.2</ele>
        <time>2017-09-03T10:46:48Z</time>
      </trkpt>
      <trkpt lat="58.844411" lon="17.252934">
        <ele>42.4</ele>
        <time>2017-09-03T10:46:49Z</time>
      </trkpt>
      <trkpt lat="58.84441" lon="17.252742">
        <ele>42.4</ele>
        <time>2017-09-03T10:46:50Z</time>
      </trkpt>
      <trkpt lat="58.844409" lon="17.25255">
        <ele>42.4</ele>
        <time>2017-09-03T10:46:51Z</time>
      </trkpt>
      <trkpt lat="58.844409" lon="17.252357">
        <ele>42.4</ele>
        <time>2017-09-03T10:46:52Z</time>
      </trkpt>
      <trkpt lat="58.844409" lon="17.252165">
        <ele>42.4</ele>
        <time>2017-09-03T10:46:53Z</time>
      </trkpt>
      <trkpt lat="58.844411" lon="17.251973">
        <ele>42.4</ele>
        <time>2017-09-03T10:46:54Z</time>
      </trkpt>
      <trkpt lat="58.844413" lon="17.251781">
        <ele>42.4</ele>
        <time>2017-09-03T10:46:55Z</time>
      </trkpt>
      <trkpt lat="58.844413" lon="17.251591">
        <ele>42.4</ele>
        <time>2017-09-03T10:46:56Z</time>
      </trkpt>
      <trkpt lat="58.844412" lon="17.251401">
        <ele>42.4</ele>
        <time>2017-09-03T10:46:57Z</time>
      </trkpt>
      <trkpt lat="58.844412" lon="17.251211">
        <ele>42.4</ele>
        <time>2017-09-03T10:46:58Z</time>
      </trkpt>
      <trkpt lat="58.844412" lon="17.251022">
        <ele>42.4</ele>
        <time>2017-09-03T10:46:59Z</time>
      </trkpt>
      <trkpt lat="58.844412" lon="17.250834">
        <ele>42.4</ele>
        <time>2017-09-03T10:47:00Z</time>
      </trkpt>
      <trkpt lat="58.844412" lon="17.250647">
        <ele>42.4</ele>
        <time>2017-09-03T10:47:01Z</time>
      </trkpt>
      <trkpt lat="58.844411" lon="17.250462">
        <ele>42</ele>
        <time>2017-09-03T10:47:02Z</time>
      </trkpt>
      <trkpt lat="58.84441" lon="17.250276">
        <ele>41.8</ele>
        <time>2017-09-03T10:47:03Z</time>
      </trkpt>
      <trkpt lat="58.844408" lon="17.250087">
        <ele>41.8</ele>
        <time>2017-09-03T10:47:04Z</time>
      </trkpt>
      <trkpt lat="58.844407" lon="17.249895">
        <ele>41.8</ele>
        <time>2017-09-03T10:47:05Z</time>
      </trkpt>
      <trkpt lat="58.844406" lon="17.249701">
        <ele>41.6</ele>
        <time>2017-09-03T10:47:06Z</time>
      </trkpt>
      <trkpt lat="58.844405" lon="17.249505">
        <ele>41.4</ele>
        <time>2017-09-03T10:47:07Z</time>
      </trkpt>
      <trkpt lat="58.844404" lon="17.249307">
        <ele>41</ele>
        <time>2017-09-03T10:47:08Z</time>
      </trkpt>
      <trkpt lat="58.844404" lon="17.249106">
        <ele>40.8</ele>
        <time>2017-09-03T10:47:09Z</time>
      </trkpt>
      <trkpt lat="58.844405" lon="17.248902">
        <ele>40.6</ele>
        <time>2017-09-03T10:47:10Z</time>
      </trkpt>
      <trkpt lat="58.844404" lon="17.248697">
        <ele>40.4</ele>
        <time>2017-09-03T10:47:11Z</time>
      </trkpt>
      <trkpt lat="58.844405" lon="17.24849">
        <ele>40.2</ele>
        <time>2017-09-03T10:47:12Z</time>
      </trkpt>
      <trkpt lat="58.844405" lon="17.248283">
        <ele>40</ele>
        <time>2017-09-03T10:47:13Z</time>
      </trkpt>
      <trkpt lat="58.844404" lon="17.248073">
        <ele>40</ele>
        <time>2017-09-03T10:47:14Z</time>
      </trkpt>
      <trkpt lat="58.844403" lon="17.247858">
        <ele>40</ele>
        <time>2017-09-03T10:47:15Z</time>
      </trkpt>
      <trkpt lat="58.844402" lon="17.247643">
        <ele>39.6</ele>
        <time>2017-09-03T10:47:16Z</time>
      </trkpt>
      <trkpt lat="58.844401" lon="17.247428">
        <ele>39.6</ele>
        <time>2017-09-03T10:47:17Z</time>
      </trkpt>
      <trkpt lat="58.8444" lon="17.247212">
        <ele>39.4</ele>
        <time>2017-09-03T10:47:18Z</time>
      </trkpt>
      <trkpt lat="58.844398" lon="17.246995">
        <ele>39.4</ele>
        <time>2017-09-03T10:47:19Z</time>
      </trkpt>
      <trkpt lat="58.844396" lon="17.246777">
        <ele>39.2</ele>
        <time>2017-09-03T10:47:20Z</time>
      </trkpt>
      <trkpt lat="58.844393" lon="17.24656">
        <ele>39.2</ele>
        <time>2017-09-03T10:47:21Z</time>
      </trkpt>
      <trkpt lat="58.84439" lon="17.246346">
        <ele>39.2</ele>
        <time>2017-09-03T10:47:22Z</time>
      </trkpt>
      <trkpt lat="58.844388" lon="17.246133">
        <ele>39</ele>
        <time>2017-09-03T10:47:23Z</time>
      </trkpt>
      <trkpt lat="58.844386" lon="17.24592">
        <ele>38.8</ele>
        <time>2017-09-03T10:47:24Z</time>
      </trkpt>
      <trkpt lat="58.844385" lon="17.245709">
        <ele>38.8</ele>
        <time>2017-09-03T10:47:25Z</time>
      </trkpt>
      <trkpt lat="58.844385" lon="17.245498">
        <ele>38.6</ele>
        <time>2017-09-03T10:47:26Z</time>
      </trkpt>
      <trkpt lat="58.844385" lon="17.245287">
        <ele>38.6</ele>
        <time>2017-09-03T10:47:27Z</time>
      </trkpt>
      <trkpt lat="58.844384" lon="17.245076">
        <ele>38.6</ele>
        <time>2017-09-03T10:47:28Z</time>
      </trkpt>
      <trkpt lat="58.844382" lon="17.244868">
        <ele>38.4</ele>
        <time>2017-09-03T10:47:29Z</time>
      </trkpt>
      <trkpt lat="58.844381" lon="17.244664">
        <ele>38</ele>
        <time>2017-09-03T10:47:30Z</time>
      </trkpt>
      <trkpt lat="58.844384" lon="17.244465">
        <ele>38</ele>
        <time>2017-09-03T10:47:31Z</time>
      </trkpt>
      <trkpt lat="58.844394" lon="17.244272">
        <ele>37.8</ele>
        <time>2017-09-03T10:47:32Z</time>
      </trkpt>
      <trkpt lat="58.844419" lon="17.244088">
        <ele>37.8</ele>
        <time>2017-09-03T10:47:33Z</time>
      </trkpt>
      <trkpt lat="58.844464" lon="17.243916">
        <ele>37.8</ele>
        <time>2017-09-03T10:47:34Z</time>
      </trkpt>
      <trkpt lat="58.844527" lon="17.243769">
        <ele>37.6</ele>
        <time>2017-09-03T10:47:35Z</time>
      </trkpt>
      <trkpt lat="58.844603" lon="17.243644">
        <ele>37.6</ele>
        <time>2017-09-03T10:47:36Z</time>
      </trkpt>
      <trkpt lat="58.844685" lon="17.243529">
        <ele>37.4</ele>
        <time>2017-09-03T10:47:37Z</time>
      </trkpt>
      <trkpt lat="58.84477" lon="17.243415">
        <ele>37.2</ele>
        <time>2017-09-03T10:47:38Z</time>
      </trkpt>
      <trkpt lat="58.844854" lon="17.243307">
        <ele>37.2</ele>
        <time>2017-09-03T10:47:39Z</time>
      </trkpt>
      <trkpt lat="58.844939" lon="17.243205">
        <ele>37.2</ele>
        <time>2017-09-03T10:47:40Z</time>
      </trkpt>
      <trkpt lat="58.845022" lon="17.243107">
        <ele>37.2</ele>
        <time>2017-09-03T10:47:41Z</time>
      </trkpt>
      <trkpt lat="58.845107" lon="17.243014">
        <ele>37</ele>
        <time>2017-09-03T10:47:42Z</time>
      </trkpt>
      <trkpt lat="58.845192" lon="17.242924">
        <ele>37</ele>
        <time>2017-09-03T10:47:43Z</time>
      </trkpt>
      <trkpt lat="58.845279" lon="17.242839">
        <ele>36.6</ele>
        <time>2017-09-03T10:47:44Z</time>
      </trkpt>
      <trkpt lat="58.845365" lon="17.242754">
        <ele>36.4</ele>
        <time>2017-09-03T10:47:45Z</time>
      </trkpt>
      <trkpt lat="58.845452" lon="17.242671">
        <ele>36.2</ele>
        <time>2017-09-03T10:47:46Z</time>
      </trkpt>
      <trkpt lat="58.845538" lon="17.242591">
        <ele>36</ele>
        <time>2017-09-03T10:47:47Z</time>
      </trkpt>
      <trkpt lat="58.845623" lon="17.242513">
        <ele>35.8</ele>
        <time>2017-09-03T10:47:48Z</time>
      </trkpt>
      <trkpt lat="58.84571" lon="17.242437">
        <ele>35.6</ele>
        <time>2017-09-03T10:47:49Z</time>
      </trkpt>
      <trkpt lat="58.845797" lon="17.242365">
        <ele>35.6</ele>
        <time>2017-09-03T10:47:50Z</time>
      </trkpt>
      <trkpt lat="58.845884" lon="17.242297">
        <ele>35.4</ele>
        <time>2017-09-03T10:47:51Z</time>
      </trkpt>
      <trkpt lat="58.845971" lon="17.24223">
        <ele>35.4</ele>
        <time>2017-09-03T10:47:52Z</time>
      </trkpt>
      <trkpt lat="58.846059" lon="17.242163">
        <ele>35.4</ele>
        <time>2017-09-03T10:47:53Z</time>
      </trkpt>
      <trkpt lat="58.846146" lon="17.242099">
        <ele>35.4</ele>
        <time>2017-09-03T10:47:54Z</time>
      </trkpt>
      <trkpt lat="58.846235" lon="17.242039">
        <ele>35.4</ele>
        <time>2017-09-03T10:47:55Z</time>
      </trkpt>
      <trkpt lat="58.846325" lon="17.24198">
        <ele>35.4</ele>
        <time>2017-09-03T10:47:56Z</time>
      </trkpt>
      <trkpt lat="58.846416" lon="17.241923">
        <ele>35.4</ele>
        <time>2017-09-03T10:47:57Z</time>
      </trkpt>
      <trkpt lat="58.846507" lon="17.241866">
        <ele>35.4</ele>
        <time>2017-09-03T10:47:58Z</time>
      </trkpt>
      <trkpt lat="58.846598" lon="17.241816">
        <ele>35.4</ele>
        <time>2017-09-03T10:47:59Z</time>
      </trkpt>
      <trkpt lat="58.846691" lon="17.241772">
        <ele>35.4</ele>
        <time>2017-09-03T10:48:00Z</time>
      </trkpt>
      <trkpt lat="58.846785" lon="17.241735">
        <ele>35.4</ele>
        <time>2017-09-03T10:48:01Z</time>
      </trkpt>
      <trkpt lat="58.846882" lon="17.241713">
        <ele>35.6</ele>
        <time>2017-09-03T10:48:02Z</time>
      </trkpt>
      <trkpt lat="58.846979" lon="17.241709">
        <ele>35.8</ele>
        <time>2017-09-03T10:48:03Z</time>
      </trkpt>
      <trkpt lat="58.847074" lon="17.241721">
        <ele>36</ele>
        <time>2017-09-03T10:48:04Z</time>
      </trkpt>
      <trkpt lat="58.847166" lon="17.241739">
        <ele>36</ele>
        <time>2017-09-03T10:48:05Z</time>
      </trkpt>
      <trkpt lat="58.847256" lon="17.241766">
        <ele>36.2</ele>
        <time>2017-09-03T10:48:06Z</time>
      </trkpt>
      <trkpt lat="58.847344" lon="17.241799">
        <ele>36.2</ele>
        <time>2017-09-03T10:48:07Z</time>
      </trkpt>
      <trkpt lat="58.847433" lon="17.241831">
        <ele>36.2</ele>
        <time>2017-09-03T10:48:08Z</time>
      </trkpt>
      <trkpt lat="58.847521" lon="17.241861">
        <ele>36.2</ele>
        <time>2017-09-03T10:48:09Z</time>
      </trkpt>
      <trkpt lat="58.847608" lon="17.241893">
        <ele>36.2</ele>
        <time>2017-09-03T10:48:10Z</time>
      </trkpt>
      <trkpt lat="58.847694" lon="17.241927">
        <ele>36.4</ele>
        <time>2017-09-03T10:48:11Z</time>
      </trkpt>
      <trkpt lat="58.84778" lon="17.241961">
        <ele>36.4</ele>
        <time>2017-09-03T10:48:12Z</time>
      </trkpt>
      <trkpt lat="58.847863" lon="17.241999">
        <ele>36.4</ele>
        <time>2017-09-03T10:48:13Z</time>
      </trkpt>
      <trkpt lat="58.847945" lon="17.242026">
        <ele>36.4</ele>
        <time>2017-09-03T10:48:14Z</time>
      </trkpt>
      <trkpt lat="58.848027" lon="17.242032">
        <ele>36.4</ele>
        <time>2017-09-03T10:48:15Z</time>
      </trkpt>
      <trkpt lat="58.848109" lon="17.242">
        <ele>36.4</ele>
        <time>2017-09-03T10:48:16Z</time>
      </trkpt>
      <trkpt lat="58.848178" lon="17.241915">
        <ele>36.4</ele>
        <time>2017-09-03T10:48:17Z</time>
      </trkpt>
      <trkpt lat="58.848214" lon="17.241786">
        <ele>36.6</ele>
        <time>2017-09-03T10:48:18Z</time>
      </trkpt>
      <trkpt lat="58.848225" lon="17.241629">
        <ele>36.6</ele>
        <time>2017-09-03T10:48:19Z</time>
      </trkpt>
      <trkpt lat="58.848224" lon="17.241458">
        <ele>36.8</ele>
        <time>2017-09-03T10:48:20Z</time>
      </trkpt>
      <trkpt lat="58.848212" lon="17.241276">
        <ele>36.8</ele>
        <time>2017-09-03T10:48:21Z</time>
      </trkpt>
      <trkpt lat="58.848195" lon="17.241078">
        <ele>36.8</ele>
        <time>2017-09-03T10:48:22Z</time>
      </trkpt>
      <trkpt lat="58.848176" lon="17.24087">
        <ele>36.8</ele>
        <time>2017-09-03T10:48:23Z</time>
      </trkpt>
      <trkpt lat="58.848159" lon="17.24066">
        <ele>36.8</ele>
        <time>2017-09-03T10:48:24Z</time>
      </trkpt>
      <trkpt lat="58.848144" lon="17.24045">
        <ele>36.8</ele>
        <time>2017-09-03T10:48:25Z</time>
      </trkpt>
      <trkpt lat="58.848129" lon="17.240237">
        <ele>36.8</ele>
        <time>2017-09-03T10:48:26Z</time>
      </trkpt>
      <trkpt lat="58.848112" lon="17.240019">
        <ele>36.8</ele>
        <time>2017-09-03T10:48:27Z</time>
      </trkpt>
      <trkpt lat="58.848096" lon="17.239795">
        <ele>36.8</ele>
        <time>2017-09-03T10:48:28Z</time>
      </trkpt>
      <trkpt lat="58.84808" lon="17.239565">
        <ele>36.8</ele>
        <time>2017-09-03T10:48:29Z</time>
      </trkpt>
      <trkpt lat="58.848062" lon="17.23933">
        <ele>36.8</ele>
        <time>2017-09-03T10:48:30Z</time>
      </trkpt>
      <trkpt lat="58.848044" lon="17.239093">
        <ele>36.6</ele>
        <time>2017-09-03T10:48:31Z</time>
      </trkpt>
      <trkpt lat="58.848028" lon="17.238855">
        <ele>36.6</ele>
        <time>2017-09-03T10:48:32Z</time>
      </trkpt>
      <trkpt lat="58.848013" lon="17.238614">
        <ele>36.4</ele>
        <time>2017-09-03T10:48:33Z</time>
      </trkpt>
      <trkpt lat="58.847994" lon="17.23837">
        <ele>36</ele>
        <time>2017-09-03T10:48:34Z</time>
      </trkpt>
      <trkpt lat="58.847975" lon="17.238123">
        <ele>36</ele>
        <time>2017-09-03T10:48:35Z</time>
      </trkpt>
      <trkpt lat="58.847957" lon="17.237873">
        <ele>35.8</ele>
        <time>2017-09-03T10:48:36Z</time>
      </trkpt>
      <trkpt lat="58.847938" lon="17.237622">
        <ele>36</ele>
        <time>2017-09-03T10:48:37Z</time>
      </trkpt>
      <trkpt lat="58.847909" lon="17.237374">
        <ele>35.8</ele>
        <time>2017-09-03T10:48:38Z</time>
      </trkpt>
      <trkpt lat="58.847874" lon="17.237132">
        <ele>35.8</ele>
        <time>2017-09-03T10:48:39Z</time>
      </trkpt>
      <trkpt lat="58.847834" lon="17.236896">
        <ele>35.4</ele>
        <time>2017-09-03T10:48:40Z</time>
      </trkpt>
      <trkpt lat="58.847789" lon="17.236661">
        <ele>35.4</ele>
        <time>2017-09-03T10:48:41Z</time>
      </trkpt>
      <trkpt lat="58.847742" lon="17.236425">
        <ele>35.4</ele>
        <time>2017-09-03T10:48:42Z</time>
      </trkpt>
      <trkpt lat="58.847694" lon="17.236188">
        <ele>35.6</ele>
        <time>2017-09-03T10:48:43Z</time>
      </trkpt>
      <trkpt lat="58.847645" lon="17.235948">
        <ele>35.6</ele>
        <time>2017-09-03T10:48:44Z</time>
      </trkpt>
      <trkpt lat="58.847595" lon="17.235704">
        <ele>35.4</ele>
        <time>2017-09-03T10:48:45Z</time>
      </trkpt>
      <trkpt lat="58.847545" lon="17.235457">
        <ele>35.4</ele>
        <time>2017-09-03T10:48:46Z</time>
      </trkpt>
      <trkpt lat="58.847493" lon="17.235213">
        <ele>35.4</ele>
        <time>2017-09-03T10:48:47Z</time>
      </trkpt>
      <trkpt lat="58.847437" lon="17.234975">
        <ele>35.4</ele>
        <time>2017-09-03T10:48:48Z</time>
      </trkpt>
      <trkpt lat="58.847371" lon="17.234748">
        <ele>35</ele>
        <time>2017-09-03T10:48:49Z</time>
      </trkpt>
      <trkpt lat="58.847299" lon="17.23453">
        <ele>34.8</ele>
        <time>2017-09-03T10:48:50Z</time>
      </trkpt>
      <trkpt lat="58.847225" lon="17.234323">
        <ele>34.8</ele>
        <time>2017-09-03T10:48:51Z</time>
      </trkpt>
      <trkpt lat="58.847149" lon="17.234126">
        <ele>34.8</ele>
        <time>2017-09-03T10:48:52Z</time>
      </trkpt>
      <trkpt lat="58.847074" lon="17.233939">
        <ele>34.8</ele>
        <time>2017-09-03T10:48:53Z</time>
      </trkpt>
      <trkpt lat="58.846999" lon="17.233758">
        <ele>34.8</ele>
        <time>2017-09-03T10:48:54Z</time>
      </trkpt>
      <trkpt lat="58.846926" lon="17.233584">
        <ele>34.8</ele>
        <time>2017-09-03T10:48:55Z</time>
      </trkpt>
      <trkpt lat="58.846856" lon="17.233416">
        <ele>34.8</ele>
        <time>2017-09-03T10:48:56Z</time>
      </trkpt>
      <trkpt lat="58.846789" lon="17.233249">
        <ele>34.8</ele>
        <time>2017-09-03T10:48:57Z</time>
      </trkpt>
      <trkpt lat="58.846724" lon="17.233084">
        <ele>34.8</ele>
        <time>2017-09-03T10:48:58Z</time>
      </trkpt>
      <trkpt lat="58.846659" lon="17.232921">
        <ele>34.8</ele>
        <time>2017-09-03T10:48:59Z</time>
      </trkpt>
      <trkpt lat="58.846596" lon="17.232758">
        <ele>34.8</ele>
        <time>2017-09-03T10:49:00Z</time>
      </trkpt>
      <trkpt lat="58.846536" lon="17.232593">
        <ele>35</ele>
        <time>2017-09-03T10:49:01Z</time>
      </trkpt>
      <trkpt lat="58.846477" lon="17.232429">
        <ele>35.2</ele>
        <time>2017-09-03T10:49:02Z</time>
      </trkpt>
      <trkpt lat="58.846418" lon="17.232266">
        <ele>35.4</ele>
        <time>2017-09-03T10:49:03Z</time>
      </trkpt>
      <trkpt lat="58.846359" lon="17.232106">
        <ele>36</ele>
        <time>2017-09-03T10:49:04Z</time>
      </trkpt>
      <trkpt lat="58.8463" lon="17.231949">
        <ele>36.4</ele>
        <time>2017-09-03T10:49:05Z</time>
      </trkpt>
      <trkpt lat="58.846243" lon="17.231799">
        <ele>36.6</ele>
        <time>2017-09-03T10:49:06Z</time>
      </trkpt>
      <trkpt lat="58.846185" lon="17.231655">
        <ele>36.8</ele>
        <time>2017-09-03T10:49:07Z</time>
      </trkpt>
      <trkpt lat="58.846127" lon="17.231517">
        <ele>37</ele>
        <time>2017-09-03T10:49:08Z</time>
      </trkpt>
      <trkpt lat="58.846073" lon="17.23138">
        <ele>37</ele>
        <time>2017-09-03T10:49:09Z</time>
      </trkpt>
      <trkpt lat="58.846033" lon="17.231234">
        <ele>37.2</ele>
        <time>2017-09-03T10:49:10Z</time>
      </trkpt>
      <trkpt lat="58.846014" lon="17.231085">
        <ele>37.2</ele>
        <time>2017-09-03T10:49:11Z</time>
      </trkpt>
      <trkpt lat="58.846015" lon="17.230947">
        <ele>37.2</ele>
        <time>2017-09-03T10:49:12Z</time>
      </trkpt>
      <trkpt lat="58.846059" lon="17.230837">
        <ele>37.2</ele>
        <time>2017-09-03T10:49:13Z</time>
      </trkpt>
      <trkpt lat="58.846122" lon="17.230749">
        <ele>37.2</ele>
        <time>2017-09-03T10:49:14Z</time>
      </trkpt>
      <trkpt lat="58.846195" lon="17.230664">
        <ele>37.2</ele>
        <time>2017-09-03T10:49:15Z</time>
      </trkpt>
      <trkpt lat="58.846274" lon="17.230577">
        <ele>37.2</ele>
        <time>2017-09-03T10:49:16Z</time>
      </trkpt>
      <trkpt lat="58.84635" lon="17.230489">
        <ele>37.4</ele>
        <time>2017-09-03T10:49:17Z</time>
      </trkpt>
      <trkpt lat="58.846419" lon="17.2304">
        <ele>37.4</ele>
        <time>2017-09-03T10:49:18Z</time>
      </trkpt>
      <trkpt lat="58.846485" lon="17.230311">
        <ele>37.4</ele>
        <time>2017-09-03T10:49:19Z</time>
      </trkpt>
      <trkpt lat="58.846544" lon="17.23022">
        <ele>37.4</ele>
        <time>2017-09-03T10:49:20Z</time>
      </trkpt>
      <trkpt lat="58.846597" lon="17.230127">
        <ele>37.4</ele>
        <time>2017-09-03T10:49:21Z</time>
      </trkpt>
      <trkpt lat="58.84665" lon="17.230037">
        <ele>37.6</ele>
        <time>2017-09-03T10:49:22Z</time>
      </trkpt>
      <trkpt lat="58.846702" lon="17.229948">
        <ele>37.6</ele>
        <time>2017-09-03T10:49:23Z</time>
      </trkpt>
      <trkpt lat="58.84675" lon="17.229861">
        <ele>37.6</ele>
        <time>2017-09-03T10:49:24Z</time>
      </trkpt>
      <trkpt lat="58.846796" lon="17.229775">
        <ele>37.8</ele>
        <time>2017-09-03T10:49:25Z</time>
      </trkpt>
      <trkpt lat="58.846841" lon="17.229683">
        <ele>38.8</ele>
        <time>2017-09-03T10:49:26Z</time>
      </trkpt>
      <trkpt lat="58.846891" lon="17.229581">
        <ele>39.4</ele>
        <time>2017-09-03T10:49:27Z</time>
      </trkpt>
      <trkpt lat="58.846935" lon="17.22948">
        <ele>40</ele>
        <time>2017-09-03T10:49:28Z</time>
      </trkpt>
      <trkpt lat="58.846981" lon="17.22938">
        <ele>40.6</ele>
        <time>2017-09-03T10:49:29Z</time>
      </trkpt>
      <trkpt lat="58.847027" lon="17.229278">
        <ele>41.2</ele>
        <time>2017-09-03T10:49:30Z</time>
      </trkpt>
      <trkpt lat="58.847074" lon="17.229181">
        <ele>41.6</ele>
        <time>2017-09-03T10:49:31Z</time>
      </trkpt>
      <trkpt lat="58.847123" lon="17.229084">
        <ele>42.2</ele>
        <time>2017-09-03T10:49:32Z</time>
      </trkpt>
      <trkpt lat="58.847168" lon="17.228986">
        <ele>42.8</ele>
        <time>2017-09-03T10:49:33Z</time>
      </trkpt>
      <trkpt lat="58.847211" lon="17.228889">
        <ele>43.2</ele>
        <time>2017-09-03T10:49:34Z</time>
      </trkpt>
      <trkpt lat="58.847253" lon="17.228791">
        <ele>43.8</ele>
        <time>2017-09-03T10:49:35Z</time>
      </trkpt>
      <trkpt lat="58.847296" lon="17.228693">
        <ele>44</ele>
        <time>2017-09-03T10:49:36Z</time>
      </trkpt>
      <trkpt lat="58.847339" lon="17.228594">
        <ele>44.2</ele>
        <time>2017-09-03T10:49:37Z</time>
      </trkpt>
      <trkpt lat="58.847383" lon="17.228493">
        <ele>44.6</ele>
        <time>2017-09-03T10:49:38Z</time>
      </trkpt>
      <trkpt lat="58.847427" lon="17.228391">
        <ele>45</ele>
        <time>2017-09-03T10:49:39Z</time>
      </trkpt>
      <trkpt lat="58.847474" lon="17.228286">
        <ele>45.2</ele>
        <time>2017-09-03T10:49:40Z</time>
      </trkpt>
      <trkpt lat="58.847524" lon="17.228178">
        <ele>45.4</ele>
        <time>2017-09-03T10:49:41Z</time>
      </trkpt>
      <trkpt lat="58.847575" lon="17.228066">
        <ele>45.4</ele>
        <time>2017-09-03T10:49:42Z</time>
      </trkpt>
      <trkpt lat="58.847631" lon="17.227948">
        <ele>45.4</ele>
        <time>2017-09-03T10:49:43Z</time>
      </trkpt>
      <trkpt lat="58.84769" lon="17.227823">
        <ele>45.4</ele>
        <time>2017-09-03T10:49:44Z</time>
      </trkpt>
      <trkpt lat="58.847752" lon="17.227692">
        <ele>45.4</ele>
        <time>2017-09-03T10:49:45Z</time>
      </trkpt>
      <trkpt lat="58.847818" lon="17.227557">
        <ele>45.4</ele>
        <time>2017-09-03T10:49:46Z</time>
      </trkpt>
      <trkpt lat="58.847884" lon="17.227419">
        <ele>45.4</ele>
        <time>2017-09-03T10:49:47Z</time>
      </trkpt>
      <trkpt lat="58.847951" lon="17.227283">
        <ele>45.4</ele>
        <time>2017-09-03T10:49:48Z</time>
      </trkpt>
      <trkpt lat="58.848019" lon="17.227148">
        <ele>45.4</ele>
        <time>2017-09-03T10:49:49Z</time>
      </trkpt>
      <trkpt lat="58.84809" lon="17.227012">
        <ele>45.2</ele>
        <time>2017-09-03T10:49:50Z</time>
      </trkpt>
      <trkpt lat="58.848161" lon="17.226876">
        <ele>45</ele>
        <time>2017-09-03T10:49:51Z</time>
      </trkpt>
      <trkpt lat="58.848235" lon="17.226735">
        <ele>44.8</ele>
        <time>2017-09-03T10:49:52Z</time>
      </trkpt>
      <trkpt lat="58.848309" lon="17.226589">
        <ele>44.2</ele>
        <time>2017-09-03T10:49:53Z</time>
      </trkpt>
      <trkpt lat="58.848385" lon="17.226441">
        <ele>44</ele>
        <time>2017-09-03T10:49:54Z</time>
      </trkpt>
      <trkpt lat="58.848462" lon="17.22629">
        <ele>43</ele>
        <time>2017-09-03T10:49:55Z</time>
      </trkpt>
      <trkpt lat="58.848538" lon="17.226141">
        <ele>42.4</ele>
        <time>2017-09-03T10:49:56Z</time>
      </trkpt>
      <trkpt lat="58.848614" lon="17.225992">
        <ele>41.8</ele>
        <time>2017-09-03T10:49:57Z</time>
      </trkpt>
      <trkpt lat="58.848688" lon="17.225848">
        <ele>41</ele>
        <time>2017-09-03T10:49:58Z</time>
      </trkpt>
      <trkpt lat="58.848761" lon="17.225707">
        <ele>40.2</ele>
        <time>2017-09-03T10:49:59Z</time>
      </trkpt>
      <trkpt lat="58.848832" lon="17.22557">
        <ele>39.6</ele>
        <time>2017-09-03T10:50:00Z</time>
      </trkpt>
      <trkpt lat="58.848899" lon="17.225438">
        <ele>38.8</ele>
        <time>2017-09-03T10:50:01Z</time>
      </trkpt>
      <trkpt lat="58.848964" lon="17.225307">
        <ele>38.2</ele>
        <time>2017-09-03T10:50:02Z</time>
      </trkpt>
      <trkpt lat="58.849031" lon="17.225184">
        <ele>37.2</ele>
        <time>2017-09-03T10:50:03Z</time>
      </trkpt>
      <trkpt lat="58.849094" lon="17.22506">
        <ele>36</ele>
        <time>2017-09-03T10:50:04Z</time>
      </trkpt>
      <trkpt lat="58.849157" lon="17.224935">
        <ele>35.2</ele>
        <time>2017-09-03T10:50:05Z</time>
      </trkpt>
      <trkpt lat="58.849221" lon="17.224807">
        <ele>34.6</ele>
        <time>2017-09-03T10:50:06Z</time>
      </trkpt>
      <trkpt lat="58.849286" lon="17.22468">
        <ele>34.4</ele>
        <time>2017-09-03T10:50:07Z</time>
      </trkpt>
      <trkpt lat="58.84935" lon="17.224557">
        <ele>34.2</ele>
        <time>2017-09-03T10:50:08Z</time>
      </trkpt>
      <trkpt lat="58.849415" lon="17.224436">
        <ele>34.2</ele>
        <time>2017-09-03T10:50:09Z</time>
      </trkpt>
      <trkpt lat="58.84948" lon="17.224315">
        <ele>34</ele>
        <time>2017-09-03T10:50:10Z</time>
      </trkpt>
      <trkpt lat="58.849543" lon="17.224192">
        <ele>34</ele>
        <time>2017-09-03T10:50:11Z</time>
      </trkpt>
      <trkpt lat="58.849607" lon="17.224068">
        <ele>34</ele>
        <time>2017-09-03T10:50:12Z</time>
      </trkpt>
      <trkpt lat="58.849671" lon="17.223948">
        <ele>34</ele>
        <time>2017-09-03T10:50:13Z</time>
      </trkpt>
      <trkpt lat="58.849735" lon="17.223827">
        <ele>34</ele>
        <time>2017-09-03T10:50:14Z</time>
      </trkpt>
      <trkpt lat="58.849798" lon="17.223706">
        <ele>34</ele>
        <time>2017-09-03T10:50:15Z</time>
      </trkpt>
      <trkpt lat="58.849862" lon="17.223584">
        <ele>34</ele>
        <time>2017-09-03T10:50:16Z</time>
      </trkpt>
      <trkpt lat="58.849928" lon="17.223462">
        <ele>34</ele>
        <time>2017-09-03T10:50:17Z</time>
      </trkpt>
      <trkpt lat="58.849996" lon="17.223342">
        <ele>34</ele>
        <time>2017-09-03T10:50:18Z</time>
      </trkpt>
      <trkpt lat="58.850065" lon="17.223226">
        <ele>34</ele>
        <time>2017-09-03T10:50:19Z</time>
      </trkpt>
      <trkpt lat="58.850133" lon="17.223115">
        <ele>34</ele>
        <time>2017-09-03T10:50:20Z</time>
      </trkpt>
      <trkpt lat="58.850202" lon="17.223005">
        <ele>33.8</ele>
        <time>2017-09-03T10:50:21Z</time>
      </trkpt>
      <trkpt lat="58.850274" lon="17.222896">
        <ele>33.8</ele>
        <time>2017-09-03T10:50:22Z</time>
      </trkpt>
      <trkpt lat="58.850349" lon="17.22279">
        <ele>33.8</ele>
        <time>2017-09-03T10:50:23Z</time>
      </trkpt>
      <trkpt lat="58.850427" lon="17.222684">
        <ele>33.8</ele>
        <time>2017-09-03T10:50:24Z</time>
      </trkpt>
      <trkpt lat="58.850509" lon="17.222582">
        <ele>33.8</ele>
        <time>2017-09-03T10:50:25Z</time>
      </trkpt>
      <trkpt lat="58.850592" lon="17.222481">
        <ele>33.6</ele>
        <time>2017-09-03T10:50:26Z</time>
      </trkpt>
      <trkpt lat="58.850673" lon="17.222381">
        <ele>33.6</ele>
        <time>2017-09-03T10:50:27Z</time>
      </trkpt>
      <trkpt lat="58.850756" lon="17.222283">
        <ele>33.6</ele>
        <time>2017-09-03T10:50:28Z</time>
      </trkpt>
      <trkpt lat="58.850839" lon="17.222185">
        <ele>33.4</ele>
        <time>2017-09-03T10:50:29Z</time>
      </trkpt>
      <trkpt lat="58.850925" lon="17.222092">
        <ele>33.6</ele>
        <time>2017-09-03T10:50:30Z</time>
      </trkpt>
      <trkpt lat="58.851011" lon="17.222">
        <ele>33.2</ele>
        <time>2017-09-03T10:50:31Z</time>
      </trkpt>
      <trkpt lat="58.851099" lon="17.22191">
        <ele>33.2</ele>
        <time>2017-09-03T10:50:32Z</time>
      </trkpt>
      <trkpt lat="58.85119" lon="17.22182">
        <ele>33.2</ele>
        <time>2017-09-03T10:50:33Z</time>
      </trkpt>
      <trkpt lat="58.851284" lon="17.221734">
        <ele>33.2</ele>
        <time>2017-09-03T10:50:34Z</time>
      </trkpt>
      <trkpt lat="58.851378" lon="17.22165">
        <ele>33.4</ele>
        <time>2017-09-03T10:50:35Z</time>
      </trkpt>
      <trkpt lat="58.851474" lon="17.221569">
        <ele>33.2</ele>
        <time>2017-09-03T10:50:36Z</time>
      </trkpt>
      <trkpt lat="58.851571" lon="17.221491">
        <ele>33.2</ele>
        <time>2017-09-03T10:50:37Z</time>
      </trkpt>
      <trkpt lat="58.851668" lon="17.221416">
        <ele>33</ele>
        <time>2017-09-03T10:50:38Z</time>
      </trkpt>
      <trkpt lat="58.851766" lon="17.221345">
        <ele>33</ele>
        <time>2017-09-03T10:50:39Z</time>
      </trkpt>
      <trkpt lat="58.851862" lon="17.221278">
        <ele>32.6</ele>
        <time>2017-09-03T10:50:40Z</time>
      </trkpt>
      <trkpt lat="58.851956" lon="17.221214">
        <ele>32.4</ele>
        <time>2017-09-03T10:50:41Z</time>
      </trkpt>
      <trkpt lat="58.852048" lon="17.221151">
        <ele>32</ele>
        <time>2017-09-03T10:50:42Z</time>
      </trkpt>
      <trkpt lat="58.852139" lon="17.221088">
        <ele>31.8</ele>
        <time>2017-09-03T10:50:43Z</time>
      </trkpt>
      <trkpt lat="58.852229" lon="17.221028">
        <ele>31.6</ele>
        <time>2017-09-03T10:50:44Z</time>
      </trkpt>
      <trkpt lat="58.852318" lon="17.220966">
        <ele>31.6</ele>
        <time>2017-09-03T10:50:45Z</time>
      </trkpt>
      <trkpt lat="58.852408" lon="17.220905">
        <ele>31.6</ele>
        <time>2017-09-03T10:50:46Z</time>
      </trkpt>
      <trkpt lat="58.8525" lon="17.220842">
        <ele>31.4</ele>
        <time>2017-09-03T10:50:47Z</time>
      </trkpt>
      <trkpt lat="58.85259" lon="17.220776">
        <ele>31.4</ele>
        <time>2017-09-03T10:50:48Z</time>
      </trkpt>
      <trkpt lat="58.852681" lon="17.220714">
        <ele>31.2</ele>
        <time>2017-09-03T10:50:49Z</time>
      </trkpt>
      <trkpt lat="58.852771" lon="17.220651">
        <ele>31.2</ele>
        <time>2017-09-03T10:50:50Z</time>
      </trkpt>
      <trkpt lat="58.852862" lon="17.220588">
        <ele>31.2</ele>
        <time>2017-09-03T10:50:51Z</time>
      </trkpt>
      <trkpt lat="58.852951" lon="17.220528">
        <ele>31.2</ele>
        <time>2017-09-03T10:50:52Z</time>
      </trkpt>
      <trkpt lat="58.853035" lon="17.22047">
        <ele>31.2</ele>
        <time>2017-09-03T10:50:53Z</time>
      </trkpt>
      <trkpt lat="58.853115" lon="17.220412">
        <ele>31.2</ele>
        <time>2017-09-03T10:50:54Z</time>
      </trkpt>
      <trkpt lat="58.853191" lon="17.220358">
        <ele>31.2</ele>
        <time>2017-09-03T10:50:55Z</time>
      </trkpt>
      <trkpt lat="58.853263" lon="17.220307">
        <ele>31.2</ele>
        <time>2017-09-03T10:50:56Z</time>
      </trkpt>
      <trkpt lat="58.853332" lon="17.220259">
        <ele>31.2</ele>
        <time>2017-09-03T10:50:57Z</time>
      </trkpt>
      <trkpt lat="58.853401" lon="17.220213">
        <ele>31.2</ele>
        <time>2017-09-03T10:50:58Z</time>
      </trkpt>
      <trkpt lat="58.853472" lon="17.220165">
        <ele>31.4</ele>
        <time>2017-09-03T10:50:59Z</time>
      </trkpt>
      <trkpt lat="58.853541" lon="17.220113">
        <ele>31.6</ele>
        <time>2017-09-03T10:51:00Z</time>
      </trkpt>
      <trkpt lat="58.853608" lon="17.22006">
        <ele>32</ele>
        <time>2017-09-03T10:51:01Z</time>
      </trkpt>
      <trkpt lat="58.853676" lon="17.220008">
        <ele>32.2</ele>
        <time>2017-09-03T10:51:02Z</time>
      </trkpt>
      <trkpt lat="58.853743" lon="17.219957">
        <ele>32.4</ele>
        <time>2017-09-03T10:51:03Z</time>
      </trkpt>
      <trkpt lat="58.853809" lon="17.2199">
        <ele>32.8</ele>
        <time>2017-09-03T10:51:04Z</time>
      </trkpt>
      <trkpt lat="58.853874" lon="17.21984">
        <ele>33.6</ele>
        <time>2017-09-03T10:51:05Z</time>
      </trkpt>
      <trkpt lat="58.85394" lon="17.219782">
        <ele>34.2</ele>
        <time>2017-09-03T10:51:06Z</time>
      </trkpt>
      <trkpt lat="58.854005" lon="17.219728">
        <ele>34.8</ele>
        <time>2017-09-03T10:51:07Z</time>
      </trkpt>
      <trkpt lat="58.85407" lon="17.21967">
        <ele>35.2</ele>
        <time>2017-09-03T10:51:08Z</time>
      </trkpt>
      <trkpt lat="58.854134" lon="17.219606">
        <ele>35.8</ele>
        <time>2017-09-03T10:51:09Z</time>
      </trkpt>
      <trkpt lat="58.854195" lon="17.219542">
        <ele>36.2</ele>
        <time>2017-09-03T10:51:10Z</time>
      </trkpt>
      <trkpt lat="58.854254" lon="17.219482">
        <ele>36.6</ele>
        <time>2017-09-03T10:51:11Z</time>
      </trkpt>
      <trkpt lat="58.854311" lon="17.219424">
        <ele>37</ele>
        <time>2017-09-03T10:51:12Z</time>
      </trkpt>
      <trkpt lat="58.854367" lon="17.219361">
        <ele>37.4</ele>
        <time>2017-09-03T10:51:13Z</time>
      </trkpt>
      <trkpt lat="58.85442" lon="17.219293">
        <ele>37.6</ele>
        <time>2017-09-03T10:51:14Z</time>
      </trkpt>
      <trkpt lat="58.854471" lon="17.219224">
        <ele>38</ele>
        <time>2017-09-03T10:51:15Z</time>
      </trkpt>
      <trkpt lat="58.854527" lon="17.219152">
        <ele>38.2</ele>
        <time>2017-09-03T10:51:16Z</time>
      </trkpt>
      <trkpt lat="58.854583" lon="17.219077">
        <ele>38.4</ele>
        <time>2017-09-03T10:51:17Z</time>
      </trkpt>
      <trkpt lat="58.854638" lon="17.218998">
        <ele>38.8</ele>
        <time>2017-09-03T10:51:18Z</time>
      </trkpt>
      <trkpt lat="58.854692" lon="17.218917">
        <ele>39</ele>
        <time>2017-09-03T10:51:19Z</time>
      </trkpt>
      <trkpt lat="58.854747" lon="17.218832">
        <ele>39.2</ele>
        <time>2017-09-03T10:51:20Z</time>
      </trkpt>
      <trkpt lat="58.854801" lon="17.218747">
        <ele>39.6</ele>
        <time>2017-09-03T10:51:21Z</time>
      </trkpt>
      <trkpt lat="58.854854" lon="17.218659">
        <ele>39.8</ele>
        <time>2017-09-03T10:51:22Z</time>
      </trkpt>
      <trkpt lat="58.854904" lon="17.218567">
        <ele>40.2</ele>
        <time>2017-09-03T10:51:23Z</time>
      </trkpt>
      <trkpt lat="58.854954" lon="17.218477">
        <ele>40.4</ele>
        <time>2017-09-03T10:51:24Z</time>
      </trkpt>
      <trkpt lat="58.855003" lon="17.218388">
        <ele>40.4</ele>
        <time>2017-09-03T10:51:25Z</time>
      </trkpt>
      <trkpt lat="58.855051" lon="17.218299">
        <ele>40.6</ele>
        <time>2017-09-03T10:51:26Z</time>
      </trkpt>
      <trkpt lat="58.855099" lon="17.218208">
        <ele>40.6</ele>
        <time>2017-09-03T10:51:27Z</time>
      </trkpt>
      <trkpt lat="58.855147" lon="17.218114">
        <ele>40.8</ele>
        <time>2017-09-03T10:51:28Z</time>
      </trkpt>
      <trkpt lat="58.855194" lon="17.218019">
        <ele>41</ele>
        <time>2017-09-03T10:51:29Z</time>
      </trkpt>
      <trkpt lat="58.85524" lon="17.217923">
        <ele>41.4</ele>
        <time>2017-09-03T10:51:30Z</time>
      </trkpt>
      <trkpt lat="58.855286" lon="17.217824">
        <ele>41.6</ele>
        <time>2017-09-03T10:51:31Z</time>
      </trkpt>
      <trkpt lat="58.855331" lon="17.217723">
        <ele>42</ele>
        <time>2017-09-03T10:51:32Z</time>
      </trkpt>
      <trkpt lat="58.855376" lon="17.21762">
        <ele>42.4</ele>
        <time>2017-09-03T10:51:33Z</time>
      </trkpt>
      <trkpt lat="58.85542" lon="17.217511">
        <ele>42.8</ele>
        <time>2017-09-03T10:51:34Z</time>
      </trkpt>
      <trkpt lat="58.855465" lon="17.217396">
        <ele>43.2</ele>
        <time>2017-09-03T10:51:35Z</time>
      </trkpt>
      <trkpt lat="58.85551" lon="17.217279">
        <ele>43.4</ele>
        <time>2017-09-03T10:51:36Z</time>
      </trkpt>
      <trkpt lat="58.855553" lon="17.217163">
        <ele>43.4</ele>
        <time>2017-09-03T10:51:37Z</time>
      </trkpt>
      <trkpt lat="58.855597" lon="17.217047">
        <ele>43.6</ele>
        <time>2017-09-03T10:51:38Z</time>
      </trkpt>
      <trkpt lat="58.855639" lon="17.21693">
        <ele>43.8</ele>
        <time>2017-09-03T10:51:39Z</time>
      </trkpt>
      <trkpt lat="58.855681" lon="17.21681">
        <ele>44</ele>
        <time>2017-09-03T10:51:40Z</time>
      </trkpt>
      <trkpt lat="58.855722" lon="17.216685">
        <ele>44</ele>
        <time>2017-09-03T10:51:41Z</time>
      </trkpt>
      <trkpt lat="58.855762" lon="17.216557">
        <ele>44.2</ele>
        <time>2017-09-03T10:51:42Z</time>
      </trkpt>
      <trkpt lat="58.8558" lon="17.216427">
        <ele>44.4</ele>
        <time>2017-09-03T10:51:43Z</time>
      </trkpt>
      <trkpt lat="58.855837" lon="17.216299">
        <ele>44.6</ele>
        <time>2017-09-03T10:51:44Z</time>
      </trkpt>
      <trkpt lat="58.855872" lon="17.216174">
        <ele>44.6</ele>
        <time>2017-09-03T10:51:45Z</time>
      </trkpt>
      <trkpt lat="58.855906" lon="17.216048">
        <ele>44.8</ele>
        <time>2017-09-03T10:51:46Z</time>
      </trkpt>
      <trkpt lat="58.855942" lon="17.21592">
        <ele>44.8</ele>
        <time>2017-09-03T10:51:47Z</time>
      </trkpt>
      <trkpt lat="58.855977" lon="17.215788">
        <ele>45</ele>
        <time>2017-09-03T10:51:48Z</time>
      </trkpt>
      <trkpt lat="58.856007" lon="17.215649">
        <ele>45.2</ele>
        <time>2017-09-03T10:51:49Z</time>
      </trkpt>
      <trkpt lat="58.856037" lon="17.215513">
        <ele>45.6</ele>
        <time>2017-09-03T10:51:50Z</time>
      </trkpt>
      <trkpt lat="58.856066" lon="17.215378">
        <ele>46.2</ele>
        <time>2017-09-03T10:51:51Z</time>
      </trkpt>
      <trkpt lat="58.856094" lon="17.215248">
        <ele>47.2</ele>
        <time>2017-09-03T10:51:52Z</time>
      </trkpt>
      <trkpt lat="58.856121" lon="17.215122">
        <ele>47.4</ele>
        <time>2017-09-03T10:51:53Z</time>
      </trkpt>
      <trkpt lat="58.856146" lon="17.214996">
        <ele>47.6</ele>
        <time>2017-09-03T10:51:54Z</time>
      </trkpt>
      <trkpt lat="58.85617" lon="17.214868">
        <ele>47.8</ele>
        <time>2017-09-03T10:51:55Z</time>
      </trkpt>
      <trkpt lat="58.856191" lon="17.21474">
        <ele>48</ele>
        <time>2017-09-03T10:51:56Z</time>
      </trkpt>
      <trkpt lat="58.856213" lon="17.214616">
        <ele>48</ele>
        <time>2017-09-03T10:51:57Z</time>
      </trkpt>
      <trkpt lat="58.856233" lon="17.214496">
        <ele>48.2</ele>
        <time>2017-09-03T10:51:58Z</time>
      </trkpt>
      <trkpt lat="58.856252" lon="17.214375">
        <ele>48.4</ele>
        <time>2017-09-03T10:51:59Z</time>
      </trkpt>
      <trkpt lat="58.85627" lon="17.214256">
        <ele>48.8</ele>
        <time>2017-09-03T10:52:00Z</time>
      </trkpt>
      <trkpt lat="58.85629" lon="17.214137">
        <ele>49.2</ele>
        <time>2017-09-03T10:52:01Z</time>
      </trkpt>
      <trkpt lat="58.856308" lon="17.214017">
        <ele>49.6</ele>
        <time>2017-09-03T10:52:02Z</time>
      </trkpt>
      <trkpt lat="58.856325" lon="17.213895">
        <ele>50</ele>
        <time>2017-09-03T10:52:03Z</time>
      </trkpt>
      <trkpt lat="58.856342" lon="17.213772">
        <ele>50.4</ele>
        <time>2017-09-03T10:52:04Z</time>
      </trkpt>
      <trkpt lat="58.856356" lon="17.213643">
        <ele>50.8</ele>
        <time>2017-09-03T10:52:05Z</time>
      </trkpt>
      <trkpt lat="58.856369" lon="17.213513">
        <ele>51</ele>
        <time>2017-09-03T10:52:06Z</time>
      </trkpt>
      <trkpt lat="58.856381" lon="17.213382">
        <ele>51.2</ele>
        <time>2017-09-03T10:52:07Z</time>
      </trkpt>
      <trkpt lat="58.856393" lon="17.21325">
        <ele>51.4</ele>
        <time>2017-09-03T10:52:08Z</time>
      </trkpt>
      <trkpt lat="58.856404" lon="17.213113">
        <ele>51.6</ele>
        <time>2017-09-03T10:52:09Z</time>
      </trkpt>
      <trkpt lat="58.856412" lon="17.212974">
        <ele>51.8</ele>
        <time>2017-09-03T10:52:10Z</time>
      </trkpt>
      <trkpt lat="58.856422" lon="17.212839">
        <ele>52</ele>
        <time>2017-09-03T10:52:11Z</time>
      </trkpt>
      <trkpt lat="58.856429" lon="17.212704">
        <ele>52.2</ele>
        <time>2017-09-03T10:52:12Z</time>
      </trkpt>
      <trkpt lat="58.856434" lon="17.212569">
        <ele>52.4</ele>
        <time>2017-09-03T10:52:13Z</time>
      </trkpt>
      <trkpt lat="58.856438" lon="17.212431">
        <ele>52.4</ele>
        <time>2017-09-03T10:52:14Z</time>
      </trkpt>
      <trkpt lat="58.856441" lon="17.212292">
        <ele>52.6</ele>
        <time>2017-09-03T10:52:15Z</time>
      </trkpt>
      <trkpt lat="58.856442" lon="17.212153">
        <ele>52.6</ele>
        <time>2017-09-03T10:52:16Z</time>
      </trkpt>
      <trkpt lat="58.856442" lon="17.212015">
        <ele>52.8</ele>
        <time>2017-09-03T10:52:17Z</time>
      </trkpt>
      <trkpt lat="58.856439" lon="17.211874">
        <ele>52.8</ele>
        <time>2017-09-03T10:52:18Z</time>
      </trkpt>
      <trkpt lat="58.856435" lon="17.211731">
        <ele>52.8</ele>
        <time>2017-09-03T10:52:19Z</time>
      </trkpt>
      <trkpt lat="58.856429" lon="17.211587">
        <ele>53</ele>
        <time>2017-09-03T10:52:20Z</time>
      </trkpt>
      <trkpt lat="58.856424" lon="17.211437">
        <ele>53</ele>
        <time>2017-09-03T10:52:21Z</time>
      </trkpt>
      <trkpt lat="58.856417" lon="17.211281">
        <ele>53</ele>
        <time>2017-09-03T10:52:22Z</time>
      </trkpt>
      <trkpt lat="58.856412" lon="17.211122">
        <ele>53</ele>
        <time>2017-09-03T10:52:23Z</time>
      </trkpt>
      <trkpt lat="58.856404" lon="17.210956">
        <ele>53</ele>
        <time>2017-09-03T10:52:24Z</time>
      </trkpt>
      <trkpt lat="58.856392" lon="17.210784">
        <ele>53</ele>
        <time>2017-09-03T10:52:25Z</time>
      </trkpt>
      <trkpt lat="58.85638" lon="17.210613">
        <ele>53</ele>
        <time>2017-09-03T10:52:26Z</time>
      </trkpt>
      <trkpt lat="58.856367" lon="17.21044">
        <ele>53</ele>
        <time>2017-09-03T10:52:27Z</time>
      </trkpt>
      <trkpt lat="58.856351" lon="17.21026">
        <ele>53</ele>
        <time>2017-09-03T10:52:28Z</time>
      </trkpt>
      <trkpt lat="58.856334" lon="17.210074">
        <ele>53</ele>
        <time>2017-09-03T10:52:29Z</time>
      </trkpt>
      <trkpt lat="58.856314" lon="17.209884">
        <ele>52.8</ele>
        <time>2017-09-03T10:52:30Z</time>
      </trkpt>
      <trkpt lat="58.856297" lon="17.209694">
        <ele>52.6</ele>
        <time>2017-09-03T10:52:31Z</time>
      </trkpt>
      <trkpt lat="58.856281" lon="17.209497">
        <ele>52.4</ele>
        <time>2017-09-03T10:52:32Z</time>
      </trkpt>
      <trkpt lat="58.856264" lon="17.209296">
        <ele>51.8</ele>
        <time>2017-09-03T10:52:33Z</time>
      </trkpt>
      <trkpt lat="58.856246" lon="17.209095">
        <ele>51.4</ele>
        <time>2017-09-03T10:52:34Z</time>
      </trkpt>
      <trkpt lat="58.856228" lon="17.208896">
        <ele>51</ele>
        <time>2017-09-03T10:52:35Z</time>
      </trkpt>
      <trkpt lat="58.856209" lon="17.208699">
        <ele>51</ele>
        <time>2017-09-03T10:52:36Z</time>
      </trkpt>
      <trkpt lat="58.856192" lon="17.208504">
        <ele>50.8</ele>
        <time>2017-09-03T10:52:37Z</time>
      </trkpt>
      <trkpt lat="58.856177" lon="17.208312">
        <ele>50.8</ele>
        <time>2017-09-03T10:52:38Z</time>
      </trkpt>
      <trkpt lat="58.856161" lon="17.208114">
        <ele>50.6</ele>
        <time>2017-09-03T10:52:39Z</time>
      </trkpt>
      <trkpt lat="58.856134" lon="17.207912">
        <ele>50.6</ele>
        <time>2017-09-03T10:52:40Z</time>
      </trkpt>
      <trkpt lat="58.856109" lon="17.207706">
        <ele>50.6</ele>
        <time>2017-09-03T10:52:41Z</time>
      </trkpt>
      <trkpt lat="58.85609" lon="17.207504">
        <ele>50.4</ele>
        <time>2017-09-03T10:52:42Z</time>
      </trkpt>
      <trkpt lat="58.856066" lon="17.207303">
        <ele>50.4</ele>
        <time>2017-09-03T10:52:43Z</time>
      </trkpt>
      <trkpt lat="58.856046" lon="17.207098">
        <ele>50.2</ele>
        <time>2017-09-03T10:52:44Z</time>
      </trkpt>
      <trkpt lat="58.856029" lon="17.206892">
        <ele>50.2</ele>
        <time>2017-09-03T10:52:45Z</time>
      </trkpt>
      <trkpt lat="58.856011" lon="17.206691">
        <ele>50</ele>
        <time>2017-09-03T10:52:46Z</time>
      </trkpt>
      <trkpt lat="58.856006" lon="17.206484">
        <ele>50</ele>
        <time>2017-09-03T10:52:47Z</time>
      </trkpt>
      <trkpt lat="58.855993" lon="17.206279">
        <ele>50</ele>
        <time>2017-09-03T10:52:48Z</time>
      </trkpt>
      <trkpt lat="58.855978" lon="17.206073">
        <ele>49.8</ele>
        <time>2017-09-03T10:52:49Z</time>
      </trkpt>
      <trkpt lat="58.855959" lon="17.205871">
        <ele>49.6</ele>
        <time>2017-09-03T10:52:50Z</time>
      </trkpt>
      <trkpt lat="58.855941" lon="17.205671">
        <ele>49.6</ele>
        <time>2017-09-03T10:52:51Z</time>
      </trkpt>
      <trkpt lat="58.855924" lon="17.205472">
        <ele>49.2</ele>
        <time>2017-09-03T10:52:52Z</time>
      </trkpt>
      <trkpt lat="58.855908" lon="17.205271">
        <ele>49</ele>
        <time>2017-09-03T10:52:53Z</time>
      </trkpt>
      <trkpt lat="58.855889" lon="17.205073">
        <ele>49</ele>
        <time>2017-09-03T10:52:54Z</time>
      </trkpt>
      <trkpt lat="58.855871" lon="17.204874">
        <ele>48.8</ele>
        <time>2017-09-03T10:52:55Z</time>
      </trkpt>
      <trkpt lat="58.855852" lon="17.204674">
        <ele>48.4</ele>
        <time>2017-09-03T10:52:56Z</time>
      </trkpt>
      <trkpt lat="58.855833" lon="17.204474">
        <ele>48.2</ele>
        <time>2017-09-03T10:52:57Z</time>
      </trkpt>
      <trkpt lat="58.855814" lon="17.204272">
        <ele>48</ele>
        <time>2017-09-03T10:52:58Z</time>
      </trkpt>
      <trkpt lat="58.855797" lon="17.204068">
        <ele>48</ele>
        <time>2017-09-03T10:52:59Z</time>
      </trkpt>
      <trkpt lat="58.85578" lon="17.203865">
        <ele>47.8</ele>
        <time>2017-09-03T10:53:00Z</time>
      </trkpt>
      <trkpt lat="58.855767" lon="17.203662">
        <ele>47.6</ele>
        <time>2017-09-03T10:53:01Z</time>
      </trkpt>
      <trkpt lat="58.855756" lon="17.203461">
        <ele>47.6</ele>
        <time>2017-09-03T10:53:02Z</time>
      </trkpt>
      <trkpt lat="58.855746" lon="17.203257">
        <ele>47.4</ele>
        <time>2017-09-03T10:53:03Z</time>
      </trkpt>
      <trkpt lat="58.855738" lon="17.203051">
        <ele>47.2</ele>
        <time>2017-09-03T10:53:04Z</time>
      </trkpt>
      <trkpt lat="58.855733" lon="17.202846">
        <ele>47</ele>
        <time>2017-09-03T10:53:05Z</time>
      </trkpt>
      <trkpt lat="58.855731" lon="17.202637">
        <ele>46.8</ele>
        <time>2017-09-03T10:53:06Z</time>
      </trkpt>
      <trkpt lat="58.855731" lon="17.202424">
        <ele>46.6</ele>
        <time>2017-09-03T10:53:07Z</time>
      </trkpt>
      <trkpt lat="58.855734" lon="17.202208">
        <ele>46.6</ele>
        <time>2017-09-03T10:53:08Z</time>
      </trkpt>
      <trkpt lat="58.85574" lon="17.201992">
        <ele>46.4</ele>
        <time>2017-09-03T10:53:09Z</time>
      </trkpt>
      <trkpt lat="58.855748" lon="17.201775">
        <ele>46.2</ele>
        <time>2017-09-03T10:53:10Z</time>
      </trkpt>
      <trkpt lat="58.855758" lon="17.201556">
        <ele>46.2</ele>
        <time>2017-09-03T10:53:11Z</time>
      </trkpt>
      <trkpt lat="58.855772" lon="17.201336">
        <ele>46</ele>
        <time>2017-09-03T10:53:12Z</time>
      </trkpt>
      <trkpt lat="58.855788" lon="17.201113">
        <ele>45.8</ele>
        <time>2017-09-03T10:53:13Z</time>
      </trkpt>
      <trkpt lat="58.855804" lon="17.200892">
        <ele>45.8</ele>
        <time>2017-09-03T10:53:14Z</time>
      </trkpt>
      <trkpt lat="58.855823" lon="17.200671">
        <ele>45.6</ele>
        <time>2017-09-03T10:53:15Z</time>
      </trkpt>
      <trkpt lat="58.855846" lon="17.200448">
        <ele>45.4</ele>
        <time>2017-09-03T10:53:16Z</time>
      </trkpt>
      <trkpt lat="58.85587" lon="17.200224">
        <ele>45.2</ele>
        <time>2017-09-03T10:53:17Z</time>
      </trkpt>
      <trkpt lat="58.855896" lon="17.199996">
        <ele>45</ele>
        <time>2017-09-03T10:53:18Z</time>
      </trkpt>
      <trkpt lat="58.855926" lon="17.199769">
        <ele>44.8</ele>
        <time>2017-09-03T10:53:19Z</time>
      </trkpt>
      <trkpt lat="58.85596" lon="17.19954">
        <ele>44.2</ele>
        <time>2017-09-03T10:53:20Z</time>
      </trkpt>
      <trkpt lat="58.855997" lon="17.19931">
        <ele>43.8</ele>
        <time>2017-09-03T10:53:21Z</time>
      </trkpt>
      <trkpt lat="58.856039" lon="17.199078">
        <ele>43.6</ele>
        <time>2017-09-03T10:53:22Z</time>
      </trkpt>
      <trkpt lat="58.856082" lon="17.198845">
        <ele>43.4</ele>
        <time>2017-09-03T10:53:23Z</time>
      </trkpt>
      <trkpt lat="58.85613" lon="17.198612">
        <ele>43</ele>
        <time>2017-09-03T10:53:24Z</time>
      </trkpt>
      <trkpt lat="58.856181" lon="17.198379">
        <ele>42.8</ele>
        <time>2017-09-03T10:53:25Z</time>
      </trkpt>
      <trkpt lat="58.856235" lon="17.198149">
        <ele>42.4</ele>
        <time>2017-09-03T10:53:26Z</time>
      </trkpt>
      <trkpt lat="58.856291" lon="17.197923">
        <ele>41.8</ele>
        <time>2017-09-03T10:53:27Z</time>
      </trkpt>
      <trkpt lat="58.856351" lon="17.197698">
        <ele>41.2</ele>
        <time>2017-09-03T10:53:28Z</time>
      </trkpt>
      <trkpt lat="58.856414" lon="17.197477">
        <ele>40.6</ele>
        <time>2017-09-03T10:53:29Z</time>
      </trkpt>
      <trkpt lat="58.856479" lon="17.197262">
        <ele>40.2</ele>
        <time>2017-09-03T10:53:30Z</time>
      </trkpt>
      <trkpt lat="58.856545" lon="17.197054">
        <ele>40</ele>
        <time>2017-09-03T10:53:31Z</time>
      </trkpt>
      <trkpt lat="58.85661" lon="17.196852">
        <ele>39.4</ele>
        <time>2017-09-03T10:53:32Z</time>
      </trkpt>
      <trkpt lat="58.856676" lon="17.196654">
        <ele>38.8</ele>
        <time>2017-09-03T10:53:33Z</time>
      </trkpt>
      <trkpt lat="58.856746" lon="17.19646">
        <ele>38.2</ele>
        <time>2017-09-03T10:53:34Z</time>
      </trkpt>
      <trkpt lat="58.856822" lon="17.196267">
        <ele>37.8</ele>
        <time>2017-09-03T10:53:35Z</time>
      </trkpt>
      <trkpt lat="58.856898" lon="17.196081">
        <ele>37.4</ele>
        <time>2017-09-03T10:53:36Z</time>
      </trkpt>
      <trkpt lat="58.856972" lon="17.195901">
        <ele>37</ele>
        <time>2017-09-03T10:53:37Z</time>
      </trkpt>
      <trkpt lat="58.857047" lon="17.195727">
        <ele>36.8</ele>
        <time>2017-09-03T10:53:38Z</time>
      </trkpt>
      <trkpt lat="58.857123" lon="17.195557">
        <ele>36.6</ele>
        <time>2017-09-03T10:53:39Z</time>
      </trkpt>
      <trkpt lat="58.857199" lon="17.195389">
        <ele>36.4</ele>
        <time>2017-09-03T10:53:40Z</time>
      </trkpt>
      <trkpt lat="58.857274" lon="17.195221">
        <ele>36.4</ele>
        <time>2017-09-03T10:53:41Z</time>
      </trkpt>
      <trkpt lat="58.857349" lon="17.195055">
        <ele>36.4</ele>
        <time>2017-09-03T10:53:42Z</time>
      </trkpt>
      <trkpt lat="58.857423" lon="17.194892">
        <ele>36.2</ele>
        <time>2017-09-03T10:53:43Z</time>
      </trkpt>
      <trkpt lat="58.857498" lon="17.194731">
        <ele>36.2</ele>
        <time>2017-09-03T10:53:44Z</time>
      </trkpt>
      <trkpt lat="58.857571" lon="17.194569">
        <ele>36.2</ele>
        <time>2017-09-03T10:53:45Z</time>
      </trkpt>
      <trkpt lat="58.857646" lon="17.194408">
        <ele>36</ele>
        <time>2017-09-03T10:53:46Z</time>
      </trkpt>
      <trkpt lat="58.857719" lon="17.194246">
        <ele>36</ele>
        <time>2017-09-03T10:53:47Z</time>
      </trkpt>
      <trkpt lat="58.857793" lon="17.194086">
        <ele>35.8</ele>
        <time>2017-09-03T10:53:48Z</time>
      </trkpt>
      <trkpt lat="58.857866" lon="17.193923">
        <ele>35.8</ele>
        <time>2017-09-03T10:53:49Z</time>
      </trkpt>
      <trkpt lat="58.857941" lon="17.19376">
        <ele>35.6</ele>
        <time>2017-09-03T10:53:50Z</time>
      </trkpt>
      <trkpt lat="58.858016" lon="17.193598">
        <ele>35.4</ele>
        <time>2017-09-03T10:53:51Z</time>
      </trkpt>
      <trkpt lat="58.858091" lon="17.193433">
        <ele>35.2</ele>
        <time>2017-09-03T10:53:52Z</time>
      </trkpt>
      <trkpt lat="58.858165" lon="17.193266">
        <ele>35</ele>
        <time>2017-09-03T10:53:53Z</time>
      </trkpt>
      <trkpt lat="58.858238" lon="17.193101">
        <ele>34.8</ele>
        <time>2017-09-03T10:53:54Z</time>
      </trkpt>
      <trkpt lat="58.85831" lon="17.192937">
        <ele>34.8</ele>
        <time>2017-09-03T10:53:55Z</time>
      </trkpt>
      <trkpt lat="58.858381" lon="17.192774">
        <ele>34.6</ele>
        <time>2017-09-03T10:53:56Z</time>
      </trkpt>
      <trkpt lat="58.858452" lon="17.192614">
        <ele>34.6</ele>
        <time>2017-09-03T10:53:57Z</time>
      </trkpt>
      <trkpt lat="58.858521" lon="17.192453">
        <ele>34.4</ele>
        <time>2017-09-03T10:53:58Z</time>
      </trkpt>
      <trkpt lat="58.858589" lon="17.192292">
        <ele>34.4</ele>
        <time>2017-09-03T10:53:59Z</time>
      </trkpt>
      <trkpt lat="58.858658" lon="17.192131">
        <ele>34.2</ele>
        <time>2017-09-03T10:54:00Z</time>
      </trkpt>
      <trkpt lat="58.858727" lon="17.191972">
        <ele>34</ele>
        <time>2017-09-03T10:54:01Z</time>
      </trkpt>
      <trkpt lat="58.858797" lon="17.191813">
        <ele>34</ele>
        <time>2017-09-03T10:54:02Z</time>
      </trkpt>
      <trkpt lat="58.858867" lon="17.191654">
        <ele>34</ele>
        <time>2017-09-03T10:54:03Z</time>
      </trkpt>
      <trkpt lat="58.858937" lon="17.191498">
        <ele>34</ele>
        <time>2017-09-03T10:54:04Z</time>
      </trkpt>
      <trkpt lat="58.859007" lon="17.191339">
        <ele>33.8</ele>
        <time>2017-09-03T10:54:05Z</time>
      </trkpt>
      <trkpt lat="58.859078" lon="17.19118">
        <ele>33.8</ele>
        <time>2017-09-03T10:54:06Z</time>
      </trkpt>
      <trkpt lat="58.85915" lon="17.191023">
        <ele>33.8</ele>
        <time>2017-09-03T10:54:07Z</time>
      </trkpt>
      <trkpt lat="58.859222" lon="17.190864">
        <ele>33.8</ele>
        <time>2017-09-03T10:54:08Z</time>
      </trkpt>
      <trkpt lat="58.859295" lon="17.1907">
        <ele>33.8</ele>
        <time>2017-09-03T10:54:09Z</time>
      </trkpt>
      <trkpt lat="58.859367" lon="17.190534">
        <ele>33.6</ele>
        <time>2017-09-03T10:54:10Z</time>
      </trkpt>
      <trkpt lat="58.859439" lon="17.190369">
        <ele>33.6</ele>
        <time>2017-09-03T10:54:11Z</time>
      </trkpt>
      <trkpt lat="58.85951" lon="17.190206">
        <ele>33.6</ele>
        <time>2017-09-03T10:54:12Z</time>
      </trkpt>
      <trkpt lat="58.859582" lon="17.190047">
        <ele>33.6</ele>
        <time>2017-09-03T10:54:13Z</time>
      </trkpt>
      <trkpt lat="58.859651" lon="17.18989">
        <ele>33.2</ele>
        <time>2017-09-03T10:54:14Z</time>
      </trkpt>
      <trkpt lat="58.859719" lon="17.189735">
        <ele>33</ele>
        <time>2017-09-03T10:54:15Z</time>
      </trkpt>
      <trkpt lat="58.859786" lon="17.18958">
        <ele>32.8</ele>
        <time>2017-09-03T10:54:16Z</time>
      </trkpt>
      <trkpt lat="58.859852" lon="17.189425">
        <ele>32.8</ele>
        <time>2017-09-03T10:54:17Z</time>
      </trkpt>
      <trkpt lat="58.85992" lon="17.189268">
        <ele>32.6</ele>
        <time>2017-09-03T10:54:18Z</time>
      </trkpt>
      <trkpt lat="58.859988" lon="17.18911">
        <ele>32.4</ele>
        <time>2017-09-03T10:54:19Z</time>
      </trkpt>
      <trkpt lat="58.860056" lon="17.188953">
        <ele>32.4</ele>
        <time>2017-09-03T10:54:20Z</time>
      </trkpt>
      <trkpt lat="58.860124" lon="17.188802">
        <ele>32.4</ele>
        <time>2017-09-03T10:54:21Z</time>
      </trkpt>
      <trkpt lat="58.86019" lon="17.188655">
        <ele>32.4</ele>
        <time>2017-09-03T10:54:22Z</time>
      </trkpt>
      <trkpt lat="58.860257" lon="17.18851">
        <ele>32.4</ele>
        <time>2017-09-03T10:54:23Z</time>
      </trkpt>
      <trkpt lat="58.860325" lon="17.188369">
        <ele>32.4</ele>
        <time>2017-09-03T10:54:24Z</time>
      </trkpt>
      <trkpt lat="58.860393" lon="17.18823">
        <ele>32.4</ele>
        <time>2017-09-03T10:54:25Z</time>
      </trkpt>
      <trkpt lat="58.860463" lon="17.188094">
        <ele>32.2</ele>
        <time>2017-09-03T10:54:26Z</time>
      </trkpt>
      <trkpt lat="58.860537" lon="17.187962">
        <ele>32.2</ele>
        <time>2017-09-03T10:54:27Z</time>
      </trkpt>
      <trkpt lat="58.860613" lon="17.187833">
        <ele>32.2</ele>
        <time>2017-09-03T10:54:28Z</time>
      </trkpt>
      <trkpt lat="58.860692" lon="17.187712">
        <ele>32.2</ele>
        <time>2017-09-03T10:54:29Z</time>
      </trkpt>
      <trkpt lat="58.860771" lon="17.187596">
        <ele>32.2</ele>
        <time>2017-09-03T10:54:30Z</time>
      </trkpt>
      <trkpt lat="58.860849" lon="17.187482">
        <ele>32.2</ele>
        <time>2017-09-03T10:54:31Z</time>
      </trkpt>
      <trkpt lat="58.860927" lon="17.187374">
        <ele>32.2</ele>
        <time>2017-09-03T10:54:32Z</time>
      </trkpt>
      <trkpt lat="58.861004" lon="17.187267">
        <ele>32.2</ele>
        <time>2017-09-03T10:54:33Z</time>
      </trkpt>
      <trkpt lat="58.86108" lon="17.18716">
        <ele>32.2</ele>
        <time>2017-09-03T10:54:34Z</time>
      </trkpt>
      <trkpt lat="58.861157" lon="17.187051">
        <ele>32.2</ele>
        <time>2017-09-03T10:54:35Z</time>
      </trkpt>
      <trkpt lat="58.861234" lon="17.186939">
        <ele>32.2</ele>
        <time>2017-09-03T10:54:36Z</time>
      </trkpt>
      <trkpt lat="58.861311" lon="17.186827">
        <ele>32.2</ele>
        <time>2017-09-03T10:54:37Z</time>
      </trkpt>
      <trkpt lat="58.861387" lon="17.186715">
        <ele>32.2</ele>
        <time>2017-09-03T10:54:38Z</time>
      </trkpt>
      <trkpt lat="58.861465" lon="17.186603">
        <ele>32.2</ele>
        <time>2017-09-03T10:54:39Z</time>
      </trkpt>
      <trkpt lat="58.861542" lon="17.186492">
        <ele>32</ele>
        <time>2017-09-03T10:54:40Z</time>
      </trkpt>
      <trkpt lat="58.861619" lon="17.186381">
        <ele>32</ele>
        <time>2017-09-03T10:54:41Z</time>
      </trkpt>
      <trkpt lat="58.861694" lon="17.18627">
        <ele>32</ele>
        <time>2017-09-03T10:54:42Z</time>
      </trkpt>
      <trkpt lat="58.861769" lon="17.186162">
        <ele>31.8</ele>
        <time>2017-09-03T10:54:43Z</time>
      </trkpt>
      <trkpt lat="58.861843" lon="17.186052">
        <ele>31.8</ele>
        <time>2017-09-03T10:54:44Z</time>
      </trkpt>
      <trkpt lat="58.861917" lon="17.185941">
        <ele>31.8</ele>
        <time>2017-09-03T10:54:45Z</time>
      </trkpt>
      <trkpt lat="58.861994" lon="17.185829">
        <ele>31.6</ele>
        <time>2017-09-03T10:54:46Z</time>
      </trkpt>
      <trkpt lat="58.86207" lon="17.185717">
        <ele>31.6</ele>
        <time>2017-09-03T10:54:47Z</time>
      </trkpt>
      <trkpt lat="58.862147" lon="17.185606">
        <ele>31.6</ele>
        <time>2017-09-03T10:54:48Z</time>
      </trkpt>
      <trkpt lat="58.862225" lon="17.185495">
        <ele>31.6</ele>
        <time>2017-09-03T10:54:49Z</time>
      </trkpt>
      <trkpt lat="58.862301" lon="17.185384">
        <ele>31.6</ele>
        <time>2017-09-03T10:54:50Z</time>
      </trkpt>
      <trkpt lat="58.862376" lon="17.185275">
        <ele>31.6</ele>
        <time>2017-09-03T10:54:51Z</time>
      </trkpt>
      <trkpt lat="58.862451" lon="17.185168">
        <ele>31.6</ele>
        <time>2017-09-03T10:54:52Z</time>
      </trkpt>
      <trkpt lat="58.862523" lon="17.185061">
        <ele>31.6</ele>
        <time>2017-09-03T10:54:53Z</time>
      </trkpt>
      <trkpt lat="58.862592" lon="17.184953">
        <ele>31.6</ele>
        <time>2017-09-03T10:54:54Z</time>
      </trkpt>
      <trkpt lat="58.86266" lon="17.184849">
        <ele>31.6</ele>
        <time>2017-09-03T10:54:55Z</time>
      </trkpt>
      <trkpt lat="58.862728" lon="17.184748">
        <ele>31.6</ele>
        <time>2017-09-03T10:54:56Z</time>
      </trkpt>
      <trkpt lat="58.862798" lon="17.184644">
        <ele>31.6</ele>
        <time>2017-09-03T10:54:57Z</time>
      </trkpt>
      <trkpt lat="58.862868" lon="17.18454">
        <ele>31.6</ele>
        <time>2017-09-03T10:54:58Z</time>
      </trkpt>
      <trkpt lat="58.862939" lon="17.184437">
        <ele>31.6</ele>
        <time>2017-09-03T10:54:59Z</time>
      </trkpt>
      <trkpt lat="58.863011" lon="17.184336">
        <ele>31.6</ele>
        <time>2017-09-03T10:55:00Z</time>
      </trkpt>
      <trkpt lat="58.863084" lon="17.184233">
        <ele>31.4</ele>
        <time>2017-09-03T10:55:01Z</time>
      </trkpt>
      <trkpt lat="58.863158" lon="17.184128">
        <ele>31.4</ele>
        <time>2017-09-03T10:55:02Z</time>
      </trkpt>
      <trkpt lat="58.863232" lon="17.184018">
        <ele>31.4</ele>
        <time>2017-09-03T10:55:03Z</time>
      </trkpt>
      <trkpt lat="58.863305" lon="17.183906">
        <ele>31.4</ele>
        <time>2017-09-03T10:55:04Z</time>
      </trkpt>
      <trkpt lat="58.863379" lon="17.183797">
        <ele>31.4</ele>
        <time>2017-09-03T10:55:05Z</time>
      </trkpt>
      <trkpt lat="58.863454" lon="17.183688">
        <ele>31.4</ele>
        <time>2017-09-03T10:55:06Z</time>
      </trkpt>
      <trkpt lat="58.863528" lon="17.183578">
        <ele>31.4</ele>
        <time>2017-09-03T10:55:07Z</time>
      </trkpt>
      <trkpt lat="58.863602" lon="17.183468">
        <ele>31.4</ele>
        <time>2017-09-03T10:55:08Z</time>
      </trkpt>
      <trkpt lat="58.863677" lon="17.183359">
        <ele>31.4</ele>
        <time>2017-09-03T10:55:09Z</time>
      </trkpt>
      <trkpt lat="58.863752" lon="17.183249">
        <ele>31.4</ele>
        <time>2017-09-03T10:55:10Z</time>
      </trkpt>
      <trkpt lat="58.863829" lon="17.183138">
        <ele>31.4</ele>
        <time>2017-09-03T10:55:11Z</time>
      </trkpt>
      <trkpt lat="58.863906" lon="17.183026">
        <ele>31.4</ele>
        <time>2017-09-03T10:55:12Z</time>
      </trkpt>
      <trkpt lat="58.863984" lon="17.182915">
        <ele>31.4</ele>
        <time>2017-09-03T10:55:13Z</time>
      </trkpt>
      <trkpt lat="58.86406" lon="17.182807">
        <ele>31.2</ele>
        <time>2017-09-03T10:55:14Z</time>
      </trkpt>
      <trkpt lat="58.864135" lon="17.182695">
        <ele>31.2</ele>
        <time>2017-09-03T10:55:15Z</time>
      </trkpt>
      <trkpt lat="58.86421" lon="17.182584">
        <ele>31.2</ele>
        <time>2017-09-03T10:55:16Z</time>
      </trkpt>
      <trkpt lat="58.864283" lon="17.182474">
        <ele>31</ele>
        <time>2017-09-03T10:55:17Z</time>
      </trkpt>
      <trkpt lat="58.864356" lon="17.182366">
        <ele>30.8</ele>
        <time>2017-09-03T10:55:18Z</time>
      </trkpt>
      <trkpt lat="58.864429" lon="17.182257">
        <ele>30.8</ele>
        <time>2017-09-03T10:55:19Z</time>
      </trkpt>
      <trkpt lat="58.864503" lon="17.18215">
        <ele>30.8</ele>
        <time>2017-09-03T10:55:20Z</time>
      </trkpt>
      <trkpt lat="58.864578" lon="17.182043">
        <ele>30.6</ele>
        <time>2017-09-03T10:55:21Z</time>
      </trkpt>
      <trkpt lat="58.864654" lon="17.181934">
        <ele>30.6</ele>
        <time>2017-09-03T10:55:22Z</time>
      </trkpt>
      <trkpt lat="58.864728" lon="17.181823">
        <ele>30.6</ele>
        <time>2017-09-03T10:55:23Z</time>
      </trkpt>
      <trkpt lat="58.864801" lon="17.181713">
        <ele>30.6</ele>
        <time>2017-09-03T10:55:24Z</time>
      </trkpt>
      <trkpt lat="58.864874" lon="17.181604">
        <ele>30.6</ele>
        <time>2017-09-03T10:55:25Z</time>
      </trkpt>
      <trkpt lat="58.864949" lon="17.181497">
        <ele>30.6</ele>
        <time>2017-09-03T10:55:26Z</time>
      </trkpt>
      <trkpt lat="58.865024" lon="17.181391">
        <ele>30.6</ele>
        <time>2017-09-03T10:55:27Z</time>
      </trkpt>
      <trkpt lat="58.865098" lon="17.181283">
        <ele>30.4</ele>
        <time>2017-09-03T10:55:28Z</time>
      </trkpt>
      <trkpt lat="58.865173" lon="17.181173">
        <ele>30.4</ele>
        <time>2017-09-03T10:55:29Z</time>
      </trkpt>
      <trkpt lat="58.865249" lon="17.181057">
        <ele>30.4</ele>
        <time>2017-09-03T10:55:30Z</time>
      </trkpt>
      <trkpt lat="58.865326" lon="17.180935">
        <ele>30.4</ele>
        <time>2017-09-03T10:55:31Z</time>
      </trkpt>
      <trkpt lat="58.865406" lon="17.180811">
        <ele>30.4</ele>
        <time>2017-09-03T10:55:32Z</time>
      </trkpt>
      <trkpt lat="58.86549" lon="17.180686">
        <ele>30.4</ele>
        <time>2017-09-03T10:55:33Z</time>
      </trkpt>
      <trkpt lat="58.865576" lon="17.18056">
        <ele>30.4</ele>
        <time>2017-09-03T10:55:34Z</time>
      </trkpt>
      <trkpt lat="58.865663" lon="17.180435">
        <ele>30.4</ele>
        <time>2017-09-03T10:55:35Z</time>
      </trkpt>
      <trkpt lat="58.865751" lon="17.180311">
        <ele>30.4</ele>
        <time>2017-09-03T10:55:36Z</time>
      </trkpt>
      <trkpt lat="58.865839" lon="17.18019">
        <ele>30.2</ele>
        <time>2017-09-03T10:55:37Z</time>
      </trkpt>
      <trkpt lat="58.865926" lon="17.180071">
        <ele>30.2</ele>
        <time>2017-09-03T10:55:38Z</time>
      </trkpt>
      <trkpt lat="58.866012" lon="17.179953">
        <ele>30.2</ele>
        <time>2017-09-03T10:55:39Z</time>
      </trkpt>
      <trkpt lat="58.866097" lon="17.179842">
        <ele>30.2</ele>
        <time>2017-09-03T10:55:40Z</time>
      </trkpt>
      <trkpt lat="58.866184" lon="17.179746">
        <ele>30</ele>
        <time>2017-09-03T10:55:41Z</time>
      </trkpt>
      <trkpt lat="58.866274" lon="17.179674">
        <ele>29.8</ele>
        <time>2017-09-03T10:55:42Z</time>
      </trkpt>
      <trkpt lat="58.866368" lon="17.179627">
        <ele>29.6</ele>
        <time>2017-09-03T10:55:43Z</time>
      </trkpt>
      <trkpt lat="58.866461" lon="17.179602">
        <ele>29.4</ele>
        <time>2017-09-03T10:55:44Z</time>
      </trkpt>
      <trkpt lat="58.86655" lon="17.179584">
        <ele>29.2</ele>
        <time>2017-09-03T10:55:45Z</time>
      </trkpt>
      <trkpt lat="58.866635" lon="17.179573">
        <ele>29.2</ele>
        <time>2017-09-03T10:55:46Z</time>
      </trkpt>
      <trkpt lat="58.866718" lon="17.179564">
        <ele>29.2</ele>
        <time>2017-09-03T10:55:47Z</time>
      </trkpt>
      <trkpt lat="58.866799" lon="17.179553">
        <ele>29.2</ele>
        <time>2017-09-03T10:55:48Z</time>
      </trkpt>
      <trkpt lat="58.866877" lon="17.179544">
        <ele>29.2</ele>
        <time>2017-09-03T10:55:49Z</time>
      </trkpt>
      <trkpt lat="58.866954" lon="17.179535">
        <ele>29.2</ele>
        <time>2017-09-03T10:55:50Z</time>
      </trkpt>
      <trkpt lat="58.867029" lon="17.179528">
        <ele>29.2</ele>
        <time>2017-09-03T10:55:51Z</time>
      </trkpt>
      <trkpt lat="58.867104" lon="17.179518">
        <ele>29.2</ele>
        <time>2017-09-03T10:55:52Z</time>
      </trkpt>
      <trkpt lat="58.867177" lon="17.179507">
        <ele>29.4</ele>
        <time>2017-09-03T10:55:53Z</time>
      </trkpt>
      <trkpt lat="58.867248" lon="17.179493">
        <ele>30.2</ele>
        <time>2017-09-03T10:55:54Z</time>
      </trkpt>
      <trkpt lat="58.867318" lon="17.179482">
        <ele>31</ele>
        <time>2017-09-03T10:55:55Z</time>
      </trkpt>
      <trkpt lat="58.867385" lon="17.179469">
        <ele>31.8</ele>
        <time>2017-09-03T10:55:56Z</time>
      </trkpt>
      <trkpt lat="58.867451" lon="17.179457">
        <ele>32.6</ele>
        <time>2017-09-03T10:55:57Z</time>
      </trkpt>
      <trkpt lat="58.867517" lon="17.179445">
        <ele>33</ele>
        <time>2017-09-03T10:55:58Z</time>
      </trkpt>
      <trkpt lat="58.86758" lon="17.179435">
        <ele>33.4</ele>
        <time>2017-09-03T10:55:59Z</time>
      </trkpt>
      <trkpt lat="58.867644" lon="17.179425">
        <ele>33.8</ele>
        <time>2017-09-03T10:56:00Z</time>
      </trkpt>
      <trkpt lat="58.867707" lon="17.179413">
        <ele>34</ele>
        <time>2017-09-03T10:56:01Z</time>
      </trkpt>
      <trkpt lat="58.867769" lon="17.179401">
        <ele>34.2</ele>
        <time>2017-09-03T10:56:02Z</time>
      </trkpt>
      <trkpt lat="58.867828" lon="17.179389">
        <ele>34.4</ele>
        <time>2017-09-03T10:56:03Z</time>
      </trkpt>
      <trkpt lat="58.867884" lon="17.179379">
        <ele>34.6</ele>
        <time>2017-09-03T10:56:04Z</time>
      </trkpt>
      <trkpt lat="58.867941" lon="17.179371">
        <ele>35</ele>
        <time>2017-09-03T10:56:05Z</time>
      </trkpt>
      <trkpt lat="58.867997" lon="17.179363">
        <ele>35.4</ele>
        <time>2017-09-03T10:56:06Z</time>
      </trkpt>
      <trkpt lat="58.868054" lon="17.179354">
        <ele>35.8</ele>
        <time>2017-09-03T10:56:07Z</time>
      </trkpt>
      <trkpt lat="58.868111" lon="17.179345">
        <ele>36.2</ele>
        <time>2017-09-03T10:56:08Z</time>
      </trkpt>
      <trkpt lat="58.868166" lon="17.179334">
        <ele>36.6</ele>
        <time>2017-09-03T10:56:09Z</time>
      </trkpt>
      <trkpt lat="58.868219" lon="17.179321">
        <ele>37.2</ele>
        <time>2017-09-03T10:56:10Z</time>
      </trkpt>
      <trkpt lat="58.868274" lon="17.179309">
        <ele>37.8</ele>
        <time>2017-09-03T10:56:11Z</time>
      </trkpt>
      <trkpt lat="58.868328" lon="17.179295">
        <ele>38.2</ele>
        <time>2017-09-03T10:56:12Z</time>
      </trkpt>
      <trkpt lat="58.868379" lon="17.179281">
        <ele>38.6</ele>
        <time>2017-09-03T10:56:13Z</time>
      </trkpt>
      <trkpt lat="58.868425" lon="17.179266">
        <ele>38.6</ele>
        <time>2017-09-03T10:56:14Z</time>
      </trkpt>
      <trkpt lat="58.868471" lon="17.17925">
        <ele>39</ele>
        <time>2017-09-03T10:56:15Z</time>
      </trkpt>
      <trkpt lat="58.868519" lon="17.179228">
        <ele>39.4</ele>
        <time>2017-09-03T10:56:16Z</time>
      </trkpt>
      <trkpt lat="58.868568" lon="17.179198">
        <ele>39.6</ele>
        <time>2017-09-03T10:56:17Z</time>
      </trkpt>
      <trkpt lat="58.868619" lon="17.179162">
        <ele>40</ele>
        <time>2017-09-03T10:56:18Z</time>
      </trkpt>
      <trkpt lat="58.868671" lon="17.179122">
        <ele>40.4</ele>
        <time>2017-09-03T10:56:19Z</time>
      </trkpt>
      <trkpt lat="58.868721" lon="17.179074">
        <ele>40.8</ele>
        <time>2017-09-03T10:56:20Z</time>
      </trkpt>
      <trkpt lat="58.868773" lon="17.17902">
        <ele>41.2</ele>
        <time>2017-09-03T10:56:21Z</time>
      </trkpt>
      <trkpt lat="58.868825" lon="17.178959">
        <ele>41.8</ele>
        <time>2017-09-03T10:56:22Z</time>
      </trkpt>
      <trkpt lat="58.868876" lon="17.178893">
        <ele>42</ele>
        <time>2017-09-03T10:56:23Z</time>
      </trkpt>
      <trkpt lat="58.868927" lon="17.178824">
        <ele>42.4</ele>
        <time>2017-09-03T10:56:24Z</time>
      </trkpt>
      <trkpt lat="58.868978" lon="17.178744">
        <ele>42.8</ele>
        <time>2017-09-03T10:56:25Z</time>
      </trkpt>
      <trkpt lat="58.869028" lon="17.178652">
        <ele>43.2</ele>
        <time>2017-09-03T10:56:26Z</time>
      </trkpt>
      <trkpt lat="58.869078" lon="17.17855">
        <ele>43.4</ele>
        <time>2017-09-03T10:56:27Z</time>
      </trkpt>
      <trkpt lat="58.86913" lon="17.178442">
        <ele>43.6</ele>
        <time>2017-09-03T10:56:28Z</time>
      </trkpt>
      <trkpt lat="58.869185" lon="17.178333">
        <ele>43.6</ele>
        <time>2017-09-03T10:56:29Z</time>
      </trkpt>
      <trkpt lat="58.869236" lon="17.178223">
        <ele>43.6</ele>
        <time>2017-09-03T10:56:30Z</time>
      </trkpt>
      <trkpt lat="58.869284" lon="17.178112">
        <ele>43.6</ele>
        <time>2017-09-03T10:56:31Z</time>
      </trkpt>
      <trkpt lat="58.869335" lon="17.177998">
        <ele>43.8</ele>
        <time>2017-09-03T10:56:32Z</time>
      </trkpt>
      <trkpt lat="58.869386" lon="17.177877">
        <ele>43.8</ele>
        <time>2017-09-03T10:56:33Z</time>
      </trkpt>
      <trkpt lat="58.869439" lon="17.177753">
        <ele>43.8</ele>
        <time>2017-09-03T10:56:34Z</time>
      </trkpt>
      <trkpt lat="58.869493" lon="17.177629">
        <ele>43.8</ele>
        <time>2017-09-03T10:56:35Z</time>
      </trkpt>
      <trkpt lat="58.869548" lon="17.177502">
        <ele>43.8</ele>
        <time>2017-09-03T10:56:36Z</time>
      </trkpt>
      <trkpt lat="58.869604" lon="17.177377">
        <ele>43.4</ele>
        <time>2017-09-03T10:56:37Z</time>
      </trkpt>
      <trkpt lat="58.86966" lon="17.177251">
        <ele>43</ele>
        <time>2017-09-03T10:56:38Z</time>
      </trkpt>
      <trkpt lat="58.869723" lon="17.177127">
        <ele>42.8</ele>
        <time>2017-09-03T10:56:39Z</time>
      </trkpt>
      <trkpt lat="58.86979" lon="17.177011">
        <ele>42.6</ele>
        <time>2017-09-03T10:56:40Z</time>
      </trkpt>
      <trkpt lat="58.869865" lon="17.176906">
        <ele>42.4</ele>
        <time>2017-09-03T10:56:41Z</time>
      </trkpt>
      <trkpt lat="58.869945" lon="17.176811">
        <ele>42.2</ele>
        <time>2017-09-03T10:56:42Z</time>
      </trkpt>
      <trkpt lat="58.870033" lon="17.17673">
        <ele>42</ele>
        <time>2017-09-03T10:56:43Z</time>
      </trkpt>
      <trkpt lat="58.870126" lon="17.17667">
        <ele>41.8</ele>
        <time>2017-09-03T10:56:44Z</time>
      </trkpt>
      <trkpt lat="58.870227" lon="17.176628">
        <ele>41.8</ele>
        <time>2017-09-03T10:56:45Z</time>
      </trkpt>
      <trkpt lat="58.870331" lon="17.176604">
        <ele>41.8</ele>
        <time>2017-09-03T10:56:46Z</time>
      </trkpt>
      <trkpt lat="58.870437" lon="17.176597">
        <ele>41.6</ele>
        <time>2017-09-03T10:56:47Z</time>
      </trkpt>
      <trkpt lat="58.870543" lon="17.176598">
        <ele>41.6</ele>
        <time>2017-09-03T10:56:48Z</time>
      </trkpt>
      <trkpt lat="58.870648" lon="17.176604">
        <ele>41.4</ele>
        <time>2017-09-03T10:56:49Z</time>
      </trkpt>
      <trkpt lat="58.870754" lon="17.17661">
        <ele>41.4</ele>
        <time>2017-09-03T10:56:50Z</time>
      </trkpt>
      <trkpt lat="58.87086" lon="17.17661">
        <ele>41</ele>
        <time>2017-09-03T10:56:51Z</time>
      </trkpt>
      <trkpt lat="58.87097" lon="17.176594">
        <ele>40.6</ele>
        <time>2017-09-03T10:56:52Z</time>
      </trkpt>
      <trkpt lat="58.871077" lon="17.17655">
        <ele>40.6</ele>
        <time>2017-09-03T10:56:53Z</time>
      </trkpt>
      <trkpt lat="58.871182" lon="17.176472">
        <ele>40.4</ele>
        <time>2017-09-03T10:56:54Z</time>
      </trkpt>
      <trkpt lat="58.871279" lon="17.176368">
        <ele>40</ele>
        <time>2017-09-03T10:56:55Z</time>
      </trkpt>
      <trkpt lat="58.871369" lon="17.176251">
        <ele>40</ele>
        <time>2017-09-03T10:56:56Z</time>
      </trkpt>
      <trkpt lat="58.871451" lon="17.176126">
        <ele>39.6</ele>
        <time>2017-09-03T10:56:57Z</time>
      </trkpt>
      <trkpt lat="58.87153" lon="17.176001">
        <ele>39.2</ele>
        <time>2017-09-03T10:56:58Z</time>
      </trkpt>
      <trkpt lat="58.871611" lon="17.175882">
        <ele>39</ele>
        <time>2017-09-03T10:56:59Z</time>
      </trkpt>
      <trkpt lat="58.871697" lon="17.175774">
        <ele>38.8</ele>
        <time>2017-09-03T10:57:00Z</time>
      </trkpt>
      <trkpt lat="58.871787" lon="17.175681">
        <ele>38.8</ele>
        <time>2017-09-03T10:57:01Z</time>
      </trkpt>
      <trkpt lat="58.871882" lon="17.1756">
        <ele>38.8</ele>
        <time>2017-09-03T10:57:02Z</time>
      </trkpt>
      <trkpt lat="58.871981" lon="17.17554">
        <ele>38.8</ele>
        <time>2017-09-03T10:57:03Z</time>
      </trkpt>
      <trkpt lat="58.872084" lon="17.175502">
        <ele>38.8</ele>
        <time>2017-09-03T10:57:04Z</time>
      </trkpt>
      <trkpt lat="58.872186" lon="17.175477">
        <ele>38.8</ele>
        <time>2017-09-03T10:57:05Z</time>
      </trkpt>
      <trkpt lat="58.872287" lon="17.17546">
        <ele>38.8</ele>
        <time>2017-09-03T10:57:06Z</time>
      </trkpt>
      <trkpt lat="58.872388" lon="17.175447">
        <ele>38.8</ele>
        <time>2017-09-03T10:57:07Z</time>
      </trkpt>
      <trkpt lat="58.872494" lon="17.175436">
        <ele>38.8</ele>
        <time>2017-09-03T10:57:08Z</time>
      </trkpt>
      <trkpt lat="58.872603" lon="17.17543">
        <ele>38.8</ele>
        <time>2017-09-03T10:57:09Z</time>
      </trkpt>
      <trkpt lat="58.872715" lon="17.17544">
        <ele>38.8</ele>
        <time>2017-09-03T10:57:10Z</time>
      </trkpt>
      <trkpt lat="58.872821" lon="17.175471">
        <ele>38.8</ele>
        <time>2017-09-03T10:57:11Z</time>
      </trkpt>
      <trkpt lat="58.87292" lon="17.175531">
        <ele>38.8</ele>
        <time>2017-09-03T10:57:12Z</time>
      </trkpt>
      <trkpt lat="58.873014" lon="17.175614">
        <ele>38.8</ele>
        <time>2017-09-03T10:57:13Z</time>
      </trkpt>
      <trkpt lat="58.873101" lon="17.175704">
        <ele>39</ele>
        <time>2017-09-03T10:57:14Z</time>
      </trkpt>
      <trkpt lat="58.873186" lon="17.175793">
        <ele>39.2</ele>
        <time>2017-09-03T10:57:15Z</time>
      </trkpt>
      <trkpt lat="58.873268" lon="17.175878">
        <ele>39.4</ele>
        <time>2017-09-03T10:57:16Z</time>
      </trkpt>
      <trkpt lat="58.873349" lon="17.175963">
        <ele>39.8</ele>
        <time>2017-09-03T10:57:17Z</time>
      </trkpt>
      <trkpt lat="58.87343" lon="17.176045">
        <ele>40</ele>
        <time>2017-09-03T10:57:18Z</time>
      </trkpt>
      <trkpt lat="58.87351" lon="17.176125">
        <ele>40</ele>
        <time>2017-09-03T10:57:19Z</time>
      </trkpt>
      <trkpt lat="58.873589" lon="17.176205">
        <ele>40.2</ele>
        <time>2017-09-03T10:57:20Z</time>
      </trkpt>
      <trkpt lat="58.873665" lon="17.176284">
        <ele>40.2</ele>
        <time>2017-09-03T10:57:21Z</time>
      </trkpt>
      <trkpt lat="58.873739" lon="17.176361">
        <ele>40.4</ele>
        <time>2017-09-03T10:57:22Z</time>
      </trkpt>
      <trkpt lat="58.87381" lon="17.176433">
        <ele>40.4</ele>
        <time>2017-09-03T10:57:23Z</time>
      </trkpt>
      <trkpt lat="58.87388" lon="17.176506">
        <ele>40.8</ele>
        <time>2017-09-03T10:57:24Z</time>
      </trkpt>
      <trkpt lat="58.87395" lon="17.176574">
        <ele>41.2</ele>
        <time>2017-09-03T10:57:25Z</time>
      </trkpt>
      <trkpt lat="58.87402" lon="17.176639">
        <ele>41.6</ele>
        <time>2017-09-03T10:57:26Z</time>
      </trkpt>
      <trkpt lat="58.874089" lon="17.176704">
        <ele>41.8</ele>
        <time>2017-09-03T10:57:27Z</time>
      </trkpt>
      <trkpt lat="58.874159" lon="17.176773">
        <ele>42.2</ele>
        <time>2017-09-03T10:57:28Z</time>
      </trkpt>
      <trkpt lat="58.87423" lon="17.17685">
        <ele>42.2</ele>
        <time>2017-09-03T10:57:29Z</time>
      </trkpt>
      <trkpt lat="58.874306" lon="17.176928">
        <ele>42.4</ele>
        <time>2017-09-03T10:57:30Z</time>
      </trkpt>
      <trkpt lat="58.874385" lon="17.177007">
        <ele>42.6</ele>
        <time>2017-09-03T10:57:31Z</time>
      </trkpt>
      <trkpt lat="58.874464" lon="17.177084">
        <ele>42.8</ele>
        <time>2017-09-03T10:57:32Z</time>
      </trkpt>
      <trkpt lat="58.874542" lon="17.177157">
        <ele>42.8</ele>
        <time>2017-09-03T10:57:33Z</time>
      </trkpt>
      <trkpt lat="58.87462" lon="17.177225">
        <ele>43</ele>
        <time>2017-09-03T10:57:34Z</time>
      </trkpt>
      <trkpt lat="58.874698" lon="17.177297">
        <ele>43</ele>
        <time>2017-09-03T10:57:35Z</time>
      </trkpt>
      <trkpt lat="58.874777" lon="17.177371">
        <ele>43.2</ele>
        <time>2017-09-03T10:57:36Z</time>
      </trkpt>
      <trkpt lat="58.874858" lon="17.177445">
        <ele>43.4</ele>
        <time>2017-09-03T10:57:37Z</time>
      </trkpt>
      <trkpt lat="58.874938" lon="17.177519">
        <ele>43.4</ele>
        <time>2017-09-03T10:57:38Z</time>
      </trkpt>
      <trkpt lat="58.875018" lon="17.177594">
        <ele>43.6</ele>
        <time>2017-09-03T10:57:39Z</time>
      </trkpt>
      <trkpt lat="58.875098" lon="17.177668">
        <ele>43.8</ele>
        <time>2017-09-03T10:57:40Z</time>
      </trkpt>
      <trkpt lat="58.875177" lon="17.17774">
        <ele>43.8</ele>
        <time>2017-09-03T10:57:41Z</time>
      </trkpt>
      <trkpt lat="58.875258" lon="17.17781">
        <ele>44</ele>
        <time>2017-09-03T10:57:42Z</time>
      </trkpt>
      <trkpt lat="58.87534" lon="17.177876">
        <ele>44.2</ele>
        <time>2017-09-03T10:57:43Z</time>
      </trkpt>
      <trkpt lat="58.875423" lon="17.177944">
        <ele>44.4</ele>
        <time>2017-09-03T10:57:44Z</time>
      </trkpt>
      <trkpt lat="58.875506" lon="17.178012">
        <ele>44.4</ele>
        <time>2017-09-03T10:57:45Z</time>
      </trkpt>
      <trkpt lat="58.875589" lon="17.178082">
        <ele>44.6</ele>
        <time>2017-09-03T10:57:46Z</time>
      </trkpt>
      <trkpt lat="58.875675" lon="17.178151">
        <ele>44.6</ele>
        <time>2017-09-03T10:57:47Z</time>
      </trkpt>
      <trkpt lat="58.875763" lon="17.178221">
        <ele>44.6</ele>
        <time>2017-09-03T10:57:48Z</time>
      </trkpt>
      <trkpt lat="58.875853" lon="17.178296">
        <ele>44.6</ele>
        <time>2017-09-03T10:57:49Z</time>
      </trkpt>
      <trkpt lat="58.875942" lon="17.178372">
        <ele>44.6</ele>
        <time>2017-09-03T10:57:50Z</time>
      </trkpt>
      <trkpt lat="58.87603" lon="17.178445">
        <ele>44.6</ele>
        <time>2017-09-03T10:57:51Z</time>
      </trkpt>
      <trkpt lat="58.876118" lon="17.178517">
        <ele>44.6</ele>
        <time>2017-09-03T10:57:52Z</time>
      </trkpt>
      <trkpt lat="58.876208" lon="17.178592">
        <ele>44.8</ele>
        <time>2017-09-03T10:57:53Z</time>
      </trkpt>
      <trkpt lat="58.876299" lon="17.178669">
        <ele>44.8</ele>
        <time>2017-09-03T10:57:54Z</time>
      </trkpt>
      <trkpt lat="58.876389" lon="17.178749">
        <ele>45</ele>
        <time>2017-09-03T10:57:55Z</time>
      </trkpt>
      <trkpt lat="58.876479" lon="17.178832">
        <ele>45</ele>
        <time>2017-09-03T10:57:56Z</time>
      </trkpt>
      <trkpt lat="58.876567" lon="17.178923">
        <ele>45</ele>
        <time>2017-09-03T10:57:57Z</time>
      </trkpt>
      <trkpt lat="58.876653" lon="17.17903">
        <ele>45</ele>
        <time>2017-09-03T10:57:58Z</time>
      </trkpt>
      <trkpt lat="58.876736" lon="17.179148">
        <ele>45</ele>
        <time>2017-09-03T10:57:59Z</time>
      </trkpt>
      <trkpt lat="58.876816" lon="17.179278">
        <ele>45</ele>
        <time>2017-09-03T10:58:00Z</time>
      </trkpt>
      <trkpt lat="58.876892" lon="17.179415">
        <ele>45</ele>
        <time>2017-09-03T10:58:01Z</time>
      </trkpt>
      <trkpt lat="58.876966" lon="17.17956">
        <ele>45</ele>
        <time>2017-09-03T10:58:02Z</time>
      </trkpt>
      <trkpt lat="58.877036" lon="17.179714">
        <ele>45</ele>
        <time>2017-09-03T10:58:03Z</time>
      </trkpt>
      <trkpt lat="58.877103" lon="17.179871">
        <ele>45</ele>
        <time>2017-09-03T10:58:04Z</time>
      </trkpt>
      <trkpt lat="58.877166" lon="17.180032">
        <ele>45</ele>
        <time>2017-09-03T10:58:05Z</time>
      </trkpt>
      <trkpt lat="58.877226" lon="17.180196">
        <ele>44.8</ele>
        <time>2017-09-03T10:58:06Z</time>
      </trkpt>
      <trkpt lat="58.877287" lon="17.180362">
        <ele>44.6</ele>
        <time>2017-09-03T10:58:07Z</time>
      </trkpt>
      <trkpt lat="58.87735" lon="17.180525">
        <ele>44.2</ele>
        <time>2017-09-03T10:58:08Z</time>
      </trkpt>
      <trkpt lat="58.877414" lon="17.180685">
        <ele>44</ele>
        <time>2017-09-03T10:58:09Z</time>
      </trkpt>
      <trkpt lat="58.877478" lon="17.180849">
        <ele>43.6</ele>
        <time>2017-09-03T10:58:10Z</time>
      </trkpt>
      <trkpt lat="58.877545" lon="17.181018">
        <ele>43.2</ele>
        <time>2017-09-03T10:58:11Z</time>
      </trkpt>
      <trkpt lat="58.877612" lon="17.18119">
        <ele>42.4</ele>
        <time>2017-09-03T10:58:12Z</time>
      </trkpt>
      <trkpt lat="58.877679" lon="17.181364">
        <ele>42.2</ele>
        <time>2017-09-03T10:58:13Z</time>
      </trkpt>
      <trkpt lat="58.877747" lon="17.181537">
        <ele>42</ele>
        <time>2017-09-03T10:58:14Z</time>
      </trkpt>
      <trkpt lat="58.877813" lon="17.181707">
        <ele>41.8</ele>
        <time>2017-09-03T10:58:15Z</time>
      </trkpt>
      <trkpt lat="58.877877" lon="17.181877">
        <ele>41.8</ele>
        <time>2017-09-03T10:58:16Z</time>
      </trkpt>
      <trkpt lat="58.877942" lon="17.182047">
        <ele>41.6</ele>
        <time>2017-09-03T10:58:17Z</time>
      </trkpt>
      <trkpt lat="58.878008" lon="17.182218">
        <ele>41.6</ele>
        <time>2017-09-03T10:58:18Z</time>
      </trkpt>
      <trkpt lat="58.878074" lon="17.182389">
        <ele>41.6</ele>
        <time>2017-09-03T10:58:19Z</time>
      </trkpt>
      <trkpt lat="58.878141" lon="17.182562">
        <ele>41.4</ele>
        <time>2017-09-03T10:58:20Z</time>
      </trkpt>
      <trkpt lat="58.87821" lon="17.182736">
        <ele>41.2</ele>
        <time>2017-09-03T10:58:21Z</time>
      </trkpt>
      <trkpt lat="58.878279" lon="17.182908">
        <ele>41</ele>
        <time>2017-09-03T10:58:22Z</time>
      </trkpt>
      <trkpt lat="58.878349" lon="17.183079">
        <ele>41</ele>
        <time>2017-09-03T10:58:23Z</time>
      </trkpt>
      <trkpt lat="58.87842" lon="17.183248">
        <ele>41</ele>
        <time>2017-09-03T10:58:24Z</time>
      </trkpt>
      <trkpt lat="58.878492" lon="17.183414">
        <ele>40.8</ele>
        <time>2017-09-03T10:58:25Z</time>
      </trkpt>
      <trkpt lat="58.878567" lon="17.183573">
        <ele>40.8</ele>
        <time>2017-09-03T10:58:26Z</time>
      </trkpt>
      <trkpt lat="58.878647" lon="17.183727">
        <ele>40.8</ele>
        <time>2017-09-03T10:58:27Z</time>
      </trkpt>
      <trkpt lat="58.87873" lon="17.18387">
        <ele>40.8</ele>
        <time>2017-09-03T10:58:28Z</time>
      </trkpt>
      <trkpt lat="58.878817" lon="17.184003">
        <ele>40.8</ele>
        <time>2017-09-03T10:58:29Z</time>
      </trkpt>
      <trkpt lat="58.878906" lon="17.184126">
        <ele>40.6</ele>
        <time>2017-09-03T10:58:30Z</time>
      </trkpt>
      <trkpt lat="58.878996" lon="17.184242">
        <ele>40.6</ele>
        <time>2017-09-03T10:58:31Z</time>
      </trkpt>
      <trkpt lat="58.879084" lon="17.184355">
        <ele>40.4</ele>
        <time>2017-09-03T10:58:32Z</time>
      </trkpt>
      <trkpt lat="58.879173" lon="17.184465">
        <ele>39.8</ele>
        <time>2017-09-03T10:58:33Z</time>
      </trkpt>
      <trkpt lat="58.879263" lon="17.184573">
        <ele>39.4</ele>
        <time>2017-09-03T10:58:34Z</time>
      </trkpt>
      <trkpt lat="58.879355" lon="17.184684">
        <ele>39</ele>
        <time>2017-09-03T10:58:35Z</time>
      </trkpt>
      <trkpt lat="58.87945" lon="17.184798">
        <ele>38.8</ele>
        <time>2017-09-03T10:58:36Z</time>
      </trkpt>
      <trkpt lat="58.879547" lon="17.184913">
        <ele>38.8</ele>
        <time>2017-09-03T10:58:37Z</time>
      </trkpt>
      <trkpt lat="58.879647" lon="17.18503">
        <ele>38.4</ele>
        <time>2017-09-03T10:58:38Z</time>
      </trkpt>
      <trkpt lat="58.879748" lon="17.185146">
        <ele>38.4</ele>
        <time>2017-09-03T10:58:39Z</time>
      </trkpt>
      <trkpt lat="58.87985" lon="17.185262">
        <ele>38.2</ele>
        <time>2017-09-03T10:58:40Z</time>
      </trkpt>
      <trkpt lat="58.879952" lon="17.185381">
        <ele>38</ele>
        <time>2017-09-03T10:58:41Z</time>
      </trkpt>
      <trkpt lat="58.880055" lon="17.185504">
        <ele>37.4</ele>
        <time>2017-09-03T10:58:42Z</time>
      </trkpt>
      <trkpt lat="58.880156" lon="17.185634">
        <ele>37</ele>
        <time>2017-09-03T10:58:43Z</time>
      </trkpt>
      <trkpt lat="58.880257" lon="17.18577">
        <ele>36.6</ele>
        <time>2017-09-03T10:58:44Z</time>
      </trkpt>
      <trkpt lat="58.880356" lon="17.185914">
        <ele>36.4</ele>
        <time>2017-09-03T10:58:45Z</time>
      </trkpt>
      <trkpt lat="58.880455" lon="17.186064">
        <ele>36</ele>
        <time>2017-09-03T10:58:46Z</time>
      </trkpt>
      <trkpt lat="58.880552" lon="17.186219">
        <ele>35.8</ele>
        <time>2017-09-03T10:58:47Z</time>
      </trkpt>
      <trkpt lat="58.880648" lon="17.18638">
        <ele>35.6</ele>
        <time>2017-09-03T10:58:48Z</time>
      </trkpt>
      <trkpt lat="58.880747" lon="17.186542">
        <ele>35</ele>
        <time>2017-09-03T10:58:49Z</time>
      </trkpt>
      <trkpt lat="58.880844" lon="17.186706">
        <ele>34.6</ele>
        <time>2017-09-03T10:58:50Z</time>
      </trkpt>
      <trkpt lat="58.880941" lon="17.186866">
        <ele>33.8</ele>
        <time>2017-09-03T10:58:51Z</time>
      </trkpt>
      <trkpt lat="58.881036" lon="17.187024">
        <ele>32.8</ele>
        <time>2017-09-03T10:58:52Z</time>
      </trkpt>
      <trkpt lat="58.881128" lon="17.18718">
        <ele>32.2</ele>
        <time>2017-09-03T10:58:53Z</time>
      </trkpt>
      <trkpt lat="58.881218" lon="17.187333">
        <ele>31.6</ele>
        <time>2017-09-03T10:58:54Z</time>
      </trkpt>
      <trkpt lat="58.881304" lon="17.187483">
        <ele>30.8</ele>
        <time>2017-09-03T10:58:55Z</time>
      </trkpt>
      <trkpt lat="58.881383" lon="17.187633">
        <ele>29.6</ele>
        <time>2017-09-03T10:58:56Z</time>
      </trkpt>
      <trkpt lat="58.881452" lon="17.187785">
        <ele>28.6</ele>
        <time>2017-09-03T10:58:57Z</time>
      </trkpt>
      <trkpt lat="58.881515" lon="17.187939">
        <ele>27.4</ele>
        <time>2017-09-03T10:58:58Z</time>
      </trkpt>
      <trkpt lat="58.881572" lon="17.188095">
        <ele>26.6</ele>
        <time>2017-09-03T10:58:59Z</time>
      </trkpt>
      <trkpt lat="58.881624" lon="17.188249">
        <ele>26.2</ele>
        <time>2017-09-03T10:59:00Z</time>
      </trkpt>
      <trkpt lat="58.881669" lon="17.188393">
        <ele>26</ele>
        <time>2017-09-03T10:59:01Z</time>
      </trkpt>
      <trkpt lat="58.881717" lon="17.188516">
        <ele>26</ele>
        <time>2017-09-03T10:59:02Z</time>
      </trkpt>
      <trkpt lat="58.881772" lon="17.188609">
        <ele>25.8</ele>
        <time>2017-09-03T10:59:03Z</time>
      </trkpt>
      <trkpt lat="58.881838" lon="17.188657">
        <ele>25.8</ele>
        <time>2017-09-03T10:59:04Z</time>
      </trkpt>
      <trkpt lat="58.881911" lon="17.188663">
        <ele>25.8</ele>
        <time>2017-09-03T10:59:05Z</time>
      </trkpt>
      <trkpt lat="58.881986" lon="17.188638">
        <ele>25.8</ele>
        <time>2017-09-03T10:59:06Z</time>
      </trkpt>
      <trkpt lat="58.882069" lon="17.188595">
        <ele>25.8</ele>
        <time>2017-09-03T10:59:07Z</time>
      </trkpt>
      <trkpt lat="58.882152" lon="17.18854">
        <ele>25.8</ele>
        <time>2017-09-03T10:59:08Z</time>
      </trkpt>
      <trkpt lat="58.882236" lon="17.188476">
        <ele>25.8</ele>
        <time>2017-09-03T10:59:09Z</time>
      </trkpt>
      <trkpt lat="58.882321" lon="17.188407">
        <ele>26.8</ele>
        <time>2017-09-03T10:59:10Z</time>
      </trkpt>
      <trkpt lat="58.882407" lon="17.18834">
        <ele>27.6</ele>
        <time>2017-09-03T10:59:11Z</time>
      </trkpt>
      <trkpt lat="58.882496" lon="17.188281">
        <ele>28</ele>
        <time>2017-09-03T10:59:12Z</time>
      </trkpt>
      <trkpt lat="58.882586" lon="17.188238">
        <ele>28.2</ele>
        <time>2017-09-03T10:59:13Z</time>
      </trkpt>
      <trkpt lat="58.882677" lon="17.188202">
        <ele>28.4</ele>
        <time>2017-09-03T10:59:14Z</time>
      </trkpt>
      <trkpt lat="58.882769" lon="17.188173">
        <ele>28.8</ele>
        <time>2017-09-03T10:59:15Z</time>
      </trkpt>
      <trkpt lat="58.88286" lon="17.188143">
        <ele>29.2</ele>
        <time>2017-09-03T10:59:16Z</time>
      </trkpt>
      <trkpt lat="58.882947" lon="17.188115">
        <ele>29.4</ele>
        <time>2017-09-03T10:59:17Z</time>
      </trkpt>
      <trkpt lat="58.883032" lon="17.18809">
        <ele>29.6</ele>
        <time>2017-09-03T10:59:18Z</time>
      </trkpt>
      <trkpt lat="58.883115" lon="17.188069">
        <ele>29.8</ele>
        <time>2017-09-03T10:59:19Z</time>
      </trkpt>
      <trkpt lat="58.883191" lon="17.188045">
        <ele>29.8</ele>
        <time>2017-09-03T10:59:20Z</time>
      </trkpt>
      <trkpt lat="58.883263" lon="17.188023">
        <ele>30</ele>
        <time>2017-09-03T10:59:21Z</time>
      </trkpt>
      <trkpt lat="58.883334" lon="17.188009">
        <ele>30.4</ele>
        <time>2017-09-03T10:59:22Z</time>
      </trkpt>
      <trkpt lat="58.883403" lon="17.187997">
        <ele>31</ele>
        <time>2017-09-03T10:59:23Z</time>
      </trkpt>
      <trkpt lat="58.883471" lon="17.187981">
        <ele>31.4</ele>
        <time>2017-09-03T10:59:24Z</time>
      </trkpt>
      <trkpt lat="58.883539" lon="17.187964">
        <ele>31.8</ele>
        <time>2017-09-03T10:59:25Z</time>
      </trkpt>
      <trkpt lat="58.883605" lon="17.187948">
        <ele>32</ele>
        <time>2017-09-03T10:59:26Z</time>
      </trkpt>
      <trkpt lat="58.883672" lon="17.187931">
        <ele>32.6</ele>
        <time>2017-09-03T10:59:27Z</time>
      </trkpt>
      <trkpt lat="58.883738" lon="17.187913">
        <ele>33.4</ele>
        <time>2017-09-03T10:59:28Z</time>
      </trkpt>
      <trkpt lat="58.883805" lon="17.1879">
        <ele>34.4</ele>
        <time>2017-09-03T10:59:29Z</time>
      </trkpt>
      <trkpt lat="58.883872" lon="17.187882">
        <ele>35.2</ele>
        <time>2017-09-03T10:59:30Z</time>
      </trkpt>
      <trkpt lat="58.883938" lon="17.187864">
        <ele>36</ele>
        <time>2017-09-03T10:59:31Z</time>
      </trkpt>
      <trkpt lat="58.884004" lon="17.18785">
        <ele>36.8</ele>
        <time>2017-09-03T10:59:32Z</time>
      </trkpt>
      <trkpt lat="58.884069" lon="17.187835">
        <ele>37.6</ele>
        <time>2017-09-03T10:59:33Z</time>
      </trkpt>
      <trkpt lat="58.884134" lon="17.18782">
        <ele>38.2</ele>
        <time>2017-09-03T10:59:34Z</time>
      </trkpt>
      <trkpt lat="58.884199" lon="17.18781">
        <ele>38.6</ele>
        <time>2017-09-03T10:59:35Z</time>
      </trkpt>
      <trkpt lat="58.884263" lon="17.187804">
        <ele>38.8</ele>
        <time>2017-09-03T10:59:36Z</time>
      </trkpt>
      <trkpt lat="58.884328" lon="17.1878">
        <ele>39</ele>
        <time>2017-09-03T10:59:37Z</time>
      </trkpt>
      <trkpt lat="58.884392" lon="17.187797">
        <ele>39.6</ele>
        <time>2017-09-03T10:59:38Z</time>
      </trkpt>
      <trkpt lat="58.884456" lon="17.187799">
        <ele>40.2</ele>
        <time>2017-09-03T10:59:39Z</time>
      </trkpt>
      <trkpt lat="58.884519" lon="17.187805">
        <ele>41.4</ele>
        <time>2017-09-03T10:59:40Z</time>
      </trkpt>
      <trkpt lat="58.884581" lon="17.187813">
        <ele>41.8</ele>
        <time>2017-09-03T10:59:41Z</time>
      </trkpt>
      <trkpt lat="58.884643" lon="17.187822">
        <ele>42.2</ele>
        <time>2017-09-03T10:59:42Z</time>
      </trkpt>
      <trkpt lat="58.884704" lon="17.187834">
        <ele>42.4</ele>
        <time>2017-09-03T10:59:43Z</time>
      </trkpt>
      <trkpt lat="58.884766" lon="17.187847">
        <ele>42.4</ele>
        <time>2017-09-03T10:59:44Z</time>
      </trkpt>
      <trkpt lat="58.884828" lon="17.187861">
        <ele>42.6</ele>
        <time>2017-09-03T10:59:45Z</time>
      </trkpt>
      <trkpt lat="58.884889" lon="17.187876">
        <ele>42.8</ele>
        <time>2017-09-03T10:59:46Z</time>
      </trkpt>
      <trkpt lat="58.88495" lon="17.187893">
        <ele>42.8</ele>
        <time>2017-09-03T10:59:47Z</time>
      </trkpt>
      <trkpt lat="58.88501" lon="17.187911">
        <ele>43</ele>
        <time>2017-09-03T10:59:48Z</time>
      </trkpt>
      <trkpt lat="58.885068" lon="17.187934">
        <ele>43.2</ele>
        <time>2017-09-03T10:59:49Z</time>
      </trkpt>
      <trkpt lat="58.885123" lon="17.187963">
        <ele>43.6</ele>
        <time>2017-09-03T10:59:50Z</time>
      </trkpt>
      <trkpt lat="58.885175" lon="17.187997">
        <ele>44.2</ele>
        <time>2017-09-03T10:59:51Z</time>
      </trkpt>
      <trkpt lat="58.885229" lon="17.188025">
        <ele>44.8</ele>
        <time>2017-09-03T10:59:52Z</time>
      </trkpt>
      <trkpt lat="58.885282" lon="17.188048">
        <ele>45.2</ele>
        <time>2017-09-03T10:59:53Z</time>
      </trkpt>
      <trkpt lat="58.885335" lon="17.188077">
        <ele>45.6</ele>
        <time>2017-09-03T10:59:54Z</time>
      </trkpt>
      <trkpt lat="58.885385" lon="17.18811">
        <ele>46</ele>
        <time>2017-09-03T10:59:55Z</time>
      </trkpt>
      <trkpt lat="58.885431" lon="17.188141">
        <ele>46.6</ele>
        <time>2017-09-03T10:59:56Z</time>
      </trkpt>
      <trkpt lat="58.885477" lon="17.188167">
        <ele>47.2</ele>
        <time>2017-09-03T10:59:57Z</time>
      </trkpt>
      <trkpt lat="58.885523" lon="17.188187">
        <ele>47.6</ele>
        <time>2017-09-03T10:59:58Z</time>
      </trkpt>
      <trkpt lat="58.885572" lon="17.188204">
        <ele>48.2</ele>
        <time>2017-09-03T10:59:59Z</time>
      </trkpt>
      <trkpt lat="58.885622" lon="17.188224">
        <ele>48.8</ele>
        <time>2017-09-03T11:00:00Z</time>
      </trkpt>
      <trkpt lat="58.885672" lon="17.188255">
        <ele>49.4</ele>
        <time>2017-09-03T11:00:01Z</time>
      </trkpt>
      <trkpt lat="58.885723" lon="17.188289">
        <ele>50</ele>
        <time>2017-09-03T11:00:02Z</time>
      </trkpt>
      <trkpt lat="58.88578" lon="17.188319">
        <ele>50.6</ele>
        <time>2017-09-03T11:00:03Z</time>
      </trkpt>
      <trkpt lat="58.885833" lon="17.188348">
        <ele>51.2</ele>
        <time>2017-09-03T11:00:04Z</time>
      </trkpt>
      <trkpt lat="58.885886" lon="17.188377">
        <ele>51.6</ele>
        <time>2017-09-03T11:00:05Z</time>
      </trkpt>
      <trkpt lat="58.88594" lon="17.1884">
        <ele>52</ele>
        <time>2017-09-03T11:00:06Z</time>
      </trkpt>
      <trkpt lat="58.885997" lon="17.188419">
        <ele>52.6</ele>
        <time>2017-09-03T11:00:07Z</time>
      </trkpt>
      <trkpt lat="58.886054" lon="17.188435">
        <ele>53.2</ele>
        <time>2017-09-03T11:00:08Z</time>
      </trkpt>
      <trkpt lat="58.886109" lon="17.188447">
        <ele>54.2</ele>
        <time>2017-09-03T11:00:09Z</time>
      </trkpt>
      <trkpt lat="58.886167" lon="17.18845">
        <ele>54.8</ele>
        <time>2017-09-03T11:00:10Z</time>
      </trkpt>
      <trkpt lat="58.886226" lon="17.188446">
        <ele>55.6</ele>
        <time>2017-09-03T11:00:11Z</time>
      </trkpt>
      <trkpt lat="58.886285" lon="17.188434">
        <ele>56</ele>
        <time>2017-09-03T11:00:12Z</time>
      </trkpt>
      <trkpt lat="58.886345" lon="17.188415">
        <ele>56.4</ele>
        <time>2017-09-03T11:00:13Z</time>
      </trkpt>
      <trkpt lat="58.886405" lon="17.188387">
        <ele>56.4</ele>
        <time>2017-09-03T11:00:14Z</time>
      </trkpt>
      <trkpt lat="58.886465" lon="17.188349">
        <ele>56.6</ele>
        <time>2017-09-03T11:00:15Z</time>
      </trkpt>
      <trkpt lat="58.886522" lon="17.188305">
        <ele>56.8</ele>
        <time>2017-09-03T11:00:16Z</time>
      </trkpt>
      <trkpt lat="58.886577" lon="17.188254">
        <ele>57</ele>
        <time>2017-09-03T11:00:17Z</time>
      </trkpt>
      <trkpt lat="58.886632" lon="17.188197">
        <ele>57.4</ele>
        <time>2017-09-03T11:00:18Z</time>
      </trkpt>
      <trkpt lat="58.886688" lon="17.188133">
        <ele>57.6</ele>
        <time>2017-09-03T11:00:19Z</time>
      </trkpt>
      <trkpt lat="58.886743" lon="17.188062">
        <ele>57.6</ele>
        <time>2017-09-03T11:00:20Z</time>
      </trkpt>
      <trkpt lat="58.886795" lon="17.187984">
        <ele>57.8</ele>
        <time>2017-09-03T11:00:21Z</time>
      </trkpt>
      <trkpt lat="58.886848" lon="17.187899">
        <ele>58</ele>
        <time>2017-09-03T11:00:22Z</time>
      </trkpt>
      <trkpt lat="58.886899" lon="17.187808">
        <ele>58</ele>
        <time>2017-09-03T11:00:23Z</time>
      </trkpt>
      <trkpt lat="58.886948" lon="17.187711">
        <ele>58</ele>
        <time>2017-09-03T11:00:24Z</time>
      </trkpt>
      <trkpt lat="58.886993" lon="17.187607">
        <ele>58.2</ele>
        <time>2017-09-03T11:00:25Z</time>
      </trkpt>
      <trkpt lat="58.887034" lon="17.187493">
        <ele>58.2</ele>
        <time>2017-09-03T11:00:26Z</time>
      </trkpt>
      <trkpt lat="58.887072" lon="17.187372">
        <ele>58.4</ele>
        <time>2017-09-03T11:00:27Z</time>
      </trkpt>
      <trkpt lat="58.887108" lon="17.187249">
        <ele>58.4</ele>
        <time>2017-09-03T11:00:28Z</time>
      </trkpt>
      <trkpt lat="58.887146" lon="17.187128">
        <ele>58.6</ele>
        <time>2017-09-03T11:00:29Z</time>
      </trkpt>
      <trkpt lat="58.887183" lon="17.187003">
        <ele>58.8</ele>
        <time>2017-09-03T11:00:30Z</time>
      </trkpt>
      <trkpt lat="58.887221" lon="17.186879">
        <ele>59</ele>
        <time>2017-09-03T11:00:31Z</time>
      </trkpt>
      <trkpt lat="58.887258" lon="17.186746">
        <ele>59</ele>
        <time>2017-09-03T11:00:32Z</time>
      </trkpt>
      <trkpt lat="58.887296" lon="17.186611">
        <ele>59</ele>
        <time>2017-09-03T11:00:33Z</time>
      </trkpt>
      <trkpt lat="58.887333" lon="17.186476">
        <ele>59.2</ele>
        <time>2017-09-03T11:00:34Z</time>
      </trkpt>
      <trkpt lat="58.887371" lon="17.186337">
        <ele>59.2</ele>
        <time>2017-09-03T11:00:35Z</time>
      </trkpt>
      <trkpt lat="58.887412" lon="17.186193">
        <ele>59.8</ele>
        <time>2017-09-03T11:00:36Z</time>
      </trkpt>
      <trkpt lat="58.887452" lon="17.186044">
        <ele>60.2</ele>
        <time>2017-09-03T11:00:37Z</time>
      </trkpt>
      <trkpt lat="58.887496" lon="17.185888">
        <ele>60.4</ele>
        <time>2017-09-03T11:00:38Z</time>
      </trkpt>
      <trkpt lat="58.88754" lon="17.18573">
        <ele>60.6</ele>
        <time>2017-09-03T11:00:39Z</time>
      </trkpt>
      <trkpt lat="58.887583" lon="17.185567">
        <ele>60.6</ele>
        <time>2017-09-03T11:00:40Z</time>
      </trkpt>
      <trkpt lat="58.887626" lon="17.185403">
        <ele>60.6</ele>
        <time>2017-09-03T11:00:41Z</time>
      </trkpt>
      <trkpt lat="58.887669" lon="17.185237">
        <ele>60.6</ele>
        <time>2017-09-03T11:00:42Z</time>
      </trkpt>
      <trkpt lat="58.887713" lon="17.185067">
        <ele>60.6</ele>
        <time>2017-09-03T11:00:43Z</time>
      </trkpt>
      <trkpt lat="58.887757" lon="17.184895">
        <ele>60.6</ele>
        <time>2017-09-03T11:00:44Z</time>
      </trkpt>
      <trkpt lat="58.887801" lon="17.184722">
        <ele>60.6</ele>
        <time>2017-09-03T11:00:45Z</time>
      </trkpt>
      <trkpt lat="58.887844" lon="17.184549">
        <ele>60.4</ele>
        <time>2017-09-03T11:00:46Z</time>
      </trkpt>
      <trkpt lat="58.887889" lon="17.184371">
        <ele>60.4</ele>
        <time>2017-09-03T11:00:47Z</time>
      </trkpt>
      <trkpt lat="58.887935" lon="17.184192">
        <ele>60</ele>
        <time>2017-09-03T11:00:48Z</time>
      </trkpt>
      <trkpt lat="58.887981" lon="17.184012">
        <ele>59.8</ele>
        <time>2017-09-03T11:00:49Z</time>
      </trkpt>
      <trkpt lat="58.888027" lon="17.183831">
        <ele>59.6</ele>
        <time>2017-09-03T11:00:50Z</time>
      </trkpt>
      <trkpt lat="58.888073" lon="17.183649">
        <ele>59.4</ele>
        <time>2017-09-03T11:00:51Z</time>
      </trkpt>
      <trkpt lat="58.888121" lon="17.183468">
        <ele>59.2</ele>
        <time>2017-09-03T11:00:52Z</time>
      </trkpt>
      <trkpt lat="58.888169" lon="17.183283">
        <ele>59</ele>
        <time>2017-09-03T11:00:53Z</time>
      </trkpt>
      <trkpt lat="58.888218" lon="17.183101">
        <ele>58.8</ele>
        <time>2017-09-03T11:00:54Z</time>
      </trkpt>
      <trkpt lat="58.888268" lon="17.182916">
        <ele>58.8</ele>
        <time>2017-09-03T11:00:55Z</time>
      </trkpt>
      <trkpt lat="58.888317" lon="17.182729">
        <ele>58.8</ele>
        <time>2017-09-03T11:00:56Z</time>
      </trkpt>
      <trkpt lat="58.888365" lon="17.182539">
        <ele>58.6</ele>
        <time>2017-09-03T11:00:57Z</time>
      </trkpt>
      <trkpt lat="58.888414" lon="17.182349">
        <ele>58.4</ele>
        <time>2017-09-03T11:00:58Z</time>
      </trkpt>
      <trkpt lat="58.888464" lon="17.182157">
        <ele>58.2</ele>
        <time>2017-09-03T11:00:59Z</time>
      </trkpt>
      <trkpt lat="58.888512" lon="17.181965">
        <ele>58</ele>
        <time>2017-09-03T11:01:00Z</time>
      </trkpt>
      <trkpt lat="58.888558" lon="17.181772">
        <ele>57.8</ele>
        <time>2017-09-03T11:01:01Z</time>
      </trkpt>
      <trkpt lat="58.8886" lon="17.181581">
        <ele>57.6</ele>
        <time>2017-09-03T11:01:02Z</time>
      </trkpt>
      <trkpt lat="58.88864" lon="17.181391">
        <ele>57.4</ele>
        <time>2017-09-03T11:01:03Z</time>
      </trkpt>
      <trkpt lat="58.888674" lon="17.181206">
        <ele>57.4</ele>
        <time>2017-09-03T11:01:04Z</time>
      </trkpt>
      <trkpt lat="58.888702" lon="17.181027">
        <ele>57.2</ele>
        <time>2017-09-03T11:01:05Z</time>
      </trkpt>
      <trkpt lat="58.888721" lon="17.180852">
        <ele>56.8</ele>
        <time>2017-09-03T11:01:06Z</time>
      </trkpt>
      <trkpt lat="58.888736" lon="17.180682">
        <ele>56.2</ele>
        <time>2017-09-03T11:01:07Z</time>
      </trkpt>
      <trkpt lat="58.888749" lon="17.180521">
        <ele>56</ele>
        <time>2017-09-03T11:01:08Z</time>
      </trkpt>
      <trkpt lat="58.888765" lon="17.180362">
        <ele>56</ele>
        <time>2017-09-03T11:01:09Z</time>
      </trkpt>
      <trkpt lat="58.888786" lon="17.180201">
        <ele>56</ele>
        <time>2017-09-03T11:01:10Z</time>
      </trkpt>
      <trkpt lat="58.888814" lon="17.180046">
        <ele>56</ele>
        <time>2017-09-03T11:01:11Z</time>
      </trkpt>
      <trkpt lat="58.888854" lon="17.179893">
        <ele>56</ele>
        <time>2017-09-03T11:01:12Z</time>
      </trkpt>
      <trkpt lat="58.888906" lon="17.179743">
        <ele>56</ele>
        <time>2017-09-03T11:01:13Z</time>
      </trkpt>
      <trkpt lat="58.888969" lon="17.179596">
        <ele>56</ele>
        <time>2017-09-03T11:01:14Z</time>
      </trkpt>
      <trkpt lat="58.88904" lon="17.179456">
        <ele>56</ele>
        <time>2017-09-03T11:01:15Z</time>
      </trkpt>
      <trkpt lat="58.889116" lon="17.179323">
        <ele>56</ele>
        <time>2017-09-03T11:01:16Z</time>
      </trkpt>
      <trkpt lat="58.889196" lon="17.179194">
        <ele>55.6</ele>
        <time>2017-09-03T11:01:17Z</time>
      </trkpt>
      <trkpt lat="58.88928" lon="17.179066">
        <ele>55.4</ele>
        <time>2017-09-03T11:01:18Z</time>
      </trkpt>
      <trkpt lat="58.889367" lon="17.178949">
        <ele>55.4</ele>
        <time>2017-09-03T11:01:19Z</time>
      </trkpt>
      <trkpt lat="58.889457" lon="17.178838">
        <ele>55.4</ele>
        <time>2017-09-03T11:01:20Z</time>
      </trkpt>
      <trkpt lat="58.889547" lon="17.178735">
        <ele>55.4</ele>
        <time>2017-09-03T11:01:21Z</time>
      </trkpt>
      <trkpt lat="58.889637" lon="17.178645">
        <ele>55.4</ele>
        <time>2017-09-03T11:01:22Z</time>
      </trkpt>
      <trkpt lat="58.889729" lon="17.178565">
        <ele>55.4</ele>
        <time>2017-09-03T11:01:23Z</time>
      </trkpt>
      <trkpt lat="58.889822" lon="17.1785">
        <ele>55.6</ele>
        <time>2017-09-03T11:01:24Z</time>
      </trkpt>
      <trkpt lat="58.889915" lon="17.178455">
        <ele>55.8</ele>
        <time>2017-09-03T11:01:25Z</time>
      </trkpt>
      <trkpt lat="58.890009" lon="17.17843">
        <ele>55.8</ele>
        <time>2017-09-03T11:01:26Z</time>
      </trkpt>
      <trkpt lat="58.890099" lon="17.178424">
        <ele>55.8</ele>
        <time>2017-09-03T11:01:27Z</time>
      </trkpt>
      <trkpt lat="58.890187" lon="17.178434">
        <ele>56</ele>
        <time>2017-09-03T11:01:28Z</time>
      </trkpt>
      <trkpt lat="58.890272" lon="17.178454">
        <ele>56</ele>
        <time>2017-09-03T11:01:29Z</time>
      </trkpt>
      <trkpt lat="58.890356" lon="17.178483">
        <ele>56</ele>
        <time>2017-09-03T11:01:30Z</time>
      </trkpt>
      <trkpt lat="58.890439" lon="17.178518">
        <ele>56</ele>
        <time>2017-09-03T11:01:31Z</time>
      </trkpt>
      <trkpt lat="58.89052" lon="17.178551">
        <ele>56</ele>
        <time>2017-09-03T11:01:32Z</time>
      </trkpt>
      <trkpt lat="58.8906" lon="17.178579">
        <ele>56</ele>
        <time>2017-09-03T11:01:33Z</time>
      </trkpt>
      <trkpt lat="58.890681" lon="17.178605">
        <ele>56</ele>
        <time>2017-09-03T11:01:34Z</time>
      </trkpt>
      <trkpt lat="58.890764" lon="17.17863">
        <ele>56.2</ele>
        <time>2017-09-03T11:01:35Z</time>
      </trkpt>
      <trkpt lat="58.890849" lon="17.178654">
        <ele>56.8</ele>
        <time>2017-09-03T11:01:36Z</time>
      </trkpt>
      <trkpt lat="58.890934" lon="17.178674">
        <ele>57.2</ele>
        <time>2017-09-03T11:01:37Z</time>
      </trkpt>
      <trkpt lat="58.891019" lon="17.178693">
        <ele>57.8</ele>
        <time>2017-09-03T11:01:38Z</time>
      </trkpt>
      <trkpt lat="58.891104" lon="17.178709">
        <ele>58.4</ele>
        <time>2017-09-03T11:01:39Z</time>
      </trkpt>
      <trkpt lat="58.89119" lon="17.178727">
        <ele>58.8</ele>
        <time>2017-09-03T11:01:40Z</time>
      </trkpt>
      <trkpt lat="58.891276" lon="17.178743">
        <ele>59</ele>
        <time>2017-09-03T11:01:41Z</time>
      </trkpt>
      <trkpt lat="58.891362" lon="17.178754">
        <ele>59.2</ele>
        <time>2017-09-03T11:01:42Z</time>
      </trkpt>
      <trkpt lat="58.891446" lon="17.178759">
        <ele>59.4</ele>
        <time>2017-09-03T11:01:43Z</time>
      </trkpt>
      <trkpt lat="58.89153" lon="17.178763">
        <ele>59.6</ele>
        <time>2017-09-03T11:01:44Z</time>
      </trkpt>
      <trkpt lat="58.891613" lon="17.17876">
        <ele>59.6</ele>
        <time>2017-09-03T11:01:45Z</time>
      </trkpt>
      <trkpt lat="58.891695" lon="17.178753">
        <ele>59.6</ele>
        <time>2017-09-03T11:01:46Z</time>
      </trkpt>
      <trkpt lat="58.891776" lon="17.178742">
        <ele>59.6</ele>
        <time>2017-09-03T11:01:47Z</time>
      </trkpt>
      <trkpt lat="58.891857" lon="17.17873">
        <ele>59.8</ele>
        <time>2017-09-03T11:01:48Z</time>
      </trkpt>
      <trkpt lat="58.89194" lon="17.178715">
        <ele>59.8</ele>
        <time>2017-09-03T11:01:49Z</time>
      </trkpt>
      <trkpt lat="58.892022" lon="17.178693">
        <ele>59.8</ele>
        <time>2017-09-03T11:01:50Z</time>
      </trkpt>
      <trkpt lat="58.892105" lon="17.178663">
        <ele>59.8</ele>
        <time>2017-09-03T11:01:51Z</time>
      </trkpt>
      <trkpt lat="58.892188" lon="17.178628">
        <ele>59.8</ele>
        <time>2017-09-03T11:01:52Z</time>
      </trkpt>
      <trkpt lat="58.892272" lon="17.17859">
        <ele>59.8</ele>
        <time>2017-09-03T11:01:53Z</time>
      </trkpt>
      <trkpt lat="58.892354" lon="17.178551">
        <ele>60</ele>
        <time>2017-09-03T11:01:54Z</time>
      </trkpt>
      <trkpt lat="58.892437" lon="17.178517">
        <ele>60</ele>
        <time>2017-09-03T11:01:55Z</time>
      </trkpt>
      <trkpt lat="58.892519" lon="17.17849">
        <ele>60.2</ele>
        <time>2017-09-03T11:01:56Z</time>
      </trkpt>
      <trkpt lat="58.8926" lon="17.17847">
        <ele>60.2</ele>
        <time>2017-09-03T11:01:57Z</time>
      </trkpt>
      <trkpt lat="58.892682" lon="17.178457">
        <ele>60.2</ele>
        <time>2017-09-03T11:01:58Z</time>
      </trkpt>
      <trkpt lat="58.892763" lon="17.17845">
        <ele>60.4</ele>
        <time>2017-09-03T11:01:59Z</time>
      </trkpt>
      <trkpt lat="58.892845" lon="17.178446">
        <ele>60.4</ele>
        <time>2017-09-03T11:02:00Z</time>
      </trkpt>
      <trkpt lat="58.892927" lon="17.178442">
        <ele>60.4</ele>
        <time>2017-09-03T11:02:01Z</time>
      </trkpt>
      <trkpt lat="58.89301" lon="17.178437">
        <ele>60.6</ele>
        <time>2017-09-03T11:02:02Z</time>
      </trkpt>
      <trkpt lat="58.893094" lon="17.178432">
        <ele>60.6</ele>
        <time>2017-09-03T11:02:03Z</time>
      </trkpt>
      <trkpt lat="58.893179" lon="17.178425">
        <ele>60.8</ele>
        <time>2017-09-03T11:02:04Z</time>
      </trkpt>
      <trkpt lat="58.893264" lon="17.178415">
        <ele>60.8</ele>
        <time>2017-09-03T11:02:05Z</time>
      </trkpt>
      <trkpt lat="58.893348" lon="17.178397">
        <ele>60.8</ele>
        <time>2017-09-03T11:02:06Z</time>
      </trkpt>
      <trkpt lat="58.893433" lon="17.178373">
        <ele>60.8</ele>
        <time>2017-09-03T11:02:07Z</time>
      </trkpt>
      <trkpt lat="58.893517" lon="17.178346">
        <ele>60.8</ele>
        <time>2017-09-03T11:02:08Z</time>
      </trkpt>
      <trkpt lat="58.893602" lon="17.178315">
        <ele>61</ele>
        <time>2017-09-03T11:02:09Z</time>
      </trkpt>
      <trkpt lat="58.893687" lon="17.178279">
        <ele>61.2</ele>
        <time>2017-09-03T11:02:10Z</time>
      </trkpt>
      <trkpt lat="58.893771" lon="17.178236">
        <ele>61.4</ele>
        <time>2017-09-03T11:02:11Z</time>
      </trkpt>
      <trkpt lat="58.893855" lon="17.178186">
        <ele>61.4</ele>
        <time>2017-09-03T11:02:12Z</time>
      </trkpt>
      <trkpt lat="58.893939" lon="17.178127">
        <ele>61.4</ele>
        <time>2017-09-03T11:02:13Z</time>
      </trkpt>
      <trkpt lat="58.894019" lon="17.178057">
        <ele>61.4</ele>
        <time>2017-09-03T11:02:14Z</time>
      </trkpt>
      <trkpt lat="58.894096" lon="17.177974">
        <ele>61.6</ele>
        <time>2017-09-03T11:02:15Z</time>
      </trkpt>
      <trkpt lat="58.894169" lon="17.177881">
        <ele>61.6</ele>
        <time>2017-09-03T11:02:16Z</time>
      </trkpt>
      <trkpt lat="58.894237" lon="17.177777">
        <ele>61.8</ele>
        <time>2017-09-03T11:02:17Z</time>
      </trkpt>
      <trkpt lat="58.894301" lon="17.177664">
        <ele>62</ele>
        <time>2017-09-03T11:02:18Z</time>
      </trkpt>
      <trkpt lat="58.894361" lon="17.177546">
        <ele>62</ele>
        <time>2017-09-03T11:02:19Z</time>
      </trkpt>
      <trkpt lat="58.894419" lon="17.177424">
        <ele>62.2</ele>
        <time>2017-09-03T11:02:20Z</time>
      </trkpt>
      <trkpt lat="58.894476" lon="17.177298">
        <ele>62.2</ele>
        <time>2017-09-03T11:02:21Z</time>
      </trkpt>
      <trkpt lat="58.894532" lon="17.17717">
        <ele>62.2</ele>
        <time>2017-09-03T11:02:22Z</time>
      </trkpt>
      <trkpt lat="58.894588" lon="17.177043">
        <ele>62.4</ele>
        <time>2017-09-03T11:02:23Z</time>
      </trkpt>
      <trkpt lat="58.894643" lon="17.176913">
        <ele>62.4</ele>
        <time>2017-09-03T11:02:24Z</time>
      </trkpt>
      <trkpt lat="58.894693" lon="17.17678">
        <ele>62.4</ele>
        <time>2017-09-03T11:02:25Z</time>
      </trkpt>
      <trkpt lat="58.894741" lon="17.176642">
        <ele>62.6</ele>
        <time>2017-09-03T11:02:26Z</time>
      </trkpt>
      <trkpt lat="58.894786" lon="17.176502">
        <ele>62.6</ele>
        <time>2017-09-03T11:02:27Z</time>
      </trkpt>
      <trkpt lat="58.89483" lon="17.176361">
        <ele>62.6</ele>
        <time>2017-09-03T11:02:28Z</time>
      </trkpt>
      <trkpt lat="58.894877" lon="17.176221">
        <ele>62.8</ele>
        <time>2017-09-03T11:02:29Z</time>
      </trkpt>
      <trkpt lat="58.894929" lon="17.176083">
        <ele>62.8</ele>
        <time>2017-09-03T11:02:30Z</time>
      </trkpt>
      <trkpt lat="58.894989" lon="17.175946">
        <ele>62.8</ele>
        <time>2017-09-03T11:02:31Z</time>
      </trkpt>
      <trkpt lat="58.895057" lon="17.175808">
        <ele>62.8</ele>
        <time>2017-09-03T11:02:32Z</time>
      </trkpt>
      <trkpt lat="58.89513" lon="17.17567">
        <ele>62.8</ele>
        <time>2017-09-03T11:02:33Z</time>
      </trkpt>
      <trkpt lat="58.895208" lon="17.175533">
        <ele>62.8</ele>
        <time>2017-09-03T11:02:34Z</time>
      </trkpt>
      <trkpt lat="58.895292" lon="17.175404">
        <ele>62.8</ele>
        <time>2017-09-03T11:02:35Z</time>
      </trkpt>
      <trkpt lat="58.895381" lon="17.175286">
        <ele>62.8</ele>
        <time>2017-09-03T11:02:36Z</time>
      </trkpt>
      <trkpt lat="58.895475" lon="17.175181">
        <ele>62.8</ele>
        <time>2017-09-03T11:02:37Z</time>
      </trkpt>
      <trkpt lat="58.89557" lon="17.175084">
        <ele>62.6</ele>
        <time>2017-09-03T11:02:38Z</time>
      </trkpt>
      <trkpt lat="58.895666" lon="17.175">
        <ele>62.6</ele>
        <time>2017-09-03T11:02:39Z</time>
      </trkpt>
      <trkpt lat="58.895762" lon="17.174928">
        <ele>62.6</ele>
        <time>2017-09-03T11:02:40Z</time>
      </trkpt>
      <trkpt lat="58.895854" lon="17.174856">
        <ele>62.6</ele>
        <time>2017-09-03T11:02:41Z</time>
      </trkpt>
      <trkpt lat="58.895943" lon="17.174781">
        <ele>62.6</ele>
        <time>2017-09-03T11:02:42Z</time>
      </trkpt>
      <trkpt lat="58.896031" lon="17.174708">
        <ele>62.6</ele>
        <time>2017-09-03T11:02:43Z</time>
      </trkpt>
      <trkpt lat="58.896117" lon="17.174635">
        <ele>62.6</ele>
        <time>2017-09-03T11:02:44Z</time>
      </trkpt>
      <trkpt lat="58.896202" lon="17.174568">
        <ele>62.6</ele>
        <time>2017-09-03T11:02:45Z</time>
      </trkpt>
      <trkpt lat="58.896287" lon="17.174502">
        <ele>62.6</ele>
        <time>2017-09-03T11:02:46Z</time>
      </trkpt>
      <trkpt lat="58.896376" lon="17.174443">
        <ele>62.6</ele>
        <time>2017-09-03T11:02:47Z</time>
      </trkpt>
      <trkpt lat="58.896467" lon="17.174387">
        <ele>62.6</ele>
        <time>2017-09-03T11:02:48Z</time>
      </trkpt>
      <trkpt lat="58.896561" lon="17.17435">
        <ele>62.8</ele>
        <time>2017-09-03T11:02:49Z</time>
      </trkpt>
      <trkpt lat="58.896657" lon="17.174309">
        <ele>63</ele>
        <time>2017-09-03T11:02:50Z</time>
      </trkpt>
      <trkpt lat="58.896752" lon="17.174268">
        <ele>63.2</ele>
        <time>2017-09-03T11:02:51Z</time>
      </trkpt>
      <trkpt lat="58.896846" lon="17.174233">
        <ele>63.4</ele>
        <time>2017-09-03T11:02:52Z</time>
      </trkpt>
      <trkpt lat="58.896937" lon="17.174212">
        <ele>63.4</ele>
        <time>2017-09-03T11:02:53Z</time>
      </trkpt>
      <trkpt lat="58.89703" lon="17.174181">
        <ele>63.6</ele>
        <time>2017-09-03T11:02:54Z</time>
      </trkpt>
      <trkpt lat="58.897116" lon="17.174186">
        <ele>63.6</ele>
        <time>2017-09-03T11:02:55Z</time>
      </trkpt>
      <trkpt lat="58.897205" lon="17.174172">
        <ele>63.8</ele>
        <time>2017-09-03T11:02:56Z</time>
      </trkpt>
      <trkpt lat="58.897291" lon="17.174155">
        <ele>63.8</ele>
        <time>2017-09-03T11:02:57Z</time>
      </trkpt>
      <trkpt lat="58.897376" lon="17.174138">
        <ele>63.8</ele>
        <time>2017-09-03T11:02:58Z</time>
      </trkpt>
      <trkpt lat="58.897458" lon="17.174126">
        <ele>63.8</ele>
        <time>2017-09-03T11:02:59Z</time>
      </trkpt>
      <trkpt lat="58.897542" lon="17.174093">
        <ele>64</ele>
        <time>2017-09-03T11:03:00Z</time>
      </trkpt>
      <trkpt lat="58.897622" lon="17.174055">
        <ele>64</ele>
        <time>2017-09-03T11:03:01Z</time>
      </trkpt>
      <trkpt lat="58.897705" lon="17.17402">
        <ele>64</ele>
        <time>2017-09-03T11:03:02Z</time>
      </trkpt>
      <trkpt lat="58.897792" lon="17.173989">
        <ele>64.2</ele>
        <time>2017-09-03T11:03:03Z</time>
      </trkpt>
      <trkpt lat="58.897882" lon="17.173962">
        <ele>64.2</ele>
        <time>2017-09-03T11:03:04Z</time>
      </trkpt>
      <trkpt lat="58.897976" lon="17.173938">
        <ele>64.4</ele>
        <time>2017-09-03T11:03:05Z</time>
      </trkpt>
      <trkpt lat="58.898073" lon="17.173922">
        <ele>64.4</ele>
        <time>2017-09-03T11:03:06Z</time>
      </trkpt>
      <trkpt lat="58.898167" lon="17.173917">
        <ele>64.4</ele>
        <time>2017-09-03T11:03:07Z</time>
      </trkpt>
      <trkpt lat="58.898256" lon="17.173926">
        <ele>64.4</ele>
        <time>2017-09-03T11:03:08Z</time>
      </trkpt>
      <trkpt lat="58.898345" lon="17.173932">
        <ele>64.4</ele>
        <time>2017-09-03T11:03:09Z</time>
      </trkpt>
      <trkpt lat="58.898433" lon="17.173925">
        <ele>64.6</ele>
        <time>2017-09-03T11:03:10Z</time>
      </trkpt>
      <trkpt lat="58.898519" lon="17.173898">
        <ele>64.6</ele>
        <time>2017-09-03T11:03:11Z</time>
      </trkpt>
      <trkpt lat="58.898606" lon="17.173855">
        <ele>64.6</ele>
        <time>2017-09-03T11:03:12Z</time>
      </trkpt>
      <trkpt lat="58.898692" lon="17.173787">
        <ele>64.6</ele>
        <time>2017-09-03T11:03:13Z</time>
      </trkpt>
      <trkpt lat="58.898777" lon="17.173699">
        <ele>64.8</ele>
        <time>2017-09-03T11:03:14Z</time>
      </trkpt>
      <trkpt lat="58.898858" lon="17.173596">
        <ele>64.8</ele>
        <time>2017-09-03T11:03:15Z</time>
      </trkpt>
      <trkpt lat="58.89894" lon="17.173485">
        <ele>64.8</ele>
        <time>2017-09-03T11:03:16Z</time>
      </trkpt>
      <trkpt lat="58.899017" lon="17.17337">
        <ele>64.8</ele>
        <time>2017-09-03T11:03:17Z</time>
      </trkpt>
      <trkpt lat="58.899096" lon="17.173251">
        <ele>64.8</ele>
        <time>2017-09-03T11:03:18Z</time>
      </trkpt>
      <trkpt lat="58.899172" lon="17.173133">
        <ele>65</ele>
        <time>2017-09-03T11:03:19Z</time>
      </trkpt>
      <trkpt lat="58.899247" lon="17.173019">
        <ele>65</ele>
        <time>2017-09-03T11:03:20Z</time>
      </trkpt>
      <trkpt lat="58.89932" lon="17.172906">
        <ele>65</ele>
        <time>2017-09-03T11:03:21Z</time>
      </trkpt>
      <trkpt lat="58.899397" lon="17.172798">
        <ele>65</ele>
        <time>2017-09-03T11:03:22Z</time>
      </trkpt>
      <trkpt lat="58.899473" lon="17.172703">
        <ele>65</ele>
        <time>2017-09-03T11:03:23Z</time>
      </trkpt>
      <trkpt lat="58.899554" lon="17.172612">
        <ele>65.2</ele>
        <time>2017-09-03T11:03:24Z</time>
      </trkpt>
      <trkpt lat="58.899642" lon="17.172535">
        <ele>65.2</ele>
        <time>2017-09-03T11:03:25Z</time>
      </trkpt>
      <trkpt lat="58.899732" lon="17.172473">
        <ele>65.2</ele>
        <time>2017-09-03T11:03:26Z</time>
      </trkpt>
      <trkpt lat="58.899824" lon="17.172417">
        <ele>65.2</ele>
        <time>2017-09-03T11:03:27Z</time>
      </trkpt>
      <trkpt lat="58.899916" lon="17.172359">
        <ele>65.2</ele>
        <time>2017-09-03T11:03:28Z</time>
      </trkpt>
      <trkpt lat="58.900008" lon="17.172289">
        <ele>65.4</ele>
        <time>2017-09-03T11:03:29Z</time>
      </trkpt>
      <trkpt lat="58.900097" lon="17.172197">
        <ele>65.4</ele>
        <time>2017-09-03T11:03:30Z</time>
      </trkpt>
      <trkpt lat="58.900181" lon="17.172093">
        <ele>65.4</ele>
        <time>2017-09-03T11:03:31Z</time>
      </trkpt>
      <trkpt lat="58.900268" lon="17.171987">
        <ele>65.4</ele>
        <time>2017-09-03T11:03:32Z</time>
      </trkpt>
      <trkpt lat="58.900352" lon="17.171877">
        <ele>65.4</ele>
        <time>2017-09-03T11:03:33Z</time>
      </trkpt>
      <trkpt lat="58.900434" lon="17.171758">
        <ele>65.4</ele>
        <time>2017-09-03T11:03:34Z</time>
      </trkpt>
      <trkpt lat="58.900515" lon="17.171647">
        <ele>65.6</ele>
        <time>2017-09-03T11:03:35Z</time>
      </trkpt>
      <trkpt lat="58.900595" lon="17.17154">
        <ele>65.6</ele>
        <time>2017-09-03T11:03:36Z</time>
      </trkpt>
      <trkpt lat="58.900683" lon="17.17143">
        <ele>65.6</ele>
        <time>2017-09-03T11:03:37Z</time>
      </trkpt>
      <trkpt lat="58.900775" lon="17.171342">
        <ele>65.6</ele>
        <time>2017-09-03T11:03:38Z</time>
      </trkpt>
      <trkpt lat="58.900872" lon="17.171278">
        <ele>65.6</ele>
        <time>2017-09-03T11:03:39Z</time>
      </trkpt>
      <trkpt lat="58.900973" lon="17.171248">
        <ele>65.8</ele>
        <time>2017-09-03T11:03:40Z</time>
      </trkpt>
      <trkpt lat="58.901076" lon="17.171246">
        <ele>65.8</ele>
        <time>2017-09-03T11:03:41Z</time>
      </trkpt>
      <trkpt lat="58.901174" lon="17.17126">
        <ele>65.8</ele>
        <time>2017-09-03T11:03:42Z</time>
      </trkpt>
      <trkpt lat="58.90127" lon="17.171285">
        <ele>65.8</ele>
        <time>2017-09-03T11:03:43Z</time>
      </trkpt>
      <trkpt lat="58.901361" lon="17.171305">
        <ele>65.8</ele>
        <time>2017-09-03T11:03:44Z</time>
      </trkpt>
      <trkpt lat="58.901446" lon="17.171317">
        <ele>66</ele>
        <time>2017-09-03T11:03:45Z</time>
      </trkpt>
      <trkpt lat="58.901527" lon="17.17132">
        <ele>66</ele>
        <time>2017-09-03T11:03:46Z</time>
      </trkpt>
      <trkpt lat="58.901608" lon="17.171304">
        <ele>66</ele>
        <time>2017-09-03T11:03:47Z</time>
      </trkpt>
      <trkpt lat="58.901687" lon="17.171273">
        <ele>66.2</ele>
        <time>2017-09-03T11:03:48Z</time>
      </trkpt>
      <trkpt lat="58.901765" lon="17.171238">
        <ele>66.4</ele>
        <time>2017-09-03T11:03:49Z</time>
      </trkpt>
      <trkpt lat="58.901842" lon="17.171214">
        <ele>66.6</ele>
        <time>2017-09-03T11:03:50Z</time>
      </trkpt>
      <trkpt lat="58.90192" lon="17.171199">
        <ele>66.8</ele>
        <time>2017-09-03T11:03:51Z</time>
      </trkpt>
      <trkpt lat="58.902002" lon="17.171189">
        <ele>67.2</ele>
        <time>2017-09-03T11:03:52Z</time>
      </trkpt>
      <trkpt lat="58.902087" lon="17.171191">
        <ele>67.6</ele>
        <time>2017-09-03T11:03:53Z</time>
      </trkpt>
      <trkpt lat="58.902166" lon="17.171204">
        <ele>68</ele>
        <time>2017-09-03T11:03:54Z</time>
      </trkpt>
      <trkpt lat="58.90225" lon="17.171217">
        <ele>68.4</ele>
        <time>2017-09-03T11:03:55Z</time>
      </trkpt>
      <trkpt lat="58.902334" lon="17.171237">
        <ele>68.6</ele>
        <time>2017-09-03T11:03:56Z</time>
      </trkpt>
      <trkpt lat="58.902418" lon="17.171252">
        <ele>68.8</ele>
        <time>2017-09-03T11:03:57Z</time>
      </trkpt>
      <trkpt lat="58.902499" lon="17.171261">
        <ele>69</ele>
        <time>2017-09-03T11:03:58Z</time>
      </trkpt>
      <trkpt lat="58.90258" lon="17.171265">
        <ele>69.4</ele>
        <time>2017-09-03T11:03:59Z</time>
      </trkpt>
      <trkpt lat="58.902659" lon="17.171264">
        <ele>69.6</ele>
        <time>2017-09-03T11:04:00Z</time>
      </trkpt>
      <trkpt lat="58.90274" lon="17.17126">
        <ele>70.2</ele>
        <time>2017-09-03T11:04:01Z</time>
      </trkpt>
      <trkpt lat="58.902829" lon="17.17125">
        <ele>70.6</ele>
        <time>2017-09-03T11:04:02Z</time>
      </trkpt>
      <trkpt lat="58.902916" lon="17.171232">
        <ele>70.8</ele>
        <time>2017-09-03T11:04:03Z</time>
      </trkpt>
      <trkpt lat="58.903005" lon="17.171211">
        <ele>71.2</ele>
        <time>2017-09-03T11:04:04Z</time>
      </trkpt>
      <trkpt lat="58.903092" lon="17.171195">
        <ele>71.6</ele>
        <time>2017-09-03T11:04:05Z</time>
      </trkpt>
      <trkpt lat="58.903179" lon="17.171192">
        <ele>71.8</ele>
        <time>2017-09-03T11:04:06Z</time>
      </trkpt>
      <trkpt lat="58.903264" lon="17.171193">
        <ele>71.8</ele>
        <time>2017-09-03T11:04:07Z</time>
      </trkpt>
      <trkpt lat="58.90335" lon="17.1712">
        <ele>72.2</ele>
        <time>2017-09-03T11:04:08Z</time>
      </trkpt>
      <trkpt lat="58.90344" lon="17.171213">
        <ele>72.4</ele>
        <time>2017-09-03T11:04:09Z</time>
      </trkpt>
      <trkpt lat="58.903527" lon="17.171233">
        <ele>72.8</ele>
        <time>2017-09-03T11:04:10Z</time>
      </trkpt>
      <trkpt lat="58.903612" lon="17.171257">
        <ele>73</ele>
        <time>2017-09-03T11:04:11Z</time>
      </trkpt>
      <trkpt lat="58.903694" lon="17.171292">
        <ele>73</ele>
        <time>2017-09-03T11:04:12Z</time>
      </trkpt>
      <trkpt lat="58.903769" lon="17.171334">
        <ele>73.4</ele>
        <time>2017-09-03T11:04:13Z</time>
      </trkpt>
      <trkpt lat="58.903842" lon="17.17138">
        <ele>73.6</ele>
        <time>2017-09-03T11:04:14Z</time>
      </trkpt>
      <trkpt lat="58.903921" lon="17.171424">
        <ele>73.6</ele>
        <time>2017-09-03T11:04:15Z</time>
      </trkpt>
      <trkpt lat="58.903999" lon="17.171462">
        <ele>73.6</ele>
        <time>2017-09-03T11:04:16Z</time>
      </trkpt>
      <trkpt lat="58.904079" lon="17.171498">
        <ele>73.8</ele>
        <time>2017-09-03T11:04:17Z</time>
      </trkpt>
      <trkpt lat="58.904157" lon="17.171528">
        <ele>73.8</ele>
        <time>2017-09-03T11:04:18Z</time>
      </trkpt>
      <trkpt lat="58.904234" lon="17.171548">
        <ele>74</ele>
        <time>2017-09-03T11:04:19Z</time>
      </trkpt>
      <trkpt lat="58.904313" lon="17.171561">
        <ele>74.2</ele>
        <time>2017-09-03T11:04:20Z</time>
      </trkpt>
      <trkpt lat="58.904391" lon="17.17156">
        <ele>74.2</ele>
        <time>2017-09-03T11:04:21Z</time>
      </trkpt>
      <trkpt lat="58.904476" lon="17.171546">
        <ele>74.4</ele>
        <time>2017-09-03T11:04:22Z</time>
      </trkpt>
      <trkpt lat="58.904556" lon="17.171531">
        <ele>74.4</ele>
        <time>2017-09-03T11:04:23Z</time>
      </trkpt>
      <trkpt lat="58.904635" lon="17.171519">
        <ele>74.6</ele>
        <time>2017-09-03T11:04:24Z</time>
      </trkpt>
      <trkpt lat="58.904715" lon="17.17151">
        <ele>74.8</ele>
        <time>2017-09-03T11:04:25Z</time>
      </trkpt>
      <trkpt lat="58.904793" lon="17.171505">
        <ele>74.8</ele>
        <time>2017-09-03T11:04:26Z</time>
      </trkpt>
      <trkpt lat="58.904873" lon="17.1715">
        <ele>75.2</ele>
        <time>2017-09-03T11:04:27Z</time>
      </trkpt>
      <trkpt lat="58.904952" lon="17.171495">
        <ele>75.4</ele>
        <time>2017-09-03T11:04:28Z</time>
      </trkpt>
      <trkpt lat="58.905028" lon="17.171487">
        <ele>75.6</ele>
        <time>2017-09-03T11:04:29Z</time>
      </trkpt>
      <trkpt lat="58.905099" lon="17.171479">
        <ele>76</ele>
        <time>2017-09-03T11:04:30Z</time>
      </trkpt>
      <trkpt lat="58.905164" lon="17.171472">
        <ele>76</ele>
        <time>2017-09-03T11:04:31Z</time>
      </trkpt>
      <trkpt lat="58.905229" lon="17.171462">
        <ele>76</ele>
        <time>2017-09-03T11:04:32Z</time>
      </trkpt>
      <trkpt lat="58.90529" lon="17.171455">
        <ele>76.2</ele>
        <time>2017-09-03T11:04:33Z</time>
      </trkpt>
      <trkpt lat="58.905349" lon="17.171441">
        <ele>76.2</ele>
        <time>2017-09-03T11:04:34Z</time>
      </trkpt>
      <trkpt lat="58.90541" lon="17.171421">
        <ele>76.4</ele>
        <time>2017-09-03T11:04:35Z</time>
      </trkpt>
      <trkpt lat="58.905472" lon="17.171394">
        <ele>76.4</ele>
        <time>2017-09-03T11:04:36Z</time>
      </trkpt>
      <trkpt lat="58.905539" lon="17.171362">
        <ele>76.6</ele>
        <time>2017-09-03T11:04:37Z</time>
      </trkpt>
      <trkpt lat="58.905613" lon="17.171329">
        <ele>76.8</ele>
        <time>2017-09-03T11:04:38Z</time>
      </trkpt>
      <trkpt lat="58.90569" lon="17.171285">
        <ele>77</ele>
        <time>2017-09-03T11:04:39Z</time>
      </trkpt>
      <trkpt lat="58.905762" lon="17.171238">
        <ele>77.4</ele>
        <time>2017-09-03T11:04:40Z</time>
      </trkpt>
      <trkpt lat="58.905836" lon="17.171188">
        <ele>77.6</ele>
        <time>2017-09-03T11:04:41Z</time>
      </trkpt>
      <trkpt lat="58.905909" lon="17.171126">
        <ele>78</ele>
        <time>2017-09-03T11:04:42Z</time>
      </trkpt>
      <trkpt lat="58.905982" lon="17.171063">
        <ele>78.4</ele>
        <time>2017-09-03T11:04:43Z</time>
      </trkpt>
      <trkpt lat="58.906059" lon="17.170998">
        <ele>78.4</ele>
        <time>2017-09-03T11:04:44Z</time>
      </trkpt>
      <trkpt lat="58.906136" lon="17.17093">
        <ele>78.6</ele>
        <time>2017-09-03T11:04:45Z</time>
      </trkpt>
      <trkpt lat="58.906211" lon="17.170866">
        <ele>78.8</ele>
        <time>2017-09-03T11:04:46Z</time>
      </trkpt>
      <trkpt lat="58.906289" lon="17.170803">
        <ele>78.8</ele>
        <time>2017-09-03T11:04:47Z</time>
      </trkpt>
      <trkpt lat="58.906369" lon="17.170742">
        <ele>78.8</ele>
        <time>2017-09-03T11:04:48Z</time>
      </trkpt>
      <trkpt lat="58.906452" lon="17.170685">
        <ele>79</ele>
        <time>2017-09-03T11:04:49Z</time>
      </trkpt>
      <trkpt lat="58.906535" lon="17.170629">
        <ele>79</ele>
        <time>2017-09-03T11:04:50Z</time>
      </trkpt>
      <trkpt lat="58.906619" lon="17.170576">
        <ele>79</ele>
        <time>2017-09-03T11:04:51Z</time>
      </trkpt>
      <trkpt lat="58.906702" lon="17.170525">
        <ele>79</ele>
        <time>2017-09-03T11:04:52Z</time>
      </trkpt>
      <trkpt lat="58.906783" lon="17.170475">
        <ele>79</ele>
        <time>2017-09-03T11:04:53Z</time>
      </trkpt>
      <trkpt lat="58.906863" lon="17.170422">
        <ele>79</ele>
        <time>2017-09-03T11:04:54Z</time>
      </trkpt>
      <trkpt lat="58.906946" lon="17.170361">
        <ele>78.8</ele>
        <time>2017-09-03T11:04:55Z</time>
      </trkpt>
      <trkpt lat="58.907029" lon="17.170295">
        <ele>78.8</ele>
        <time>2017-09-03T11:04:56Z</time>
      </trkpt>
      <trkpt lat="58.907108" lon="17.170225">
        <ele>78.8</ele>
        <time>2017-09-03T11:04:57Z</time>
      </trkpt>
      <trkpt lat="58.907185" lon="17.170147">
        <ele>78.8</ele>
        <time>2017-09-03T11:04:58Z</time>
      </trkpt>
      <trkpt lat="58.907255" lon="17.170064">
        <ele>78.8</ele>
        <time>2017-09-03T11:04:59Z</time>
      </trkpt>
      <trkpt lat="58.907323" lon="17.169977">
        <ele>78.8</ele>
        <time>2017-09-03T11:05:00Z</time>
      </trkpt>
      <trkpt lat="58.907392" lon="17.169887">
        <ele>78.8</ele>
        <time>2017-09-03T11:05:01Z</time>
      </trkpt>
      <trkpt lat="58.907461" lon="17.1698">
        <ele>79</ele>
        <time>2017-09-03T11:05:02Z</time>
      </trkpt>
      <trkpt lat="58.907529" lon="17.169718">
        <ele>79</ele>
        <time>2017-09-03T11:05:03Z</time>
      </trkpt>
      <trkpt lat="58.907599" lon="17.169638">
        <ele>79.2</ele>
        <time>2017-09-03T11:05:04Z</time>
      </trkpt>
      <trkpt lat="58.907671" lon="17.169556">
        <ele>79.2</ele>
        <time>2017-09-03T11:05:05Z</time>
      </trkpt>
      <trkpt lat="58.907743" lon="17.169479">
        <ele>79.6</ele>
        <time>2017-09-03T11:05:06Z</time>
      </trkpt>
      <trkpt lat="58.907819" lon="17.169408">
        <ele>79.8</ele>
        <time>2017-09-03T11:05:07Z</time>
      </trkpt>
      <trkpt lat="58.907895" lon="17.169338">
        <ele>80</ele>
        <time>2017-09-03T11:05:08Z</time>
      </trkpt>
      <trkpt lat="58.907973" lon="17.169269">
        <ele>80</ele>
        <time>2017-09-03T11:05:09Z</time>
      </trkpt>
      <trkpt lat="58.908048" lon="17.169203">
        <ele>80.2</ele>
        <time>2017-09-03T11:05:10Z</time>
      </trkpt>
      <trkpt lat="58.908125" lon="17.16914">
        <ele>80.2</ele>
        <time>2017-09-03T11:05:11Z</time>
      </trkpt>
      <trkpt lat="58.908207" lon="17.169074">
        <ele>80.2</ele>
        <time>2017-09-03T11:05:12Z</time>
      </trkpt>
      <trkpt lat="58.90829" lon="17.169002">
        <ele>80.2</ele>
        <time>2017-09-03T11:05:13Z</time>
      </trkpt>
      <trkpt lat="58.908374" lon="17.168927">
        <ele>80.2</ele>
        <time>2017-09-03T11:05:14Z</time>
      </trkpt>
      <trkpt lat="58.908457" lon="17.168852">
        <ele>80.2</ele>
        <time>2017-09-03T11:05:15Z</time>
      </trkpt>
      <trkpt lat="58.90854" lon="17.16878">
        <ele>80.2</ele>
        <time>2017-09-03T11:05:16Z</time>
      </trkpt>
      <trkpt lat="58.908627" lon="17.16871">
        <ele>80.2</ele>
        <time>2017-09-03T11:05:17Z</time>
      </trkpt>
      <trkpt lat="58.908715" lon="17.168641">
        <ele>80.4</ele>
        <time>2017-09-03T11:05:18Z</time>
      </trkpt>
      <trkpt lat="58.908804" lon="17.168578">
        <ele>80.4</ele>
        <time>2017-09-03T11:05:19Z</time>
      </trkpt>
      <trkpt lat="58.908891" lon="17.168521">
        <ele>80.4</ele>
        <time>2017-09-03T11:05:20Z</time>
      </trkpt>
      <trkpt lat="58.908982" lon="17.168465">
        <ele>80.4</ele>
        <time>2017-09-03T11:05:21Z</time>
      </trkpt>
      <trkpt lat="58.909073" lon="17.168415">
        <ele>80.2</ele>
        <time>2017-09-03T11:05:22Z</time>
      </trkpt>
      <trkpt lat="58.909166" lon="17.168372">
        <ele>80.2</ele>
        <time>2017-09-03T11:05:23Z</time>
      </trkpt>
      <trkpt lat="58.909262" lon="17.168326">
        <ele>80.2</ele>
        <time>2017-09-03T11:05:24Z</time>
      </trkpt>
      <trkpt lat="58.909356" lon="17.168272">
        <ele>80</ele>
        <time>2017-09-03T11:05:25Z</time>
      </trkpt>
      <trkpt lat="58.909449" lon="17.168212">
        <ele>80</ele>
        <time>2017-09-03T11:05:26Z</time>
      </trkpt>
      <trkpt lat="58.909539" lon="17.168148">
        <ele>80</ele>
        <time>2017-09-03T11:05:27Z</time>
      </trkpt>
      <trkpt lat="58.90963" lon="17.168082">
        <ele>79.8</ele>
        <time>2017-09-03T11:05:28Z</time>
      </trkpt>
      <trkpt lat="58.909719" lon="17.168012">
        <ele>79.8</ele>
        <time>2017-09-03T11:05:29Z</time>
      </trkpt>
      <trkpt lat="58.909805" lon="17.16794">
        <ele>79.8</ele>
        <time>2017-09-03T11:05:30Z</time>
      </trkpt>
      <trkpt lat="58.909889" lon="17.167867">
        <ele>79.8</ele>
        <time>2017-09-03T11:05:31Z</time>
      </trkpt>
      <trkpt lat="58.909972" lon="17.1678">
        <ele>79.8</ele>
        <time>2017-09-03T11:05:32Z</time>
      </trkpt>
      <trkpt lat="58.910055" lon="17.167738">
        <ele>79.8</ele>
        <time>2017-09-03T11:05:33Z</time>
      </trkpt>
      <trkpt lat="58.910138" lon="17.167684">
        <ele>79.8</ele>
        <time>2017-09-03T11:05:34Z</time>
      </trkpt>
      <trkpt lat="58.910222" lon="17.167638">
        <ele>79.8</ele>
        <time>2017-09-03T11:05:35Z</time>
      </trkpt>
      <trkpt lat="58.910306" lon="17.167596">
        <ele>79.8</ele>
        <time>2017-09-03T11:05:36Z</time>
      </trkpt>
      <trkpt lat="58.91039" lon="17.167554">
        <ele>79.8</ele>
        <time>2017-09-03T11:05:37Z</time>
      </trkpt>
      <trkpt lat="58.910471" lon="17.167507">
        <ele>79.8</ele>
        <time>2017-09-03T11:05:38Z</time>
      </trkpt>
      <trkpt lat="58.910548" lon="17.167453">
        <ele>79.8</ele>
        <time>2017-09-03T11:05:39Z</time>
      </trkpt>
      <trkpt lat="58.910625" lon="17.167397">
        <ele>80</ele>
        <time>2017-09-03T11:05:40Z</time>
      </trkpt>
      <trkpt lat="58.910703" lon="17.16733">
        <ele>80.2</ele>
        <time>2017-09-03T11:05:41Z</time>
      </trkpt>
      <trkpt lat="58.910782" lon="17.167263">
        <ele>80.2</ele>
        <time>2017-09-03T11:05:42Z</time>
      </trkpt>
      <trkpt lat="58.910864" lon="17.167202">
        <ele>80.4</ele>
        <time>2017-09-03T11:05:43Z</time>
      </trkpt>
      <trkpt lat="58.910948" lon="17.167149">
        <ele>80.4</ele>
        <time>2017-09-03T11:05:44Z</time>
      </trkpt>
      <trkpt lat="58.911033" lon="17.167095">
        <ele>80.6</ele>
        <time>2017-09-03T11:05:45Z</time>
      </trkpt>
      <trkpt lat="58.911118" lon="17.167045">
        <ele>80.6</ele>
        <time>2017-09-03T11:05:46Z</time>
      </trkpt>
      <trkpt lat="58.911204" lon="17.167">
        <ele>80.8</ele>
        <time>2017-09-03T11:05:47Z</time>
      </trkpt>
      <trkpt lat="58.911291" lon="17.16696">
        <ele>81</ele>
        <time>2017-09-03T11:05:48Z</time>
      </trkpt>
      <trkpt lat="58.911378" lon="17.166924">
        <ele>81</ele>
        <time>2017-09-03T11:05:49Z</time>
      </trkpt>
      <trkpt lat="58.911466" lon="17.166884">
        <ele>81.2</ele>
        <time>2017-09-03T11:05:50Z</time>
      </trkpt>
      <trkpt lat="58.911554" lon="17.166848">
        <ele>81.2</ele>
        <time>2017-09-03T11:05:51Z</time>
      </trkpt>
      <trkpt lat="58.911649" lon="17.166819">
        <ele>81.2</ele>
        <time>2017-09-03T11:05:52Z</time>
      </trkpt>
      <trkpt lat="58.911746" lon="17.166791">
        <ele>81.2</ele>
        <time>2017-09-03T11:05:53Z</time>
      </trkpt>
      <trkpt lat="58.91184" lon="17.166764">
        <ele>81.4</ele>
        <time>2017-09-03T11:05:54Z</time>
      </trkpt>
      <trkpt lat="58.911938" lon="17.166737">
        <ele>81.4</ele>
        <time>2017-09-03T11:05:55Z</time>
      </trkpt>
      <trkpt lat="58.912033" lon="17.166698">
        <ele>81.4</ele>
        <time>2017-09-03T11:05:56Z</time>
      </trkpt>
      <trkpt lat="58.912125" lon="17.166644">
        <ele>81.4</ele>
        <time>2017-09-03T11:05:57Z</time>
      </trkpt>
      <trkpt lat="58.91222" lon="17.16659">
        <ele>81.4</ele>
        <time>2017-09-03T11:05:58Z</time>
      </trkpt>
      <trkpt lat="58.912315" lon="17.16654">
        <ele>81.4</ele>
        <time>2017-09-03T11:05:59Z</time>
      </trkpt>
      <trkpt lat="58.912412" lon="17.166498">
        <ele>81.4</ele>
        <time>2017-09-03T11:06:00Z</time>
      </trkpt>
      <trkpt lat="58.91251" lon="17.166458">
        <ele>81.4</ele>
        <time>2017-09-03T11:06:01Z</time>
      </trkpt>
      <trkpt lat="58.91261" lon="17.166426">
        <ele>81.4</ele>
        <time>2017-09-03T11:06:02Z</time>
      </trkpt>
      <trkpt lat="58.912711" lon="17.166395">
        <ele>81.4</ele>
        <time>2017-09-03T11:06:03Z</time>
      </trkpt>
      <trkpt lat="58.912813" lon="17.166362">
        <ele>81.2</ele>
        <time>2017-09-03T11:06:04Z</time>
      </trkpt>
      <trkpt lat="58.912915" lon="17.166328">
        <ele>81.4</ele>
        <time>2017-09-03T11:06:05Z</time>
      </trkpt>
      <trkpt lat="58.913019" lon="17.166304">
        <ele>81.4</ele>
        <time>2017-09-03T11:06:06Z</time>
      </trkpt>
      <trkpt lat="58.913119" lon="17.166284">
        <ele>81.4</ele>
        <time>2017-09-03T11:06:07Z</time>
      </trkpt>
      <trkpt lat="58.91322" lon="17.166268">
        <ele>81.4</ele>
        <time>2017-09-03T11:06:08Z</time>
      </trkpt>
      <trkpt lat="58.913319" lon="17.166258">
        <ele>81.4</ele>
        <time>2017-09-03T11:06:09Z</time>
      </trkpt>
      <trkpt lat="58.913417" lon="17.166255">
        <ele>81.2</ele>
        <time>2017-09-03T11:06:10Z</time>
      </trkpt>
      <trkpt lat="58.913516" lon="17.166253">
        <ele>81</ele>
        <time>2017-09-03T11:06:11Z</time>
      </trkpt>
      <trkpt lat="58.913615" lon="17.16625">
        <ele>81.2</ele>
        <time>2017-09-03T11:06:12Z</time>
      </trkpt>
      <trkpt lat="58.913715" lon="17.166242">
        <ele>81.2</ele>
        <time>2017-09-03T11:06:13Z</time>
      </trkpt>
      <trkpt lat="58.913817" lon="17.166229">
        <ele>81.2</ele>
        <time>2017-09-03T11:06:14Z</time>
      </trkpt>
      <trkpt lat="58.91392" lon="17.166211">
        <ele>81</ele>
        <time>2017-09-03T11:06:15Z</time>
      </trkpt>
      <trkpt lat="58.914024" lon="17.166186">
        <ele>80.8</ele>
        <time>2017-09-03T11:06:16Z</time>
      </trkpt>
      <trkpt lat="58.91413" lon="17.166156">
        <ele>81</ele>
        <time>2017-09-03T11:06:17Z</time>
      </trkpt>
      <trkpt lat="58.914235" lon="17.166127">
        <ele>80.8</ele>
        <time>2017-09-03T11:06:18Z</time>
      </trkpt>
      <trkpt lat="58.914342" lon="17.166107">
        <ele>80.6</ele>
        <time>2017-09-03T11:06:19Z</time>
      </trkpt>
      <trkpt lat="58.914451" lon="17.1661">
        <ele>80.6</ele>
        <time>2017-09-03T11:06:20Z</time>
      </trkpt>
      <trkpt lat="58.914564" lon="17.166098">
        <ele>80.6</ele>
        <time>2017-09-03T11:06:21Z</time>
      </trkpt>
      <trkpt lat="58.914679" lon="17.166089">
        <ele>80.4</ele>
        <time>2017-09-03T11:06:22Z</time>
      </trkpt>
      <trkpt lat="58.914801" lon="17.166053">
        <ele>80.2</ele>
        <time>2017-09-03T11:06:23Z</time>
      </trkpt>
      <trkpt lat="58.914921" lon="17.166004">
        <ele>80.2</ele>
        <time>2017-09-03T11:06:24Z</time>
      </trkpt>
      <trkpt lat="58.915037" lon="17.165916">
        <ele>79.8</ele>
        <time>2017-09-03T11:06:25Z</time>
      </trkpt>
      <trkpt lat="58.915142" lon="17.165787">
        <ele>79.4</ele>
        <time>2017-09-03T11:06:26Z</time>
      </trkpt>
      <trkpt lat="58.915236" lon="17.16563">
        <ele>78.4</ele>
        <time>2017-09-03T11:06:27Z</time>
      </trkpt>
      <trkpt lat="58.915317" lon="17.165435">
        <ele>77.2</ele>
        <time>2017-09-03T11:06:28Z</time>
      </trkpt>
      <trkpt lat="58.915385" lon="17.165214">
        <ele>76.2</ele>
        <time>2017-09-03T11:06:29Z</time>
      </trkpt>
      <trkpt lat="58.915441" lon="17.164989">
        <ele>75.6</ele>
        <time>2017-09-03T11:06:30Z</time>
      </trkpt>
      <trkpt lat="58.915499" lon="17.16476">
        <ele>75</ele>
        <time>2017-09-03T11:06:31Z</time>
      </trkpt>
      <trkpt lat="58.915561" lon="17.164535">
        <ele>74.6</ele>
        <time>2017-09-03T11:06:32Z</time>
      </trkpt>
      <trkpt lat="58.915623" lon="17.16432">
        <ele>74.4</ele>
        <time>2017-09-03T11:06:33Z</time>
      </trkpt>
      <trkpt lat="58.915691" lon="17.164116">
        <ele>74.2</ele>
        <time>2017-09-03T11:06:34Z</time>
      </trkpt>
      <trkpt lat="58.915757" lon="17.163916">
        <ele>74.2</ele>
        <time>2017-09-03T11:06:35Z</time>
      </trkpt>
      <trkpt lat="58.915818" lon="17.163719">
        <ele>74.2</ele>
        <time>2017-09-03T11:06:36Z</time>
      </trkpt>
      <trkpt lat="58.91587" lon="17.163524">
        <ele>74.2</ele>
        <time>2017-09-03T11:06:37Z</time>
      </trkpt>
      <trkpt lat="58.915912" lon="17.163327">
        <ele>74.2</ele>
        <time>2017-09-03T11:06:38Z</time>
      </trkpt>
      <trkpt lat="58.915952" lon="17.16313">
        <ele>74.2</ele>
        <time>2017-09-03T11:06:39Z</time>
      </trkpt>
      <trkpt lat="58.915991" lon="17.162927">
        <ele>74.2</ele>
        <time>2017-09-03T11:06:40Z</time>
      </trkpt>
      <trkpt lat="58.916026" lon="17.162726">
        <ele>74.2</ele>
        <time>2017-09-03T11:06:41Z</time>
      </trkpt>
      <trkpt lat="58.916076" lon="17.16253">
        <ele>74.2</ele>
        <time>2017-09-03T11:06:42Z</time>
      </trkpt>
      <trkpt lat="58.916144" lon="17.162337">
        <ele>74.2</ele>
        <time>2017-09-03T11:06:43Z</time>
      </trkpt>
      <trkpt lat="58.916229" lon="17.162165">
        <ele>74.2</ele>
        <time>2017-09-03T11:06:44Z</time>
      </trkpt>
      <trkpt lat="58.916328" lon="17.162018">
        <ele>74.2</ele>
        <time>2017-09-03T11:06:45Z</time>
      </trkpt>
      <trkpt lat="58.916432" lon="17.161885">
        <ele>74.2</ele>
        <time>2017-09-03T11:06:46Z</time>
      </trkpt>
      <trkpt lat="58.916546" lon="17.161769">
        <ele>74.2</ele>
        <time>2017-09-03T11:06:47Z</time>
      </trkpt>
      <trkpt lat="58.916658" lon="17.161656">
        <ele>74.2</ele>
        <time>2017-09-03T11:06:48Z</time>
      </trkpt>
      <trkpt lat="58.916771" lon="17.16155">
        <ele>74.2</ele>
        <time>2017-09-03T11:06:49Z</time>
      </trkpt>
      <trkpt lat="58.916884" lon="17.161446">
        <ele>74</ele>
        <time>2017-09-03T11:06:50Z</time>
      </trkpt>
      <trkpt lat="58.916994" lon="17.161341">
        <ele>73.8</ele>
        <time>2017-09-03T11:06:51Z</time>
      </trkpt>
      <trkpt lat="58.917102" lon="17.161237">
        <ele>73.2</ele>
        <time>2017-09-03T11:06:52Z</time>
      </trkpt>
      <trkpt lat="58.917211" lon="17.16114">
        <ele>72.2</ele>
        <time>2017-09-03T11:06:53Z</time>
      </trkpt>
      <trkpt lat="58.91732" lon="17.161052">
        <ele>71.4</ele>
        <time>2017-09-03T11:06:54Z</time>
      </trkpt>
      <trkpt lat="58.917429" lon="17.160978">
        <ele>71</ele>
        <time>2017-09-03T11:06:55Z</time>
      </trkpt>
      <trkpt lat="58.917533" lon="17.160917">
        <ele>70.8</ele>
        <time>2017-09-03T11:06:56Z</time>
      </trkpt>
      <trkpt lat="58.917638" lon="17.16087">
        <ele>70.6</ele>
        <time>2017-09-03T11:06:57Z</time>
      </trkpt>
      <trkpt lat="58.917743" lon="17.160834">
        <ele>70.4</ele>
        <time>2017-09-03T11:06:58Z</time>
      </trkpt>
      <trkpt lat="58.917849" lon="17.160808">
        <ele>70.2</ele>
        <time>2017-09-03T11:06:59Z</time>
      </trkpt>
      <trkpt lat="58.917953" lon="17.160786">
        <ele>70</ele>
        <time>2017-09-03T11:07:00Z</time>
      </trkpt>
      <trkpt lat="58.918054" lon="17.160766">
        <ele>70</ele>
        <time>2017-09-03T11:07:01Z</time>
      </trkpt>
      <trkpt lat="58.918153" lon="17.160744">
        <ele>70</ele>
        <time>2017-09-03T11:07:02Z</time>
      </trkpt>
      <trkpt lat="58.918248" lon="17.160713">
        <ele>70</ele>
        <time>2017-09-03T11:07:03Z</time>
      </trkpt>
      <trkpt lat="58.918341" lon="17.160669">
        <ele>70</ele>
        <time>2017-09-03T11:07:04Z</time>
      </trkpt>
      <trkpt lat="58.91843" lon="17.160614">
        <ele>70</ele>
        <time>2017-09-03T11:07:05Z</time>
      </trkpt>
      <trkpt lat="58.918517" lon="17.160553">
        <ele>70</ele>
        <time>2017-09-03T11:07:06Z</time>
      </trkpt>
      <trkpt lat="58.918605" lon="17.16049">
        <ele>70</ele>
        <time>2017-09-03T11:07:07Z</time>
      </trkpt>
      <trkpt lat="58.918693" lon="17.160427">
        <ele>70</ele>
        <time>2017-09-03T11:07:08Z</time>
      </trkpt>
      <trkpt lat="58.91878" lon="17.160364">
        <ele>70.2</ele>
        <time>2017-09-03T11:07:09Z</time>
      </trkpt>
      <trkpt lat="58.918866" lon="17.160303">
        <ele>70.4</ele>
        <time>2017-09-03T11:07:10Z</time>
      </trkpt>
      <trkpt lat="58.918952" lon="17.16024">
        <ele>70.6</ele>
        <time>2017-09-03T11:07:11Z</time>
      </trkpt>
      <trkpt lat="58.919038" lon="17.160173">
        <ele>70.6</ele>
        <time>2017-09-03T11:07:12Z</time>
      </trkpt>
      <trkpt lat="58.919123" lon="17.160099">
        <ele>70.8</ele>
        <time>2017-09-03T11:07:13Z</time>
      </trkpt>
      <trkpt lat="58.919207" lon="17.160012">
        <ele>71</ele>
        <time>2017-09-03T11:07:14Z</time>
      </trkpt>
      <trkpt lat="58.919288" lon="17.159907">
        <ele>71</ele>
        <time>2017-09-03T11:07:15Z</time>
      </trkpt>
      <trkpt lat="58.919363" lon="17.159788">
        <ele>71.2</ele>
        <time>2017-09-03T11:07:16Z</time>
      </trkpt>
      <trkpt lat="58.919434" lon="17.15966">
        <ele>71.4</ele>
        <time>2017-09-03T11:07:17Z</time>
      </trkpt>
      <trkpt lat="58.91951" lon="17.159537">
        <ele>71.4</ele>
        <time>2017-09-03T11:07:18Z</time>
      </trkpt>
      <trkpt lat="58.91959" lon="17.159424">
        <ele>71.6</ele>
        <time>2017-09-03T11:07:19Z</time>
      </trkpt>
      <trkpt lat="58.919674" lon="17.159319">
        <ele>71.8</ele>
        <time>2017-09-03T11:07:20Z</time>
      </trkpt>
      <trkpt lat="58.919764" lon="17.159224">
        <ele>72</ele>
        <time>2017-09-03T11:07:21Z</time>
      </trkpt>
      <trkpt lat="58.919851" lon="17.159128">
        <ele>72</ele>
        <time>2017-09-03T11:07:22Z</time>
      </trkpt>
      <trkpt lat="58.919936" lon="17.159032">
        <ele>72.2</ele>
        <time>2017-09-03T11:07:23Z</time>
      </trkpt>
      <trkpt lat="58.920022" lon="17.158946">
        <ele>72.2</ele>
        <time>2017-09-03T11:07:24Z</time>
      </trkpt>
      <trkpt lat="58.92011" lon="17.158867">
        <ele>72.2</ele>
        <time>2017-09-03T11:07:25Z</time>
      </trkpt>
      <trkpt lat="58.920197" lon="17.158783">
        <ele>72.2</ele>
        <time>2017-09-03T11:07:26Z</time>
      </trkpt>
      <trkpt lat="58.920284" lon="17.158705">
        <ele>72.2</ele>
        <time>2017-09-03T11:07:27Z</time>
      </trkpt>
      <trkpt lat="58.920367" lon="17.158631">
        <ele>72.2</ele>
        <time>2017-09-03T11:07:28Z</time>
      </trkpt>
      <trkpt lat="58.920445" lon="17.158544">
        <ele>72.2</ele>
        <time>2017-09-03T11:07:29Z</time>
      </trkpt>
      <trkpt lat="58.920516" lon="17.158441">
        <ele>72</ele>
        <time>2017-09-03T11:07:30Z</time>
      </trkpt>
      <trkpt lat="58.920579" lon="17.158327">
        <ele>72.2</ele>
        <time>2017-09-03T11:07:31Z</time>
      </trkpt>
      <trkpt lat="58.920638" lon="17.1582">
        <ele>72</ele>
        <time>2017-09-03T11:07:32Z</time>
      </trkpt>
      <trkpt lat="58.920684" lon="17.158057">
        <ele>72.4</ele>
        <time>2017-09-03T11:07:33Z</time>
      </trkpt>
      <trkpt lat="58.920722" lon="17.157902">
        <ele>72.4</ele>
        <time>2017-09-03T11:07:34Z</time>
      </trkpt>
      <trkpt lat="58.920757" lon="17.157741">
        <ele>72.2</ele>
        <time>2017-09-03T11:07:35Z</time>
      </trkpt>
      <trkpt lat="58.920792" lon="17.157581">
        <ele>72.4</ele>
        <time>2017-09-03T11:07:36Z</time>
      </trkpt>
      <trkpt lat="58.920824" lon="17.157414">
        <ele>72.4</ele>
        <time>2017-09-03T11:07:37Z</time>
      </trkpt>
      <trkpt lat="58.920856" lon="17.15725">
        <ele>72.4</ele>
        <time>2017-09-03T11:07:38Z</time>
      </trkpt>
      <trkpt lat="58.920888" lon="17.157084">
        <ele>72.4</ele>
        <time>2017-09-03T11:07:39Z</time>
      </trkpt>
      <trkpt lat="58.920925" lon="17.156925">
        <ele>72.4</ele>
        <time>2017-09-03T11:07:40Z</time>
      </trkpt>
      <trkpt lat="58.920967" lon="17.156765">
        <ele>72.4</ele>
        <time>2017-09-03T11:07:41Z</time>
      </trkpt>
      <trkpt lat="58.921011" lon="17.156608">
        <ele>72.4</ele>
        <time>2017-09-03T11:07:42Z</time>
      </trkpt>
      <trkpt lat="58.921059" lon="17.156449">
        <ele>72.6</ele>
        <time>2017-09-03T11:07:43Z</time>
      </trkpt>
      <trkpt lat="58.921111" lon="17.156291">
        <ele>72.8</ele>
        <time>2017-09-03T11:07:44Z</time>
      </trkpt>
      <trkpt lat="58.921164" lon="17.156128">
        <ele>72.8</ele>
        <time>2017-09-03T11:07:45Z</time>
      </trkpt>
      <trkpt lat="58.921218" lon="17.155967">
        <ele>72.8</ele>
        <time>2017-09-03T11:07:46Z</time>
      </trkpt>
      <trkpt lat="58.92127" lon="17.155802">
        <ele>72.8</ele>
        <time>2017-09-03T11:07:47Z</time>
      </trkpt>
      <trkpt lat="58.921321" lon="17.155632">
        <ele>72.8</ele>
        <time>2017-09-03T11:07:48Z</time>
      </trkpt>
      <trkpt lat="58.921366" lon="17.155449">
        <ele>72.8</ele>
        <time>2017-09-03T11:07:49Z</time>
      </trkpt>
      <trkpt lat="58.921411" lon="17.155257">
        <ele>72.8</ele>
        <time>2017-09-03T11:07:50Z</time>
      </trkpt>
      <trkpt lat="58.921458" lon="17.155058">
        <ele>72.8</ele>
        <time>2017-09-03T11:07:51Z</time>
      </trkpt>
      <trkpt lat="58.921507" lon="17.15485">
        <ele>72.8</ele>
        <time>2017-09-03T11:07:52Z</time>
      </trkpt>
      <trkpt lat="58.92156" lon="17.15464">
        <ele>72.8</ele>
        <time>2017-09-03T11:07:53Z</time>
      </trkpt>
      <trkpt lat="58.921619" lon="17.154438">
        <ele>72.6</ele>
        <time>2017-09-03T11:07:54Z</time>
      </trkpt>
      <trkpt lat="58.921682" lon="17.154251">
        <ele>72.4</ele>
        <time>2017-09-03T11:07:55Z</time>
      </trkpt>
      <trkpt lat="58.921747" lon="17.154077">
        <ele>72.2</ele>
        <time>2017-09-03T11:07:56Z</time>
      </trkpt>
      <trkpt lat="58.921823" lon="17.153924">
        <ele>72.2</ele>
        <time>2017-09-03T11:07:57Z</time>
      </trkpt>
      <trkpt lat="58.921906" lon="17.153784">
        <ele>72</ele>
        <time>2017-09-03T11:07:58Z</time>
      </trkpt>
      <trkpt lat="58.921996" lon="17.153668">
        <ele>71.4</ele>
        <time>2017-09-03T11:07:59Z</time>
      </trkpt>
      <trkpt lat="58.922092" lon="17.153567">
        <ele>70.8</ele>
        <time>2017-09-03T11:08:00Z</time>
      </trkpt>
      <trkpt lat="58.922195" lon="17.153477">
        <ele>70.2</ele>
        <time>2017-09-03T11:08:01Z</time>
      </trkpt>
      <trkpt lat="58.922307" lon="17.153401">
        <ele>69.2</ele>
        <time>2017-09-03T11:08:02Z</time>
      </trkpt>
      <trkpt lat="58.92242" lon="17.153341">
        <ele>68.4</ele>
        <time>2017-09-03T11:08:03Z</time>
      </trkpt>
      <trkpt lat="58.922534" lon="17.153294">
        <ele>67.8</ele>
        <time>2017-09-03T11:08:04Z</time>
      </trkpt>
      <trkpt lat="58.922648" lon="17.153264">
        <ele>67.4</ele>
        <time>2017-09-03T11:08:05Z</time>
      </trkpt>
      <trkpt lat="58.922768" lon="17.153254">
        <ele>67.4</ele>
        <time>2017-09-03T11:08:06Z</time>
      </trkpt>
      <trkpt lat="58.922887" lon="17.153265">
        <ele>67.2</ele>
        <time>2017-09-03T11:08:07Z</time>
      </trkpt>
      <trkpt lat="58.923007" lon="17.153293">
        <ele>67.2</ele>
        <time>2017-09-03T11:08:08Z</time>
      </trkpt>
      <trkpt lat="58.923119" lon="17.153331">
        <ele>67.2</ele>
        <time>2017-09-03T11:08:09Z</time>
      </trkpt>
      <trkpt lat="58.923225" lon="17.153369">
        <ele>67.2</ele>
        <time>2017-09-03T11:08:10Z</time>
      </trkpt>
      <trkpt lat="58.923326" lon="17.153413">
        <ele>67.2</ele>
        <time>2017-09-03T11:08:11Z</time>
      </trkpt>
      <trkpt lat="58.923418" lon="17.153468">
        <ele>67.2</ele>
        <time>2017-09-03T11:08:12Z</time>
      </trkpt>
      <trkpt lat="58.923505" lon="17.153532">
        <ele>67.2</ele>
        <time>2017-09-03T11:08:13Z</time>
      </trkpt>
      <trkpt lat="58.923588" lon="17.153609">
        <ele>67.2</ele>
        <time>2017-09-03T11:08:14Z</time>
      </trkpt>
      <trkpt lat="58.923664" lon="17.153698">
        <ele>67.2</ele>
        <time>2017-09-03T11:08:15Z</time>
      </trkpt>
      <trkpt lat="58.923738" lon="17.153796">
        <ele>67.4</ele>
        <time>2017-09-03T11:08:16Z</time>
      </trkpt>
      <trkpt lat="58.923802" lon="17.15391">
        <ele>67.4</ele>
        <time>2017-09-03T11:08:17Z</time>
      </trkpt>
      <trkpt lat="58.923852" lon="17.154038">
        <ele>67.6</ele>
        <time>2017-09-03T11:08:18Z</time>
      </trkpt>
      <trkpt lat="58.923901" lon="17.154168">
        <ele>67.8</ele>
        <time>2017-09-03T11:08:19Z</time>
      </trkpt>
      <trkpt lat="58.923949" lon="17.154293">
        <ele>68</ele>
        <time>2017-09-03T11:08:20Z</time>
      </trkpt>
      <trkpt lat="58.923996" lon="17.154413">
        <ele>68.4</ele>
        <time>2017-09-03T11:08:21Z</time>
      </trkpt>
      <trkpt lat="58.924038" lon="17.154534">
        <ele>68.6</ele>
        <time>2017-09-03T11:08:22Z</time>
      </trkpt>
      <trkpt lat="58.924085" lon="17.15465">
        <ele>69</ele>
        <time>2017-09-03T11:08:23Z</time>
      </trkpt>
      <trkpt lat="58.924137" lon="17.154755">
        <ele>69.6</ele>
        <time>2017-09-03T11:08:24Z</time>
      </trkpt>
      <trkpt lat="58.924194" lon="17.154844">
        <ele>70</ele>
        <time>2017-09-03T11:08:25Z</time>
      </trkpt>
      <trkpt lat="58.924255" lon="17.154924">
        <ele>70.4</ele>
        <time>2017-09-03T11:08:26Z</time>
      </trkpt>
      <trkpt lat="58.924316" lon="17.155003">
        <ele>70.8</ele>
        <time>2017-09-03T11:08:27Z</time>
      </trkpt>
      <trkpt lat="58.924381" lon="17.155079">
        <ele>71.2</ele>
        <time>2017-09-03T11:08:28Z</time>
      </trkpt>
      <trkpt lat="58.924448" lon="17.155152">
        <ele>71.6</ele>
        <time>2017-09-03T11:08:29Z</time>
      </trkpt>
      <trkpt lat="58.924513" lon="17.155223">
        <ele>72.2</ele>
        <time>2017-09-03T11:08:30Z</time>
      </trkpt>
      <trkpt lat="58.924577" lon="17.155295">
        <ele>72.6</ele>
        <time>2017-09-03T11:08:31Z</time>
      </trkpt>
      <trkpt lat="58.924641" lon="17.155362">
        <ele>73</ele>
        <time>2017-09-03T11:08:32Z</time>
      </trkpt>
      <trkpt lat="58.924704" lon="17.155426">
        <ele>73.4</ele>
        <time>2017-09-03T11:08:33Z</time>
      </trkpt>
      <trkpt lat="58.924765" lon="17.155485">
        <ele>73.6</ele>
        <time>2017-09-03T11:08:34Z</time>
      </trkpt>
      <trkpt lat="58.924827" lon="17.155536">
        <ele>73.8</ele>
        <time>2017-09-03T11:08:35Z</time>
      </trkpt>
      <trkpt lat="58.924889" lon="17.155583">
        <ele>74.2</ele>
        <time>2017-09-03T11:08:36Z</time>
      </trkpt>
      <trkpt lat="58.92495" lon="17.155629">
        <ele>74.4</ele>
        <time>2017-09-03T11:08:37Z</time>
      </trkpt>
      <trkpt lat="58.92501" lon="17.155676">
        <ele>74.6</ele>
        <time>2017-09-03T11:08:38Z</time>
      </trkpt>
      <trkpt lat="58.925072" lon="17.155719">
        <ele>74.8</ele>
        <time>2017-09-03T11:08:39Z</time>
      </trkpt>
      <trkpt lat="58.925136" lon="17.155756">
        <ele>75</ele>
        <time>2017-09-03T11:08:40Z</time>
      </trkpt>
      <trkpt lat="58.925206" lon="17.1558">
        <ele>75.2</ele>
        <time>2017-09-03T11:08:41Z</time>
      </trkpt>
      <trkpt lat="58.925279" lon="17.155851">
        <ele>75.8</ele>
        <time>2017-09-03T11:08:42Z</time>
      </trkpt>
      <trkpt lat="58.92535" lon="17.155902">
        <ele>76.2</ele>
        <time>2017-09-03T11:08:43Z</time>
      </trkpt>
      <trkpt lat="58.925423" lon="17.155953">
        <ele>76.6</ele>
        <time>2017-09-03T11:08:44Z</time>
      </trkpt>
      <trkpt lat="58.925494" lon="17.156008">
        <ele>77.2</ele>
        <time>2017-09-03T11:08:45Z</time>
      </trkpt>
      <trkpt lat="58.925565" lon="17.156061">
        <ele>77.6</ele>
        <time>2017-09-03T11:08:46Z</time>
      </trkpt>
      <trkpt lat="58.925634" lon="17.156117">
        <ele>77.8</ele>
        <time>2017-09-03T11:08:47Z</time>
      </trkpt>
      <trkpt lat="58.925703" lon="17.156173">
        <ele>78</ele>
        <time>2017-09-03T11:08:48Z</time>
      </trkpt>
      <trkpt lat="58.925777" lon="17.156214">
        <ele>78</ele>
        <time>2017-09-03T11:08:49Z</time>
      </trkpt>
      <trkpt lat="58.925854" lon="17.156252">
        <ele>78</ele>
        <time>2017-09-03T11:08:50Z</time>
      </trkpt>
      <trkpt lat="58.925937" lon="17.156289">
        <ele>78</ele>
        <time>2017-09-03T11:08:51Z</time>
      </trkpt>
      <trkpt lat="58.926022" lon="17.156328">
        <ele>78</ele>
        <time>2017-09-03T11:08:52Z</time>
      </trkpt>
      <trkpt lat="58.926109" lon="17.156367">
        <ele>78</ele>
        <time>2017-09-03T11:08:53Z</time>
      </trkpt>
      <trkpt lat="58.926198" lon="17.156403">
        <ele>78</ele>
        <time>2017-09-03T11:08:54Z</time>
      </trkpt>
      <trkpt lat="58.926286" lon="17.156436">
        <ele>78</ele>
        <time>2017-09-03T11:08:55Z</time>
      </trkpt>
      <trkpt lat="58.926376" lon="17.156465">
        <ele>78</ele>
        <time>2017-09-03T11:08:56Z</time>
      </trkpt>
      <trkpt lat="58.926466" lon="17.156496">
        <ele>77.8</ele>
        <time>2017-09-03T11:08:57Z</time>
      </trkpt>
      <trkpt lat="58.926555" lon="17.156525">
        <ele>77.8</ele>
        <time>2017-09-03T11:08:58Z</time>
      </trkpt>
      <trkpt lat="58.926647" lon="17.156548">
        <ele>77.8</ele>
        <time>2017-09-03T11:08:59Z</time>
      </trkpt>
      <trkpt lat="58.926738" lon="17.156575">
        <ele>77.6</ele>
        <time>2017-09-03T11:09:00Z</time>
      </trkpt>
      <trkpt lat="58.926828" lon="17.156595">
        <ele>77.6</ele>
        <time>2017-09-03T11:09:01Z</time>
      </trkpt>
      <trkpt lat="58.926918" lon="17.156604">
        <ele>77.6</ele>
        <time>2017-09-03T11:09:02Z</time>
      </trkpt>
      <trkpt lat="58.927009" lon="17.156605">
        <ele>77.4</ele>
        <time>2017-09-03T11:09:03Z</time>
      </trkpt>
      <trkpt lat="58.9271" lon="17.156597">
        <ele>77.4</ele>
        <time>2017-09-03T11:09:04Z</time>
      </trkpt>
      <trkpt lat="58.927194" lon="17.156583">
        <ele>77.4</ele>
        <time>2017-09-03T11:09:05Z</time>
      </trkpt>
      <trkpt lat="58.927287" lon="17.156567">
        <ele>77.4</ele>
        <time>2017-09-03T11:09:06Z</time>
      </trkpt>
      <trkpt lat="58.927379" lon="17.156552">
        <ele>77.4</ele>
        <time>2017-09-03T11:09:07Z</time>
      </trkpt>
      <trkpt lat="58.927472" lon="17.15654">
        <ele>77.4</ele>
        <time>2017-09-03T11:09:08Z</time>
      </trkpt>
      <trkpt lat="58.927564" lon="17.156521">
        <ele>77.4</ele>
        <time>2017-09-03T11:09:09Z</time>
      </trkpt>
      <trkpt lat="58.927657" lon="17.156501">
        <ele>77.4</ele>
        <time>2017-09-03T11:09:10Z</time>
      </trkpt>
      <trkpt lat="58.927747" lon="17.156477">
        <ele>77.4</ele>
        <time>2017-09-03T11:09:11Z</time>
      </trkpt>
      <trkpt lat="58.927845" lon="17.156443">
        <ele>77.4</ele>
        <time>2017-09-03T11:09:12Z</time>
      </trkpt>
      <trkpt lat="58.927943" lon="17.156419">
        <ele>77.4</ele>
        <time>2017-09-03T11:09:13Z</time>
      </trkpt>
      <trkpt lat="58.928043" lon="17.156414">
        <ele>77.6</ele>
        <time>2017-09-03T11:09:14Z</time>
      </trkpt>
      <trkpt lat="58.928143" lon="17.156429">
        <ele>77.6</ele>
        <time>2017-09-03T11:09:15Z</time>
      </trkpt>
      <trkpt lat="58.928233" lon="17.156465">
        <ele>77.8</ele>
        <time>2017-09-03T11:09:16Z</time>
      </trkpt>
      <trkpt lat="58.928312" lon="17.156516">
        <ele>77.8</ele>
        <time>2017-09-03T11:09:17Z</time>
      </trkpt>
      <trkpt lat="58.928389" lon="17.15657">
        <ele>78</ele>
        <time>2017-09-03T11:09:18Z</time>
      </trkpt>
      <trkpt lat="58.928468" lon="17.156624">
        <ele>78.6</ele>
        <time>2017-09-03T11:09:19Z</time>
      </trkpt>
      <trkpt lat="58.928546" lon="17.156677">
        <ele>78.8</ele>
        <time>2017-09-03T11:09:20Z</time>
      </trkpt>
      <trkpt lat="58.928623" lon="17.156734">
        <ele>79.2</ele>
        <time>2017-09-03T11:09:21Z</time>
      </trkpt>
      <trkpt lat="58.928692" lon="17.156801">
        <ele>79.4</ele>
        <time>2017-09-03T11:09:22Z</time>
      </trkpt>
      <trkpt lat="58.928763" lon="17.156871">
        <ele>79.4</ele>
        <time>2017-09-03T11:09:23Z</time>
      </trkpt>
      <trkpt lat="58.928831" lon="17.156949">
        <ele>79.6</ele>
        <time>2017-09-03T11:09:24Z</time>
      </trkpt>
      <trkpt lat="58.928901" lon="17.157029">
        <ele>79.6</ele>
        <time>2017-09-03T11:09:25Z</time>
      </trkpt>
      <trkpt lat="58.928972" lon="17.157106">
        <ele>79.8</ele>
        <time>2017-09-03T11:09:26Z</time>
      </trkpt>
      <trkpt lat="58.92905" lon="17.157176">
        <ele>80.2</ele>
        <time>2017-09-03T11:09:27Z</time>
      </trkpt>
      <trkpt lat="58.929126" lon="17.157244">
        <ele>80.4</ele>
        <time>2017-09-03T11:09:28Z</time>
      </trkpt>
      <trkpt lat="58.929199" lon="17.157314">
        <ele>80.4</ele>
        <time>2017-09-03T11:09:29Z</time>
      </trkpt>
      <trkpt lat="58.929271" lon="17.157379">
        <ele>80.6</ele>
        <time>2017-09-03T11:09:30Z</time>
      </trkpt>
      <trkpt lat="58.929344" lon="17.157447">
        <ele>80.6</ele>
        <time>2017-09-03T11:09:31Z</time>
      </trkpt>
      <trkpt lat="58.929417" lon="17.157524">
        <ele>80.6</ele>
        <time>2017-09-03T11:09:32Z</time>
      </trkpt>
      <trkpt lat="58.929494" lon="17.157611">
        <ele>80.8</ele>
        <time>2017-09-03T11:09:33Z</time>
      </trkpt>
      <trkpt lat="58.929574" lon="17.157702">
        <ele>80.8</ele>
        <time>2017-09-03T11:09:34Z</time>
      </trkpt>
      <trkpt lat="58.929655" lon="17.157789">
        <ele>80.8</ele>
        <time>2017-09-03T11:09:35Z</time>
      </trkpt>
      <trkpt lat="58.929734" lon="17.157876">
        <ele>80.8</ele>
        <time>2017-09-03T11:09:36Z</time>
      </trkpt>
      <trkpt lat="58.929814" lon="17.157961">
        <ele>80.8</ele>
        <time>2017-09-03T11:09:37Z</time>
      </trkpt>
      <trkpt lat="58.929894" lon="17.158043">
        <ele>80.8</ele>
        <time>2017-09-03T11:09:38Z</time>
      </trkpt>
      <trkpt lat="58.929977" lon="17.158124">
        <ele>80.8</ele>
        <time>2017-09-03T11:09:39Z</time>
      </trkpt>
      <trkpt lat="58.930059" lon="17.158206">
        <ele>80.8</ele>
        <time>2017-09-03T11:09:40Z</time>
      </trkpt>
      <trkpt lat="58.930142" lon="17.158288">
        <ele>80.8</ele>
        <time>2017-09-03T11:09:41Z</time>
      </trkpt>
      <trkpt lat="58.930228" lon="17.158375">
        <ele>80.8</ele>
        <time>2017-09-03T11:09:42Z</time>
      </trkpt>
      <trkpt lat="58.93031" lon="17.15847">
        <ele>80.8</ele>
        <time>2017-09-03T11:09:43Z</time>
      </trkpt>
      <trkpt lat="58.930387" lon="17.158574">
        <ele>80.8</ele>
        <time>2017-09-03T11:09:44Z</time>
      </trkpt>
      <trkpt lat="58.930458" lon="17.158688">
        <ele>80.8</ele>
        <time>2017-09-03T11:09:45Z</time>
      </trkpt>
      <trkpt lat="58.930527" lon="17.158807">
        <ele>80.8</ele>
        <time>2017-09-03T11:09:46Z</time>
      </trkpt>
      <trkpt lat="58.930594" lon="17.158929">
        <ele>80.8</ele>
        <time>2017-09-03T11:09:47Z</time>
      </trkpt>
      <trkpt lat="58.930658" lon="17.159052">
        <ele>80.8</ele>
        <time>2017-09-03T11:09:48Z</time>
      </trkpt>
      <trkpt lat="58.930715" lon="17.159179">
        <ele>81</ele>
        <time>2017-09-03T11:09:49Z</time>
      </trkpt>
      <trkpt lat="58.930769" lon="17.159305">
        <ele>81.2</ele>
        <time>2017-09-03T11:09:50Z</time>
      </trkpt>
      <trkpt lat="58.930823" lon="17.159427">
        <ele>81.6</ele>
        <time>2017-09-03T11:09:51Z</time>
      </trkpt>
      <trkpt lat="58.930877" lon="17.159552">
        <ele>81.8</ele>
        <time>2017-09-03T11:09:52Z</time>
      </trkpt>
      <trkpt lat="58.930933" lon="17.159685">
        <ele>82.4</ele>
        <time>2017-09-03T11:09:53Z</time>
      </trkpt>
      <trkpt lat="58.93099" lon="17.159826">
        <ele>82.6</ele>
        <time>2017-09-03T11:09:54Z</time>
      </trkpt>
      <trkpt lat="58.93105" lon="17.159981">
        <ele>82.6</ele>
        <time>2017-09-03T11:09:55Z</time>
      </trkpt>
      <trkpt lat="58.931112" lon="17.160144">
        <ele>82.8</ele>
        <time>2017-09-03T11:09:56Z</time>
      </trkpt>
      <trkpt lat="58.931171" lon="17.160312">
        <ele>82.8</ele>
        <time>2017-09-03T11:09:57Z</time>
      </trkpt>
      <trkpt lat="58.931227" lon="17.16048">
        <ele>82.8</ele>
        <time>2017-09-03T11:09:58Z</time>
      </trkpt>
      <trkpt lat="58.931287" lon="17.160642">
        <ele>82.8</ele>
        <time>2017-09-03T11:09:59Z</time>
      </trkpt>
      <trkpt lat="58.931343" lon="17.160803">
        <ele>82.8</ele>
        <time>2017-09-03T11:10:00Z</time>
      </trkpt>
      <trkpt lat="58.931399" lon="17.160967">
        <ele>82.8</ele>
        <time>2017-09-03T11:10:01Z</time>
      </trkpt>
      <trkpt lat="58.931458" lon="17.161129">
        <ele>82.8</ele>
        <time>2017-09-03T11:10:02Z</time>
      </trkpt>
      <trkpt lat="58.931524" lon="17.161282">
        <ele>82.8</ele>
        <time>2017-09-03T11:10:03Z</time>
      </trkpt>
      <trkpt lat="58.931596" lon="17.161425">
        <ele>82.2</ele>
        <time>2017-09-03T11:10:04Z</time>
      </trkpt>
      <trkpt lat="58.931676" lon="17.161561">
        <ele>82</ele>
        <time>2017-09-03T11:10:05Z</time>
      </trkpt>
      <trkpt lat="58.93176" lon="17.161685">
        <ele>81.8</ele>
        <time>2017-09-03T11:10:06Z</time>
      </trkpt>
      <trkpt lat="58.931847" lon="17.161805">
        <ele>81.4</ele>
        <time>2017-09-03T11:10:07Z</time>
      </trkpt>
      <trkpt lat="58.931936" lon="17.161923">
        <ele>81.2</ele>
        <time>2017-09-03T11:10:08Z</time>
      </trkpt>
      <trkpt lat="58.932029" lon="17.162039">
        <ele>81</ele>
        <time>2017-09-03T11:10:09Z</time>
      </trkpt>
      <trkpt lat="58.932121" lon="17.162159">
        <ele>81</ele>
        <time>2017-09-03T11:10:10Z</time>
      </trkpt>
      <trkpt lat="58.932214" lon="17.16229">
        <ele>81</ele>
        <time>2017-09-03T11:10:11Z</time>
      </trkpt>
      <trkpt lat="58.9323" lon="17.162432">
        <ele>80.8</ele>
        <time>2017-09-03T11:10:12Z</time>
      </trkpt>
      <trkpt lat="58.932381" lon="17.162574">
        <ele>80.8</ele>
        <time>2017-09-03T11:10:13Z</time>
      </trkpt>
      <trkpt lat="58.93246" lon="17.162713">
        <ele>80.8</ele>
        <time>2017-09-03T11:10:14Z</time>
      </trkpt>
      <trkpt lat="58.932538" lon="17.162847">
        <ele>80.8</ele>
        <time>2017-09-03T11:10:15Z</time>
      </trkpt>
      <trkpt lat="58.93262" lon="17.162971">
        <ele>80.8</ele>
        <time>2017-09-03T11:10:16Z</time>
      </trkpt>
      <trkpt lat="58.932702" lon="17.163093">
        <ele>80.8</ele>
        <time>2017-09-03T11:10:17Z</time>
      </trkpt>
      <trkpt lat="58.932784" lon="17.163216">
        <ele>80.8</ele>
        <time>2017-09-03T11:10:18Z</time>
      </trkpt>
      <trkpt lat="58.932866" lon="17.163335">
        <ele>80.8</ele>
        <time>2017-09-03T11:10:19Z</time>
      </trkpt>
      <trkpt lat="58.932948" lon="17.16345">
        <ele>80.8</ele>
        <time>2017-09-03T11:10:20Z</time>
      </trkpt>
      <trkpt lat="58.933037" lon="17.163552">
        <ele>80.8</ele>
        <time>2017-09-03T11:10:21Z</time>
      </trkpt>
      <trkpt lat="58.933125" lon="17.163651">
        <ele>80.8</ele>
        <time>2017-09-03T11:10:22Z</time>
      </trkpt>
      <trkpt lat="58.933214" lon="17.163751">
        <ele>80.8</ele>
        <time>2017-09-03T11:10:23Z</time>
      </trkpt>
      <trkpt lat="58.933304" lon="17.163843">
        <ele>80.8</ele>
        <time>2017-09-03T11:10:24Z</time>
      </trkpt>
      <trkpt lat="58.933398" lon="17.163931">
        <ele>80.8</ele>
        <time>2017-09-03T11:10:25Z</time>
      </trkpt>
      <trkpt lat="58.933492" lon="17.164017">
        <ele>80.8</ele>
        <time>2017-09-03T11:10:26Z</time>
      </trkpt>
      <trkpt lat="58.933586" lon="17.164095">
        <ele>80.8</ele>
        <time>2017-09-03T11:10:27Z</time>
      </trkpt>
      <trkpt lat="58.933679" lon="17.164167">
        <ele>80.8</ele>
        <time>2017-09-03T11:10:28Z</time>
      </trkpt>
      <trkpt lat="58.933769" lon="17.164236">
        <ele>80.8</ele>
        <time>2017-09-03T11:10:29Z</time>
      </trkpt>
      <trkpt lat="58.933856" lon="17.164293">
        <ele>80.8</ele>
        <time>2017-09-03T11:10:30Z</time>
      </trkpt>
      <trkpt lat="58.933944" lon="17.164342">
        <ele>80.8</ele>
        <time>2017-09-03T11:10:31Z</time>
      </trkpt>
      <trkpt lat="58.93404" lon="17.164385">
        <ele>80.8</ele>
        <time>2017-09-03T11:10:32Z</time>
      </trkpt>
      <trkpt lat="58.934136" lon="17.164429">
        <ele>80.8</ele>
        <time>2017-09-03T11:10:33Z</time>
      </trkpt>
      <trkpt lat="58.934235" lon="17.164474">
        <ele>80.8</ele>
        <time>2017-09-03T11:10:34Z</time>
      </trkpt>
      <trkpt lat="58.934338" lon="17.164507">
        <ele>80.8</ele>
        <time>2017-09-03T11:10:35Z</time>
      </trkpt>
      <trkpt lat="58.934448" lon="17.164532">
        <ele>80.8</ele>
        <time>2017-09-03T11:10:36Z</time>
      </trkpt>
      <trkpt lat="58.934554" lon="17.164559">
        <ele>80.8</ele>
        <time>2017-09-03T11:10:37Z</time>
      </trkpt>
      <trkpt lat="58.934662" lon="17.164586">
        <ele>80.8</ele>
        <time>2017-09-03T11:10:38Z</time>
      </trkpt>
      <trkpt lat="58.934771" lon="17.164617">
        <ele>81</ele>
        <time>2017-09-03T11:10:39Z</time>
      </trkpt>
      <trkpt lat="58.934879" lon="17.164644">
        <ele>81</ele>
        <time>2017-09-03T11:10:40Z</time>
      </trkpt>
      <trkpt lat="58.934989" lon="17.164666">
        <ele>81</ele>
        <time>2017-09-03T11:10:41Z</time>
      </trkpt>
      <trkpt lat="58.935099" lon="17.164686">
        <ele>81.2</ele>
        <time>2017-09-03T11:10:42Z</time>
      </trkpt>
      <trkpt lat="58.935207" lon="17.164704">
        <ele>81.2</ele>
        <time>2017-09-03T11:10:43Z</time>
      </trkpt>
      <trkpt lat="58.935311" lon="17.164724">
        <ele>81.2</ele>
        <time>2017-09-03T11:10:44Z</time>
      </trkpt>
      <trkpt lat="58.935414" lon="17.164743">
        <ele>81.2</ele>
        <time>2017-09-03T11:10:45Z</time>
      </trkpt>
      <trkpt lat="58.935518" lon="17.164762">
        <ele>81.2</ele>
        <time>2017-09-03T11:10:46Z</time>
      </trkpt>
      <trkpt lat="58.935622" lon="17.164781">
        <ele>81.4</ele>
        <time>2017-09-03T11:10:47Z</time>
      </trkpt>
      <trkpt lat="58.935726" lon="17.164797">
        <ele>81.4</ele>
        <time>2017-09-03T11:10:48Z</time>
      </trkpt>
      <trkpt lat="58.935829" lon="17.164812">
        <ele>81.4</ele>
        <time>2017-09-03T11:10:49Z</time>
      </trkpt>
      <trkpt lat="58.935932" lon="17.164826">
        <ele>81.4</ele>
        <time>2017-09-03T11:10:50Z</time>
      </trkpt>
      <trkpt lat="58.936034" lon="17.164843">
        <ele>81.4</ele>
        <time>2017-09-03T11:10:51Z</time>
      </trkpt>
      <trkpt lat="58.936137" lon="17.164866">
        <ele>81.4</ele>
        <time>2017-09-03T11:10:52Z</time>
      </trkpt>
      <trkpt lat="58.936243" lon="17.164898">
        <ele>81.4</ele>
        <time>2017-09-03T11:10:53Z</time>
      </trkpt>
      <trkpt lat="58.936353" lon="17.164941">
        <ele>81.4</ele>
        <time>2017-09-03T11:10:54Z</time>
      </trkpt>
      <trkpt lat="58.936462" lon="17.164993">
        <ele>81.4</ele>
        <time>2017-09-03T11:10:55Z</time>
      </trkpt>
      <trkpt lat="58.93657" lon="17.165056">
        <ele>81.4</ele>
        <time>2017-09-03T11:10:56Z</time>
      </trkpt>
      <trkpt lat="58.936677" lon="17.165127">
        <ele>81.2</ele>
        <time>2017-09-03T11:10:57Z</time>
      </trkpt>
      <trkpt lat="58.936787" lon="17.165199">
        <ele>81.2</ele>
        <time>2017-09-03T11:10:58Z</time>
      </trkpt>
      <trkpt lat="58.936899" lon="17.165268">
        <ele>81.2</ele>
        <time>2017-09-03T11:10:59Z</time>
      </trkpt>
      <trkpt lat="58.937015" lon="17.165331">
        <ele>81.2</ele>
        <time>2017-09-03T11:11:00Z</time>
      </trkpt>
      <trkpt lat="58.937131" lon="17.165381">
        <ele>81.2</ele>
        <time>2017-09-03T11:11:01Z</time>
      </trkpt>
      <trkpt lat="58.937251" lon="17.165414">
        <ele>81</ele>
        <time>2017-09-03T11:11:02Z</time>
      </trkpt>
      <trkpt lat="58.937379" lon="17.165428">
        <ele>80.8</ele>
        <time>2017-09-03T11:11:03Z</time>
      </trkpt>
      <trkpt lat="58.937511" lon="17.165418">
        <ele>80.4</ele>
        <time>2017-09-03T11:11:04Z</time>
      </trkpt>
      <trkpt lat="58.937647" lon="17.165383">
        <ele>79.6</ele>
        <time>2017-09-03T11:11:05Z</time>
      </trkpt>
      <trkpt lat="58.937781" lon="17.165329">
        <ele>79</ele>
        <time>2017-09-03T11:11:06Z</time>
      </trkpt>
      <trkpt lat="58.93791" lon="17.165265">
        <ele>78.8</ele>
        <time>2017-09-03T11:11:07Z</time>
      </trkpt>
      <trkpt lat="58.938034" lon="17.165197">
        <ele>78.6</ele>
        <time>2017-09-03T11:11:08Z</time>
      </trkpt>
      <trkpt lat="58.938157" lon="17.165131">
        <ele>78.2</ele>
        <time>2017-09-03T11:11:09Z</time>
      </trkpt>
      <trkpt lat="58.93828" lon="17.165067">
        <ele>78</ele>
        <time>2017-09-03T11:11:10Z</time>
      </trkpt>
      <trkpt lat="58.938403" lon="17.165003">
        <ele>77.4</ele>
        <time>2017-09-03T11:11:11Z</time>
      </trkpt>
      <trkpt lat="58.938527" lon="17.164943">
        <ele>76.2</ele>
        <time>2017-09-03T11:11:12Z</time>
      </trkpt>
      <trkpt lat="58.938653" lon="17.164884">
        <ele>75.2</ele>
        <time>2017-09-03T11:11:13Z</time>
      </trkpt>
      <trkpt lat="58.938782" lon="17.164806">
        <ele>74.2</ele>
        <time>2017-09-03T11:11:14Z</time>
      </trkpt>
      <trkpt lat="58.938918" lon="17.164715">
        <ele>73.4</ele>
        <time>2017-09-03T11:11:15Z</time>
      </trkpt>
      <trkpt lat="58.939056" lon="17.164638">
        <ele>72.6</ele>
        <time>2017-09-03T11:11:16Z</time>
      </trkpt>
      <trkpt lat="58.939194" lon="17.164568">
        <ele>72.4</ele>
        <time>2017-09-03T11:11:17Z</time>
      </trkpt>
      <trkpt lat="58.93933" lon="17.164494">
        <ele>72.2</ele>
        <time>2017-09-03T11:11:18Z</time>
      </trkpt>
      <trkpt lat="58.939468" lon="17.164417">
        <ele>71</ele>
        <time>2017-09-03T11:11:19Z</time>
      </trkpt>
      <trkpt lat="58.939602" lon="17.16434">
        <ele>69.2</ele>
        <time>2017-09-03T11:11:20Z</time>
      </trkpt>
      <trkpt lat="58.939732" lon="17.164263">
        <ele>68.4</ele>
        <time>2017-09-03T11:11:21Z</time>
      </trkpt>
      <trkpt lat="58.939858" lon="17.164188">
        <ele>67.8</ele>
        <time>2017-09-03T11:11:22Z</time>
      </trkpt>
      <trkpt lat="58.939981" lon="17.164114">
        <ele>66.6</ele>
        <time>2017-09-03T11:11:23Z</time>
      </trkpt>
      <trkpt lat="58.940094" lon="17.164043">
        <ele>65.6</ele>
        <time>2017-09-03T11:11:24Z</time>
      </trkpt>
      <trkpt lat="58.940207" lon="17.163978">
        <ele>65</ele>
        <time>2017-09-03T11:11:25Z</time>
      </trkpt>
      <trkpt lat="58.940329" lon="17.163922">
        <ele>64.4</ele>
        <time>2017-09-03T11:11:26Z</time>
      </trkpt>
      <trkpt lat="58.940455" lon="17.163876">
        <ele>64.2</ele>
        <time>2017-09-03T11:11:27Z</time>
      </trkpt>
      <trkpt lat="58.940579" lon="17.163839">
        <ele>64</ele>
        <time>2017-09-03T11:11:28Z</time>
      </trkpt>
      <trkpt lat="58.940701" lon="17.163809">
        <ele>64.2</ele>
        <time>2017-09-03T11:11:29Z</time>
      </trkpt>
      <trkpt lat="58.940815" lon="17.163776">
        <ele>64</ele>
        <time>2017-09-03T11:11:30Z</time>
      </trkpt>
      <trkpt lat="58.940923" lon="17.163759">
        <ele>64</ele>
        <time>2017-09-03T11:11:31Z</time>
      </trkpt>
      <trkpt lat="58.941032" lon="17.163734">
        <ele>63.8</ele>
        <time>2017-09-03T11:11:32Z</time>
      </trkpt>
      <trkpt lat="58.941135" lon="17.163683">
        <ele>63.8</ele>
        <time>2017-09-03T11:11:33Z</time>
      </trkpt>
      <trkpt lat="58.941238" lon="17.16361">
        <ele>63.8</ele>
        <time>2017-09-03T11:11:34Z</time>
      </trkpt>
      <trkpt lat="58.941343" lon="17.163529">
        <ele>63.4</ele>
        <time>2017-09-03T11:11:35Z</time>
      </trkpt>
      <trkpt lat="58.941449" lon="17.163448">
        <ele>63.4</ele>
        <time>2017-09-03T11:11:36Z</time>
      </trkpt>
      <trkpt lat="58.941554" lon="17.163374">
        <ele>63.4</ele>
        <time>2017-09-03T11:11:37Z</time>
      </trkpt>
      <trkpt lat="58.941663" lon="17.163331">
        <ele>63.4</ele>
        <time>2017-09-03T11:11:38Z</time>
      </trkpt>
      <trkpt lat="58.941781" lon="17.16334">
        <ele>63.2</ele>
        <time>2017-09-03T11:11:39Z</time>
      </trkpt>
      <trkpt lat="58.941901" lon="17.163383">
        <ele>63.2</ele>
        <time>2017-09-03T11:11:40Z</time>
      </trkpt>
      <trkpt lat="58.942016" lon="17.163464">
        <ele>63.2</ele>
        <time>2017-09-03T11:11:41Z</time>
      </trkpt>
      <trkpt lat="58.942127" lon="17.163567">
        <ele>62.8</ele>
        <time>2017-09-03T11:11:42Z</time>
      </trkpt>
      <trkpt lat="58.942236" lon="17.163685">
        <ele>62.8</ele>
        <time>2017-09-03T11:11:43Z</time>
      </trkpt>
      <trkpt lat="58.94234" lon="17.163812">
        <ele>62.8</ele>
        <time>2017-09-03T11:11:44Z</time>
      </trkpt>
      <trkpt lat="58.942448" lon="17.163934">
        <ele>61.8</ele>
        <time>2017-09-03T11:11:45Z</time>
      </trkpt>
      <trkpt lat="58.942555" lon="17.164053">
        <ele>61.2</ele>
        <time>2017-09-03T11:11:46Z</time>
      </trkpt>
      <trkpt lat="58.942663" lon="17.16417">
        <ele>60.6</ele>
        <time>2017-09-03T11:11:47Z</time>
      </trkpt>
      <trkpt lat="58.942769" lon="17.164285">
        <ele>59.8</ele>
        <time>2017-09-03T11:11:48Z</time>
      </trkpt>
      <trkpt lat="58.94287" lon="17.164397">
        <ele>59</ele>
        <time>2017-09-03T11:11:49Z</time>
      </trkpt>
      <trkpt lat="58.94297" lon="17.164503">
        <ele>58.4</ele>
        <time>2017-09-03T11:11:50Z</time>
      </trkpt>
      <trkpt lat="58.943071" lon="17.164609">
        <ele>58</ele>
        <time>2017-09-03T11:11:51Z</time>
      </trkpt>
      <trkpt lat="58.943176" lon="17.164717">
        <ele>57.6</ele>
        <time>2017-09-03T11:11:52Z</time>
      </trkpt>
      <trkpt lat="58.943281" lon="17.164827">
        <ele>57.4</ele>
        <time>2017-09-03T11:11:53Z</time>
      </trkpt>
      <trkpt lat="58.943383" lon="17.164935">
        <ele>57.2</ele>
        <time>2017-09-03T11:11:54Z</time>
      </trkpt>
      <trkpt lat="58.943484" lon="17.165047">
        <ele>56.8</ele>
        <time>2017-09-03T11:11:55Z</time>
      </trkpt>
      <trkpt lat="58.943585" lon="17.165169">
        <ele>56.8</ele>
        <time>2017-09-03T11:11:56Z</time>
      </trkpt>
      <trkpt lat="58.943678" lon="17.165317">
        <ele>56.4</ele>
        <time>2017-09-03T11:11:57Z</time>
      </trkpt>
      <trkpt lat="58.943772" lon="17.165493">
        <ele>56.4</ele>
        <time>2017-09-03T11:11:58Z</time>
      </trkpt>
      <trkpt lat="58.943865" lon="17.16569">
        <ele>56.2</ele>
        <time>2017-09-03T11:11:59Z</time>
      </trkpt>
      <trkpt lat="58.943955" lon="17.16591">
        <ele>56</ele>
        <time>2017-09-03T11:12:00Z</time>
      </trkpt>
      <trkpt lat="58.944041" lon="17.166142">
        <ele>55.8</ele>
        <time>2017-09-03T11:12:01Z</time>
      </trkpt>
      <trkpt lat="58.94412" lon="17.166378">
        <ele>55.4</ele>
        <time>2017-09-03T11:12:02Z</time>
      </trkpt>
      <trkpt lat="58.944201" lon="17.166611">
        <ele>54.8</ele>
        <time>2017-09-03T11:12:03Z</time>
      </trkpt>
      <trkpt lat="58.944281" lon="17.166837">
        <ele>54.6</ele>
        <time>2017-09-03T11:12:04Z</time>
      </trkpt>
      <trkpt lat="58.944363" lon="17.167051">
        <ele>54.4</ele>
        <time>2017-09-03T11:12:05Z</time>
      </trkpt>
      <trkpt lat="58.944449" lon="17.167255">
        <ele>53.6</ele>
        <time>2017-09-03T11:12:06Z</time>
      </trkpt>
      <trkpt lat="58.944542" lon="17.167433">
        <ele>53</ele>
        <time>2017-09-03T11:12:07Z</time>
      </trkpt>
      <trkpt lat="58.94464" lon="17.167583">
        <ele>51.8</ele>
        <time>2017-09-03T11:12:08Z</time>
      </trkpt>
      <trkpt lat="58.94474" lon="17.167718">
        <ele>50.2</ele>
        <time>2017-09-03T11:12:09Z</time>
      </trkpt>
      <trkpt lat="58.944843" lon="17.167828">
        <ele>49</ele>
        <time>2017-09-03T11:12:10Z</time>
      </trkpt>
      <trkpt lat="58.944949" lon="17.16791">
        <ele>48.6</ele>
        <time>2017-09-03T11:12:11Z</time>
      </trkpt>
      <trkpt lat="58.945053" lon="17.167979">
        <ele>48.2</ele>
        <time>2017-09-03T11:12:12Z</time>
      </trkpt>
      <trkpt lat="58.945153" lon="17.168039">
        <ele>48.2</ele>
        <time>2017-09-03T11:12:13Z</time>
      </trkpt>
      <trkpt lat="58.945249" lon="17.168091">
        <ele>48</ele>
        <time>2017-09-03T11:12:14Z</time>
      </trkpt>
      <trkpt lat="58.945337" lon="17.168128">
        <ele>48</ele>
        <time>2017-09-03T11:12:15Z</time>
      </trkpt>
      <trkpt lat="58.945424" lon="17.168169">
        <ele>48</ele>
        <time>2017-09-03T11:12:16Z</time>
      </trkpt>
      <trkpt lat="58.94551" lon="17.168206">
        <ele>48</ele>
        <time>2017-09-03T11:12:17Z</time>
      </trkpt>
      <trkpt lat="58.945599" lon="17.168241">
        <ele>48</ele>
        <time>2017-09-03T11:12:18Z</time>
      </trkpt>
      <trkpt lat="58.945692" lon="17.168284">
        <ele>48</ele>
        <time>2017-09-03T11:12:19Z</time>
      </trkpt>
      <trkpt lat="58.945786" lon="17.168333">
        <ele>48.4</ele>
        <time>2017-09-03T11:12:20Z</time>
      </trkpt>
      <trkpt lat="58.945884" lon="17.168373">
        <ele>49.6</ele>
        <time>2017-09-03T11:12:21Z</time>
      </trkpt>
      <trkpt lat="58.945995" lon="17.168406">
        <ele>50.4</ele>
        <time>2017-09-03T11:12:22Z</time>
      </trkpt>
      <trkpt lat="58.946114" lon="17.168447">
        <ele>51</ele>
        <time>2017-09-03T11:12:23Z</time>
      </trkpt>
      <trkpt lat="58.946237" lon="17.168482">
        <ele>51.2</ele>
        <time>2017-09-03T11:12:24Z</time>
      </trkpt>
      <trkpt lat="58.946364" lon="17.168499">
        <ele>51.4</ele>
        <time>2017-09-03T11:12:25Z</time>
      </trkpt>
      <trkpt lat="58.946496" lon="17.168497">
        <ele>51.4</ele>
        <time>2017-09-03T11:12:26Z</time>
      </trkpt>
      <trkpt lat="58.946621" lon="17.168476">
        <ele>51.4</ele>
        <time>2017-09-03T11:12:27Z</time>
      </trkpt>
      <trkpt lat="58.94674" lon="17.168427">
        <ele>51.4</ele>
        <time>2017-09-03T11:12:28Z</time>
      </trkpt>
      <trkpt lat="58.946858" lon="17.168358">
        <ele>51.4</ele>
        <time>2017-09-03T11:12:29Z</time>
      </trkpt>
      <trkpt lat="58.94697" lon="17.168275">
        <ele>51.4</ele>
        <time>2017-09-03T11:12:30Z</time>
      </trkpt>
      <trkpt lat="58.947078" lon="17.168188">
        <ele>51.8</ele>
        <time>2017-09-03T11:12:31Z</time>
      </trkpt>
      <trkpt lat="58.947181" lon="17.168107">
        <ele>51.8</ele>
        <time>2017-09-03T11:12:32Z</time>
      </trkpt>
      <trkpt lat="58.947279" lon="17.168024">
        <ele>51.8</ele>
        <time>2017-09-03T11:12:33Z</time>
      </trkpt>
      <trkpt lat="58.947369" lon="17.167943">
        <ele>51.8</ele>
        <time>2017-09-03T11:12:34Z</time>
      </trkpt>
      <trkpt lat="58.947452" lon="17.167858">
        <ele>51.8</ele>
        <time>2017-09-03T11:12:35Z</time>
      </trkpt>
      <trkpt lat="58.947535" lon="17.167779">
        <ele>51.8</ele>
        <time>2017-09-03T11:12:36Z</time>
      </trkpt>
      <trkpt lat="58.947616" lon="17.16771">
        <ele>51.8</ele>
        <time>2017-09-03T11:12:37Z</time>
      </trkpt>
      <trkpt lat="58.947698" lon="17.167648">
        <ele>51.8</ele>
        <time>2017-09-03T11:12:38Z</time>
      </trkpt>
      <trkpt lat="58.947779" lon="17.167584">
        <ele>51.8</ele>
        <time>2017-09-03T11:12:39Z</time>
      </trkpt>
      <trkpt lat="58.947863" lon="17.167512">
        <ele>51.8</ele>
        <time>2017-09-03T11:12:40Z</time>
      </trkpt>
      <trkpt lat="58.947948" lon="17.167437">
        <ele>52.2</ele>
        <time>2017-09-03T11:12:41Z</time>
      </trkpt>
      <trkpt lat="58.948029" lon="17.16736">
        <ele>52.8</ele>
        <time>2017-09-03T11:12:42Z</time>
      </trkpt>
      <trkpt lat="58.948116" lon="17.167277">
        <ele>53.4</ele>
        <time>2017-09-03T11:12:43Z</time>
      </trkpt>
      <trkpt lat="58.948198" lon="17.167192">
        <ele>55.4</ele>
        <time>2017-09-03T11:12:44Z</time>
      </trkpt>
      <trkpt lat="58.948277" lon="17.16711">
        <ele>56</ele>
        <time>2017-09-03T11:12:45Z</time>
      </trkpt>
      <trkpt lat="58.948352" lon="17.167041">
        <ele>56.2</ele>
        <time>2017-09-03T11:12:46Z</time>
      </trkpt>
      <trkpt lat="58.948427" lon="17.166972">
        <ele>56.4</ele>
        <time>2017-09-03T11:12:47Z</time>
      </trkpt>
      <trkpt lat="58.948499" lon="17.166913">
        <ele>56.6</ele>
        <time>2017-09-03T11:12:48Z</time>
      </trkpt>
      <trkpt lat="58.948569" lon="17.166857">
        <ele>57</ele>
        <time>2017-09-03T11:12:49Z</time>
      </trkpt>
      <trkpt lat="58.948642" lon="17.166804">
        <ele>57.2</ele>
        <time>2017-09-03T11:12:50Z</time>
      </trkpt>
      <trkpt lat="58.948715" lon="17.166744">
        <ele>57.4</ele>
        <time>2017-09-03T11:12:51Z</time>
      </trkpt>
      <trkpt lat="58.948789" lon="17.166679">
        <ele>57.6</ele>
        <time>2017-09-03T11:12:52Z</time>
      </trkpt>
      <trkpt lat="58.948862" lon="17.166612">
        <ele>57.6</ele>
        <time>2017-09-03T11:12:53Z</time>
      </trkpt>
      <trkpt lat="58.948939" lon="17.166542">
        <ele>57.6</ele>
        <time>2017-09-03T11:12:54Z</time>
      </trkpt>
      <trkpt lat="58.94902" lon="17.166467">
        <ele>57.6</ele>
        <time>2017-09-03T11:12:55Z</time>
      </trkpt>
      <trkpt lat="58.9491" lon="17.166392">
        <ele>57.6</ele>
        <time>2017-09-03T11:12:56Z</time>
      </trkpt>
      <trkpt lat="58.949178" lon="17.166318">
        <ele>57.6</ele>
        <time>2017-09-03T11:12:57Z</time>
      </trkpt>
      <trkpt lat="58.949256" lon="17.16625">
        <ele>57.6</ele>
        <time>2017-09-03T11:12:58Z</time>
      </trkpt>
      <trkpt lat="58.949334" lon="17.166173">
        <ele>57.6</ele>
        <time>2017-09-03T11:12:59Z</time>
      </trkpt>
      <trkpt lat="58.949412" lon="17.166093">
        <ele>57.6</ele>
        <time>2017-09-03T11:13:00Z</time>
      </trkpt>
      <trkpt lat="58.949492" lon="17.166007">
        <ele>57.8</ele>
        <time>2017-09-03T11:13:01Z</time>
      </trkpt>
      <trkpt lat="58.949574" lon="17.16592">
        <ele>58.2</ele>
        <time>2017-09-03T11:13:02Z</time>
      </trkpt>
      <trkpt lat="58.949659" lon="17.165832">
        <ele>58.4</ele>
        <time>2017-09-03T11:13:03Z</time>
      </trkpt>
      <trkpt lat="58.949745" lon="17.16575">
        <ele>58.4</ele>
        <time>2017-09-03T11:13:04Z</time>
      </trkpt>
      <trkpt lat="58.949829" lon="17.16567">
        <ele>58.4</ele>
        <time>2017-09-03T11:13:05Z</time>
      </trkpt>
      <trkpt lat="58.949914" lon="17.165592">
        <ele>58.4</ele>
        <time>2017-09-03T11:13:06Z</time>
      </trkpt>
      <trkpt lat="58.949997" lon="17.165518">
        <ele>58.6</ele>
        <time>2017-09-03T11:13:07Z</time>
      </trkpt>
      <trkpt lat="58.950076" lon="17.165444">
        <ele>58.6</ele>
        <time>2017-09-03T11:13:08Z</time>
      </trkpt>
      <trkpt lat="58.950158" lon="17.165369">
        <ele>58.6</ele>
        <time>2017-09-03T11:13:09Z</time>
      </trkpt>
      <trkpt lat="58.950239" lon="17.1653">
        <ele>58.6</ele>
        <time>2017-09-03T11:13:10Z</time>
      </trkpt>
      <trkpt lat="58.950319" lon="17.165234">
        <ele>58.6</ele>
        <time>2017-09-03T11:13:11Z</time>
      </trkpt>
      <trkpt lat="58.950397" lon="17.165172">
        <ele>58.8</ele>
        <time>2017-09-03T11:13:12Z</time>
      </trkpt>
      <trkpt lat="58.950474" lon="17.165107">
        <ele>58.8</ele>
        <time>2017-09-03T11:13:13Z</time>
      </trkpt>
      <trkpt lat="58.950554" lon="17.165047">
        <ele>58.8</ele>
        <time>2017-09-03T11:13:14Z</time>
      </trkpt>
      <trkpt lat="58.950637" lon="17.164997">
        <ele>58.8</ele>
        <time>2017-09-03T11:13:15Z</time>
      </trkpt>
      <trkpt lat="58.95072" lon="17.16494">
        <ele>58.8</ele>
        <time>2017-09-03T11:13:16Z</time>
      </trkpt>
      <trkpt lat="58.950805" lon="17.16488">
        <ele>58.8</ele>
        <time>2017-09-03T11:13:17Z</time>
      </trkpt>
      <trkpt lat="58.950891" lon="17.16482">
        <ele>58.8</ele>
        <time>2017-09-03T11:13:18Z</time>
      </trkpt>
      <trkpt lat="58.950979" lon="17.164752">
        <ele>58.8</ele>
        <time>2017-09-03T11:13:19Z</time>
      </trkpt>
      <trkpt lat="58.95107" lon="17.16469">
        <ele>58.8</ele>
        <time>2017-09-03T11:13:20Z</time>
      </trkpt>
      <trkpt lat="58.951162" lon="17.164639">
        <ele>58.8</ele>
        <time>2017-09-03T11:13:21Z</time>
      </trkpt>
      <trkpt lat="58.951258" lon="17.164603">
        <ele>58.8</ele>
        <time>2017-09-03T11:13:22Z</time>
      </trkpt>
      <trkpt lat="58.951354" lon="17.164598">
        <ele>58.6</ele>
        <time>2017-09-03T11:13:23Z</time>
      </trkpt>
      <trkpt lat="58.951451" lon="17.164619">
        <ele>58.4</ele>
        <time>2017-09-03T11:13:24Z</time>
      </trkpt>
      <trkpt lat="58.95155" lon="17.164654">
        <ele>58</ele>
        <time>2017-09-03T11:13:25Z</time>
      </trkpt>
      <trkpt lat="58.951654" lon="17.164681">
        <ele>57.8</ele>
        <time>2017-09-03T11:13:26Z</time>
      </trkpt>
      <trkpt lat="58.951756" lon="17.164688">
        <ele>57</ele>
        <time>2017-09-03T11:13:27Z</time>
      </trkpt>
      <trkpt lat="58.951847" lon="17.164657">
        <ele>56.2</ele>
        <time>2017-09-03T11:13:28Z</time>
      </trkpt>
      <trkpt lat="58.951935" lon="17.164575">
        <ele>55.6</ele>
        <time>2017-09-03T11:13:29Z</time>
      </trkpt>
      <trkpt lat="58.952012" lon="17.164448">
        <ele>55.2</ele>
        <time>2017-09-03T11:13:30Z</time>
      </trkpt>
      <trkpt lat="58.952078" lon="17.164284">
        <ele>55</ele>
        <time>2017-09-03T11:13:31Z</time>
      </trkpt>
      <trkpt lat="58.952147" lon="17.164114">
        <ele>54.4</ele>
        <time>2017-09-03T11:13:32Z</time>
      </trkpt>
      <trkpt lat="58.95222" lon="17.163947">
        <ele>53.6</ele>
        <time>2017-09-03T11:13:33Z</time>
      </trkpt>
      <trkpt lat="58.952306" lon="17.163791">
        <ele>53.2</ele>
        <time>2017-09-03T11:13:34Z</time>
      </trkpt>
      <trkpt lat="58.952391" lon="17.163631">
        <ele>52.6</ele>
        <time>2017-09-03T11:13:35Z</time>
      </trkpt>
      <trkpt lat="58.952471" lon="17.16347">
        <ele>52</ele>
        <time>2017-09-03T11:13:36Z</time>
      </trkpt>
      <trkpt lat="58.95254" lon="17.163308">
        <ele>51.6</ele>
        <time>2017-09-03T11:13:37Z</time>
      </trkpt>
      <trkpt lat="58.952582" lon="17.16314">
        <ele>51.2</ele>
        <time>2017-09-03T11:13:38Z</time>
      </trkpt>
      <trkpt lat="58.952595" lon="17.162963">
        <ele>51</ele>
        <time>2017-09-03T11:13:39Z</time>
      </trkpt>
      <trkpt lat="58.952564" lon="17.16278">
        <ele>50</ele>
        <time>2017-09-03T11:13:40Z</time>
      </trkpt>
      <trkpt lat="58.952505" lon="17.162604">
        <ele>48.2</ele>
        <time>2017-09-03T11:13:41Z</time>
      </trkpt>
      <trkpt lat="58.952429" lon="17.162435">
        <ele>47.2</ele>
        <time>2017-09-03T11:13:42Z</time>
      </trkpt>
      <trkpt lat="58.952343" lon="17.162247">
        <ele>46.4</ele>
        <time>2017-09-03T11:13:43Z</time>
      </trkpt>
      <trkpt lat="58.952254" lon="17.162054">
        <ele>46</ele>
        <time>2017-09-03T11:13:44Z</time>
      </trkpt>
      <trkpt lat="58.952166" lon="17.161851">
        <ele>45.6</ele>
        <time>2017-09-03T11:13:45Z</time>
      </trkpt>
      <trkpt lat="58.952082" lon="17.161649">
        <ele>45.4</ele>
        <time>2017-09-03T11:13:46Z</time>
      </trkpt>
      <trkpt lat="58.951997" lon="17.16145">
        <ele>45.4</ele>
        <time>2017-09-03T11:13:47Z</time>
      </trkpt>
      <trkpt lat="58.951914" lon="17.161256">
        <ele>45.2</ele>
        <time>2017-09-03T11:13:48Z</time>
      </trkpt>
      <trkpt lat="58.951831" lon="17.161063">
        <ele>44.8</ele>
        <time>2017-09-03T11:13:49Z</time>
      </trkpt>
      <trkpt lat="58.951749" lon="17.16087">
        <ele>44.6</ele>
        <time>2017-09-03T11:13:50Z</time>
      </trkpt>
      <trkpt lat="58.951671" lon="17.160683">
        <ele>44.4</ele>
        <time>2017-09-03T11:13:51Z</time>
      </trkpt>
      <trkpt lat="58.951594" lon="17.160501">
        <ele>44.2</ele>
        <time>2017-09-03T11:13:52Z</time>
      </trkpt>
      <trkpt lat="58.951519" lon="17.160324">
        <ele>43.8</ele>
        <time>2017-09-03T11:13:53Z</time>
      </trkpt>
      <trkpt lat="58.951448" lon="17.160152">
        <ele>43.6</ele>
        <time>2017-09-03T11:13:54Z</time>
      </trkpt>
      <trkpt lat="58.95138" lon="17.159985">
        <ele>43.6</ele>
        <time>2017-09-03T11:13:55Z</time>
      </trkpt>
      <trkpt lat="58.951318" lon="17.159819">
        <ele>43.4</ele>
        <time>2017-09-03T11:13:56Z</time>
      </trkpt>
      <trkpt lat="58.951268" lon="17.159651">
        <ele>43.2</ele>
        <time>2017-09-03T11:13:57Z</time>
      </trkpt>
      <trkpt lat="58.951229" lon="17.159475">
        <ele>43.2</ele>
        <time>2017-09-03T11:13:58Z</time>
      </trkpt>
      <trkpt lat="58.951205" lon="17.159293">
        <ele>43.2</ele>
        <time>2017-09-03T11:13:59Z</time>
      </trkpt>
      <trkpt lat="58.951199" lon="17.159112">
        <ele>43.2</ele>
        <time>2017-09-03T11:14:00Z</time>
      </trkpt>
      <trkpt lat="58.951207" lon="17.158935">
        <ele>43.2</ele>
        <time>2017-09-03T11:14:01Z</time>
      </trkpt>
      <trkpt lat="58.951224" lon="17.158757">
        <ele>43.2</ele>
        <time>2017-09-03T11:14:02Z</time>
      </trkpt>
      <trkpt lat="58.951252" lon="17.158581">
        <ele>43.2</ele>
        <time>2017-09-03T11:14:03Z</time>
      </trkpt>
      <trkpt lat="58.951295" lon="17.158412">
        <ele>43.2</ele>
        <time>2017-09-03T11:14:04Z</time>
      </trkpt>
      <trkpt lat="58.951351" lon="17.158252">
        <ele>43.4</ele>
        <time>2017-09-03T11:14:05Z</time>
      </trkpt>
      <trkpt lat="58.95142" lon="17.158107">
        <ele>43.6</ele>
        <time>2017-09-03T11:14:06Z</time>
      </trkpt>
      <trkpt lat="58.9515" lon="17.15797">
        <ele>44.4</ele>
        <time>2017-09-03T11:14:07Z</time>
      </trkpt>
      <trkpt lat="58.951582" lon="17.157834">
        <ele>44.8</ele>
        <time>2017-09-03T11:14:08Z</time>
      </trkpt>
      <trkpt lat="58.951668" lon="17.157696">
        <ele>45</ele>
        <time>2017-09-03T11:14:09Z</time>
      </trkpt>
      <trkpt lat="58.951756" lon="17.157555">
        <ele>45.2</ele>
        <time>2017-09-03T11:14:10Z</time>
      </trkpt>
      <trkpt lat="58.951843" lon="17.157417">
        <ele>45.2</ele>
        <time>2017-09-03T11:14:11Z</time>
      </trkpt>
      <trkpt lat="58.951929" lon="17.157281">
        <ele>45.2</ele>
        <time>2017-09-03T11:14:12Z</time>
      </trkpt>
      <trkpt lat="58.952016" lon="17.157151">
        <ele>45.2</ele>
        <time>2017-09-03T11:14:13Z</time>
      </trkpt>
      <trkpt lat="58.952098" lon="17.157026">
        <ele>45.4</ele>
        <time>2017-09-03T11:14:14Z</time>
      </trkpt>
      <trkpt lat="58.95218" lon="17.156908">
        <ele>45.4</ele>
        <time>2017-09-03T11:14:15Z</time>
      </trkpt>
      <trkpt lat="58.952264" lon="17.156802">
        <ele>45.8</ele>
        <time>2017-09-03T11:14:16Z</time>
      </trkpt>
      <trkpt lat="58.952349" lon="17.156706">
        <ele>45.8</ele>
        <time>2017-09-03T11:14:17Z</time>
      </trkpt>
      <trkpt lat="58.952435" lon="17.156622">
        <ele>46</ele>
        <time>2017-09-03T11:14:18Z</time>
      </trkpt>
      <trkpt lat="58.952522" lon="17.156539">
        <ele>46</ele>
        <time>2017-09-03T11:14:19Z</time>
      </trkpt>
      <trkpt lat="58.95261" lon="17.156453">
        <ele>46</ele>
        <time>2017-09-03T11:14:20Z</time>
      </trkpt>
      <trkpt lat="58.952698" lon="17.156364">
        <ele>46</ele>
        <time>2017-09-03T11:14:21Z</time>
      </trkpt>
      <trkpt lat="58.952789" lon="17.156276">
        <ele>46</ele>
        <time>2017-09-03T11:14:22Z</time>
      </trkpt>
      <trkpt lat="58.952882" lon="17.156193">
        <ele>46</ele>
        <time>2017-09-03T11:14:23Z</time>
      </trkpt>
      <trkpt lat="58.95298" lon="17.156114">
        <ele>46.2</ele>
        <time>2017-09-03T11:14:24Z</time>
      </trkpt>
      <trkpt lat="58.953081" lon="17.156036">
        <ele>46.2</ele>
        <time>2017-09-03T11:14:25Z</time>
      </trkpt>
      <trkpt lat="58.953184" lon="17.155954">
        <ele>46.2</ele>
        <time>2017-09-03T11:14:26Z</time>
      </trkpt>
      <trkpt lat="58.953289" lon="17.155867">
        <ele>46.2</ele>
        <time>2017-09-03T11:14:27Z</time>
      </trkpt>
      <trkpt lat="58.953394" lon="17.155775">
        <ele>46.2</ele>
        <time>2017-09-03T11:14:28Z</time>
      </trkpt>
      <trkpt lat="58.953499" lon="17.155683">
        <ele>46.2</ele>
        <time>2017-09-03T11:14:29Z</time>
      </trkpt>
      <trkpt lat="58.953606" lon="17.155592">
        <ele>46.2</ele>
        <time>2017-09-03T11:14:30Z</time>
      </trkpt>
      <trkpt lat="58.953712" lon="17.155499">
        <ele>46.2</ele>
        <time>2017-09-03T11:14:31Z</time>
      </trkpt>
      <trkpt lat="58.953819" lon="17.155407">
        <ele>46.2</ele>
        <time>2017-09-03T11:14:32Z</time>
      </trkpt>
      <trkpt lat="58.953921" lon="17.155318">
        <ele>46.2</ele>
        <time>2017-09-03T11:14:33Z</time>
      </trkpt>
      <trkpt lat="58.954018" lon="17.155229">
        <ele>46</ele>
        <time>2017-09-03T11:14:34Z</time>
      </trkpt>
      <trkpt lat="58.954112" lon="17.155139">
        <ele>45.8</ele>
        <time>2017-09-03T11:14:35Z</time>
      </trkpt>
      <trkpt lat="58.954203" lon="17.155053">
        <ele>45.2</ele>
        <time>2017-09-03T11:14:36Z</time>
      </trkpt>
      <trkpt lat="58.954296" lon="17.154971">
        <ele>44.8</ele>
        <time>2017-09-03T11:14:37Z</time>
      </trkpt>
      <trkpt lat="58.954387" lon="17.15489">
        <ele>44.4</ele>
        <time>2017-09-03T11:14:38Z</time>
      </trkpt>
      <trkpt lat="58.954478" lon="17.154811">
        <ele>44</ele>
        <time>2017-09-03T11:14:39Z</time>
      </trkpt>
      <trkpt lat="58.954568" lon="17.154733">
        <ele>43.4</ele>
        <time>2017-09-03T11:14:40Z</time>
      </trkpt>
      <trkpt lat="58.954656" lon="17.154658">
        <ele>43</ele>
        <time>2017-09-03T11:14:41Z</time>
      </trkpt>
      <trkpt lat="58.954742" lon="17.154585">
        <ele>42.8</ele>
        <time>2017-09-03T11:14:42Z</time>
      </trkpt>
      <trkpt lat="58.954827" lon="17.154515">
        <ele>42.8</ele>
        <time>2017-09-03T11:14:43Z</time>
      </trkpt>
      <trkpt lat="58.954911" lon="17.154442">
        <ele>42.8</ele>
        <time>2017-09-03T11:14:44Z</time>
      </trkpt>
      <trkpt lat="58.954994" lon="17.154369">
        <ele>42.8</ele>
        <time>2017-09-03T11:14:45Z</time>
      </trkpt>
      <trkpt lat="58.955077" lon="17.154297">
        <ele>42.8</ele>
        <time>2017-09-03T11:14:46Z</time>
      </trkpt>
      <trkpt lat="58.955159" lon="17.154224">
        <ele>42.8</ele>
        <time>2017-09-03T11:14:47Z</time>
      </trkpt>
      <trkpt lat="58.95524" lon="17.154152">
        <ele>42.8</ele>
        <time>2017-09-03T11:14:48Z</time>
      </trkpt>
      <trkpt lat="58.955319" lon="17.154083">
        <ele>42.8</ele>
        <time>2017-09-03T11:14:49Z</time>
      </trkpt>
      <trkpt lat="58.955397" lon="17.154017">
        <ele>42.8</ele>
        <time>2017-09-03T11:14:50Z</time>
      </trkpt>
      <trkpt lat="58.955473" lon="17.153953">
        <ele>42.8</ele>
        <time>2017-09-03T11:14:51Z</time>
      </trkpt>
      <trkpt lat="58.955548" lon="17.153889">
        <ele>42.8</ele>
        <time>2017-09-03T11:14:52Z</time>
      </trkpt>
      <trkpt lat="58.955618" lon="17.153827">
        <ele>42.8</ele>
        <time>2017-09-03T11:14:53Z</time>
      </trkpt>
      <trkpt lat="58.955687" lon="17.153776">
        <ele>42.8</ele>
        <time>2017-09-03T11:14:54Z</time>
      </trkpt>
      <trkpt lat="58.955759" lon="17.153739">
        <ele>43</ele>
        <time>2017-09-03T11:14:55Z</time>
      </trkpt>
      <trkpt lat="58.955832" lon="17.15372">
        <ele>43</ele>
        <time>2017-09-03T11:14:56Z</time>
      </trkpt>
      <trkpt lat="58.955903" lon="17.153728">
        <ele>43.2</ele>
        <time>2017-09-03T11:14:57Z</time>
      </trkpt>
      <trkpt lat="58.955972" lon="17.153757">
        <ele>43.6</ele>
        <time>2017-09-03T11:14:58Z</time>
      </trkpt>
      <trkpt lat="58.956042" lon="17.153805">
        <ele>44</ele>
        <time>2017-09-03T11:14:59Z</time>
      </trkpt>
      <trkpt lat="58.956106" lon="17.153872">
        <ele>44.4</ele>
        <time>2017-09-03T11:15:00Z</time>
      </trkpt>
      <trkpt lat="58.956164" lon="17.153959">
        <ele>44.6</ele>
        <time>2017-09-03T11:15:01Z</time>
      </trkpt>
      <trkpt lat="58.95622" lon="17.154051">
        <ele>45</ele>
        <time>2017-09-03T11:15:02Z</time>
      </trkpt>
      <trkpt lat="58.956277" lon="17.154139">
        <ele>45</ele>
        <time>2017-09-03T11:15:03Z</time>
      </trkpt>
      <trkpt lat="58.956331" lon="17.154225">
        <ele>45.8</ele>
        <time>2017-09-03T11:15:04Z</time>
      </trkpt>
      <trkpt lat="58.956382" lon="17.154304">
        <ele>46.2</ele>
        <time>2017-09-03T11:15:05Z</time>
      </trkpt>
      <trkpt lat="58.956433" lon="17.154374">
        <ele>46.8</ele>
        <time>2017-09-03T11:15:06Z</time>
      </trkpt>
      <trkpt lat="58.956483" lon="17.154432">
        <ele>47</ele>
        <time>2017-09-03T11:15:07Z</time>
      </trkpt>
      <trkpt lat="58.956535" lon="17.154471">
        <ele>47.8</ele>
        <time>2017-09-03T11:15:08Z</time>
      </trkpt>
      <trkpt lat="58.956591" lon="17.154488">
        <ele>48</ele>
        <time>2017-09-03T11:15:09Z</time>
      </trkpt>
      <trkpt lat="58.956648" lon="17.15449">
        <ele>48.4</ele>
        <time>2017-09-03T11:15:10Z</time>
      </trkpt>
      <trkpt lat="58.956713" lon="17.154468">
        <ele>49.2</ele>
        <time>2017-09-03T11:15:11Z</time>
      </trkpt>
      <trkpt lat="58.956777" lon="17.154424">
        <ele>49.6</ele>
        <time>2017-09-03T11:15:12Z</time>
      </trkpt>
      <trkpt lat="58.956837" lon="17.154357">
        <ele>50.2</ele>
        <time>2017-09-03T11:15:13Z</time>
      </trkpt>
      <trkpt lat="58.956896" lon="17.154275">
        <ele>50.6</ele>
        <time>2017-09-03T11:15:14Z</time>
      </trkpt>
      <trkpt lat="58.956953" lon="17.154184">
        <ele>51.2</ele>
        <time>2017-09-03T11:15:15Z</time>
      </trkpt>
      <trkpt lat="58.957011" lon="17.154088">
        <ele>52.2</ele>
        <time>2017-09-03T11:15:16Z</time>
      </trkpt>
      <trkpt lat="58.957072" lon="17.153994">
        <ele>53.4</ele>
        <time>2017-09-03T11:15:17Z</time>
      </trkpt>
      <trkpt lat="58.957129" lon="17.153909">
        <ele>54.4</ele>
        <time>2017-09-03T11:15:18Z</time>
      </trkpt>
      <trkpt lat="58.957185" lon="17.153832">
        <ele>54.8</ele>
        <time>2017-09-03T11:15:19Z</time>
      </trkpt>
      <trkpt lat="58.957242" lon="17.153755">
        <ele>55.4</ele>
        <time>2017-09-03T11:15:20Z</time>
      </trkpt>
      <trkpt lat="58.957292" lon="17.153673">
        <ele>55.8</ele>
        <time>2017-09-03T11:15:21Z</time>
      </trkpt>
      <trkpt lat="58.957338" lon="17.153588">
        <ele>56.4</ele>
        <time>2017-09-03T11:15:22Z</time>
      </trkpt>
      <trkpt lat="58.957377" lon="17.153497">
        <ele>56.8</ele>
        <time>2017-09-03T11:15:23Z</time>
      </trkpt>
      <trkpt lat="58.957409" lon="17.153396">
        <ele>57.4</ele>
        <time>2017-09-03T11:15:24Z</time>
      </trkpt>
      <trkpt lat="58.957439" lon="17.153288">
        <ele>57.6</ele>
        <time>2017-09-03T11:15:25Z</time>
      </trkpt>
      <trkpt lat="58.957464" lon="17.153179">
        <ele>58</ele>
        <time>2017-09-03T11:15:26Z</time>
      </trkpt>
      <trkpt lat="58.957483" lon="17.15307">
        <ele>58.2</ele>
        <time>2017-09-03T11:15:27Z</time>
      </trkpt>
      <trkpt lat="58.957501" lon="17.152955">
        <ele>58.4</ele>
        <time>2017-09-03T11:15:28Z</time>
      </trkpt>
      <trkpt lat="58.957524" lon="17.152832">
        <ele>58.6</ele>
        <time>2017-09-03T11:15:29Z</time>
      </trkpt>
      <trkpt lat="58.957546" lon="17.152707">
        <ele>59</ele>
        <time>2017-09-03T11:15:30Z</time>
      </trkpt>
      <trkpt lat="58.957571" lon="17.152585">
        <ele>59.6</ele>
        <time>2017-09-03T11:15:31Z</time>
      </trkpt>
      <trkpt lat="58.957602" lon="17.152456">
        <ele>60.4</ele>
        <time>2017-09-03T11:15:32Z</time>
      </trkpt>
      <trkpt lat="58.957639" lon="17.152319">
        <ele>61.4</ele>
        <time>2017-09-03T11:15:33Z</time>
      </trkpt>
      <trkpt lat="58.957677" lon="17.152171">
        <ele>62</ele>
        <time>2017-09-03T11:15:34Z</time>
      </trkpt>
      <trkpt lat="58.957719" lon="17.152019">
        <ele>62.6</ele>
        <time>2017-09-03T11:15:35Z</time>
      </trkpt>
      <trkpt lat="58.957765" lon="17.151865">
        <ele>63.2</ele>
        <time>2017-09-03T11:15:36Z</time>
      </trkpt>
      <trkpt lat="58.95781" lon="17.151706">
        <ele>63.2</ele>
        <time>2017-09-03T11:15:37Z</time>
      </trkpt>
      <trkpt lat="58.957851" lon="17.151543">
        <ele>63.2</ele>
        <time>2017-09-03T11:15:38Z</time>
      </trkpt>
      <trkpt lat="58.957886" lon="17.151373">
        <ele>63.2</ele>
        <time>2017-09-03T11:15:39Z</time>
      </trkpt>
      <trkpt lat="58.957921" lon="17.151199">
        <ele>63.2</ele>
        <time>2017-09-03T11:15:40Z</time>
      </trkpt>
      <trkpt lat="58.957948" lon="17.151008">
        <ele>63.2</ele>
        <time>2017-09-03T11:15:41Z</time>
      </trkpt>
      <trkpt lat="58.957977" lon="17.15082">
        <ele>63.2</ele>
        <time>2017-09-03T11:15:42Z</time>
      </trkpt>
      <trkpt lat="58.958008" lon="17.150631">
        <ele>63.2</ele>
        <time>2017-09-03T11:15:43Z</time>
      </trkpt>
      <trkpt lat="58.958054" lon="17.150466">
        <ele>62.8</ele>
        <time>2017-09-03T11:15:44Z</time>
      </trkpt>
      <trkpt lat="58.958113" lon="17.150311">
        <ele>62.2</ele>
        <time>2017-09-03T11:15:45Z</time>
      </trkpt>
      <trkpt lat="58.958181" lon="17.150154">
        <ele>61.6</ele>
        <time>2017-09-03T11:15:46Z</time>
      </trkpt>
      <trkpt lat="58.958255" lon="17.15001">
        <ele>60.8</ele>
        <time>2017-09-03T11:15:47Z</time>
      </trkpt>
      <trkpt lat="58.95834" lon="17.149869">
        <ele>60.2</ele>
        <time>2017-09-03T11:15:48Z</time>
      </trkpt>
      <trkpt lat="58.95843" lon="17.149721">
        <ele>59.6</ele>
        <time>2017-09-03T11:15:49Z</time>
      </trkpt>
      <trkpt lat="58.958521" lon="17.149559">
        <ele>59.2</ele>
        <time>2017-09-03T11:15:50Z</time>
      </trkpt>
      <trkpt lat="58.958613" lon="17.14939">
        <ele>58.8</ele>
        <time>2017-09-03T11:15:51Z</time>
      </trkpt>
      <trkpt lat="58.958704" lon="17.149216">
        <ele>58.8</ele>
        <time>2017-09-03T11:15:52Z</time>
      </trkpt>
      <trkpt lat="58.958793" lon="17.149043">
        <ele>58.6</ele>
        <time>2017-09-03T11:15:53Z</time>
      </trkpt>
      <trkpt lat="58.958881" lon="17.148878">
        <ele>58.4</ele>
        <time>2017-09-03T11:15:54Z</time>
      </trkpt>
      <trkpt lat="58.958966" lon="17.148717">
        <ele>58.2</ele>
        <time>2017-09-03T11:15:55Z</time>
      </trkpt>
      <trkpt lat="58.959047" lon="17.148561">
        <ele>58</ele>
        <time>2017-09-03T11:15:56Z</time>
      </trkpt>
      <trkpt lat="58.959125" lon="17.14841">
        <ele>57.6</ele>
        <time>2017-09-03T11:15:57Z</time>
      </trkpt>
      <trkpt lat="58.959202" lon="17.148265">
        <ele>56.8</ele>
        <time>2017-09-03T11:15:58Z</time>
      </trkpt>
      <trkpt lat="58.959277" lon="17.148124">
        <ele>55.6</ele>
        <time>2017-09-03T11:15:59Z</time>
      </trkpt>
      <trkpt lat="58.959348" lon="17.14799">
        <ele>54.8</ele>
        <time>2017-09-03T11:16:00Z</time>
      </trkpt>
      <trkpt lat="58.95942" lon="17.14786">
        <ele>54.2</ele>
        <time>2017-09-03T11:16:01Z</time>
      </trkpt>
      <trkpt lat="58.959493" lon="17.14773">
        <ele>54</ele>
        <time>2017-09-03T11:16:02Z</time>
      </trkpt>
      <trkpt lat="58.959565" lon="17.147597">
        <ele>53.8</ele>
        <time>2017-09-03T11:16:03Z</time>
      </trkpt>
      <trkpt lat="58.959637" lon="17.147463">
        <ele>53.8</ele>
        <time>2017-09-03T11:16:04Z</time>
      </trkpt>
      <trkpt lat="58.95971" lon="17.147331">
        <ele>53.8</ele>
        <time>2017-09-03T11:16:05Z</time>
      </trkpt>
      <trkpt lat="58.959784" lon="17.147194">
        <ele>53.8</ele>
        <time>2017-09-03T11:16:06Z</time>
      </trkpt>
      <trkpt lat="58.959861" lon="17.147054">
        <ele>53.8</ele>
        <time>2017-09-03T11:16:07Z</time>
      </trkpt>
      <trkpt lat="58.95994" lon="17.146912">
        <ele>53.6</ele>
        <time>2017-09-03T11:16:08Z</time>
      </trkpt>
      <trkpt lat="58.96002" lon="17.14677">
        <ele>53.6</ele>
        <time>2017-09-03T11:16:09Z</time>
      </trkpt>
      <trkpt lat="58.960102" lon="17.146629">
        <ele>53.6</ele>
        <time>2017-09-03T11:16:10Z</time>
      </trkpt>
      <trkpt lat="58.960186" lon="17.146489">
        <ele>53.6</ele>
        <time>2017-09-03T11:16:11Z</time>
      </trkpt>
      <trkpt lat="58.960269" lon="17.146346">
        <ele>53.4</ele>
        <time>2017-09-03T11:16:12Z</time>
      </trkpt>
      <trkpt lat="58.960353" lon="17.146201">
        <ele>53.4</ele>
        <time>2017-09-03T11:16:13Z</time>
      </trkpt>
      <trkpt lat="58.960437" lon="17.146053">
        <ele>53.4</ele>
        <time>2017-09-03T11:16:14Z</time>
      </trkpt>
      <trkpt lat="58.960522" lon="17.145906">
        <ele>53.4</ele>
        <time>2017-09-03T11:16:15Z</time>
      </trkpt>
      <trkpt lat="58.960607" lon="17.145757">
        <ele>53.4</ele>
        <time>2017-09-03T11:16:16Z</time>
      </trkpt>
      <trkpt lat="58.960692" lon="17.145606">
        <ele>53.4</ele>
        <time>2017-09-03T11:16:17Z</time>
      </trkpt>
      <trkpt lat="58.960777" lon="17.145457">
        <ele>53.2</ele>
        <time>2017-09-03T11:16:18Z</time>
      </trkpt>
      <trkpt lat="58.96086" lon="17.14531">
        <ele>52.8</ele>
        <time>2017-09-03T11:16:19Z</time>
      </trkpt>
      <trkpt lat="58.960941" lon="17.145167">
        <ele>52.4</ele>
        <time>2017-09-03T11:16:20Z</time>
      </trkpt>
      <trkpt lat="58.96102" lon="17.145027">
        <ele>51.8</ele>
        <time>2017-09-03T11:16:21Z</time>
      </trkpt>
      <trkpt lat="58.961097" lon="17.144889">
        <ele>51.6</ele>
        <time>2017-09-03T11:16:22Z</time>
      </trkpt>
      <trkpt lat="58.961172" lon="17.144753">
        <ele>51.4</ele>
        <time>2017-09-03T11:16:23Z</time>
      </trkpt>
      <trkpt lat="58.961247" lon="17.144615">
        <ele>51.2</ele>
        <time>2017-09-03T11:16:24Z</time>
      </trkpt>
      <trkpt lat="58.961322" lon="17.144473">
        <ele>50.8</ele>
        <time>2017-09-03T11:16:25Z</time>
      </trkpt>
      <trkpt lat="58.961401" lon="17.14433">
        <ele>50.6</ele>
        <time>2017-09-03T11:16:26Z</time>
      </trkpt>
      <trkpt lat="58.961484" lon="17.144186">
        <ele>50.2</ele>
        <time>2017-09-03T11:16:27Z</time>
      </trkpt>
      <trkpt lat="58.96157" lon="17.144037">
        <ele>50</ele>
        <time>2017-09-03T11:16:28Z</time>
      </trkpt>
      <trkpt lat="58.961656" lon="17.143884">
        <ele>49.8</ele>
        <time>2017-09-03T11:16:29Z</time>
      </trkpt>
      <trkpt lat="58.961742" lon="17.143728">
        <ele>49.4</ele>
        <time>2017-09-03T11:16:30Z</time>
      </trkpt>
      <trkpt lat="58.961827" lon="17.143574">
        <ele>49.4</ele>
        <time>2017-09-03T11:16:31Z</time>
      </trkpt>
      <trkpt lat="58.96191" lon="17.143422">
        <ele>49.2</ele>
        <time>2017-09-03T11:16:32Z</time>
      </trkpt>
      <trkpt lat="58.961992" lon="17.143274">
        <ele>48.8</ele>
        <time>2017-09-03T11:16:33Z</time>
      </trkpt>
      <trkpt lat="58.962071" lon="17.143131">
        <ele>47.4</ele>
        <time>2017-09-03T11:16:34Z</time>
      </trkpt>
      <trkpt lat="58.962148" lon="17.142993">
        <ele>46.6</ele>
        <time>2017-09-03T11:16:35Z</time>
      </trkpt>
      <trkpt lat="58.962223" lon="17.142858">
        <ele>46.2</ele>
        <time>2017-09-03T11:16:36Z</time>
      </trkpt>
      <trkpt lat="58.962296" lon="17.142728">
        <ele>45.8</ele>
        <time>2017-09-03T11:16:37Z</time>
      </trkpt>
      <trkpt lat="58.962371" lon="17.142601">
        <ele>45.6</ele>
        <time>2017-09-03T11:16:38Z</time>
      </trkpt>
      <trkpt lat="58.962445" lon="17.142472">
        <ele>45.4</ele>
        <time>2017-09-03T11:16:39Z</time>
      </trkpt>
      <trkpt lat="58.962519" lon="17.14234">
        <ele>45</ele>
        <time>2017-09-03T11:16:40Z</time>
      </trkpt>
      <trkpt lat="58.962593" lon="17.142205">
        <ele>44.8</ele>
        <time>2017-09-03T11:16:41Z</time>
      </trkpt>
      <trkpt lat="58.962669" lon="17.142069">
        <ele>44.6</ele>
        <time>2017-09-03T11:16:42Z</time>
      </trkpt>
      <trkpt lat="58.962743" lon="17.141938">
        <ele>44.6</ele>
        <time>2017-09-03T11:16:43Z</time>
      </trkpt>
      <trkpt lat="58.962813" lon="17.141814">
        <ele>44.4</ele>
        <time>2017-09-03T11:16:44Z</time>
      </trkpt>
      <trkpt lat="58.962878" lon="17.141694">
        <ele>44.4</ele>
        <time>2017-09-03T11:16:45Z</time>
      </trkpt>
      <trkpt lat="58.962941" lon="17.14158">
        <ele>44.4</ele>
        <time>2017-09-03T11:16:46Z</time>
      </trkpt>
      <trkpt lat="58.963002" lon="17.141473">
        <ele>44.4</ele>
        <time>2017-09-03T11:16:47Z</time>
      </trkpt>
      <trkpt lat="58.963062" lon="17.141371">
        <ele>44.4</ele>
        <time>2017-09-03T11:16:48Z</time>
      </trkpt>
      <trkpt lat="58.963125" lon="17.141278">
        <ele>44.4</ele>
        <time>2017-09-03T11:16:49Z</time>
      </trkpt>
      <trkpt lat="58.963195" lon="17.141206">
        <ele>44.4</ele>
        <time>2017-09-03T11:16:50Z</time>
      </trkpt>
      <trkpt lat="58.963269" lon="17.141181">
        <ele>44.6</ele>
        <time>2017-09-03T11:16:51Z</time>
      </trkpt>
      <trkpt lat="58.963344" lon="17.141208">
        <ele>44.6</ele>
        <time>2017-09-03T11:16:52Z</time>
      </trkpt>
      <trkpt lat="58.963415" lon="17.141269">
        <ele>44.6</ele>
        <time>2017-09-03T11:16:53Z</time>
      </trkpt>
      <trkpt lat="58.963487" lon="17.141349">
        <ele>44.8</ele>
        <time>2017-09-03T11:16:54Z</time>
      </trkpt>
      <trkpt lat="58.963561" lon="17.141425">
        <ele>45.4</ele>
        <time>2017-09-03T11:16:55Z</time>
      </trkpt>
      <trkpt lat="58.963634" lon="17.1415">
        <ele>45.6</ele>
        <time>2017-09-03T11:16:56Z</time>
      </trkpt>
      <trkpt lat="58.963709" lon="17.141579">
        <ele>45.8</ele>
        <time>2017-09-03T11:16:57Z</time>
      </trkpt>
      <trkpt lat="58.963785" lon="17.14166">
        <ele>46</ele>
        <time>2017-09-03T11:16:58Z</time>
      </trkpt>
      <trkpt lat="58.963864" lon="17.141744">
        <ele>46.2</ele>
        <time>2017-09-03T11:16:59Z</time>
      </trkpt>
      <trkpt lat="58.963945" lon="17.141824">
        <ele>46.4</ele>
        <time>2017-09-03T11:17:00Z</time>
      </trkpt>
      <trkpt lat="58.964028" lon="17.141906">
        <ele>46.4</ele>
        <time>2017-09-03T11:17:01Z</time>
      </trkpt>
      <trkpt lat="58.964111" lon="17.141988">
        <ele>46.4</ele>
        <time>2017-09-03T11:17:02Z</time>
      </trkpt>
      <trkpt lat="58.964194" lon="17.14207">
        <ele>46.8</ele>
        <time>2017-09-03T11:17:03Z</time>
      </trkpt>
      <trkpt lat="58.964277" lon="17.142152">
        <ele>47</ele>
        <time>2017-09-03T11:17:04Z</time>
      </trkpt>
      <trkpt lat="58.964359" lon="17.142236">
        <ele>47</ele>
        <time>2017-09-03T11:17:05Z</time>
      </trkpt>
      <trkpt lat="58.964444" lon="17.14232">
        <ele>47</ele>
        <time>2017-09-03T11:17:06Z</time>
      </trkpt>
      <trkpt lat="58.964529" lon="17.1424">
        <ele>47.2</ele>
        <time>2017-09-03T11:17:07Z</time>
      </trkpt>
      <trkpt lat="58.964613" lon="17.142476">
        <ele>47.2</ele>
        <time>2017-09-03T11:17:08Z</time>
      </trkpt>
      <trkpt lat="58.964697" lon="17.142552">
        <ele>47.2</ele>
        <time>2017-09-03T11:17:09Z</time>
      </trkpt>
      <trkpt lat="58.964779" lon="17.142635">
        <ele>47.2</ele>
        <time>2017-09-03T11:17:10Z</time>
      </trkpt>
      <trkpt lat="58.964863" lon="17.14272">
        <ele>47</ele>
        <time>2017-09-03T11:17:11Z</time>
      </trkpt>
      <trkpt lat="58.964947" lon="17.142805">
        <ele>47</ele>
        <time>2017-09-03T11:17:12Z</time>
      </trkpt>
      <trkpt lat="58.965032" lon="17.142892">
        <ele>46.8</ele>
        <time>2017-09-03T11:17:13Z</time>
      </trkpt>
      <trkpt lat="58.96512" lon="17.142976">
        <ele>46.8</ele>
        <time>2017-09-03T11:17:14Z</time>
      </trkpt>
      <trkpt lat="58.965211" lon="17.14306">
        <ele>46.8</ele>
        <time>2017-09-03T11:17:15Z</time>
      </trkpt>
      <trkpt lat="58.965301" lon="17.143143">
        <ele>46.6</ele>
        <time>2017-09-03T11:17:16Z</time>
      </trkpt>
      <trkpt lat="58.965391" lon="17.143228">
        <ele>46.6</ele>
        <time>2017-09-03T11:17:17Z</time>
      </trkpt>
      <trkpt lat="58.965482" lon="17.143311">
        <ele>46.6</ele>
        <time>2017-09-03T11:17:18Z</time>
      </trkpt>
      <trkpt lat="58.965575" lon="17.1434">
        <ele>46.6</ele>
        <time>2017-09-03T11:17:19Z</time>
      </trkpt>
      <trkpt lat="58.965668" lon="17.143494">
        <ele>46.6</ele>
        <time>2017-09-03T11:17:20Z</time>
      </trkpt>
      <trkpt lat="58.965759" lon="17.143587">
        <ele>46.2</ele>
        <time>2017-09-03T11:17:21Z</time>
      </trkpt>
      <trkpt lat="58.965849" lon="17.143677">
        <ele>46</ele>
        <time>2017-09-03T11:17:22Z</time>
      </trkpt>
      <trkpt lat="58.965937" lon="17.143766">
        <ele>45.8</ele>
        <time>2017-09-03T11:17:23Z</time>
      </trkpt>
      <trkpt lat="58.966025" lon="17.14385">
        <ele>45.4</ele>
        <time>2017-09-03T11:17:24Z</time>
      </trkpt>
      <trkpt lat="58.966114" lon="17.143936">
        <ele>45.2</ele>
        <time>2017-09-03T11:17:25Z</time>
      </trkpt>
      <trkpt lat="58.966201" lon="17.144023">
        <ele>45</ele>
        <time>2017-09-03T11:17:26Z</time>
      </trkpt>
      <trkpt lat="58.966288" lon="17.144112">
        <ele>44.8</ele>
        <time>2017-09-03T11:17:27Z</time>
      </trkpt>
      <trkpt lat="58.966375" lon="17.144201">
        <ele>44.8</ele>
        <time>2017-09-03T11:17:28Z</time>
      </trkpt>
      <trkpt lat="58.966463" lon="17.144287">
        <ele>44.8</ele>
        <time>2017-09-03T11:17:29Z</time>
      </trkpt>
      <trkpt lat="58.966552" lon="17.144372">
        <ele>44.8</ele>
        <time>2017-09-03T11:17:30Z</time>
      </trkpt>
      <trkpt lat="58.966639" lon="17.144456">
        <ele>44.8</ele>
        <time>2017-09-03T11:17:31Z</time>
      </trkpt>
      <trkpt lat="58.966725" lon="17.144538">
        <ele>44.8</ele>
        <time>2017-09-03T11:17:32Z</time>
      </trkpt>
      <trkpt lat="58.966809" lon="17.14462">
        <ele>44.8</ele>
        <time>2017-09-03T11:17:33Z</time>
      </trkpt>
      <trkpt lat="58.966892" lon="17.144702">
        <ele>45</ele>
        <time>2017-09-03T11:17:34Z</time>
      </trkpt>
      <trkpt lat="58.966974" lon="17.144778">
        <ele>45</ele>
        <time>2017-09-03T11:17:35Z</time>
      </trkpt>
      <trkpt lat="58.967055" lon="17.144854">
        <ele>45.4</ele>
        <time>2017-09-03T11:17:36Z</time>
      </trkpt>
      <trkpt lat="58.967134" lon="17.144927">
        <ele>45.4</ele>
        <time>2017-09-03T11:17:37Z</time>
      </trkpt>
      <trkpt lat="58.967212" lon="17.144995">
        <ele>45.6</ele>
        <time>2017-09-03T11:17:38Z</time>
      </trkpt>
      <trkpt lat="58.967287" lon="17.145058">
        <ele>45.6</ele>
        <time>2017-09-03T11:17:39Z</time>
      </trkpt>
      <trkpt lat="58.96736" lon="17.145116">
        <ele>45.8</ele>
        <time>2017-09-03T11:17:40Z</time>
      </trkpt>
      <trkpt lat="58.967431" lon="17.145179">
        <ele>46.2</ele>
        <time>2017-09-03T11:17:41Z</time>
      </trkpt>
      <trkpt lat="58.967501" lon="17.145234">
        <ele>46.4</ele>
        <time>2017-09-03T11:17:42Z</time>
      </trkpt>
      <trkpt lat="58.967567" lon="17.145286">
        <ele>46.8</ele>
        <time>2017-09-03T11:17:43Z</time>
      </trkpt>
      <trkpt lat="58.96763" lon="17.145337">
        <ele>47</ele>
        <time>2017-09-03T11:17:44Z</time>
      </trkpt>
      <trkpt lat="58.967694" lon="17.145391">
        <ele>47.4</ele>
        <time>2017-09-03T11:17:45Z</time>
      </trkpt>
      <trkpt lat="58.967755" lon="17.145443">
        <ele>47.4</ele>
        <time>2017-09-03T11:17:46Z</time>
      </trkpt>
      <trkpt lat="58.967818" lon="17.14549">
        <ele>47.8</ele>
        <time>2017-09-03T11:17:47Z</time>
      </trkpt>
      <trkpt lat="58.967882" lon="17.145533">
        <ele>47.8</ele>
        <time>2017-09-03T11:17:48Z</time>
      </trkpt>
      <trkpt lat="58.967944" lon="17.145575">
        <ele>48</ele>
        <time>2017-09-03T11:17:49Z</time>
      </trkpt>
      <trkpt lat="58.968009" lon="17.145623">
        <ele>48</ele>
        <time>2017-09-03T11:17:50Z</time>
      </trkpt>
      <trkpt lat="58.968069" lon="17.145672">
        <ele>48.2</ele>
        <time>2017-09-03T11:17:51Z</time>
      </trkpt>
      <trkpt lat="58.968126" lon="17.145717">
        <ele>48.6</ele>
        <time>2017-09-03T11:17:52Z</time>
      </trkpt>
      <trkpt lat="58.968184" lon="17.145764">
        <ele>48.8</ele>
        <time>2017-09-03T11:17:53Z</time>
      </trkpt>
      <trkpt lat="58.968244" lon="17.145809">
        <ele>49</ele>
        <time>2017-09-03T11:17:54Z</time>
      </trkpt>
      <trkpt lat="58.968306" lon="17.145842">
        <ele>49.6</ele>
        <time>2017-09-03T11:17:55Z</time>
      </trkpt>
      <trkpt lat="58.968372" lon="17.145869">
        <ele>50</ele>
        <time>2017-09-03T11:17:56Z</time>
      </trkpt>
      <trkpt lat="58.968433" lon="17.145896">
        <ele>50.2</ele>
        <time>2017-09-03T11:17:57Z</time>
      </trkpt>
      <trkpt lat="58.968489" lon="17.145931">
        <ele>50.6</ele>
        <time>2017-09-03T11:17:58Z</time>
      </trkpt>
      <trkpt lat="58.968541" lon="17.145975">
        <ele>51.4</ele>
        <time>2017-09-03T11:17:59Z</time>
      </trkpt>
      <trkpt lat="58.968592" lon="17.146011">
        <ele>51.8</ele>
        <time>2017-09-03T11:18:00Z</time>
      </trkpt>
      <trkpt lat="58.968643" lon="17.146054">
        <ele>52.6</ele>
        <time>2017-09-03T11:18:01Z</time>
      </trkpt>
      <trkpt lat="58.968693" lon="17.146093">
        <ele>53</ele>
        <time>2017-09-03T11:18:02Z</time>
      </trkpt>
      <trkpt lat="58.968741" lon="17.146126">
        <ele>53.2</ele>
        <time>2017-09-03T11:18:03Z</time>
      </trkpt>
      <trkpt lat="58.968787" lon="17.146167">
        <ele>53.6</ele>
        <time>2017-09-03T11:18:04Z</time>
      </trkpt>
      <trkpt lat="58.968834" lon="17.146216">
        <ele>54</ele>
        <time>2017-09-03T11:18:05Z</time>
      </trkpt>
      <trkpt lat="58.968884" lon="17.146255">
        <ele>54.4</ele>
        <time>2017-09-03T11:18:06Z</time>
      </trkpt>
      <trkpt lat="58.968942" lon="17.146294">
        <ele>54.6</ele>
        <time>2017-09-03T11:18:07Z</time>
      </trkpt>
      <trkpt lat="58.969003" lon="17.146333">
        <ele>55</ele>
        <time>2017-09-03T11:18:08Z</time>
      </trkpt>
      <trkpt lat="58.969065" lon="17.146364">
        <ele>55.4</ele>
        <time>2017-09-03T11:18:09Z</time>
      </trkpt>
      <trkpt lat="58.969123" lon="17.146392">
        <ele>55.6</ele>
        <time>2017-09-03T11:18:10Z</time>
      </trkpt>
      <trkpt lat="58.969179" lon="17.146404">
        <ele>55.6</ele>
        <time>2017-09-03T11:18:11Z</time>
      </trkpt>
      <trkpt lat="58.969239" lon="17.146415">
        <ele>55.8</ele>
        <time>2017-09-03T11:18:12Z</time>
      </trkpt>
      <trkpt lat="58.969303" lon="17.146423">
        <ele>56</ele>
        <time>2017-09-03T11:18:13Z</time>
      </trkpt>
      <trkpt lat="58.969372" lon="17.146421">
        <ele>56</ele>
        <time>2017-09-03T11:18:14Z</time>
      </trkpt>
      <trkpt lat="58.969441" lon="17.14642">
        <ele>56.2</ele>
        <time>2017-09-03T11:18:15Z</time>
      </trkpt>
      <trkpt lat="58.969513" lon="17.146427">
        <ele>56.8</ele>
        <time>2017-09-03T11:18:16Z</time>
      </trkpt>
      <trkpt lat="58.969587" lon="17.146439">
        <ele>57.2</ele>
        <time>2017-09-03T11:18:17Z</time>
      </trkpt>
      <trkpt lat="58.969664" lon="17.14645">
        <ele>57.6</ele>
        <time>2017-09-03T11:18:18Z</time>
      </trkpt>
      <trkpt lat="58.96974" lon="17.146463">
        <ele>57.8</ele>
        <time>2017-09-03T11:18:19Z</time>
      </trkpt>
      <trkpt lat="58.969824" lon="17.146476">
        <ele>58.2</ele>
        <time>2017-09-03T11:18:20Z</time>
      </trkpt>
      <trkpt lat="58.969903" lon="17.146489">
        <ele>58.6</ele>
        <time>2017-09-03T11:18:21Z</time>
      </trkpt>
      <trkpt lat="58.96998" lon="17.146501">
        <ele>59</ele>
        <time>2017-09-03T11:18:22Z</time>
      </trkpt>
      <trkpt lat="58.970055" lon="17.146513">
        <ele>59</ele>
        <time>2017-09-03T11:18:23Z</time>
      </trkpt>
      <trkpt lat="58.970129" lon="17.146523">
        <ele>59.2</ele>
        <time>2017-09-03T11:18:24Z</time>
      </trkpt>
      <trkpt lat="58.970202" lon="17.146536">
        <ele>59.4</ele>
        <time>2017-09-03T11:18:25Z</time>
      </trkpt>
      <trkpt lat="58.970271" lon="17.146549">
        <ele>59.6</ele>
        <time>2017-09-03T11:18:26Z</time>
      </trkpt>
      <trkpt lat="58.970344" lon="17.146562">
        <ele>59.8</ele>
        <time>2017-09-03T11:18:27Z</time>
      </trkpt>
      <trkpt lat="58.970416" lon="17.146578">
        <ele>59.8</ele>
        <time>2017-09-03T11:18:28Z</time>
      </trkpt>
      <trkpt lat="58.97049" lon="17.146596">
        <ele>60</ele>
        <time>2017-09-03T11:18:29Z</time>
      </trkpt>
      <trkpt lat="58.970566" lon="17.146613">
        <ele>60.2</ele>
        <time>2017-09-03T11:18:30Z</time>
      </trkpt>
      <trkpt lat="58.970646" lon="17.146632">
        <ele>61.2</ele>
        <time>2017-09-03T11:18:31Z</time>
      </trkpt>
      <trkpt lat="58.970727" lon="17.14665">
        <ele>62.2</ele>
        <time>2017-09-03T11:18:32Z</time>
      </trkpt>
      <trkpt lat="58.97081" lon="17.146666">
        <ele>62.8</ele>
        <time>2017-09-03T11:18:33Z</time>
      </trkpt>
      <trkpt lat="58.970895" lon="17.146687">
        <ele>63.2</ele>
        <time>2017-09-03T11:18:34Z</time>
      </trkpt>
      <trkpt lat="58.970983" lon="17.146709">
        <ele>63.4</ele>
        <time>2017-09-03T11:18:35Z</time>
      </trkpt>
      <trkpt lat="58.971073" lon="17.146727">
        <ele>63.6</ele>
        <time>2017-09-03T11:18:36Z</time>
      </trkpt>
      <trkpt lat="58.971164" lon="17.146751">
        <ele>63.6</ele>
        <time>2017-09-03T11:18:37Z</time>
      </trkpt>
      <trkpt lat="58.971259" lon="17.146774">
        <ele>63.6</ele>
        <time>2017-09-03T11:18:38Z</time>
      </trkpt>
      <trkpt lat="58.971352" lon="17.146796">
        <ele>63.6</ele>
        <time>2017-09-03T11:18:39Z</time>
      </trkpt>
      <trkpt lat="58.971446" lon="17.146821">
        <ele>63.6</ele>
        <time>2017-09-03T11:18:40Z</time>
      </trkpt>
      <trkpt lat="58.97154" lon="17.146846">
        <ele>63.6</ele>
        <time>2017-09-03T11:18:41Z</time>
      </trkpt>
      <trkpt lat="58.971635" lon="17.14687">
        <ele>63.6</ele>
        <time>2017-09-03T11:18:42Z</time>
      </trkpt>
      <trkpt lat="58.971732" lon="17.146893">
        <ele>63.6</ele>
        <time>2017-09-03T11:18:43Z</time>
      </trkpt>
      <trkpt lat="58.971829" lon="17.146915">
        <ele>63.2</ele>
        <time>2017-09-03T11:18:44Z</time>
      </trkpt>
      <trkpt lat="58.971926" lon="17.146944">
        <ele>62.4</ele>
        <time>2017-09-03T11:18:45Z</time>
      </trkpt>
      <trkpt lat="58.972022" lon="17.146967">
        <ele>62.2</ele>
        <time>2017-09-03T11:18:46Z</time>
      </trkpt>
      <trkpt lat="58.972121" lon="17.146989">
        <ele>62</ele>
        <time>2017-09-03T11:18:47Z</time>
      </trkpt>
      <trkpt lat="58.972218" lon="17.147011">
        <ele>61.8</ele>
        <time>2017-09-03T11:18:48Z</time>
      </trkpt>
      <trkpt lat="58.972315" lon="17.147031">
        <ele>61.8</ele>
        <time>2017-09-03T11:18:49Z</time>
      </trkpt>
      <trkpt lat="58.972411" lon="17.147052">
        <ele>61.6</ele>
        <time>2017-09-03T11:18:50Z</time>
      </trkpt>
      <trkpt lat="58.972506" lon="17.147078">
        <ele>61.6</ele>
        <time>2017-09-03T11:18:51Z</time>
      </trkpt>
      <trkpt lat="58.972598" lon="17.147102">
        <ele>61.4</ele>
        <time>2017-09-03T11:18:52Z</time>
      </trkpt>
      <trkpt lat="58.972694" lon="17.147129">
        <ele>61.2</ele>
        <time>2017-09-03T11:18:53Z</time>
      </trkpt>
      <trkpt lat="58.972791" lon="17.147156">
        <ele>61.2</ele>
        <time>2017-09-03T11:18:54Z</time>
      </trkpt>
      <trkpt lat="58.972887" lon="17.147182">
        <ele>61.2</ele>
        <time>2017-09-03T11:18:55Z</time>
      </trkpt>
      <trkpt lat="58.972986" lon="17.147205">
        <ele>61.2</ele>
        <time>2017-09-03T11:18:56Z</time>
      </trkpt>
      <trkpt lat="58.973086" lon="17.147225">
        <ele>61.2</ele>
        <time>2017-09-03T11:18:57Z</time>
      </trkpt>
      <trkpt lat="58.973185" lon="17.147249">
        <ele>61.2</ele>
        <time>2017-09-03T11:18:58Z</time>
      </trkpt>
      <trkpt lat="58.97328" lon="17.14727">
        <ele>61.4</ele>
        <time>2017-09-03T11:18:59Z</time>
      </trkpt>
      <trkpt lat="58.973377" lon="17.147293">
        <ele>61.6</ele>
        <time>2017-09-03T11:19:00Z</time>
      </trkpt>
      <trkpt lat="58.973469" lon="17.147321">
        <ele>61.6</ele>
        <time>2017-09-03T11:19:01Z</time>
      </trkpt>
      <trkpt lat="58.973562" lon="17.147354">
        <ele>61.6</ele>
        <time>2017-09-03T11:19:02Z</time>
      </trkpt>
      <trkpt lat="58.97365" lon="17.147388">
        <ele>61.8</ele>
        <time>2017-09-03T11:19:03Z</time>
      </trkpt>
      <trkpt lat="58.973735" lon="17.147428">
        <ele>61.8</ele>
        <time>2017-09-03T11:19:04Z</time>
      </trkpt>
      <trkpt lat="58.97382" lon="17.147476">
        <ele>61.8</ele>
        <time>2017-09-03T11:19:05Z</time>
      </trkpt>
      <trkpt lat="58.973907" lon="17.147532">
        <ele>61.8</ele>
        <time>2017-09-03T11:19:06Z</time>
      </trkpt>
      <trkpt lat="58.973996" lon="17.147585">
        <ele>61.8</ele>
        <time>2017-09-03T11:19:07Z</time>
      </trkpt>
      <trkpt lat="58.974084" lon="17.147636">
        <ele>62</ele>
        <time>2017-09-03T11:19:08Z</time>
      </trkpt>
      <trkpt lat="58.974172" lon="17.147695">
        <ele>62.2</ele>
        <time>2017-09-03T11:19:09Z</time>
      </trkpt>
      <trkpt lat="58.974254" lon="17.147765">
        <ele>62.6</ele>
        <time>2017-09-03T11:19:10Z</time>
      </trkpt>
      <trkpt lat="58.974338" lon="17.147833">
        <ele>62.8</ele>
        <time>2017-09-03T11:19:11Z</time>
      </trkpt>
      <trkpt lat="58.974419" lon="17.147902">
        <ele>63</ele>
        <time>2017-09-03T11:19:12Z</time>
      </trkpt>
      <trkpt lat="58.974503" lon="17.14797">
        <ele>63</ele>
        <time>2017-09-03T11:19:13Z</time>
      </trkpt>
      <trkpt lat="58.97459" lon="17.148045">
        <ele>63</ele>
        <time>2017-09-03T11:19:14Z</time>
      </trkpt>
      <trkpt lat="58.97468" lon="17.148118">
        <ele>63</ele>
        <time>2017-09-03T11:19:15Z</time>
      </trkpt>
      <trkpt lat="58.974772" lon="17.148197">
        <ele>63</ele>
        <time>2017-09-03T11:19:16Z</time>
      </trkpt>
      <trkpt lat="58.974866" lon="17.148282">
        <ele>63</ele>
        <time>2017-09-03T11:19:17Z</time>
      </trkpt>
      <trkpt lat="58.974959" lon="17.148369">
        <ele>63</ele>
        <time>2017-09-03T11:19:18Z</time>
      </trkpt>
      <trkpt lat="58.975052" lon="17.148461">
        <ele>63</ele>
        <time>2017-09-03T11:19:19Z</time>
      </trkpt>
      <trkpt lat="58.975145" lon="17.148555">
        <ele>63</ele>
        <time>2017-09-03T11:19:20Z</time>
      </trkpt>
      <trkpt lat="58.975238" lon="17.148652">
        <ele>62.6</ele>
        <time>2017-09-03T11:19:21Z</time>
      </trkpt>
      <trkpt lat="58.975331" lon="17.148752">
        <ele>62</ele>
        <time>2017-09-03T11:19:22Z</time>
      </trkpt>
      <trkpt lat="58.975424" lon="17.148854">
        <ele>61.4</ele>
        <time>2017-09-03T11:19:23Z</time>
      </trkpt>
      <trkpt lat="58.975513" lon="17.148958">
        <ele>60.8</ele>
        <time>2017-09-03T11:19:24Z</time>
      </trkpt>
      <trkpt lat="58.975599" lon="17.149058">
        <ele>60.4</ele>
        <time>2017-09-03T11:19:25Z</time>
      </trkpt>
      <trkpt lat="58.975681" lon="17.149153">
        <ele>60</ele>
        <time>2017-09-03T11:19:26Z</time>
      </trkpt>
      <trkpt lat="58.975762" lon="17.149247">
        <ele>59.8</ele>
        <time>2017-09-03T11:19:27Z</time>
      </trkpt>
      <trkpt lat="58.975845" lon="17.149341">
        <ele>59.8</ele>
        <time>2017-09-03T11:19:28Z</time>
      </trkpt>
      <trkpt lat="58.975927" lon="17.149439">
        <ele>59.6</ele>
        <time>2017-09-03T11:19:29Z</time>
      </trkpt>
      <trkpt lat="58.976006" lon="17.149535">
        <ele>59.6</ele>
        <time>2017-09-03T11:19:30Z</time>
      </trkpt>
      <trkpt lat="58.976081" lon="17.149635">
        <ele>59.6</ele>
        <time>2017-09-03T11:19:31Z</time>
      </trkpt>
      <trkpt lat="58.976161" lon="17.14974">
        <ele>59.6</ele>
        <time>2017-09-03T11:19:32Z</time>
      </trkpt>
      <trkpt lat="58.97624" lon="17.14984">
        <ele>59.6</ele>
        <time>2017-09-03T11:19:33Z</time>
      </trkpt>
      <trkpt lat="58.976322" lon="17.149937">
        <ele>59.6</ele>
        <time>2017-09-03T11:19:34Z</time>
      </trkpt>
      <trkpt lat="58.976409" lon="17.150031">
        <ele>59.8</ele>
        <time>2017-09-03T11:19:35Z</time>
      </trkpt>
      <trkpt lat="58.976496" lon="17.150123">
        <ele>59.8</ele>
        <time>2017-09-03T11:19:36Z</time>
      </trkpt>
      <trkpt lat="58.976584" lon="17.150217">
        <ele>60</ele>
        <time>2017-09-03T11:19:37Z</time>
      </trkpt>
      <trkpt lat="58.976673" lon="17.15031">
        <ele>60.2</ele>
        <time>2017-09-03T11:19:38Z</time>
      </trkpt>
      <trkpt lat="58.976768" lon="17.150392">
        <ele>60.2</ele>
        <time>2017-09-03T11:19:39Z</time>
      </trkpt>
      <trkpt lat="58.976864" lon="17.150468">
        <ele>60.2</ele>
        <time>2017-09-03T11:19:40Z</time>
      </trkpt>
      <trkpt lat="58.976964" lon="17.150544">
        <ele>60.2</ele>
        <time>2017-09-03T11:19:41Z</time>
      </trkpt>
      <trkpt lat="58.977067" lon="17.150613">
        <ele>60.2</ele>
        <time>2017-09-03T11:19:42Z</time>
      </trkpt>
      <trkpt lat="58.977171" lon="17.150676">
        <ele>60.4</ele>
        <time>2017-09-03T11:19:43Z</time>
      </trkpt>
      <trkpt lat="58.977276" lon="17.150737">
        <ele>60.4</ele>
        <time>2017-09-03T11:19:44Z</time>
      </trkpt>
      <trkpt lat="58.977384" lon="17.150795">
        <ele>60.4</ele>
        <time>2017-09-03T11:19:45Z</time>
      </trkpt>
      <trkpt lat="58.977496" lon="17.150852">
        <ele>60.4</ele>
        <time>2017-09-03T11:19:46Z</time>
      </trkpt>
      <trkpt lat="58.977609" lon="17.15091">
        <ele>60.2</ele>
        <time>2017-09-03T11:19:47Z</time>
      </trkpt>
      <trkpt lat="58.977722" lon="17.15098">
        <ele>59.6</ele>
        <time>2017-09-03T11:19:48Z</time>
      </trkpt>
      <trkpt lat="58.977838" lon="17.151057">
        <ele>58.8</ele>
        <time>2017-09-03T11:19:49Z</time>
      </trkpt>
      <trkpt lat="58.977957" lon="17.151132">
        <ele>58.2</ele>
        <time>2017-09-03T11:19:50Z</time>
      </trkpt>
      <trkpt lat="58.978076" lon="17.1512">
        <ele>58</ele>
        <time>2017-09-03T11:19:51Z</time>
      </trkpt>
      <trkpt lat="58.978198" lon="17.151269">
        <ele>57.8</ele>
        <time>2017-09-03T11:19:52Z</time>
      </trkpt>
      <trkpt lat="58.97832" lon="17.151338">
        <ele>57.6</ele>
        <time>2017-09-03T11:19:53Z</time>
      </trkpt>
      <trkpt lat="58.978445" lon="17.151406">
        <ele>57.4</ele>
        <time>2017-09-03T11:19:54Z</time>
      </trkpt>
      <trkpt lat="58.978566" lon="17.151474">
        <ele>57</ele>
        <time>2017-09-03T11:19:55Z</time>
      </trkpt>
      <trkpt lat="58.978684" lon="17.151538">
        <ele>56.6</ele>
        <time>2017-09-03T11:19:56Z</time>
      </trkpt>
      <trkpt lat="58.978802" lon="17.151601">
        <ele>56.2</ele>
        <time>2017-09-03T11:19:57Z</time>
      </trkpt>
      <trkpt lat="58.978919" lon="17.151662">
        <ele>56</ele>
        <time>2017-09-03T11:19:58Z</time>
      </trkpt>
      <trkpt lat="58.97903" lon="17.151721">
        <ele>55.8</ele>
        <time>2017-09-03T11:19:59Z</time>
      </trkpt>
      <trkpt lat="58.979137" lon="17.151782">
        <ele>55.8</ele>
        <time>2017-09-03T11:20:00Z</time>
      </trkpt>
      <trkpt lat="58.979244" lon="17.151839">
        <ele>55.8</ele>
        <time>2017-09-03T11:20:01Z</time>
      </trkpt>
      <trkpt lat="58.97935" lon="17.151896">
        <ele>55.8</ele>
        <time>2017-09-03T11:20:02Z</time>
      </trkpt>
      <trkpt lat="58.979456" lon="17.151952">
        <ele>55.8</ele>
        <time>2017-09-03T11:20:03Z</time>
      </trkpt>
      <trkpt lat="58.979563" lon="17.152011">
        <ele>55.8</ele>
        <time>2017-09-03T11:20:04Z</time>
      </trkpt>
      <trkpt lat="58.979664" lon="17.152066">
        <ele>55.8</ele>
        <time>2017-09-03T11:20:05Z</time>
      </trkpt>
      <trkpt lat="58.979761" lon="17.152118">
        <ele>56</ele>
        <time>2017-09-03T11:20:06Z</time>
      </trkpt>
      <trkpt lat="58.979855" lon="17.15217">
        <ele>56.2</ele>
        <time>2017-09-03T11:20:07Z</time>
      </trkpt>
      <trkpt lat="58.979951" lon="17.152224">
        <ele>56.4</ele>
        <time>2017-09-03T11:20:08Z</time>
      </trkpt>
      <trkpt lat="58.980044" lon="17.15228">
        <ele>56.6</ele>
        <time>2017-09-03T11:20:09Z</time>
      </trkpt>
      <trkpt lat="58.980131" lon="17.152331">
        <ele>56.6</ele>
        <time>2017-09-03T11:20:10Z</time>
      </trkpt>
      <trkpt lat="58.980216" lon="17.152381">
        <ele>56.8</ele>
        <time>2017-09-03T11:20:11Z</time>
      </trkpt>
      <trkpt lat="58.980302" lon="17.152427">
        <ele>57</ele>
        <time>2017-09-03T11:20:12Z</time>
      </trkpt>
      <trkpt lat="58.980386" lon="17.152473">
        <ele>57.4</ele>
        <time>2017-09-03T11:20:13Z</time>
      </trkpt>
      <trkpt lat="58.980466" lon="17.152519">
        <ele>58</ele>
        <time>2017-09-03T11:20:14Z</time>
      </trkpt>
      <trkpt lat="58.980541" lon="17.152564">
        <ele>58.4</ele>
        <time>2017-09-03T11:20:15Z</time>
      </trkpt>
      <trkpt lat="58.980608" lon="17.152612">
        <ele>58.6</ele>
        <time>2017-09-03T11:20:16Z</time>
      </trkpt>
      <trkpt lat="58.980676" lon="17.152658">
        <ele>59.2</ele>
        <time>2017-09-03T11:20:17Z</time>
      </trkpt>
      <trkpt lat="58.980743" lon="17.152699">
        <ele>59.6</ele>
        <time>2017-09-03T11:20:18Z</time>
      </trkpt>
      <trkpt lat="58.980808" lon="17.152739">
        <ele>60</ele>
        <time>2017-09-03T11:20:19Z</time>
      </trkpt>
      <trkpt lat="58.980874" lon="17.152774">
        <ele>60.4</ele>
        <time>2017-09-03T11:20:20Z</time>
      </trkpt>
      <trkpt lat="58.98094" lon="17.152814">
        <ele>60.8</ele>
        <time>2017-09-03T11:20:21Z</time>
      </trkpt>
      <trkpt lat="58.981009" lon="17.152856">
        <ele>61.4</ele>
        <time>2017-09-03T11:20:22Z</time>
      </trkpt>
      <trkpt lat="58.981082" lon="17.152904">
        <ele>62</ele>
        <time>2017-09-03T11:20:23Z</time>
      </trkpt>
      <trkpt lat="58.98116" lon="17.152956">
        <ele>62.4</ele>
        <time>2017-09-03T11:20:24Z</time>
      </trkpt>
      <trkpt lat="58.981237" lon="17.153005">
        <ele>62.8</ele>
        <time>2017-09-03T11:20:25Z</time>
      </trkpt>
      <trkpt lat="58.981318" lon="17.153049">
        <ele>63.2</ele>
        <time>2017-09-03T11:20:26Z</time>
      </trkpt>
      <trkpt lat="58.9814" lon="17.153094">
        <ele>63.4</ele>
        <time>2017-09-03T11:20:27Z</time>
      </trkpt>
      <trkpt lat="58.981484" lon="17.153135">
        <ele>63.6</ele>
        <time>2017-09-03T11:20:28Z</time>
      </trkpt>
      <trkpt lat="58.981569" lon="17.153175">
        <ele>63.8</ele>
        <time>2017-09-03T11:20:29Z</time>
      </trkpt>
      <trkpt lat="58.981657" lon="17.153215">
        <ele>64</ele>
        <time>2017-09-03T11:20:30Z</time>
      </trkpt>
      <trkpt lat="58.981745" lon="17.153252">
        <ele>64.2</ele>
        <time>2017-09-03T11:20:31Z</time>
      </trkpt>
      <trkpt lat="58.981837" lon="17.153284">
        <ele>64.4</ele>
        <time>2017-09-03T11:20:32Z</time>
      </trkpt>
      <trkpt lat="58.98193" lon="17.153312">
        <ele>64.6</ele>
        <time>2017-09-03T11:20:33Z</time>
      </trkpt>
      <trkpt lat="58.982023" lon="17.153333">
        <ele>64.6</ele>
        <time>2017-09-03T11:20:34Z</time>
      </trkpt>
      <trkpt lat="58.982119" lon="17.153354">
        <ele>64.6</ele>
        <time>2017-09-03T11:20:35Z</time>
      </trkpt>
      <trkpt lat="58.982213" lon="17.153364">
        <ele>64.6</ele>
        <time>2017-09-03T11:20:36Z</time>
      </trkpt>
      <trkpt lat="58.982306" lon="17.15337">
        <ele>64.6</ele>
        <time>2017-09-03T11:20:37Z</time>
      </trkpt>
      <trkpt lat="58.9824" lon="17.153371">
        <ele>64.6</ele>
        <time>2017-09-03T11:20:38Z</time>
      </trkpt>
      <trkpt lat="58.982497" lon="17.153373">
        <ele>64.6</ele>
        <time>2017-09-03T11:20:39Z</time>
      </trkpt>
      <trkpt lat="58.982595" lon="17.153373">
        <ele>64.6</ele>
        <time>2017-09-03T11:20:40Z</time>
      </trkpt>
      <trkpt lat="58.982693" lon="17.153369">
        <ele>64.6</ele>
        <time>2017-09-03T11:20:41Z</time>
      </trkpt>
      <trkpt lat="58.982793" lon="17.153363">
        <ele>64.4</ele>
        <time>2017-09-03T11:20:42Z</time>
      </trkpt>
      <trkpt lat="58.982892" lon="17.153356">
        <ele>64</ele>
        <time>2017-09-03T11:20:43Z</time>
      </trkpt>
      <trkpt lat="58.982995" lon="17.153344">
        <ele>63.8</ele>
        <time>2017-09-03T11:20:44Z</time>
      </trkpt>
      <trkpt lat="58.983101" lon="17.153334">
        <ele>63.4</ele>
        <time>2017-09-03T11:20:45Z</time>
      </trkpt>
      <trkpt lat="58.983207" lon="17.153328">
        <ele>63.4</ele>
        <time>2017-09-03T11:20:46Z</time>
      </trkpt>
      <trkpt lat="58.983317" lon="17.153329">
        <ele>63.2</ele>
        <time>2017-09-03T11:20:47Z</time>
      </trkpt>
      <trkpt lat="58.983428" lon="17.153336">
        <ele>62.6</ele>
        <time>2017-09-03T11:20:48Z</time>
      </trkpt>
      <trkpt lat="58.983536" lon="17.153347">
        <ele>62.4</ele>
        <time>2017-09-03T11:20:49Z</time>
      </trkpt>
      <trkpt lat="58.98365" lon="17.153367">
        <ele>62.2</ele>
        <time>2017-09-03T11:20:50Z</time>
      </trkpt>
      <trkpt lat="58.983763" lon="17.153396">
        <ele>62</ele>
        <time>2017-09-03T11:20:51Z</time>
      </trkpt>
      <trkpt lat="58.983874" lon="17.15343">
        <ele>61.8</ele>
        <time>2017-09-03T11:20:52Z</time>
      </trkpt>
      <trkpt lat="58.98398" lon="17.153472">
        <ele>61.8</ele>
        <time>2017-09-03T11:20:53Z</time>
      </trkpt>
      <trkpt lat="58.984091" lon="17.153527">
        <ele>61.4</ele>
        <time>2017-09-03T11:20:54Z</time>
      </trkpt>
      <trkpt lat="58.9842" lon="17.153592">
        <ele>61.4</ele>
        <time>2017-09-03T11:20:55Z</time>
      </trkpt>
      <trkpt lat="58.984306" lon="17.153666">
        <ele>61.2</ele>
        <time>2017-09-03T11:20:56Z</time>
      </trkpt>
      <trkpt lat="58.98441" lon="17.153751">
        <ele>60.8</ele>
        <time>2017-09-03T11:20:57Z</time>
      </trkpt>
      <trkpt lat="58.984516" lon="17.153841">
        <ele>60.4</ele>
        <time>2017-09-03T11:20:58Z</time>
      </trkpt>
      <trkpt lat="58.984621" lon="17.153934">
        <ele>60.4</ele>
        <time>2017-09-03T11:20:59Z</time>
      </trkpt>
      <trkpt lat="58.984725" lon="17.154036">
        <ele>60.2</ele>
        <time>2017-09-03T11:21:00Z</time>
      </trkpt>
      <trkpt lat="58.984827" lon="17.154142">
        <ele>60</ele>
        <time>2017-09-03T11:21:01Z</time>
      </trkpt>
      <trkpt lat="58.984928" lon="17.154249">
        <ele>59.8</ele>
        <time>2017-09-03T11:21:02Z</time>
      </trkpt>
      <trkpt lat="58.985029" lon="17.154353">
        <ele>59.4</ele>
        <time>2017-09-03T11:21:03Z</time>
      </trkpt>
      <trkpt lat="58.985128" lon="17.154463">
        <ele>59</ele>
        <time>2017-09-03T11:21:04Z</time>
      </trkpt>
      <trkpt lat="58.985225" lon="17.154575">
        <ele>58.6</ele>
        <time>2017-09-03T11:21:05Z</time>
      </trkpt>
      <trkpt lat="58.985324" lon="17.154686">
        <ele>57.8</ele>
        <time>2017-09-03T11:21:06Z</time>
      </trkpt>
      <trkpt lat="58.985422" lon="17.154794">
        <ele>57.4</ele>
        <time>2017-09-03T11:21:07Z</time>
      </trkpt>
      <trkpt lat="58.985519" lon="17.154902">
        <ele>57.2</ele>
        <time>2017-09-03T11:21:08Z</time>
      </trkpt>
      <trkpt lat="58.985614" lon="17.155005">
        <ele>56.8</ele>
        <time>2017-09-03T11:21:09Z</time>
      </trkpt>
      <trkpt lat="58.985705" lon="17.155105">
        <ele>56.6</ele>
        <time>2017-09-03T11:21:10Z</time>
      </trkpt>
      <trkpt lat="58.985796" lon="17.155203">
        <ele>56.4</ele>
        <time>2017-09-03T11:21:11Z</time>
      </trkpt>
      <trkpt lat="58.985882" lon="17.1553">
        <ele>56.4</ele>
        <time>2017-09-03T11:21:12Z</time>
      </trkpt>
      <trkpt lat="58.985967" lon="17.15539">
        <ele>56.4</ele>
        <time>2017-09-03T11:21:13Z</time>
      </trkpt>
      <trkpt lat="58.986051" lon="17.155471">
        <ele>56.4</ele>
        <time>2017-09-03T11:21:14Z</time>
      </trkpt>
      <trkpt lat="58.986135" lon="17.15555">
        <ele>56.4</ele>
        <time>2017-09-03T11:21:15Z</time>
      </trkpt>
      <trkpt lat="58.986224" lon="17.155626">
        <ele>56.4</ele>
        <time>2017-09-03T11:21:16Z</time>
      </trkpt>
      <trkpt lat="58.986312" lon="17.155696">
        <ele>56.4</ele>
        <time>2017-09-03T11:21:17Z</time>
      </trkpt>
      <trkpt lat="58.986401" lon="17.155763">
        <ele>56.4</ele>
        <time>2017-09-03T11:21:18Z</time>
      </trkpt>
      <trkpt lat="58.986493" lon="17.155832">
        <ele>56.4</ele>
        <time>2017-09-03T11:21:19Z</time>
      </trkpt>
      <trkpt lat="58.986585" lon="17.1559">
        <ele>56.4</ele>
        <time>2017-09-03T11:21:20Z</time>
      </trkpt>
      <trkpt lat="58.986679" lon="17.155966">
        <ele>56.4</ele>
        <time>2017-09-03T11:21:21Z</time>
      </trkpt>
      <trkpt lat="58.986775" lon="17.156026">
        <ele>56.4</ele>
        <time>2017-09-03T11:21:22Z</time>
      </trkpt>
      <trkpt lat="58.986873" lon="17.156079">
        <ele>56.4</ele>
        <time>2017-09-03T11:21:23Z</time>
      </trkpt>
      <trkpt lat="58.986973" lon="17.156131">
        <ele>56.4</ele>
        <time>2017-09-03T11:21:24Z</time>
      </trkpt>
      <trkpt lat="58.987077" lon="17.156182">
        <ele>56.4</ele>
        <time>2017-09-03T11:21:25Z</time>
      </trkpt>
      <trkpt lat="58.98718" lon="17.156234">
        <ele>56.4</ele>
        <time>2017-09-03T11:21:26Z</time>
      </trkpt>
      <trkpt lat="58.987285" lon="17.156287">
        <ele>56.4</ele>
        <time>2017-09-03T11:21:27Z</time>
      </trkpt>
      <trkpt lat="58.987391" lon="17.156332">
        <ele>56.4</ele>
        <time>2017-09-03T11:21:28Z</time>
      </trkpt>
      <trkpt lat="58.987498" lon="17.156373">
        <ele>56</ele>
        <time>2017-09-03T11:21:29Z</time>
      </trkpt>
      <trkpt lat="58.987602" lon="17.156413">
        <ele>55.6</ele>
        <time>2017-09-03T11:21:30Z</time>
      </trkpt>
      <trkpt lat="58.987707" lon="17.156451">
        <ele>55.2</ele>
        <time>2017-09-03T11:21:31Z</time>
      </trkpt>
      <trkpt lat="58.987815" lon="17.156496">
        <ele>55.2</ele>
        <time>2017-09-03T11:21:32Z</time>
      </trkpt>
      <trkpt lat="58.987923" lon="17.156542">
        <ele>55</ele>
        <time>2017-09-03T11:21:33Z</time>
      </trkpt>
      <trkpt lat="58.98803" lon="17.156585">
        <ele>54.4</ele>
        <time>2017-09-03T11:21:34Z</time>
      </trkpt>
      <trkpt lat="58.988141" lon="17.156634">
        <ele>53.8</ele>
        <time>2017-09-03T11:21:35Z</time>
      </trkpt>
      <trkpt lat="58.988253" lon="17.156682">
        <ele>53.4</ele>
        <time>2017-09-03T11:21:36Z</time>
      </trkpt>
      <trkpt lat="58.988364" lon="17.156728">
        <ele>53</ele>
        <time>2017-09-03T11:21:37Z</time>
      </trkpt>
      <trkpt lat="58.988476" lon="17.156781">
        <ele>52.8</ele>
        <time>2017-09-03T11:21:38Z</time>
      </trkpt>
      <trkpt lat="58.988588" lon="17.156841">
        <ele>52.8</ele>
        <time>2017-09-03T11:21:39Z</time>
      </trkpt>
      <trkpt lat="58.988704" lon="17.156905">
        <ele>52.6</ele>
        <time>2017-09-03T11:21:40Z</time>
      </trkpt>
      <trkpt lat="58.988818" lon="17.156977">
        <ele>52.4</ele>
        <time>2017-09-03T11:21:41Z</time>
      </trkpt>
      <trkpt lat="58.988933" lon="17.15706">
        <ele>52</ele>
        <time>2017-09-03T11:21:42Z</time>
      </trkpt>
      <trkpt lat="58.989045" lon="17.157153">
        <ele>51.6</ele>
        <time>2017-09-03T11:21:43Z</time>
      </trkpt>
      <trkpt lat="58.989155" lon="17.157255">
        <ele>51.2</ele>
        <time>2017-09-03T11:21:44Z</time>
      </trkpt>
      <trkpt lat="58.989261" lon="17.157364">
        <ele>50.8</ele>
        <time>2017-09-03T11:21:45Z</time>
      </trkpt>
      <trkpt lat="58.989364" lon="17.157485">
        <ele>50.6</ele>
        <time>2017-09-03T11:21:46Z</time>
      </trkpt>
      <trkpt lat="58.989465" lon="17.157615">
        <ele>50.4</ele>
        <time>2017-09-03T11:21:47Z</time>
      </trkpt>
      <trkpt lat="58.989561" lon="17.157757">
        <ele>50.4</ele>
        <time>2017-09-03T11:21:48Z</time>
      </trkpt>
      <trkpt lat="58.989653" lon="17.157902">
        <ele>50.2</ele>
        <time>2017-09-03T11:21:49Z</time>
      </trkpt>
      <trkpt lat="58.989744" lon="17.158052">
        <ele>50.2</ele>
        <time>2017-09-03T11:21:50Z</time>
      </trkpt>
      <trkpt lat="58.989828" lon="17.158211">
        <ele>50</ele>
        <time>2017-09-03T11:21:51Z</time>
      </trkpt>
      <trkpt lat="58.98991" lon="17.158377">
        <ele>49.6</ele>
        <time>2017-09-03T11:21:52Z</time>
      </trkpt>
      <trkpt lat="58.98999" lon="17.15855">
        <ele>49.6</ele>
        <time>2017-09-03T11:21:53Z</time>
      </trkpt>
      <trkpt lat="58.990066" lon="17.15873">
        <ele>49.4</ele>
        <time>2017-09-03T11:21:54Z</time>
      </trkpt>
      <trkpt lat="58.990135" lon="17.158918">
        <ele>49.2</ele>
        <time>2017-09-03T11:21:55Z</time>
      </trkpt>
      <trkpt lat="58.990199" lon="17.159109">
        <ele>49</ele>
        <time>2017-09-03T11:21:56Z</time>
      </trkpt>
      <trkpt lat="58.990258" lon="17.159307">
        <ele>48.8</ele>
        <time>2017-09-03T11:21:57Z</time>
      </trkpt>
      <trkpt lat="58.990313" lon="17.159511">
        <ele>48.4</ele>
        <time>2017-09-03T11:21:58Z</time>
      </trkpt>
      <trkpt lat="58.990367" lon="17.159717">
        <ele>48.2</ele>
        <time>2017-09-03T11:21:59Z</time>
      </trkpt>
      <trkpt lat="58.990424" lon="17.159925">
        <ele>48</ele>
        <time>2017-09-03T11:22:00Z</time>
      </trkpt>
      <trkpt lat="58.990483" lon="17.160132">
        <ele>47.6</ele>
        <time>2017-09-03T11:22:01Z</time>
      </trkpt>
      <trkpt lat="58.990541" lon="17.160336">
        <ele>47</ele>
        <time>2017-09-03T11:22:02Z</time>
      </trkpt>
      <trkpt lat="58.990598" lon="17.160539">
        <ele>46.4</ele>
        <time>2017-09-03T11:22:03Z</time>
      </trkpt>
      <trkpt lat="58.99066" lon="17.160736">
        <ele>45.8</ele>
        <time>2017-09-03T11:22:04Z</time>
      </trkpt>
      <trkpt lat="58.99072" lon="17.160933">
        <ele>45.4</ele>
        <time>2017-09-03T11:22:05Z</time>
      </trkpt>
      <trkpt lat="58.990782" lon="17.161129">
        <ele>45.4</ele>
        <time>2017-09-03T11:22:06Z</time>
      </trkpt>
      <trkpt lat="58.990845" lon="17.161319">
        <ele>45.2</ele>
        <time>2017-09-03T11:22:07Z</time>
      </trkpt>
      <trkpt lat="58.990912" lon="17.161506">
        <ele>45</ele>
        <time>2017-09-03T11:22:08Z</time>
      </trkpt>
      <trkpt lat="58.990981" lon="17.161688">
        <ele>45</ele>
        <time>2017-09-03T11:22:09Z</time>
      </trkpt>
      <trkpt lat="58.99105" lon="17.161869">
        <ele>45</ele>
        <time>2017-09-03T11:22:10Z</time>
      </trkpt>
      <trkpt lat="58.991119" lon="17.162051">
        <ele>45</ele>
        <time>2017-09-03T11:22:11Z</time>
      </trkpt>
      <trkpt lat="58.991187" lon="17.162232">
        <ele>45</ele>
        <time>2017-09-03T11:22:12Z</time>
      </trkpt>
      <trkpt lat="58.991254" lon="17.162414">
        <ele>45</ele>
        <time>2017-09-03T11:22:13Z</time>
      </trkpt>
      <trkpt lat="58.991323" lon="17.162595">
        <ele>44.6</ele>
        <time>2017-09-03T11:22:14Z</time>
      </trkpt>
      <trkpt lat="58.991391" lon="17.162774">
        <ele>44.4</ele>
        <time>2017-09-03T11:22:15Z</time>
      </trkpt>
      <trkpt lat="58.991458" lon="17.162945">
        <ele>44.2</ele>
        <time>2017-09-03T11:22:16Z</time>
      </trkpt>
      <trkpt lat="58.991519" lon="17.16311">
        <ele>44.2</ele>
        <time>2017-09-03T11:22:17Z</time>
      </trkpt>
      <trkpt lat="58.99158" lon="17.163266">
        <ele>44.2</ele>
        <time>2017-09-03T11:22:18Z</time>
      </trkpt>
      <trkpt lat="58.991637" lon="17.163417">
        <ele>44.2</ele>
        <time>2017-09-03T11:22:19Z</time>
      </trkpt>
      <trkpt lat="58.991697" lon="17.163569">
        <ele>44.2</ele>
        <time>2017-09-03T11:22:20Z</time>
      </trkpt>
      <trkpt lat="58.991748" lon="17.163723">
        <ele>44.6</ele>
        <time>2017-09-03T11:22:21Z</time>
      </trkpt>
      <trkpt lat="58.991802" lon="17.163876">
        <ele>44.8</ele>
        <time>2017-09-03T11:22:22Z</time>
      </trkpt>
      <trkpt lat="58.99186" lon="17.164023">
        <ele>45.2</ele>
        <time>2017-09-03T11:22:23Z</time>
      </trkpt>
      <trkpt lat="58.991921" lon="17.164174">
        <ele>45.2</ele>
        <time>2017-09-03T11:22:24Z</time>
      </trkpt>
      <trkpt lat="58.991983" lon="17.16432">
        <ele>45.4</ele>
        <time>2017-09-03T11:22:25Z</time>
      </trkpt>
      <trkpt lat="58.992047" lon="17.164464">
        <ele>45.4</ele>
        <time>2017-09-03T11:22:26Z</time>
      </trkpt>
      <trkpt lat="58.992115" lon="17.16461">
        <ele>46</ele>
        <time>2017-09-03T11:22:27Z</time>
      </trkpt>
      <trkpt lat="58.992185" lon="17.164756">
        <ele>46.4</ele>
        <time>2017-09-03T11:22:28Z</time>
      </trkpt>
      <trkpt lat="58.992257" lon="17.164901">
        <ele>46.4</ele>
        <time>2017-09-03T11:22:29Z</time>
      </trkpt>
      <trkpt lat="58.992331" lon="17.165043">
        <ele>46.4</ele>
        <time>2017-09-03T11:22:30Z</time>
      </trkpt>
      <trkpt lat="58.992408" lon="17.16519">
        <ele>46.4</ele>
        <time>2017-09-03T11:22:31Z</time>
      </trkpt>
      <trkpt lat="58.992487" lon="17.165337">
        <ele>46.6</ele>
        <time>2017-09-03T11:22:32Z</time>
      </trkpt>
      <trkpt lat="58.992569" lon="17.165489">
        <ele>46.8</ele>
        <time>2017-09-03T11:22:33Z</time>
      </trkpt>
      <trkpt lat="58.992656" lon="17.165643">
        <ele>46.6</ele>
        <time>2017-09-03T11:22:34Z</time>
      </trkpt>
      <trkpt lat="58.99275" lon="17.165797">
        <ele>46.8</ele>
        <time>2017-09-03T11:22:35Z</time>
      </trkpt>
      <trkpt lat="58.99285" lon="17.165952">
        <ele>46.8</ele>
        <time>2017-09-03T11:22:36Z</time>
      </trkpt>
      <trkpt lat="58.992953" lon="17.166104">
        <ele>46.6</ele>
        <time>2017-09-03T11:22:37Z</time>
      </trkpt>
      <trkpt lat="58.993056" lon="17.166256">
        <ele>46.4</ele>
        <time>2017-09-03T11:22:38Z</time>
      </trkpt>
      <trkpt lat="58.993159" lon="17.166404">
        <ele>46</ele>
        <time>2017-09-03T11:22:39Z</time>
      </trkpt>
      <trkpt lat="58.993259" lon="17.166553">
        <ele>45.4</ele>
        <time>2017-09-03T11:22:40Z</time>
      </trkpt>
      <trkpt lat="58.993361" lon="17.166701">
        <ele>44.8</ele>
        <time>2017-09-03T11:22:41Z</time>
      </trkpt>
      <trkpt lat="58.993467" lon="17.166844">
        <ele>44.2</ele>
        <time>2017-09-03T11:22:42Z</time>
      </trkpt>
      <trkpt lat="58.99357" lon="17.166983">
        <ele>43.8</ele>
        <time>2017-09-03T11:22:43Z</time>
      </trkpt>
      <trkpt lat="58.993673" lon="17.167121">
        <ele>43.6</ele>
        <time>2017-09-03T11:22:44Z</time>
      </trkpt>
      <trkpt lat="58.993771" lon="17.167258">
        <ele>43.6</ele>
        <time>2017-09-03T11:22:45Z</time>
      </trkpt>
      <trkpt lat="58.993867" lon="17.167394">
        <ele>43.4</ele>
        <time>2017-09-03T11:22:46Z</time>
      </trkpt>
      <trkpt lat="58.99396" lon="17.167527">
        <ele>43.4</ele>
        <time>2017-09-03T11:22:47Z</time>
      </trkpt>
      <trkpt lat="58.994052" lon="17.167656">
        <ele>43.4</ele>
        <time>2017-09-03T11:22:48Z</time>
      </trkpt>
      <trkpt lat="58.994143" lon="17.167784">
        <ele>43.4</ele>
        <time>2017-09-03T11:22:49Z</time>
      </trkpt>
      <trkpt lat="58.994232" lon="17.167907">
        <ele>43.4</ele>
        <time>2017-09-03T11:22:50Z</time>
      </trkpt>
      <trkpt lat="58.994318" lon="17.168028">
        <ele>43.4</ele>
        <time>2017-09-03T11:22:51Z</time>
      </trkpt>
      <trkpt lat="58.994401" lon="17.168147">
        <ele>43.6</ele>
        <time>2017-09-03T11:22:52Z</time>
      </trkpt>
      <trkpt lat="58.994482" lon="17.168264">
        <ele>43.6</ele>
        <time>2017-09-03T11:22:53Z</time>
      </trkpt>
      <trkpt lat="58.994563" lon="17.168378">
        <ele>43.6</ele>
        <time>2017-09-03T11:22:54Z</time>
      </trkpt>
      <trkpt lat="58.994642" lon="17.168491">
        <ele>43.8</ele>
        <time>2017-09-03T11:22:55Z</time>
      </trkpt>
      <trkpt lat="58.994722" lon="17.168606">
        <ele>44</ele>
        <time>2017-09-03T11:22:56Z</time>
      </trkpt>
      <trkpt lat="58.994802" lon="17.168721">
        <ele>44.2</ele>
        <time>2017-09-03T11:22:57Z</time>
      </trkpt>
      <trkpt lat="58.994882" lon="17.168836">
        <ele>44.2</ele>
        <time>2017-09-03T11:22:58Z</time>
      </trkpt>
      <trkpt lat="58.994964" lon="17.168953">
        <ele>44.6</ele>
        <time>2017-09-03T11:22:59Z</time>
      </trkpt>
      <trkpt lat="58.995049" lon="17.169076">
        <ele>44.8</ele>
        <time>2017-09-03T11:23:00Z</time>
      </trkpt>
      <trkpt lat="58.995135" lon="17.169201">
        <ele>44.8</ele>
        <time>2017-09-03T11:23:01Z</time>
      </trkpt>
      <trkpt lat="58.995222" lon="17.169327">
        <ele>44.8</ele>
        <time>2017-09-03T11:23:02Z</time>
      </trkpt>
      <trkpt lat="58.995308" lon="17.169453">
        <ele>44.8</ele>
        <time>2017-09-03T11:23:03Z</time>
      </trkpt>
      <trkpt lat="58.995393" lon="17.169577">
        <ele>44.8</ele>
        <time>2017-09-03T11:23:04Z</time>
      </trkpt>
      <trkpt lat="58.995476" lon="17.169698">
        <ele>45</ele>
        <time>2017-09-03T11:23:05Z</time>
      </trkpt>
      <trkpt lat="58.99556" lon="17.169815">
        <ele>45</ele>
        <time>2017-09-03T11:23:06Z</time>
      </trkpt>
      <trkpt lat="58.995644" lon="17.169931">
        <ele>45</ele>
        <time>2017-09-03T11:23:07Z</time>
      </trkpt>
      <trkpt lat="58.995726" lon="17.170047">
        <ele>45</ele>
        <time>2017-09-03T11:23:08Z</time>
      </trkpt>
      <trkpt lat="58.995807" lon="17.170164">
        <ele>44.8</ele>
        <time>2017-09-03T11:23:09Z</time>
      </trkpt>
      <trkpt lat="58.995886" lon="17.170278">
        <ele>44.8</ele>
        <time>2017-09-03T11:23:10Z</time>
      </trkpt>
      <trkpt lat="58.995965" lon="17.170391">
        <ele>44.8</ele>
        <time>2017-09-03T11:23:11Z</time>
      </trkpt>
      <trkpt lat="58.996044" lon="17.170504">
        <ele>44.6</ele>
        <time>2017-09-03T11:23:12Z</time>
      </trkpt>
      <trkpt lat="58.996123" lon="17.170616">
        <ele>44.6</ele>
        <time>2017-09-03T11:23:13Z</time>
      </trkpt>
      <trkpt lat="58.996203" lon="17.170729">
        <ele>44.6</ele>
        <time>2017-09-03T11:23:14Z</time>
      </trkpt>
      <trkpt lat="58.996281" lon="17.170839">
        <ele>44.6</ele>
        <time>2017-09-03T11:23:15Z</time>
      </trkpt>
      <trkpt lat="58.99636" lon="17.170948">
        <ele>44.6</ele>
        <time>2017-09-03T11:23:16Z</time>
      </trkpt>
      <trkpt lat="58.996436" lon="17.171056">
        <ele>44.6</ele>
        <time>2017-09-03T11:23:17Z</time>
      </trkpt>
      <trkpt lat="58.996511" lon="17.171162">
        <ele>44.6</ele>
        <time>2017-09-03T11:23:18Z</time>
      </trkpt>
      <trkpt lat="58.996582" lon="17.171264">
        <ele>44.6</ele>
        <time>2017-09-03T11:23:19Z</time>
      </trkpt>
      <trkpt lat="58.996651" lon="17.171362">
        <ele>44.6</ele>
        <time>2017-09-03T11:23:20Z</time>
      </trkpt>
      <trkpt lat="58.996718" lon="17.171457">
        <ele>44.8</ele>
        <time>2017-09-03T11:23:21Z</time>
      </trkpt>
      <trkpt lat="58.996784" lon="17.17155">
        <ele>45</ele>
        <time>2017-09-03T11:23:22Z</time>
      </trkpt>
      <trkpt lat="58.996847" lon="17.171642">
        <ele>45</ele>
        <time>2017-09-03T11:23:23Z</time>
      </trkpt>
      <trkpt lat="58.99691" lon="17.171728">
        <ele>45.2</ele>
        <time>2017-09-03T11:23:24Z</time>
      </trkpt>
      <trkpt lat="58.996972" lon="17.171811">
        <ele>45.2</ele>
        <time>2017-09-03T11:23:25Z</time>
      </trkpt>
      <trkpt lat="58.997031" lon="17.171898">
        <ele>45.4</ele>
        <time>2017-09-03T11:23:26Z</time>
      </trkpt>
      <trkpt lat="58.997089" lon="17.171986">
        <ele>45.6</ele>
        <time>2017-09-03T11:23:27Z</time>
      </trkpt>
      <trkpt lat="58.997148" lon="17.172071">
        <ele>46.2</ele>
        <time>2017-09-03T11:23:28Z</time>
      </trkpt>
      <trkpt lat="58.997205" lon="17.172156">
        <ele>46.8</ele>
        <time>2017-09-03T11:23:29Z</time>
      </trkpt>
      <trkpt lat="58.997263" lon="17.172243">
        <ele>47.2</ele>
        <time>2017-09-03T11:23:30Z</time>
      </trkpt>
      <trkpt lat="58.997324" lon="17.172333">
        <ele>47.8</ele>
        <time>2017-09-03T11:23:31Z</time>
      </trkpt>
      <trkpt lat="58.997387" lon="17.172424">
        <ele>48.4</ele>
        <time>2017-09-03T11:23:32Z</time>
      </trkpt>
      <trkpt lat="58.997454" lon="17.172519">
        <ele>49</ele>
        <time>2017-09-03T11:23:33Z</time>
      </trkpt>
      <trkpt lat="58.997523" lon="17.17262">
        <ele>49.6</ele>
        <time>2017-09-03T11:23:34Z</time>
      </trkpt>
      <trkpt lat="58.997595" lon="17.172726">
        <ele>50</ele>
        <time>2017-09-03T11:23:35Z</time>
      </trkpt>
      <trkpt lat="58.997671" lon="17.172834">
        <ele>50.2</ele>
        <time>2017-09-03T11:23:36Z</time>
      </trkpt>
      <trkpt lat="58.997747" lon="17.17294">
        <ele>50.4</ele>
        <time>2017-09-03T11:23:37Z</time>
      </trkpt>
      <trkpt lat="58.997822" lon="17.173048">
        <ele>50.4</ele>
        <time>2017-09-03T11:23:38Z</time>
      </trkpt>
      <trkpt lat="58.997896" lon="17.173156">
        <ele>50.4</ele>
        <time>2017-09-03T11:23:39Z</time>
      </trkpt>
      <trkpt lat="58.99797" lon="17.173263">
        <ele>50.6</ele>
        <time>2017-09-03T11:23:40Z</time>
      </trkpt>
      <trkpt lat="58.998043" lon="17.173371">
        <ele>50.6</ele>
        <time>2017-09-03T11:23:41Z</time>
      </trkpt>
      <trkpt lat="58.998118" lon="17.17348">
        <ele>50.6</ele>
        <time>2017-09-03T11:23:42Z</time>
      </trkpt>
      <trkpt lat="58.998194" lon="17.17359">
        <ele>50.6</ele>
        <time>2017-09-03T11:23:43Z</time>
      </trkpt>
      <trkpt lat="58.998271" lon="17.173699">
        <ele>50.6</ele>
        <time>2017-09-03T11:23:44Z</time>
      </trkpt>
      <trkpt lat="58.998349" lon="17.173806">
        <ele>50.6</ele>
        <time>2017-09-03T11:23:45Z</time>
      </trkpt>
      <trkpt lat="58.998423" lon="17.173913">
        <ele>50.6</ele>
        <time>2017-09-03T11:23:46Z</time>
      </trkpt>
      <trkpt lat="58.998497" lon="17.174017">
        <ele>50.8</ele>
        <time>2017-09-03T11:23:47Z</time>
      </trkpt>
      <trkpt lat="58.998572" lon="17.17412">
        <ele>50.8</ele>
        <time>2017-09-03T11:23:48Z</time>
      </trkpt>
      <trkpt lat="58.998648" lon="17.174226">
        <ele>51</ele>
        <time>2017-09-03T11:23:49Z</time>
      </trkpt>
      <trkpt lat="58.998724" lon="17.174333">
        <ele>51.8</ele>
        <time>2017-09-03T11:23:50Z</time>
      </trkpt>
      <trkpt lat="58.9988" lon="17.174441">
        <ele>52</ele>
        <time>2017-09-03T11:23:51Z</time>
      </trkpt>
      <trkpt lat="58.998875" lon="17.17455">
        <ele>52.2</ele>
        <time>2017-09-03T11:23:52Z</time>
      </trkpt>
      <trkpt lat="58.99895" lon="17.174661">
        <ele>52.2</ele>
        <time>2017-09-03T11:23:53Z</time>
      </trkpt>
      <trkpt lat="58.999028" lon="17.174773">
        <ele>52.2</ele>
        <time>2017-09-03T11:23:54Z</time>
      </trkpt>
      <trkpt lat="58.999108" lon="17.174886">
        <ele>52.2</ele>
        <time>2017-09-03T11:23:55Z</time>
      </trkpt>
      <trkpt lat="58.999189" lon="17.175001">
        <ele>52.2</ele>
        <time>2017-09-03T11:23:56Z</time>
      </trkpt>
      <trkpt lat="58.999271" lon="17.175119">
        <ele>52.2</ele>
        <time>2017-09-03T11:23:57Z</time>
      </trkpt>
      <trkpt lat="58.999354" lon="17.175241">
        <ele>52.2</ele>
        <time>2017-09-03T11:23:58Z</time>
      </trkpt>
      <trkpt lat="58.999439" lon="17.175364">
        <ele>52.2</ele>
        <time>2017-09-03T11:23:59Z</time>
      </trkpt>
      <trkpt lat="58.999528" lon="17.175486">
        <ele>52.2</ele>
        <time>2017-09-03T11:24:00Z</time>
      </trkpt>
      <trkpt lat="58.999619" lon="17.175607">
        <ele>52.2</ele>
        <time>2017-09-03T11:24:01Z</time>
      </trkpt>
      <trkpt lat="58.999713" lon="17.175725">
        <ele>52</ele>
        <time>2017-09-03T11:24:02Z</time>
      </trkpt>
      <trkpt lat="58.999809" lon="17.17584">
        <ele>51.8</ele>
        <time>2017-09-03T11:24:03Z</time>
      </trkpt>
      <trkpt lat="58.999907" lon="17.175954">
        <ele>51.8</ele>
        <time>2017-09-03T11:24:04Z</time>
      </trkpt>
      <trkpt lat="59.000006" lon="17.176066">
        <ele>51.4</ele>
        <time>2017-09-03T11:24:05Z</time>
      </trkpt>
      <trkpt lat="59.000106" lon="17.176175">
        <ele>50.4</ele>
        <time>2017-09-03T11:24:06Z</time>
      </trkpt>
      <trkpt lat="59.000207" lon="17.176279">
        <ele>49.6</ele>
        <time>2017-09-03T11:24:07Z</time>
      </trkpt>
      <trkpt lat="59.000309" lon="17.176379">
        <ele>49</ele>
        <time>2017-09-03T11:24:08Z</time>
      </trkpt>
      <trkpt lat="59.000412" lon="17.176472">
        <ele>48.6</ele>
        <time>2017-09-03T11:24:09Z</time>
      </trkpt>
      <trkpt lat="59.000515" lon="17.176559">
        <ele>48.4</ele>
        <time>2017-09-03T11:24:10Z</time>
      </trkpt>
      <trkpt lat="59.000619" lon="17.176638">
        <ele>47.8</ele>
        <time>2017-09-03T11:24:11Z</time>
      </trkpt>
      <trkpt lat="59.000723" lon="17.176713">
        <ele>47.2</ele>
        <time>2017-09-03T11:24:12Z</time>
      </trkpt>
      <trkpt lat="59.00083" lon="17.176786">
        <ele>45.8</ele>
        <time>2017-09-03T11:24:13Z</time>
      </trkpt>
      <trkpt lat="59.000938" lon="17.176852">
        <ele>44.6</ele>
        <time>2017-09-03T11:24:14Z</time>
      </trkpt>
      <trkpt lat="59.001047" lon="17.176915">
        <ele>44</ele>
        <time>2017-09-03T11:24:15Z</time>
      </trkpt>
      <trkpt lat="59.001154" lon="17.176972">
        <ele>43.6</ele>
        <time>2017-09-03T11:24:16Z</time>
      </trkpt>
      <trkpt lat="59.001261" lon="17.177022">
        <ele>43.4</ele>
        <time>2017-09-03T11:24:17Z</time>
      </trkpt>
      <trkpt lat="59.001366" lon="17.177067">
        <ele>43.2</ele>
        <time>2017-09-03T11:24:18Z</time>
      </trkpt>
      <trkpt lat="59.001471" lon="17.177105">
        <ele>43</ele>
        <time>2017-09-03T11:24:19Z</time>
      </trkpt>
      <trkpt lat="59.001576" lon="17.177138">
        <ele>42.8</ele>
        <time>2017-09-03T11:24:20Z</time>
      </trkpt>
      <trkpt lat="59.001682" lon="17.177169">
        <ele>42.8</ele>
        <time>2017-09-03T11:24:21Z</time>
      </trkpt>
      <trkpt lat="59.001786" lon="17.177198">
        <ele>42.8</ele>
        <time>2017-09-03T11:24:22Z</time>
      </trkpt>
      <trkpt lat="59.001889" lon="17.177224">
        <ele>42.8</ele>
        <time>2017-09-03T11:24:23Z</time>
      </trkpt>
      <trkpt lat="59.001991" lon="17.177248">
        <ele>42.6</ele>
        <time>2017-09-03T11:24:24Z</time>
      </trkpt>
      <trkpt lat="59.002091" lon="17.177267">
        <ele>42.6</ele>
        <time>2017-09-03T11:24:25Z</time>
      </trkpt>
      <trkpt lat="59.00219" lon="17.177281">
        <ele>42.6</ele>
        <time>2017-09-03T11:24:26Z</time>
      </trkpt>
      <trkpt lat="59.002288" lon="17.177284">
        <ele>42.6</ele>
        <time>2017-09-03T11:24:27Z</time>
      </trkpt>
      <trkpt lat="59.002388" lon="17.177278">
        <ele>42.6</ele>
        <time>2017-09-03T11:24:28Z</time>
      </trkpt>
      <trkpt lat="59.002488" lon="17.177269">
        <ele>42.6</ele>
        <time>2017-09-03T11:24:29Z</time>
      </trkpt>
      <trkpt lat="59.00259" lon="17.177252">
        <ele>42.6</ele>
        <time>2017-09-03T11:24:30Z</time>
      </trkpt>
      <trkpt lat="59.002691" lon="17.177227">
        <ele>42.8</ele>
        <time>2017-09-03T11:24:31Z</time>
      </trkpt>
      <trkpt lat="59.002793" lon="17.177197">
        <ele>42.8</ele>
        <time>2017-09-03T11:24:32Z</time>
      </trkpt>
      <trkpt lat="59.002894" lon="17.177165">
        <ele>42.8</ele>
        <time>2017-09-03T11:24:33Z</time>
      </trkpt>
      <trkpt lat="59.002994" lon="17.177129">
        <ele>42.8</ele>
        <time>2017-09-03T11:24:34Z</time>
      </trkpt>
      <trkpt lat="59.003094" lon="17.177087">
        <ele>42.8</ele>
        <time>2017-09-03T11:24:35Z</time>
      </trkpt>
      <trkpt lat="59.003193" lon="17.177038">
        <ele>42.8</ele>
        <time>2017-09-03T11:24:36Z</time>
      </trkpt>
      <trkpt lat="59.003293" lon="17.176984">
        <ele>42.8</ele>
        <time>2017-09-03T11:24:37Z</time>
      </trkpt>
      <trkpt lat="59.003392" lon="17.176925">
        <ele>43</ele>
        <time>2017-09-03T11:24:38Z</time>
      </trkpt>
      <trkpt lat="59.003493" lon="17.176867">
        <ele>43.4</ele>
        <time>2017-09-03T11:24:39Z</time>
      </trkpt>
      <trkpt lat="59.003593" lon="17.176808">
        <ele>43.6</ele>
        <time>2017-09-03T11:24:40Z</time>
      </trkpt>
      <trkpt lat="59.003693" lon="17.176749">
        <ele>43.8</ele>
        <time>2017-09-03T11:24:41Z</time>
      </trkpt>
      <trkpt lat="59.003793" lon="17.176692">
        <ele>43.8</ele>
        <time>2017-09-03T11:24:42Z</time>
      </trkpt>
      <trkpt lat="59.003893" lon="17.176635">
        <ele>44</ele>
        <time>2017-09-03T11:24:43Z</time>
      </trkpt>
      <trkpt lat="59.003994" lon="17.176577">
        <ele>44</ele>
        <time>2017-09-03T11:24:44Z</time>
      </trkpt>
      <trkpt lat="59.004094" lon="17.176519">
        <ele>44</ele>
        <time>2017-09-03T11:24:45Z</time>
      </trkpt>
      <trkpt lat="59.004192" lon="17.176459">
        <ele>44</ele>
        <time>2017-09-03T11:24:46Z</time>
      </trkpt>
      <trkpt lat="59.004291" lon="17.176398">
        <ele>44</ele>
        <time>2017-09-03T11:24:47Z</time>
      </trkpt>
      <trkpt lat="59.004388" lon="17.176341">
        <ele>44.2</ele>
        <time>2017-09-03T11:24:48Z</time>
      </trkpt>
      <trkpt lat="59.004488" lon="17.176287">
        <ele>44.4</ele>
        <time>2017-09-03T11:24:49Z</time>
      </trkpt>
      <trkpt lat="59.004587" lon="17.176232">
        <ele>44.4</ele>
        <time>2017-09-03T11:24:50Z</time>
      </trkpt>
      <trkpt lat="59.004684" lon="17.176173">
        <ele>44.4</ele>
        <time>2017-09-03T11:24:51Z</time>
      </trkpt>
      <trkpt lat="59.004782" lon="17.176112">
        <ele>44.6</ele>
        <time>2017-09-03T11:24:52Z</time>
      </trkpt>
      <trkpt lat="59.004881" lon="17.176049">
        <ele>44.8</ele>
        <time>2017-09-03T11:24:53Z</time>
      </trkpt>
      <trkpt lat="59.00498" lon="17.175988">
        <ele>44.8</ele>
        <time>2017-09-03T11:24:54Z</time>
      </trkpt>
      <trkpt lat="59.005078" lon="17.175928">
        <ele>45</ele>
        <time>2017-09-03T11:24:55Z</time>
      </trkpt>
      <trkpt lat="59.005176" lon="17.175869">
        <ele>45</ele>
        <time>2017-09-03T11:24:56Z</time>
      </trkpt>
      <trkpt lat="59.005274" lon="17.175811">
        <ele>45.2</ele>
        <time>2017-09-03T11:24:57Z</time>
      </trkpt>
      <trkpt lat="59.005373" lon="17.175755">
        <ele>45.2</ele>
        <time>2017-09-03T11:24:58Z</time>
      </trkpt>
      <trkpt lat="59.005472" lon="17.175699">
        <ele>45.2</ele>
        <time>2017-09-03T11:24:59Z</time>
      </trkpt>
      <trkpt lat="59.005571" lon="17.175642">
        <ele>45</ele>
        <time>2017-09-03T11:25:00Z</time>
      </trkpt>
      <trkpt lat="59.005669" lon="17.175584">
        <ele>45</ele>
        <time>2017-09-03T11:25:01Z</time>
      </trkpt>
      <trkpt lat="59.005769" lon="17.175526">
        <ele>44.8</ele>
        <time>2017-09-03T11:25:02Z</time>
      </trkpt>
      <trkpt lat="59.005867" lon="17.175467">
        <ele>44.8</ele>
        <time>2017-09-03T11:25:03Z</time>
      </trkpt>
      <trkpt lat="59.005963" lon="17.175408">
        <ele>44.8</ele>
        <time>2017-09-03T11:25:04Z</time>
      </trkpt>
      <trkpt lat="59.006057" lon="17.175351">
        <ele>44.4</ele>
        <time>2017-09-03T11:25:05Z</time>
      </trkpt>
      <trkpt lat="59.006149" lon="17.175293">
        <ele>44.2</ele>
        <time>2017-09-03T11:25:06Z</time>
      </trkpt>
      <trkpt lat="59.006242" lon="17.175236">
        <ele>44.2</ele>
        <time>2017-09-03T11:25:07Z</time>
      </trkpt>
      <trkpt lat="59.006332" lon="17.175178">
        <ele>44.2</ele>
        <time>2017-09-03T11:25:08Z</time>
      </trkpt>
      <trkpt lat="59.006419" lon="17.175121">
        <ele>44</ele>
        <time>2017-09-03T11:25:09Z</time>
      </trkpt>
      <trkpt lat="59.006508" lon="17.175072">
        <ele>44</ele>
        <time>2017-09-03T11:25:10Z</time>
      </trkpt>
      <trkpt lat="59.006594" lon="17.175026">
        <ele>44</ele>
        <time>2017-09-03T11:25:11Z</time>
      </trkpt>
      <trkpt lat="59.006678" lon="17.17498">
        <ele>44</ele>
        <time>2017-09-03T11:25:12Z</time>
      </trkpt>
      <trkpt lat="59.00676" lon="17.174937">
        <ele>44</ele>
        <time>2017-09-03T11:25:13Z</time>
      </trkpt>
      <trkpt lat="59.00684" lon="17.174895">
        <ele>44</ele>
        <time>2017-09-03T11:25:14Z</time>
      </trkpt>
      <trkpt lat="59.006922" lon="17.174854">
        <ele>44</ele>
        <time>2017-09-03T11:25:15Z</time>
      </trkpt>
      <trkpt lat="59.007006" lon="17.174818">
        <ele>44</ele>
        <time>2017-09-03T11:25:16Z</time>
      </trkpt>
      <trkpt lat="59.007091" lon="17.174778">
        <ele>44</ele>
        <time>2017-09-03T11:25:17Z</time>
      </trkpt>
      <trkpt lat="59.007177" lon="17.174736">
        <ele>44.2</ele>
        <time>2017-09-03T11:25:18Z</time>
      </trkpt>
      <trkpt lat="59.007263" lon="17.174693">
        <ele>44.6</ele>
        <time>2017-09-03T11:25:19Z</time>
      </trkpt>
      <trkpt lat="59.00735" lon="17.174641">
        <ele>44.8</ele>
        <time>2017-09-03T11:25:20Z</time>
      </trkpt>
      <trkpt lat="59.007436" lon="17.174588">
        <ele>45.2</ele>
        <time>2017-09-03T11:25:21Z</time>
      </trkpt>
      <trkpt lat="59.007521" lon="17.174541">
        <ele>45.6</ele>
        <time>2017-09-03T11:25:22Z</time>
      </trkpt>
      <trkpt lat="59.007605" lon="17.174496">
        <ele>45.8</ele>
        <time>2017-09-03T11:25:23Z</time>
      </trkpt>
      <trkpt lat="59.00769" lon="17.174449">
        <ele>46</ele>
        <time>2017-09-03T11:25:24Z</time>
      </trkpt>
      <trkpt lat="59.007776" lon="17.174401">
        <ele>46.2</ele>
        <time>2017-09-03T11:25:25Z</time>
      </trkpt>
      <trkpt lat="59.007865" lon="17.17435">
        <ele>46.2</ele>
        <time>2017-09-03T11:25:26Z</time>
      </trkpt>
      <trkpt lat="59.007951" lon="17.174298">
        <ele>47</ele>
        <time>2017-09-03T11:25:27Z</time>
      </trkpt>
      <trkpt lat="59.008038" lon="17.174248">
        <ele>47.4</ele>
        <time>2017-09-03T11:25:28Z</time>
      </trkpt>
      <trkpt lat="59.008124" lon="17.174198">
        <ele>47.8</ele>
        <time>2017-09-03T11:25:29Z</time>
      </trkpt>
      <trkpt lat="59.008209" lon="17.174146">
        <ele>48.4</ele>
        <time>2017-09-03T11:25:30Z</time>
      </trkpt>
      <trkpt lat="59.008296" lon="17.174098">
        <ele>48.6</ele>
        <time>2017-09-03T11:25:31Z</time>
      </trkpt>
      <trkpt lat="59.008385" lon="17.174049">
        <ele>48.8</ele>
        <time>2017-09-03T11:25:32Z</time>
      </trkpt>
      <trkpt lat="59.008475" lon="17.174">
        <ele>49.2</ele>
        <time>2017-09-03T11:25:33Z</time>
      </trkpt>
      <trkpt lat="59.008566" lon="17.173949">
        <ele>49.4</ele>
        <time>2017-09-03T11:25:34Z</time>
      </trkpt>
      <trkpt lat="59.008659" lon="17.173901">
        <ele>49.4</ele>
        <time>2017-09-03T11:25:35Z</time>
      </trkpt>
      <trkpt lat="59.008755" lon="17.173855">
        <ele>49.6</ele>
        <time>2017-09-03T11:25:36Z</time>
      </trkpt>
      <trkpt lat="59.008853" lon="17.173808">
        <ele>49.6</ele>
        <time>2017-09-03T11:25:37Z</time>
      </trkpt>
      <trkpt lat="59.008951" lon="17.17376">
        <ele>49.8</ele>
        <time>2017-09-03T11:25:38Z</time>
      </trkpt>
      <trkpt lat="59.009049" lon="17.173713">
        <ele>49.8</ele>
        <time>2017-09-03T11:25:39Z</time>
      </trkpt>
      <trkpt lat="59.009147" lon="17.173672">
        <ele>49.8</ele>
        <time>2017-09-03T11:25:40Z</time>
      </trkpt>
      <trkpt lat="59.009244" lon="17.17363">
        <ele>49.8</ele>
        <time>2017-09-03T11:25:41Z</time>
      </trkpt>
      <trkpt lat="59.009342" lon="17.173584">
        <ele>49.8</ele>
        <time>2017-09-03T11:25:42Z</time>
      </trkpt>
      <trkpt lat="59.009439" lon="17.173536">
        <ele>49.8</ele>
        <time>2017-09-03T11:25:43Z</time>
      </trkpt>
      <trkpt lat="59.009536" lon="17.173488">
        <ele>49.8</ele>
        <time>2017-09-03T11:25:44Z</time>
      </trkpt>
      <trkpt lat="59.009634" lon="17.17344">
        <ele>49.8</ele>
        <time>2017-09-03T11:25:45Z</time>
      </trkpt>
      <trkpt lat="59.009731" lon="17.17339">
        <ele>49.6</ele>
        <time>2017-09-03T11:25:46Z</time>
      </trkpt>
      <trkpt lat="59.009827" lon="17.173341">
        <ele>49.6</ele>
        <time>2017-09-03T11:25:47Z</time>
      </trkpt>
      <trkpt lat="59.009924" lon="17.173297">
        <ele>49.4</ele>
        <time>2017-09-03T11:25:48Z</time>
      </trkpt>
      <trkpt lat="59.01002" lon="17.173253">
        <ele>49.4</ele>
        <time>2017-09-03T11:25:49Z</time>
      </trkpt>
      <trkpt lat="59.010114" lon="17.173208">
        <ele>49.2</ele>
        <time>2017-09-03T11:25:50Z</time>
      </trkpt>
      <trkpt lat="59.010208" lon="17.173165">
        <ele>49</ele>
        <time>2017-09-03T11:25:51Z</time>
      </trkpt>
      <trkpt lat="59.010301" lon="17.173124">
        <ele>48.8</ele>
        <time>2017-09-03T11:25:52Z</time>
      </trkpt>
      <trkpt lat="59.010393" lon="17.173081">
        <ele>48.6</ele>
        <time>2017-09-03T11:25:53Z</time>
      </trkpt>
      <trkpt lat="59.010483" lon="17.173043">
        <ele>48.4</ele>
        <time>2017-09-03T11:25:54Z</time>
      </trkpt>
      <trkpt lat="59.010575" lon="17.173013">
        <ele>48.4</ele>
        <time>2017-09-03T11:25:55Z</time>
      </trkpt>
      <trkpt lat="59.010671" lon="17.173006">
        <ele>48.2</ele>
        <time>2017-09-03T11:25:56Z</time>
      </trkpt>
      <trkpt lat="59.010767" lon="17.173039">
        <ele>48.2</ele>
        <time>2017-09-03T11:25:57Z</time>
      </trkpt>
      <trkpt lat="59.010861" lon="17.1731">
        <ele>48.2</ele>
        <time>2017-09-03T11:25:58Z</time>
      </trkpt>
      <trkpt lat="59.010951" lon="17.173174">
        <ele>48.2</ele>
        <time>2017-09-03T11:25:59Z</time>
      </trkpt>
      <trkpt lat="59.011037" lon="17.173254">
        <ele>48.2</ele>
        <time>2017-09-03T11:26:00Z</time>
      </trkpt>
      <trkpt lat="59.011121" lon="17.173331">
        <ele>48.2</ele>
        <time>2017-09-03T11:26:01Z</time>
      </trkpt>
      <trkpt lat="59.011205" lon="17.173401">
        <ele>48</ele>
        <time>2017-09-03T11:26:02Z</time>
      </trkpt>
      <trkpt lat="59.011289" lon="17.173472">
        <ele>47.6</ele>
        <time>2017-09-03T11:26:03Z</time>
      </trkpt>
      <trkpt lat="59.011371" lon="17.173546">
        <ele>47.4</ele>
        <time>2017-09-03T11:26:04Z</time>
      </trkpt>
      <trkpt lat="59.011454" lon="17.173622">
        <ele>47.2</ele>
        <time>2017-09-03T11:26:05Z</time>
      </trkpt>
      <trkpt lat="59.011537" lon="17.1737">
        <ele>47</ele>
        <time>2017-09-03T11:26:06Z</time>
      </trkpt>
      <trkpt lat="59.011615" lon="17.173778">
        <ele>47</ele>
        <time>2017-09-03T11:26:07Z</time>
      </trkpt>
      <trkpt lat="59.011691" lon="17.173852">
        <ele>47</ele>
        <time>2017-09-03T11:26:08Z</time>
      </trkpt>
      <trkpt lat="59.011764" lon="17.173916">
        <ele>47</ele>
        <time>2017-09-03T11:26:09Z</time>
      </trkpt>
      <trkpt lat="59.011835" lon="17.173976">
        <ele>47</ele>
        <time>2017-09-03T11:26:10Z</time>
      </trkpt>
      <trkpt lat="59.011908" lon="17.174027">
        <ele>47</ele>
        <time>2017-09-03T11:26:11Z</time>
      </trkpt>
      <trkpt lat="59.011978" lon="17.174067">
        <ele>47</ele>
        <time>2017-09-03T11:26:12Z</time>
      </trkpt>
      <trkpt lat="59.012044" lon="17.174104">
        <ele>47</ele>
        <time>2017-09-03T11:26:13Z</time>
      </trkpt>
      <trkpt lat="59.012104" lon="17.174137">
        <ele>47</ele>
        <time>2017-09-03T11:26:14Z</time>
      </trkpt>
      <trkpt lat="59.012162" lon="17.174167">
        <ele>47.6</ele>
        <time>2017-09-03T11:26:15Z</time>
      </trkpt>
      <trkpt lat="59.012216" lon="17.174193">
        <ele>49.2</ele>
        <time>2017-09-03T11:26:16Z</time>
      </trkpt>
      <trkpt lat="59.012271" lon="17.174231">
        <ele>50</ele>
        <time>2017-09-03T11:26:17Z</time>
      </trkpt>
      <trkpt lat="59.012335" lon="17.174279">
        <ele>50.4</ele>
        <time>2017-09-03T11:26:18Z</time>
      </trkpt>
      <trkpt lat="59.012406" lon="17.174332">
        <ele>50.8</ele>
        <time>2017-09-03T11:26:19Z</time>
      </trkpt>
      <trkpt lat="59.012482" lon="17.174379">
        <ele>51.2</ele>
        <time>2017-09-03T11:26:20Z</time>
      </trkpt>
      <trkpt lat="59.012564" lon="17.174426">
        <ele>51.4</ele>
        <time>2017-09-03T11:26:21Z</time>
      </trkpt>
      <trkpt lat="59.012655" lon="17.174471">
        <ele>51.4</ele>
        <time>2017-09-03T11:26:22Z</time>
      </trkpt>
      <trkpt lat="59.012752" lon="17.17452">
        <ele>51.4</ele>
        <time>2017-09-03T11:26:23Z</time>
      </trkpt>
      <trkpt lat="59.012858" lon="17.17457">
        <ele>51.6</ele>
        <time>2017-09-03T11:26:24Z</time>
      </trkpt>
      <trkpt lat="59.012958" lon="17.174622">
        <ele>51.6</ele>
        <time>2017-09-03T11:26:25Z</time>
      </trkpt>
      <trkpt lat="59.013057" lon="17.174672">
        <ele>51.6</ele>
        <time>2017-09-03T11:26:26Z</time>
      </trkpt>
      <trkpt lat="59.013155" lon="17.174724">
        <ele>51.6</ele>
        <time>2017-09-03T11:26:27Z</time>
      </trkpt>
      <trkpt lat="59.013251" lon="17.174774">
        <ele>51.6</ele>
        <time>2017-09-03T11:26:28Z</time>
      </trkpt>
      <trkpt lat="59.013345" lon="17.174824">
        <ele>51.4</ele>
        <time>2017-09-03T11:26:29Z</time>
      </trkpt>
      <trkpt lat="59.013434" lon="17.174873">
        <ele>51.2</ele>
        <time>2017-09-03T11:26:30Z</time>
      </trkpt>
      <trkpt lat="59.013519" lon="17.17492">
        <ele>51</ele>
        <time>2017-09-03T11:26:31Z</time>
      </trkpt>
      <trkpt lat="59.013602" lon="17.174961">
        <ele>50.8</ele>
        <time>2017-09-03T11:26:32Z</time>
      </trkpt>
      <trkpt lat="59.013683" lon="17.174996">
        <ele>50.8</ele>
        <time>2017-09-03T11:26:33Z</time>
      </trkpt>
      <trkpt lat="59.013764" lon="17.175025">
        <ele>50.8</ele>
        <time>2017-09-03T11:26:34Z</time>
      </trkpt>
      <trkpt lat="59.013845" lon="17.175056">
        <ele>50.4</ele>
        <time>2017-09-03T11:26:35Z</time>
      </trkpt>
      <trkpt lat="59.013926" lon="17.175095">
        <ele>50.2</ele>
        <time>2017-09-03T11:26:36Z</time>
      </trkpt>
      <trkpt lat="59.014009" lon="17.175141">
        <ele>50.2</ele>
        <time>2017-09-03T11:26:37Z</time>
      </trkpt>
      <trkpt lat="59.014092" lon="17.175187">
        <ele>50.2</ele>
        <time>2017-09-03T11:26:38Z</time>
      </trkpt>
      <trkpt lat="59.014174" lon="17.17523">
        <ele>50</ele>
        <time>2017-09-03T11:26:39Z</time>
      </trkpt>
      <trkpt lat="59.014254" lon="17.175273">
        <ele>50</ele>
        <time>2017-09-03T11:26:40Z</time>
      </trkpt>
      <trkpt lat="59.014333" lon="17.175319">
        <ele>50</ele>
        <time>2017-09-03T11:26:41Z</time>
      </trkpt>
      <trkpt lat="59.01441" lon="17.175365">
        <ele>50</ele>
        <time>2017-09-03T11:26:42Z</time>
      </trkpt>
      <trkpt lat="59.014486" lon="17.175412">
        <ele>50</ele>
        <time>2017-09-03T11:26:43Z</time>
      </trkpt>
      <trkpt lat="59.014561" lon="17.175458">
        <ele>50</ele>
        <time>2017-09-03T11:26:44Z</time>
      </trkpt>
      <trkpt lat="59.014637" lon="17.175506">
        <ele>50</ele>
        <time>2017-09-03T11:26:45Z</time>
      </trkpt>
      <trkpt lat="59.014711" lon="17.175558">
        <ele>50.8</ele>
        <time>2017-09-03T11:26:46Z</time>
      </trkpt>
      <trkpt lat="59.014782" lon="17.175614">
        <ele>51.2</ele>
        <time>2017-09-03T11:26:47Z</time>
      </trkpt>
      <trkpt lat="59.014851" lon="17.175674">
        <ele>51.4</ele>
        <time>2017-09-03T11:26:48Z</time>
      </trkpt>
      <trkpt lat="59.014919" lon="17.175736">
        <ele>51.6</ele>
        <time>2017-09-03T11:26:49Z</time>
      </trkpt>
      <trkpt lat="59.014986" lon="17.175799">
        <ele>51.6</ele>
        <time>2017-09-03T11:26:50Z</time>
      </trkpt>
      <trkpt lat="59.015052" lon="17.175865">
        <ele>52</ele>
        <time>2017-09-03T11:26:51Z</time>
      </trkpt>
      <trkpt lat="59.01512" lon="17.175935">
        <ele>52.2</ele>
        <time>2017-09-03T11:26:52Z</time>
      </trkpt>
      <trkpt lat="59.01519" lon="17.176004">
        <ele>52.6</ele>
        <time>2017-09-03T11:26:53Z</time>
      </trkpt>
      <trkpt lat="59.015259" lon="17.176077">
        <ele>53</ele>
        <time>2017-09-03T11:26:54Z</time>
      </trkpt>
      <trkpt lat="59.015328" lon="17.176153">
        <ele>53.4</ele>
        <time>2017-09-03T11:26:55Z</time>
      </trkpt>
      <trkpt lat="59.015399" lon="17.176231">
        <ele>53.6</ele>
        <time>2017-09-03T11:26:56Z</time>
      </trkpt>
      <trkpt lat="59.015472" lon="17.176308">
        <ele>54</ele>
        <time>2017-09-03T11:26:57Z</time>
      </trkpt>
      <trkpt lat="59.015545" lon="17.176382">
        <ele>54.4</ele>
        <time>2017-09-03T11:26:58Z</time>
      </trkpt>
      <trkpt lat="59.015618" lon="17.176458">
        <ele>54.8</ele>
        <time>2017-09-03T11:26:59Z</time>
      </trkpt>
      <trkpt lat="59.015689" lon="17.176533">
        <ele>55.2</ele>
        <time>2017-09-03T11:27:00Z</time>
      </trkpt>
      <trkpt lat="59.015759" lon="17.176605">
        <ele>55.4</ele>
        <time>2017-09-03T11:27:01Z</time>
      </trkpt>
      <trkpt lat="59.015825" lon="17.176673">
        <ele>55.6</ele>
        <time>2017-09-03T11:27:02Z</time>
      </trkpt>
      <trkpt lat="59.015889" lon="17.17674">
        <ele>55.8</ele>
        <time>2017-09-03T11:27:03Z</time>
      </trkpt>
      <trkpt lat="59.015949" lon="17.176809">
        <ele>56</ele>
        <time>2017-09-03T11:27:04Z</time>
      </trkpt>
      <trkpt lat="59.016009" lon="17.176883">
        <ele>56</ele>
        <time>2017-09-03T11:27:05Z</time>
      </trkpt>
      <trkpt lat="59.016069" lon="17.176968">
        <ele>56.2</ele>
        <time>2017-09-03T11:27:06Z</time>
      </trkpt>
      <trkpt lat="59.016121" lon="17.177068">
        <ele>56.2</ele>
        <time>2017-09-03T11:27:07Z</time>
      </trkpt>
      <trkpt lat="59.016172" lon="17.17718">
        <ele>56.4</ele>
        <time>2017-09-03T11:27:08Z</time>
      </trkpt>
      <trkpt lat="59.016219" lon="17.177303">
        <ele>56.6</ele>
        <time>2017-09-03T11:27:09Z</time>
      </trkpt>
      <trkpt lat="59.016262" lon="17.177433">
        <ele>56.8</ele>
        <time>2017-09-03T11:27:10Z</time>
      </trkpt>
      <trkpt lat="59.016301" lon="17.177575">
        <ele>57</ele>
        <time>2017-09-03T11:27:11Z</time>
      </trkpt>
      <trkpt lat="59.016331" lon="17.177727">
        <ele>57</ele>
        <time>2017-09-03T11:27:12Z</time>
      </trkpt>
      <trkpt lat="59.016354" lon="17.177884">
        <ele>57</ele>
        <time>2017-09-03T11:27:13Z</time>
      </trkpt>
      <trkpt lat="59.016385" lon="17.178043">
        <ele>57</ele>
        <time>2017-09-03T11:27:14Z</time>
      </trkpt>
      <trkpt lat="59.016422" lon="17.178202">
        <ele>57.2</ele>
        <time>2017-09-03T11:27:15Z</time>
      </trkpt>
      <trkpt lat="59.016474" lon="17.178352">
        <ele>57.2</ele>
        <time>2017-09-03T11:27:16Z</time>
      </trkpt>
      <trkpt lat="59.016542" lon="17.178491">
        <ele>57.2</ele>
        <time>2017-09-03T11:27:17Z</time>
      </trkpt>
      <trkpt lat="59.01662" lon="17.178605">
        <ele>57.2</ele>
        <time>2017-09-03T11:27:18Z</time>
      </trkpt>
      <trkpt lat="59.01671" lon="17.178696">
        <ele>57</ele>
        <time>2017-09-03T11:27:19Z</time>
      </trkpt>
      <trkpt lat="59.016801" lon="17.178778">
        <ele>56.8</ele>
        <time>2017-09-03T11:27:20Z</time>
      </trkpt>
      <trkpt lat="59.016891" lon="17.178859">
        <ele>56.4</ele>
        <time>2017-09-03T11:27:21Z</time>
      </trkpt>
      <trkpt lat="59.016985" lon="17.178933">
        <ele>56</ele>
        <time>2017-09-03T11:27:22Z</time>
      </trkpt>
      <trkpt lat="59.017078" lon="17.179003">
        <ele>55.2</ele>
        <time>2017-09-03T11:27:23Z</time>
      </trkpt>
      <trkpt lat="59.017166" lon="17.179074">
        <ele>54.4</ele>
        <time>2017-09-03T11:27:24Z</time>
      </trkpt>
      <trkpt lat="59.017255" lon="17.179149">
        <ele>53.2</ele>
        <time>2017-09-03T11:27:25Z</time>
      </trkpt>
      <trkpt lat="59.017335" lon="17.179225">
        <ele>52.4</ele>
        <time>2017-09-03T11:27:26Z</time>
      </trkpt>
      <trkpt lat="59.017409" lon="17.179303">
        <ele>52</ele>
        <time>2017-09-03T11:27:27Z</time>
      </trkpt>
      <trkpt lat="59.017481" lon="17.179382">
        <ele>51.6</ele>
        <time>2017-09-03T11:27:28Z</time>
      </trkpt>
      <trkpt lat="59.017563" lon="17.179465">
        <ele>51.6</ele>
        <time>2017-09-03T11:27:29Z</time>
      </trkpt>
      <trkpt lat="59.017637" lon="17.179555">
        <ele>51.4</ele>
        <time>2017-09-03T11:27:30Z</time>
      </trkpt>
      <trkpt lat="59.017712" lon="17.179644">
        <ele>51.4</ele>
        <time>2017-09-03T11:27:31Z</time>
      </trkpt>
      <trkpt lat="59.01779" lon="17.179726">
        <ele>51.4</ele>
        <time>2017-09-03T11:27:32Z</time>
      </trkpt>
      <trkpt lat="59.017865" lon="17.179801">
        <ele>51.4</ele>
        <time>2017-09-03T11:27:33Z</time>
      </trkpt>
      <trkpt lat="59.017939" lon="17.179872">
        <ele>51.4</ele>
        <time>2017-09-03T11:27:34Z</time>
      </trkpt>
      <trkpt lat="59.018007" lon="17.179949">
        <ele>51.4</ele>
        <time>2017-09-03T11:27:35Z</time>
      </trkpt>
      <trkpt lat="59.018074" lon="17.180028">
        <ele>51.4</ele>
        <time>2017-09-03T11:27:36Z</time>
      </trkpt>
      <trkpt lat="59.018141" lon="17.18011">
        <ele>51.4</ele>
        <time>2017-09-03T11:27:37Z</time>
      </trkpt>
      <trkpt lat="59.018216" lon="17.1802">
        <ele>51.6</ele>
        <time>2017-09-03T11:27:38Z</time>
      </trkpt>
      <trkpt lat="59.018294" lon="17.180296">
        <ele>51.6</ele>
        <time>2017-09-03T11:27:39Z</time>
      </trkpt>
      <trkpt lat="59.018372" lon="17.180394">
        <ele>51.8</ele>
        <time>2017-09-03T11:27:40Z</time>
      </trkpt>
      <trkpt lat="59.01845" lon="17.180492">
        <ele>52.6</ele>
        <time>2017-09-03T11:27:41Z</time>
      </trkpt>
      <trkpt lat="59.018524" lon="17.180594">
        <ele>53.2</ele>
        <time>2017-09-03T11:27:42Z</time>
      </trkpt>
      <trkpt lat="59.018594" lon="17.1807">
        <ele>53.4</ele>
        <time>2017-09-03T11:27:43Z</time>
      </trkpt>
      <trkpt lat="59.018662" lon="17.180804">
        <ele>53.6</ele>
        <time>2017-09-03T11:27:44Z</time>
      </trkpt>
      <trkpt lat="59.01873" lon="17.180907">
        <ele>53.6</ele>
        <time>2017-09-03T11:27:45Z</time>
      </trkpt>
      <trkpt lat="59.018794" lon="17.18101">
        <ele>53.8</ele>
        <time>2017-09-03T11:27:46Z</time>
      </trkpt>
      <trkpt lat="59.018857" lon="17.181107">
        <ele>53.8</ele>
        <time>2017-09-03T11:27:47Z</time>
      </trkpt>
      <trkpt lat="59.01892" lon="17.181195">
        <ele>53.8</ele>
        <time>2017-09-03T11:27:48Z</time>
      </trkpt>
      <trkpt lat="59.018984" lon="17.181269">
        <ele>54</ele>
        <time>2017-09-03T11:27:49Z</time>
      </trkpt>
      <trkpt lat="59.019055" lon="17.181325">
        <ele>54</ele>
        <time>2017-09-03T11:27:50Z</time>
      </trkpt>
      <trkpt lat="59.019128" lon="17.181368">
        <ele>54</ele>
        <time>2017-09-03T11:27:51Z</time>
      </trkpt>
      <trkpt lat="59.019208" lon="17.1814">
        <ele>54</ele>
        <time>2017-09-03T11:27:52Z</time>
      </trkpt>
      <trkpt lat="59.019289" lon="17.181419">
        <ele>54</ele>
        <time>2017-09-03T11:27:53Z</time>
      </trkpt>
      <trkpt lat="59.019367" lon="17.181434">
        <ele>54</ele>
        <time>2017-09-03T11:27:54Z</time>
      </trkpt>
      <trkpt lat="59.019442" lon="17.181447">
        <ele>54</ele>
        <time>2017-09-03T11:27:55Z</time>
      </trkpt>
      <trkpt lat="59.019522" lon="17.181462">
        <ele>54.2</ele>
        <time>2017-09-03T11:27:56Z</time>
      </trkpt>
      <trkpt lat="59.019601" lon="17.181493">
        <ele>54.2</ele>
        <time>2017-09-03T11:27:57Z</time>
      </trkpt>
      <trkpt lat="59.019682" lon="17.181538">
        <ele>54.4</ele>
        <time>2017-09-03T11:27:58Z</time>
      </trkpt>
      <trkpt lat="59.019764" lon="17.181591">
        <ele>55</ele>
        <time>2017-09-03T11:27:59Z</time>
      </trkpt>
      <trkpt lat="59.019846" lon="17.181653">
        <ele>55.8</ele>
        <time>2017-09-03T11:28:00Z</time>
      </trkpt>
      <trkpt lat="59.019932" lon="17.181727">
        <ele>56.2</ele>
        <time>2017-09-03T11:28:01Z</time>
      </trkpt>
      <trkpt lat="59.020019" lon="17.181816">
        <ele>56.6</ele>
        <time>2017-09-03T11:28:02Z</time>
      </trkpt>
      <trkpt lat="59.020099" lon="17.181928">
        <ele>56.6</ele>
        <time>2017-09-03T11:28:03Z</time>
      </trkpt>
      <trkpt lat="59.020177" lon="17.182054">
        <ele>56.8</ele>
        <time>2017-09-03T11:28:04Z</time>
      </trkpt>
      <trkpt lat="59.02025" lon="17.182192">
        <ele>56.8</ele>
        <time>2017-09-03T11:28:05Z</time>
      </trkpt>
      <trkpt lat="59.020319" lon="17.182332">
        <ele>56.8</ele>
        <time>2017-09-03T11:28:06Z</time>
      </trkpt>
      <trkpt lat="59.020385" lon="17.182473">
        <ele>56.8</ele>
        <time>2017-09-03T11:28:07Z</time>
      </trkpt>
      <trkpt lat="59.02045" lon="17.18261">
        <ele>56.8</ele>
        <time>2017-09-03T11:28:08Z</time>
      </trkpt>
      <trkpt lat="59.020512" lon="17.182743">
        <ele>56.8</ele>
        <time>2017-09-03T11:28:09Z</time>
      </trkpt>
      <trkpt lat="59.020572" lon="17.182872">
        <ele>56.8</ele>
        <time>2017-09-03T11:28:10Z</time>
      </trkpt>
      <trkpt lat="59.020625" lon="17.183004">
        <ele>56.8</ele>
        <time>2017-09-03T11:28:11Z</time>
      </trkpt>
      <trkpt lat="59.020672" lon="17.183146">
        <ele>56.8</ele>
        <time>2017-09-03T11:28:12Z</time>
      </trkpt>
      <trkpt lat="59.020716" lon="17.183293">
        <ele>57</ele>
        <time>2017-09-03T11:28:13Z</time>
      </trkpt>
      <trkpt lat="59.020757" lon="17.18344">
        <ele>57</ele>
        <time>2017-09-03T11:28:14Z</time>
      </trkpt>
      <trkpt lat="59.020794" lon="17.183593">
        <ele>57</ele>
        <time>2017-09-03T11:28:15Z</time>
      </trkpt>
      <trkpt lat="59.020827" lon="17.183747">
        <ele>56.8</ele>
        <time>2017-09-03T11:28:16Z</time>
      </trkpt>
      <trkpt lat="59.020862" lon="17.183896">
        <ele>56.8</ele>
        <time>2017-09-03T11:28:17Z</time>
      </trkpt>
      <trkpt lat="59.0209" lon="17.184042">
        <ele>56.8</ele>
        <time>2017-09-03T11:28:18Z</time>
      </trkpt>
      <trkpt lat="59.020939" lon="17.184184">
        <ele>56.8</ele>
        <time>2017-09-03T11:28:19Z</time>
      </trkpt>
      <trkpt lat="59.020981" lon="17.184327">
        <ele>56.8</ele>
        <time>2017-09-03T11:28:20Z</time>
      </trkpt>
      <trkpt lat="59.021024" lon="17.184467">
        <ele>56.8</ele>
        <time>2017-09-03T11:28:21Z</time>
      </trkpt>
      <trkpt lat="59.021069" lon="17.184603">
        <ele>56.8</ele>
        <time>2017-09-03T11:28:22Z</time>
      </trkpt>
      <trkpt lat="59.02112" lon="17.184732">
        <ele>56.8</ele>
        <time>2017-09-03T11:28:23Z</time>
      </trkpt>
      <trkpt lat="59.021177" lon="17.184852">
        <ele>56.8</ele>
        <time>2017-09-03T11:28:24Z</time>
      </trkpt>
      <trkpt lat="59.021243" lon="17.184958">
        <ele>57</ele>
        <time>2017-09-03T11:28:25Z</time>
      </trkpt>
      <trkpt lat="59.021317" lon="17.185056">
        <ele>57.2</ele>
        <time>2017-09-03T11:28:26Z</time>
      </trkpt>
      <trkpt lat="59.021399" lon="17.185139">
        <ele>57.4</ele>
        <time>2017-09-03T11:28:27Z</time>
      </trkpt>
      <trkpt lat="59.021485" lon="17.185199">
        <ele>57.4</ele>
        <time>2017-09-03T11:28:28Z</time>
      </trkpt>
      <trkpt lat="59.021575" lon="17.185232">
        <ele>57.8</ele>
        <time>2017-09-03T11:28:29Z</time>
      </trkpt>
      <trkpt lat="59.021665" lon="17.185246">
        <ele>58.2</ele>
        <time>2017-09-03T11:28:30Z</time>
      </trkpt>
      <trkpt lat="59.021754" lon="17.185251">
        <ele>58.4</ele>
        <time>2017-09-03T11:28:31Z</time>
      </trkpt>
      <trkpt lat="59.021841" lon="17.185246">
        <ele>58.4</ele>
        <time>2017-09-03T11:28:32Z</time>
      </trkpt>
      <trkpt lat="59.021926" lon="17.185236">
        <ele>58.4</ele>
        <time>2017-09-03T11:28:33Z</time>
      </trkpt>
      <trkpt lat="59.022006" lon="17.185221">
        <ele>58.6</ele>
        <time>2017-09-03T11:28:34Z</time>
      </trkpt>
      <trkpt lat="59.022084" lon="17.185194">
        <ele>58.8</ele>
        <time>2017-09-03T11:28:35Z</time>
      </trkpt>
      <trkpt lat="59.022163" lon="17.185157">
        <ele>58.8</ele>
        <time>2017-09-03T11:28:36Z</time>
      </trkpt>
      <trkpt lat="59.022242" lon="17.185113">
        <ele>59</ele>
        <time>2017-09-03T11:28:37Z</time>
      </trkpt>
      <trkpt lat="59.022321" lon="17.185063">
        <ele>59.2</ele>
        <time>2017-09-03T11:28:38Z</time>
      </trkpt>
      <trkpt lat="59.022399" lon="17.185011">
        <ele>59.2</ele>
        <time>2017-09-03T11:28:39Z</time>
      </trkpt>
      <trkpt lat="59.022475" lon="17.184951">
        <ele>59.4</ele>
        <time>2017-09-03T11:28:40Z</time>
      </trkpt>
      <trkpt lat="59.022551" lon="17.184892">
        <ele>59.4</ele>
        <time>2017-09-03T11:28:41Z</time>
      </trkpt>
      <trkpt lat="59.022629" lon="17.184843">
        <ele>59.6</ele>
        <time>2017-09-03T11:28:42Z</time>
      </trkpt>
      <trkpt lat="59.022709" lon="17.184817">
        <ele>60.6</ele>
        <time>2017-09-03T11:28:43Z</time>
      </trkpt>
      <trkpt lat="59.022789" lon="17.184814">
        <ele>61</ele>
        <time>2017-09-03T11:28:44Z</time>
      </trkpt>
      <trkpt lat="59.02287" lon="17.184834">
        <ele>61.2</ele>
        <time>2017-09-03T11:28:45Z</time>
      </trkpt>
      <trkpt lat="59.022946" lon="17.18488">
        <ele>61.4</ele>
        <time>2017-09-03T11:28:46Z</time>
      </trkpt>
      <trkpt lat="59.023009" lon="17.18497">
        <ele>61.6</ele>
        <time>2017-09-03T11:28:47Z</time>
      </trkpt>
      <trkpt lat="59.023068" lon="17.185088">
        <ele>61.8</ele>
        <time>2017-09-03T11:28:48Z</time>
      </trkpt>
      <trkpt lat="59.023123" lon="17.185226">
        <ele>61.8</ele>
        <time>2017-09-03T11:28:49Z</time>
      </trkpt>
      <trkpt lat="59.023174" lon="17.185386">
        <ele>61.8</ele>
        <time>2017-09-03T11:28:50Z</time>
      </trkpt>
      <trkpt lat="59.023219" lon="17.185547">
        <ele>62</ele>
        <time>2017-09-03T11:28:51Z</time>
      </trkpt>
      <trkpt lat="59.023261" lon="17.185714">
        <ele>62</ele>
        <time>2017-09-03T11:28:52Z</time>
      </trkpt>
      <trkpt lat="59.0233" lon="17.185881">
        <ele>62</ele>
        <time>2017-09-03T11:28:53Z</time>
      </trkpt>
      <trkpt lat="59.023342" lon="17.186038">
        <ele>62</ele>
        <time>2017-09-03T11:28:54Z</time>
      </trkpt>
      <trkpt lat="59.023384" lon="17.186193">
        <ele>62</ele>
        <time>2017-09-03T11:28:55Z</time>
      </trkpt>
      <trkpt lat="59.023426" lon="17.18634">
        <ele>62</ele>
        <time>2017-09-03T11:28:56Z</time>
      </trkpt>
      <trkpt lat="59.023472" lon="17.186478">
        <ele>62</ele>
        <time>2017-09-03T11:28:57Z</time>
      </trkpt>
      <trkpt lat="59.023517" lon="17.186614">
        <ele>62</ele>
        <time>2017-09-03T11:28:58Z</time>
      </trkpt>
      <trkpt lat="59.023561" lon="17.186746">
        <ele>61.8</ele>
        <time>2017-09-03T11:28:59Z</time>
      </trkpt>
      <trkpt lat="59.023603" lon="17.186876">
        <ele>61.8</ele>
        <time>2017-09-03T11:29:00Z</time>
      </trkpt>
      <trkpt lat="59.023645" lon="17.187008">
        <ele>61.8</ele>
        <time>2017-09-03T11:29:01Z</time>
      </trkpt>
      <trkpt lat="59.023688" lon="17.187137">
        <ele>61.6</ele>
        <time>2017-09-03T11:29:02Z</time>
      </trkpt>
      <trkpt lat="59.023732" lon="17.187261">
        <ele>61.4</ele>
        <time>2017-09-03T11:29:03Z</time>
      </trkpt>
      <trkpt lat="59.023775" lon="17.18739">
        <ele>61.4</ele>
        <time>2017-09-03T11:29:04Z</time>
      </trkpt>
      <trkpt lat="59.023819" lon="17.187523">
        <ele>61.2</ele>
        <time>2017-09-03T11:29:05Z</time>
      </trkpt>
      <trkpt lat="59.023861" lon="17.187658">
        <ele>61.2</ele>
        <time>2017-09-03T11:29:06Z</time>
      </trkpt>
      <trkpt lat="59.023904" lon="17.187795">
        <ele>61.2</ele>
        <time>2017-09-03T11:29:07Z</time>
      </trkpt>
      <trkpt lat="59.023945" lon="17.187931">
        <ele>61.2</ele>
        <time>2017-09-03T11:29:08Z</time>
      </trkpt>
      <trkpt lat="59.023979" lon="17.188067">
        <ele>61.2</ele>
        <time>2017-09-03T11:29:09Z</time>
      </trkpt>
      <trkpt lat="59.024013" lon="17.188204">
        <ele>61.2</ele>
        <time>2017-09-03T11:29:10Z</time>
      </trkpt>
      <trkpt lat="59.024053" lon="17.188345">
        <ele>61.4</ele>
        <time>2017-09-03T11:29:11Z</time>
      </trkpt>
      <trkpt lat="59.024093" lon="17.188483">
        <ele>61.6</ele>
        <time>2017-09-03T11:29:12Z</time>
      </trkpt>
      <trkpt lat="59.024139" lon="17.188624">
        <ele>61.6</ele>
        <time>2017-09-03T11:29:13Z</time>
      </trkpt>
      <trkpt lat="59.024192" lon="17.188766">
        <ele>61.6</ele>
        <time>2017-09-03T11:29:14Z</time>
      </trkpt>
      <trkpt lat="59.024251" lon="17.18891">
        <ele>61.6</ele>
        <time>2017-09-03T11:29:15Z</time>
      </trkpt>
      <trkpt lat="59.024315" lon="17.189043">
        <ele>61.6</ele>
        <time>2017-09-03T11:29:16Z</time>
      </trkpt>
      <trkpt lat="59.024383" lon="17.189172">
        <ele>61.6</ele>
        <time>2017-09-03T11:29:17Z</time>
      </trkpt>
      <trkpt lat="59.024451" lon="17.1893">
        <ele>61.4</ele>
        <time>2017-09-03T11:29:18Z</time>
      </trkpt>
      <trkpt lat="59.024518" lon="17.189428">
        <ele>61.4</ele>
        <time>2017-09-03T11:29:19Z</time>
      </trkpt>
      <trkpt lat="59.024589" lon="17.189554">
        <ele>61.2</ele>
        <time>2017-09-03T11:29:20Z</time>
      </trkpt>
      <trkpt lat="59.024659" lon="17.189686">
        <ele>61.2</ele>
        <time>2017-09-03T11:29:21Z</time>
      </trkpt>
      <trkpt lat="59.024725" lon="17.189825">
        <ele>61.2</ele>
        <time>2017-09-03T11:29:22Z</time>
      </trkpt>
      <trkpt lat="59.024785" lon="17.189964">
        <ele>61.2</ele>
        <time>2017-09-03T11:29:23Z</time>
      </trkpt>
      <trkpt lat="59.024842" lon="17.190113">
        <ele>61.2</ele>
        <time>2017-09-03T11:29:24Z</time>
      </trkpt>
      <trkpt lat="59.024896" lon="17.190265">
        <ele>61</ele>
        <time>2017-09-03T11:29:25Z</time>
      </trkpt>
      <trkpt lat="59.024946" lon="17.190414">
        <ele>61</ele>
        <time>2017-09-03T11:29:26Z</time>
      </trkpt>
      <trkpt lat="59.024992" lon="17.190566">
        <ele>60.8</ele>
        <time>2017-09-03T11:29:27Z</time>
      </trkpt>
      <trkpt lat="59.025036" lon="17.190726">
        <ele>60.8</ele>
        <time>2017-09-03T11:29:28Z</time>
      </trkpt>
      <trkpt lat="59.025077" lon="17.190891">
        <ele>60.8</ele>
        <time>2017-09-03T11:29:29Z</time>
      </trkpt>
      <trkpt lat="59.025117" lon="17.191061">
        <ele>60.6</ele>
        <time>2017-09-03T11:29:30Z</time>
      </trkpt>
      <trkpt lat="59.025162" lon="17.191242">
        <ele>60.2</ele>
        <time>2017-09-03T11:29:31Z</time>
      </trkpt>
      <trkpt lat="59.02521" lon="17.191438">
        <ele>60</ele>
        <time>2017-09-03T11:29:32Z</time>
      </trkpt>
      <trkpt lat="59.025262" lon="17.191639">
        <ele>59.8</ele>
        <time>2017-09-03T11:29:33Z</time>
      </trkpt>
      <trkpt lat="59.025313" lon="17.191836">
        <ele>59.6</ele>
        <time>2017-09-03T11:29:34Z</time>
      </trkpt>
      <trkpt lat="59.025366" lon="17.192034">
        <ele>59.4</ele>
        <time>2017-09-03T11:29:35Z</time>
      </trkpt>
      <trkpt lat="59.025422" lon="17.19224">
        <ele>59.2</ele>
        <time>2017-09-03T11:29:36Z</time>
      </trkpt>
      <trkpt lat="59.025477" lon="17.192455">
        <ele>58.8</ele>
        <time>2017-09-03T11:29:37Z</time>
      </trkpt>
      <trkpt lat="59.025525" lon="17.192665">
        <ele>58.2</ele>
        <time>2017-09-03T11:29:38Z</time>
      </trkpt>
      <trkpt lat="59.025563" lon="17.19288">
        <ele>57.4</ele>
        <time>2017-09-03T11:29:39Z</time>
      </trkpt>
      <trkpt lat="59.025592" lon="17.193101">
        <ele>56.2</ele>
        <time>2017-09-03T11:29:40Z</time>
      </trkpt>
      <trkpt lat="59.025621" lon="17.193325">
        <ele>55.8</ele>
        <time>2017-09-03T11:29:41Z</time>
      </trkpt>
      <trkpt lat="59.025645" lon="17.193547">
        <ele>54.8</ele>
        <time>2017-09-03T11:29:42Z</time>
      </trkpt>
      <trkpt lat="59.025661" lon="17.193769">
        <ele>54.4</ele>
        <time>2017-09-03T11:29:43Z</time>
      </trkpt>
      <trkpt lat="59.025664" lon="17.193983">
        <ele>54.2</ele>
        <time>2017-09-03T11:29:44Z</time>
      </trkpt>
      <trkpt lat="59.025652" lon="17.194188">
        <ele>54</ele>
        <time>2017-09-03T11:29:45Z</time>
      </trkpt>
      <trkpt lat="59.025629" lon="17.194397">
        <ele>54</ele>
        <time>2017-09-03T11:29:46Z</time>
      </trkpt>
      <trkpt lat="59.025589" lon="17.194601">
        <ele>53.8</ele>
        <time>2017-09-03T11:29:47Z</time>
      </trkpt>
      <trkpt lat="59.025537" lon="17.1948">
        <ele>53.6</ele>
        <time>2017-09-03T11:29:48Z</time>
      </trkpt>
      <trkpt lat="59.025491" lon="17.195">
        <ele>53.4</ele>
        <time>2017-09-03T11:29:49Z</time>
      </trkpt>
      <trkpt lat="59.025465" lon="17.195214">
        <ele>53.2</ele>
        <time>2017-09-03T11:29:50Z</time>
      </trkpt>
      <trkpt lat="59.02546" lon="17.19544">
        <ele>52.8</ele>
        <time>2017-09-03T11:29:51Z</time>
      </trkpt>
      <trkpt lat="59.02547" lon="17.195671">
        <ele>52.8</ele>
        <time>2017-09-03T11:29:52Z</time>
      </trkpt>
      <trkpt lat="59.025492" lon="17.195894">
        <ele>52.6</ele>
        <time>2017-09-03T11:29:53Z</time>
      </trkpt>
      <trkpt lat="59.02553" lon="17.196098">
        <ele>52.6</ele>
        <time>2017-09-03T11:29:54Z</time>
      </trkpt>
      <trkpt lat="59.025586" lon="17.196269">
        <ele>52.6</ele>
        <time>2017-09-03T11:29:55Z</time>
      </trkpt>
      <trkpt lat="59.025652" lon="17.196423">
        <ele>52.6</ele>
        <time>2017-09-03T11:29:56Z</time>
      </trkpt>
      <trkpt lat="59.025724" lon="17.196543">
        <ele>52.6</ele>
        <time>2017-09-03T11:29:57Z</time>
      </trkpt>
      <trkpt lat="59.025806" lon="17.196649">
        <ele>52.6</ele>
        <time>2017-09-03T11:29:58Z</time>
      </trkpt>
      <trkpt lat="59.025894" lon="17.196755">
        <ele>52.6</ele>
        <time>2017-09-03T11:29:59Z</time>
      </trkpt>
      <trkpt lat="59.025988" lon="17.196869">
        <ele>52.4</ele>
        <time>2017-09-03T11:30:00Z</time>
      </trkpt>
      <trkpt lat="59.026082" lon="17.196995">
        <ele>51.8</ele>
        <time>2017-09-03T11:30:01Z</time>
      </trkpt>
      <trkpt lat="59.026174" lon="17.197142">
        <ele>51.4</ele>
        <time>2017-09-03T11:30:02Z</time>
      </trkpt>
      <trkpt lat="59.026261" lon="17.197307">
        <ele>51.2</ele>
        <time>2017-09-03T11:30:03Z</time>
      </trkpt>
      <trkpt lat="59.02634" lon="17.197492">
        <ele>51</ele>
        <time>2017-09-03T11:30:04Z</time>
      </trkpt>
      <trkpt lat="59.026408" lon="17.197709">
        <ele>51</ele>
        <time>2017-09-03T11:30:05Z</time>
      </trkpt>
      <trkpt lat="59.026452" lon="17.197949">
        <ele>50.8</ele>
        <time>2017-09-03T11:30:06Z</time>
      </trkpt>
      <trkpt lat="59.026484" lon="17.1982">
        <ele>50.6</ele>
        <time>2017-09-03T11:30:07Z</time>
      </trkpt>
      <trkpt lat="59.026514" lon="17.198456">
        <ele>50.4</ele>
        <time>2017-09-03T11:30:08Z</time>
      </trkpt>
      <trkpt lat="59.02654" lon="17.198716">
        <ele>48.8</ele>
        <time>2017-09-03T11:30:09Z</time>
      </trkpt>
      <trkpt lat="59.026563" lon="17.198979">
        <ele>48</ele>
        <time>2017-09-03T11:30:10Z</time>
      </trkpt>
      <trkpt lat="59.026589" lon="17.199251">
        <ele>47</ele>
        <time>2017-09-03T11:30:11Z</time>
      </trkpt>
      <trkpt lat="59.026619" lon="17.199524">
        <ele>46</ele>
        <time>2017-09-03T11:30:12Z</time>
      </trkpt>
      <trkpt lat="59.026649" lon="17.199799">
        <ele>45.4</ele>
        <time>2017-09-03T11:30:13Z</time>
      </trkpt>
      <trkpt lat="59.026679" lon="17.200072">
        <ele>44.4</ele>
        <time>2017-09-03T11:30:14Z</time>
      </trkpt>
      <trkpt lat="59.026707" lon="17.200344">
        <ele>42.6</ele>
        <time>2017-09-03T11:30:15Z</time>
      </trkpt>
      <trkpt lat="59.026736" lon="17.200615">
        <ele>41.2</ele>
        <time>2017-09-03T11:30:16Z</time>
      </trkpt>
      <trkpt lat="59.026763" lon="17.200881">
        <ele>39.8</ele>
        <time>2017-09-03T11:30:17Z</time>
      </trkpt>
      <trkpt lat="59.026796" lon="17.201131">
        <ele>39.2</ele>
        <time>2017-09-03T11:30:18Z</time>
      </trkpt>
      <trkpt lat="59.026838" lon="17.201362">
        <ele>38.8</ele>
        <time>2017-09-03T11:30:19Z</time>
      </trkpt>
      <trkpt lat="59.02689" lon="17.201569">
        <ele>38.6</ele>
        <time>2017-09-03T11:30:20Z</time>
      </trkpt>
      <trkpt lat="59.026953" lon="17.201753">
        <ele>38.6</ele>
        <time>2017-09-03T11:30:21Z</time>
      </trkpt>
      <trkpt lat="59.027029" lon="17.201908">
        <ele>38.6</ele>
        <time>2017-09-03T11:30:22Z</time>
      </trkpt>
      <trkpt lat="59.027105" lon="17.202043">
        <ele>38.6</ele>
        <time>2017-09-03T11:30:23Z</time>
      </trkpt>
      <trkpt lat="59.027184" lon="17.202162">
        <ele>38.6</ele>
        <time>2017-09-03T11:30:24Z</time>
      </trkpt>
      <trkpt lat="59.027266" lon="17.202271">
        <ele>38.6</ele>
        <time>2017-09-03T11:30:25Z</time>
      </trkpt>
      <trkpt lat="59.027343" lon="17.202379">
        <ele>38.6</ele>
        <time>2017-09-03T11:30:26Z</time>
      </trkpt>
      <trkpt lat="59.027416" lon="17.202489">
        <ele>38.6</ele>
        <time>2017-09-03T11:30:27Z</time>
      </trkpt>
      <trkpt lat="59.027488" lon="17.2026">
        <ele>38.6</ele>
        <time>2017-09-03T11:30:28Z</time>
      </trkpt>
      <trkpt lat="59.027558" lon="17.202716">
        <ele>39</ele>
        <time>2017-09-03T11:30:29Z</time>
      </trkpt>
      <trkpt lat="59.027626" lon="17.202835">
        <ele>39.4</ele>
        <time>2017-09-03T11:30:30Z</time>
      </trkpt>
      <trkpt lat="59.027689" lon="17.202958">
        <ele>40.4</ele>
        <time>2017-09-03T11:30:31Z</time>
      </trkpt>
      <trkpt lat="59.027744" lon="17.203092">
        <ele>41.2</ele>
        <time>2017-09-03T11:30:32Z</time>
      </trkpt>
      <trkpt lat="59.027797" lon="17.203229">
        <ele>42</ele>
        <time>2017-09-03T11:30:33Z</time>
      </trkpt>
      <trkpt lat="59.027849" lon="17.20337">
        <ele>42.6</ele>
        <time>2017-09-03T11:30:34Z</time>
      </trkpt>
      <trkpt lat="59.027898" lon="17.203511">
        <ele>43.4</ele>
        <time>2017-09-03T11:30:35Z</time>
      </trkpt>
      <trkpt lat="59.027942" lon="17.203653">
        <ele>44</ele>
        <time>2017-09-03T11:30:36Z</time>
      </trkpt>
      <trkpt lat="59.027987" lon="17.203795">
        <ele>45.2</ele>
        <time>2017-09-03T11:30:37Z</time>
      </trkpt>
      <trkpt lat="59.028024" lon="17.20393">
        <ele>45.8</ele>
        <time>2017-09-03T11:30:38Z</time>
      </trkpt>
      <trkpt lat="59.028063" lon="17.204064">
        <ele>46.4</ele>
        <time>2017-09-03T11:30:39Z</time>
      </trkpt>
      <trkpt lat="59.028102" lon="17.204205">
        <ele>47.2</ele>
        <time>2017-09-03T11:30:40Z</time>
      </trkpt>
      <trkpt lat="59.028134" lon="17.204355">
        <ele>47.4</ele>
        <time>2017-09-03T11:30:41Z</time>
      </trkpt>
      <trkpt lat="59.02816" lon="17.204518">
        <ele>47.8</ele>
        <time>2017-09-03T11:30:42Z</time>
      </trkpt>
      <trkpt lat="59.028179" lon="17.204699">
        <ele>48.2</ele>
        <time>2017-09-03T11:30:43Z</time>
      </trkpt>
      <trkpt lat="59.028189" lon="17.204884">
        <ele>48.6</ele>
        <time>2017-09-03T11:30:44Z</time>
      </trkpt>
      <trkpt lat="59.0282" lon="17.205072">
        <ele>48.8</ele>
        <time>2017-09-03T11:30:45Z</time>
      </trkpt>
      <trkpt lat="59.02821" lon="17.205259">
        <ele>49</ele>
        <time>2017-09-03T11:30:46Z</time>
      </trkpt>
      <trkpt lat="59.028219" lon="17.205448">
        <ele>49</ele>
        <time>2017-09-03T11:30:47Z</time>
      </trkpt>
      <trkpt lat="59.028227" lon="17.205636">
        <ele>49</ele>
        <time>2017-09-03T11:30:48Z</time>
      </trkpt>
      <trkpt lat="59.028236" lon="17.205825">
        <ele>49</ele>
        <time>2017-09-03T11:30:49Z</time>
      </trkpt>
      <trkpt lat="59.028244" lon="17.206013">
        <ele>49</ele>
        <time>2017-09-03T11:30:50Z</time>
      </trkpt>
      <trkpt lat="59.028252" lon="17.206197">
        <ele>49</ele>
        <time>2017-09-03T11:30:51Z</time>
      </trkpt>
      <trkpt lat="59.028262" lon="17.20638">
        <ele>49</ele>
        <time>2017-09-03T11:30:52Z</time>
      </trkpt>
      <trkpt lat="59.028274" lon="17.206566">
        <ele>49</ele>
        <time>2017-09-03T11:30:53Z</time>
      </trkpt>
      <trkpt lat="59.028286" lon="17.206755">
        <ele>49</ele>
        <time>2017-09-03T11:30:54Z</time>
      </trkpt>
      <trkpt lat="59.028295" lon="17.206942">
        <ele>49</ele>
        <time>2017-09-03T11:30:55Z</time>
      </trkpt>
      <trkpt lat="59.028303" lon="17.207127">
        <ele>48.8</ele>
        <time>2017-09-03T11:30:56Z</time>
      </trkpt>
      <trkpt lat="59.028309" lon="17.207309">
        <ele>48.8</ele>
        <time>2017-09-03T11:30:57Z</time>
      </trkpt>
      <trkpt lat="59.028316" lon="17.207488">
        <ele>48.8</ele>
        <time>2017-09-03T11:30:58Z</time>
      </trkpt>
      <trkpt lat="59.028323" lon="17.207669">
        <ele>48.8</ele>
        <time>2017-09-03T11:30:59Z</time>
      </trkpt>
      <trkpt lat="59.028329" lon="17.207846">
        <ele>48.8</ele>
        <time>2017-09-03T11:31:00Z</time>
      </trkpt>
      <trkpt lat="59.028337" lon="17.208026">
        <ele>48.8</ele>
        <time>2017-09-03T11:31:01Z</time>
      </trkpt>
      <trkpt lat="59.028347" lon="17.208205">
        <ele>48.8</ele>
        <time>2017-09-03T11:31:02Z</time>
      </trkpt>
      <trkpt lat="59.028356" lon="17.208381">
        <ele>48.6</ele>
        <time>2017-09-03T11:31:03Z</time>
      </trkpt>
      <trkpt lat="59.028366" lon="17.208558">
        <ele>48.6</ele>
        <time>2017-09-03T11:31:04Z</time>
      </trkpt>
      <trkpt lat="59.028377" lon="17.208734">
        <ele>48.6</ele>
        <time>2017-09-03T11:31:05Z</time>
      </trkpt>
      <trkpt lat="59.028384" lon="17.208907">
        <ele>48.6</ele>
        <time>2017-09-03T11:31:06Z</time>
      </trkpt>
      <trkpt lat="59.028394" lon="17.209084">
        <ele>48.6</ele>
        <time>2017-09-03T11:31:07Z</time>
      </trkpt>
      <trkpt lat="59.028403" lon="17.209256">
        <ele>48.8</ele>
        <time>2017-09-03T11:31:08Z</time>
      </trkpt>
      <trkpt lat="59.028413" lon="17.209423">
        <ele>48.8</ele>
        <time>2017-09-03T11:31:09Z</time>
      </trkpt>
      <trkpt lat="59.028425" lon="17.209592">
        <ele>48.8</ele>
        <time>2017-09-03T11:31:10Z</time>
      </trkpt>
      <trkpt lat="59.028439" lon="17.209762">
        <ele>48.8</ele>
        <time>2017-09-03T11:31:11Z</time>
      </trkpt>
      <trkpt lat="59.028462" lon="17.209935">
        <ele>48.8</ele>
        <time>2017-09-03T11:31:12Z</time>
      </trkpt>
      <trkpt lat="59.028497" lon="17.210108">
        <ele>48.8</ele>
        <time>2017-09-03T11:31:13Z</time>
      </trkpt>
      <trkpt lat="59.028547" lon="17.210276">
        <ele>48.8</ele>
        <time>2017-09-03T11:31:14Z</time>
      </trkpt>
      <trkpt lat="59.028612" lon="17.210436">
        <ele>48.8</ele>
        <time>2017-09-03T11:31:15Z</time>
      </trkpt>
      <trkpt lat="59.028691" lon="17.210577">
        <ele>48.6</ele>
        <time>2017-09-03T11:31:16Z</time>
      </trkpt>
      <trkpt lat="59.028782" lon="17.210699">
        <ele>48.6</ele>
        <time>2017-09-03T11:31:17Z</time>
      </trkpt>
      <trkpt lat="59.02888" lon="17.210802">
        <ele>48.6</ele>
        <time>2017-09-03T11:31:18Z</time>
      </trkpt>
      <trkpt lat="59.028988" lon="17.210888">
        <ele>48.2</ele>
        <time>2017-09-03T11:31:19Z</time>
      </trkpt>
      <trkpt lat="59.029094" lon="17.210967">
        <ele>47.6</ele>
        <time>2017-09-03T11:31:20Z</time>
      </trkpt>
      <trkpt lat="59.029201" lon="17.211042">
        <ele>47.2</ele>
        <time>2017-09-03T11:31:21Z</time>
      </trkpt>
      <trkpt lat="59.029306" lon="17.211113">
        <ele>46.8</ele>
        <time>2017-09-03T11:31:22Z</time>
      </trkpt>
      <trkpt lat="59.029412" lon="17.21118">
        <ele>46.4</ele>
        <time>2017-09-03T11:31:23Z</time>
      </trkpt>
      <trkpt lat="59.029518" lon="17.211246">
        <ele>45.6</ele>
        <time>2017-09-03T11:31:24Z</time>
      </trkpt>
      <trkpt lat="59.029624" lon="17.211312">
        <ele>45</ele>
        <time>2017-09-03T11:31:25Z</time>
      </trkpt>
      <trkpt lat="59.029728" lon="17.21138">
        <ele>44.6</ele>
        <time>2017-09-03T11:31:26Z</time>
      </trkpt>
      <trkpt lat="59.029831" lon="17.211445">
        <ele>44.4</ele>
        <time>2017-09-03T11:31:27Z</time>
      </trkpt>
      <trkpt lat="59.029933" lon="17.211507">
        <ele>44</ele>
        <time>2017-09-03T11:31:28Z</time>
      </trkpt>
      <trkpt lat="59.030036" lon="17.21157">
        <ele>43.6</ele>
        <time>2017-09-03T11:31:29Z</time>
      </trkpt>
      <trkpt lat="59.030138" lon="17.211634">
        <ele>43.4</ele>
        <time>2017-09-03T11:31:30Z</time>
      </trkpt>
      <trkpt lat="59.030242" lon="17.21171">
        <ele>43.2</ele>
        <time>2017-09-03T11:31:31Z</time>
      </trkpt>
      <trkpt lat="59.030345" lon="17.211801">
        <ele>42.8</ele>
        <time>2017-09-03T11:31:32Z</time>
      </trkpt>
      <trkpt lat="59.030447" lon="17.211908">
        <ele>42.2</ele>
        <time>2017-09-03T11:31:33Z</time>
      </trkpt>
      <trkpt lat="59.03055" lon="17.212022">
        <ele>41.8</ele>
        <time>2017-09-03T11:31:34Z</time>
      </trkpt>
      <trkpt lat="59.030654" lon="17.21214">
        <ele>41.4</ele>
        <time>2017-09-03T11:31:35Z</time>
      </trkpt>
      <trkpt lat="59.030759" lon="17.212259">
        <ele>41.2</ele>
        <time>2017-09-03T11:31:36Z</time>
      </trkpt>
      <trkpt lat="59.03086" lon="17.212376">
        <ele>41</ele>
        <time>2017-09-03T11:31:37Z</time>
      </trkpt>
      <trkpt lat="59.030961" lon="17.212489">
        <ele>40.8</ele>
        <time>2017-09-03T11:31:38Z</time>
      </trkpt>
      <trkpt lat="59.031063" lon="17.212602">
        <ele>40.8</ele>
        <time>2017-09-03T11:31:39Z</time>
      </trkpt>
      <trkpt lat="59.031162" lon="17.212715">
        <ele>40.6</ele>
        <time>2017-09-03T11:31:40Z</time>
      </trkpt>
      <trkpt lat="59.031259" lon="17.212827">
        <ele>40.2</ele>
        <time>2017-09-03T11:31:41Z</time>
      </trkpt>
      <trkpt lat="59.031351" lon="17.212939">
        <ele>39.8</ele>
        <time>2017-09-03T11:31:42Z</time>
      </trkpt>
      <trkpt lat="59.031441" lon="17.213047">
        <ele>39.4</ele>
        <time>2017-09-03T11:31:43Z</time>
      </trkpt>
      <trkpt lat="59.031532" lon="17.213151">
        <ele>39.2</ele>
        <time>2017-09-03T11:31:44Z</time>
      </trkpt>
      <trkpt lat="59.031621" lon="17.213254">
        <ele>39</ele>
        <time>2017-09-03T11:31:45Z</time>
      </trkpt>
      <trkpt lat="59.031709" lon="17.213355">
        <ele>39</ele>
        <time>2017-09-03T11:31:46Z</time>
      </trkpt>
      <trkpt lat="59.031796" lon="17.213456">
        <ele>39</ele>
        <time>2017-09-03T11:31:47Z</time>
      </trkpt>
      <trkpt lat="59.031884" lon="17.213559">
        <ele>39</ele>
        <time>2017-09-03T11:31:48Z</time>
      </trkpt>
      <trkpt lat="59.03197" lon="17.213665">
        <ele>39</ele>
        <time>2017-09-03T11:31:49Z</time>
      </trkpt>
      <trkpt lat="59.032056" lon="17.213776">
        <ele>39</ele>
        <time>2017-09-03T11:31:50Z</time>
      </trkpt>
      <trkpt lat="59.032137" lon="17.213888">
        <ele>39</ele>
        <time>2017-09-03T11:31:51Z</time>
      </trkpt>
      <trkpt lat="59.032211" lon="17.214004">
        <ele>39</ele>
        <time>2017-09-03T11:31:52Z</time>
      </trkpt>
      <trkpt lat="59.032279" lon="17.214121">
        <ele>39</ele>
        <time>2017-09-03T11:31:53Z</time>
      </trkpt>
      <trkpt lat="59.032343" lon="17.214239">
        <ele>39</ele>
        <time>2017-09-03T11:31:54Z</time>
      </trkpt>
      <trkpt lat="59.032402" lon="17.214356">
        <ele>39.2</ele>
        <time>2017-09-03T11:31:55Z</time>
      </trkpt>
      <trkpt lat="59.032461" lon="17.214469">
        <ele>39.2</ele>
        <time>2017-09-03T11:31:56Z</time>
      </trkpt>
      <trkpt lat="59.032519" lon="17.214581">
        <ele>39.6</ele>
        <time>2017-09-03T11:31:57Z</time>
      </trkpt>
      <trkpt lat="59.032572" lon="17.21469">
        <ele>39.8</ele>
        <time>2017-09-03T11:31:58Z</time>
      </trkpt>
      <trkpt lat="59.032623" lon="17.214797">
        <ele>40</ele>
        <time>2017-09-03T11:31:59Z</time>
      </trkpt>
      <trkpt lat="59.032674" lon="17.214903">
        <ele>40.2</ele>
        <time>2017-09-03T11:32:00Z</time>
      </trkpt>
      <trkpt lat="59.032722" lon="17.215009">
        <ele>40.6</ele>
        <time>2017-09-03T11:32:01Z</time>
      </trkpt>
      <trkpt lat="59.032772" lon="17.215116">
        <ele>41.4</ele>
        <time>2017-09-03T11:32:02Z</time>
      </trkpt>
      <trkpt lat="59.032821" lon="17.215222">
        <ele>42.8</ele>
        <time>2017-09-03T11:32:03Z</time>
      </trkpt>
      <trkpt lat="59.032872" lon="17.215322">
        <ele>43.2</ele>
        <time>2017-09-03T11:32:04Z</time>
      </trkpt>
      <trkpt lat="59.032921" lon="17.215421">
        <ele>43.8</ele>
        <time>2017-09-03T11:32:05Z</time>
      </trkpt>
      <trkpt lat="59.03297" lon="17.215526">
        <ele>44.8</ele>
        <time>2017-09-03T11:32:06Z</time>
      </trkpt>
      <trkpt lat="59.03302" lon="17.215637">
        <ele>45.6</ele>
        <time>2017-09-03T11:32:07Z</time>
      </trkpt>
      <trkpt lat="59.033069" lon="17.215755">
        <ele>46.2</ele>
        <time>2017-09-03T11:32:08Z</time>
      </trkpt>
      <trkpt lat="59.033115" lon="17.215876">
        <ele>46.6</ele>
        <time>2017-09-03T11:32:09Z</time>
      </trkpt>
      <trkpt lat="59.033159" lon="17.216008">
        <ele>46.8</ele>
        <time>2017-09-03T11:32:10Z</time>
      </trkpt>
      <trkpt lat="59.033195" lon="17.216147">
        <ele>47</ele>
        <time>2017-09-03T11:32:11Z</time>
      </trkpt>
      <trkpt lat="59.033228" lon="17.216293">
        <ele>47.2</ele>
        <time>2017-09-03T11:32:12Z</time>
      </trkpt>
      <trkpt lat="59.03326" lon="17.216444">
        <ele>47.2</ele>
        <time>2017-09-03T11:32:13Z</time>
      </trkpt>
      <trkpt lat="59.033288" lon="17.216598">
        <ele>47.2</ele>
        <time>2017-09-03T11:32:14Z</time>
      </trkpt>
      <trkpt lat="59.033315" lon="17.216759">
        <ele>47.4</ele>
        <time>2017-09-03T11:32:15Z</time>
      </trkpt>
      <trkpt lat="59.033342" lon="17.216921">
        <ele>47.6</ele>
        <time>2017-09-03T11:32:16Z</time>
      </trkpt>
      <trkpt lat="59.033366" lon="17.217083">
        <ele>47.6</ele>
        <time>2017-09-03T11:32:17Z</time>
      </trkpt>
      <trkpt lat="59.03339" lon="17.217246">
        <ele>47.8</ele>
        <time>2017-09-03T11:32:18Z</time>
      </trkpt>
      <trkpt lat="59.033415" lon="17.217406">
        <ele>47.8</ele>
        <time>2017-09-03T11:32:19Z</time>
      </trkpt>
      <trkpt lat="59.033439" lon="17.217564">
        <ele>48</ele>
        <time>2017-09-03T11:32:20Z</time>
      </trkpt>
      <trkpt lat="59.033463" lon="17.217717">
        <ele>48.2</ele>
        <time>2017-09-03T11:32:21Z</time>
      </trkpt>
      <trkpt lat="59.033489" lon="17.217861">
        <ele>48.4</ele>
        <time>2017-09-03T11:32:22Z</time>
      </trkpt>
      <trkpt lat="59.033516" lon="17.217996">
        <ele>48.4</ele>
        <time>2017-09-03T11:32:23Z</time>
      </trkpt>
      <trkpt lat="59.033544" lon="17.21813">
        <ele>48.4</ele>
        <time>2017-09-03T11:32:24Z</time>
      </trkpt>
      <trkpt lat="59.033575" lon="17.218266">
        <ele>48.4</ele>
        <time>2017-09-03T11:32:25Z</time>
      </trkpt>
      <trkpt lat="59.033604" lon="17.218406">
        <ele>48.4</ele>
        <time>2017-09-03T11:32:26Z</time>
      </trkpt>
      <trkpt lat="59.033633" lon="17.218551">
        <ele>48.6</ele>
        <time>2017-09-03T11:32:27Z</time>
      </trkpt>
      <trkpt lat="59.033659" lon="17.218699">
        <ele>48.6</ele>
        <time>2017-09-03T11:32:28Z</time>
      </trkpt>
      <trkpt lat="59.033683" lon="17.218846">
        <ele>48.6</ele>
        <time>2017-09-03T11:32:29Z</time>
      </trkpt>
      <trkpt lat="59.033703" lon="17.218995">
        <ele>48.6</ele>
        <time>2017-09-03T11:32:30Z</time>
      </trkpt>
      <trkpt lat="59.033719" lon="17.219146">
        <ele>48.6</ele>
        <time>2017-09-03T11:32:31Z</time>
      </trkpt>
      <trkpt lat="59.033735" lon="17.219298">
        <ele>48.6</ele>
        <time>2017-09-03T11:32:32Z</time>
      </trkpt>
      <trkpt lat="59.03375" lon="17.219451">
        <ele>48.6</ele>
        <time>2017-09-03T11:32:33Z</time>
      </trkpt>
      <trkpt lat="59.033763" lon="17.219606">
        <ele>48.6</ele>
        <time>2017-09-03T11:32:34Z</time>
      </trkpt>
      <trkpt lat="59.033776" lon="17.219759">
        <ele>48.6</ele>
        <time>2017-09-03T11:32:35Z</time>
      </trkpt>
      <trkpt lat="59.033792" lon="17.21991">
        <ele>48.6</ele>
        <time>2017-09-03T11:32:36Z</time>
      </trkpt>
      <trkpt lat="59.033808" lon="17.22006">
        <ele>48.6</ele>
        <time>2017-09-03T11:32:37Z</time>
      </trkpt>
      <trkpt lat="59.033827" lon="17.220206">
        <ele>48.6</ele>
        <time>2017-09-03T11:32:38Z</time>
      </trkpt>
      <trkpt lat="59.033847" lon="17.220352">
        <ele>48.4</ele>
        <time>2017-09-03T11:32:39Z</time>
      </trkpt>
      <trkpt lat="59.033869" lon="17.220498">
        <ele>48.4</ele>
        <time>2017-09-03T11:32:40Z</time>
      </trkpt>
      <trkpt lat="59.033889" lon="17.220646">
        <ele>48.4</ele>
        <time>2017-09-03T11:32:41Z</time>
      </trkpt>
      <trkpt lat="59.033908" lon="17.220793">
        <ele>48.4</ele>
        <time>2017-09-03T11:32:42Z</time>
      </trkpt>
      <trkpt lat="59.033928" lon="17.220938">
        <ele>48.4</ele>
        <time>2017-09-03T11:32:43Z</time>
      </trkpt>
      <trkpt lat="59.033946" lon="17.221086">
        <ele>48.4</ele>
        <time>2017-09-03T11:32:44Z</time>
      </trkpt>
      <trkpt lat="59.033962" lon="17.221235">
        <ele>48.4</ele>
        <time>2017-09-03T11:32:45Z</time>
      </trkpt>
      <trkpt lat="59.03398" lon="17.221384">
        <ele>48.4</ele>
        <time>2017-09-03T11:32:46Z</time>
      </trkpt>
      <trkpt lat="59.033998" lon="17.22153">
        <ele>48.4</ele>
        <time>2017-09-03T11:32:47Z</time>
      </trkpt>
      <trkpt lat="59.034018" lon="17.221676">
        <ele>48.4</ele>
        <time>2017-09-03T11:32:48Z</time>
      </trkpt>
      <trkpt lat="59.034038" lon="17.221827">
        <ele>48.6</ele>
        <time>2017-09-03T11:32:49Z</time>
      </trkpt>
      <trkpt lat="59.034059" lon="17.221979">
        <ele>48.6</ele>
        <time>2017-09-03T11:32:50Z</time>
      </trkpt>
      <trkpt lat="59.034081" lon="17.222134">
        <ele>48.8</ele>
        <time>2017-09-03T11:32:51Z</time>
      </trkpt>
      <trkpt lat="59.034102" lon="17.222293">
        <ele>49</ele>
        <time>2017-09-03T11:32:52Z</time>
      </trkpt>
      <trkpt lat="59.034122" lon="17.222454">
        <ele>49</ele>
        <time>2017-09-03T11:32:53Z</time>
      </trkpt>
      <trkpt lat="59.034143" lon="17.222615">
        <ele>49.2</ele>
        <time>2017-09-03T11:32:54Z</time>
      </trkpt>
      <trkpt lat="59.034162" lon="17.222774">
        <ele>49.2</ele>
        <time>2017-09-03T11:32:55Z</time>
      </trkpt>
      <trkpt lat="59.034181" lon="17.22293">
        <ele>49.2</ele>
        <time>2017-09-03T11:32:56Z</time>
      </trkpt>
      <trkpt lat="59.0342" lon="17.22308">
        <ele>49.4</ele>
        <time>2017-09-03T11:32:57Z</time>
      </trkpt>
      <trkpt lat="59.034219" lon="17.223222">
        <ele>49.6</ele>
        <time>2017-09-03T11:32:58Z</time>
      </trkpt>
      <trkpt lat="59.034243" lon="17.223356">
        <ele>49.8</ele>
        <time>2017-09-03T11:32:59Z</time>
      </trkpt>
      <trkpt lat="59.03427" lon="17.22348">
        <ele>50.2</ele>
        <time>2017-09-03T11:33:00Z</time>
      </trkpt>
      <trkpt lat="59.034304" lon="17.223598">
        <ele>50.4</ele>
        <time>2017-09-03T11:33:01Z</time>
      </trkpt>
      <trkpt lat="59.034345" lon="17.223708">
        <ele>50.4</ele>
        <time>2017-09-03T11:33:02Z</time>
      </trkpt>
      <trkpt lat="59.034394" lon="17.223809">
        <ele>50.6</ele>
        <time>2017-09-03T11:33:03Z</time>
      </trkpt>
      <trkpt lat="59.03445" lon="17.223899">
        <ele>50.8</ele>
        <time>2017-09-03T11:33:04Z</time>
      </trkpt>
      <trkpt lat="59.034509" lon="17.223989">
        <ele>50.8</ele>
        <time>2017-09-03T11:33:05Z</time>
      </trkpt>
      <trkpt lat="59.034573" lon="17.224082">
        <ele>51</ele>
        <time>2017-09-03T11:33:06Z</time>
      </trkpt>
      <trkpt lat="59.034639" lon="17.224185">
        <ele>51.4</ele>
        <time>2017-09-03T11:33:07Z</time>
      </trkpt>
      <trkpt lat="59.034702" lon="17.224305">
        <ele>51.6</ele>
        <time>2017-09-03T11:33:08Z</time>
      </trkpt>
      <trkpt lat="59.034759" lon="17.224445">
        <ele>51.6</ele>
        <time>2017-09-03T11:33:09Z</time>
      </trkpt>
      <trkpt lat="59.034808" lon="17.224605">
        <ele>51.8</ele>
        <time>2017-09-03T11:33:10Z</time>
      </trkpt>
      <trkpt lat="59.034852" lon="17.224781">
        <ele>51.8</ele>
        <time>2017-09-03T11:33:11Z</time>
      </trkpt>
      <trkpt lat="59.034891" lon="17.224964">
        <ele>51.8</ele>
        <time>2017-09-03T11:33:12Z</time>
      </trkpt>
      <trkpt lat="59.034927" lon="17.22515">
        <ele>51.8</ele>
        <time>2017-09-03T11:33:13Z</time>
      </trkpt>
      <trkpt lat="59.034961" lon="17.22534">
        <ele>51.8</ele>
        <time>2017-09-03T11:33:14Z</time>
      </trkpt>
      <trkpt lat="59.034998" lon="17.225531">
        <ele>51.8</ele>
        <time>2017-09-03T11:33:15Z</time>
      </trkpt>
      <trkpt lat="59.035035" lon="17.225722">
        <ele>51.8</ele>
        <time>2017-09-03T11:33:16Z</time>
      </trkpt>
      <trkpt lat="59.035074" lon="17.225914">
        <ele>51.6</ele>
        <time>2017-09-03T11:33:17Z</time>
      </trkpt>
      <trkpt lat="59.035111" lon="17.226111">
        <ele>51.4</ele>
        <time>2017-09-03T11:33:18Z</time>
      </trkpt>
      <trkpt lat="59.035146" lon="17.226314">
        <ele>51</ele>
        <time>2017-09-03T11:33:19Z</time>
      </trkpt>
      <trkpt lat="59.035184" lon="17.226518">
        <ele>50.4</ele>
        <time>2017-09-03T11:33:20Z</time>
      </trkpt>
      <trkpt lat="59.035221" lon="17.226714">
        <ele>50</ele>
        <time>2017-09-03T11:33:21Z</time>
      </trkpt>
      <trkpt lat="59.035258" lon="17.226902">
        <ele>49.6</ele>
        <time>2017-09-03T11:33:22Z</time>
      </trkpt>
      <trkpt lat="59.035296" lon="17.227081">
        <ele>49.4</ele>
        <time>2017-09-03T11:33:23Z</time>
      </trkpt>
      <trkpt lat="59.035333" lon="17.227256">
        <ele>48.8</ele>
        <time>2017-09-03T11:33:24Z</time>
      </trkpt>
      <trkpt lat="59.03537" lon="17.227428">
        <ele>48.4</ele>
        <time>2017-09-03T11:33:25Z</time>
      </trkpt>
      <trkpt lat="59.035405" lon="17.227597">
        <ele>48.2</ele>
        <time>2017-09-03T11:33:26Z</time>
      </trkpt>
      <trkpt lat="59.035441" lon="17.227769">
        <ele>48.2</ele>
        <time>2017-09-03T11:33:27Z</time>
      </trkpt>
      <trkpt lat="59.035477" lon="17.227945">
        <ele>48</ele>
        <time>2017-09-03T11:33:28Z</time>
      </trkpt>
      <trkpt lat="59.03551" lon="17.22812">
        <ele>48</ele>
        <time>2017-09-03T11:33:29Z</time>
      </trkpt>
      <trkpt lat="59.035539" lon="17.228293">
        <ele>48</ele>
        <time>2017-09-03T11:33:30Z</time>
      </trkpt>
      <trkpt lat="59.035563" lon="17.228463">
        <ele>48</ele>
        <time>2017-09-03T11:33:31Z</time>
      </trkpt>
      <trkpt lat="59.035584" lon="17.22863">
        <ele>48</ele>
        <time>2017-09-03T11:33:32Z</time>
      </trkpt>
      <trkpt lat="59.035601" lon="17.228799">
        <ele>48</ele>
        <time>2017-09-03T11:33:33Z</time>
      </trkpt>
      <trkpt lat="59.035617" lon="17.228969">
        <ele>48.6</ele>
        <time>2017-09-03T11:33:34Z</time>
      </trkpt>
      <trkpt lat="59.035632" lon="17.229139">
        <ele>48.8</ele>
        <time>2017-09-03T11:33:35Z</time>
      </trkpt>
      <trkpt lat="59.035646" lon="17.229311">
        <ele>49</ele>
        <time>2017-09-03T11:33:36Z</time>
      </trkpt>
      <trkpt lat="59.035661" lon="17.229484">
        <ele>49.2</ele>
        <time>2017-09-03T11:33:37Z</time>
      </trkpt>
      <trkpt lat="59.03568" lon="17.229658">
        <ele>49.8</ele>
        <time>2017-09-03T11:33:38Z</time>
      </trkpt>
      <trkpt lat="59.035702" lon="17.229835">
        <ele>50.2</ele>
        <time>2017-09-03T11:33:39Z</time>
      </trkpt>
      <trkpt lat="59.035725" lon="17.230014">
        <ele>50.6</ele>
        <time>2017-09-03T11:33:40Z</time>
      </trkpt>
      <trkpt lat="59.035749" lon="17.230199">
        <ele>50.8</ele>
        <time>2017-09-03T11:33:41Z</time>
      </trkpt>
      <trkpt lat="59.035776" lon="17.230377">
        <ele>51.2</ele>
        <time>2017-09-03T11:33:42Z</time>
      </trkpt>
      <trkpt lat="59.035805" lon="17.230552">
        <ele>51.4</ele>
        <time>2017-09-03T11:33:43Z</time>
      </trkpt>
      <trkpt lat="59.035837" lon="17.230725">
        <ele>51.6</ele>
        <time>2017-09-03T11:33:44Z</time>
      </trkpt>
      <trkpt lat="59.035872" lon="17.230897">
        <ele>51.8</ele>
        <time>2017-09-03T11:33:45Z</time>
      </trkpt>
      <trkpt lat="59.035912" lon="17.231065">
        <ele>52</ele>
        <time>2017-09-03T11:33:46Z</time>
      </trkpt>
      <trkpt lat="59.035958" lon="17.231231">
        <ele>52.2</ele>
        <time>2017-09-03T11:33:47Z</time>
      </trkpt>
      <trkpt lat="59.036003" lon="17.231399">
        <ele>52.2</ele>
        <time>2017-09-03T11:33:48Z</time>
      </trkpt>
      <trkpt lat="59.036046" lon="17.231574">
        <ele>52.4</ele>
        <time>2017-09-03T11:33:49Z</time>
      </trkpt>
      <trkpt lat="59.036087" lon="17.231754">
        <ele>52.4</ele>
        <time>2017-09-03T11:33:50Z</time>
      </trkpt>
      <trkpt lat="59.036127" lon="17.231938">
        <ele>52.6</ele>
        <time>2017-09-03T11:33:51Z</time>
      </trkpt>
      <trkpt lat="59.036166" lon="17.232121">
        <ele>52.6</ele>
        <time>2017-09-03T11:33:52Z</time>
      </trkpt>
      <trkpt lat="59.036208" lon="17.2323">
        <ele>52.8</ele>
        <time>2017-09-03T11:33:53Z</time>
      </trkpt>
      <trkpt lat="59.03625" lon="17.232476">
        <ele>52.8</ele>
        <time>2017-09-03T11:33:54Z</time>
      </trkpt>
      <trkpt lat="59.036292" lon="17.232649">
        <ele>52.8</ele>
        <time>2017-09-03T11:33:55Z</time>
      </trkpt>
      <trkpt lat="59.036341" lon="17.232814">
        <ele>52.8</ele>
        <time>2017-09-03T11:33:56Z</time>
      </trkpt>
      <trkpt lat="59.036396" lon="17.232969">
        <ele>53</ele>
        <time>2017-09-03T11:33:57Z</time>
      </trkpt>
      <trkpt lat="59.036455" lon="17.233116">
        <ele>53</ele>
        <time>2017-09-03T11:33:58Z</time>
      </trkpt>
      <trkpt lat="59.036518" lon="17.233264">
        <ele>53.2</ele>
        <time>2017-09-03T11:33:59Z</time>
      </trkpt>
      <trkpt lat="59.036585" lon="17.233403">
        <ele>53.2</ele>
        <time>2017-09-03T11:34:00Z</time>
      </trkpt>
      <trkpt lat="59.036659" lon="17.233534">
        <ele>53.2</ele>
        <time>2017-09-03T11:34:01Z</time>
      </trkpt>
      <trkpt lat="59.036735" lon="17.233663">
        <ele>53.2</ele>
        <time>2017-09-03T11:34:02Z</time>
      </trkpt>
      <trkpt lat="59.036811" lon="17.233789">
        <ele>53.2</ele>
        <time>2017-09-03T11:34:03Z</time>
      </trkpt>
      <trkpt lat="59.036888" lon="17.233912">
        <ele>53.2</ele>
        <time>2017-09-03T11:34:04Z</time>
      </trkpt>
      <trkpt lat="59.036963" lon="17.234031">
        <ele>53.2</ele>
        <time>2017-09-03T11:34:05Z</time>
      </trkpt>
      <trkpt lat="59.037036" lon="17.234144">
        <ele>53.2</ele>
        <time>2017-09-03T11:34:06Z</time>
      </trkpt>
      <trkpt lat="59.037109" lon="17.234255">
        <ele>53.2</ele>
        <time>2017-09-03T11:34:07Z</time>
      </trkpt>
      <trkpt lat="59.037178" lon="17.234366">
        <ele>53.4</ele>
        <time>2017-09-03T11:34:08Z</time>
      </trkpt>
      <trkpt lat="59.037246" lon="17.23448">
        <ele>53.4</ele>
        <time>2017-09-03T11:34:09Z</time>
      </trkpt>
      <trkpt lat="59.037317" lon="17.234595">
        <ele>53.4</ele>
        <time>2017-09-03T11:34:10Z</time>
      </trkpt>
      <trkpt lat="59.037392" lon="17.234713">
        <ele>53.6</ele>
        <time>2017-09-03T11:34:11Z</time>
      </trkpt>
      <trkpt lat="59.037469" lon="17.234839">
        <ele>53.8</ele>
        <time>2017-09-03T11:34:12Z</time>
      </trkpt>
      <trkpt lat="59.037549" lon="17.234971">
        <ele>53.8</ele>
        <time>2017-09-03T11:34:13Z</time>
      </trkpt>
      <trkpt lat="59.037629" lon="17.23511">
        <ele>53.8</ele>
        <time>2017-09-03T11:34:14Z</time>
      </trkpt>
      <trkpt lat="59.037711" lon="17.235255">
        <ele>53.8</ele>
        <time>2017-09-03T11:34:15Z</time>
      </trkpt>
      <trkpt lat="59.037791" lon="17.235406">
        <ele>53.8</ele>
        <time>2017-09-03T11:34:16Z</time>
      </trkpt>
      <trkpt lat="59.037864" lon="17.235566">
        <ele>53.8</ele>
        <time>2017-09-03T11:34:17Z</time>
      </trkpt>
      <trkpt lat="59.037927" lon="17.235736">
        <ele>53.8</ele>
        <time>2017-09-03T11:34:18Z</time>
      </trkpt>
      <trkpt lat="59.03798" lon="17.235914">
        <ele>53.8</ele>
        <time>2017-09-03T11:34:19Z</time>
      </trkpt>
      <trkpt lat="59.038025" lon="17.236099">
        <ele>53.8</ele>
        <time>2017-09-03T11:34:20Z</time>
      </trkpt>
      <trkpt lat="59.038065" lon="17.236286">
        <ele>53.8</ele>
        <time>2017-09-03T11:34:21Z</time>
      </trkpt>
      <trkpt lat="59.038102" lon="17.236473">
        <ele>53.4</ele>
        <time>2017-09-03T11:34:22Z</time>
      </trkpt>
      <trkpt lat="59.038136" lon="17.236661">
        <ele>52.8</ele>
        <time>2017-09-03T11:34:23Z</time>
      </trkpt>
      <trkpt lat="59.038167" lon="17.236848">
        <ele>52.2</ele>
        <time>2017-09-03T11:34:24Z</time>
      </trkpt>
      <trkpt lat="59.038194" lon="17.237031">
        <ele>51.8</ele>
        <time>2017-09-03T11:34:25Z</time>
      </trkpt>
      <trkpt lat="59.038216" lon="17.237215">
        <ele>51.6</ele>
        <time>2017-09-03T11:34:26Z</time>
      </trkpt>
      <trkpt lat="59.038233" lon="17.237399">
        <ele>51.6</ele>
        <time>2017-09-03T11:34:27Z</time>
      </trkpt>
      <trkpt lat="59.038245" lon="17.237581">
        <ele>51.4</ele>
        <time>2017-09-03T11:34:28Z</time>
      </trkpt>
      <trkpt lat="59.038253" lon="17.237759">
        <ele>51.4</ele>
        <time>2017-09-03T11:34:29Z</time>
      </trkpt>
      <trkpt lat="59.038259" lon="17.237931">
        <ele>51.4</ele>
        <time>2017-09-03T11:34:30Z</time>
      </trkpt>
      <trkpt lat="59.038263" lon="17.238097">
        <ele>51.4</ele>
        <time>2017-09-03T11:34:31Z</time>
      </trkpt>
      <trkpt lat="59.038264" lon="17.238257">
        <ele>51.4</ele>
        <time>2017-09-03T11:34:32Z</time>
      </trkpt>
      <trkpt lat="59.038265" lon="17.238415">
        <ele>51.6</ele>
        <time>2017-09-03T11:34:33Z</time>
      </trkpt>
      <trkpt lat="59.038266" lon="17.238569">
        <ele>51.6</ele>
        <time>2017-09-03T11:34:34Z</time>
      </trkpt>
      <trkpt lat="59.038266" lon="17.238717">
        <ele>51.6</ele>
        <time>2017-09-03T11:34:35Z</time>
      </trkpt>
      <trkpt lat="59.038266" lon="17.238864">
        <ele>52</ele>
        <time>2017-09-03T11:34:36Z</time>
      </trkpt>
      <trkpt lat="59.038272" lon="17.239011">
        <ele>52.4</ele>
        <time>2017-09-03T11:34:37Z</time>
      </trkpt>
      <trkpt lat="59.038282" lon="17.239163">
        <ele>52.8</ele>
        <time>2017-09-03T11:34:38Z</time>
      </trkpt>
      <trkpt lat="59.038293" lon="17.239322">
        <ele>53.2</ele>
        <time>2017-09-03T11:34:39Z</time>
      </trkpt>
      <trkpt lat="59.03831" lon="17.239488">
        <ele>53.4</ele>
        <time>2017-09-03T11:34:40Z</time>
      </trkpt>
      <trkpt lat="59.038336" lon="17.239663">
        <ele>53.4</ele>
        <time>2017-09-03T11:34:41Z</time>
      </trkpt>
      <trkpt lat="59.038371" lon="17.239843">
        <ele>53.8</ele>
        <time>2017-09-03T11:34:42Z</time>
      </trkpt>
      <trkpt lat="59.038416" lon="17.240025">
        <ele>54</ele>
        <time>2017-09-03T11:34:43Z</time>
      </trkpt>
      <trkpt lat="59.038472" lon="17.240205">
        <ele>54</ele>
        <time>2017-09-03T11:34:44Z</time>
      </trkpt>
      <trkpt lat="59.038538" lon="17.240382">
        <ele>54</ele>
        <time>2017-09-03T11:34:45Z</time>
      </trkpt>
      <trkpt lat="59.038607" lon="17.240562">
        <ele>54</ele>
        <time>2017-09-03T11:34:46Z</time>
      </trkpt>
      <trkpt lat="59.038678" lon="17.240737">
        <ele>54</ele>
        <time>2017-09-03T11:34:47Z</time>
      </trkpt>
      <trkpt lat="59.038751" lon="17.240911">
        <ele>54</ele>
        <time>2017-09-03T11:34:48Z</time>
      </trkpt>
      <trkpt lat="59.038826" lon="17.241084">
        <ele>54</ele>
        <time>2017-09-03T11:34:49Z</time>
      </trkpt>
      <trkpt lat="59.038903" lon="17.241261">
        <ele>54</ele>
        <time>2017-09-03T11:34:50Z</time>
      </trkpt>
      <trkpt lat="59.038982" lon="17.241442">
        <ele>54</ele>
        <time>2017-09-03T11:34:51Z</time>
      </trkpt>
      <trkpt lat="59.039061" lon="17.241626">
        <ele>53.6</ele>
        <time>2017-09-03T11:34:52Z</time>
      </trkpt>
      <trkpt lat="59.039135" lon="17.241824">
        <ele>53</ele>
        <time>2017-09-03T11:34:53Z</time>
      </trkpt>
      <trkpt lat="59.039198" lon="17.242042">
        <ele>52.4</ele>
        <time>2017-09-03T11:34:54Z</time>
      </trkpt>
      <trkpt lat="59.039254" lon="17.242272">
        <ele>52</ele>
        <time>2017-09-03T11:34:55Z</time>
      </trkpt>
      <trkpt lat="59.039303" lon="17.242508">
        <ele>51.4</ele>
        <time>2017-09-03T11:34:56Z</time>
      </trkpt>
      <trkpt lat="59.039341" lon="17.242747">
        <ele>50.2</ele>
        <time>2017-09-03T11:34:57Z</time>
      </trkpt>
      <trkpt lat="59.039369" lon="17.242986">
        <ele>49.4</ele>
        <time>2017-09-03T11:34:58Z</time>
      </trkpt>
      <trkpt lat="59.039391" lon="17.243221">
        <ele>48.6</ele>
        <time>2017-09-03T11:34:59Z</time>
      </trkpt>
      <trkpt lat="59.039406" lon="17.24345">
        <ele>47.6</ele>
        <time>2017-09-03T11:35:00Z</time>
      </trkpt>
      <trkpt lat="59.039417" lon="17.243673">
        <ele>47</ele>
        <time>2017-09-03T11:35:01Z</time>
      </trkpt>
      <trkpt lat="59.039423" lon="17.243892">
        <ele>46.8</ele>
        <time>2017-09-03T11:35:02Z</time>
      </trkpt>
      <trkpt lat="59.039428" lon="17.244108">
        <ele>46.4</ele>
        <time>2017-09-03T11:35:03Z</time>
      </trkpt>
      <trkpt lat="59.039432" lon="17.244319">
        <ele>46</ele>
        <time>2017-09-03T11:35:04Z</time>
      </trkpt>
      <trkpt lat="59.039433" lon="17.244529">
        <ele>45.6</ele>
        <time>2017-09-03T11:35:05Z</time>
      </trkpt>
      <trkpt lat="59.039431" lon="17.244741">
        <ele>45.4</ele>
        <time>2017-09-03T11:35:06Z</time>
      </trkpt>
      <trkpt lat="59.039424" lon="17.244957">
        <ele>45.4</ele>
        <time>2017-09-03T11:35:07Z</time>
      </trkpt>
      <trkpt lat="59.039408" lon="17.245173">
        <ele>45.2</ele>
        <time>2017-09-03T11:35:08Z</time>
      </trkpt>
      <trkpt lat="59.039386" lon="17.245387">
        <ele>45.2</ele>
        <time>2017-09-03T11:35:09Z</time>
      </trkpt>
      <trkpt lat="59.039361" lon="17.245598">
        <ele>45.2</ele>
        <time>2017-09-03T11:35:10Z</time>
      </trkpt>
      <trkpt lat="59.039338" lon="17.245802">
        <ele>45.2</ele>
        <time>2017-09-03T11:35:11Z</time>
      </trkpt>
      <trkpt lat="59.039321" lon="17.246005">
        <ele>45.2</ele>
        <time>2017-09-03T11:35:12Z</time>
      </trkpt>
      <trkpt lat="59.039311" lon="17.246208">
        <ele>45.2</ele>
        <time>2017-09-03T11:35:13Z</time>
      </trkpt>
      <trkpt lat="59.039309" lon="17.246411">
        <ele>45.2</ele>
        <time>2017-09-03T11:35:14Z</time>
      </trkpt>
      <trkpt lat="59.039313" lon="17.24662">
        <ele>45.2</ele>
        <time>2017-09-03T11:35:15Z</time>
      </trkpt>
      <trkpt lat="59.039325" lon="17.246831">
        <ele>45.2</ele>
        <time>2017-09-03T11:35:16Z</time>
      </trkpt>
      <trkpt lat="59.039344" lon="17.247039">
        <ele>45.2</ele>
        <time>2017-09-03T11:35:17Z</time>
      </trkpt>
      <trkpt lat="59.039377" lon="17.247236">
        <ele>45.2</ele>
        <time>2017-09-03T11:35:18Z</time>
      </trkpt>
      <trkpt lat="59.039418" lon="17.247427">
        <ele>45.2</ele>
        <time>2017-09-03T11:35:19Z</time>
      </trkpt>
      <trkpt lat="59.039461" lon="17.247615">
        <ele>45.2</ele>
        <time>2017-09-03T11:35:20Z</time>
      </trkpt>
      <trkpt lat="59.039505" lon="17.247806">
        <ele>45.2</ele>
        <time>2017-09-03T11:35:21Z</time>
      </trkpt>
      <trkpt lat="59.039549" lon="17.248002">
        <ele>45.2</ele>
        <time>2017-09-03T11:35:22Z</time>
      </trkpt>
      <trkpt lat="59.03959" lon="17.248203">
        <ele>45.2</ele>
        <time>2017-09-03T11:35:23Z</time>
      </trkpt>
      <trkpt lat="59.039629" lon="17.248398">
        <ele>45.2</ele>
        <time>2017-09-03T11:35:24Z</time>
      </trkpt>
      <trkpt lat="59.039666" lon="17.248597">
        <ele>45.2</ele>
        <time>2017-09-03T11:35:25Z</time>
      </trkpt>
      <trkpt lat="59.0397" lon="17.2488">
        <ele>45.2</ele>
        <time>2017-09-03T11:35:26Z</time>
      </trkpt>
      <trkpt lat="59.039729" lon="17.249008">
        <ele>45.2</ele>
        <time>2017-09-03T11:35:27Z</time>
      </trkpt>
      <trkpt lat="59.039753" lon="17.249219">
        <ele>44.6</ele>
        <time>2017-09-03T11:35:28Z</time>
      </trkpt>
      <trkpt lat="59.039771" lon="17.24943">
        <ele>44</ele>
        <time>2017-09-03T11:35:29Z</time>
      </trkpt>
      <trkpt lat="59.039788" lon="17.249644">
        <ele>43.8</ele>
        <time>2017-09-03T11:35:30Z</time>
      </trkpt>
      <trkpt lat="59.039806" lon="17.249859">
        <ele>43.2</ele>
        <time>2017-09-03T11:35:31Z</time>
      </trkpt>
      <trkpt lat="59.039823" lon="17.250073">
        <ele>43</ele>
        <time>2017-09-03T11:35:32Z</time>
      </trkpt>
      <trkpt lat="59.039838" lon="17.250285">
        <ele>42.6</ele>
        <time>2017-09-03T11:35:33Z</time>
      </trkpt>
      <trkpt lat="59.039853" lon="17.250492">
        <ele>42.4</ele>
        <time>2017-09-03T11:35:34Z</time>
      </trkpt>
      <trkpt lat="59.03987" lon="17.250697">
        <ele>42.2</ele>
        <time>2017-09-03T11:35:35Z</time>
      </trkpt>
      <trkpt lat="59.039887" lon="17.250903">
        <ele>42</ele>
        <time>2017-09-03T11:35:36Z</time>
      </trkpt>
      <trkpt lat="59.039902" lon="17.251112">
        <ele>42</ele>
        <time>2017-09-03T11:35:37Z</time>
      </trkpt>
      <trkpt lat="59.039917" lon="17.251322">
        <ele>42</ele>
        <time>2017-09-03T11:35:38Z</time>
      </trkpt>
      <trkpt lat="59.039932" lon="17.251533">
        <ele>42</ele>
        <time>2017-09-03T11:35:39Z</time>
      </trkpt>
      <trkpt lat="59.039947" lon="17.251745">
        <ele>42</ele>
        <time>2017-09-03T11:35:40Z</time>
      </trkpt>
      <trkpt lat="59.03996" lon="17.251957">
        <ele>42</ele>
        <time>2017-09-03T11:35:41Z</time>
      </trkpt>
      <trkpt lat="59.039968" lon="17.252167">
        <ele>42</ele>
        <time>2017-09-03T11:35:42Z</time>
      </trkpt>
      <trkpt lat="59.039964" lon="17.252375">
        <ele>42</ele>
        <time>2017-09-03T11:35:43Z</time>
      </trkpt>
      <trkpt lat="59.039951" lon="17.252583">
        <ele>42</ele>
        <time>2017-09-03T11:35:44Z</time>
      </trkpt>
      <trkpt lat="59.039931" lon="17.252785">
        <ele>42</ele>
        <time>2017-09-03T11:35:45Z</time>
      </trkpt>
      <trkpt lat="59.039905" lon="17.252979">
        <ele>42</ele>
        <time>2017-09-03T11:35:46Z</time>
      </trkpt>
      <trkpt lat="59.039876" lon="17.253164">
        <ele>42</ele>
        <time>2017-09-03T11:35:47Z</time>
      </trkpt>
      <trkpt lat="59.039848" lon="17.253344">
        <ele>42.2</ele>
        <time>2017-09-03T11:35:48Z</time>
      </trkpt>
      <trkpt lat="59.039821" lon="17.253524">
        <ele>42.2</ele>
        <time>2017-09-03T11:35:49Z</time>
      </trkpt>
      <trkpt lat="59.039789" lon="17.253697">
        <ele>42.4</ele>
        <time>2017-09-03T11:35:50Z</time>
      </trkpt>
      <trkpt lat="59.039757" lon="17.253867">
        <ele>42.6</ele>
        <time>2017-09-03T11:35:51Z</time>
      </trkpt>
      <trkpt lat="59.039724" lon="17.254041">
        <ele>42.8</ele>
        <time>2017-09-03T11:35:52Z</time>
      </trkpt>
      <trkpt lat="59.03969" lon="17.25422">
        <ele>42.8</ele>
        <time>2017-09-03T11:35:53Z</time>
      </trkpt>
      <trkpt lat="59.039659" lon="17.2544">
        <ele>42.8</ele>
        <time>2017-09-03T11:35:54Z</time>
      </trkpt>
      <trkpt lat="59.039627" lon="17.254586">
        <ele>43.2</ele>
        <time>2017-09-03T11:35:55Z</time>
      </trkpt>
      <trkpt lat="59.039595" lon="17.254772">
        <ele>43.4</ele>
        <time>2017-09-03T11:35:56Z</time>
      </trkpt>
      <trkpt lat="59.039561" lon="17.254959">
        <ele>43.6</ele>
        <time>2017-09-03T11:35:57Z</time>
      </trkpt>
      <trkpt lat="59.039525" lon="17.255147">
        <ele>43.6</ele>
        <time>2017-09-03T11:35:58Z</time>
      </trkpt>
      <trkpt lat="59.039493" lon="17.255336">
        <ele>43.8</ele>
        <time>2017-09-03T11:35:59Z</time>
      </trkpt>
      <trkpt lat="59.039469" lon="17.25553">
        <ele>44</ele>
        <time>2017-09-03T11:36:00Z</time>
      </trkpt>
      <trkpt lat="59.039453" lon="17.255729">
        <ele>44</ele>
        <time>2017-09-03T11:36:01Z</time>
      </trkpt>
      <trkpt lat="59.039446" lon="17.255932">
        <ele>44</ele>
        <time>2017-09-03T11:36:02Z</time>
      </trkpt>
      <trkpt lat="59.039449" lon="17.256136">
        <ele>44</ele>
        <time>2017-09-03T11:36:03Z</time>
      </trkpt>
      <trkpt lat="59.039467" lon="17.256341">
        <ele>44</ele>
        <time>2017-09-03T11:36:04Z</time>
      </trkpt>
      <trkpt lat="59.0395" lon="17.256543">
        <ele>43.8</ele>
        <time>2017-09-03T11:36:05Z</time>
      </trkpt>
      <trkpt lat="59.039541" lon="17.256738">
        <ele>43.4</ele>
        <time>2017-09-03T11:36:06Z</time>
      </trkpt>
      <trkpt lat="59.039586" lon="17.256928">
        <ele>43.4</ele>
        <time>2017-09-03T11:36:07Z</time>
      </trkpt>
      <trkpt lat="59.039638" lon="17.257115">
        <ele>43.4</ele>
        <time>2017-09-03T11:36:08Z</time>
      </trkpt>
      <trkpt lat="59.039693" lon="17.257302">
        <ele>43.2</ele>
        <time>2017-09-03T11:36:09Z</time>
      </trkpt>
      <trkpt lat="59.039751" lon="17.257489">
        <ele>43</ele>
        <time>2017-09-03T11:36:10Z</time>
      </trkpt>
      <trkpt lat="59.039807" lon="17.257676">
        <ele>43</ele>
        <time>2017-09-03T11:36:11Z</time>
      </trkpt>
      <trkpt lat="59.039863" lon="17.257867">
        <ele>42.8</ele>
        <time>2017-09-03T11:36:12Z</time>
      </trkpt>
      <trkpt lat="59.03992" lon="17.258065">
        <ele>42.8</ele>
        <time>2017-09-03T11:36:13Z</time>
      </trkpt>
      <trkpt lat="59.039979" lon="17.258267">
        <ele>42.6</ele>
        <time>2017-09-03T11:36:14Z</time>
      </trkpt>
      <trkpt lat="59.040039" lon="17.258469">
        <ele>42.4</ele>
        <time>2017-09-03T11:36:15Z</time>
      </trkpt>
      <trkpt lat="59.0401" lon="17.258673">
        <ele>42.4</ele>
        <time>2017-09-03T11:36:16Z</time>
      </trkpt>
      <trkpt lat="59.04016" lon="17.258877">
        <ele>42</ele>
        <time>2017-09-03T11:36:17Z</time>
      </trkpt>
      <trkpt lat="59.04022" lon="17.259078">
        <ele>42</ele>
        <time>2017-09-03T11:36:18Z</time>
      </trkpt>
      <trkpt lat="59.040283" lon="17.25928">
        <ele>41.4</ele>
        <time>2017-09-03T11:36:19Z</time>
      </trkpt>
      <trkpt lat="59.040345" lon="17.259486">
        <ele>41</ele>
        <time>2017-09-03T11:36:20Z</time>
      </trkpt>
      <trkpt lat="59.040406" lon="17.259692">
        <ele>40.6</ele>
        <time>2017-09-03T11:36:21Z</time>
      </trkpt>
      <trkpt lat="59.040466" lon="17.259898">
        <ele>40</ele>
        <time>2017-09-03T11:36:22Z</time>
      </trkpt>
      <trkpt lat="59.040525" lon="17.2601">
        <ele>39.8</ele>
        <time>2017-09-03T11:36:23Z</time>
      </trkpt>
      <trkpt lat="59.040584" lon="17.2603">
        <ele>39.4</ele>
        <time>2017-09-03T11:36:24Z</time>
      </trkpt>
      <trkpt lat="59.040643" lon="17.260498">
        <ele>39.2</ele>
        <time>2017-09-03T11:36:25Z</time>
      </trkpt>
      <trkpt lat="59.040701" lon="17.260695">
        <ele>39.2</ele>
        <time>2017-09-03T11:36:26Z</time>
      </trkpt>
      <trkpt lat="59.040759" lon="17.260889">
        <ele>38.8</ele>
        <time>2017-09-03T11:36:27Z</time>
      </trkpt>
      <trkpt lat="59.040816" lon="17.261083">
        <ele>38.6</ele>
        <time>2017-09-03T11:36:28Z</time>
      </trkpt>
      <trkpt lat="59.040872" lon="17.261278">
        <ele>38.4</ele>
        <time>2017-09-03T11:36:29Z</time>
      </trkpt>
      <trkpt lat="59.04093" lon="17.261471">
        <ele>38.2</ele>
        <time>2017-09-03T11:36:30Z</time>
      </trkpt>
      <trkpt lat="59.040989" lon="17.261661">
        <ele>38</ele>
        <time>2017-09-03T11:36:31Z</time>
      </trkpt>
      <trkpt lat="59.041047" lon="17.26185">
        <ele>37.6</ele>
        <time>2017-09-03T11:36:32Z</time>
      </trkpt>
      <trkpt lat="59.041107" lon="17.262035">
        <ele>37.4</ele>
        <time>2017-09-03T11:36:33Z</time>
      </trkpt>
      <trkpt lat="59.041169" lon="17.262214">
        <ele>37.2</ele>
        <time>2017-09-03T11:36:34Z</time>
      </trkpt>
      <trkpt lat="59.04123" lon="17.262391">
        <ele>36.8</ele>
        <time>2017-09-03T11:36:35Z</time>
      </trkpt>
      <trkpt lat="59.041288" lon="17.262573">
        <ele>36.4</ele>
        <time>2017-09-03T11:36:36Z</time>
      </trkpt>
      <trkpt lat="59.041343" lon="17.262759">
        <ele>36</ele>
        <time>2017-09-03T11:36:37Z</time>
      </trkpt>
      <trkpt lat="59.041397" lon="17.262945">
        <ele>35.8</ele>
        <time>2017-09-03T11:36:38Z</time>
      </trkpt>
      <trkpt lat="59.041453" lon="17.263126">
        <ele>35.6</ele>
        <time>2017-09-03T11:36:39Z</time>
      </trkpt>
      <trkpt lat="59.041508" lon="17.263306">
        <ele>35.6</ele>
        <time>2017-09-03T11:36:40Z</time>
      </trkpt>
      <trkpt lat="59.041562" lon="17.263484">
        <ele>35.4</ele>
        <time>2017-09-03T11:36:41Z</time>
      </trkpt>
      <trkpt lat="59.041617" lon="17.263657">
        <ele>35.4</ele>
        <time>2017-09-03T11:36:42Z</time>
      </trkpt>
      <trkpt lat="59.041672" lon="17.263823">
        <ele>35.2</ele>
        <time>2017-09-03T11:36:43Z</time>
      </trkpt>
      <trkpt lat="59.041728" lon="17.263984">
        <ele>35.2</ele>
        <time>2017-09-03T11:36:44Z</time>
      </trkpt>
      <trkpt lat="59.041781" lon="17.264137">
        <ele>35.2</ele>
        <time>2017-09-03T11:36:45Z</time>
      </trkpt>
      <trkpt lat="59.041832" lon="17.264288">
        <ele>35.2</ele>
        <time>2017-09-03T11:36:46Z</time>
      </trkpt>
      <trkpt lat="59.041883" lon="17.26444">
        <ele>35.2</ele>
        <time>2017-09-03T11:36:47Z</time>
      </trkpt>
      <trkpt lat="59.04193" lon="17.264589">
        <ele>35.2</ele>
        <time>2017-09-03T11:36:48Z</time>
      </trkpt>
      <trkpt lat="59.041976" lon="17.264733">
        <ele>35.2</ele>
        <time>2017-09-03T11:36:49Z</time>
      </trkpt>
      <trkpt lat="59.042021" lon="17.264874">
        <ele>35.2</ele>
        <time>2017-09-03T11:36:50Z</time>
      </trkpt>
      <trkpt lat="59.042065" lon="17.265015">
        <ele>35.2</ele>
        <time>2017-09-03T11:36:51Z</time>
      </trkpt>
      <trkpt lat="59.042108" lon="17.265154">
        <ele>35.4</ele>
        <time>2017-09-03T11:36:52Z</time>
      </trkpt>
      <trkpt lat="59.042151" lon="17.265288">
        <ele>35.6</ele>
        <time>2017-09-03T11:36:53Z</time>
      </trkpt>
      <trkpt lat="59.042195" lon="17.265422">
        <ele>35.8</ele>
        <time>2017-09-03T11:36:54Z</time>
      </trkpt>
      <trkpt lat="59.042238" lon="17.265557">
        <ele>36.2</ele>
        <time>2017-09-03T11:36:55Z</time>
      </trkpt>
      <trkpt lat="59.04228" lon="17.265689">
        <ele>36.8</ele>
        <time>2017-09-03T11:36:56Z</time>
      </trkpt>
      <trkpt lat="59.042323" lon="17.265819">
        <ele>37.4</ele>
        <time>2017-09-03T11:36:57Z</time>
      </trkpt>
      <trkpt lat="59.042369" lon="17.265949">
        <ele>38</ele>
        <time>2017-09-03T11:36:58Z</time>
      </trkpt>
      <trkpt lat="59.042414" lon="17.26608">
        <ele>39.2</ele>
        <time>2017-09-03T11:36:59Z</time>
      </trkpt>
      <trkpt lat="59.042459" lon="17.266207">
        <ele>40.4</ele>
        <time>2017-09-03T11:37:00Z</time>
      </trkpt>
      <trkpt lat="59.042501" lon="17.266335">
        <ele>41.2</ele>
        <time>2017-09-03T11:37:01Z</time>
      </trkpt>
      <trkpt lat="59.04254" lon="17.266467">
        <ele>41.8</ele>
        <time>2017-09-03T11:37:02Z</time>
      </trkpt>
      <trkpt lat="59.042578" lon="17.2666">
        <ele>42</ele>
        <time>2017-09-03T11:37:03Z</time>
      </trkpt>
      <trkpt lat="59.042617" lon="17.266733">
        <ele>42.4</ele>
        <time>2017-09-03T11:37:04Z</time>
      </trkpt>
      <trkpt lat="59.042656" lon="17.266864">
        <ele>43</ele>
        <time>2017-09-03T11:37:05Z</time>
      </trkpt>
      <trkpt lat="59.042692" lon="17.266993">
        <ele>43.2</ele>
        <time>2017-09-03T11:37:06Z</time>
      </trkpt>
      <trkpt lat="59.042729" lon="17.267119">
        <ele>43.6</ele>
        <time>2017-09-03T11:37:07Z</time>
      </trkpt>
      <trkpt lat="59.042765" lon="17.267241">
        <ele>43.8</ele>
        <time>2017-09-03T11:37:08Z</time>
      </trkpt>
      <trkpt lat="59.042802" lon="17.267362">
        <ele>44</ele>
        <time>2017-09-03T11:37:09Z</time>
      </trkpt>
      <trkpt lat="59.042842" lon="17.267484">
        <ele>44.2</ele>
        <time>2017-09-03T11:37:10Z</time>
      </trkpt>
      <trkpt lat="59.042882" lon="17.267607">
        <ele>44.4</ele>
        <time>2017-09-03T11:37:11Z</time>
      </trkpt>
      <trkpt lat="59.042923" lon="17.26773">
        <ele>45</ele>
        <time>2017-09-03T11:37:12Z</time>
      </trkpt>
      <trkpt lat="59.042965" lon="17.267856">
        <ele>45.8</ele>
        <time>2017-09-03T11:37:13Z</time>
      </trkpt>
      <trkpt lat="59.043008" lon="17.267988">
        <ele>46.4</ele>
        <time>2017-09-03T11:37:14Z</time>
      </trkpt>
      <trkpt lat="59.043053" lon="17.268125">
        <ele>46.8</ele>
        <time>2017-09-03T11:37:15Z</time>
      </trkpt>
      <trkpt lat="59.043099" lon="17.268267">
        <ele>47</ele>
        <time>2017-09-03T11:37:16Z</time>
      </trkpt>
      <trkpt lat="59.043146" lon="17.268412">
        <ele>47.2</ele>
        <time>2017-09-03T11:37:17Z</time>
      </trkpt>
      <trkpt lat="59.043193" lon="17.26856">
        <ele>47.6</ele>
        <time>2017-09-03T11:37:18Z</time>
      </trkpt>
      <trkpt lat="59.04324" lon="17.268711">
        <ele>47.8</ele>
        <time>2017-09-03T11:37:19Z</time>
      </trkpt>
      <trkpt lat="59.043288" lon="17.268865">
        <ele>47.8</ele>
        <time>2017-09-03T11:37:20Z</time>
      </trkpt>
      <trkpt lat="59.043337" lon="17.269024">
        <ele>48</ele>
        <time>2017-09-03T11:37:21Z</time>
      </trkpt>
      <trkpt lat="59.043385" lon="17.269184">
        <ele>48</ele>
        <time>2017-09-03T11:37:22Z</time>
      </trkpt>
      <trkpt lat="59.043434" lon="17.269341">
        <ele>48</ele>
        <time>2017-09-03T11:37:23Z</time>
      </trkpt>
      <trkpt lat="59.043483" lon="17.269494">
        <ele>48</ele>
        <time>2017-09-03T11:37:24Z</time>
      </trkpt>
      <trkpt lat="59.043528" lon="17.269641">
        <ele>48</ele>
        <time>2017-09-03T11:37:25Z</time>
      </trkpt>
      <trkpt lat="59.043572" lon="17.269785">
        <ele>48</ele>
        <time>2017-09-03T11:37:26Z</time>
      </trkpt>
      <trkpt lat="59.043615" lon="17.269927">
        <ele>48</ele>
        <time>2017-09-03T11:37:27Z</time>
      </trkpt>
      <trkpt lat="59.043657" lon="17.270066">
        <ele>48</ele>
        <time>2017-09-03T11:37:28Z</time>
      </trkpt>
      <trkpt lat="59.043699" lon="17.270202">
        <ele>48</ele>
        <time>2017-09-03T11:37:29Z</time>
      </trkpt>
      <trkpt lat="59.043739" lon="17.270336">
        <ele>48</ele>
        <time>2017-09-03T11:37:30Z</time>
      </trkpt>
      <trkpt lat="59.043777" lon="17.270467">
        <ele>48</ele>
        <time>2017-09-03T11:37:31Z</time>
      </trkpt>
      <trkpt lat="59.043816" lon="17.270594">
        <ele>48</ele>
        <time>2017-09-03T11:37:32Z</time>
      </trkpt>
      <trkpt lat="59.043854" lon="17.270719">
        <ele>47.8</ele>
        <time>2017-09-03T11:37:33Z</time>
      </trkpt>
      <trkpt lat="59.043891" lon="17.270843">
        <ele>47.8</ele>
        <time>2017-09-03T11:37:34Z</time>
      </trkpt>
      <trkpt lat="59.043926" lon="17.270963">
        <ele>47.8</ele>
        <time>2017-09-03T11:37:35Z</time>
      </trkpt>
      <trkpt lat="59.043963" lon="17.271082">
        <ele>47.8</ele>
        <time>2017-09-03T11:37:36Z</time>
      </trkpt>
      <trkpt lat="59.043999" lon="17.271201">
        <ele>47.8</ele>
        <time>2017-09-03T11:37:37Z</time>
      </trkpt>
      <trkpt lat="59.044035" lon="17.27132">
        <ele>48</ele>
        <time>2017-09-03T11:37:38Z</time>
      </trkpt>
      <trkpt lat="59.044072" lon="17.271439">
        <ele>48</ele>
        <time>2017-09-03T11:37:39Z</time>
      </trkpt>
      <trkpt lat="59.044109" lon="17.271558">
        <ele>48</ele>
        <time>2017-09-03T11:37:40Z</time>
      </trkpt>
      <trkpt lat="59.044144" lon="17.271679">
        <ele>48.2</ele>
        <time>2017-09-03T11:37:41Z</time>
      </trkpt>
      <trkpt lat="59.044179" lon="17.271798">
        <ele>48.2</ele>
        <time>2017-09-03T11:37:42Z</time>
      </trkpt>
      <trkpt lat="59.044214" lon="17.271915">
        <ele>48.6</ele>
        <time>2017-09-03T11:37:43Z</time>
      </trkpt>
      <trkpt lat="59.04425" lon="17.272033">
        <ele>49.4</ele>
        <time>2017-09-03T11:37:44Z</time>
      </trkpt>
      <trkpt lat="59.044286" lon="17.272153">
        <ele>50</ele>
        <time>2017-09-03T11:37:45Z</time>
      </trkpt>
      <trkpt lat="59.044321" lon="17.272274">
        <ele>50.4</ele>
        <time>2017-09-03T11:37:46Z</time>
      </trkpt>
      <trkpt lat="59.044359" lon="17.272397">
        <ele>50.8</ele>
        <time>2017-09-03T11:37:47Z</time>
      </trkpt>
      <trkpt lat="59.044396" lon="17.272518">
        <ele>51</ele>
        <time>2017-09-03T11:37:48Z</time>
      </trkpt>
      <trkpt lat="59.044435" lon="17.272635">
        <ele>51.4</ele>
        <time>2017-09-03T11:37:49Z</time>
      </trkpt>
      <trkpt lat="59.044474" lon="17.272748">
        <ele>51.6</ele>
        <time>2017-09-03T11:37:50Z</time>
      </trkpt>
      <trkpt lat="59.044513" lon="17.272859">
        <ele>52.4</ele>
        <time>2017-09-03T11:37:51Z</time>
      </trkpt>
      <trkpt lat="59.044554" lon="17.27297">
        <ele>52.8</ele>
        <time>2017-09-03T11:37:52Z</time>
      </trkpt>
      <trkpt lat="59.044594" lon="17.273082">
        <ele>52.8</ele>
        <time>2017-09-03T11:37:53Z</time>
      </trkpt>
      <trkpt lat="59.044638" lon="17.273199">
        <ele>53</ele>
        <time>2017-09-03T11:37:54Z</time>
      </trkpt>
      <trkpt lat="59.044686" lon="17.273324">
        <ele>53</ele>
        <time>2017-09-03T11:37:55Z</time>
      </trkpt>
      <trkpt lat="59.04474" lon="17.273461">
        <ele>53.2</ele>
        <time>2017-09-03T11:37:56Z</time>
      </trkpt>
      <trkpt lat="59.044796" lon="17.273604">
        <ele>53.2</ele>
        <time>2017-09-03T11:37:57Z</time>
      </trkpt>
      <trkpt lat="59.044849" lon="17.273738">
        <ele>53.4</ele>
        <time>2017-09-03T11:37:58Z</time>
      </trkpt>
      <trkpt lat="59.044901" lon="17.273873">
        <ele>53.4</ele>
        <time>2017-09-03T11:37:59Z</time>
      </trkpt>
      <trkpt lat="59.044954" lon="17.27401">
        <ele>53.4</ele>
        <time>2017-09-03T11:38:00Z</time>
      </trkpt>
      <trkpt lat="59.045006" lon="17.274152">
        <ele>53.4</ele>
        <time>2017-09-03T11:38:01Z</time>
      </trkpt>
      <trkpt lat="59.045055" lon="17.274307">
        <ele>53.6</ele>
        <time>2017-09-03T11:38:02Z</time>
      </trkpt>
      <trkpt lat="59.045101" lon="17.274471">
        <ele>53.6</ele>
        <time>2017-09-03T11:38:03Z</time>
      </trkpt>
      <trkpt lat="59.045146" lon="17.274643">
        <ele>53.6</ele>
        <time>2017-09-03T11:38:04Z</time>
      </trkpt>
      <trkpt lat="59.045189" lon="17.274821">
        <ele>53.6</ele>
        <time>2017-09-03T11:38:05Z</time>
      </trkpt>
      <trkpt lat="59.045233" lon="17.275003">
        <ele>53.4</ele>
        <time>2017-09-03T11:38:06Z</time>
      </trkpt>
      <trkpt lat="59.045277" lon="17.275189">
        <ele>53.4</ele>
        <time>2017-09-03T11:38:07Z</time>
      </trkpt>
      <trkpt lat="59.045324" lon="17.275374">
        <ele>53.4</ele>
        <time>2017-09-03T11:38:08Z</time>
      </trkpt>
      <trkpt lat="59.045371" lon="17.275558">
        <ele>53.4</ele>
        <time>2017-09-03T11:38:09Z</time>
      </trkpt>
      <trkpt lat="59.045417" lon="17.275745">
        <ele>53.4</ele>
        <time>2017-09-03T11:38:10Z</time>
      </trkpt>
      <trkpt lat="59.045462" lon="17.275937">
        <ele>53.4</ele>
        <time>2017-09-03T11:38:11Z</time>
      </trkpt>
      <trkpt lat="59.045508" lon="17.276129">
        <ele>53.4</ele>
        <time>2017-09-03T11:38:12Z</time>
      </trkpt>
      <trkpt lat="59.045556" lon="17.276321">
        <ele>53.2</ele>
        <time>2017-09-03T11:38:13Z</time>
      </trkpt>
      <trkpt lat="59.045602" lon="17.276514">
        <ele>53.2</ele>
        <time>2017-09-03T11:38:14Z</time>
      </trkpt>
      <trkpt lat="59.045647" lon="17.276704">
        <ele>53.2</ele>
        <time>2017-09-03T11:38:15Z</time>
      </trkpt>
      <trkpt lat="59.045694" lon="17.276893">
        <ele>53</ele>
        <time>2017-09-03T11:38:16Z</time>
      </trkpt>
      <trkpt lat="59.045741" lon="17.277081">
        <ele>53</ele>
        <time>2017-09-03T11:38:17Z</time>
      </trkpt>
      <trkpt lat="59.045789" lon="17.277271">
        <ele>53</ele>
        <time>2017-09-03T11:38:18Z</time>
      </trkpt>
      <trkpt lat="59.045837" lon="17.277462">
        <ele>53</ele>
        <time>2017-09-03T11:38:19Z</time>
      </trkpt>
      <trkpt lat="59.045881" lon="17.277656">
        <ele>52.8</ele>
        <time>2017-09-03T11:38:20Z</time>
      </trkpt>
      <trkpt lat="59.045925" lon="17.27785">
        <ele>52.8</ele>
        <time>2017-09-03T11:38:21Z</time>
      </trkpt>
      <trkpt lat="59.045972" lon="17.278047">
        <ele>52.4</ele>
        <time>2017-09-03T11:38:22Z</time>
      </trkpt>
      <trkpt lat="59.046018" lon="17.278251">
        <ele>52.2</ele>
        <time>2017-09-03T11:38:23Z</time>
      </trkpt>
      <trkpt lat="59.046063" lon="17.278456">
        <ele>52</ele>
        <time>2017-09-03T11:38:24Z</time>
      </trkpt>
      <trkpt lat="59.046111" lon="17.278659">
        <ele>51.4</ele>
        <time>2017-09-03T11:38:25Z</time>
      </trkpt>
      <trkpt lat="59.046164" lon="17.278859">
        <ele>51.4</ele>
        <time>2017-09-03T11:38:26Z</time>
      </trkpt>
      <trkpt lat="59.046216" lon="17.279059">
        <ele>51.4</ele>
        <time>2017-09-03T11:38:27Z</time>
      </trkpt>
      <trkpt lat="59.046265" lon="17.27926">
        <ele>51</ele>
        <time>2017-09-03T11:38:28Z</time>
      </trkpt>
      <trkpt lat="59.046313" lon="17.279458">
        <ele>50.8</ele>
        <time>2017-09-03T11:38:29Z</time>
      </trkpt>
      <trkpt lat="59.046364" lon="17.27965">
        <ele>50.4</ele>
        <time>2017-09-03T11:38:30Z</time>
      </trkpt>
      <trkpt lat="59.046421" lon="17.279834">
        <ele>50.2</ele>
        <time>2017-09-03T11:38:31Z</time>
      </trkpt>
      <trkpt lat="59.046485" lon="17.280011">
        <ele>50</ele>
        <time>2017-09-03T11:38:32Z</time>
      </trkpt>
      <trkpt lat="59.046557" lon="17.280183">
        <ele>49.6</ele>
        <time>2017-09-03T11:38:33Z</time>
      </trkpt>
      <trkpt lat="59.046635" lon="17.280348">
        <ele>49.4</ele>
        <time>2017-09-03T11:38:34Z</time>
      </trkpt>
      <trkpt lat="59.04672" lon="17.280507">
        <ele>49</ele>
        <time>2017-09-03T11:38:35Z</time>
      </trkpt>
      <trkpt lat="59.046812" lon="17.280662">
        <ele>48</ele>
        <time>2017-09-03T11:38:36Z</time>
      </trkpt>
      <trkpt lat="59.04691" lon="17.280821">
        <ele>47</ele>
        <time>2017-09-03T11:38:37Z</time>
      </trkpt>
      <trkpt lat="59.04701" lon="17.280986">
        <ele>46.6</ele>
        <time>2017-09-03T11:38:38Z</time>
      </trkpt>
      <trkpt lat="59.047115" lon="17.281146">
        <ele>46.2</ele>
        <time>2017-09-03T11:38:39Z</time>
      </trkpt>
      <trkpt lat="59.047222" lon="17.281303">
        <ele>46</ele>
        <time>2017-09-03T11:38:40Z</time>
      </trkpt>
      <trkpt lat="59.047326" lon="17.281457">
        <ele>45.8</ele>
        <time>2017-09-03T11:38:41Z</time>
      </trkpt>
      <trkpt lat="59.047427" lon="17.281601">
        <ele>45.8</ele>
        <time>2017-09-03T11:38:42Z</time>
      </trkpt>
      <trkpt lat="59.047523" lon="17.281737">
        <ele>45.2</ele>
        <time>2017-09-03T11:38:43Z</time>
      </trkpt>
      <trkpt lat="59.047608" lon="17.28186">
        <ele>44.4</ele>
        <time>2017-09-03T11:38:44Z</time>
      </trkpt>
      <trkpt lat="59.047681" lon="17.281989">
        <ele>43.6</ele>
        <time>2017-09-03T11:38:45Z</time>
      </trkpt>
      <trkpt lat="59.047728" lon="17.282137">
        <ele>42.6</ele>
        <time>2017-09-03T11:38:46Z</time>
      </trkpt>
      <trkpt lat="59.047744" lon="17.282303">
        <ele>41.4</ele>
        <time>2017-09-03T11:38:47Z</time>
      </trkpt>
      <trkpt lat="59.047736" lon="17.282471">
        <ele>40.6</ele>
        <time>2017-09-03T11:38:48Z</time>
      </trkpt>
      <trkpt lat="59.047711" lon="17.282642">
        <ele>40</ele>
        <time>2017-09-03T11:38:49Z</time>
      </trkpt>
      <trkpt lat="59.04768" lon="17.282813">
        <ele>40</ele>
        <time>2017-09-03T11:38:50Z</time>
      </trkpt>
      <trkpt lat="59.047646" lon="17.282987">
        <ele>39.8</ele>
        <time>2017-09-03T11:38:51Z</time>
      </trkpt>
      <trkpt lat="59.047607" lon="17.283156">
        <ele>39.8</ele>
        <time>2017-09-03T11:38:52Z</time>
      </trkpt>
      <trkpt lat="59.047565" lon="17.283326">
        <ele>39.8</ele>
        <time>2017-09-03T11:38:53Z</time>
      </trkpt>
      <trkpt lat="59.047521" lon="17.283504">
        <ele>39.8</ele>
        <time>2017-09-03T11:38:54Z</time>
      </trkpt>
      <trkpt lat="59.047475" lon="17.283675">
        <ele>39.8</ele>
        <time>2017-09-03T11:38:55Z</time>
      </trkpt>
      <trkpt lat="59.047427" lon="17.283844">
        <ele>39.8</ele>
        <time>2017-09-03T11:38:56Z</time>
      </trkpt>
      <trkpt lat="59.047378" lon="17.284014">
        <ele>39.8</ele>
        <time>2017-09-03T11:38:57Z</time>
      </trkpt>
      <trkpt lat="59.047327" lon="17.284184">
        <ele>40</ele>
        <time>2017-09-03T11:38:58Z</time>
      </trkpt>
      <trkpt lat="59.047276" lon="17.284354">
        <ele>40</ele>
        <time>2017-09-03T11:38:59Z</time>
      </trkpt>
      <trkpt lat="59.047225" lon="17.284524">
        <ele>40.2</ele>
        <time>2017-09-03T11:39:00Z</time>
      </trkpt>
      <trkpt lat="59.047174" lon="17.284694">
        <ele>40.2</ele>
        <time>2017-09-03T11:39:01Z</time>
      </trkpt>
      <trkpt lat="59.047123" lon="17.28486">
        <ele>40.4</ele>
        <time>2017-09-03T11:39:02Z</time>
      </trkpt>
      <trkpt lat="59.04707" lon="17.285027">
        <ele>40.6</ele>
        <time>2017-09-03T11:39:03Z</time>
      </trkpt>
      <trkpt lat="59.047018" lon="17.285192">
        <ele>40.8</ele>
        <time>2017-09-03T11:39:04Z</time>
      </trkpt>
      <trkpt lat="59.046964" lon="17.285355">
        <ele>41</ele>
        <time>2017-09-03T11:39:05Z</time>
      </trkpt>
      <trkpt lat="59.046909" lon="17.285518">
        <ele>41</ele>
        <time>2017-09-03T11:39:06Z</time>
      </trkpt>
      <trkpt lat="59.046853" lon="17.285682">
        <ele>41</ele>
        <time>2017-09-03T11:39:07Z</time>
      </trkpt>
      <trkpt lat="59.046797" lon="17.285846">
        <ele>41.2</ele>
        <time>2017-09-03T11:39:08Z</time>
      </trkpt>
      <trkpt lat="59.046739" lon="17.286009">
        <ele>41.2</ele>
        <time>2017-09-03T11:39:09Z</time>
      </trkpt>
      <trkpt lat="59.04668" lon="17.286172">
        <ele>41.6</ele>
        <time>2017-09-03T11:39:10Z</time>
      </trkpt>
      <trkpt lat="59.04662" lon="17.286333">
        <ele>41.8</ele>
        <time>2017-09-03T11:39:11Z</time>
      </trkpt>
      <trkpt lat="59.046557" lon="17.286496">
        <ele>42</ele>
        <time>2017-09-03T11:39:12Z</time>
      </trkpt>
      <trkpt lat="59.046494" lon="17.286661">
        <ele>42.2</ele>
        <time>2017-09-03T11:39:13Z</time>
      </trkpt>
      <trkpt lat="59.04643" lon="17.286822">
        <ele>42.2</ele>
        <time>2017-09-03T11:39:14Z</time>
      </trkpt>
      <trkpt lat="59.046365" lon="17.286978">
        <ele>42.4</ele>
        <time>2017-09-03T11:39:15Z</time>
      </trkpt>
      <trkpt lat="59.046299" lon="17.287134">
        <ele>42.4</ele>
        <time>2017-09-03T11:39:16Z</time>
      </trkpt>
      <trkpt lat="59.046231" lon="17.287287">
        <ele>42.8</ele>
        <time>2017-09-03T11:39:17Z</time>
      </trkpt>
      <trkpt lat="59.046162" lon="17.287438">
        <ele>43.6</ele>
        <time>2017-09-03T11:39:18Z</time>
      </trkpt>
      <trkpt lat="59.046094" lon="17.28759">
        <ele>44</ele>
        <time>2017-09-03T11:39:19Z</time>
      </trkpt>
      <trkpt lat="59.046026" lon="17.287741">
        <ele>44.4</ele>
        <time>2017-09-03T11:39:20Z</time>
      </trkpt>
      <trkpt lat="59.045957" lon="17.28789">
        <ele>44.8</ele>
        <time>2017-09-03T11:39:21Z</time>
      </trkpt>
      <trkpt lat="59.045887" lon="17.288038">
        <ele>45</ele>
        <time>2017-09-03T11:39:22Z</time>
      </trkpt>
      <trkpt lat="59.045817" lon="17.288185">
        <ele>45</ele>
        <time>2017-09-03T11:39:23Z</time>
      </trkpt>
      <trkpt lat="59.045744" lon="17.288341">
        <ele>45</ele>
        <time>2017-09-03T11:39:24Z</time>
      </trkpt>
      <trkpt lat="59.045673" lon="17.288495">
        <ele>45</ele>
        <time>2017-09-03T11:39:25Z</time>
      </trkpt>
      <trkpt lat="59.045604" lon="17.288646">
        <ele>45</ele>
        <time>2017-09-03T11:39:26Z</time>
      </trkpt>
      <trkpt lat="59.04553" lon="17.288789">
        <ele>45</ele>
        <time>2017-09-03T11:39:27Z</time>
      </trkpt>
      <trkpt lat="59.045454" lon="17.288929">
        <ele>45</ele>
        <time>2017-09-03T11:39:28Z</time>
      </trkpt>
      <trkpt lat="59.045376" lon="17.289066">
        <ele>45</ele>
        <time>2017-09-03T11:39:29Z</time>
      </trkpt>
      <trkpt lat="59.0453" lon="17.289201">
        <ele>45</ele>
        <time>2017-09-03T11:39:30Z</time>
      </trkpt>
      <trkpt lat="59.045222" lon="17.289333">
        <ele>45</ele>
        <time>2017-09-03T11:39:31Z</time>
      </trkpt>
      <trkpt lat="59.045143" lon="17.289464">
        <ele>44.6</ele>
        <time>2017-09-03T11:39:32Z</time>
      </trkpt>
      <trkpt lat="59.045064" lon="17.28959">
        <ele>44.6</ele>
        <time>2017-09-03T11:39:33Z</time>
      </trkpt>
      <trkpt lat="59.044983" lon="17.289717">
        <ele>44.4</ele>
        <time>2017-09-03T11:39:34Z</time>
      </trkpt>
      <trkpt lat="59.044899" lon="17.289843">
        <ele>44.4</ele>
        <time>2017-09-03T11:39:35Z</time>
      </trkpt>
      <trkpt lat="59.044814" lon="17.289968">
        <ele>44.2</ele>
        <time>2017-09-03T11:39:36Z</time>
      </trkpt>
      <trkpt lat="59.044729" lon="17.29009">
        <ele>44</ele>
        <time>2017-09-03T11:39:37Z</time>
      </trkpt>
      <trkpt lat="59.044641" lon="17.29021">
        <ele>44</ele>
        <time>2017-09-03T11:39:38Z</time>
      </trkpt>
      <trkpt lat="59.044548" lon="17.290331">
        <ele>43.8</ele>
        <time>2017-09-03T11:39:39Z</time>
      </trkpt>
      <trkpt lat="59.044453" lon="17.290452">
        <ele>43.6</ele>
        <time>2017-09-03T11:39:40Z</time>
      </trkpt>
      <trkpt lat="59.044355" lon="17.290578">
        <ele>43.4</ele>
        <time>2017-09-03T11:39:41Z</time>
      </trkpt>
      <trkpt lat="59.044254" lon="17.290709">
        <ele>43.4</ele>
        <time>2017-09-03T11:39:42Z</time>
      </trkpt>
      <trkpt lat="59.044153" lon="17.290841">
        <ele>43.4</ele>
        <time>2017-09-03T11:39:43Z</time>
      </trkpt>
      <trkpt lat="59.044053" lon="17.290971">
        <ele>43.4</ele>
        <time>2017-09-03T11:39:44Z</time>
      </trkpt>
      <trkpt lat="59.043952" lon="17.291099">
        <ele>43.4</ele>
        <time>2017-09-03T11:39:45Z</time>
      </trkpt>
      <trkpt lat="59.043851" lon="17.291224">
        <ele>43.4</ele>
        <time>2017-09-03T11:39:46Z</time>
      </trkpt>
      <trkpt lat="59.043749" lon="17.291349">
        <ele>43.4</ele>
        <time>2017-09-03T11:39:47Z</time>
      </trkpt>
      <trkpt lat="59.043646" lon="17.291475">
        <ele>43.4</ele>
        <time>2017-09-03T11:39:48Z</time>
      </trkpt>
      <trkpt lat="59.043545" lon="17.291596">
        <ele>43.4</ele>
        <time>2017-09-03T11:39:49Z</time>
      </trkpt>
      <trkpt lat="59.043445" lon="17.291714">
        <ele>43.4</ele>
        <time>2017-09-03T11:39:50Z</time>
      </trkpt>
      <trkpt lat="59.043346" lon="17.291827">
        <ele>43.4</ele>
        <time>2017-09-03T11:39:51Z</time>
      </trkpt>
      <trkpt lat="59.043246" lon="17.291939">
        <ele>43.4</ele>
        <time>2017-09-03T11:39:52Z</time>
      </trkpt>
      <trkpt lat="59.043145" lon="17.292053">
        <ele>43.2</ele>
        <time>2017-09-03T11:39:53Z</time>
      </trkpt>
      <trkpt lat="59.043042" lon="17.292168">
        <ele>43</ele>
        <time>2017-09-03T11:39:54Z</time>
      </trkpt>
      <trkpt lat="59.042938" lon="17.292283">
        <ele>42.8</ele>
        <time>2017-09-03T11:39:55Z</time>
      </trkpt>
      <trkpt lat="59.042835" lon="17.292396">
        <ele>42.6</ele>
        <time>2017-09-03T11:39:56Z</time>
      </trkpt>
      <trkpt lat="59.042732" lon="17.292507">
        <ele>42.4</ele>
        <time>2017-09-03T11:39:57Z</time>
      </trkpt>
      <trkpt lat="59.042629" lon="17.292621">
        <ele>42.6</ele>
        <time>2017-09-03T11:39:58Z</time>
      </trkpt>
      <trkpt lat="59.042522" lon="17.292734">
        <ele>42.6</ele>
        <time>2017-09-03T11:39:59Z</time>
      </trkpt>
      <trkpt lat="59.042413" lon="17.292841">
        <ele>42.4</ele>
        <time>2017-09-03T11:40:00Z</time>
      </trkpt>
      <trkpt lat="59.042304" lon="17.292944">
        <ele>42.2</ele>
        <time>2017-09-03T11:40:01Z</time>
      </trkpt>
      <trkpt lat="59.042196" lon="17.293046">
        <ele>42.2</ele>
        <time>2017-09-03T11:40:02Z</time>
      </trkpt>
      <trkpt lat="59.042086" lon="17.29315">
        <ele>42.2</ele>
        <time>2017-09-03T11:40:03Z</time>
      </trkpt>
      <trkpt lat="59.041976" lon="17.293254">
        <ele>42.2</ele>
        <time>2017-09-03T11:40:04Z</time>
      </trkpt>
      <trkpt lat="59.041868" lon="17.293356">
        <ele>42</ele>
        <time>2017-09-03T11:40:05Z</time>
      </trkpt>
      <trkpt lat="59.041759" lon="17.293455">
        <ele>42</ele>
        <time>2017-09-03T11:40:06Z</time>
      </trkpt>
      <trkpt lat="59.041648" lon="17.29355">
        <ele>42</ele>
        <time>2017-09-03T11:40:07Z</time>
      </trkpt>
      <trkpt lat="59.041538" lon="17.293646">
        <ele>41.8</ele>
        <time>2017-09-03T11:40:08Z</time>
      </trkpt>
      <trkpt lat="59.041428" lon="17.293741">
        <ele>41.8</ele>
        <time>2017-09-03T11:40:09Z</time>
      </trkpt>
      <trkpt lat="59.041321" lon="17.293836">
        <ele>41.8</ele>
        <time>2017-09-03T11:40:10Z</time>
      </trkpt>
      <trkpt lat="59.041213" lon="17.29393">
        <ele>41.6</ele>
        <time>2017-09-03T11:40:11Z</time>
      </trkpt>
      <trkpt lat="59.041106" lon="17.294026">
        <ele>41.6</ele>
        <time>2017-09-03T11:40:12Z</time>
      </trkpt>
      <trkpt lat="59.041" lon="17.294122">
        <ele>41.6</ele>
        <time>2017-09-03T11:40:13Z</time>
      </trkpt>
      <trkpt lat="59.040894" lon="17.294218">
        <ele>41.4</ele>
        <time>2017-09-03T11:40:14Z</time>
      </trkpt>
      <trkpt lat="59.040791" lon="17.294314">
        <ele>41.4</ele>
        <time>2017-09-03T11:40:15Z</time>
      </trkpt>
      <trkpt lat="59.040689" lon="17.294415">
        <ele>41.4</ele>
        <time>2017-09-03T11:40:16Z</time>
      </trkpt>
      <trkpt lat="59.040588" lon="17.294522">
        <ele>41.4</ele>
        <time>2017-09-03T11:40:17Z</time>
      </trkpt>
      <trkpt lat="59.040488" lon="17.29463">
        <ele>41.4</ele>
        <time>2017-09-03T11:40:18Z</time>
      </trkpt>
      <trkpt lat="59.040388" lon="17.294741">
        <ele>41.2</ele>
        <time>2017-09-03T11:40:19Z</time>
      </trkpt>
      <trkpt lat="59.040287" lon="17.294859">
        <ele>41.2</ele>
        <time>2017-09-03T11:40:20Z</time>
      </trkpt>
      <trkpt lat="59.040189" lon="17.294981">
        <ele>41.2</ele>
        <time>2017-09-03T11:40:21Z</time>
      </trkpt>
      <trkpt lat="59.040092" lon="17.295105">
        <ele>41.2</ele>
        <time>2017-09-03T11:40:22Z</time>
      </trkpt>
      <trkpt lat="59.039994" lon="17.295232">
        <ele>41</ele>
        <time>2017-09-03T11:40:23Z</time>
      </trkpt>
      <trkpt lat="59.039897" lon="17.295361">
        <ele>41</ele>
        <time>2017-09-03T11:40:24Z</time>
      </trkpt>
      <trkpt lat="59.039801" lon="17.295496">
        <ele>40.8</ele>
        <time>2017-09-03T11:40:25Z</time>
      </trkpt>
      <trkpt lat="59.039705" lon="17.295637">
        <ele>40.4</ele>
        <time>2017-09-03T11:40:26Z</time>
      </trkpt>
      <trkpt lat="59.039612" lon="17.295784">
        <ele>40.2</ele>
        <time>2017-09-03T11:40:27Z</time>
      </trkpt>
      <trkpt lat="59.03952" lon="17.295937">
        <ele>40</ele>
        <time>2017-09-03T11:40:28Z</time>
      </trkpt>
      <trkpt lat="59.039428" lon="17.296091">
        <ele>40</ele>
        <time>2017-09-03T11:40:29Z</time>
      </trkpt>
      <trkpt lat="59.039337" lon="17.296249">
        <ele>39.8</ele>
        <time>2017-09-03T11:40:30Z</time>
      </trkpt>
      <trkpt lat="59.039248" lon="17.296407">
        <ele>39.6</ele>
        <time>2017-09-03T11:40:31Z</time>
      </trkpt>
      <trkpt lat="59.039158" lon="17.296569">
        <ele>39.6</ele>
        <time>2017-09-03T11:40:32Z</time>
      </trkpt>
      <trkpt lat="59.039068" lon="17.296732">
        <ele>39.4</ele>
        <time>2017-09-03T11:40:33Z</time>
      </trkpt>
      <trkpt lat="59.038979" lon="17.296897">
        <ele>39.2</ele>
        <time>2017-09-03T11:40:34Z</time>
      </trkpt>
      <trkpt lat="59.038889" lon="17.297061">
        <ele>39</ele>
        <time>2017-09-03T11:40:35Z</time>
      </trkpt>
      <trkpt lat="59.038797" lon="17.297222">
        <ele>38.6</ele>
        <time>2017-09-03T11:40:36Z</time>
      </trkpt>
      <trkpt lat="59.038703" lon="17.297377">
        <ele>38.4</ele>
        <time>2017-09-03T11:40:37Z</time>
      </trkpt>
      <trkpt lat="59.038608" lon="17.297531">
        <ele>38.2</ele>
        <time>2017-09-03T11:40:38Z</time>
      </trkpt>
      <trkpt lat="59.038512" lon="17.297685">
        <ele>38</ele>
        <time>2017-09-03T11:40:39Z</time>
      </trkpt>
      <trkpt lat="59.038415" lon="17.297837">
        <ele>37.8</ele>
        <time>2017-09-03T11:40:40Z</time>
      </trkpt>
      <trkpt lat="59.038317" lon="17.297984">
        <ele>37.6</ele>
        <time>2017-09-03T11:40:41Z</time>
      </trkpt>
      <trkpt lat="59.038217" lon="17.298126">
        <ele>37.6</ele>
        <time>2017-09-03T11:40:42Z</time>
      </trkpt>
      <trkpt lat="59.038114" lon="17.298261">
        <ele>37.4</ele>
        <time>2017-09-03T11:40:43Z</time>
      </trkpt>
      <trkpt lat="59.03801" lon="17.298389">
        <ele>37.4</ele>
        <time>2017-09-03T11:40:44Z</time>
      </trkpt>
      <trkpt lat="59.037905" lon="17.298514">
        <ele>37.2</ele>
        <time>2017-09-03T11:40:45Z</time>
      </trkpt>
      <trkpt lat="59.0378" lon="17.298639">
        <ele>37</ele>
        <time>2017-09-03T11:40:46Z</time>
      </trkpt>
      <trkpt lat="59.037696" lon="17.298761">
        <ele>37</ele>
        <time>2017-09-03T11:40:47Z</time>
      </trkpt>
      <trkpt lat="59.037591" lon="17.298881">
        <ele>36.8</ele>
        <time>2017-09-03T11:40:48Z</time>
      </trkpt>
      <trkpt lat="59.037485" lon="17.298999">
        <ele>36.6</ele>
        <time>2017-09-03T11:40:49Z</time>
      </trkpt>
      <trkpt lat="59.03738" lon="17.299118">
        <ele>36.6</ele>
        <time>2017-09-03T11:40:50Z</time>
      </trkpt>
      <trkpt lat="59.037275" lon="17.299236">
        <ele>36.4</ele>
        <time>2017-09-03T11:40:51Z</time>
      </trkpt>
      <trkpt lat="59.037171" lon="17.299352">
        <ele>36.4</ele>
        <time>2017-09-03T11:40:52Z</time>
      </trkpt>
      <trkpt lat="59.037067" lon="17.299471">
        <ele>36.2</ele>
        <time>2017-09-03T11:40:53Z</time>
      </trkpt>
      <trkpt lat="59.036966" lon="17.29959">
        <ele>36</ele>
        <time>2017-09-03T11:40:54Z</time>
      </trkpt>
      <trkpt lat="59.036865" lon="17.299716">
        <ele>35.8</ele>
        <time>2017-09-03T11:40:55Z</time>
      </trkpt>
      <trkpt lat="59.036763" lon="17.299842">
        <ele>35.6</ele>
        <time>2017-09-03T11:40:56Z</time>
      </trkpt>
      <trkpt lat="59.036661" lon="17.29997">
        <ele>35.6</ele>
        <time>2017-09-03T11:40:57Z</time>
      </trkpt>
      <trkpt lat="59.03656" lon="17.300105">
        <ele>35.4</ele>
        <time>2017-09-03T11:40:58Z</time>
      </trkpt>
      <trkpt lat="59.036461" lon="17.300244">
        <ele>35.4</ele>
        <time>2017-09-03T11:40:59Z</time>
      </trkpt>
      <trkpt lat="59.036364" lon="17.300388">
        <ele>35.2</ele>
        <time>2017-09-03T11:41:00Z</time>
      </trkpt>
      <trkpt lat="59.036267" lon="17.300538">
        <ele>35.2</ele>
        <time>2017-09-03T11:41:01Z</time>
      </trkpt>
      <trkpt lat="59.036174" lon="17.300691">
        <ele>35</ele>
        <time>2017-09-03T11:41:02Z</time>
      </trkpt>
      <trkpt lat="59.036083" lon="17.300844">
        <ele>34.8</ele>
        <time>2017-09-03T11:41:03Z</time>
      </trkpt>
      <trkpt lat="59.035994" lon="17.300997">
        <ele>34.2</ele>
        <time>2017-09-03T11:41:04Z</time>
      </trkpt>
      <trkpt lat="59.035907" lon="17.301153">
        <ele>33.2</ele>
        <time>2017-09-03T11:41:05Z</time>
      </trkpt>
      <trkpt lat="59.035824" lon="17.301313">
        <ele>32.6</ele>
        <time>2017-09-03T11:41:06Z</time>
      </trkpt>
      <trkpt lat="59.035742" lon="17.301473">
        <ele>32.4</ele>
        <time>2017-09-03T11:41:07Z</time>
      </trkpt>
      <trkpt lat="59.035661" lon="17.301635">
        <ele>32.2</ele>
        <time>2017-09-03T11:41:08Z</time>
      </trkpt>
      <trkpt lat="59.035583" lon="17.301801">
        <ele>32</ele>
        <time>2017-09-03T11:41:09Z</time>
      </trkpt>
      <trkpt lat="59.035509" lon="17.301971">
        <ele>32</ele>
        <time>2017-09-03T11:41:10Z</time>
      </trkpt>
      <trkpt lat="59.035439" lon="17.302143">
        <ele>31.8</ele>
        <time>2017-09-03T11:41:11Z</time>
      </trkpt>
      <trkpt lat="59.035372" lon="17.302313">
        <ele>31.8</ele>
        <time>2017-09-03T11:41:12Z</time>
      </trkpt>
      <trkpt lat="59.035308" lon="17.302482">
        <ele>31.8</ele>
        <time>2017-09-03T11:41:13Z</time>
      </trkpt>
      <trkpt lat="59.035243" lon="17.302649">
        <ele>31.8</ele>
        <time>2017-09-03T11:41:14Z</time>
      </trkpt>
      <trkpt lat="59.035182" lon="17.302817">
        <ele>32</ele>
        <time>2017-09-03T11:41:15Z</time>
      </trkpt>
      <trkpt lat="59.035124" lon="17.302989">
        <ele>32</ele>
        <time>2017-09-03T11:41:16Z</time>
      </trkpt>
      <trkpt lat="59.035068" lon="17.303161">
        <ele>32.2</ele>
        <time>2017-09-03T11:41:17Z</time>
      </trkpt>
      <trkpt lat="59.035011" lon="17.30333">
        <ele>32.2</ele>
        <time>2017-09-03T11:41:18Z</time>
      </trkpt>
      <trkpt lat="59.034956" lon="17.303501">
        <ele>32.4</ele>
        <time>2017-09-03T11:41:19Z</time>
      </trkpt>
      <trkpt lat="59.034904" lon="17.303674">
        <ele>32.8</ele>
        <time>2017-09-03T11:41:20Z</time>
      </trkpt>
      <trkpt lat="59.034855" lon="17.303849">
        <ele>33</ele>
        <time>2017-09-03T11:41:21Z</time>
      </trkpt>
      <trkpt lat="59.034805" lon="17.30402">
        <ele>33.2</ele>
        <time>2017-09-03T11:41:22Z</time>
      </trkpt>
      <trkpt lat="59.034752" lon="17.304203">
        <ele>33.8</ele>
        <time>2017-09-03T11:41:23Z</time>
      </trkpt>
      <trkpt lat="59.034707" lon="17.304386">
        <ele>34.2</ele>
        <time>2017-09-03T11:41:24Z</time>
      </trkpt>
      <trkpt lat="59.034666" lon="17.304571">
        <ele>34.4</ele>
        <time>2017-09-03T11:41:25Z</time>
      </trkpt>
      <trkpt lat="59.034627" lon="17.304767">
        <ele>34.4</ele>
        <time>2017-09-03T11:41:26Z</time>
      </trkpt>
      <trkpt lat="59.034589" lon="17.304964">
        <ele>34.8</ele>
        <time>2017-09-03T11:41:27Z</time>
      </trkpt>
      <trkpt lat="59.03455" lon="17.305159">
        <ele>34.8</ele>
        <time>2017-09-03T11:41:28Z</time>
      </trkpt>
      <trkpt lat="59.034513" lon="17.305353">
        <ele>35.4</ele>
        <time>2017-09-03T11:41:29Z</time>
      </trkpt>
      <trkpt lat="59.034481" lon="17.305551">
        <ele>35.6</ele>
        <time>2017-09-03T11:41:30Z</time>
      </trkpt>
      <trkpt lat="59.034452" lon="17.30575">
        <ele>35.8</ele>
        <time>2017-09-03T11:41:31Z</time>
      </trkpt>
      <trkpt lat="59.034424" lon="17.305947">
        <ele>36.8</ele>
        <time>2017-09-03T11:41:32Z</time>
      </trkpt>
      <trkpt lat="59.034396" lon="17.30614">
        <ele>37.4</ele>
        <time>2017-09-03T11:41:33Z</time>
      </trkpt>
      <trkpt lat="59.034367" lon="17.306335">
        <ele>38</ele>
        <time>2017-09-03T11:41:34Z</time>
      </trkpt>
      <trkpt lat="59.034342" lon="17.306534">
        <ele>38.4</ele>
        <time>2017-09-03T11:41:35Z</time>
      </trkpt>
      <trkpt lat="59.03432" lon="17.306733">
        <ele>38.6</ele>
        <time>2017-09-03T11:41:36Z</time>
      </trkpt>
      <trkpt lat="59.034301" lon="17.306931">
        <ele>38.8</ele>
        <time>2017-09-03T11:41:37Z</time>
      </trkpt>
      <trkpt lat="59.034285" lon="17.307129">
        <ele>38.8</ele>
        <time>2017-09-03T11:41:38Z</time>
      </trkpt>
      <trkpt lat="59.03427" lon="17.307325">
        <ele>39</ele>
        <time>2017-09-03T11:41:39Z</time>
      </trkpt>
      <trkpt lat="59.034258" lon="17.307522">
        <ele>39.4</ele>
        <time>2017-09-03T11:41:40Z</time>
      </trkpt>
      <trkpt lat="59.034249" lon="17.307718">
        <ele>39.4</ele>
        <time>2017-09-03T11:41:41Z</time>
      </trkpt>
      <trkpt lat="59.034243" lon="17.307913">
        <ele>39.6</ele>
        <time>2017-09-03T11:41:42Z</time>
      </trkpt>
      <trkpt lat="59.03424" lon="17.308104">
        <ele>39.8</ele>
        <time>2017-09-03T11:41:43Z</time>
      </trkpt>
      <trkpt lat="59.034236" lon="17.308295">
        <ele>40.2</ele>
        <time>2017-09-03T11:41:44Z</time>
      </trkpt>
      <trkpt lat="59.034232" lon="17.308485">
        <ele>40.6</ele>
        <time>2017-09-03T11:41:45Z</time>
      </trkpt>
      <trkpt lat="59.03423" lon="17.308669">
        <ele>40.8</ele>
        <time>2017-09-03T11:41:46Z</time>
      </trkpt>
      <trkpt lat="59.034229" lon="17.308851">
        <ele>41</ele>
        <time>2017-09-03T11:41:47Z</time>
      </trkpt>
      <trkpt lat="59.034231" lon="17.309033">
        <ele>41.2</ele>
        <time>2017-09-03T11:41:48Z</time>
      </trkpt>
      <trkpt lat="59.034237" lon="17.309214">
        <ele>41.4</ele>
        <time>2017-09-03T11:41:49Z</time>
      </trkpt>
      <trkpt lat="59.034242" lon="17.309392">
        <ele>41.6</ele>
        <time>2017-09-03T11:41:50Z</time>
      </trkpt>
      <trkpt lat="59.034249" lon="17.309571">
        <ele>41.6</ele>
        <time>2017-09-03T11:41:51Z</time>
      </trkpt>
      <trkpt lat="59.034257" lon="17.309747">
        <ele>41.8</ele>
        <time>2017-09-03T11:41:52Z</time>
      </trkpt>
      <trkpt lat="59.034264" lon="17.309924">
        <ele>42</ele>
        <time>2017-09-03T11:41:53Z</time>
      </trkpt>
      <trkpt lat="59.034272" lon="17.310099">
        <ele>42</ele>
        <time>2017-09-03T11:41:54Z</time>
      </trkpt>
      <trkpt lat="59.034283" lon="17.310273">
        <ele>42.6</ele>
        <time>2017-09-03T11:41:55Z</time>
      </trkpt>
      <trkpt lat="59.034294" lon="17.310443">
        <ele>43.2</ele>
        <time>2017-09-03T11:41:56Z</time>
      </trkpt>
      <trkpt lat="59.034307" lon="17.31061">
        <ele>43.4</ele>
        <time>2017-09-03T11:41:57Z</time>
      </trkpt>
      <trkpt lat="59.034317" lon="17.310775">
        <ele>43.6</ele>
        <time>2017-09-03T11:41:58Z</time>
      </trkpt>
      <trkpt lat="59.034329" lon="17.31094">
        <ele>43.6</ele>
        <time>2017-09-03T11:41:59Z</time>
      </trkpt>
      <trkpt lat="59.03434" lon="17.311104">
        <ele>43.8</ele>
        <time>2017-09-03T11:42:00Z</time>
      </trkpt>
      <trkpt lat="59.034352" lon="17.31127">
        <ele>43.8</ele>
        <time>2017-09-03T11:42:01Z</time>
      </trkpt>
      <trkpt lat="59.034364" lon="17.311439">
        <ele>44.2</ele>
        <time>2017-09-03T11:42:02Z</time>
      </trkpt>
      <trkpt lat="59.034376" lon="17.311608">
        <ele>44.4</ele>
        <time>2017-09-03T11:42:03Z</time>
      </trkpt>
      <trkpt lat="59.034386" lon="17.311777">
        <ele>44.6</ele>
        <time>2017-09-03T11:42:04Z</time>
      </trkpt>
      <trkpt lat="59.034394" lon="17.311946">
        <ele>44.8</ele>
        <time>2017-09-03T11:42:05Z</time>
      </trkpt>
      <trkpt lat="59.0344" lon="17.312118">
        <ele>45</ele>
        <time>2017-09-03T11:42:06Z</time>
      </trkpt>
      <trkpt lat="59.034405" lon="17.312288">
        <ele>45.2</ele>
        <time>2017-09-03T11:42:07Z</time>
      </trkpt>
      <trkpt lat="59.034411" lon="17.312457">
        <ele>45.4</ele>
        <time>2017-09-03T11:42:08Z</time>
      </trkpt>
      <trkpt lat="59.034417" lon="17.312623">
        <ele>45.6</ele>
        <time>2017-09-03T11:42:09Z</time>
      </trkpt>
      <trkpt lat="59.034424" lon="17.312791">
        <ele>45.6</ele>
        <time>2017-09-03T11:42:10Z</time>
      </trkpt>
      <trkpt lat="59.03443" lon="17.312962">
        <ele>45.6</ele>
        <time>2017-09-03T11:42:11Z</time>
      </trkpt>
      <trkpt lat="59.034435" lon="17.313136">
        <ele>45.8</ele>
        <time>2017-09-03T11:42:12Z</time>
      </trkpt>
      <trkpt lat="59.034438" lon="17.313315">
        <ele>46.4</ele>
        <time>2017-09-03T11:42:13Z</time>
      </trkpt>
      <trkpt lat="59.034438" lon="17.313495">
        <ele>46.6</ele>
        <time>2017-09-03T11:42:14Z</time>
      </trkpt>
      <trkpt lat="59.034435" lon="17.313674">
        <ele>46.8</ele>
        <time>2017-09-03T11:42:15Z</time>
      </trkpt>
      <trkpt lat="59.034433" lon="17.313852">
        <ele>46.8</ele>
        <time>2017-09-03T11:42:16Z</time>
      </trkpt>
      <trkpt lat="59.034431" lon="17.314031">
        <ele>46.8</ele>
        <time>2017-09-03T11:42:17Z</time>
      </trkpt>
      <trkpt lat="59.034428" lon="17.314211">
        <ele>47</ele>
        <time>2017-09-03T11:42:18Z</time>
      </trkpt>
      <trkpt lat="59.034424" lon="17.314392">
        <ele>47</ele>
        <time>2017-09-03T11:42:19Z</time>
      </trkpt>
      <trkpt lat="59.034417" lon="17.314576">
        <ele>47.2</ele>
        <time>2017-09-03T11:42:20Z</time>
      </trkpt>
      <trkpt lat="59.03441" lon="17.314766">
        <ele>47.2</ele>
        <time>2017-09-03T11:42:21Z</time>
      </trkpt>
      <trkpt lat="59.034402" lon="17.314957">
        <ele>47.2</ele>
        <time>2017-09-03T11:42:22Z</time>
      </trkpt>
      <trkpt lat="59.034395" lon="17.315147">
        <ele>47.4</ele>
        <time>2017-09-03T11:42:23Z</time>
      </trkpt>
      <trkpt lat="59.034386" lon="17.315335">
        <ele>47.4</ele>
        <time>2017-09-03T11:42:24Z</time>
      </trkpt>
      <trkpt lat="59.034373" lon="17.315521">
        <ele>47.4</ele>
        <time>2017-09-03T11:42:25Z</time>
      </trkpt>
      <trkpt lat="59.034361" lon="17.315704">
        <ele>47.6</ele>
        <time>2017-09-03T11:42:26Z</time>
      </trkpt>
      <trkpt lat="59.034346" lon="17.315887">
        <ele>47.8</ele>
        <time>2017-09-03T11:42:27Z</time>
      </trkpt>
      <trkpt lat="59.03433" lon="17.316072">
        <ele>48</ele>
        <time>2017-09-03T11:42:28Z</time>
      </trkpt>
      <trkpt lat="59.034312" lon="17.316258">
        <ele>48</ele>
        <time>2017-09-03T11:42:29Z</time>
      </trkpt>
      <trkpt lat="59.034291" lon="17.316446">
        <ele>48.2</ele>
        <time>2017-09-03T11:42:30Z</time>
      </trkpt>
      <trkpt lat="59.03427" lon="17.316635">
        <ele>48.2</ele>
        <time>2017-09-03T11:42:31Z</time>
      </trkpt>
      <trkpt lat="59.034249" lon="17.316822">
        <ele>48.2</ele>
        <time>2017-09-03T11:42:32Z</time>
      </trkpt>
      <trkpt lat="59.034228" lon="17.31701">
        <ele>48.2</ele>
        <time>2017-09-03T11:42:33Z</time>
      </trkpt>
      <trkpt lat="59.034204" lon="17.317197">
        <ele>48.2</ele>
        <time>2017-09-03T11:42:34Z</time>
      </trkpt>
      <trkpt lat="59.034181" lon="17.317384">
        <ele>48.2</ele>
        <time>2017-09-03T11:42:35Z</time>
      </trkpt>
      <trkpt lat="59.034156" lon="17.317569">
        <ele>48.2</ele>
        <time>2017-09-03T11:42:36Z</time>
      </trkpt>
      <trkpt lat="59.034129" lon="17.317755">
        <ele>48</ele>
        <time>2017-09-03T11:42:37Z</time>
      </trkpt>
      <trkpt lat="59.0341" lon="17.317938">
        <ele>47.8</ele>
        <time>2017-09-03T11:42:38Z</time>
      </trkpt>
      <trkpt lat="59.03407" lon="17.318119">
        <ele>47.6</ele>
        <time>2017-09-03T11:42:39Z</time>
      </trkpt>
      <trkpt lat="59.034039" lon="17.318296">
        <ele>47.6</ele>
        <time>2017-09-03T11:42:40Z</time>
      </trkpt>
      <trkpt lat="59.034006" lon="17.318475">
        <ele>47.4</ele>
        <time>2017-09-03T11:42:41Z</time>
      </trkpt>
      <trkpt lat="59.033973" lon="17.318656">
        <ele>47.4</ele>
        <time>2017-09-03T11:42:42Z</time>
      </trkpt>
      <trkpt lat="59.033939" lon="17.318842">
        <ele>47.4</ele>
        <time>2017-09-03T11:42:43Z</time>
      </trkpt>
      <trkpt lat="59.033904" lon="17.319028">
        <ele>47.4</ele>
        <time>2017-09-03T11:42:44Z</time>
      </trkpt>
      <trkpt lat="59.033866" lon="17.319215">
        <ele>47.4</ele>
        <time>2017-09-03T11:42:45Z</time>
      </trkpt>
      <trkpt lat="59.033826" lon="17.319403">
        <ele>47.4</ele>
        <time>2017-09-03T11:42:46Z</time>
      </trkpt>
      <trkpt lat="59.033787" lon="17.319594">
        <ele>47.2</ele>
        <time>2017-09-03T11:42:47Z</time>
      </trkpt>
      <trkpt lat="59.03375" lon="17.319789">
        <ele>47.2</ele>
        <time>2017-09-03T11:42:48Z</time>
      </trkpt>
      <trkpt lat="59.033712" lon="17.319987">
        <ele>47.2</ele>
        <time>2017-09-03T11:42:49Z</time>
      </trkpt>
      <trkpt lat="59.033674" lon="17.320186">
        <ele>47.2</ele>
        <time>2017-09-03T11:42:50Z</time>
      </trkpt>
      <trkpt lat="59.033637" lon="17.320381">
        <ele>47.2</ele>
        <time>2017-09-03T11:42:51Z</time>
      </trkpt>
      <trkpt lat="59.033603" lon="17.320575">
        <ele>47.2</ele>
        <time>2017-09-03T11:42:52Z</time>
      </trkpt>
      <trkpt lat="59.033571" lon="17.320767">
        <ele>47.2</ele>
        <time>2017-09-03T11:42:53Z</time>
      </trkpt>
      <trkpt lat="59.033541" lon="17.320959">
        <ele>47</ele>
        <time>2017-09-03T11:42:54Z</time>
      </trkpt>
      <trkpt lat="59.033513" lon="17.321153">
        <ele>47</ele>
        <time>2017-09-03T11:42:55Z</time>
      </trkpt>
      <trkpt lat="59.033487" lon="17.32135">
        <ele>47</ele>
        <time>2017-09-03T11:42:56Z</time>
      </trkpt>
      <trkpt lat="59.033463" lon="17.32155">
        <ele>47</ele>
        <time>2017-09-03T11:42:57Z</time>
      </trkpt>
      <trkpt lat="59.033436" lon="17.321747">
        <ele>46.8</ele>
        <time>2017-09-03T11:42:58Z</time>
      </trkpt>
      <trkpt lat="59.033408" lon="17.321944">
        <ele>46.8</ele>
        <time>2017-09-03T11:42:59Z</time>
      </trkpt>
      <trkpt lat="59.033383" lon="17.322136">
        <ele>46.8</ele>
        <time>2017-09-03T11:43:00Z</time>
      </trkpt>
      <trkpt lat="59.033364" lon="17.322332">
        <ele>46.8</ele>
        <time>2017-09-03T11:43:01Z</time>
      </trkpt>
      <trkpt lat="59.033349" lon="17.322528">
        <ele>46.6</ele>
        <time>2017-09-03T11:43:02Z</time>
      </trkpt>
      <trkpt lat="59.033336" lon="17.322727">
        <ele>46.6</ele>
        <time>2017-09-03T11:43:03Z</time>
      </trkpt>
      <trkpt lat="59.033324" lon="17.322926">
        <ele>46.4</ele>
        <time>2017-09-03T11:43:04Z</time>
      </trkpt>
      <trkpt lat="59.033314" lon="17.323127">
        <ele>46.4</ele>
        <time>2017-09-03T11:43:05Z</time>
      </trkpt>
      <trkpt lat="59.033307" lon="17.323329">
        <ele>46.4</ele>
        <time>2017-09-03T11:43:06Z</time>
      </trkpt>
      <trkpt lat="59.033301" lon="17.323535">
        <ele>46.4</ele>
        <time>2017-09-03T11:43:07Z</time>
      </trkpt>
      <trkpt lat="59.033297" lon="17.323744">
        <ele>46</ele>
        <time>2017-09-03T11:43:08Z</time>
      </trkpt>
      <trkpt lat="59.033296" lon="17.323956">
        <ele>45.8</ele>
        <time>2017-09-03T11:43:09Z</time>
      </trkpt>
      <trkpt lat="59.033298" lon="17.324166">
        <ele>45.6</ele>
        <time>2017-09-03T11:43:10Z</time>
      </trkpt>
      <trkpt lat="59.033302" lon="17.324379">
        <ele>45.6</ele>
        <time>2017-09-03T11:43:11Z</time>
      </trkpt>
      <trkpt lat="59.03331" lon="17.324591">
        <ele>45.4</ele>
        <time>2017-09-03T11:43:12Z</time>
      </trkpt>
      <trkpt lat="59.033316" lon="17.324804">
        <ele>45.4</ele>
        <time>2017-09-03T11:43:13Z</time>
      </trkpt>
      <trkpt lat="59.033325" lon="17.325016">
        <ele>45.4</ele>
        <time>2017-09-03T11:43:14Z</time>
      </trkpt>
      <trkpt lat="59.033337" lon="17.325229">
        <ele>45</ele>
        <time>2017-09-03T11:43:15Z</time>
      </trkpt>
      <trkpt lat="59.03335" lon="17.325442">
        <ele>44.8</ele>
        <time>2017-09-03T11:43:16Z</time>
      </trkpt>
      <trkpt lat="59.033362" lon="17.325656">
        <ele>44.6</ele>
        <time>2017-09-03T11:43:17Z</time>
      </trkpt>
      <trkpt lat="59.03338" lon="17.325873">
        <ele>44.2</ele>
        <time>2017-09-03T11:43:18Z</time>
      </trkpt>
      <trkpt lat="59.033401" lon="17.326092">
        <ele>43.8</ele>
        <time>2017-09-03T11:43:19Z</time>
      </trkpt>
      <trkpt lat="59.033425" lon="17.326313">
        <ele>43.6</ele>
        <time>2017-09-03T11:43:20Z</time>
      </trkpt>
      <trkpt lat="59.033451" lon="17.326536">
        <ele>43.2</ele>
        <time>2017-09-03T11:43:21Z</time>
      </trkpt>
      <trkpt lat="59.033478" lon="17.326761">
        <ele>42.8</ele>
        <time>2017-09-03T11:43:22Z</time>
      </trkpt>
      <trkpt lat="59.033508" lon="17.326986">
        <ele>42.8</ele>
        <time>2017-09-03T11:43:23Z</time>
      </trkpt>
      <trkpt lat="59.033542" lon="17.327212">
        <ele>42.2</ele>
        <time>2017-09-03T11:43:24Z</time>
      </trkpt>
      <trkpt lat="59.033578" lon="17.327437">
        <ele>41.4</ele>
        <time>2017-09-03T11:43:25Z</time>
      </trkpt>
      <trkpt lat="59.033613" lon="17.327665">
        <ele>41</ele>
        <time>2017-09-03T11:43:26Z</time>
      </trkpt>
      <trkpt lat="59.033648" lon="17.327893">
        <ele>40.4</ele>
        <time>2017-09-03T11:43:27Z</time>
      </trkpt>
      <trkpt lat="59.033683" lon="17.328124">
        <ele>40</ele>
        <time>2017-09-03T11:43:28Z</time>
      </trkpt>
      <trkpt lat="59.033719" lon="17.328356">
        <ele>39.8</ele>
        <time>2017-09-03T11:43:29Z</time>
      </trkpt>
      <trkpt lat="59.033753" lon="17.328589">
        <ele>39.6</ele>
        <time>2017-09-03T11:43:30Z</time>
      </trkpt>
      <trkpt lat="59.033785" lon="17.328824">
        <ele>39.2</ele>
        <time>2017-09-03T11:43:31Z</time>
      </trkpt>
      <trkpt lat="59.033816" lon="17.329058">
        <ele>39</ele>
        <time>2017-09-03T11:43:32Z</time>
      </trkpt>
      <trkpt lat="59.033847" lon="17.329294">
        <ele>38.8</ele>
        <time>2017-09-03T11:43:33Z</time>
      </trkpt>
      <trkpt lat="59.033874" lon="17.329529">
        <ele>38.4</ele>
        <time>2017-09-03T11:43:34Z</time>
      </trkpt>
      <trkpt lat="59.033897" lon="17.329764">
        <ele>37.8</ele>
        <time>2017-09-03T11:43:35Z</time>
      </trkpt>
      <trkpt lat="59.033917" lon="17.329997">
        <ele>37.2</ele>
        <time>2017-09-03T11:43:36Z</time>
      </trkpt>
      <trkpt lat="59.033937" lon="17.330227">
        <ele>36.8</ele>
        <time>2017-09-03T11:43:37Z</time>
      </trkpt>
      <trkpt lat="59.033955" lon="17.330454">
        <ele>36.6</ele>
        <time>2017-09-03T11:43:38Z</time>
      </trkpt>
      <trkpt lat="59.033972" lon="17.330677">
        <ele>36</ele>
        <time>2017-09-03T11:43:39Z</time>
      </trkpt>
      <trkpt lat="59.033987" lon="17.330892">
        <ele>35.6</ele>
        <time>2017-09-03T11:43:40Z</time>
      </trkpt>
      <trkpt lat="59.033997" lon="17.331097">
        <ele>35.2</ele>
        <time>2017-09-03T11:43:41Z</time>
      </trkpt>
      <trkpt lat="59.033999" lon="17.33129">
        <ele>35</ele>
        <time>2017-09-03T11:43:42Z</time>
      </trkpt>
      <trkpt lat="59.033983" lon="17.331467">
        <ele>34.4</ele>
        <time>2017-09-03T11:43:43Z</time>
      </trkpt>
      <trkpt lat="59.033947" lon="17.331627">
        <ele>33.8</ele>
        <time>2017-09-03T11:43:44Z</time>
      </trkpt>
      <trkpt lat="59.033918" lon="17.331793">
        <ele>33.4</ele>
        <time>2017-09-03T11:43:45Z</time>
      </trkpt>
      <trkpt lat="59.033915" lon="17.331964">
        <ele>33.2</ele>
        <time>2017-09-03T11:43:46Z</time>
      </trkpt>
      <trkpt lat="59.033932" lon="17.332138">
        <ele>33</ele>
        <time>2017-09-03T11:43:47Z</time>
      </trkpt>
      <trkpt lat="59.033955" lon="17.332323">
        <ele>32.8</ele>
        <time>2017-09-03T11:43:48Z</time>
      </trkpt>
      <trkpt lat="59.033972" lon="17.332519">
        <ele>32.6</ele>
        <time>2017-09-03T11:43:49Z</time>
      </trkpt>
      <trkpt lat="59.033979" lon="17.332725">
        <ele>32.6</ele>
        <time>2017-09-03T11:43:50Z</time>
      </trkpt>
      <trkpt lat="59.033977" lon="17.33294">
        <ele>32.4</ele>
        <time>2017-09-03T11:43:51Z</time>
      </trkpt>
      <trkpt lat="59.033968" lon="17.33316">
        <ele>32.4</ele>
        <time>2017-09-03T11:43:52Z</time>
      </trkpt>
      <trkpt lat="59.033955" lon="17.333384">
        <ele>32.2</ele>
        <time>2017-09-03T11:43:53Z</time>
      </trkpt>
      <trkpt lat="59.033941" lon="17.333608">
        <ele>32.2</ele>
        <time>2017-09-03T11:43:54Z</time>
      </trkpt>
      <trkpt lat="59.033927" lon="17.33383">
        <ele>32</ele>
        <time>2017-09-03T11:43:55Z</time>
      </trkpt>
      <trkpt lat="59.033911" lon="17.334046">
        <ele>31.8</ele>
        <time>2017-09-03T11:43:56Z</time>
      </trkpt>
      <trkpt lat="59.033896" lon="17.334256">
        <ele>31.6</ele>
        <time>2017-09-03T11:43:57Z</time>
      </trkpt>
      <trkpt lat="59.033882" lon="17.334463">
        <ele>31.6</ele>
        <time>2017-09-03T11:43:58Z</time>
      </trkpt>
      <trkpt lat="59.033869" lon="17.334669">
        <ele>31.4</ele>
        <time>2017-09-03T11:43:59Z</time>
      </trkpt>
      <trkpt lat="59.033856" lon="17.334876">
        <ele>31.4</ele>
        <time>2017-09-03T11:44:00Z</time>
      </trkpt>
      <trkpt lat="59.033844" lon="17.33508">
        <ele>31.4</ele>
        <time>2017-09-03T11:44:01Z</time>
      </trkpt>
      <trkpt lat="59.033833" lon="17.335279">
        <ele>31.2</ele>
        <time>2017-09-03T11:44:02Z</time>
      </trkpt>
      <trkpt lat="59.033822" lon="17.335475">
        <ele>31.2</ele>
        <time>2017-09-03T11:44:03Z</time>
      </trkpt>
      <trkpt lat="59.033811" lon="17.335668">
        <ele>31.2</ele>
        <time>2017-09-03T11:44:04Z</time>
      </trkpt>
      <trkpt lat="59.033798" lon="17.335858">
        <ele>31.2</ele>
        <time>2017-09-03T11:44:05Z</time>
      </trkpt>
      <trkpt lat="59.033784" lon="17.336046">
        <ele>31.2</ele>
        <time>2017-09-03T11:44:06Z</time>
      </trkpt>
      <trkpt lat="59.033769" lon="17.336232">
        <ele>31.2</ele>
        <time>2017-09-03T11:44:07Z</time>
      </trkpt>
      <trkpt lat="59.033756" lon="17.336418">
        <ele>31.6</ele>
        <time>2017-09-03T11:44:08Z</time>
      </trkpt>
      <trkpt lat="59.033742" lon="17.336602">
        <ele>31.6</ele>
        <time>2017-09-03T11:44:09Z</time>
      </trkpt>
      <trkpt lat="59.033727" lon="17.336783">
        <ele>31.6</ele>
        <time>2017-09-03T11:44:10Z</time>
      </trkpt>
      <trkpt lat="59.033713" lon="17.336963">
        <ele>31.6</ele>
        <time>2017-09-03T11:44:11Z</time>
      </trkpt>
      <trkpt lat="59.033699" lon="17.337138">
        <ele>31.6</ele>
        <time>2017-09-03T11:44:12Z</time>
      </trkpt>
      <trkpt lat="59.03369" lon="17.337316">
        <ele>31.6</ele>
        <time>2017-09-03T11:44:13Z</time>
      </trkpt>
      <trkpt lat="59.033679" lon="17.337493">
        <ele>31.8</ele>
        <time>2017-09-03T11:44:14Z</time>
      </trkpt>
      <trkpt lat="59.033669" lon="17.337669">
        <ele>32</ele>
        <time>2017-09-03T11:44:15Z</time>
      </trkpt>
      <trkpt lat="59.033665" lon="17.337849">
        <ele>32</ele>
        <time>2017-09-03T11:44:16Z</time>
      </trkpt>
      <trkpt lat="59.033661" lon="17.338022">
        <ele>32</ele>
        <time>2017-09-03T11:44:17Z</time>
      </trkpt>
      <trkpt lat="59.033657" lon="17.338198">
        <ele>32</ele>
        <time>2017-09-03T11:44:18Z</time>
      </trkpt>
      <trkpt lat="59.033654" lon="17.338372">
        <ele>32.2</ele>
        <time>2017-09-03T11:44:19Z</time>
      </trkpt>
      <trkpt lat="59.033651" lon="17.338547">
        <ele>32.2</ele>
        <time>2017-09-03T11:44:20Z</time>
      </trkpt>
      <trkpt lat="59.033651" lon="17.338726">
        <ele>32.2</ele>
        <time>2017-09-03T11:44:21Z</time>
      </trkpt>
      <trkpt lat="59.033657" lon="17.338903">
        <ele>32.4</ele>
        <time>2017-09-03T11:44:22Z</time>
      </trkpt>
      <trkpt lat="59.033661" lon="17.33908">
        <ele>32.4</ele>
        <time>2017-09-03T11:44:23Z</time>
      </trkpt>
      <trkpt lat="59.033666" lon="17.33926">
        <ele>32.6</ele>
        <time>2017-09-03T11:44:24Z</time>
      </trkpt>
      <trkpt lat="59.033669" lon="17.339443">
        <ele>32.8</ele>
        <time>2017-09-03T11:44:25Z</time>
      </trkpt>
      <trkpt lat="59.033675" lon="17.339621">
        <ele>32.8</ele>
        <time>2017-09-03T11:44:26Z</time>
      </trkpt>
      <trkpt lat="59.033684" lon="17.339803">
        <ele>32.8</ele>
        <time>2017-09-03T11:44:27Z</time>
      </trkpt>
      <trkpt lat="59.033696" lon="17.339985">
        <ele>33</ele>
        <time>2017-09-03T11:44:28Z</time>
      </trkpt>
      <trkpt lat="59.033709" lon="17.340167">
        <ele>33</ele>
        <time>2017-09-03T11:44:29Z</time>
      </trkpt>
      <trkpt lat="59.033725" lon="17.340347">
        <ele>33.2</ele>
        <time>2017-09-03T11:44:30Z</time>
      </trkpt>
      <trkpt lat="59.033742" lon="17.340523">
        <ele>33.6</ele>
        <time>2017-09-03T11:44:31Z</time>
      </trkpt>
      <trkpt lat="59.033761" lon="17.340701">
        <ele>34</ele>
        <time>2017-09-03T11:44:32Z</time>
      </trkpt>
      <trkpt lat="59.033777" lon="17.340877">
        <ele>34.4</ele>
        <time>2017-09-03T11:44:33Z</time>
      </trkpt>
      <trkpt lat="59.033793" lon="17.341052">
        <ele>35</ele>
        <time>2017-09-03T11:44:34Z</time>
      </trkpt>
      <trkpt lat="59.033808" lon="17.341232">
        <ele>35.6</ele>
        <time>2017-09-03T11:44:35Z</time>
      </trkpt>
      <trkpt lat="59.033824" lon="17.341412">
        <ele>36</ele>
        <time>2017-09-03T11:44:36Z</time>
      </trkpt>
      <trkpt lat="59.033842" lon="17.341593">
        <ele>36.4</ele>
        <time>2017-09-03T11:44:37Z</time>
      </trkpt>
      <trkpt lat="59.03386" lon="17.341776">
        <ele>36.6</ele>
        <time>2017-09-03T11:44:38Z</time>
      </trkpt>
      <trkpt lat="59.033879" lon="17.341964">
        <ele>36.6</ele>
        <time>2017-09-03T11:44:39Z</time>
      </trkpt>
      <trkpt lat="59.033899" lon="17.342155">
        <ele>36.6</ele>
        <time>2017-09-03T11:44:40Z</time>
      </trkpt>
      <trkpt lat="59.033922" lon="17.342344">
        <ele>36.6</ele>
        <time>2017-09-03T11:44:41Z</time>
      </trkpt>
      <trkpt lat="59.033949" lon="17.342529">
        <ele>36.6</ele>
        <time>2017-09-03T11:44:42Z</time>
      </trkpt>
      <trkpt lat="59.033974" lon="17.342716">
        <ele>36.6</ele>
        <time>2017-09-03T11:44:43Z</time>
      </trkpt>
      <trkpt lat="59.033996" lon="17.342908">
        <ele>36.6</ele>
        <time>2017-09-03T11:44:44Z</time>
      </trkpt>
      <trkpt lat="59.034018" lon="17.343103">
        <ele>36.6</ele>
        <time>2017-09-03T11:44:45Z</time>
      </trkpt>
      <trkpt lat="59.034041" lon="17.343304">
        <ele>36.4</ele>
        <time>2017-09-03T11:44:46Z</time>
      </trkpt>
      <trkpt lat="59.034064" lon="17.343508">
        <ele>35.8</ele>
        <time>2017-09-03T11:44:47Z</time>
      </trkpt>
      <trkpt lat="59.034086" lon="17.343715">
        <ele>35</ele>
        <time>2017-09-03T11:44:48Z</time>
      </trkpt>
      <trkpt lat="59.03411" lon="17.343921">
        <ele>34.4</ele>
        <time>2017-09-03T11:44:49Z</time>
      </trkpt>
      <trkpt lat="59.034135" lon="17.344127">
        <ele>34.2</ele>
        <time>2017-09-03T11:44:50Z</time>
      </trkpt>
      <trkpt lat="59.034158" lon="17.344331">
        <ele>34</ele>
        <time>2017-09-03T11:44:51Z</time>
      </trkpt>
      <trkpt lat="59.034181" lon="17.344535">
        <ele>33.8</ele>
        <time>2017-09-03T11:44:52Z</time>
      </trkpt>
      <trkpt lat="59.034206" lon="17.344737">
        <ele>33.8</ele>
        <time>2017-09-03T11:44:53Z</time>
      </trkpt>
      <trkpt lat="59.034233" lon="17.344937">
        <ele>33.8</ele>
        <time>2017-09-03T11:44:54Z</time>
      </trkpt>
      <trkpt lat="59.034257" lon="17.345139">
        <ele>33.8</ele>
        <time>2017-09-03T11:44:55Z</time>
      </trkpt>
      <trkpt lat="59.034282" lon="17.345345">
        <ele>33.8</ele>
        <time>2017-09-03T11:44:56Z</time>
      </trkpt>
      <trkpt lat="59.034307" lon="17.345553">
        <ele>33.8</ele>
        <time>2017-09-03T11:44:57Z</time>
      </trkpt>
      <trkpt lat="59.034333" lon="17.345764">
        <ele>33.8</ele>
        <time>2017-09-03T11:44:58Z</time>
      </trkpt>
      <trkpt lat="59.034361" lon="17.345973">
        <ele>33.8</ele>
        <time>2017-09-03T11:44:59Z</time>
      </trkpt>
      <trkpt lat="59.034384" lon="17.346181">
        <ele>33.8</ele>
        <time>2017-09-03T11:45:00Z</time>
      </trkpt>
      <trkpt lat="59.034409" lon="17.346383">
        <ele>34</ele>
        <time>2017-09-03T11:45:01Z</time>
      </trkpt>
      <trkpt lat="59.034432" lon="17.346581">
        <ele>34.2</ele>
        <time>2017-09-03T11:45:02Z</time>
      </trkpt>
      <trkpt lat="59.034456" lon="17.346774">
        <ele>34.4</ele>
        <time>2017-09-03T11:45:03Z</time>
      </trkpt>
      <trkpt lat="59.034477" lon="17.346964">
        <ele>34.6</ele>
        <time>2017-09-03T11:45:04Z</time>
      </trkpt>
      <trkpt lat="59.034499" lon="17.347153">
        <ele>34.6</ele>
        <time>2017-09-03T11:45:05Z</time>
      </trkpt>
      <trkpt lat="59.034521" lon="17.347342">
        <ele>34.8</ele>
        <time>2017-09-03T11:45:06Z</time>
      </trkpt>
      <trkpt lat="59.034543" lon="17.34754">
        <ele>35.2</ele>
        <time>2017-09-03T11:45:07Z</time>
      </trkpt>
      <trkpt lat="59.034563" lon="17.347746">
        <ele>35.2</ele>
        <time>2017-09-03T11:45:08Z</time>
      </trkpt>
      <trkpt lat="59.034583" lon="17.347957">
        <ele>35.2</ele>
        <time>2017-09-03T11:45:09Z</time>
      </trkpt>
      <trkpt lat="59.034606" lon="17.348171">
        <ele>35.2</ele>
        <time>2017-09-03T11:45:10Z</time>
      </trkpt>
      <trkpt lat="59.034631" lon="17.348384">
        <ele>35.2</ele>
        <time>2017-09-03T11:45:11Z</time>
      </trkpt>
      <trkpt lat="59.034655" lon="17.348595">
        <ele>35.2</ele>
        <time>2017-09-03T11:45:12Z</time>
      </trkpt>
      <trkpt lat="59.034678" lon="17.348803">
        <ele>35.2</ele>
        <time>2017-09-03T11:45:13Z</time>
      </trkpt>
      <trkpt lat="59.0347" lon="17.349014">
        <ele>35.2</ele>
        <time>2017-09-03T11:45:14Z</time>
      </trkpt>
      <trkpt lat="59.034725" lon="17.349226">
        <ele>35.2</ele>
        <time>2017-09-03T11:45:15Z</time>
      </trkpt>
      <trkpt lat="59.03475" lon="17.349434">
        <ele>35</ele>
        <time>2017-09-03T11:45:16Z</time>
      </trkpt>
      <trkpt lat="59.034772" lon="17.34964">
        <ele>34.8</ele>
        <time>2017-09-03T11:45:17Z</time>
      </trkpt>
      <trkpt lat="59.034795" lon="17.349845">
        <ele>34.8</ele>
        <time>2017-09-03T11:45:18Z</time>
      </trkpt>
      <trkpt lat="59.034818" lon="17.350046">
        <ele>34.6</ele>
        <time>2017-09-03T11:45:19Z</time>
      </trkpt>
      <trkpt lat="59.034842" lon="17.350244">
        <ele>34.6</ele>
        <time>2017-09-03T11:45:20Z</time>
      </trkpt>
      <trkpt lat="59.034867" lon="17.350438">
        <ele>34.6</ele>
        <time>2017-09-03T11:45:21Z</time>
      </trkpt>
      <trkpt lat="59.034891" lon="17.350623">
        <ele>34.6</ele>
        <time>2017-09-03T11:45:22Z</time>
      </trkpt>
      <trkpt lat="59.034914" lon="17.3508">
        <ele>34.6</ele>
        <time>2017-09-03T11:45:23Z</time>
      </trkpt>
      <trkpt lat="59.034934" lon="17.350969">
        <ele>34.6</ele>
        <time>2017-09-03T11:45:24Z</time>
      </trkpt>
      <trkpt lat="59.034954" lon="17.351129">
        <ele>34.6</ele>
        <time>2017-09-03T11:45:25Z</time>
      </trkpt>
      <trkpt lat="59.034973" lon="17.351279">
        <ele>34.6</ele>
        <time>2017-09-03T11:45:26Z</time>
      </trkpt>
      <trkpt lat="59.03499" lon="17.351423">
        <ele>34.6</ele>
        <time>2017-09-03T11:45:27Z</time>
      </trkpt>
      <trkpt lat="59.035007" lon="17.351572">
        <ele>34.6</ele>
        <time>2017-09-03T11:45:28Z</time>
      </trkpt>
      <trkpt lat="59.035024" lon="17.351719">
        <ele>34.8</ele>
        <time>2017-09-03T11:45:29Z</time>
      </trkpt>
      <trkpt lat="59.035041" lon="17.351862">
        <ele>34.8</ele>
        <time>2017-09-03T11:45:30Z</time>
      </trkpt>
      <trkpt lat="59.035058" lon="17.352">
        <ele>35</ele>
        <time>2017-09-03T11:45:31Z</time>
      </trkpt>
      <trkpt lat="59.035077" lon="17.352135">
        <ele>35</ele>
        <time>2017-09-03T11:45:32Z</time>
      </trkpt>
      <trkpt lat="59.035094" lon="17.352272">
        <ele>35.2</ele>
        <time>2017-09-03T11:45:33Z</time>
      </trkpt>
      <trkpt lat="59.03511" lon="17.352409">
        <ele>35.6</ele>
        <time>2017-09-03T11:45:34Z</time>
      </trkpt>
      <trkpt lat="59.035124" lon="17.352551">
        <ele>36.6</ele>
        <time>2017-09-03T11:45:35Z</time>
      </trkpt>
      <trkpt lat="59.035138" lon="17.352691">
        <ele>37.4</ele>
        <time>2017-09-03T11:45:36Z</time>
      </trkpt>
      <trkpt lat="59.035149" lon="17.352826">
        <ele>37.8</ele>
        <time>2017-09-03T11:45:37Z</time>
      </trkpt>
      <trkpt lat="59.03516" lon="17.352957">
        <ele>38</ele>
        <time>2017-09-03T11:45:38Z</time>
      </trkpt>
      <trkpt lat="59.035171" lon="17.353087">
        <ele>38.8</ele>
        <time>2017-09-03T11:45:39Z</time>
      </trkpt>
      <trkpt lat="59.035183" lon="17.353218">
        <ele>39.4</ele>
        <time>2017-09-03T11:45:40Z</time>
      </trkpt>
      <trkpt lat="59.035199" lon="17.353348">
        <ele>40.2</ele>
        <time>2017-09-03T11:45:41Z</time>
      </trkpt>
      <trkpt lat="59.035213" lon="17.353472">
        <ele>41</ele>
        <time>2017-09-03T11:45:42Z</time>
      </trkpt>
      <trkpt lat="59.035226" lon="17.353595">
        <ele>41.4</ele>
        <time>2017-09-03T11:45:43Z</time>
      </trkpt>
      <trkpt lat="59.035243" lon="17.353718">
        <ele>42</ele>
        <time>2017-09-03T11:45:44Z</time>
      </trkpt>
      <trkpt lat="59.035258" lon="17.353834">
        <ele>42.4</ele>
        <time>2017-09-03T11:45:45Z</time>
      </trkpt>
      <trkpt lat="59.035273" lon="17.353946">
        <ele>42.8</ele>
        <time>2017-09-03T11:45:46Z</time>
      </trkpt>
      <trkpt lat="59.035288" lon="17.354064">
        <ele>43.2</ele>
        <time>2017-09-03T11:45:47Z</time>
      </trkpt>
      <trkpt lat="59.035302" lon="17.35418">
        <ele>43.4</ele>
        <time>2017-09-03T11:45:48Z</time>
      </trkpt>
      <trkpt lat="59.03532" lon="17.354296">
        <ele>43.8</ele>
        <time>2017-09-03T11:45:49Z</time>
      </trkpt>
      <trkpt lat="59.035332" lon="17.354412">
        <ele>44.6</ele>
        <time>2017-09-03T11:45:50Z</time>
      </trkpt>
      <trkpt lat="59.035349" lon="17.354534">
        <ele>45.2</ele>
        <time>2017-09-03T11:45:51Z</time>
      </trkpt>
      <trkpt lat="59.035365" lon="17.354653">
        <ele>45.8</ele>
        <time>2017-09-03T11:45:52Z</time>
      </trkpt>
      <trkpt lat="59.03538" lon="17.354775">
        <ele>46.6</ele>
        <time>2017-09-03T11:45:53Z</time>
      </trkpt>
      <trkpt lat="59.035395" lon="17.354899">
        <ele>47</ele>
        <time>2017-09-03T11:45:54Z</time>
      </trkpt>
      <trkpt lat="59.035408" lon="17.355023">
        <ele>47.4</ele>
        <time>2017-09-03T11:45:55Z</time>
      </trkpt>
      <trkpt lat="59.035421" lon="17.355147">
        <ele>47.8</ele>
        <time>2017-09-03T11:45:56Z</time>
      </trkpt>
      <trkpt lat="59.035433" lon="17.355268">
        <ele>48.4</ele>
        <time>2017-09-03T11:45:57Z</time>
      </trkpt>
      <trkpt lat="59.035447" lon="17.355387">
        <ele>49</ele>
        <time>2017-09-03T11:45:58Z</time>
      </trkpt>
      <trkpt lat="59.03546" lon="17.355509">
        <ele>49.6</ele>
        <time>2017-09-03T11:45:59Z</time>
      </trkpt>
      <trkpt lat="59.035474" lon="17.355632">
        <ele>50.2</ele>
        <time>2017-09-03T11:46:00Z</time>
      </trkpt>
      <trkpt lat="59.035492" lon="17.355757">
        <ele>50.8</ele>
        <time>2017-09-03T11:46:01Z</time>
      </trkpt>
      <trkpt lat="59.035504" lon="17.355887">
        <ele>51</ele>
        <time>2017-09-03T11:46:02Z</time>
      </trkpt>
      <trkpt lat="59.035519" lon="17.356016">
        <ele>51.4</ele>
        <time>2017-09-03T11:46:03Z</time>
      </trkpt>
      <trkpt lat="59.035532" lon="17.356148">
        <ele>52</ele>
        <time>2017-09-03T11:46:04Z</time>
      </trkpt>
      <trkpt lat="59.035542" lon="17.356277">
        <ele>52.4</ele>
        <time>2017-09-03T11:46:05Z</time>
      </trkpt>
      <trkpt lat="59.035559" lon="17.356405">
        <ele>53</ele>
        <time>2017-09-03T11:46:06Z</time>
      </trkpt>
      <trkpt lat="59.035576" lon="17.356532">
        <ele>53.4</ele>
        <time>2017-09-03T11:46:07Z</time>
      </trkpt>
      <trkpt lat="59.035594" lon="17.356651">
        <ele>53.8</ele>
        <time>2017-09-03T11:46:08Z</time>
      </trkpt>
      <trkpt lat="59.03561" lon="17.356776">
        <ele>54</ele>
        <time>2017-09-03T11:46:09Z</time>
      </trkpt>
      <trkpt lat="59.035623" lon="17.356901">
        <ele>54.4</ele>
        <time>2017-09-03T11:46:10Z</time>
      </trkpt>
      <trkpt lat="59.035638" lon="17.357028">
        <ele>54.6</ele>
        <time>2017-09-03T11:46:11Z</time>
      </trkpt>
      <trkpt lat="59.035655" lon="17.357152">
        <ele>54.8</ele>
        <time>2017-09-03T11:46:12Z</time>
      </trkpt>
      <trkpt lat="59.035669" lon="17.357278">
        <ele>55</ele>
        <time>2017-09-03T11:46:13Z</time>
      </trkpt>
      <trkpt lat="59.035685" lon="17.357405">
        <ele>55.2</ele>
        <time>2017-09-03T11:46:14Z</time>
      </trkpt>
      <trkpt lat="59.035699" lon="17.357535">
        <ele>55.6</ele>
        <time>2017-09-03T11:46:15Z</time>
      </trkpt>
      <trkpt lat="59.035715" lon="17.357668">
        <ele>55.8</ele>
        <time>2017-09-03T11:46:16Z</time>
      </trkpt>
      <trkpt lat="59.035732" lon="17.3578">
        <ele>56</ele>
        <time>2017-09-03T11:46:17Z</time>
      </trkpt>
      <trkpt lat="59.035748" lon="17.35794">
        <ele>56</ele>
        <time>2017-09-03T11:46:18Z</time>
      </trkpt>
      <trkpt lat="59.035762" lon="17.35808">
        <ele>56.4</ele>
        <time>2017-09-03T11:46:19Z</time>
      </trkpt>
      <trkpt lat="59.035778" lon="17.35822">
        <ele>56.2</ele>
        <time>2017-09-03T11:46:20Z</time>
      </trkpt>
      <trkpt lat="59.035793" lon="17.358355">
        <ele>56.6</ele>
        <time>2017-09-03T11:46:21Z</time>
      </trkpt>
      <trkpt lat="59.035803" lon="17.358485">
        <ele>56.6</ele>
        <time>2017-09-03T11:46:22Z</time>
      </trkpt>
      <trkpt lat="59.035796" lon="17.358614">
        <ele>56.4</ele>
        <time>2017-09-03T11:46:23Z</time>
      </trkpt>
      <trkpt lat="59.035769" lon="17.358731">
        <ele>56.6</ele>
        <time>2017-09-03T11:46:24Z</time>
      </trkpt>
      <trkpt lat="59.035717" lon="17.358813">
        <ele>56.8</ele>
        <time>2017-09-03T11:46:25Z</time>
      </trkpt>
      <trkpt lat="59.035644" lon="17.358873">
        <ele>57</ele>
        <time>2017-09-03T11:46:26Z</time>
      </trkpt>
      <trkpt lat="59.035565" lon="17.35891">
        <ele>57</ele>
        <time>2017-09-03T11:46:27Z</time>
      </trkpt>
      <trkpt lat="59.035484" lon="17.358932">
        <ele>57</ele>
        <time>2017-09-03T11:46:28Z</time>
      </trkpt>
      <trkpt lat="59.035401" lon="17.358952">
        <ele>57</ele>
        <time>2017-09-03T11:46:29Z</time>
      </trkpt>
      <trkpt lat="59.03532" lon="17.358972">
        <ele>57</ele>
        <time>2017-09-03T11:46:30Z</time>
      </trkpt>
      <trkpt lat="59.03524" lon="17.359002">
        <ele>57.2</ele>
        <time>2017-09-03T11:46:31Z</time>
      </trkpt>
      <trkpt lat="59.03516" lon="17.359033">
        <ele>57.2</ele>
        <time>2017-09-03T11:46:32Z</time>
      </trkpt>
      <trkpt lat="59.035078" lon="17.359068">
        <ele>57.2</ele>
        <time>2017-09-03T11:46:33Z</time>
      </trkpt>
      <trkpt lat="59.034994" lon="17.359109">
        <ele>57.2</ele>
        <time>2017-09-03T11:46:34Z</time>
      </trkpt>
      <trkpt lat="59.034909" lon="17.359149">
        <ele>57.2</ele>
        <time>2017-09-03T11:46:35Z</time>
      </trkpt>
      <trkpt lat="59.034824" lon="17.359186">
        <ele>57.2</ele>
        <time>2017-09-03T11:46:36Z</time>
      </trkpt>
      <trkpt lat="59.034738" lon="17.35922">
        <ele>57.2</ele>
        <time>2017-09-03T11:46:37Z</time>
      </trkpt>
      <trkpt lat="59.034651" lon="17.359251">
        <ele>57.2</ele>
        <time>2017-09-03T11:46:38Z</time>
      </trkpt>
      <trkpt lat="59.034561" lon="17.359278">
        <ele>57.2</ele>
        <time>2017-09-03T11:46:39Z</time>
      </trkpt>
      <trkpt lat="59.034468" lon="17.359307">
        <ele>57.2</ele>
        <time>2017-09-03T11:46:40Z</time>
      </trkpt>
      <trkpt lat="59.034374" lon="17.35934">
        <ele>57.2</ele>
        <time>2017-09-03T11:46:41Z</time>
      </trkpt>
      <trkpt lat="59.034281" lon="17.359374">
        <ele>57.2</ele>
        <time>2017-09-03T11:46:42Z</time>
      </trkpt>
      <trkpt lat="59.034188" lon="17.359407">
        <ele>57.2</ele>
        <time>2017-09-03T11:46:43Z</time>
      </trkpt>
      <trkpt lat="59.034096" lon="17.359441">
        <ele>57.4</ele>
        <time>2017-09-03T11:46:44Z</time>
      </trkpt>
      <trkpt lat="59.034005" lon="17.359474">
        <ele>57.4</ele>
        <time>2017-09-03T11:46:45Z</time>
      </trkpt>
      <trkpt lat="59.033916" lon="17.359505">
        <ele>57.4</ele>
        <time>2017-09-03T11:46:46Z</time>
      </trkpt>
      <trkpt lat="59.033827" lon="17.359537">
        <ele>57.4</ele>
        <time>2017-09-03T11:46:47Z</time>
      </trkpt>
      <trkpt lat="59.033739" lon="17.359567">
        <ele>57.4</ele>
        <time>2017-09-03T11:46:48Z</time>
      </trkpt>
      <trkpt lat="59.033654" lon="17.359599">
        <ele>57.6</ele>
        <time>2017-09-03T11:46:49Z</time>
      </trkpt>
      <trkpt lat="59.033571" lon="17.359631">
        <ele>57.8</ele>
        <time>2017-09-03T11:46:50Z</time>
      </trkpt>
      <trkpt lat="59.033493" lon="17.359658">
        <ele>58</ele>
        <time>2017-09-03T11:46:51Z</time>
      </trkpt>
      <trkpt lat="59.033416" lon="17.359684">
        <ele>58.2</ele>
        <time>2017-09-03T11:46:52Z</time>
      </trkpt>
      <trkpt lat="59.033338" lon="17.359709">
        <ele>58.6</ele>
        <time>2017-09-03T11:46:53Z</time>
      </trkpt>
      <trkpt lat="59.033262" lon="17.359735">
        <ele>58.8</ele>
        <time>2017-09-03T11:46:54Z</time>
      </trkpt>
      <trkpt lat="59.03319" lon="17.359758">
        <ele>59.2</ele>
        <time>2017-09-03T11:46:55Z</time>
      </trkpt>
      <trkpt lat="59.033116" lon="17.359785">
        <ele>59.6</ele>
        <time>2017-09-03T11:46:56Z</time>
      </trkpt>
      <trkpt lat="59.033041" lon="17.359813">
        <ele>60</ele>
        <time>2017-09-03T11:46:57Z</time>
      </trkpt>
      <trkpt lat="59.032966" lon="17.359839">
        <ele>60.6</ele>
        <time>2017-09-03T11:46:58Z</time>
      </trkpt>
      <trkpt lat="59.032891" lon="17.359864">
        <ele>61.2</ele>
        <time>2017-09-03T11:46:59Z</time>
      </trkpt>
      <trkpt lat="59.032819" lon="17.359892">
        <ele>61.6</ele>
        <time>2017-09-03T11:47:00Z</time>
      </trkpt>
      <trkpt lat="59.032747" lon="17.35992">
        <ele>61.8</ele>
        <time>2017-09-03T11:47:01Z</time>
      </trkpt>
      <trkpt lat="59.032674" lon="17.359945">
        <ele>62</ele>
        <time>2017-09-03T11:47:02Z</time>
      </trkpt>
      <trkpt lat="59.032599" lon="17.359971">
        <ele>63</ele>
        <time>2017-09-03T11:47:03Z</time>
      </trkpt>
      <trkpt lat="59.032524" lon="17.360001">
        <ele>63.2</ele>
        <time>2017-09-03T11:47:04Z</time>
      </trkpt>
      <trkpt lat="59.032448" lon="17.360033">
        <ele>63.6</ele>
        <time>2017-09-03T11:47:05Z</time>
      </trkpt>
      <trkpt lat="59.032369" lon="17.360066">
        <ele>64</ele>
        <time>2017-09-03T11:47:06Z</time>
      </trkpt>
      <trkpt lat="59.032286" lon="17.360099">
        <ele>64.6</ele>
        <time>2017-09-03T11:47:07Z</time>
      </trkpt>
      <trkpt lat="59.032198" lon="17.36013">
        <ele>65.2</ele>
        <time>2017-09-03T11:47:08Z</time>
      </trkpt>
      <trkpt lat="59.032108" lon="17.360161">
        <ele>65.6</ele>
        <time>2017-09-03T11:47:09Z</time>
      </trkpt>
      <trkpt lat="59.032016" lon="17.360195">
        <ele>66</ele>
        <time>2017-09-03T11:47:10Z</time>
      </trkpt>
      <trkpt lat="59.031923" lon="17.360227">
        <ele>66</ele>
        <time>2017-09-03T11:47:11Z</time>
      </trkpt>
      <trkpt lat="59.031827" lon="17.360256">
        <ele>66</ele>
        <time>2017-09-03T11:47:12Z</time>
      </trkpt>
      <trkpt lat="59.031728" lon="17.360281">
        <ele>66.2</ele>
        <time>2017-09-03T11:47:13Z</time>
      </trkpt>
      <trkpt lat="59.031627" lon="17.360305">
        <ele>66.2</ele>
        <time>2017-09-03T11:47:14Z</time>
      </trkpt>
      <trkpt lat="59.031524" lon="17.360327">
        <ele>66.2</ele>
        <time>2017-09-03T11:47:15Z</time>
      </trkpt>
      <trkpt lat="59.031422" lon="17.360343">
        <ele>66.2</ele>
        <time>2017-09-03T11:47:16Z</time>
      </trkpt>
      <trkpt lat="59.031317" lon="17.360353">
        <ele>66.2</ele>
        <time>2017-09-03T11:47:17Z</time>
      </trkpt>
      <trkpt lat="59.031211" lon="17.360361">
        <ele>66.2</ele>
        <time>2017-09-03T11:47:18Z</time>
      </trkpt>
      <trkpt lat="59.031103" lon="17.360363">
        <ele>66.2</ele>
        <time>2017-09-03T11:47:19Z</time>
      </trkpt>
      <trkpt lat="59.030993" lon="17.360362">
        <ele>65.8</ele>
        <time>2017-09-03T11:47:20Z</time>
      </trkpt>
      <trkpt lat="59.030881" lon="17.360355">
        <ele>65.6</ele>
        <time>2017-09-03T11:47:21Z</time>
      </trkpt>
      <trkpt lat="59.030768" lon="17.360341">
        <ele>65.6</ele>
        <time>2017-09-03T11:47:22Z</time>
      </trkpt>
      <trkpt lat="59.030654" lon="17.360321">
        <ele>65.4</ele>
        <time>2017-09-03T11:47:23Z</time>
      </trkpt>
      <trkpt lat="59.030537" lon="17.360299">
        <ele>65</ele>
        <time>2017-09-03T11:47:24Z</time>
      </trkpt>
      <trkpt lat="59.030419" lon="17.36028">
        <ele>64.8</ele>
        <time>2017-09-03T11:47:25Z</time>
      </trkpt>
      <trkpt lat="59.030303" lon="17.360261">
        <ele>64.6</ele>
        <time>2017-09-03T11:47:26Z</time>
      </trkpt>
      <trkpt lat="59.030187" lon="17.360238">
        <ele>64.4</ele>
        <time>2017-09-03T11:47:27Z</time>
      </trkpt>
      <trkpt lat="59.030076" lon="17.360188">
        <ele>63.8</ele>
        <time>2017-09-03T11:47:28Z</time>
      </trkpt>
      <trkpt lat="59.029976" lon="17.360085">
        <ele>63.2</ele>
        <time>2017-09-03T11:47:29Z</time>
      </trkpt>
      <trkpt lat="59.029892" lon="17.359941">
        <ele>61.6</ele>
        <time>2017-09-03T11:47:30Z</time>
      </trkpt>
      <trkpt lat="59.029827" lon="17.359778">
        <ele>60.6</ele>
        <time>2017-09-03T11:47:31Z</time>
      </trkpt>
      <trkpt lat="59.029773" lon="17.359604">
        <ele>59.4</ele>
        <time>2017-09-03T11:47:32Z</time>
      </trkpt>
      <trkpt lat="59.029726" lon="17.359419">
        <ele>59</ele>
        <time>2017-09-03T11:47:33Z</time>
      </trkpt>
      <trkpt lat="59.02969" lon="17.35923">
        <ele>59</ele>
        <time>2017-09-03T11:47:34Z</time>
      </trkpt>
      <trkpt lat="59.029662" lon="17.359044">
        <ele>59</ele>
        <time>2017-09-03T11:47:35Z</time>
      </trkpt>
      <trkpt lat="59.029643" lon="17.358859">
        <ele>59</ele>
        <time>2017-09-03T11:47:36Z</time>
      </trkpt>
      <trkpt lat="59.029632" lon="17.358674">
        <ele>58.8</ele>
        <time>2017-09-03T11:47:37Z</time>
      </trkpt>
      <trkpt lat="59.029624" lon="17.358492">
        <ele>58.8</ele>
        <time>2017-09-03T11:47:38Z</time>
      </trkpt>
      <trkpt lat="59.029619" lon="17.35831">
        <ele>58.8</ele>
        <time>2017-09-03T11:47:39Z</time>
      </trkpt>
      <trkpt lat="59.02961" lon="17.358125">
        <ele>58.8</ele>
        <time>2017-09-03T11:47:40Z</time>
      </trkpt>
      <trkpt lat="59.029583" lon="17.357956">
        <ele>58.8</ele>
        <time>2017-09-03T11:47:41Z</time>
      </trkpt>
      <trkpt lat="59.02952" lon="17.357823">
        <ele>58.8</ele>
        <time>2017-09-03T11:47:42Z</time>
      </trkpt>
      <trkpt lat="59.02943" lon="17.357752">
        <ele>59</ele>
        <time>2017-09-03T11:47:43Z</time>
      </trkpt>
      <trkpt lat="59.029324" lon="17.357726">
        <ele>58.8</ele>
        <time>2017-09-03T11:47:44Z</time>
      </trkpt>
      <trkpt lat="59.029205" lon="17.357724">
        <ele>58.8</ele>
        <time>2017-09-03T11:47:45Z</time>
      </trkpt>
      <trkpt lat="59.029083" lon="17.357731">
        <ele>58.8</ele>
        <time>2017-09-03T11:47:46Z</time>
      </trkpt>
      <trkpt lat="59.028953" lon="17.35774">
        <ele>58.8</ele>
        <time>2017-09-03T11:47:47Z</time>
      </trkpt>
      <trkpt lat="59.028821" lon="17.357754">
        <ele>58.8</ele>
        <time>2017-09-03T11:47:48Z</time>
      </trkpt>
      <trkpt lat="59.028684" lon="17.357774">
        <ele>58.8</ele>
        <time>2017-09-03T11:47:49Z</time>
      </trkpt>
      <trkpt lat="59.028545" lon="17.357801">
        <ele>58.8</ele>
        <time>2017-09-03T11:47:50Z</time>
      </trkpt>
      <trkpt lat="59.028403" lon="17.357837">
        <ele>58.8</ele>
        <time>2017-09-03T11:47:51Z</time>
      </trkpt>
      <trkpt lat="59.028261" lon="17.357883">
        <ele>58.8</ele>
        <time>2017-09-03T11:47:52Z</time>
      </trkpt>
      <trkpt lat="59.02812" lon="17.357936">
        <ele>57.8</ele>
        <time>2017-09-03T11:47:53Z</time>
      </trkpt>
      <trkpt lat="59.027979" lon="17.357994">
        <ele>56.4</ele>
        <time>2017-09-03T11:47:54Z</time>
      </trkpt>
      <trkpt lat="59.027839" lon="17.358048">
        <ele>54.8</ele>
        <time>2017-09-03T11:47:55Z</time>
      </trkpt>
      <trkpt lat="59.027699" lon="17.358101">
        <ele>53.2</ele>
        <time>2017-09-03T11:47:56Z</time>
      </trkpt>
      <trkpt lat="59.027561" lon="17.358154">
        <ele>51.8</ele>
        <time>2017-09-03T11:47:57Z</time>
      </trkpt>
      <trkpt lat="59.027425" lon="17.358204">
        <ele>50.4</ele>
        <time>2017-09-03T11:47:58Z</time>
      </trkpt>
      <trkpt lat="59.02729" lon="17.358255">
        <ele>49.2</ele>
        <time>2017-09-03T11:47:59Z</time>
      </trkpt>
      <trkpt lat="59.027157" lon="17.358308">
        <ele>48.2</ele>
        <time>2017-09-03T11:48:00Z</time>
      </trkpt>
      <trkpt lat="59.027025" lon="17.358364">
        <ele>47</ele>
        <time>2017-09-03T11:48:01Z</time>
      </trkpt>
      <trkpt lat="59.026893" lon="17.358418">
        <ele>45.2</ele>
        <time>2017-09-03T11:48:02Z</time>
      </trkpt>
      <trkpt lat="59.02676" lon="17.35847">
        <ele>44.6</ele>
        <time>2017-09-03T11:48:03Z</time>
      </trkpt>
      <trkpt lat="59.026628" lon="17.358523">
        <ele>44.2</ele>
        <time>2017-09-03T11:48:04Z</time>
      </trkpt>
      <trkpt lat="59.026498" lon="17.358581">
        <ele>43.8</ele>
        <time>2017-09-03T11:48:05Z</time>
      </trkpt>
      <trkpt lat="59.02637" lon="17.35864">
        <ele>43.8</ele>
        <time>2017-09-03T11:48:06Z</time>
      </trkpt>
      <trkpt lat="59.026243" lon="17.358704">
        <ele>43.6</ele>
        <time>2017-09-03T11:48:07Z</time>
      </trkpt>
      <trkpt lat="59.02612" lon="17.358778">
        <ele>43.6</ele>
        <time>2017-09-03T11:48:08Z</time>
      </trkpt>
      <trkpt lat="59.026" lon="17.358862">
        <ele>43.6</ele>
        <time>2017-09-03T11:48:09Z</time>
      </trkpt>
      <trkpt lat="59.02588" lon="17.358956">
        <ele>43.4</ele>
        <time>2017-09-03T11:48:10Z</time>
      </trkpt>
      <trkpt lat="59.025761" lon="17.359057">
        <ele>43.2</ele>
        <time>2017-09-03T11:48:11Z</time>
      </trkpt>
      <trkpt lat="59.025642" lon="17.359164">
        <ele>43</ele>
        <time>2017-09-03T11:48:12Z</time>
      </trkpt>
      <trkpt lat="59.025522" lon="17.359269">
        <ele>42.4</ele>
        <time>2017-09-03T11:48:13Z</time>
      </trkpt>
      <trkpt lat="59.025402" lon="17.359373">
        <ele>41.8</ele>
        <time>2017-09-03T11:48:14Z</time>
      </trkpt>
      <trkpt lat="59.025282" lon="17.35948">
        <ele>41.4</ele>
        <time>2017-09-03T11:48:15Z</time>
      </trkpt>
      <trkpt lat="59.025161" lon="17.359588">
        <ele>41.2</ele>
        <time>2017-09-03T11:48:16Z</time>
      </trkpt>
      <trkpt lat="59.02504" lon="17.359695">
        <ele>41</ele>
        <time>2017-09-03T11:48:17Z</time>
      </trkpt>
      <trkpt lat="59.024919" lon="17.359801">
        <ele>40.6</ele>
        <time>2017-09-03T11:48:18Z</time>
      </trkpt>
      <trkpt lat="59.024796" lon="17.359906">
        <ele>40.4</ele>
        <time>2017-09-03T11:48:19Z</time>
      </trkpt>
      <trkpt lat="59.024671" lon="17.360002">
        <ele>39.8</ele>
        <time>2017-09-03T11:48:20Z</time>
      </trkpt>
      <trkpt lat="59.024545" lon="17.360089">
        <ele>39.2</ele>
        <time>2017-09-03T11:48:21Z</time>
      </trkpt>
      <trkpt lat="59.024419" lon="17.360172">
        <ele>38.6</ele>
        <time>2017-09-03T11:48:22Z</time>
      </trkpt>
      <trkpt lat="59.024293" lon="17.360251">
        <ele>38.2</ele>
        <time>2017-09-03T11:48:23Z</time>
      </trkpt>
      <trkpt lat="59.024167" lon="17.360325">
        <ele>37.8</ele>
        <time>2017-09-03T11:48:24Z</time>
      </trkpt>
      <trkpt lat="59.024041" lon="17.360394">
        <ele>37.4</ele>
        <time>2017-09-03T11:48:25Z</time>
      </trkpt>
      <trkpt lat="59.023916" lon="17.36046">
        <ele>37.2</ele>
        <time>2017-09-03T11:48:26Z</time>
      </trkpt>
      <trkpt lat="59.023792" lon="17.360523">
        <ele>36.8</ele>
        <time>2017-09-03T11:48:27Z</time>
      </trkpt>
      <trkpt lat="59.023667" lon="17.36058">
        <ele>36.4</ele>
        <time>2017-09-03T11:48:28Z</time>
      </trkpt>
      <trkpt lat="59.023542" lon="17.360632">
        <ele>36</ele>
        <time>2017-09-03T11:48:29Z</time>
      </trkpt>
      <trkpt lat="59.023418" lon="17.360681">
        <ele>35.6</ele>
        <time>2017-09-03T11:48:30Z</time>
      </trkpt>
      <trkpt lat="59.023295" lon="17.360722">
        <ele>35</ele>
        <time>2017-09-03T11:48:31Z</time>
      </trkpt>
      <trkpt lat="59.023173" lon="17.360752">
        <ele>35</ele>
        <time>2017-09-03T11:48:32Z</time>
      </trkpt>
      <trkpt lat="59.023053" lon="17.360776">
        <ele>34.8</ele>
        <time>2017-09-03T11:48:33Z</time>
      </trkpt>
      <trkpt lat="59.022934" lon="17.360797">
        <ele>34.8</ele>
        <time>2017-09-03T11:48:34Z</time>
      </trkpt>
      <trkpt lat="59.022816" lon="17.360813">
        <ele>34.8</ele>
        <time>2017-09-03T11:48:35Z</time>
      </trkpt>
      <trkpt lat="59.022702" lon="17.360827">
        <ele>34.8</ele>
        <time>2017-09-03T11:48:36Z</time>
      </trkpt>
      <trkpt lat="59.02259" lon="17.360839">
        <ele>34.8</ele>
        <time>2017-09-03T11:48:37Z</time>
      </trkpt>
      <trkpt lat="59.02248" lon="17.360854">
        <ele>34.8</ele>
        <time>2017-09-03T11:48:38Z</time>
      </trkpt>
      <trkpt lat="59.022372" lon="17.36087">
        <ele>34.8</ele>
        <time>2017-09-03T11:48:39Z</time>
      </trkpt>
      <trkpt lat="59.022268" lon="17.360887">
        <ele>34.8</ele>
        <time>2017-09-03T11:48:40Z</time>
      </trkpt>
      <trkpt lat="59.022166" lon="17.360906">
        <ele>34.8</ele>
        <time>2017-09-03T11:48:41Z</time>
      </trkpt>
      <trkpt lat="59.022068" lon="17.360926">
        <ele>35</ele>
        <time>2017-09-03T11:48:42Z</time>
      </trkpt>
      <trkpt lat="59.021973" lon="17.360946">
        <ele>35.2</ele>
        <time>2017-09-03T11:48:43Z</time>
      </trkpt>
      <trkpt lat="59.021879" lon="17.360969">
        <ele>35.4</ele>
        <time>2017-09-03T11:48:44Z</time>
      </trkpt>
      <trkpt lat="59.021783" lon="17.360995">
        <ele>35.6</ele>
        <time>2017-09-03T11:48:45Z</time>
      </trkpt>
      <trkpt lat="59.021684" lon="17.361022">
        <ele>35.8</ele>
        <time>2017-09-03T11:48:46Z</time>
      </trkpt>
      <trkpt lat="59.021584" lon="17.361054">
        <ele>36</ele>
        <time>2017-09-03T11:48:47Z</time>
      </trkpt>
      <trkpt lat="59.021483" lon="17.361088">
        <ele>36.4</ele>
        <time>2017-09-03T11:48:48Z</time>
      </trkpt>
      <trkpt lat="59.021381" lon="17.361126">
        <ele>36.8</ele>
        <time>2017-09-03T11:48:49Z</time>
      </trkpt>
      <trkpt lat="59.021273" lon="17.361173">
        <ele>37.4</ele>
        <time>2017-09-03T11:48:50Z</time>
      </trkpt>
      <trkpt lat="59.021164" lon="17.361225">
        <ele>37.8</ele>
        <time>2017-09-03T11:48:51Z</time>
      </trkpt>
      <trkpt lat="59.021052" lon="17.36128">
        <ele>38.4</ele>
        <time>2017-09-03T11:48:52Z</time>
      </trkpt>
      <trkpt lat="59.020938" lon="17.361333">
        <ele>39</ele>
        <time>2017-09-03T11:48:53Z</time>
      </trkpt>
      <trkpt lat="59.020823" lon="17.361383">
        <ele>39.6</ele>
        <time>2017-09-03T11:48:54Z</time>
      </trkpt>
      <trkpt lat="59.020705" lon="17.361444">
        <ele>40</ele>
        <time>2017-09-03T11:48:55Z</time>
      </trkpt>
      <trkpt lat="59.020588" lon="17.361521">
        <ele>40.2</ele>
        <time>2017-09-03T11:48:56Z</time>
      </trkpt>
      <trkpt lat="59.02047" lon="17.361613">
        <ele>40.4</ele>
        <time>2017-09-03T11:48:57Z</time>
      </trkpt>
      <trkpt lat="59.020354" lon="17.361717">
        <ele>40.4</ele>
        <time>2017-09-03T11:48:58Z</time>
      </trkpt>
      <trkpt lat="59.020239" lon="17.361835">
        <ele>40.4</ele>
        <time>2017-09-03T11:48:59Z</time>
      </trkpt>
      <trkpt lat="59.020123" lon="17.361962">
        <ele>40.4</ele>
        <time>2017-09-03T11:49:00Z</time>
      </trkpt>
      <trkpt lat="59.020004" lon="17.362094">
        <ele>40.4</ele>
        <time>2017-09-03T11:49:01Z</time>
      </trkpt>
      <trkpt lat="59.019883" lon="17.36223">
        <ele>40.4</ele>
        <time>2017-09-03T11:49:02Z</time>
      </trkpt>
      <trkpt lat="59.019763" lon="17.362371">
        <ele>40.4</ele>
        <time>2017-09-03T11:49:03Z</time>
      </trkpt>
      <trkpt lat="59.019642" lon="17.362515">
        <ele>40</ele>
        <time>2017-09-03T11:49:04Z</time>
      </trkpt>
      <trkpt lat="59.019522" lon="17.362658">
        <ele>39</ele>
        <time>2017-09-03T11:49:05Z</time>
      </trkpt>
      <trkpt lat="59.019401" lon="17.362799">
        <ele>37.8</ele>
        <time>2017-09-03T11:49:06Z</time>
      </trkpt>
      <trkpt lat="59.019279" lon="17.362938">
        <ele>37</ele>
        <time>2017-09-03T11:49:07Z</time>
      </trkpt>
      <trkpt lat="59.019156" lon="17.363076">
        <ele>36.8</ele>
        <time>2017-09-03T11:49:08Z</time>
      </trkpt>
      <trkpt lat="59.019034" lon="17.363213">
        <ele>36.2</ele>
        <time>2017-09-03T11:49:09Z</time>
      </trkpt>
      <trkpt lat="59.018914" lon="17.363348">
        <ele>35.8</ele>
        <time>2017-09-03T11:49:10Z</time>
      </trkpt>
      <trkpt lat="59.018795" lon="17.363484">
        <ele>35</ele>
        <time>2017-09-03T11:49:11Z</time>
      </trkpt>
      <trkpt lat="59.018677" lon="17.363621">
        <ele>34.4</ele>
        <time>2017-09-03T11:49:12Z</time>
      </trkpt>
      <trkpt lat="59.018561" lon="17.363756">
        <ele>33.6</ele>
        <time>2017-09-03T11:49:13Z</time>
      </trkpt>
      <trkpt lat="59.018448" lon="17.36389">
        <ele>33</ele>
        <time>2017-09-03T11:49:14Z</time>
      </trkpt>
      <trkpt lat="59.01834" lon="17.364021">
        <ele>32.2</ele>
        <time>2017-09-03T11:49:15Z</time>
      </trkpt>
      <trkpt lat="59.018238" lon="17.364149">
        <ele>31.8</ele>
        <time>2017-09-03T11:49:16Z</time>
      </trkpt>
      <trkpt lat="59.018141" lon="17.364268">
        <ele>31.6</ele>
        <time>2017-09-03T11:49:17Z</time>
      </trkpt>
      <trkpt lat="59.018052" lon="17.364383">
        <ele>31.6</ele>
        <time>2017-09-03T11:49:18Z</time>
      </trkpt>
      <trkpt lat="59.01797" lon="17.364494">
        <ele>31.4</ele>
        <time>2017-09-03T11:49:19Z</time>
      </trkpt>
      <trkpt lat="59.017891" lon="17.364597">
        <ele>31.4</ele>
        <time>2017-09-03T11:49:20Z</time>
      </trkpt>
      <trkpt lat="59.017818" lon="17.364694">
        <ele>31.4</ele>
        <time>2017-09-03T11:49:21Z</time>
      </trkpt>
      <trkpt lat="59.017751" lon="17.364788">
        <ele>31.4</ele>
        <time>2017-09-03T11:49:22Z</time>
      </trkpt>
      <trkpt lat="59.017685" lon="17.364862">
        <ele>31.4</ele>
        <time>2017-09-03T11:49:23Z</time>
      </trkpt>
      <trkpt lat="59.017622" lon="17.364928">
        <ele>31.4</ele>
        <time>2017-09-03T11:49:24Z</time>
      </trkpt>
      <trkpt lat="59.017564" lon="17.364993">
        <ele>31.4</ele>
        <time>2017-09-03T11:49:25Z</time>
      </trkpt>
      <trkpt lat="59.017511" lon="17.365056">
        <ele>31.6</ele>
        <time>2017-09-03T11:49:26Z</time>
      </trkpt>
      <trkpt lat="59.017458" lon="17.365121">
        <ele>32.4</ele>
        <time>2017-09-03T11:49:27Z</time>
      </trkpt>
      <trkpt lat="59.017397" lon="17.365189">
        <ele>33.4</ele>
        <time>2017-09-03T11:49:28Z</time>
      </trkpt>
      <trkpt lat="59.017337" lon="17.365262">
        <ele>34.2</ele>
        <time>2017-09-03T11:49:29Z</time>
      </trkpt>
      <trkpt lat="59.017281" lon="17.365334">
        <ele>35.6</ele>
        <time>2017-09-03T11:49:30Z</time>
      </trkpt>
      <trkpt lat="59.017225" lon="17.365405">
        <ele>36.4</ele>
        <time>2017-09-03T11:49:31Z</time>
      </trkpt>
      <trkpt lat="59.017168" lon="17.365475">
        <ele>37.2</ele>
        <time>2017-09-03T11:49:32Z</time>
      </trkpt>
      <trkpt lat="59.017111" lon="17.365538">
        <ele>38</ele>
        <time>2017-09-03T11:49:33Z</time>
      </trkpt>
      <trkpt lat="59.017055" lon="17.365597">
        <ele>38.6</ele>
        <time>2017-09-03T11:49:34Z</time>
      </trkpt>
      <trkpt lat="59.016994" lon="17.365657">
        <ele>39.6</ele>
        <time>2017-09-03T11:49:35Z</time>
      </trkpt>
      <trkpt lat="59.016926" lon="17.365724">
        <ele>40.4</ele>
        <time>2017-09-03T11:49:36Z</time>
      </trkpt>
      <trkpt lat="59.016857" lon="17.365787">
        <ele>40.8</ele>
        <time>2017-09-03T11:49:37Z</time>
      </trkpt>
      <trkpt lat="59.016786" lon="17.365846">
        <ele>41.6</ele>
        <time>2017-09-03T11:49:38Z</time>
      </trkpt>
      <trkpt lat="59.016716" lon="17.365909">
        <ele>42.4</ele>
        <time>2017-09-03T11:49:39Z</time>
      </trkpt>
      <trkpt lat="59.016644" lon="17.365967">
        <ele>42.8</ele>
        <time>2017-09-03T11:49:40Z</time>
      </trkpt>
      <trkpt lat="59.016568" lon="17.366021">
        <ele>43</ele>
        <time>2017-09-03T11:49:41Z</time>
      </trkpt>
      <trkpt lat="59.016491" lon="17.36608">
        <ele>43.6</ele>
        <time>2017-09-03T11:49:42Z</time>
      </trkpt>
      <trkpt lat="59.016413" lon="17.366138">
        <ele>44.2</ele>
        <time>2017-09-03T11:49:43Z</time>
      </trkpt>
      <trkpt lat="59.016333" lon="17.366203">
        <ele>44.6</ele>
        <time>2017-09-03T11:49:44Z</time>
      </trkpt>
      <trkpt lat="59.016252" lon="17.366266">
        <ele>44.8</ele>
        <time>2017-09-03T11:49:45Z</time>
      </trkpt>
      <trkpt lat="59.016172" lon="17.366326">
        <ele>45.2</ele>
        <time>2017-09-03T11:49:46Z</time>
      </trkpt>
      <trkpt lat="59.01609" lon="17.366382">
        <ele>45.4</ele>
        <time>2017-09-03T11:49:47Z</time>
      </trkpt>
      <trkpt lat="59.016009" lon="17.366439">
        <ele>46</ele>
        <time>2017-09-03T11:49:48Z</time>
      </trkpt>
      <trkpt lat="59.015927" lon="17.366498">
        <ele>46.6</ele>
        <time>2017-09-03T11:49:49Z</time>
      </trkpt>
      <trkpt lat="59.015845" lon="17.366554">
        <ele>46.8</ele>
        <time>2017-09-03T11:49:50Z</time>
      </trkpt>
      <trkpt lat="59.015763" lon="17.366612">
        <ele>47</ele>
        <time>2017-09-03T11:49:51Z</time>
      </trkpt>
      <trkpt lat="59.015682" lon="17.366671">
        <ele>47</ele>
        <time>2017-09-03T11:49:52Z</time>
      </trkpt>
      <trkpt lat="59.015607" lon="17.366725">
        <ele>47.2</ele>
        <time>2017-09-03T11:49:53Z</time>
      </trkpt>
      <trkpt lat="59.015533" lon="17.366784">
        <ele>47.2</ele>
        <time>2017-09-03T11:49:54Z</time>
      </trkpt>
      <trkpt lat="59.015458" lon="17.366843">
        <ele>47.2</ele>
        <time>2017-09-03T11:49:55Z</time>
      </trkpt>
      <trkpt lat="59.01538" lon="17.366916">
        <ele>47.2</ele>
        <time>2017-09-03T11:49:56Z</time>
      </trkpt>
      <trkpt lat="59.015303" lon="17.366996">
        <ele>47.4</ele>
        <time>2017-09-03T11:49:57Z</time>
      </trkpt>
      <trkpt lat="59.015226" lon="17.367086">
        <ele>47.4</ele>
        <time>2017-09-03T11:49:58Z</time>
      </trkpt>
      <trkpt lat="59.015153" lon="17.367184">
        <ele>47.6</ele>
        <time>2017-09-03T11:49:59Z</time>
      </trkpt>
      <trkpt lat="59.015083" lon="17.367295">
        <ele>47.6</ele>
        <time>2017-09-03T11:50:00Z</time>
      </trkpt>
      <trkpt lat="59.015017" lon="17.367412">
        <ele>47.8</ele>
        <time>2017-09-03T11:50:01Z</time>
      </trkpt>
      <trkpt lat="59.014953" lon="17.367533">
        <ele>48</ele>
        <time>2017-09-03T11:50:02Z</time>
      </trkpt>
      <trkpt lat="59.01489" lon="17.367663">
        <ele>48.2</ele>
        <time>2017-09-03T11:50:03Z</time>
      </trkpt>
      <trkpt lat="59.014831" lon="17.367804">
        <ele>48.6</ele>
        <time>2017-09-03T11:50:04Z</time>
      </trkpt>
      <trkpt lat="59.014778" lon="17.367942">
        <ele>49</ele>
        <time>2017-09-03T11:50:05Z</time>
      </trkpt>
      <trkpt lat="59.014723" lon="17.368088">
        <ele>49.2</ele>
        <time>2017-09-03T11:50:06Z</time>
      </trkpt>
      <trkpt lat="59.014669" lon="17.368243">
        <ele>49.2</ele>
        <time>2017-09-03T11:50:07Z</time>
      </trkpt>
      <trkpt lat="59.014617" lon="17.368404">
        <ele>49.4</ele>
        <time>2017-09-03T11:50:08Z</time>
      </trkpt>
      <trkpt lat="59.014565" lon="17.368565">
        <ele>49.4</ele>
        <time>2017-09-03T11:50:09Z</time>
      </trkpt>
      <trkpt lat="59.014511" lon="17.368727">
        <ele>49.4</ele>
        <time>2017-09-03T11:50:10Z</time>
      </trkpt>
      <trkpt lat="59.014455" lon="17.368892">
        <ele>49.4</ele>
        <time>2017-09-03T11:50:11Z</time>
      </trkpt>
      <trkpt lat="59.014395" lon="17.369059">
        <ele>49.4</ele>
        <time>2017-09-03T11:50:12Z</time>
      </trkpt>
      <trkpt lat="59.01433" lon="17.369228">
        <ele>49.4</ele>
        <time>2017-09-03T11:50:13Z</time>
      </trkpt>
      <trkpt lat="59.014257" lon="17.369398">
        <ele>49.4</ele>
        <time>2017-09-03T11:50:14Z</time>
      </trkpt>
      <trkpt lat="59.014177" lon="17.369564">
        <ele>49.4</ele>
        <time>2017-09-03T11:50:15Z</time>
      </trkpt>
      <trkpt lat="59.014094" lon="17.369729">
        <ele>49.4</ele>
        <time>2017-09-03T11:50:16Z</time>
      </trkpt>
      <trkpt lat="59.014005" lon="17.369883">
        <ele>49.2</ele>
        <time>2017-09-03T11:50:17Z</time>
      </trkpt>
      <trkpt lat="59.013914" lon="17.370031">
        <ele>49</ele>
        <time>2017-09-03T11:50:18Z</time>
      </trkpt>
      <trkpt lat="59.013826" lon="17.370183">
        <ele>48.6</ele>
        <time>2017-09-03T11:50:19Z</time>
      </trkpt>
      <trkpt lat="59.01374" lon="17.370333">
        <ele>48.2</ele>
        <time>2017-09-03T11:50:20Z</time>
      </trkpt>
      <trkpt lat="59.013657" lon="17.370491">
        <ele>47.4</ele>
        <time>2017-09-03T11:50:21Z</time>
      </trkpt>
      <trkpt lat="59.013579" lon="17.370652">
        <ele>46.8</ele>
        <time>2017-09-03T11:50:22Z</time>
      </trkpt>
      <trkpt lat="59.013507" lon="17.37081">
        <ele>46</ele>
        <time>2017-09-03T11:50:23Z</time>
      </trkpt>
      <trkpt lat="59.013443" lon="17.370966">
        <ele>45.6</ele>
        <time>2017-09-03T11:50:24Z</time>
      </trkpt>
      <trkpt lat="59.013385" lon="17.371129">
        <ele>45.4</ele>
        <time>2017-09-03T11:50:25Z</time>
      </trkpt>
      <trkpt lat="59.013336" lon="17.371303">
        <ele>45.4</ele>
        <time>2017-09-03T11:50:26Z</time>
      </trkpt>
      <trkpt lat="59.013295" lon="17.371487">
        <ele>45.2</ele>
        <time>2017-09-03T11:50:27Z</time>
      </trkpt>
      <trkpt lat="59.013262" lon="17.371667">
        <ele>45.2</ele>
        <time>2017-09-03T11:50:28Z</time>
      </trkpt>
      <trkpt lat="59.013232" lon="17.371843">
        <ele>45.2</ele>
        <time>2017-09-03T11:50:29Z</time>
      </trkpt>
      <trkpt lat="59.013205" lon="17.372023">
        <ele>45.2</ele>
        <time>2017-09-03T11:50:30Z</time>
      </trkpt>
      <trkpt lat="59.01318" lon="17.372202">
        <ele>45.2</ele>
        <time>2017-09-03T11:50:31Z</time>
      </trkpt>
      <trkpt lat="59.013151" lon="17.37238">
        <ele>45.2</ele>
        <time>2017-09-03T11:50:32Z</time>
      </trkpt>
      <trkpt lat="59.013119" lon="17.372552">
        <ele>45.4</ele>
        <time>2017-09-03T11:50:33Z</time>
      </trkpt>
      <trkpt lat="59.013083" lon="17.372721">
        <ele>45.6</ele>
        <time>2017-09-03T11:50:34Z</time>
      </trkpt>
      <trkpt lat="59.013042" lon="17.372882">
        <ele>45.8</ele>
        <time>2017-09-03T11:50:35Z</time>
      </trkpt>
      <trkpt lat="59.012997" lon="17.373034">
        <ele>45.8</ele>
        <time>2017-09-03T11:50:36Z</time>
      </trkpt>
      <trkpt lat="59.012947" lon="17.373179">
        <ele>46</ele>
        <time>2017-09-03T11:50:37Z</time>
      </trkpt>
      <trkpt lat="59.012893" lon="17.373317">
        <ele>46</ele>
        <time>2017-09-03T11:50:38Z</time>
      </trkpt>
      <trkpt lat="59.012834" lon="17.37345">
        <ele>46</ele>
        <time>2017-09-03T11:50:39Z</time>
      </trkpt>
      <trkpt lat="59.012768" lon="17.373578">
        <ele>46.2</ele>
        <time>2017-09-03T11:50:40Z</time>
      </trkpt>
      <trkpt lat="59.012697" lon="17.3737">
        <ele>46.2</ele>
        <time>2017-09-03T11:50:41Z</time>
      </trkpt>
      <trkpt lat="59.012622" lon="17.37382">
        <ele>46.2</ele>
        <time>2017-09-03T11:50:42Z</time>
      </trkpt>
      <trkpt lat="59.012543" lon="17.373942">
        <ele>46.2</ele>
        <time>2017-09-03T11:50:43Z</time>
      </trkpt>
      <trkpt lat="59.012465" lon="17.374068">
        <ele>46.4</ele>
        <time>2017-09-03T11:50:44Z</time>
      </trkpt>
      <trkpt lat="59.012386" lon="17.374195">
        <ele>46.4</ele>
        <time>2017-09-03T11:50:45Z</time>
      </trkpt>
      <trkpt lat="59.012307" lon="17.374324">
        <ele>46.4</ele>
        <time>2017-09-03T11:50:46Z</time>
      </trkpt>
      <trkpt lat="59.012227" lon="17.374454">
        <ele>46.6</ele>
        <time>2017-09-03T11:50:47Z</time>
      </trkpt>
      <trkpt lat="59.012146" lon="17.374589">
        <ele>46.6</ele>
        <time>2017-09-03T11:50:48Z</time>
      </trkpt>
      <trkpt lat="59.012065" lon="17.374721">
        <ele>46.8</ele>
        <time>2017-09-03T11:50:49Z</time>
      </trkpt>
      <trkpt lat="59.011986" lon="17.374855">
        <ele>46.8</ele>
        <time>2017-09-03T11:50:50Z</time>
      </trkpt>
      <trkpt lat="59.01191" lon="17.374982">
        <ele>47</ele>
        <time>2017-09-03T11:50:51Z</time>
      </trkpt>
      <trkpt lat="59.011837" lon="17.375109">
        <ele>47</ele>
        <time>2017-09-03T11:50:52Z</time>
      </trkpt>
      <trkpt lat="59.011763" lon="17.375232">
        <ele>46.8</ele>
        <time>2017-09-03T11:50:53Z</time>
      </trkpt>
      <trkpt lat="59.011686" lon="17.375354">
        <ele>46.8</ele>
        <time>2017-09-03T11:50:54Z</time>
      </trkpt>
      <trkpt lat="59.011607" lon="17.375475">
        <ele>47</ele>
        <time>2017-09-03T11:50:55Z</time>
      </trkpt>
      <trkpt lat="59.011529" lon="17.375591">
        <ele>47</ele>
        <time>2017-09-03T11:50:56Z</time>
      </trkpt>
      <trkpt lat="59.011447" lon="17.375707">
        <ele>47</ele>
        <time>2017-09-03T11:50:57Z</time>
      </trkpt>
      <trkpt lat="59.011364" lon="17.375821">
        <ele>47</ele>
        <time>2017-09-03T11:50:58Z</time>
      </trkpt>
      <trkpt lat="59.011278" lon="17.375928">
        <ele>47</ele>
        <time>2017-09-03T11:50:59Z</time>
      </trkpt>
      <trkpt lat="59.011187" lon="17.376022">
        <ele>47.2</ele>
        <time>2017-09-03T11:51:00Z</time>
      </trkpt>
      <trkpt lat="59.011093" lon="17.376104">
        <ele>47.2</ele>
        <time>2017-09-03T11:51:01Z</time>
      </trkpt>
      <trkpt lat="59.010995" lon="17.376173">
        <ele>47.4</ele>
        <time>2017-09-03T11:51:02Z</time>
      </trkpt>
      <trkpt lat="59.010895" lon="17.376228">
        <ele>47.4</ele>
        <time>2017-09-03T11:51:03Z</time>
      </trkpt>
      <trkpt lat="59.010793" lon="17.376266">
        <ele>47.6</ele>
        <time>2017-09-03T11:51:04Z</time>
      </trkpt>
      <trkpt lat="59.01069" lon="17.37629">
        <ele>47.6</ele>
        <time>2017-09-03T11:51:05Z</time>
      </trkpt>
      <trkpt lat="59.01059" lon="17.376307">
        <ele>47.8</ele>
        <time>2017-09-03T11:51:06Z</time>
      </trkpt>
      <trkpt lat="59.010491" lon="17.376314">
        <ele>47.8</ele>
        <time>2017-09-03T11:51:07Z</time>
      </trkpt>
      <trkpt lat="59.010394" lon="17.37631">
        <ele>48</ele>
        <time>2017-09-03T11:51:08Z</time>
      </trkpt>
      <trkpt lat="59.010298" lon="17.376302">
        <ele>48</ele>
        <time>2017-09-03T11:51:09Z</time>
      </trkpt>
      <trkpt lat="59.010205" lon="17.376288">
        <ele>48.2</ele>
        <time>2017-09-03T11:51:10Z</time>
      </trkpt>
      <trkpt lat="59.010114" lon="17.376275">
        <ele>48.6</ele>
        <time>2017-09-03T11:51:11Z</time>
      </trkpt>
      <trkpt lat="59.010025" lon="17.376263">
        <ele>48.8</ele>
        <time>2017-09-03T11:51:12Z</time>
      </trkpt>
      <trkpt lat="59.009936" lon="17.37625">
        <ele>49.2</ele>
        <time>2017-09-03T11:51:13Z</time>
      </trkpt>
      <trkpt lat="59.009844" lon="17.376236">
        <ele>49.4</ele>
        <time>2017-09-03T11:51:14Z</time>
      </trkpt>
      <trkpt lat="59.009753" lon="17.376223">
        <ele>49.6</ele>
        <time>2017-09-03T11:51:15Z</time>
      </trkpt>
      <trkpt lat="59.00966" lon="17.376211">
        <ele>50</ele>
        <time>2017-09-03T11:51:16Z</time>
      </trkpt>
      <trkpt lat="59.009566" lon="17.376199">
        <ele>50.2</ele>
        <time>2017-09-03T11:51:17Z</time>
      </trkpt>
      <trkpt lat="59.009471" lon="17.376187">
        <ele>50.4</ele>
        <time>2017-09-03T11:51:18Z</time>
      </trkpt>
      <trkpt lat="59.009374" lon="17.376173">
        <ele>50.6</ele>
        <time>2017-09-03T11:51:19Z</time>
      </trkpt>
      <trkpt lat="59.009277" lon="17.376157">
        <ele>50.8</ele>
        <time>2017-09-03T11:51:20Z</time>
      </trkpt>
      <trkpt lat="59.009179" lon="17.376141">
        <ele>51</ele>
        <time>2017-09-03T11:51:21Z</time>
      </trkpt>
      <trkpt lat="59.00908" lon="17.376129">
        <ele>51</ele>
        <time>2017-09-03T11:51:22Z</time>
      </trkpt>
      <trkpt lat="59.008983" lon="17.376116">
        <ele>51.2</ele>
        <time>2017-09-03T11:51:23Z</time>
      </trkpt>
      <trkpt lat="59.008885" lon="17.376102">
        <ele>51.4</ele>
        <time>2017-09-03T11:51:24Z</time>
      </trkpt>
      <trkpt lat="59.008787" lon="17.376092">
        <ele>51.6</ele>
        <time>2017-09-03T11:51:25Z</time>
      </trkpt>
      <trkpt lat="59.008689" lon="17.376086">
        <ele>51.8</ele>
        <time>2017-09-03T11:51:26Z</time>
      </trkpt>
      <trkpt lat="59.008589" lon="17.376085">
        <ele>51.8</ele>
        <time>2017-09-03T11:51:27Z</time>
      </trkpt>
      <trkpt lat="59.008489" lon="17.376089">
        <ele>51.8</ele>
        <time>2017-09-03T11:51:28Z</time>
      </trkpt>
      <trkpt lat="59.008386" lon="17.376102">
        <ele>51.8</ele>
        <time>2017-09-03T11:51:29Z</time>
      </trkpt>
      <trkpt lat="59.008283" lon="17.376121">
        <ele>51.8</ele>
        <time>2017-09-03T11:51:30Z</time>
      </trkpt>
      <trkpt lat="59.008179" lon="17.376147">
        <ele>51.8</ele>
        <time>2017-09-03T11:51:31Z</time>
      </trkpt>
      <trkpt lat="59.008074" lon="17.376184">
        <ele>51.8</ele>
        <time>2017-09-03T11:51:32Z</time>
      </trkpt>
      <trkpt lat="59.00797" lon="17.37623">
        <ele>51.8</ele>
        <time>2017-09-03T11:51:33Z</time>
      </trkpt>
      <trkpt lat="59.007866" lon="17.376283">
        <ele>51.8</ele>
        <time>2017-09-03T11:51:34Z</time>
      </trkpt>
      <trkpt lat="59.007764" lon="17.376341">
        <ele>51.8</ele>
        <time>2017-09-03T11:51:35Z</time>
      </trkpt>
      <trkpt lat="59.007663" lon="17.376411">
        <ele>51.8</ele>
        <time>2017-09-03T11:51:36Z</time>
      </trkpt>
      <trkpt lat="59.007563" lon="17.376491">
        <ele>51.8</ele>
        <time>2017-09-03T11:51:37Z</time>
      </trkpt>
      <trkpt lat="59.007466" lon="17.376582">
        <ele>51.8</ele>
        <time>2017-09-03T11:51:38Z</time>
      </trkpt>
      <trkpt lat="59.00737" lon="17.376681">
        <ele>51.8</ele>
        <time>2017-09-03T11:51:39Z</time>
      </trkpt>
      <trkpt lat="59.007274" lon="17.376784">
        <ele>51.6</ele>
        <time>2017-09-03T11:51:40Z</time>
      </trkpt>
      <trkpt lat="59.007181" lon="17.37689">
        <ele>51.2</ele>
        <time>2017-09-03T11:51:41Z</time>
      </trkpt>
      <trkpt lat="59.007089" lon="17.376998">
        <ele>51</ele>
        <time>2017-09-03T11:51:42Z</time>
      </trkpt>
      <trkpt lat="59.006998" lon="17.3771">
        <ele>50.8</ele>
        <time>2017-09-03T11:51:43Z</time>
      </trkpt>
      <trkpt lat="59.006909" lon="17.377203">
        <ele>50.6</ele>
        <time>2017-09-03T11:51:44Z</time>
      </trkpt>
      <trkpt lat="59.00682" lon="17.377307">
        <ele>50.4</ele>
        <time>2017-09-03T11:51:45Z</time>
      </trkpt>
      <trkpt lat="59.006731" lon="17.377409">
        <ele>50.4</ele>
        <time>2017-09-03T11:51:46Z</time>
      </trkpt>
      <trkpt lat="59.006643" lon="17.377507">
        <ele>50.2</ele>
        <time>2017-09-03T11:51:47Z</time>
      </trkpt>
      <trkpt lat="59.006558" lon="17.377604">
        <ele>50.2</ele>
        <time>2017-09-03T11:51:48Z</time>
      </trkpt>
      <trkpt lat="59.006475" lon="17.377698">
        <ele>50.2</ele>
        <time>2017-09-03T11:51:49Z</time>
      </trkpt>
      <trkpt lat="59.006394" lon="17.377788">
        <ele>50.2</ele>
        <time>2017-09-03T11:51:50Z</time>
      </trkpt>
      <trkpt lat="59.006314" lon="17.377879">
        <ele>50.2</ele>
        <time>2017-09-03T11:51:51Z</time>
      </trkpt>
      <trkpt lat="59.006235" lon="17.377967">
        <ele>50.2</ele>
        <time>2017-09-03T11:51:52Z</time>
      </trkpt>
      <trkpt lat="59.006158" lon="17.37806">
        <ele>50.2</ele>
        <time>2017-09-03T11:51:53Z</time>
      </trkpt>
      <trkpt lat="59.006083" lon="17.37815">
        <ele>50.2</ele>
        <time>2017-09-03T11:51:54Z</time>
      </trkpt>
      <trkpt lat="59.006013" lon="17.378244">
        <ele>50.4</ele>
        <time>2017-09-03T11:51:55Z</time>
      </trkpt>
      <trkpt lat="59.005944" lon="17.37835">
        <ele>50.4</ele>
        <time>2017-09-03T11:51:56Z</time>
      </trkpt>
      <trkpt lat="59.005875" lon="17.378468">
        <ele>50.4</ele>
        <time>2017-09-03T11:51:57Z</time>
      </trkpt>
      <trkpt lat="59.005809" lon="17.378587">
        <ele>50.4</ele>
        <time>2017-09-03T11:51:58Z</time>
      </trkpt>
      <trkpt lat="59.005746" lon="17.378705">
        <ele>50.6</ele>
        <time>2017-09-03T11:51:59Z</time>
      </trkpt>
      <trkpt lat="59.005688" lon="17.378831">
        <ele>50.6</ele>
        <time>2017-09-03T11:52:00Z</time>
      </trkpt>
      <trkpt lat="59.005638" lon="17.378964">
        <ele>50.8</ele>
        <time>2017-09-03T11:52:01Z</time>
      </trkpt>
      <trkpt lat="59.005592" lon="17.379105">
        <ele>50.8</ele>
        <time>2017-09-03T11:52:02Z</time>
      </trkpt>
      <trkpt lat="59.005548" lon="17.379258">
        <ele>51</ele>
        <time>2017-09-03T11:52:03Z</time>
      </trkpt>
      <trkpt lat="59.005503" lon="17.379415">
        <ele>51.2</ele>
        <time>2017-09-03T11:52:04Z</time>
      </trkpt>
      <trkpt lat="59.005459" lon="17.379576">
        <ele>51.8</ele>
        <time>2017-09-03T11:52:05Z</time>
      </trkpt>
      <trkpt lat="59.005421" lon="17.379751">
        <ele>52.2</ele>
        <time>2017-09-03T11:52:06Z</time>
      </trkpt>
      <trkpt lat="59.00539" lon="17.379932">
        <ele>52.8</ele>
        <time>2017-09-03T11:52:07Z</time>
      </trkpt>
      <trkpt lat="59.005361" lon="17.380118">
        <ele>53</ele>
        <time>2017-09-03T11:52:08Z</time>
      </trkpt>
      <trkpt lat="59.005332" lon="17.380308">
        <ele>53.4</ele>
        <time>2017-09-03T11:52:09Z</time>
      </trkpt>
      <trkpt lat="59.005307" lon="17.380498">
        <ele>53.4</ele>
        <time>2017-09-03T11:52:10Z</time>
      </trkpt>
      <trkpt lat="59.005285" lon="17.380693">
        <ele>53.6</ele>
        <time>2017-09-03T11:52:11Z</time>
      </trkpt>
      <trkpt lat="59.005266" lon="17.380887">
        <ele>53.6</ele>
        <time>2017-09-03T11:52:12Z</time>
      </trkpt>
      <trkpt lat="59.005247" lon="17.381083">
        <ele>53.8</ele>
        <time>2017-09-03T11:52:13Z</time>
      </trkpt>
      <trkpt lat="59.005228" lon="17.381275">
        <ele>53.8</ele>
        <time>2017-09-03T11:52:14Z</time>
      </trkpt>
      <trkpt lat="59.005207" lon="17.381468">
        <ele>53.8</ele>
        <time>2017-09-03T11:52:15Z</time>
      </trkpt>
      <trkpt lat="59.005187" lon="17.381657">
        <ele>53.8</ele>
        <time>2017-09-03T11:52:16Z</time>
      </trkpt>
      <trkpt lat="59.005167" lon="17.381845">
        <ele>53.8</ele>
        <time>2017-09-03T11:52:17Z</time>
      </trkpt>
      <trkpt lat="59.005149" lon="17.382038">
        <ele>54</ele>
        <time>2017-09-03T11:52:18Z</time>
      </trkpt>
      <trkpt lat="59.005131" lon="17.382235">
        <ele>54</ele>
        <time>2017-09-03T11:52:19Z</time>
      </trkpt>
      <trkpt lat="59.00511" lon="17.382432">
        <ele>54</ele>
        <time>2017-09-03T11:52:20Z</time>
      </trkpt>
      <trkpt lat="59.005087" lon="17.382633">
        <ele>54</ele>
        <time>2017-09-03T11:52:21Z</time>
      </trkpt>
      <trkpt lat="59.005066" lon="17.382833">
        <ele>54</ele>
        <time>2017-09-03T11:52:22Z</time>
      </trkpt>
      <trkpt lat="59.005045" lon="17.383036">
        <ele>54</ele>
        <time>2017-09-03T11:52:23Z</time>
      </trkpt>
      <trkpt lat="59.005024" lon="17.383236">
        <ele>54</ele>
        <time>2017-09-03T11:52:24Z</time>
      </trkpt>
      <trkpt lat="59.005001" lon="17.383438">
        <ele>54</ele>
        <time>2017-09-03T11:52:25Z</time>
      </trkpt>
      <trkpt lat="59.004981" lon="17.383638">
        <ele>54</ele>
        <time>2017-09-03T11:52:26Z</time>
      </trkpt>
      <trkpt lat="59.004963" lon="17.38384">
        <ele>53.8</ele>
        <time>2017-09-03T11:52:27Z</time>
      </trkpt>
      <trkpt lat="59.004946" lon="17.384041">
        <ele>53.8</ele>
        <time>2017-09-03T11:52:28Z</time>
      </trkpt>
      <trkpt lat="59.004934" lon="17.384241">
        <ele>53.6</ele>
        <time>2017-09-03T11:52:29Z</time>
      </trkpt>
      <trkpt lat="59.004933" lon="17.384443">
        <ele>53.6</ele>
        <time>2017-09-03T11:52:30Z</time>
      </trkpt>
      <trkpt lat="59.004936" lon="17.384644">
        <ele>53.4</ele>
        <time>2017-09-03T11:52:31Z</time>
      </trkpt>
      <trkpt lat="59.004944" lon="17.384845">
        <ele>53.4</ele>
        <time>2017-09-03T11:52:32Z</time>
      </trkpt>
      <trkpt lat="59.004958" lon="17.385042">
        <ele>53.2</ele>
        <time>2017-09-03T11:52:33Z</time>
      </trkpt>
      <trkpt lat="59.004977" lon="17.385238">
        <ele>53.2</ele>
        <time>2017-09-03T11:52:34Z</time>
      </trkpt>
      <trkpt lat="59.005003" lon="17.385426">
        <ele>53.2</ele>
        <time>2017-09-03T11:52:35Z</time>
      </trkpt>
      <trkpt lat="59.005032" lon="17.385616">
        <ele>53</ele>
        <time>2017-09-03T11:52:36Z</time>
      </trkpt>
      <trkpt lat="59.005064" lon="17.385807">
        <ele>53</ele>
        <time>2017-09-03T11:52:37Z</time>
      </trkpt>
      <trkpt lat="59.005102" lon="17.386">
        <ele>53</ele>
        <time>2017-09-03T11:52:38Z</time>
      </trkpt>
      <trkpt lat="59.00514" lon="17.386195">
        <ele>53</ele>
        <time>2017-09-03T11:52:39Z</time>
      </trkpt>
      <trkpt lat="59.005176" lon="17.386392">
        <ele>52.8</ele>
        <time>2017-09-03T11:52:40Z</time>
      </trkpt>
      <trkpt lat="59.005202" lon="17.386585">
        <ele>52.8</ele>
        <time>2017-09-03T11:52:41Z</time>
      </trkpt>
      <trkpt lat="59.00522" lon="17.386773">
        <ele>52.8</ele>
        <time>2017-09-03T11:52:42Z</time>
      </trkpt>
      <trkpt lat="59.00523" lon="17.386957">
        <ele>52.8</ele>
        <time>2017-09-03T11:52:43Z</time>
      </trkpt>
      <trkpt lat="59.005237" lon="17.387132">
        <ele>53</ele>
        <time>2017-09-03T11:52:44Z</time>
      </trkpt>
      <trkpt lat="59.005233" lon="17.387303">
        <ele>53</ele>
        <time>2017-09-03T11:52:45Z</time>
      </trkpt>
      <trkpt lat="59.005225" lon="17.387478">
        <ele>53.2</ele>
        <time>2017-09-03T11:52:46Z</time>
      </trkpt>
      <trkpt lat="59.005211" lon="17.387654">
        <ele>53.2</ele>
        <time>2017-09-03T11:52:47Z</time>
      </trkpt>
      <trkpt lat="59.005192" lon="17.387823">
        <ele>53.2</ele>
        <time>2017-09-03T11:52:48Z</time>
      </trkpt>
      <trkpt lat="59.00516" lon="17.387989">
        <ele>53.4</ele>
        <time>2017-09-03T11:52:49Z</time>
      </trkpt>
      <trkpt lat="59.005121" lon="17.388153">
        <ele>53.4</ele>
        <time>2017-09-03T11:52:50Z</time>
      </trkpt>
      <trkpt lat="59.005079" lon="17.388318">
        <ele>53.6</ele>
        <time>2017-09-03T11:52:51Z</time>
      </trkpt>
      <trkpt lat="59.005033" lon="17.388481">
        <ele>53.8</ele>
        <time>2017-09-03T11:52:52Z</time>
      </trkpt>
      <trkpt lat="59.004977" lon="17.388646">
        <ele>54</ele>
        <time>2017-09-03T11:52:53Z</time>
      </trkpt>
      <trkpt lat="59.004915" lon="17.388804">
        <ele>55</ele>
        <time>2017-09-03T11:52:54Z</time>
      </trkpt>
      <trkpt lat="59.00485" lon="17.388958">
        <ele>55.4</ele>
        <time>2017-09-03T11:52:55Z</time>
      </trkpt>
      <trkpt lat="59.004783" lon="17.389113">
        <ele>55.6</ele>
        <time>2017-09-03T11:52:56Z</time>
      </trkpt>
      <trkpt lat="59.004714" lon="17.389271">
        <ele>55.8</ele>
        <time>2017-09-03T11:52:57Z</time>
      </trkpt>
      <trkpt lat="59.004641" lon="17.389436">
        <ele>55.8</ele>
        <time>2017-09-03T11:52:58Z</time>
      </trkpt>
      <trkpt lat="59.004562" lon="17.389599">
        <ele>55.8</ele>
        <time>2017-09-03T11:52:59Z</time>
      </trkpt>
      <trkpt lat="59.004482" lon="17.389762">
        <ele>55.8</ele>
        <time>2017-09-03T11:53:00Z</time>
      </trkpt>
      <trkpt lat="59.0044" lon="17.389928">
        <ele>55.8</ele>
        <time>2017-09-03T11:53:01Z</time>
      </trkpt>
      <trkpt lat="59.004315" lon="17.390097">
        <ele>55.8</ele>
        <time>2017-09-03T11:53:02Z</time>
      </trkpt>
      <trkpt lat="59.004231" lon="17.390269">
        <ele>55.8</ele>
        <time>2017-09-03T11:53:03Z</time>
      </trkpt>
      <trkpt lat="59.004146" lon="17.390434">
        <ele>55.8</ele>
        <time>2017-09-03T11:53:04Z</time>
      </trkpt>
      <trkpt lat="59.004059" lon="17.390588">
        <ele>55.6</ele>
        <time>2017-09-03T11:53:05Z</time>
      </trkpt>
      <trkpt lat="59.003968" lon="17.390728">
        <ele>55.2</ele>
        <time>2017-09-03T11:53:06Z</time>
      </trkpt>
      <trkpt lat="59.003877" lon="17.39086">
        <ele>54.6</ele>
        <time>2017-09-03T11:53:07Z</time>
      </trkpt>
      <trkpt lat="59.003785" lon="17.390986">
        <ele>54.2</ele>
        <time>2017-09-03T11:53:08Z</time>
      </trkpt>
      <trkpt lat="59.003693" lon="17.391103">
        <ele>53.4</ele>
        <time>2017-09-03T11:53:09Z</time>
      </trkpt>
      <trkpt lat="59.003599" lon="17.391217">
        <ele>52.8</ele>
        <time>2017-09-03T11:53:10Z</time>
      </trkpt>
      <trkpt lat="59.003504" lon="17.391327">
        <ele>52.2</ele>
        <time>2017-09-03T11:53:11Z</time>
      </trkpt>
      <trkpt lat="59.003408" lon="17.39144">
        <ele>52</ele>
        <time>2017-09-03T11:53:12Z</time>
      </trkpt>
      <trkpt lat="59.00331" lon="17.391556">
        <ele>51.8</ele>
        <time>2017-09-03T11:53:13Z</time>
      </trkpt>
      <trkpt lat="59.003208" lon="17.391675">
        <ele>51.8</ele>
        <time>2017-09-03T11:53:14Z</time>
      </trkpt>
      <trkpt lat="59.003105" lon="17.391795">
        <ele>51.6</ele>
        <time>2017-09-03T11:53:15Z</time>
      </trkpt>
      <trkpt lat="59.003003" lon="17.391919">
        <ele>51.6</ele>
        <time>2017-09-03T11:53:16Z</time>
      </trkpt>
      <trkpt lat="59.0029" lon="17.392047">
        <ele>51.6</ele>
        <time>2017-09-03T11:53:17Z</time>
      </trkpt>
      <trkpt lat="59.0028" lon="17.392186">
        <ele>51.4</ele>
        <time>2017-09-03T11:53:18Z</time>
      </trkpt>
      <trkpt lat="59.002703" lon="17.392343">
        <ele>51.4</ele>
        <time>2017-09-03T11:53:19Z</time>
      </trkpt>
      <trkpt lat="59.002612" lon="17.392517">
        <ele>51.2</ele>
        <time>2017-09-03T11:53:20Z</time>
      </trkpt>
      <trkpt lat="59.002531" lon="17.392707">
        <ele>51.2</ele>
        <time>2017-09-03T11:53:21Z</time>
      </trkpt>
      <trkpt lat="59.002456" lon="17.392903">
        <ele>51.2</ele>
        <time>2017-09-03T11:53:22Z</time>
      </trkpt>
      <trkpt lat="59.002383" lon="17.393104">
        <ele>51</ele>
        <time>2017-09-03T11:53:23Z</time>
      </trkpt>
      <trkpt lat="59.00231" lon="17.393311">
        <ele>50.8</ele>
        <time>2017-09-03T11:53:24Z</time>
      </trkpt>
      <trkpt lat="59.002236" lon="17.393518">
        <ele>50.6</ele>
        <time>2017-09-03T11:53:25Z</time>
      </trkpt>
      <trkpt lat="59.002162" lon="17.39372">
        <ele>50.4</ele>
        <time>2017-09-03T11:53:26Z</time>
      </trkpt>
      <trkpt lat="59.002087" lon="17.393917">
        <ele>50</ele>
        <time>2017-09-03T11:53:27Z</time>
      </trkpt>
      <trkpt lat="59.002016" lon="17.39411">
        <ele>49.8</ele>
        <time>2017-09-03T11:53:28Z</time>
      </trkpt>
      <trkpt lat="59.00195" lon="17.394305">
        <ele>49.6</ele>
        <time>2017-09-03T11:53:29Z</time>
      </trkpt>
      <trkpt lat="59.001887" lon="17.394504">
        <ele>49.2</ele>
        <time>2017-09-03T11:53:30Z</time>
      </trkpt>
      <trkpt lat="59.001827" lon="17.394708">
        <ele>48.8</ele>
        <time>2017-09-03T11:53:31Z</time>
      </trkpt>
      <trkpt lat="59.001766" lon="17.394918">
        <ele>48.6</ele>
        <time>2017-09-03T11:53:32Z</time>
      </trkpt>
      <trkpt lat="59.001705" lon="17.395133">
        <ele>48.6</ele>
        <time>2017-09-03T11:53:33Z</time>
      </trkpt>
      <trkpt lat="59.001645" lon="17.395353">
        <ele>48.6</ele>
        <time>2017-09-03T11:53:34Z</time>
      </trkpt>
      <trkpt lat="59.001586" lon="17.395578">
        <ele>48.4</ele>
        <time>2017-09-03T11:53:35Z</time>
      </trkpt>
      <trkpt lat="59.001531" lon="17.395808">
        <ele>48.4</ele>
        <time>2017-09-03T11:53:36Z</time>
      </trkpt>
      <trkpt lat="59.001478" lon="17.396037">
        <ele>48.4</ele>
        <time>2017-09-03T11:53:37Z</time>
      </trkpt>
      <trkpt lat="59.001426" lon="17.396266">
        <ele>48.4</ele>
        <time>2017-09-03T11:53:38Z</time>
      </trkpt>
      <trkpt lat="59.001377" lon="17.396501">
        <ele>48.2</ele>
        <time>2017-09-03T11:53:39Z</time>
      </trkpt>
      <trkpt lat="59.001328" lon="17.39674">
        <ele>48.2</ele>
        <time>2017-09-03T11:53:40Z</time>
      </trkpt>
      <trkpt lat="59.001278" lon="17.396982">
        <ele>48</ele>
        <time>2017-09-03T11:53:41Z</time>
      </trkpt>
      <trkpt lat="59.001229" lon="17.397225">
        <ele>48</ele>
        <time>2017-09-03T11:53:42Z</time>
      </trkpt>
      <trkpt lat="59.001181" lon="17.397466">
        <ele>48</ele>
        <time>2017-09-03T11:53:43Z</time>
      </trkpt>
      <trkpt lat="59.001132" lon="17.397706">
        <ele>48</ele>
        <time>2017-09-03T11:53:44Z</time>
      </trkpt>
      <trkpt lat="59.001085" lon="17.397943">
        <ele>48</ele>
        <time>2017-09-03T11:53:45Z</time>
      </trkpt>
      <trkpt lat="59.001041" lon="17.398176">
        <ele>47.8</ele>
        <time>2017-09-03T11:53:46Z</time>
      </trkpt>
      <trkpt lat="59.000996" lon="17.398405">
        <ele>47.8</ele>
        <time>2017-09-03T11:53:47Z</time>
      </trkpt>
      <trkpt lat="59.00095" lon="17.39863">
        <ele>47.6</ele>
        <time>2017-09-03T11:53:48Z</time>
      </trkpt>
      <trkpt lat="59.000905" lon="17.398857">
        <ele>47.4</ele>
        <time>2017-09-03T11:53:49Z</time>
      </trkpt>
      <trkpt lat="59.00086" lon="17.399086">
        <ele>47.2</ele>
        <time>2017-09-03T11:53:50Z</time>
      </trkpt>
      <trkpt lat="59.000816" lon="17.399313">
        <ele>47</ele>
        <time>2017-09-03T11:53:51Z</time>
      </trkpt>
      <trkpt lat="59.000772" lon="17.399537">
        <ele>46.6</ele>
        <time>2017-09-03T11:53:52Z</time>
      </trkpt>
      <trkpt lat="59.000729" lon="17.39976">
        <ele>46.4</ele>
        <time>2017-09-03T11:53:53Z</time>
      </trkpt>
      <trkpt lat="59.000686" lon="17.399983">
        <ele>46.2</ele>
        <time>2017-09-03T11:53:54Z</time>
      </trkpt>
      <trkpt lat="59.000643" lon="17.400205">
        <ele>46</ele>
        <time>2017-09-03T11:53:55Z</time>
      </trkpt>
      <trkpt lat="59.0006" lon="17.400427">
        <ele>45.4</ele>
        <time>2017-09-03T11:53:56Z</time>
      </trkpt>
      <trkpt lat="59.000557" lon="17.400644">
        <ele>45.2</ele>
        <time>2017-09-03T11:53:57Z</time>
      </trkpt>
      <trkpt lat="59.000517" lon="17.400855">
        <ele>45</ele>
        <time>2017-09-03T11:53:58Z</time>
      </trkpt>
      <trkpt lat="59.000477" lon="17.401059">
        <ele>44</ele>
        <time>2017-09-03T11:53:59Z</time>
      </trkpt>
      <trkpt lat="59.000439" lon="17.401258">
        <ele>43</ele>
        <time>2017-09-03T11:54:00Z</time>
      </trkpt>
      <trkpt lat="59.000402" lon="17.401452">
        <ele>42.6</ele>
        <time>2017-09-03T11:54:01Z</time>
      </trkpt>
      <trkpt lat="59.000365" lon="17.401637">
        <ele>42.4</ele>
        <time>2017-09-03T11:54:02Z</time>
      </trkpt>
      <trkpt lat="59.000328" lon="17.401815">
        <ele>42.2</ele>
        <time>2017-09-03T11:54:03Z</time>
      </trkpt>
      <trkpt lat="59.000292" lon="17.40199">
        <ele>42.2</ele>
        <time>2017-09-03T11:54:04Z</time>
      </trkpt>
      <trkpt lat="59.000255" lon="17.402167">
        <ele>42.2</ele>
        <time>2017-09-03T11:54:05Z</time>
      </trkpt>
      <trkpt lat="59.00022" lon="17.402343">
        <ele>42.2</ele>
        <time>2017-09-03T11:54:06Z</time>
      </trkpt>
      <trkpt lat="59.000186" lon="17.402518">
        <ele>42.2</ele>
        <time>2017-09-03T11:54:07Z</time>
      </trkpt>
      <trkpt lat="59.000152" lon="17.402689">
        <ele>42.2</ele>
        <time>2017-09-03T11:54:08Z</time>
      </trkpt>
      <trkpt lat="59.000118" lon="17.40286">
        <ele>42.2</ele>
        <time>2017-09-03T11:54:09Z</time>
      </trkpt>
      <trkpt lat="59.000084" lon="17.40303">
        <ele>42.2</ele>
        <time>2017-09-03T11:54:10Z</time>
      </trkpt>
      <trkpt lat="59.000048" lon="17.403199">
        <ele>42.6</ele>
        <time>2017-09-03T11:54:11Z</time>
      </trkpt>
      <trkpt lat="59.00001" lon="17.403369">
        <ele>43.4</ele>
        <time>2017-09-03T11:54:12Z</time>
      </trkpt>
      <trkpt lat="58.99997" lon="17.403531">
        <ele>44.2</ele>
        <time>2017-09-03T11:54:13Z</time>
      </trkpt>
      <trkpt lat="58.999928" lon="17.403687">
        <ele>44.6</ele>
        <time>2017-09-03T11:54:14Z</time>
      </trkpt>
      <trkpt lat="58.999885" lon="17.403835">
        <ele>45.6</ele>
        <time>2017-09-03T11:54:15Z</time>
      </trkpt>
      <trkpt lat="58.999839" lon="17.403981">
        <ele>46.6</ele>
        <time>2017-09-03T11:54:16Z</time>
      </trkpt>
      <trkpt lat="58.99979" lon="17.404121">
        <ele>47.4</ele>
        <time>2017-09-03T11:54:17Z</time>
      </trkpt>
      <trkpt lat="58.99974" lon="17.404253">
        <ele>48.2</ele>
        <time>2017-09-03T11:54:18Z</time>
      </trkpt>
      <trkpt lat="58.999688" lon="17.404377">
        <ele>49.2</ele>
        <time>2017-09-03T11:54:19Z</time>
      </trkpt>
      <trkpt lat="58.999633" lon="17.404497">
        <ele>50.2</ele>
        <time>2017-09-03T11:54:20Z</time>
      </trkpt>
      <trkpt lat="58.999576" lon="17.404615">
        <ele>51.2</ele>
        <time>2017-09-03T11:54:21Z</time>
      </trkpt>
      <trkpt lat="58.999516" lon="17.404731">
        <ele>51.4</ele>
        <time>2017-09-03T11:54:22Z</time>
      </trkpt>
      <trkpt lat="58.999456" lon="17.404843">
        <ele>51.6</ele>
        <time>2017-09-03T11:54:23Z</time>
      </trkpt>
      <trkpt lat="58.999396" lon="17.404955">
        <ele>51.6</ele>
        <time>2017-09-03T11:54:24Z</time>
      </trkpt>
      <trkpt lat="58.999335" lon="17.405066">
        <ele>51.6</ele>
        <time>2017-09-03T11:54:25Z</time>
      </trkpt>
      <trkpt lat="58.999269" lon="17.405179">
        <ele>51.6</ele>
        <time>2017-09-03T11:54:26Z</time>
      </trkpt>
      <trkpt lat="58.9992" lon="17.405289">
        <ele>51.8</ele>
        <time>2017-09-03T11:54:27Z</time>
      </trkpt>
      <trkpt lat="58.999132" lon="17.405396">
        <ele>52</ele>
        <time>2017-09-03T11:54:28Z</time>
      </trkpt>
      <trkpt lat="58.999063" lon="17.405504">
        <ele>52.6</ele>
        <time>2017-09-03T11:54:29Z</time>
      </trkpt>
      <trkpt lat="58.998993" lon="17.405612">
        <ele>53</ele>
        <time>2017-09-03T11:54:30Z</time>
      </trkpt>
      <trkpt lat="58.998921" lon="17.405719">
        <ele>53.6</ele>
        <time>2017-09-03T11:54:31Z</time>
      </trkpt>
      <trkpt lat="58.998849" lon="17.405828">
        <ele>54.2</ele>
        <time>2017-09-03T11:54:32Z</time>
      </trkpt>
      <trkpt lat="58.998777" lon="17.405938">
        <ele>54.4</ele>
        <time>2017-09-03T11:54:33Z</time>
      </trkpt>
      <trkpt lat="58.998702" lon="17.406052">
        <ele>54.6</ele>
        <time>2017-09-03T11:54:34Z</time>
      </trkpt>
      <trkpt lat="58.998625" lon="17.406172">
        <ele>54.8</ele>
        <time>2017-09-03T11:54:35Z</time>
      </trkpt>
      <trkpt lat="58.998545" lon="17.406298">
        <ele>54.8</ele>
        <time>2017-09-03T11:54:36Z</time>
      </trkpt>
      <trkpt lat="58.998462" lon="17.406427">
        <ele>54.8</ele>
        <time>2017-09-03T11:54:37Z</time>
      </trkpt>
      <trkpt lat="58.998376" lon="17.406558">
        <ele>54.8</ele>
        <time>2017-09-03T11:54:38Z</time>
      </trkpt>
      <trkpt lat="58.998287" lon="17.406691">
        <ele>54.8</ele>
        <time>2017-09-03T11:54:39Z</time>
      </trkpt>
      <trkpt lat="58.998193" lon="17.406832">
        <ele>54.8</ele>
        <time>2017-09-03T11:54:40Z</time>
      </trkpt>
      <trkpt lat="58.998097" lon="17.406978">
        <ele>54.8</ele>
        <time>2017-09-03T11:54:41Z</time>
      </trkpt>
      <trkpt lat="58.998" lon="17.407127">
        <ele>54.8</ele>
        <time>2017-09-03T11:54:42Z</time>
      </trkpt>
      <trkpt lat="58.997902" lon="17.40728">
        <ele>54.6</ele>
        <time>2017-09-03T11:54:43Z</time>
      </trkpt>
      <trkpt lat="58.997802" lon="17.407435">
        <ele>54.2</ele>
        <time>2017-09-03T11:54:44Z</time>
      </trkpt>
      <trkpt lat="58.997702" lon="17.407587">
        <ele>54</ele>
        <time>2017-09-03T11:54:45Z</time>
      </trkpt>
      <trkpt lat="58.997602" lon="17.407735">
        <ele>53.4</ele>
        <time>2017-09-03T11:54:46Z</time>
      </trkpt>
      <trkpt lat="58.997501" lon="17.407884">
        <ele>52.8</ele>
        <time>2017-09-03T11:54:47Z</time>
      </trkpt>
      <trkpt lat="58.997402" lon="17.408033">
        <ele>52.4</ele>
        <time>2017-09-03T11:54:48Z</time>
      </trkpt>
      <trkpt lat="58.997303" lon="17.408178">
        <ele>51.8</ele>
        <time>2017-09-03T11:54:49Z</time>
      </trkpt>
      <trkpt lat="58.997203" lon="17.408323">
        <ele>51</ele>
        <time>2017-09-03T11:54:50Z</time>
      </trkpt>
      <trkpt lat="58.997104" lon="17.408469">
        <ele>50.4</ele>
        <time>2017-09-03T11:54:51Z</time>
      </trkpt>
      <trkpt lat="58.997006" lon="17.408615">
        <ele>50</ele>
        <time>2017-09-03T11:54:52Z</time>
      </trkpt>
      <trkpt lat="58.996909" lon="17.408763">
        <ele>49.8</ele>
        <time>2017-09-03T11:54:53Z</time>
      </trkpt>
      <trkpt lat="58.996813" lon="17.408911">
        <ele>49.2</ele>
        <time>2017-09-03T11:54:54Z</time>
      </trkpt>
      <trkpt lat="58.996717" lon="17.409058">
        <ele>48.4</ele>
        <time>2017-09-03T11:54:55Z</time>
      </trkpt>
      <trkpt lat="58.996623" lon="17.409204">
        <ele>47.8</ele>
        <time>2017-09-03T11:54:56Z</time>
      </trkpt>
      <trkpt lat="58.996529" lon="17.409347">
        <ele>47.4</ele>
        <time>2017-09-03T11:54:57Z</time>
      </trkpt>
      <trkpt lat="58.996436" lon="17.409488">
        <ele>47</ele>
        <time>2017-09-03T11:54:58Z</time>
      </trkpt>
      <trkpt lat="58.996345" lon="17.409625">
        <ele>46.8</ele>
        <time>2017-09-03T11:54:59Z</time>
      </trkpt>
      <trkpt lat="58.996256" lon="17.409762">
        <ele>46.6</ele>
        <time>2017-09-03T11:55:00Z</time>
      </trkpt>
      <trkpt lat="58.996167" lon="17.409897">
        <ele>46.4</ele>
        <time>2017-09-03T11:55:01Z</time>
      </trkpt>
      <trkpt lat="58.996076" lon="17.410032">
        <ele>46.4</ele>
        <time>2017-09-03T11:55:02Z</time>
      </trkpt>
      <trkpt lat="58.995984" lon="17.410171">
        <ele>46.4</ele>
        <time>2017-09-03T11:55:03Z</time>
      </trkpt>
      <trkpt lat="58.995891" lon="17.410314">
        <ele>46.2</ele>
        <time>2017-09-03T11:55:04Z</time>
      </trkpt>
      <trkpt lat="58.995798" lon="17.410457">
        <ele>45.8</ele>
        <time>2017-09-03T11:55:05Z</time>
      </trkpt>
      <trkpt lat="58.99571" lon="17.410595">
        <ele>45.4</ele>
        <time>2017-09-03T11:55:06Z</time>
      </trkpt>
      <trkpt lat="58.995625" lon="17.41073">
        <ele>45.4</ele>
        <time>2017-09-03T11:55:07Z</time>
      </trkpt>
      <trkpt lat="58.995537" lon="17.410863">
        <ele>45.2</ele>
        <time>2017-09-03T11:55:08Z</time>
      </trkpt>
      <trkpt lat="58.995447" lon="17.410999">
        <ele>45.2</ele>
        <time>2017-09-03T11:55:09Z</time>
      </trkpt>
      <trkpt lat="58.995358" lon="17.411137">
        <ele>45</ele>
        <time>2017-09-03T11:55:10Z</time>
      </trkpt>
      <trkpt lat="58.99527" lon="17.411276">
        <ele>44.8</ele>
        <time>2017-09-03T11:55:11Z</time>
      </trkpt>
      <trkpt lat="58.995183" lon="17.411417">
        <ele>44.6</ele>
        <time>2017-09-03T11:55:12Z</time>
      </trkpt>
      <trkpt lat="58.995097" lon="17.411565">
        <ele>44.4</ele>
        <time>2017-09-03T11:55:13Z</time>
      </trkpt>
      <trkpt lat="58.995009" lon="17.411719">
        <ele>44.4</ele>
        <time>2017-09-03T11:55:14Z</time>
      </trkpt>
      <trkpt lat="58.99492" lon="17.411877">
        <ele>44</ele>
        <time>2017-09-03T11:55:15Z</time>
      </trkpt>
      <trkpt lat="58.99483" lon="17.412037">
        <ele>43.8</ele>
        <time>2017-09-03T11:55:16Z</time>
      </trkpt>
      <trkpt lat="58.994741" lon="17.412202">
        <ele>43.6</ele>
        <time>2017-09-03T11:55:17Z</time>
      </trkpt>
      <trkpt lat="58.994656" lon="17.412366">
        <ele>43.2</ele>
        <time>2017-09-03T11:55:18Z</time>
      </trkpt>
      <trkpt lat="58.994573" lon="17.412528">
        <ele>42.8</ele>
        <time>2017-09-03T11:55:19Z</time>
      </trkpt>
      <trkpt lat="58.994494" lon="17.412692">
        <ele>42.6</ele>
        <time>2017-09-03T11:55:20Z</time>
      </trkpt>
      <trkpt lat="58.994417" lon="17.412858">
        <ele>42.4</ele>
        <time>2017-09-03T11:55:21Z</time>
      </trkpt>
      <trkpt lat="58.994339" lon="17.413025">
        <ele>42.2</ele>
        <time>2017-09-03T11:55:22Z</time>
      </trkpt>
      <trkpt lat="58.994261" lon="17.413192">
        <ele>42.2</ele>
        <time>2017-09-03T11:55:23Z</time>
      </trkpt>
      <trkpt lat="58.994185" lon="17.413357">
        <ele>42</ele>
        <time>2017-09-03T11:55:24Z</time>
      </trkpt>
      <trkpt lat="58.994112" lon="17.413518">
        <ele>42</ele>
        <time>2017-09-03T11:55:25Z</time>
      </trkpt>
      <trkpt lat="58.994043" lon="17.413678">
        <ele>42</ele>
        <time>2017-09-03T11:55:26Z</time>
      </trkpt>
      <trkpt lat="58.993977" lon="17.413839">
        <ele>42</ele>
        <time>2017-09-03T11:55:27Z</time>
      </trkpt>
      <trkpt lat="58.993913" lon="17.414">
        <ele>42.2</ele>
        <time>2017-09-03T11:55:28Z</time>
      </trkpt>
      <trkpt lat="58.993848" lon="17.414164">
        <ele>42.2</ele>
        <time>2017-09-03T11:55:29Z</time>
      </trkpt>
      <trkpt lat="58.993787" lon="17.414332">
        <ele>42.2</ele>
        <time>2017-09-03T11:55:30Z</time>
      </trkpt>
      <trkpt lat="58.993727" lon="17.414501">
        <ele>42.2</ele>
        <time>2017-09-03T11:55:31Z</time>
      </trkpt>
      <trkpt lat="58.993668" lon="17.414667">
        <ele>42.2</ele>
        <time>2017-09-03T11:55:32Z</time>
      </trkpt>
      <trkpt lat="58.993609" lon="17.414832">
        <ele>42.4</ele>
        <time>2017-09-03T11:55:33Z</time>
      </trkpt>
      <trkpt lat="58.993551" lon="17.414996">
        <ele>42.4</ele>
        <time>2017-09-03T11:55:34Z</time>
      </trkpt>
      <trkpt lat="58.993494" lon="17.415158">
        <ele>42.6</ele>
        <time>2017-09-03T11:55:35Z</time>
      </trkpt>
      <trkpt lat="58.993438" lon="17.415318">
        <ele>43.4</ele>
        <time>2017-09-03T11:55:36Z</time>
      </trkpt>
      <trkpt lat="58.993383" lon="17.415473">
        <ele>44.4</ele>
        <time>2017-09-03T11:55:37Z</time>
      </trkpt>
      <trkpt lat="58.993331" lon="17.415624">
        <ele>45.2</ele>
        <time>2017-09-03T11:55:38Z</time>
      </trkpt>
      <trkpt lat="58.993279" lon="17.415769">
        <ele>46</ele>
        <time>2017-09-03T11:55:39Z</time>
      </trkpt>
      <trkpt lat="58.993228" lon="17.41591">
        <ele>46.6</ele>
        <time>2017-09-03T11:55:40Z</time>
      </trkpt>
      <trkpt lat="58.993177" lon="17.416046">
        <ele>47</ele>
        <time>2017-09-03T11:55:41Z</time>
      </trkpt>
      <trkpt lat="58.993125" lon="17.416179">
        <ele>47.2</ele>
        <time>2017-09-03T11:55:42Z</time>
      </trkpt>
      <trkpt lat="58.993074" lon="17.416304">
        <ele>47.4</ele>
        <time>2017-09-03T11:55:43Z</time>
      </trkpt>
      <trkpt lat="58.993017" lon="17.416419">
        <ele>47.6</ele>
        <time>2017-09-03T11:55:44Z</time>
      </trkpt>
      <trkpt lat="58.992955" lon="17.416522">
        <ele>48</ele>
        <time>2017-09-03T11:55:45Z</time>
      </trkpt>
      <trkpt lat="58.992891" lon="17.416614">
        <ele>48.2</ele>
        <time>2017-09-03T11:55:46Z</time>
      </trkpt>
      <trkpt lat="58.992824" lon="17.416693">
        <ele>48.4</ele>
        <time>2017-09-03T11:55:47Z</time>
      </trkpt>
      <trkpt lat="58.992754" lon="17.416758">
        <ele>48.6</ele>
        <time>2017-09-03T11:55:48Z</time>
      </trkpt>
      <trkpt lat="58.992683" lon="17.416815">
        <ele>48.6</ele>
        <time>2017-09-03T11:55:49Z</time>
      </trkpt>
      <trkpt lat="58.992611" lon="17.416866">
        <ele>48.8</ele>
        <time>2017-09-03T11:55:50Z</time>
      </trkpt>
      <trkpt lat="58.992539" lon="17.416901">
        <ele>48.8</ele>
        <time>2017-09-03T11:55:51Z</time>
      </trkpt>
      <trkpt lat="58.992466" lon="17.416925">
        <ele>48.8</ele>
        <time>2017-09-03T11:55:52Z</time>
      </trkpt>
      <trkpt lat="58.99239" lon="17.416946">
        <ele>49</ele>
        <time>2017-09-03T11:55:53Z</time>
      </trkpt>
      <trkpt lat="58.992312" lon="17.416963">
        <ele>49.4</ele>
        <time>2017-09-03T11:55:54Z</time>
      </trkpt>
      <trkpt lat="58.992235" lon="17.416979">
        <ele>49.8</ele>
        <time>2017-09-03T11:55:55Z</time>
      </trkpt>
      <trkpt lat="58.992159" lon="17.416992">
        <ele>50</ele>
        <time>2017-09-03T11:55:56Z</time>
      </trkpt>
      <trkpt lat="58.992081" lon="17.417002">
        <ele>50.6</ele>
        <time>2017-09-03T11:55:57Z</time>
      </trkpt>
      <trkpt lat="58.992005" lon="17.417014">
        <ele>51.2</ele>
        <time>2017-09-03T11:55:58Z</time>
      </trkpt>
      <trkpt lat="58.991927" lon="17.417023">
        <ele>51.8</ele>
        <time>2017-09-03T11:55:59Z</time>
      </trkpt>
      <trkpt lat="58.991849" lon="17.417032">
        <ele>52.4</ele>
        <time>2017-09-03T11:56:00Z</time>
      </trkpt>
      <trkpt lat="58.991772" lon="17.417043">
        <ele>53</ele>
        <time>2017-09-03T11:56:01Z</time>
      </trkpt>
      <trkpt lat="58.991699" lon="17.417053">
        <ele>53.8</ele>
        <time>2017-09-03T11:56:02Z</time>
      </trkpt>
      <trkpt lat="58.991625" lon="17.417064">
        <ele>54</ele>
        <time>2017-09-03T11:56:03Z</time>
      </trkpt>
      <trkpt lat="58.991549" lon="17.417078">
        <ele>54.4</ele>
        <time>2017-09-03T11:56:04Z</time>
      </trkpt>
      <trkpt lat="58.991474" lon="17.417095">
        <ele>54.6</ele>
        <time>2017-09-03T11:56:05Z</time>
      </trkpt>
      <trkpt lat="58.991395" lon="17.417115">
        <ele>55</ele>
        <time>2017-09-03T11:56:06Z</time>
      </trkpt>
      <trkpt lat="58.991319" lon="17.417137">
        <ele>55.8</ele>
        <time>2017-09-03T11:56:07Z</time>
      </trkpt>
      <trkpt lat="58.991244" lon="17.417166">
        <ele>56.4</ele>
        <time>2017-09-03T11:56:08Z</time>
      </trkpt>
      <trkpt lat="58.99117" lon="17.417201">
        <ele>56.8</ele>
        <time>2017-09-03T11:56:09Z</time>
      </trkpt>
      <trkpt lat="58.991091" lon="17.417245">
        <ele>57</ele>
        <time>2017-09-03T11:56:10Z</time>
      </trkpt>
      <trkpt lat="58.991013" lon="17.417294">
        <ele>57.2</ele>
        <time>2017-09-03T11:56:11Z</time>
      </trkpt>
      <trkpt lat="58.990937" lon="17.417346">
        <ele>57.8</ele>
        <time>2017-09-03T11:56:12Z</time>
      </trkpt>
      <trkpt lat="58.990863" lon="17.417401">
        <ele>58.4</ele>
        <time>2017-09-03T11:56:13Z</time>
      </trkpt>
      <trkpt lat="58.990793" lon="17.417453">
        <ele>58.8</ele>
        <time>2017-09-03T11:56:14Z</time>
      </trkpt>
      <trkpt lat="58.990724" lon="17.417511">
        <ele>59.2</ele>
        <time>2017-09-03T11:56:15Z</time>
      </trkpt>
      <trkpt lat="58.990656" lon="17.41757">
        <ele>59.6</ele>
        <time>2017-09-03T11:56:16Z</time>
      </trkpt>
      <trkpt lat="58.99059" lon="17.417629">
        <ele>60.6</ele>
        <time>2017-09-03T11:56:17Z</time>
      </trkpt>
      <trkpt lat="58.990525" lon="17.417687">
        <ele>60.8</ele>
        <time>2017-09-03T11:56:18Z</time>
      </trkpt>
      <trkpt lat="58.990459" lon="17.417742">
        <ele>61</ele>
        <time>2017-09-03T11:56:19Z</time>
      </trkpt>
      <trkpt lat="58.990392" lon="17.417795">
        <ele>61.2</ele>
        <time>2017-09-03T11:56:20Z</time>
      </trkpt>
      <trkpt lat="58.990323" lon="17.417853">
        <ele>61.2</ele>
        <time>2017-09-03T11:56:21Z</time>
      </trkpt>
      <trkpt lat="58.990252" lon="17.417914">
        <ele>61.4</ele>
        <time>2017-09-03T11:56:22Z</time>
      </trkpt>
      <trkpt lat="58.990178" lon="17.417974">
        <ele>61.6</ele>
        <time>2017-09-03T11:56:23Z</time>
      </trkpt>
      <trkpt lat="58.990106" lon="17.418034">
        <ele>62</ele>
        <time>2017-09-03T11:56:24Z</time>
      </trkpt>
      <trkpt lat="58.990033" lon="17.418092">
        <ele>62.2</ele>
        <time>2017-09-03T11:56:25Z</time>
      </trkpt>
      <trkpt lat="58.989961" lon="17.418151">
        <ele>62.2</ele>
        <time>2017-09-03T11:56:26Z</time>
      </trkpt>
      <trkpt lat="58.989892" lon="17.418208">
        <ele>62.2</ele>
        <time>2017-09-03T11:56:27Z</time>
      </trkpt>
      <trkpt lat="58.989826" lon="17.418262">
        <ele>62.6</ele>
        <time>2017-09-03T11:56:28Z</time>
      </trkpt>
      <trkpt lat="58.989764" lon="17.418315">
        <ele>62.8</ele>
        <time>2017-09-03T11:56:29Z</time>
      </trkpt>
      <trkpt lat="58.989701" lon="17.418366">
        <ele>63.2</ele>
        <time>2017-09-03T11:56:30Z</time>
      </trkpt>
      <trkpt lat="58.989637" lon="17.418416">
        <ele>63.6</ele>
        <time>2017-09-03T11:56:31Z</time>
      </trkpt>
      <trkpt lat="58.989573" lon="17.418465">
        <ele>64</ele>
        <time>2017-09-03T11:56:32Z</time>
      </trkpt>
      <trkpt lat="58.98951" lon="17.418513">
        <ele>64.2</ele>
        <time>2017-09-03T11:56:33Z</time>
      </trkpt>
      <trkpt lat="58.989447" lon="17.418561">
        <ele>64.6</ele>
        <time>2017-09-03T11:56:34Z</time>
      </trkpt>
      <trkpt lat="58.989382" lon="17.41861">
        <ele>65.2</ele>
        <time>2017-09-03T11:56:35Z</time>
      </trkpt>
      <trkpt lat="58.989314" lon="17.418654">
        <ele>65.6</ele>
        <time>2017-09-03T11:56:36Z</time>
      </trkpt>
      <trkpt lat="58.989244" lon="17.418696">
        <ele>65.8</ele>
        <time>2017-09-03T11:56:37Z</time>
      </trkpt>
      <trkpt lat="58.989174" lon="17.418739">
        <ele>66.2</ele>
        <time>2017-09-03T11:56:38Z</time>
      </trkpt>
      <trkpt lat="58.989102" lon="17.418784">
        <ele>66.6</ele>
        <time>2017-09-03T11:56:39Z</time>
      </trkpt>
      <trkpt lat="58.989028" lon="17.41883">
        <ele>67.2</ele>
        <time>2017-09-03T11:56:40Z</time>
      </trkpt>
      <trkpt lat="58.988953" lon="17.418874">
        <ele>67.6</ele>
        <time>2017-09-03T11:56:41Z</time>
      </trkpt>
      <trkpt lat="58.988878" lon="17.418912">
        <ele>67.8</ele>
        <time>2017-09-03T11:56:42Z</time>
      </trkpt>
      <trkpt lat="58.988803" lon="17.418952">
        <ele>68</ele>
        <time>2017-09-03T11:56:43Z</time>
      </trkpt>
      <trkpt lat="58.988727" lon="17.418995">
        <ele>68.4</ele>
        <time>2017-09-03T11:56:44Z</time>
      </trkpt>
      <trkpt lat="58.988651" lon="17.419039">
        <ele>68.8</ele>
        <time>2017-09-03T11:56:45Z</time>
      </trkpt>
      <trkpt lat="58.988574" lon="17.419079">
        <ele>69.2</ele>
        <time>2017-09-03T11:56:46Z</time>
      </trkpt>
      <trkpt lat="58.988496" lon="17.419117">
        <ele>69.6</ele>
        <time>2017-09-03T11:56:47Z</time>
      </trkpt>
      <trkpt lat="58.988415" lon="17.419152">
        <ele>69.8</ele>
        <time>2017-09-03T11:56:48Z</time>
      </trkpt>
      <trkpt lat="58.988332" lon="17.419187">
        <ele>69.8</ele>
        <time>2017-09-03T11:56:49Z</time>
      </trkpt>
      <trkpt lat="58.988246" lon="17.419225">
        <ele>70</ele>
        <time>2017-09-03T11:56:50Z</time>
      </trkpt>
      <trkpt lat="58.988157" lon="17.419263">
        <ele>70</ele>
        <time>2017-09-03T11:56:51Z</time>
      </trkpt>
      <trkpt lat="58.988066" lon="17.419302">
        <ele>70</ele>
        <time>2017-09-03T11:56:52Z</time>
      </trkpt>
      <trkpt lat="58.987974" lon="17.41934">
        <ele>70</ele>
        <time>2017-09-03T11:56:53Z</time>
      </trkpt>
      <trkpt lat="58.987883" lon="17.419381">
        <ele>70</ele>
        <time>2017-09-03T11:56:54Z</time>
      </trkpt>
      <trkpt lat="58.987791" lon="17.419423">
        <ele>70</ele>
        <time>2017-09-03T11:56:55Z</time>
      </trkpt>
      <trkpt lat="58.987699" lon="17.419458">
        <ele>70</ele>
        <time>2017-09-03T11:56:56Z</time>
      </trkpt>
      <trkpt lat="58.987606" lon="17.41949">
        <ele>70</ele>
        <time>2017-09-03T11:56:57Z</time>
      </trkpt>
      <trkpt lat="58.987514" lon="17.419525">
        <ele>69.8</ele>
        <time>2017-09-03T11:56:58Z</time>
      </trkpt>
      <trkpt lat="58.987422" lon="17.419565">
        <ele>69.6</ele>
        <time>2017-09-03T11:56:59Z</time>
      </trkpt>
      <trkpt lat="58.98733" lon="17.419603">
        <ele>69.6</ele>
        <time>2017-09-03T11:57:00Z</time>
      </trkpt>
      <trkpt lat="58.987238" lon="17.419642">
        <ele>69.4</ele>
        <time>2017-09-03T11:57:01Z</time>
      </trkpt>
      <trkpt lat="58.987142" lon="17.419681">
        <ele>69.2</ele>
        <time>2017-09-03T11:57:02Z</time>
      </trkpt>
      <trkpt lat="58.987043" lon="17.419721">
        <ele>69</ele>
        <time>2017-09-03T11:57:03Z</time>
      </trkpt>
      <trkpt lat="58.986941" lon="17.419767">
        <ele>68.8</ele>
        <time>2017-09-03T11:57:04Z</time>
      </trkpt>
      <trkpt lat="58.986834" lon="17.419815">
        <ele>68.2</ele>
        <time>2017-09-03T11:57:05Z</time>
      </trkpt>
      <trkpt lat="58.986725" lon="17.419863">
        <ele>67.8</ele>
        <time>2017-09-03T11:57:06Z</time>
      </trkpt>
      <trkpt lat="58.986616" lon="17.419912">
        <ele>67.4</ele>
        <time>2017-09-03T11:57:07Z</time>
      </trkpt>
      <trkpt lat="58.986506" lon="17.41996">
        <ele>67.2</ele>
        <time>2017-09-03T11:57:08Z</time>
      </trkpt>
      <trkpt lat="58.986401" lon="17.420006">
        <ele>67</ele>
        <time>2017-09-03T11:57:09Z</time>
      </trkpt>
      <trkpt lat="58.986299" lon="17.420048">
        <ele>67</ele>
        <time>2017-09-03T11:57:10Z</time>
      </trkpt>
      <trkpt lat="58.9862" lon="17.42009">
        <ele>66.6</ele>
        <time>2017-09-03T11:57:11Z</time>
      </trkpt>
      <trkpt lat="58.986099" lon="17.420137">
        <ele>66.6</ele>
        <time>2017-09-03T11:57:12Z</time>
      </trkpt>
      <trkpt lat="58.985999" lon="17.420183">
        <ele>66.6</ele>
        <time>2017-09-03T11:57:13Z</time>
      </trkpt>
      <trkpt lat="58.985901" lon="17.42023">
        <ele>66.4</ele>
        <time>2017-09-03T11:57:14Z</time>
      </trkpt>
      <trkpt lat="58.985804" lon="17.420281">
        <ele>66.6</ele>
        <time>2017-09-03T11:57:15Z</time>
      </trkpt>
      <trkpt lat="58.985709" lon="17.420341">
        <ele>66.8</ele>
        <time>2017-09-03T11:57:16Z</time>
      </trkpt>
      <trkpt lat="58.985617" lon="17.420408">
        <ele>66.8</ele>
        <time>2017-09-03T11:57:17Z</time>
      </trkpt>
      <trkpt lat="58.985532" lon="17.420487">
        <ele>66.8</ele>
        <time>2017-09-03T11:57:18Z</time>
      </trkpt>
      <trkpt lat="58.985451" lon="17.420575">
        <ele>66.8</ele>
        <time>2017-09-03T11:57:19Z</time>
      </trkpt>
      <trkpt lat="58.985376" lon="17.420675">
        <ele>66.8</ele>
        <time>2017-09-03T11:57:20Z</time>
      </trkpt>
      <trkpt lat="58.985304" lon="17.420783">
        <ele>66.8</ele>
        <time>2017-09-03T11:57:21Z</time>
      </trkpt>
      <trkpt lat="58.985237" lon="17.420903">
        <ele>67</ele>
        <time>2017-09-03T11:57:22Z</time>
      </trkpt>
      <trkpt lat="58.985175" lon="17.421037">
        <ele>67.2</ele>
        <time>2017-09-03T11:57:23Z</time>
      </trkpt>
      <trkpt lat="58.985117" lon="17.421182">
        <ele>67.2</ele>
        <time>2017-09-03T11:57:24Z</time>
      </trkpt>
      <trkpt lat="58.985063" lon="17.421332">
        <ele>67.2</ele>
        <time>2017-09-03T11:57:25Z</time>
      </trkpt>
      <trkpt lat="58.985011" lon="17.421488">
        <ele>67.4</ele>
        <time>2017-09-03T11:57:26Z</time>
      </trkpt>
      <trkpt lat="58.984957" lon="17.421644">
        <ele>67.8</ele>
        <time>2017-09-03T11:57:27Z</time>
      </trkpt>
      <trkpt lat="58.984902" lon="17.4218">
        <ele>68</ele>
        <time>2017-09-03T11:57:28Z</time>
      </trkpt>
      <trkpt lat="58.984848" lon="17.421949">
        <ele>68.2</ele>
        <time>2017-09-03T11:57:29Z</time>
      </trkpt>
      <trkpt lat="58.984793" lon="17.422098">
        <ele>68.2</ele>
        <time>2017-09-03T11:57:30Z</time>
      </trkpt>
      <trkpt lat="58.984737" lon="17.422245">
        <ele>68.4</ele>
        <time>2017-09-03T11:57:31Z</time>
      </trkpt>
      <trkpt lat="58.984678" lon="17.422388">
        <ele>68.4</ele>
        <time>2017-09-03T11:57:32Z</time>
      </trkpt>
      <trkpt lat="58.984619" lon="17.422534">
        <ele>68.4</ele>
        <time>2017-09-03T11:57:33Z</time>
      </trkpt>
      <trkpt lat="58.984558" lon="17.422678">
        <ele>68.4</ele>
        <time>2017-09-03T11:57:34Z</time>
      </trkpt>
      <trkpt lat="58.984498" lon="17.42282">
        <ele>68.4</ele>
        <time>2017-09-03T11:57:35Z</time>
      </trkpt>
      <trkpt lat="58.984437" lon="17.422956">
        <ele>68.4</ele>
        <time>2017-09-03T11:57:36Z</time>
      </trkpt>
      <trkpt lat="58.984375" lon="17.42309">
        <ele>68.4</ele>
        <time>2017-09-03T11:57:37Z</time>
      </trkpt>
      <trkpt lat="58.984311" lon="17.423224">
        <ele>68.6</ele>
        <time>2017-09-03T11:57:38Z</time>
      </trkpt>
      <trkpt lat="58.984243" lon="17.423362">
        <ele>68.4</ele>
        <time>2017-09-03T11:57:39Z</time>
      </trkpt>
      <trkpt lat="58.984176" lon="17.423496">
        <ele>68.4</ele>
        <time>2017-09-03T11:57:40Z</time>
      </trkpt>
      <trkpt lat="58.984109" lon="17.423625">
        <ele>68.4</ele>
        <time>2017-09-03T11:57:41Z</time>
      </trkpt>
      <trkpt lat="58.984042" lon="17.423753">
        <ele>68.4</ele>
        <time>2017-09-03T11:57:42Z</time>
      </trkpt>
      <trkpt lat="58.983973" lon="17.423885">
        <ele>68.4</ele>
        <time>2017-09-03T11:57:43Z</time>
      </trkpt>
      <trkpt lat="58.983904" lon="17.424013">
        <ele>68.4</ele>
        <time>2017-09-03T11:57:44Z</time>
      </trkpt>
      <trkpt lat="58.983832" lon="17.424133">
        <ele>68.4</ele>
        <time>2017-09-03T11:57:45Z</time>
      </trkpt>
      <trkpt lat="58.983758" lon="17.424246">
        <ele>68.4</ele>
        <time>2017-09-03T11:57:46Z</time>
      </trkpt>
      <trkpt lat="58.983682" lon="17.424354">
        <ele>68.4</ele>
        <time>2017-09-03T11:57:47Z</time>
      </trkpt>
      <trkpt lat="58.983605" lon="17.424459">
        <ele>68.4</ele>
        <time>2017-09-03T11:57:48Z</time>
      </trkpt>
      <trkpt lat="58.983526" lon="17.424556">
        <ele>68.6</ele>
        <time>2017-09-03T11:57:49Z</time>
      </trkpt>
      <trkpt lat="58.983442" lon="17.424644">
        <ele>68.6</ele>
        <time>2017-09-03T11:57:50Z</time>
      </trkpt>
      <trkpt lat="58.983358" lon="17.424721">
        <ele>68.6</ele>
        <time>2017-09-03T11:57:51Z</time>
      </trkpt>
      <trkpt lat="58.983276" lon="17.42479">
        <ele>68.8</ele>
        <time>2017-09-03T11:57:52Z</time>
      </trkpt>
      <trkpt lat="58.983191" lon="17.424854">
        <ele>69</ele>
        <time>2017-09-03T11:57:53Z</time>
      </trkpt>
      <trkpt lat="58.983106" lon="17.424913">
        <ele>69</ele>
        <time>2017-09-03T11:57:54Z</time>
      </trkpt>
      <trkpt lat="58.98302" lon="17.424967">
        <ele>69.2</ele>
        <time>2017-09-03T11:57:55Z</time>
      </trkpt>
      <trkpt lat="58.982934" lon="17.425011">
        <ele>69.4</ele>
        <time>2017-09-03T11:57:56Z</time>
      </trkpt>
      <trkpt lat="58.982847" lon="17.425043">
        <ele>69.4</ele>
        <time>2017-09-03T11:57:57Z</time>
      </trkpt>
      <trkpt lat="58.982764" lon="17.425065">
        <ele>69.6</ele>
        <time>2017-09-03T11:57:58Z</time>
      </trkpt>
      <trkpt lat="58.982679" lon="17.425087">
        <ele>69.6</ele>
        <time>2017-09-03T11:57:59Z</time>
      </trkpt>
      <trkpt lat="58.982592" lon="17.425106">
        <ele>69.8</ele>
        <time>2017-09-03T11:58:00Z</time>
      </trkpt>
      <trkpt lat="58.982507" lon="17.425117">
        <ele>69.8</ele>
        <time>2017-09-03T11:58:01Z</time>
      </trkpt>
      <trkpt lat="58.98242" lon="17.425122">
        <ele>70</ele>
        <time>2017-09-03T11:58:02Z</time>
      </trkpt>
      <trkpt lat="58.982333" lon="17.425121">
        <ele>70</ele>
        <time>2017-09-03T11:58:03Z</time>
      </trkpt>
      <trkpt lat="58.982245" lon="17.425115">
        <ele>70.2</ele>
        <time>2017-09-03T11:58:04Z</time>
      </trkpt>
      <trkpt lat="58.982155" lon="17.425108">
        <ele>70.2</ele>
        <time>2017-09-03T11:58:05Z</time>
      </trkpt>
      <trkpt lat="58.982063" lon="17.425097">
        <ele>70.4</ele>
        <time>2017-09-03T11:58:06Z</time>
      </trkpt>
      <trkpt lat="58.981968" lon="17.425081">
        <ele>70.4</ele>
        <time>2017-09-03T11:58:07Z</time>
      </trkpt>
      <trkpt lat="58.98187" lon="17.42506">
        <ele>70.4</ele>
        <time>2017-09-03T11:58:08Z</time>
      </trkpt>
      <trkpt lat="58.981771" lon="17.425032">
        <ele>70.6</ele>
        <time>2017-09-03T11:58:09Z</time>
      </trkpt>
      <trkpt lat="58.981669" lon="17.424995">
        <ele>70.6</ele>
        <time>2017-09-03T11:58:10Z</time>
      </trkpt>
      <trkpt lat="58.981567" lon="17.424948">
        <ele>70.6</ele>
        <time>2017-09-03T11:58:11Z</time>
      </trkpt>
      <trkpt lat="58.981471" lon="17.424877">
        <ele>70.6</ele>
        <time>2017-09-03T11:58:12Z</time>
      </trkpt>
      <trkpt lat="58.981377" lon="17.424785">
        <ele>70.6</ele>
        <time>2017-09-03T11:58:13Z</time>
      </trkpt>
      <trkpt lat="58.981283" lon="17.424682">
        <ele>70.6</ele>
        <time>2017-09-03T11:58:14Z</time>
      </trkpt>
      <trkpt lat="58.981192" lon="17.424564">
        <ele>70.6</ele>
        <time>2017-09-03T11:58:15Z</time>
      </trkpt>
      <trkpt lat="58.981102" lon="17.424431">
        <ele>70.4</ele>
        <time>2017-09-03T11:58:16Z</time>
      </trkpt>
      <trkpt lat="58.981013" lon="17.424291">
        <ele>70.4</ele>
        <time>2017-09-03T11:58:17Z</time>
      </trkpt>
      <trkpt lat="58.980928" lon="17.424146">
        <ele>70.4</ele>
        <time>2017-09-03T11:58:18Z</time>
      </trkpt>
      <trkpt lat="58.980844" lon="17.424001">
        <ele>70.2</ele>
        <time>2017-09-03T11:58:19Z</time>
      </trkpt>
      <trkpt lat="58.980762" lon="17.423857">
        <ele>70</ele>
        <time>2017-09-03T11:58:20Z</time>
      </trkpt>
      <trkpt lat="58.980678" lon="17.423713">
        <ele>70</ele>
        <time>2017-09-03T11:58:21Z</time>
      </trkpt>
      <trkpt lat="58.980594" lon="17.423569">
        <ele>69.8</ele>
        <time>2017-09-03T11:58:22Z</time>
      </trkpt>
      <trkpt lat="58.980512" lon="17.423427">
        <ele>69.6</ele>
        <time>2017-09-03T11:58:23Z</time>
      </trkpt>
      <trkpt lat="58.98043" lon="17.423287">
        <ele>69.6</ele>
        <time>2017-09-03T11:58:24Z</time>
      </trkpt>
      <trkpt lat="58.980345" lon="17.423149">
        <ele>69.6</ele>
        <time>2017-09-03T11:58:25Z</time>
      </trkpt>
      <trkpt lat="58.980264" lon="17.423009">
        <ele>69.6</ele>
        <time>2017-09-03T11:58:26Z</time>
      </trkpt>
      <trkpt lat="58.98018" lon="17.422869">
        <ele>69.4</ele>
        <time>2017-09-03T11:58:27Z</time>
      </trkpt>
      <trkpt lat="58.980095" lon="17.42273">
        <ele>69.4</ele>
        <time>2017-09-03T11:58:28Z</time>
      </trkpt>
      <trkpt lat="58.98001" lon="17.422596">
        <ele>69.4</ele>
        <time>2017-09-03T11:58:29Z</time>
      </trkpt>
      <trkpt lat="58.979925" lon="17.422464">
        <ele>69.4</ele>
        <time>2017-09-03T11:58:30Z</time>
      </trkpt>
      <trkpt lat="58.979838" lon="17.422337">
        <ele>69.4</ele>
        <time>2017-09-03T11:58:31Z</time>
      </trkpt>
      <trkpt lat="58.979748" lon="17.422219">
        <ele>69.4</ele>
        <time>2017-09-03T11:58:32Z</time>
      </trkpt>
      <trkpt lat="58.979657" lon="17.42211">
        <ele>69.4</ele>
        <time>2017-09-03T11:58:33Z</time>
      </trkpt>
      <trkpt lat="58.979564" lon="17.422007">
        <ele>69.4</ele>
        <time>2017-09-03T11:58:34Z</time>
      </trkpt>
      <trkpt lat="58.979472" lon="17.42191">
        <ele>69.4</ele>
        <time>2017-09-03T11:58:35Z</time>
      </trkpt>
      <trkpt lat="58.97938" lon="17.421818">
        <ele>69.4</ele>
        <time>2017-09-03T11:58:36Z</time>
      </trkpt>
      <trkpt lat="58.979289" lon="17.421731">
        <ele>69.4</ele>
        <time>2017-09-03T11:58:37Z</time>
      </trkpt>
      <trkpt lat="58.979195" lon="17.421653">
        <ele>69.4</ele>
        <time>2017-09-03T11:58:38Z</time>
      </trkpt>
      <trkpt lat="58.979098" lon="17.421585">
        <ele>69.4</ele>
        <time>2017-09-03T11:58:39Z</time>
      </trkpt>
      <trkpt lat="58.978999" lon="17.421527">
        <ele>69.6</ele>
        <time>2017-09-03T11:58:40Z</time>
      </trkpt>
      <trkpt lat="58.978896" lon="17.421487">
        <ele>69.6</ele>
        <time>2017-09-03T11:58:41Z</time>
      </trkpt>
      <trkpt lat="58.978791" lon="17.421469">
        <ele>69.6</ele>
        <time>2017-09-03T11:58:42Z</time>
      </trkpt>
      <trkpt lat="58.978679" lon="17.421471">
        <ele>69.4</ele>
        <time>2017-09-03T11:58:43Z</time>
      </trkpt>
      <trkpt lat="58.978562" lon="17.421477">
        <ele>69.4</ele>
        <time>2017-09-03T11:58:44Z</time>
      </trkpt>
      <trkpt lat="58.978442" lon="17.421483">
        <ele>69.4</ele>
        <time>2017-09-03T11:58:45Z</time>
      </trkpt>
      <trkpt lat="58.978318" lon="17.421489">
        <ele>69.4</ele>
        <time>2017-09-03T11:58:46Z</time>
      </trkpt>
      <trkpt lat="58.978191" lon="17.421493">
        <ele>69.4</ele>
        <time>2017-09-03T11:58:47Z</time>
      </trkpt>
      <trkpt lat="58.97806" lon="17.421495">
        <ele>69.4</ele>
        <time>2017-09-03T11:58:48Z</time>
      </trkpt>
      <trkpt lat="58.977926" lon="17.421501">
        <ele>69.2</ele>
        <time>2017-09-03T11:58:49Z</time>
      </trkpt>
      <trkpt lat="58.977791" lon="17.421507">
        <ele>67.8</ele>
        <time>2017-09-03T11:58:50Z</time>
      </trkpt>
      <trkpt lat="58.977654" lon="17.421508">
        <ele>66.4</ele>
        <time>2017-09-03T11:58:51Z</time>
      </trkpt>
      <trkpt lat="58.977519" lon="17.421513">
        <ele>65.6</ele>
        <time>2017-09-03T11:58:52Z</time>
      </trkpt>
      <trkpt lat="58.977385" lon="17.421529">
        <ele>65.2</ele>
        <time>2017-09-03T11:58:53Z</time>
      </trkpt>
      <trkpt lat="58.977255" lon="17.421552">
        <ele>65</ele>
        <time>2017-09-03T11:58:54Z</time>
      </trkpt>
      <trkpt lat="58.977129" lon="17.421582">
        <ele>65</ele>
        <time>2017-09-03T11:58:55Z</time>
      </trkpt>
      <trkpt lat="58.977008" lon="17.421626">
        <ele>65</ele>
        <time>2017-09-03T11:58:56Z</time>
      </trkpt>
      <trkpt lat="58.976888" lon="17.421681">
        <ele>64.8</ele>
        <time>2017-09-03T11:58:57Z</time>
      </trkpt>
      <trkpt lat="58.976771" lon="17.421741">
        <ele>64.8</ele>
        <time>2017-09-03T11:58:58Z</time>
      </trkpt>
      <trkpt lat="58.976655" lon="17.421809">
        <ele>64.8</ele>
        <time>2017-09-03T11:58:59Z</time>
      </trkpt>
      <trkpt lat="58.976541" lon="17.421886">
        <ele>64.8</ele>
        <time>2017-09-03T11:59:00Z</time>
      </trkpt>
      <trkpt lat="58.976432" lon="17.421973">
        <ele>64.8</ele>
        <time>2017-09-03T11:59:01Z</time>
      </trkpt>
      <trkpt lat="58.976325" lon="17.422072">
        <ele>65</ele>
        <time>2017-09-03T11:59:02Z</time>
      </trkpt>
      <trkpt lat="58.97622" lon="17.42218">
        <ele>65.2</ele>
        <time>2017-09-03T11:59:03Z</time>
      </trkpt>
      <trkpt lat="58.976122" lon="17.422291">
        <ele>65.4</ele>
        <time>2017-09-03T11:59:04Z</time>
      </trkpt>
      <trkpt lat="58.976024" lon="17.422406">
        <ele>65.6</ele>
        <time>2017-09-03T11:59:05Z</time>
      </trkpt>
      <trkpt lat="58.975929" lon="17.422524">
        <ele>65.6</ele>
        <time>2017-09-03T11:59:06Z</time>
      </trkpt>
      <trkpt lat="58.975834" lon="17.422643">
        <ele>65.8</ele>
        <time>2017-09-03T11:59:07Z</time>
      </trkpt>
      <trkpt lat="58.975742" lon="17.422771">
        <ele>66.2</ele>
        <time>2017-09-03T11:59:08Z</time>
      </trkpt>
      <trkpt lat="58.975651" lon="17.422907">
        <ele>66.4</ele>
        <time>2017-09-03T11:59:09Z</time>
      </trkpt>
      <trkpt lat="58.975562" lon="17.423051">
        <ele>66.4</ele>
        <time>2017-09-03T11:59:10Z</time>
      </trkpt>
      <trkpt lat="58.975474" lon="17.4232">
        <ele>66.6</ele>
        <time>2017-09-03T11:59:11Z</time>
      </trkpt>
      <trkpt lat="58.975386" lon="17.423353">
        <ele>66.6</ele>
        <time>2017-09-03T11:59:12Z</time>
      </trkpt>
      <trkpt lat="58.975301" lon="17.423504">
        <ele>66.6</ele>
        <time>2017-09-03T11:59:13Z</time>
      </trkpt>
      <trkpt lat="58.975215" lon="17.423658">
        <ele>66.6</ele>
        <time>2017-09-03T11:59:14Z</time>
      </trkpt>
      <trkpt lat="58.97513" lon="17.423814">
        <ele>66.2</ele>
        <time>2017-09-03T11:59:15Z</time>
      </trkpt>
      <trkpt lat="58.975042" lon="17.423973">
        <ele>66</ele>
        <time>2017-09-03T11:59:16Z</time>
      </trkpt>
      <trkpt lat="58.974954" lon="17.424131">
        <ele>65.8</ele>
        <time>2017-09-03T11:59:17Z</time>
      </trkpt>
      <trkpt lat="58.974863" lon="17.424287">
        <ele>65.8</ele>
        <time>2017-09-03T11:59:18Z</time>
      </trkpt>
      <trkpt lat="58.97477" lon="17.424445">
        <ele>65.8</ele>
        <time>2017-09-03T11:59:19Z</time>
      </trkpt>
      <trkpt lat="58.974682" lon="17.424602">
        <ele>65.6</ele>
        <time>2017-09-03T11:59:20Z</time>
      </trkpt>
      <trkpt lat="58.974593" lon="17.424764">
        <ele>65.6</ele>
        <time>2017-09-03T11:59:21Z</time>
      </trkpt>
      <trkpt lat="58.974505" lon="17.424927">
        <ele>65.4</ele>
        <time>2017-09-03T11:59:22Z</time>
      </trkpt>
      <trkpt lat="58.974419" lon="17.425086">
        <ele>65.4</ele>
        <time>2017-09-03T11:59:23Z</time>
      </trkpt>
      <trkpt lat="58.974336" lon="17.425237">
        <ele>65.4</ele>
        <time>2017-09-03T11:59:24Z</time>
      </trkpt>
      <trkpt lat="58.974253" lon="17.42538">
        <ele>65.4</ele>
        <time>2017-09-03T11:59:25Z</time>
      </trkpt>
      <trkpt lat="58.97417" lon="17.425521">
        <ele>65.4</ele>
        <time>2017-09-03T11:59:26Z</time>
      </trkpt>
      <trkpt lat="58.974087" lon="17.42566">
        <ele>65.4</ele>
        <time>2017-09-03T11:59:27Z</time>
      </trkpt>
      <trkpt lat="58.974002" lon="17.425792">
        <ele>65.6</ele>
        <time>2017-09-03T11:59:28Z</time>
      </trkpt>
      <trkpt lat="58.973915" lon="17.425929">
        <ele>65.6</ele>
        <time>2017-09-03T11:59:29Z</time>
      </trkpt>
      <trkpt lat="58.97383" lon="17.426075">
        <ele>65.6</ele>
        <time>2017-09-03T11:59:30Z</time>
      </trkpt>
      <trkpt lat="58.973744" lon="17.426223">
        <ele>65.6</ele>
        <time>2017-09-03T11:59:31Z</time>
      </trkpt>
      <trkpt lat="58.973658" lon="17.426369">
        <ele>65.8</ele>
        <time>2017-09-03T11:59:32Z</time>
      </trkpt>
      <trkpt lat="58.973571" lon="17.426515">
        <ele>65.8</ele>
        <time>2017-09-03T11:59:33Z</time>
      </trkpt>
      <trkpt lat="58.973485" lon="17.426661">
        <ele>65.8</ele>
        <time>2017-09-03T11:59:34Z</time>
      </trkpt>
      <trkpt lat="58.973399" lon="17.426811">
        <ele>65.8</ele>
        <time>2017-09-03T11:59:35Z</time>
      </trkpt>
      <trkpt lat="58.973312" lon="17.426961">
        <ele>65.8</ele>
        <time>2017-09-03T11:59:36Z</time>
      </trkpt>
      <trkpt lat="58.973222" lon="17.427111">
        <ele>65.6</ele>
        <time>2017-09-03T11:59:37Z</time>
      </trkpt>
      <trkpt lat="58.973131" lon="17.427262">
        <ele>65.4</ele>
        <time>2017-09-03T11:59:38Z</time>
      </trkpt>
      <trkpt lat="58.973039" lon="17.427412">
        <ele>65.4</ele>
        <time>2017-09-03T11:59:39Z</time>
      </trkpt>
      <trkpt lat="58.972945" lon="17.427556">
        <ele>65.2</ele>
        <time>2017-09-03T11:59:40Z</time>
      </trkpt>
      <trkpt lat="58.972849" lon="17.427695">
        <ele>65</ele>
        <time>2017-09-03T11:59:41Z</time>
      </trkpt>
      <trkpt lat="58.972751" lon="17.427828">
        <ele>64.8</ele>
        <time>2017-09-03T11:59:42Z</time>
      </trkpt>
      <trkpt lat="58.972651" lon="17.427955">
        <ele>64.2</ele>
        <time>2017-09-03T11:59:43Z</time>
      </trkpt>
      <trkpt lat="58.972548" lon="17.428087">
        <ele>63.6</ele>
        <time>2017-09-03T11:59:44Z</time>
      </trkpt>
      <trkpt lat="58.972441" lon="17.42821">
        <ele>63.4</ele>
        <time>2017-09-03T11:59:45Z</time>
      </trkpt>
      <trkpt lat="58.972331" lon="17.428326">
        <ele>62.8</ele>
        <time>2017-09-03T11:59:46Z</time>
      </trkpt>
      <trkpt lat="58.972217" lon="17.428446">
        <ele>62.4</ele>
        <time>2017-09-03T11:59:47Z</time>
      </trkpt>
      <trkpt lat="58.9721" lon="17.42856">
        <ele>62.2</ele>
        <time>2017-09-03T11:59:48Z</time>
      </trkpt>
      <trkpt lat="58.97198" lon="17.428667">
        <ele>62</ele>
        <time>2017-09-03T11:59:49Z</time>
      </trkpt>
      <trkpt lat="58.971857" lon="17.42877">
        <ele>61.4</ele>
        <time>2017-09-03T11:59:50Z</time>
      </trkpt>
      <trkpt lat="58.97173" lon="17.428869">
        <ele>60.4</ele>
        <time>2017-09-03T11:59:51Z</time>
      </trkpt>
      <trkpt lat="58.971599" lon="17.428967">
        <ele>59.6</ele>
        <time>2017-09-03T11:59:52Z</time>
      </trkpt>
      <trkpt lat="58.971465" lon="17.429056">
        <ele>58.8</ele>
        <time>2017-09-03T11:59:53Z</time>
      </trkpt>
      <trkpt lat="58.971328" lon="17.429145">
        <ele>57.8</ele>
        <time>2017-09-03T11:59:54Z</time>
      </trkpt>
      <trkpt lat="58.971187" lon="17.429227">
        <ele>57</ele>
        <time>2017-09-03T11:59:55Z</time>
      </trkpt>
      <trkpt lat="58.971043" lon="17.4293">
        <ele>56.2</ele>
        <time>2017-09-03T11:59:56Z</time>
      </trkpt>
      <trkpt lat="58.970897" lon="17.429365">
        <ele>55.4</ele>
        <time>2017-09-03T11:59:57Z</time>
      </trkpt>
      <trkpt lat="58.97075" lon="17.429422">
        <ele>54.6</ele>
        <time>2017-09-03T11:59:58Z</time>
      </trkpt>
      <trkpt lat="58.970602" lon="17.42947">
        <ele>54</ele>
        <time>2017-09-03T11:59:59Z</time>
      </trkpt>
      <trkpt lat="58.970453" lon="17.429512">
        <ele>53.6</ele>
        <time>2017-09-03T12:00:00Z</time>
      </trkpt>
      <trkpt lat="58.970305" lon="17.429545">
        <ele>53</ele>
        <time>2017-09-03T12:00:01Z</time>
      </trkpt>
      <trkpt lat="58.970157" lon="17.429568">
        <ele>51.8</ele>
        <time>2017-09-03T12:00:02Z</time>
      </trkpt>
      <trkpt lat="58.970011" lon="17.429586">
        <ele>50.2</ele>
        <time>2017-09-03T12:00:03Z</time>
      </trkpt>
      <trkpt lat="58.969867" lon="17.429597">
        <ele>48.8</ele>
        <time>2017-09-03T12:00:04Z</time>
      </trkpt>
      <trkpt lat="58.969725" lon="17.429601">
        <ele>47.6</ele>
        <time>2017-09-03T12:00:05Z</time>
      </trkpt>
      <trkpt lat="58.969585" lon="17.429605">
        <ele>46.6</ele>
        <time>2017-09-03T12:00:06Z</time>
      </trkpt>
      <trkpt lat="58.969448" lon="17.429605">
        <ele>45.2</ele>
        <time>2017-09-03T12:00:07Z</time>
      </trkpt>
      <trkpt lat="58.969314" lon="17.429601">
        <ele>43.8</ele>
        <time>2017-09-03T12:00:08Z</time>
      </trkpt>
      <trkpt lat="58.969183" lon="17.429598">
        <ele>42.6</ele>
        <time>2017-09-03T12:00:09Z</time>
      </trkpt>
      <trkpt lat="58.969053" lon="17.429595">
        <ele>41.4</ele>
        <time>2017-09-03T12:00:10Z</time>
      </trkpt>
      <trkpt lat="58.968925" lon="17.429588">
        <ele>41.2</ele>
        <time>2017-09-03T12:00:11Z</time>
      </trkpt>
      <trkpt lat="58.968796" lon="17.429578">
        <ele>41</ele>
        <time>2017-09-03T12:00:12Z</time>
      </trkpt>
      <trkpt lat="58.968668" lon="17.429569">
        <ele>41</ele>
        <time>2017-09-03T12:00:13Z</time>
      </trkpt>
      <trkpt lat="58.968541" lon="17.429562">
        <ele>41</ele>
        <time>2017-09-03T12:00:14Z</time>
      </trkpt>
      <trkpt lat="58.968415" lon="17.429556">
        <ele>41</ele>
        <time>2017-09-03T12:00:15Z</time>
      </trkpt>
      <trkpt lat="58.96829" lon="17.429553">
        <ele>40.6</ele>
        <time>2017-09-03T12:00:16Z</time>
      </trkpt>
      <trkpt lat="58.968166" lon="17.429549">
        <ele>40.6</ele>
        <time>2017-09-03T12:00:17Z</time>
      </trkpt>
      <trkpt lat="58.968043" lon="17.429545">
        <ele>40.4</ele>
        <time>2017-09-03T12:00:18Z</time>
      </trkpt>
      <trkpt lat="58.967921" lon="17.429542">
        <ele>40.6</ele>
        <time>2017-09-03T12:00:19Z</time>
      </trkpt>
      <trkpt lat="58.9678" lon="17.429538">
        <ele>40.8</ele>
        <time>2017-09-03T12:00:20Z</time>
      </trkpt>
      <trkpt lat="58.96768" lon="17.429531">
        <ele>41</ele>
        <time>2017-09-03T12:00:21Z</time>
      </trkpt>
      <trkpt lat="58.967559" lon="17.429525">
        <ele>41</ele>
        <time>2017-09-03T12:00:22Z</time>
      </trkpt>
      <trkpt lat="58.967437" lon="17.429522">
        <ele>41.2</ele>
        <time>2017-09-03T12:00:23Z</time>
      </trkpt>
      <trkpt lat="58.967315" lon="17.429524">
        <ele>41.2</ele>
        <time>2017-09-03T12:00:24Z</time>
      </trkpt>
      <trkpt lat="58.967191" lon="17.42953">
        <ele>41.2</ele>
        <time>2017-09-03T12:00:25Z</time>
      </trkpt>
      <trkpt lat="58.967068" lon="17.429541">
        <ele>41.2</ele>
        <time>2017-09-03T12:00:26Z</time>
      </trkpt>
      <trkpt lat="58.966946" lon="17.429559">
        <ele>41.4</ele>
        <time>2017-09-03T12:00:27Z</time>
      </trkpt>
      <trkpt lat="58.966826" lon="17.429587">
        <ele>41.6</ele>
        <time>2017-09-03T12:00:28Z</time>
      </trkpt>
      <trkpt lat="58.966708" lon="17.429626">
        <ele>41.8</ele>
        <time>2017-09-03T12:00:29Z</time>
      </trkpt>
      <trkpt lat="58.96659" lon="17.429671">
        <ele>42</ele>
        <time>2017-09-03T12:00:30Z</time>
      </trkpt>
      <trkpt lat="58.966474" lon="17.429718">
        <ele>42</ele>
        <time>2017-09-03T12:00:31Z</time>
      </trkpt>
      <trkpt lat="58.966357" lon="17.429766">
        <ele>42.4</ele>
        <time>2017-09-03T12:00:32Z</time>
      </trkpt>
      <trkpt lat="58.966241" lon="17.429812">
        <ele>42.6</ele>
        <time>2017-09-03T12:00:33Z</time>
      </trkpt>
      <trkpt lat="58.966125" lon="17.429857">
        <ele>43</ele>
        <time>2017-09-03T12:00:34Z</time>
      </trkpt>
      <trkpt lat="58.966011" lon="17.429906">
        <ele>43.4</ele>
        <time>2017-09-03T12:00:35Z</time>
      </trkpt>
      <trkpt lat="58.965898" lon="17.429958">
        <ele>43.6</ele>
        <time>2017-09-03T12:00:36Z</time>
      </trkpt>
      <trkpt lat="58.965785" lon="17.430012">
        <ele>43.8</ele>
        <time>2017-09-03T12:00:37Z</time>
      </trkpt>
      <trkpt lat="58.965674" lon="17.430071">
        <ele>44</ele>
        <time>2017-09-03T12:00:38Z</time>
      </trkpt>
      <trkpt lat="58.965567" lon="17.430135">
        <ele>44</ele>
        <time>2017-09-03T12:00:39Z</time>
      </trkpt>
      <trkpt lat="58.965462" lon="17.430204">
        <ele>44</ele>
        <time>2017-09-03T12:00:40Z</time>
      </trkpt>
      <trkpt lat="58.96536" lon="17.430279">
        <ele>44</ele>
        <time>2017-09-03T12:00:41Z</time>
      </trkpt>
      <trkpt lat="58.96526" lon="17.430361">
        <ele>44</ele>
        <time>2017-09-03T12:00:42Z</time>
      </trkpt>
      <trkpt lat="58.965162" lon="17.430449">
        <ele>44</ele>
        <time>2017-09-03T12:00:43Z</time>
      </trkpt>
      <trkpt lat="58.965064" lon="17.43054">
        <ele>44</ele>
        <time>2017-09-03T12:00:44Z</time>
      </trkpt>
      <trkpt lat="58.96497" lon="17.430633">
        <ele>44</ele>
        <time>2017-09-03T12:00:45Z</time>
      </trkpt>
      <trkpt lat="58.964878" lon="17.430733">
        <ele>44</ele>
        <time>2017-09-03T12:00:46Z</time>
      </trkpt>
      <trkpt lat="58.964789" lon="17.430837">
        <ele>44</ele>
        <time>2017-09-03T12:00:47Z</time>
      </trkpt>
      <trkpt lat="58.964701" lon="17.430943">
        <ele>44</ele>
        <time>2017-09-03T12:00:48Z</time>
      </trkpt>
      <trkpt lat="58.964611" lon="17.431053">
        <ele>44</ele>
        <time>2017-09-03T12:00:49Z</time>
      </trkpt>
      <trkpt lat="58.96452" lon="17.431165">
        <ele>44</ele>
        <time>2017-09-03T12:00:50Z</time>
      </trkpt>
      <trkpt lat="58.96443" lon="17.431279">
        <ele>44</ele>
        <time>2017-09-03T12:00:51Z</time>
      </trkpt>
      <trkpt lat="58.964341" lon="17.431394">
        <ele>44</ele>
        <time>2017-09-03T12:00:52Z</time>
      </trkpt>
      <trkpt lat="58.964252" lon="17.43151">
        <ele>44</ele>
        <time>2017-09-03T12:00:53Z</time>
      </trkpt>
      <trkpt lat="58.964162" lon="17.431629">
        <ele>44.2</ele>
        <time>2017-09-03T12:00:54Z</time>
      </trkpt>
      <trkpt lat="58.964072" lon="17.431755">
        <ele>44.2</ele>
        <time>2017-09-03T12:00:55Z</time>
      </trkpt>
      <trkpt lat="58.963981" lon="17.431887">
        <ele>44.2</ele>
        <time>2017-09-03T12:00:56Z</time>
      </trkpt>
      <trkpt lat="58.96389" lon="17.432027">
        <ele>44.2</ele>
        <time>2017-09-03T12:00:57Z</time>
      </trkpt>
      <trkpt lat="58.963802" lon="17.432168">
        <ele>44.2</ele>
        <time>2017-09-03T12:00:58Z</time>
      </trkpt>
      <trkpt lat="58.963717" lon="17.432314">
        <ele>44.4</ele>
        <time>2017-09-03T12:00:59Z</time>
      </trkpt>
      <trkpt lat="58.963637" lon="17.432469">
        <ele>44.4</ele>
        <time>2017-09-03T12:01:00Z</time>
      </trkpt>
      <trkpt lat="58.963566" lon="17.432626">
        <ele>44.4</ele>
        <time>2017-09-03T12:01:01Z</time>
      </trkpt>
      <trkpt lat="58.963502" lon="17.432792">
        <ele>44.4</ele>
        <time>2017-09-03T12:01:02Z</time>
      </trkpt>
      <trkpt lat="58.963448" lon="17.432969">
        <ele>44.4</ele>
        <time>2017-09-03T12:01:03Z</time>
      </trkpt>
      <trkpt lat="58.963402" lon="17.433154">
        <ele>44.4</ele>
        <time>2017-09-03T12:01:04Z</time>
      </trkpt>
      <trkpt lat="58.963365" lon="17.433344">
        <ele>44.4</ele>
        <time>2017-09-03T12:01:05Z</time>
      </trkpt>
      <trkpt lat="58.963338" lon="17.433537">
        <ele>44.4</ele>
        <time>2017-09-03T12:01:06Z</time>
      </trkpt>
      <trkpt lat="58.963317" lon="17.433735">
        <ele>44.4</ele>
        <time>2017-09-03T12:01:07Z</time>
      </trkpt>
      <trkpt lat="58.963302" lon="17.433932">
        <ele>44.8</ele>
        <time>2017-09-03T12:01:08Z</time>
      </trkpt>
      <trkpt lat="58.963292" lon="17.434127">
        <ele>45</ele>
        <time>2017-09-03T12:01:09Z</time>
      </trkpt>
      <trkpt lat="58.963285" lon="17.434321">
        <ele>45</ele>
        <time>2017-09-03T12:01:10Z</time>
      </trkpt>
      <trkpt lat="58.963281" lon="17.434516">
        <ele>45</ele>
        <time>2017-09-03T12:01:11Z</time>
      </trkpt>
      <trkpt lat="58.963276" lon="17.434714">
        <ele>45.2</ele>
        <time>2017-09-03T12:01:12Z</time>
      </trkpt>
      <trkpt lat="58.963269" lon="17.43491">
        <ele>45.4</ele>
        <time>2017-09-03T12:01:13Z</time>
      </trkpt>
      <trkpt lat="58.963261" lon="17.435107">
        <ele>45.8</ele>
        <time>2017-09-03T12:01:14Z</time>
      </trkpt>
      <trkpt lat="58.963253" lon="17.435306">
        <ele>45.8</ele>
        <time>2017-09-03T12:01:15Z</time>
      </trkpt>
      <trkpt lat="58.963243" lon="17.435506">
        <ele>46</ele>
        <time>2017-09-03T12:01:16Z</time>
      </trkpt>
      <trkpt lat="58.963233" lon="17.435704">
        <ele>46</ele>
        <time>2017-09-03T12:01:17Z</time>
      </trkpt>
      <trkpt lat="58.963223" lon="17.435904">
        <ele>46</ele>
        <time>2017-09-03T12:01:18Z</time>
      </trkpt>
      <trkpt lat="58.963212" lon="17.4361">
        <ele>46</ele>
        <time>2017-09-03T12:01:19Z</time>
      </trkpt>
      <trkpt lat="58.963199" lon="17.436296">
        <ele>46</ele>
        <time>2017-09-03T12:01:20Z</time>
      </trkpt>
      <trkpt lat="58.963185" lon="17.436491">
        <ele>46.2</ele>
        <time>2017-09-03T12:01:21Z</time>
      </trkpt>
      <trkpt lat="58.96317" lon="17.436687">
        <ele>46.2</ele>
        <time>2017-09-03T12:01:22Z</time>
      </trkpt>
      <trkpt lat="58.963155" lon="17.436879">
        <ele>46.4</ele>
        <time>2017-09-03T12:01:23Z</time>
      </trkpt>
      <trkpt lat="58.963137" lon="17.437068">
        <ele>46.4</ele>
        <time>2017-09-03T12:01:24Z</time>
      </trkpt>
      <trkpt lat="58.963117" lon="17.437256">
        <ele>46.4</ele>
        <time>2017-09-03T12:01:25Z</time>
      </trkpt>
      <trkpt lat="58.963097" lon="17.437443">
        <ele>46.4</ele>
        <time>2017-09-03T12:01:26Z</time>
      </trkpt>
      <trkpt lat="58.963077" lon="17.437628">
        <ele>46.4</ele>
        <time>2017-09-03T12:01:27Z</time>
      </trkpt>
      <trkpt lat="58.963059" lon="17.437811">
        <ele>46.4</ele>
        <time>2017-09-03T12:01:28Z</time>
      </trkpt>
      <trkpt lat="58.963042" lon="17.437997">
        <ele>46.4</ele>
        <time>2017-09-03T12:01:29Z</time>
      </trkpt>
      <trkpt lat="58.963025" lon="17.438184">
        <ele>46.4</ele>
        <time>2017-09-03T12:01:30Z</time>
      </trkpt>
      <trkpt lat="58.963007" lon="17.438373">
        <ele>46.2</ele>
        <time>2017-09-03T12:01:31Z</time>
      </trkpt>
      <trkpt lat="58.962988" lon="17.438563">
        <ele>46.2</ele>
        <time>2017-09-03T12:01:32Z</time>
      </trkpt>
      <trkpt lat="58.962967" lon="17.438755">
        <ele>46</ele>
        <time>2017-09-03T12:01:33Z</time>
      </trkpt>
      <trkpt lat="58.962945" lon="17.438948">
        <ele>46</ele>
        <time>2017-09-03T12:01:34Z</time>
      </trkpt>
      <trkpt lat="58.962922" lon="17.439138">
        <ele>46</ele>
        <time>2017-09-03T12:01:35Z</time>
      </trkpt>
      <trkpt lat="58.9629" lon="17.439328">
        <ele>46</ele>
        <time>2017-09-03T12:01:36Z</time>
      </trkpt>
      <trkpt lat="58.962881" lon="17.439518">
        <ele>46.2</ele>
        <time>2017-09-03T12:01:37Z</time>
      </trkpt>
      <trkpt lat="58.962862" lon="17.439704">
        <ele>46.4</ele>
        <time>2017-09-03T12:01:38Z</time>
      </trkpt>
      <trkpt lat="58.962846" lon="17.439888">
        <ele>46.4</ele>
        <time>2017-09-03T12:01:39Z</time>
      </trkpt>
      <trkpt lat="58.96283" lon="17.440072">
        <ele>46.4</ele>
        <time>2017-09-03T12:01:40Z</time>
      </trkpt>
      <trkpt lat="58.962813" lon="17.440252">
        <ele>46.4</ele>
        <time>2017-09-03T12:01:41Z</time>
      </trkpt>
      <trkpt lat="58.962797" lon="17.440433">
        <ele>46.4</ele>
        <time>2017-09-03T12:01:42Z</time>
      </trkpt>
      <trkpt lat="58.962786" lon="17.440615">
        <ele>46.4</ele>
        <time>2017-09-03T12:01:43Z</time>
      </trkpt>
      <trkpt lat="58.962778" lon="17.440797">
        <ele>46.6</ele>
        <time>2017-09-03T12:01:44Z</time>
      </trkpt>
      <trkpt lat="58.962771" lon="17.440979">
        <ele>46.8</ele>
        <time>2017-09-03T12:01:45Z</time>
      </trkpt>
      <trkpt lat="58.962764" lon="17.441166">
        <ele>47.2</ele>
        <time>2017-09-03T12:01:46Z</time>
      </trkpt>
      <trkpt lat="58.962758" lon="17.441357">
        <ele>47.8</ele>
        <time>2017-09-03T12:01:47Z</time>
      </trkpt>
      <trkpt lat="58.962752" lon="17.44155">
        <ele>48.4</ele>
        <time>2017-09-03T12:01:48Z</time>
      </trkpt>
      <trkpt lat="58.962745" lon="17.441742">
        <ele>48.6</ele>
        <time>2017-09-03T12:01:49Z</time>
      </trkpt>
      <trkpt lat="58.962737" lon="17.441937">
        <ele>48.8</ele>
        <time>2017-09-03T12:01:50Z</time>
      </trkpt>
      <trkpt lat="58.962729" lon="17.442134">
        <ele>48.8</ele>
        <time>2017-09-03T12:01:51Z</time>
      </trkpt>
      <trkpt lat="58.962717" lon="17.442332">
        <ele>48.8</ele>
        <time>2017-09-03T12:01:52Z</time>
      </trkpt>
      <trkpt lat="58.9627" lon="17.442532">
        <ele>48.8</ele>
        <time>2017-09-03T12:01:53Z</time>
      </trkpt>
      <trkpt lat="58.962677" lon="17.442733">
        <ele>48.8</ele>
        <time>2017-09-03T12:01:54Z</time>
      </trkpt>
      <trkpt lat="58.962652" lon="17.442931">
        <ele>48.8</ele>
        <time>2017-09-03T12:01:55Z</time>
      </trkpt>
      <trkpt lat="58.962622" lon="17.443123">
        <ele>48.8</ele>
        <time>2017-09-03T12:01:56Z</time>
      </trkpt>
      <trkpt lat="58.962587" lon="17.443312">
        <ele>48.8</ele>
        <time>2017-09-03T12:01:57Z</time>
      </trkpt>
      <trkpt lat="58.962547" lon="17.443497">
        <ele>48.8</ele>
        <time>2017-09-03T12:01:58Z</time>
      </trkpt>
      <trkpt lat="58.962505" lon="17.443674">
        <ele>48.6</ele>
        <time>2017-09-03T12:01:59Z</time>
      </trkpt>
      <trkpt lat="58.962461" lon="17.443846">
        <ele>48.2</ele>
        <time>2017-09-03T12:02:00Z</time>
      </trkpt>
      <trkpt lat="58.962417" lon="17.444012">
        <ele>47.6</ele>
        <time>2017-09-03T12:02:01Z</time>
      </trkpt>
      <trkpt lat="58.962373" lon="17.444179">
        <ele>47</ele>
        <time>2017-09-03T12:02:02Z</time>
      </trkpt>
      <trkpt lat="58.962332" lon="17.444345">
        <ele>46.8</ele>
        <time>2017-09-03T12:02:03Z</time>
      </trkpt>
      <trkpt lat="58.962293" lon="17.444512">
        <ele>46.6</ele>
        <time>2017-09-03T12:02:04Z</time>
      </trkpt>
      <trkpt lat="58.962257" lon="17.44468">
        <ele>46.6</ele>
        <time>2017-09-03T12:02:05Z</time>
      </trkpt>
      <trkpt lat="58.962224" lon="17.444855">
        <ele>46.6</ele>
        <time>2017-09-03T12:02:06Z</time>
      </trkpt>
      <trkpt lat="58.962194" lon="17.445027">
        <ele>46.6</ele>
        <time>2017-09-03T12:02:07Z</time>
      </trkpt>
      <trkpt lat="58.962169" lon="17.445204">
        <ele>46.6</ele>
        <time>2017-09-03T12:02:08Z</time>
      </trkpt>
      <trkpt lat="58.962148" lon="17.445385">
        <ele>46.6</ele>
        <time>2017-09-03T12:02:09Z</time>
      </trkpt>
      <trkpt lat="58.962133" lon="17.445574">
        <ele>46.6</ele>
        <time>2017-09-03T12:02:10Z</time>
      </trkpt>
      <trkpt lat="58.962122" lon="17.44577">
        <ele>46.4</ele>
        <time>2017-09-03T12:02:11Z</time>
      </trkpt>
      <trkpt lat="58.962115" lon="17.445966">
        <ele>46.4</ele>
        <time>2017-09-03T12:02:12Z</time>
      </trkpt>
      <trkpt lat="58.962109" lon="17.446159">
        <ele>46.4</ele>
        <time>2017-09-03T12:02:13Z</time>
      </trkpt>
      <trkpt lat="58.962109" lon="17.44635">
        <ele>46.4</ele>
        <time>2017-09-03T12:02:14Z</time>
      </trkpt>
      <trkpt lat="58.962115" lon="17.446543">
        <ele>46.4</ele>
        <time>2017-09-03T12:02:15Z</time>
      </trkpt>
      <trkpt lat="58.962122" lon="17.446734">
        <ele>46.4</ele>
        <time>2017-09-03T12:02:16Z</time>
      </trkpt>
      <trkpt lat="58.962129" lon="17.446923">
        <ele>46.4</ele>
        <time>2017-09-03T12:02:17Z</time>
      </trkpt>
      <trkpt lat="58.962135" lon="17.447108">
        <ele>46.2</ele>
        <time>2017-09-03T12:02:18Z</time>
      </trkpt>
      <trkpt lat="58.962141" lon="17.447291">
        <ele>46.2</ele>
        <time>2017-09-03T12:02:19Z</time>
      </trkpt>
      <trkpt lat="58.962147" lon="17.44747">
        <ele>46.2</ele>
        <time>2017-09-03T12:02:20Z</time>
      </trkpt>
      <trkpt lat="58.962159" lon="17.447643">
        <ele>46.2</ele>
        <time>2017-09-03T12:02:21Z</time>
      </trkpt>
      <trkpt lat="58.962167" lon="17.44781">
        <ele>46.2</ele>
        <time>2017-09-03T12:02:22Z</time>
      </trkpt>
      <trkpt lat="58.962174" lon="17.447972">
        <ele>46.2</ele>
        <time>2017-09-03T12:02:23Z</time>
      </trkpt>
      <trkpt lat="58.962179" lon="17.44813">
        <ele>46.2</ele>
        <time>2017-09-03T12:02:24Z</time>
      </trkpt>
      <trkpt lat="58.962186" lon="17.448281">
        <ele>46.2</ele>
        <time>2017-09-03T12:02:25Z</time>
      </trkpt>
      <trkpt lat="58.962192" lon="17.448429">
        <ele>46.2</ele>
        <time>2017-09-03T12:02:26Z</time>
      </trkpt>
      <trkpt lat="58.962195" lon="17.448576">
        <ele>46.2</ele>
        <time>2017-09-03T12:02:27Z</time>
      </trkpt>
      <trkpt lat="58.962194" lon="17.448721">
        <ele>46.2</ele>
        <time>2017-09-03T12:02:28Z</time>
      </trkpt>
      <trkpt lat="58.962193" lon="17.448867">
        <ele>46.4</ele>
        <time>2017-09-03T12:02:29Z</time>
      </trkpt>
      <trkpt lat="58.962196" lon="17.449019">
        <ele>46.8</ele>
        <time>2017-09-03T12:02:30Z</time>
      </trkpt>
      <trkpt lat="58.962199" lon="17.449175">
        <ele>47</ele>
        <time>2017-09-03T12:02:31Z</time>
      </trkpt>
      <trkpt lat="58.962199" lon="17.449332">
        <ele>47.2</ele>
        <time>2017-09-03T12:02:32Z</time>
      </trkpt>
      <trkpt lat="58.962193" lon="17.44949">
        <ele>47.4</ele>
        <time>2017-09-03T12:02:33Z</time>
      </trkpt>
      <trkpt lat="58.962183" lon="17.449649">
        <ele>47.4</ele>
        <time>2017-09-03T12:02:34Z</time>
      </trkpt>
      <trkpt lat="58.962169" lon="17.449811">
        <ele>47.6</ele>
        <time>2017-09-03T12:02:35Z</time>
      </trkpt>
      <trkpt lat="58.962151" lon="17.449968">
        <ele>47.8</ele>
        <time>2017-09-03T12:02:36Z</time>
      </trkpt>
      <trkpt lat="58.962133" lon="17.450124">
        <ele>48</ele>
        <time>2017-09-03T12:02:37Z</time>
      </trkpt>
      <trkpt lat="58.962111" lon="17.450279">
        <ele>48.2</ele>
        <time>2017-09-03T12:02:38Z</time>
      </trkpt>
      <trkpt lat="58.962087" lon="17.450432">
        <ele>48.4</ele>
        <time>2017-09-03T12:02:39Z</time>
      </trkpt>
      <trkpt lat="58.962059" lon="17.450581">
        <ele>48.6</ele>
        <time>2017-09-03T12:02:40Z</time>
      </trkpt>
      <trkpt lat="58.962026" lon="17.450725">
        <ele>48.8</ele>
        <time>2017-09-03T12:02:41Z</time>
      </trkpt>
      <trkpt lat="58.961989" lon="17.450865">
        <ele>49</ele>
        <time>2017-09-03T12:02:42Z</time>
      </trkpt>
      <trkpt lat="58.961952" lon="17.451">
        <ele>49.8</ele>
        <time>2017-09-03T12:02:43Z</time>
      </trkpt>
      <trkpt lat="58.961912" lon="17.451128">
        <ele>50.2</ele>
        <time>2017-09-03T12:02:44Z</time>
      </trkpt>
      <trkpt lat="58.961867" lon="17.451255">
        <ele>50.4</ele>
        <time>2017-09-03T12:02:45Z</time>
      </trkpt>
      <trkpt lat="58.961819" lon="17.451376">
        <ele>50.6</ele>
        <time>2017-09-03T12:02:46Z</time>
      </trkpt>
      <trkpt lat="58.961769" lon="17.451492">
        <ele>50.8</ele>
        <time>2017-09-03T12:02:47Z</time>
      </trkpt>
      <trkpt lat="58.961718" lon="17.4516">
        <ele>51</ele>
        <time>2017-09-03T12:02:48Z</time>
      </trkpt>
      <trkpt lat="58.961664" lon="17.4517">
        <ele>51</ele>
        <time>2017-09-03T12:02:49Z</time>
      </trkpt>
      <trkpt lat="58.961607" lon="17.451801">
        <ele>51.2</ele>
        <time>2017-09-03T12:02:50Z</time>
      </trkpt>
      <trkpt lat="58.961553" lon="17.451898">
        <ele>51.2</ele>
        <time>2017-09-03T12:02:51Z</time>
      </trkpt>
      <trkpt lat="58.961498" lon="17.451991">
        <ele>51.4</ele>
        <time>2017-09-03T12:02:52Z</time>
      </trkpt>
      <trkpt lat="58.961444" lon="17.452077">
        <ele>51.8</ele>
        <time>2017-09-03T12:02:53Z</time>
      </trkpt>
      <trkpt lat="58.961391" lon="17.452163">
        <ele>52</ele>
        <time>2017-09-03T12:02:54Z</time>
      </trkpt>
      <trkpt lat="58.961337" lon="17.452248">
        <ele>52.2</ele>
        <time>2017-09-03T12:02:55Z</time>
      </trkpt>
      <trkpt lat="58.961282" lon="17.452331">
        <ele>52.4</ele>
        <time>2017-09-03T12:02:56Z</time>
      </trkpt>
      <trkpt lat="58.961228" lon="17.452415">
        <ele>52.8</ele>
        <time>2017-09-03T12:02:57Z</time>
      </trkpt>
      <trkpt lat="58.961175" lon="17.452497">
        <ele>53</ele>
        <time>2017-09-03T12:02:58Z</time>
      </trkpt>
      <trkpt lat="58.961123" lon="17.452577">
        <ele>53.8</ele>
        <time>2017-09-03T12:02:59Z</time>
      </trkpt>
      <trkpt lat="58.961076" lon="17.452655">
        <ele>54.4</ele>
        <time>2017-09-03T12:03:00Z</time>
      </trkpt>
      <trkpt lat="58.961028" lon="17.452733">
        <ele>54.8</ele>
        <time>2017-09-03T12:03:01Z</time>
      </trkpt>
      <trkpt lat="58.960983" lon="17.452816">
        <ele>55</ele>
        <time>2017-09-03T12:03:02Z</time>
      </trkpt>
      <trkpt lat="58.96094" lon="17.452902">
        <ele>55.4</ele>
        <time>2017-09-03T12:03:03Z</time>
      </trkpt>
      <trkpt lat="58.960898" lon="17.45299">
        <ele>56.2</ele>
        <time>2017-09-03T12:03:04Z</time>
      </trkpt>
      <trkpt lat="58.960859" lon="17.453081">
        <ele>56.8</ele>
        <time>2017-09-03T12:03:05Z</time>
      </trkpt>
      <trkpt lat="58.96082" lon="17.453175">
        <ele>57.4</ele>
        <time>2017-09-03T12:03:06Z</time>
      </trkpt>
      <trkpt lat="58.960784" lon="17.453273">
        <ele>58</ele>
        <time>2017-09-03T12:03:07Z</time>
      </trkpt>
      <trkpt lat="58.960747" lon="17.453382">
        <ele>58.4</ele>
        <time>2017-09-03T12:03:08Z</time>
      </trkpt>
      <trkpt lat="58.960708" lon="17.453492">
        <ele>58.8</ele>
        <time>2017-09-03T12:03:09Z</time>
      </trkpt>
      <trkpt lat="58.960672" lon="17.453604">
        <ele>59.2</ele>
        <time>2017-09-03T12:03:10Z</time>
      </trkpt>
      <trkpt lat="58.960636" lon="17.453716">
        <ele>59.6</ele>
        <time>2017-09-03T12:03:11Z</time>
      </trkpt>
      <trkpt lat="58.960602" lon="17.453834">
        <ele>59.8</ele>
        <time>2017-09-03T12:03:12Z</time>
      </trkpt>
      <trkpt lat="58.960567" lon="17.453963">
        <ele>59.8</ele>
        <time>2017-09-03T12:03:13Z</time>
      </trkpt>
      <trkpt lat="58.96053" lon="17.454098">
        <ele>60</ele>
        <time>2017-09-03T12:03:14Z</time>
      </trkpt>
      <trkpt lat="58.960491" lon="17.454238">
        <ele>60</ele>
        <time>2017-09-03T12:03:15Z</time>
      </trkpt>
      <trkpt lat="58.960452" lon="17.454384">
        <ele>60</ele>
        <time>2017-09-03T12:03:16Z</time>
      </trkpt>
      <trkpt lat="58.960411" lon="17.454538">
        <ele>60</ele>
        <time>2017-09-03T12:03:17Z</time>
      </trkpt>
      <trkpt lat="58.960366" lon="17.454699">
        <ele>60</ele>
        <time>2017-09-03T12:03:18Z</time>
      </trkpt>
      <trkpt lat="58.960318" lon="17.45487">
        <ele>60</ele>
        <time>2017-09-03T12:03:19Z</time>
      </trkpt>
      <trkpt lat="58.96027" lon="17.455048">
        <ele>60</ele>
        <time>2017-09-03T12:03:20Z</time>
      </trkpt>
      <trkpt lat="58.960222" lon="17.455232">
        <ele>59.8</ele>
        <time>2017-09-03T12:03:21Z</time>
      </trkpt>
      <trkpt lat="58.960167" lon="17.455434">
        <ele>59.6</ele>
        <time>2017-09-03T12:03:22Z</time>
      </trkpt>
      <trkpt lat="58.960116" lon="17.455632">
        <ele>59.2</ele>
        <time>2017-09-03T12:03:23Z</time>
      </trkpt>
      <trkpt lat="58.960065" lon="17.455834">
        <ele>58.8</ele>
        <time>2017-09-03T12:03:24Z</time>
      </trkpt>
      <trkpt lat="58.960013" lon="17.456037">
        <ele>58.2</ele>
        <time>2017-09-03T12:03:25Z</time>
      </trkpt>
      <trkpt lat="58.959961" lon="17.45624">
        <ele>57.6</ele>
        <time>2017-09-03T12:03:26Z</time>
      </trkpt>
      <trkpt lat="58.959911" lon="17.456443">
        <ele>57</ele>
        <time>2017-09-03T12:03:27Z</time>
      </trkpt>
      <trkpt lat="58.959862" lon="17.456644">
        <ele>56.2</ele>
        <time>2017-09-03T12:03:28Z</time>
      </trkpt>
      <trkpt lat="58.959812" lon="17.45684">
        <ele>55.6</ele>
        <time>2017-09-03T12:03:29Z</time>
      </trkpt>
      <trkpt lat="58.959762" lon="17.45703">
        <ele>55.2</ele>
        <time>2017-09-03T12:03:30Z</time>
      </trkpt>
      <trkpt lat="58.959711" lon="17.457218">
        <ele>54.2</ele>
        <time>2017-09-03T12:03:31Z</time>
      </trkpt>
      <trkpt lat="58.95966" lon="17.4574">
        <ele>53.2</ele>
        <time>2017-09-03T12:03:32Z</time>
      </trkpt>
      <trkpt lat="58.959608" lon="17.457573">
        <ele>52</ele>
        <time>2017-09-03T12:03:33Z</time>
      </trkpt>
      <trkpt lat="58.959556" lon="17.457744">
        <ele>51.8</ele>
        <time>2017-09-03T12:03:34Z</time>
      </trkpt>
      <trkpt lat="58.959502" lon="17.457916">
        <ele>51.4</ele>
        <time>2017-09-03T12:03:35Z</time>
      </trkpt>
      <trkpt lat="58.959448" lon="17.458082">
        <ele>51.2</ele>
        <time>2017-09-03T12:03:36Z</time>
      </trkpt>
      <trkpt lat="58.959388" lon="17.458246">
        <ele>51.2</ele>
        <time>2017-09-03T12:03:37Z</time>
      </trkpt>
      <trkpt lat="58.959323" lon="17.458402">
        <ele>51</ele>
        <time>2017-09-03T12:03:38Z</time>
      </trkpt>
      <trkpt lat="58.959257" lon="17.458557">
        <ele>51</ele>
        <time>2017-09-03T12:03:39Z</time>
      </trkpt>
      <trkpt lat="58.959194" lon="17.45871">
        <ele>51</ele>
        <time>2017-09-03T12:03:40Z</time>
      </trkpt>
      <trkpt lat="58.959129" lon="17.458852">
        <ele>51</ele>
        <time>2017-09-03T12:03:41Z</time>
      </trkpt>
      <trkpt lat="58.959063" lon="17.458996">
        <ele>51</ele>
        <time>2017-09-03T12:03:42Z</time>
      </trkpt>
      <trkpt lat="58.959002" lon="17.459155">
        <ele>51</ele>
        <time>2017-09-03T12:03:43Z</time>
      </trkpt>
      <trkpt lat="58.958935" lon="17.459298">
        <ele>51</ele>
        <time>2017-09-03T12:03:44Z</time>
      </trkpt>
      <trkpt lat="58.958869" lon="17.459435">
        <ele>51.2</ele>
        <time>2017-09-03T12:03:45Z</time>
      </trkpt>
      <trkpt lat="58.958803" lon="17.459582">
        <ele>51.4</ele>
        <time>2017-09-03T12:03:46Z</time>
      </trkpt>
      <trkpt lat="58.95874" lon="17.45973">
        <ele>51.6</ele>
        <time>2017-09-03T12:03:47Z</time>
      </trkpt>
      <trkpt lat="58.958676" lon="17.459879">
        <ele>51.8</ele>
        <time>2017-09-03T12:03:48Z</time>
      </trkpt>
      <trkpt lat="58.958612" lon="17.460031">
        <ele>52</ele>
        <time>2017-09-03T12:03:49Z</time>
      </trkpt>
      <trkpt lat="58.958546" lon="17.460177">
        <ele>52.2</ele>
        <time>2017-09-03T12:03:50Z</time>
      </trkpt>
      <trkpt lat="58.958478" lon="17.460322">
        <ele>52.4</ele>
        <time>2017-09-03T12:03:51Z</time>
      </trkpt>
      <trkpt lat="58.958412" lon="17.460475">
        <ele>52.4</ele>
        <time>2017-09-03T12:03:52Z</time>
      </trkpt>
      <trkpt lat="58.958344" lon="17.460635">
        <ele>52.6</ele>
        <time>2017-09-03T12:03:53Z</time>
      </trkpt>
      <trkpt lat="58.958277" lon="17.460787">
        <ele>52.6</ele>
        <time>2017-09-03T12:03:54Z</time>
      </trkpt>
      <trkpt lat="58.958212" lon="17.460936">
        <ele>52.6</ele>
        <time>2017-09-03T12:03:55Z</time>
      </trkpt>
      <trkpt lat="58.958147" lon="17.461085">
        <ele>52.8</ele>
        <time>2017-09-03T12:03:56Z</time>
      </trkpt>
      <trkpt lat="58.958079" lon="17.46124">
        <ele>52.8</ele>
        <time>2017-09-03T12:03:57Z</time>
      </trkpt>
      <trkpt lat="58.958012" lon="17.46139">
        <ele>53</ele>
        <time>2017-09-03T12:03:58Z</time>
      </trkpt>
      <trkpt lat="58.957944" lon="17.461541">
        <ele>53.2</ele>
        <time>2017-09-03T12:03:59Z</time>
      </trkpt>
      <trkpt lat="58.957877" lon="17.461685">
        <ele>53.4</ele>
        <time>2017-09-03T12:04:00Z</time>
      </trkpt>
      <trkpt lat="58.957806" lon="17.461829">
        <ele>53.4</ele>
        <time>2017-09-03T12:04:01Z</time>
      </trkpt>
      <trkpt lat="58.957735" lon="17.461962">
        <ele>53.8</ele>
        <time>2017-09-03T12:04:02Z</time>
      </trkpt>
      <trkpt lat="58.95766" lon="17.462092">
        <ele>54</ele>
        <time>2017-09-03T12:04:03Z</time>
      </trkpt>
      <trkpt lat="58.957585" lon="17.462218">
        <ele>54.4</ele>
        <time>2017-09-03T12:04:04Z</time>
      </trkpt>
      <trkpt lat="58.957509" lon="17.462338">
        <ele>54.6</ele>
        <time>2017-09-03T12:04:05Z</time>
      </trkpt>
      <trkpt lat="58.957429" lon="17.462448">
        <ele>54.6</ele>
        <time>2017-09-03T12:04:06Z</time>
      </trkpt>
      <trkpt lat="58.957347" lon="17.462551">
        <ele>54.8</ele>
        <time>2017-09-03T12:04:07Z</time>
      </trkpt>
      <trkpt lat="58.957259" lon="17.462648">
        <ele>54.8</ele>
        <time>2017-09-03T12:04:08Z</time>
      </trkpt>
      <trkpt lat="58.95717" lon="17.462739">
        <ele>54.8</ele>
        <time>2017-09-03T12:04:09Z</time>
      </trkpt>
      <trkpt lat="58.957082" lon="17.462831">
        <ele>55</ele>
        <time>2017-09-03T12:04:10Z</time>
      </trkpt>
      <trkpt lat="58.956994" lon="17.462922">
        <ele>55</ele>
        <time>2017-09-03T12:04:11Z</time>
      </trkpt>
      <trkpt lat="58.956905" lon="17.463014">
        <ele>55</ele>
        <time>2017-09-03T12:04:12Z</time>
      </trkpt>
      <trkpt lat="58.956814" lon="17.463105">
        <ele>55</ele>
        <time>2017-09-03T12:04:13Z</time>
      </trkpt>
      <trkpt lat="58.956722" lon="17.463194">
        <ele>55</ele>
        <time>2017-09-03T12:04:14Z</time>
      </trkpt>
      <trkpt lat="58.956631" lon="17.463282">
        <ele>55.2</ele>
        <time>2017-09-03T12:04:15Z</time>
      </trkpt>
      <trkpt lat="58.956539" lon="17.46337">
        <ele>55.2</ele>
        <time>2017-09-03T12:04:16Z</time>
      </trkpt>
      <trkpt lat="58.956447" lon="17.46346">
        <ele>55.2</ele>
        <time>2017-09-03T12:04:17Z</time>
      </trkpt>
      <trkpt lat="58.956356" lon="17.463549">
        <ele>55.4</ele>
        <time>2017-09-03T12:04:18Z</time>
      </trkpt>
      <trkpt lat="58.956263" lon="17.463635">
        <ele>55.4</ele>
        <time>2017-09-03T12:04:19Z</time>
      </trkpt>
      <trkpt lat="58.956168" lon="17.463723">
        <ele>55.4</ele>
        <time>2017-09-03T12:04:20Z</time>
      </trkpt>
      <trkpt lat="58.956074" lon="17.463813">
        <ele>55.4</ele>
        <time>2017-09-03T12:04:21Z</time>
      </trkpt>
      <trkpt lat="58.955981" lon="17.463907">
        <ele>55.6</ele>
        <time>2017-09-03T12:04:22Z</time>
      </trkpt>
      <trkpt lat="58.955891" lon="17.464001">
        <ele>55.6</ele>
        <time>2017-09-03T12:04:23Z</time>
      </trkpt>
      <trkpt lat="58.955809" lon="17.464098">
        <ele>55.6</ele>
        <time>2017-09-03T12:04:24Z</time>
      </trkpt>
      <trkpt lat="58.955726" lon="17.46421">
        <ele>55.8</ele>
        <time>2017-09-03T12:04:25Z</time>
      </trkpt>
      <trkpt lat="58.955646" lon="17.464336">
        <ele>55.8</ele>
        <time>2017-09-03T12:04:26Z</time>
      </trkpt>
      <trkpt lat="58.955566" lon="17.464475">
        <ele>55.8</ele>
        <time>2017-09-03T12:04:27Z</time>
      </trkpt>
      <trkpt lat="58.955489" lon="17.46463">
        <ele>55.8</ele>
        <time>2017-09-03T12:04:28Z</time>
      </trkpt>
      <trkpt lat="58.955417" lon="17.464796">
        <ele>55.8</ele>
        <time>2017-09-03T12:04:29Z</time>
      </trkpt>
      <trkpt lat="58.955345" lon="17.46497">
        <ele>55.8</ele>
        <time>2017-09-03T12:04:30Z</time>
      </trkpt>
      <trkpt lat="58.955275" lon="17.465151">
        <ele>55.8</ele>
        <time>2017-09-03T12:04:31Z</time>
      </trkpt>
      <trkpt lat="58.955205" lon="17.465336">
        <ele>55.8</ele>
        <time>2017-09-03T12:04:32Z</time>
      </trkpt>
      <trkpt lat="58.955133" lon="17.465523">
        <ele>55.8</ele>
        <time>2017-09-03T12:04:33Z</time>
      </trkpt>
      <trkpt lat="58.955062" lon="17.465712">
        <ele>55.4</ele>
        <time>2017-09-03T12:04:34Z</time>
      </trkpt>
      <trkpt lat="58.954991" lon="17.465907">
        <ele>54.8</ele>
        <time>2017-09-03T12:04:35Z</time>
      </trkpt>
      <trkpt lat="58.954921" lon="17.466102">
        <ele>54.4</ele>
        <time>2017-09-03T12:04:36Z</time>
      </trkpt>
      <trkpt lat="58.954852" lon="17.466294">
        <ele>54.2</ele>
        <time>2017-09-03T12:04:37Z</time>
      </trkpt>
      <trkpt lat="58.954786" lon="17.466484">
        <ele>54</ele>
        <time>2017-09-03T12:04:38Z</time>
      </trkpt>
      <trkpt lat="58.954721" lon="17.466679">
        <ele>53.4</ele>
        <time>2017-09-03T12:04:39Z</time>
      </trkpt>
      <trkpt lat="58.954658" lon="17.466882">
        <ele>52.4</ele>
        <time>2017-09-03T12:04:40Z</time>
      </trkpt>
      <trkpt lat="58.954598" lon="17.467091">
        <ele>51.4</ele>
        <time>2017-09-03T12:04:41Z</time>
      </trkpt>
      <trkpt lat="58.954542" lon="17.467311">
        <ele>50.8</ele>
        <time>2017-09-03T12:04:42Z</time>
      </trkpt>
      <trkpt lat="58.954492" lon="17.467535">
        <ele>50.4</ele>
        <time>2017-09-03T12:04:43Z</time>
      </trkpt>
      <trkpt lat="58.954446" lon="17.467759">
        <ele>50</ele>
        <time>2017-09-03T12:04:44Z</time>
      </trkpt>
      <trkpt lat="58.954404" lon="17.467983">
        <ele>49.8</ele>
        <time>2017-09-03T12:04:45Z</time>
      </trkpt>
      <trkpt lat="58.954365" lon="17.468206">
        <ele>49.6</ele>
        <time>2017-09-03T12:04:46Z</time>
      </trkpt>
      <trkpt lat="58.954327" lon="17.468425">
        <ele>49.6</ele>
        <time>2017-09-03T12:04:47Z</time>
      </trkpt>
      <trkpt lat="58.954292" lon="17.468645">
        <ele>49.4</ele>
        <time>2017-09-03T12:04:48Z</time>
      </trkpt>
      <trkpt lat="58.954262" lon="17.468865">
        <ele>49.4</ele>
        <time>2017-09-03T12:04:49Z</time>
      </trkpt>
      <trkpt lat="58.954239" lon="17.469082">
        <ele>49.2</ele>
        <time>2017-09-03T12:04:50Z</time>
      </trkpt>
      <trkpt lat="58.95422" lon="17.469303">
        <ele>49.2</ele>
        <time>2017-09-03T12:04:51Z</time>
      </trkpt>
      <trkpt lat="58.954206" lon="17.469522">
        <ele>49.2</ele>
        <time>2017-09-03T12:04:52Z</time>
      </trkpt>
      <trkpt lat="58.954197" lon="17.469741">
        <ele>49.2</ele>
        <time>2017-09-03T12:04:53Z</time>
      </trkpt>
      <trkpt lat="58.954192" lon="17.469963">
        <ele>49.2</ele>
        <time>2017-09-03T12:04:54Z</time>
      </trkpt>
      <trkpt lat="58.954187" lon="17.470185">
        <ele>49.2</ele>
        <time>2017-09-03T12:04:55Z</time>
      </trkpt>
      <trkpt lat="58.954183" lon="17.47041">
        <ele>49.2</ele>
        <time>2017-09-03T12:04:56Z</time>
      </trkpt>
      <trkpt lat="58.954182" lon="17.470636">
        <ele>49.2</ele>
        <time>2017-09-03T12:04:57Z</time>
      </trkpt>
      <trkpt lat="58.95418" lon="17.470862">
        <ele>49.2</ele>
        <time>2017-09-03T12:04:58Z</time>
      </trkpt>
      <trkpt lat="58.954181" lon="17.471085">
        <ele>49.2</ele>
        <time>2017-09-03T12:04:59Z</time>
      </trkpt>
      <trkpt lat="58.954183" lon="17.471305">
        <ele>49.4</ele>
        <time>2017-09-03T12:05:00Z</time>
      </trkpt>
      <trkpt lat="58.954185" lon="17.471524">
        <ele>49.4</ele>
        <time>2017-09-03T12:05:01Z</time>
      </trkpt>
      <trkpt lat="58.954186" lon="17.471752">
        <ele>49.4</ele>
        <time>2017-09-03T12:05:02Z</time>
      </trkpt>
      <trkpt lat="58.954186" lon="17.471977">
        <ele>49.4</ele>
        <time>2017-09-03T12:05:03Z</time>
      </trkpt>
      <trkpt lat="58.954185" lon="17.472199">
        <ele>49.4</ele>
        <time>2017-09-03T12:05:04Z</time>
      </trkpt>
      <trkpt lat="58.954184" lon="17.472423">
        <ele>49.4</ele>
        <time>2017-09-03T12:05:05Z</time>
      </trkpt>
      <trkpt lat="58.954182" lon="17.472648">
        <ele>49.4</ele>
        <time>2017-09-03T12:05:06Z</time>
      </trkpt>
      <trkpt lat="58.954183" lon="17.47287">
        <ele>49.4</ele>
        <time>2017-09-03T12:05:07Z</time>
      </trkpt>
      <trkpt lat="58.954183" lon="17.473089">
        <ele>49.4</ele>
        <time>2017-09-03T12:05:08Z</time>
      </trkpt>
      <trkpt lat="58.954184" lon="17.473309">
        <ele>49.6</ele>
        <time>2017-09-03T12:05:09Z</time>
      </trkpt>
      <trkpt lat="58.954185" lon="17.473527">
        <ele>49.6</ele>
        <time>2017-09-03T12:05:10Z</time>
      </trkpt>
      <trkpt lat="58.954185" lon="17.473745">
        <ele>49.6</ele>
        <time>2017-09-03T12:05:11Z</time>
      </trkpt>
      <trkpt lat="58.954184" lon="17.47396">
        <ele>49.8</ele>
        <time>2017-09-03T12:05:12Z</time>
      </trkpt>
      <trkpt lat="58.954182" lon="17.474174">
        <ele>49.8</ele>
        <time>2017-09-03T12:05:13Z</time>
      </trkpt>
      <trkpt lat="58.954179" lon="17.474388">
        <ele>50</ele>
        <time>2017-09-03T12:05:14Z</time>
      </trkpt>
      <trkpt lat="58.954177" lon="17.474603">
        <ele>50</ele>
        <time>2017-09-03T12:05:15Z</time>
      </trkpt>
      <trkpt lat="58.954177" lon="17.474816">
        <ele>50.4</ele>
        <time>2017-09-03T12:05:16Z</time>
      </trkpt>
      <trkpt lat="58.954178" lon="17.475026">
        <ele>50.4</ele>
        <time>2017-09-03T12:05:17Z</time>
      </trkpt>
      <trkpt lat="58.954179" lon="17.475239">
        <ele>50.6</ele>
        <time>2017-09-03T12:05:18Z</time>
      </trkpt>
      <trkpt lat="58.95418" lon="17.47545">
        <ele>50.6</ele>
        <time>2017-09-03T12:05:19Z</time>
      </trkpt>
      <trkpt lat="58.95418" lon="17.475659">
        <ele>50.6</ele>
        <time>2017-09-03T12:05:20Z</time>
      </trkpt>
      <trkpt lat="58.95418" lon="17.47587">
        <ele>50.8</ele>
        <time>2017-09-03T12:05:21Z</time>
      </trkpt>
      <trkpt lat="58.95418" lon="17.476084">
        <ele>50.8</ele>
        <time>2017-09-03T12:05:22Z</time>
      </trkpt>
      <trkpt lat="58.954183" lon="17.476296">
        <ele>50.8</ele>
        <time>2017-09-03T12:05:23Z</time>
      </trkpt>
      <trkpt lat="58.954188" lon="17.476507">
        <ele>50.8</ele>
        <time>2017-09-03T12:05:24Z</time>
      </trkpt>
      <trkpt lat="58.954189" lon="17.47672">
        <ele>51</ele>
        <time>2017-09-03T12:05:25Z</time>
      </trkpt>
      <trkpt lat="58.954186" lon="17.476932">
        <ele>51</ele>
        <time>2017-09-03T12:05:26Z</time>
      </trkpt>
      <trkpt lat="58.954182" lon="17.477142">
        <ele>50.8</ele>
        <time>2017-09-03T12:05:27Z</time>
      </trkpt>
      <trkpt lat="58.954178" lon="17.477349">
        <ele>50.6</ele>
        <time>2017-09-03T12:05:28Z</time>
      </trkpt>
      <trkpt lat="58.954173" lon="17.477557">
        <ele>50.4</ele>
        <time>2017-09-03T12:05:29Z</time>
      </trkpt>
      <trkpt lat="58.954166" lon="17.477768">
        <ele>50</ele>
        <time>2017-09-03T12:05:30Z</time>
      </trkpt>
      <trkpt lat="58.954157" lon="17.477977">
        <ele>49.6</ele>
        <time>2017-09-03T12:05:31Z</time>
      </trkpt>
      <trkpt lat="58.954148" lon="17.478188">
        <ele>49</ele>
        <time>2017-09-03T12:05:32Z</time>
      </trkpt>
      <trkpt lat="58.954136" lon="17.478399">
        <ele>49</ele>
        <time>2017-09-03T12:05:33Z</time>
      </trkpt>
      <trkpt lat="58.954124" lon="17.478611">
        <ele>48.8</ele>
        <time>2017-09-03T12:05:34Z</time>
      </trkpt>
      <trkpt lat="58.954114" lon="17.478824">
        <ele>48.6</ele>
        <time>2017-09-03T12:05:35Z</time>
      </trkpt>
      <trkpt lat="58.954104" lon="17.479037">
        <ele>48.4</ele>
        <time>2017-09-03T12:05:36Z</time>
      </trkpt>
      <trkpt lat="58.954094" lon="17.479252">
        <ele>48.4</ele>
        <time>2017-09-03T12:05:37Z</time>
      </trkpt>
      <trkpt lat="58.954084" lon="17.479465">
        <ele>48.2</ele>
        <time>2017-09-03T12:05:38Z</time>
      </trkpt>
      <trkpt lat="58.954074" lon="17.479676">
        <ele>48</ele>
        <time>2017-09-03T12:05:39Z</time>
      </trkpt>
      <trkpt lat="58.954066" lon="17.479887">
        <ele>48</ele>
        <time>2017-09-03T12:05:40Z</time>
      </trkpt>
      <trkpt lat="58.95406" lon="17.480099">
        <ele>47.8</ele>
        <time>2017-09-03T12:05:41Z</time>
      </trkpt>
      <trkpt lat="58.954054" lon="17.480313">
        <ele>47.6</ele>
        <time>2017-09-03T12:05:42Z</time>
      </trkpt>
      <trkpt lat="58.954048" lon="17.480528">
        <ele>47.6</ele>
        <time>2017-09-03T12:05:43Z</time>
      </trkpt>
      <trkpt lat="58.954043" lon="17.480738">
        <ele>47.2</ele>
        <time>2017-09-03T12:05:44Z</time>
      </trkpt>
      <trkpt lat="58.954039" lon="17.480949">
        <ele>47</ele>
        <time>2017-09-03T12:05:45Z</time>
      </trkpt>
      <trkpt lat="58.954036" lon="17.481157">
        <ele>46.6</ele>
        <time>2017-09-03T12:05:46Z</time>
      </trkpt>
      <trkpt lat="58.954034" lon="17.481363">
        <ele>46.6</ele>
        <time>2017-09-03T12:05:47Z</time>
      </trkpt>
      <trkpt lat="58.954031" lon="17.481568">
        <ele>46.2</ele>
        <time>2017-09-03T12:05:48Z</time>
      </trkpt>
      <trkpt lat="58.954028" lon="17.481771">
        <ele>46.2</ele>
        <time>2017-09-03T12:05:49Z</time>
      </trkpt>
      <trkpt lat="58.954025" lon="17.48197">
        <ele>46</ele>
        <time>2017-09-03T12:05:50Z</time>
      </trkpt>
      <trkpt lat="58.954022" lon="17.482166">
        <ele>46</ele>
        <time>2017-09-03T12:05:51Z</time>
      </trkpt>
      <trkpt lat="58.954018" lon="17.482364">
        <ele>45.8</ele>
        <time>2017-09-03T12:05:52Z</time>
      </trkpt>
      <trkpt lat="58.954014" lon="17.482563">
        <ele>45.8</ele>
        <time>2017-09-03T12:05:53Z</time>
      </trkpt>
      <trkpt lat="58.95401" lon="17.482764">
        <ele>45.6</ele>
        <time>2017-09-03T12:05:54Z</time>
      </trkpt>
      <trkpt lat="58.954006" lon="17.482967">
        <ele>45.4</ele>
        <time>2017-09-03T12:05:55Z</time>
      </trkpt>
      <trkpt lat="58.954" lon="17.483169">
        <ele>45.2</ele>
        <time>2017-09-03T12:05:56Z</time>
      </trkpt>
      <trkpt lat="58.953993" lon="17.483372">
        <ele>45.2</ele>
        <time>2017-09-03T12:05:57Z</time>
      </trkpt>
      <trkpt lat="58.953987" lon="17.483574">
        <ele>45</ele>
        <time>2017-09-03T12:05:58Z</time>
      </trkpt>
      <trkpt lat="58.95398" lon="17.483777">
        <ele>45</ele>
        <time>2017-09-03T12:05:59Z</time>
      </trkpt>
      <trkpt lat="58.953972" lon="17.483981">
        <ele>45</ele>
        <time>2017-09-03T12:06:00Z</time>
      </trkpt>
      <trkpt lat="58.953964" lon="17.484182">
        <ele>44.8</ele>
        <time>2017-09-03T12:06:01Z</time>
      </trkpt>
      <trkpt lat="58.953956" lon="17.484377">
        <ele>44.8</ele>
        <time>2017-09-03T12:06:02Z</time>
      </trkpt>
      <trkpt lat="58.953949" lon="17.484566">
        <ele>44.6</ele>
        <time>2017-09-03T12:06:03Z</time>
      </trkpt>
      <trkpt lat="58.953943" lon="17.484751">
        <ele>44.4</ele>
        <time>2017-09-03T12:06:04Z</time>
      </trkpt>
      <trkpt lat="58.953934" lon="17.484934">
        <ele>44.4</ele>
        <time>2017-09-03T12:06:05Z</time>
      </trkpt>
      <trkpt lat="58.953923" lon="17.485115">
        <ele>44.2</ele>
        <time>2017-09-03T12:06:06Z</time>
      </trkpt>
      <trkpt lat="58.953912" lon="17.485301">
        <ele>43.8</ele>
        <time>2017-09-03T12:06:07Z</time>
      </trkpt>
      <trkpt lat="58.9539" lon="17.48549">
        <ele>43.6</ele>
        <time>2017-09-03T12:06:08Z</time>
      </trkpt>
      <trkpt lat="58.953889" lon="17.48568">
        <ele>43.6</ele>
        <time>2017-09-03T12:06:09Z</time>
      </trkpt>
      <trkpt lat="58.953878" lon="17.485868">
        <ele>43.4</ele>
        <time>2017-09-03T12:06:10Z</time>
      </trkpt>
      <trkpt lat="58.953868" lon="17.486055">
        <ele>43.2</ele>
        <time>2017-09-03T12:06:11Z</time>
      </trkpt>
      <trkpt lat="58.953856" lon="17.486237">
        <ele>42.8</ele>
        <time>2017-09-03T12:06:12Z</time>
      </trkpt>
      <trkpt lat="58.953844" lon="17.486418">
        <ele>42.6</ele>
        <time>2017-09-03T12:06:13Z</time>
      </trkpt>
      <trkpt lat="58.953833" lon="17.486598">
        <ele>42.6</ele>
        <time>2017-09-03T12:06:14Z</time>
      </trkpt>
      <trkpt lat="58.95382" lon="17.486778">
        <ele>42.4</ele>
        <time>2017-09-03T12:06:15Z</time>
      </trkpt>
      <trkpt lat="58.953809" lon="17.486959">
        <ele>42.4</ele>
        <time>2017-09-03T12:06:16Z</time>
      </trkpt>
      <trkpt lat="58.953798" lon="17.487139">
        <ele>42.2</ele>
        <time>2017-09-03T12:06:17Z</time>
      </trkpt>
      <trkpt lat="58.953787" lon="17.487322">
        <ele>42.2</ele>
        <time>2017-09-03T12:06:18Z</time>
      </trkpt>
      <trkpt lat="58.953777" lon="17.487507">
        <ele>42.2</ele>
        <time>2017-09-03T12:06:19Z</time>
      </trkpt>
      <trkpt lat="58.953767" lon="17.487692">
        <ele>42.2</ele>
        <time>2017-09-03T12:06:20Z</time>
      </trkpt>
      <trkpt lat="58.953756" lon="17.48788">
        <ele>42.2</ele>
        <time>2017-09-03T12:06:21Z</time>
      </trkpt>
      <trkpt lat="58.953746" lon="17.488075">
        <ele>42.2</ele>
        <time>2017-09-03T12:06:22Z</time>
      </trkpt>
      <trkpt lat="58.953736" lon="17.488272">
        <ele>42.2</ele>
        <time>2017-09-03T12:06:23Z</time>
      </trkpt>
      <trkpt lat="58.953727" lon="17.488469">
        <ele>42</ele>
        <time>2017-09-03T12:06:24Z</time>
      </trkpt>
      <trkpt lat="58.953718" lon="17.488665">
        <ele>42</ele>
        <time>2017-09-03T12:06:25Z</time>
      </trkpt>
      <trkpt lat="58.95371" lon="17.488857">
        <ele>42</ele>
        <time>2017-09-03T12:06:26Z</time>
      </trkpt>
      <trkpt lat="58.953701" lon="17.489045">
        <ele>42</ele>
        <time>2017-09-03T12:06:27Z</time>
      </trkpt>
      <trkpt lat="58.953693" lon="17.489235">
        <ele>42</ele>
        <time>2017-09-03T12:06:28Z</time>
      </trkpt>
      <trkpt lat="58.953685" lon="17.489425">
        <ele>42</ele>
        <time>2017-09-03T12:06:29Z</time>
      </trkpt>
      <trkpt lat="58.953679" lon="17.489616">
        <ele>42</ele>
        <time>2017-09-03T12:06:30Z</time>
      </trkpt>
      <trkpt lat="58.953673" lon="17.489803">
        <ele>42</ele>
        <time>2017-09-03T12:06:31Z</time>
      </trkpt>
      <trkpt lat="58.953667" lon="17.48999">
        <ele>42</ele>
        <time>2017-09-03T12:06:32Z</time>
      </trkpt>
      <trkpt lat="58.953661" lon="17.490179">
        <ele>42</ele>
        <time>2017-09-03T12:06:33Z</time>
      </trkpt>
      <trkpt lat="58.953659" lon="17.49037">
        <ele>42</ele>
        <time>2017-09-03T12:06:34Z</time>
      </trkpt>
      <trkpt lat="58.953664" lon="17.490561">
        <ele>41.8</ele>
        <time>2017-09-03T12:06:35Z</time>
      </trkpt>
      <trkpt lat="58.953675" lon="17.490755">
        <ele>41.8</ele>
        <time>2017-09-03T12:06:36Z</time>
      </trkpt>
      <trkpt lat="58.953696" lon="17.490949">
        <ele>41.8</ele>
        <time>2017-09-03T12:06:37Z</time>
      </trkpt>
      <trkpt lat="58.953724" lon="17.49114">
        <ele>41.8</ele>
        <time>2017-09-03T12:06:38Z</time>
      </trkpt>
      <trkpt lat="58.953759" lon="17.491326">
        <ele>41.8</ele>
        <time>2017-09-03T12:06:39Z</time>
      </trkpt>
      <trkpt lat="58.953799" lon="17.491506">
        <ele>41.8</ele>
        <time>2017-09-03T12:06:40Z</time>
      </trkpt>
      <trkpt lat="58.953842" lon="17.491682">
        <ele>41.8</ele>
        <time>2017-09-03T12:06:41Z</time>
      </trkpt>
      <trkpt lat="58.953886" lon="17.491857">
        <ele>41.8</ele>
        <time>2017-09-03T12:06:42Z</time>
      </trkpt>
      <trkpt lat="58.953929" lon="17.492036">
        <ele>41.6</ele>
        <time>2017-09-03T12:06:43Z</time>
      </trkpt>
      <trkpt lat="58.953972" lon="17.492218">
        <ele>41.6</ele>
        <time>2017-09-03T12:06:44Z</time>
      </trkpt>
      <trkpt lat="58.954015" lon="17.492403">
        <ele>41.6</ele>
        <time>2017-09-03T12:06:45Z</time>
      </trkpt>
      <trkpt lat="58.95406" lon="17.49259">
        <ele>41.6</ele>
        <time>2017-09-03T12:06:46Z</time>
      </trkpt>
      <trkpt lat="58.954107" lon="17.49278">
        <ele>41.6</ele>
        <time>2017-09-03T12:06:47Z</time>
      </trkpt>
      <trkpt lat="58.954157" lon="17.492971">
        <ele>41.6</ele>
        <time>2017-09-03T12:06:48Z</time>
      </trkpt>
      <trkpt lat="58.954206" lon="17.493158">
        <ele>41.6</ele>
        <time>2017-09-03T12:06:49Z</time>
      </trkpt>
      <trkpt lat="58.954251" lon="17.493338">
        <ele>41.6</ele>
        <time>2017-09-03T12:06:50Z</time>
      </trkpt>
      <trkpt lat="58.954295" lon="17.493514">
        <ele>41.6</ele>
        <time>2017-09-03T12:06:51Z</time>
      </trkpt>
      <trkpt lat="58.954337" lon="17.493683">
        <ele>41.6</ele>
        <time>2017-09-03T12:06:52Z</time>
      </trkpt>
      <trkpt lat="58.954376" lon="17.493848">
        <ele>41.6</ele>
        <time>2017-09-03T12:06:53Z</time>
      </trkpt>
      <trkpt lat="58.954415" lon="17.494009">
        <ele>41.6</ele>
        <time>2017-09-03T12:06:54Z</time>
      </trkpt>
      <trkpt lat="58.954456" lon="17.494171">
        <ele>41.2</ele>
        <time>2017-09-03T12:06:55Z</time>
      </trkpt>
      <trkpt lat="58.954497" lon="17.494333">
        <ele>40.4</ele>
        <time>2017-09-03T12:06:56Z</time>
      </trkpt>
      <trkpt lat="58.954535" lon="17.494497">
        <ele>40.2</ele>
        <time>2017-09-03T12:06:57Z</time>
      </trkpt>
      <trkpt lat="58.954572" lon="17.49466">
        <ele>40</ele>
        <time>2017-09-03T12:06:58Z</time>
      </trkpt>
      <trkpt lat="58.954607" lon="17.494821">
        <ele>40</ele>
        <time>2017-09-03T12:06:59Z</time>
      </trkpt>
      <trkpt lat="58.954643" lon="17.494978">
        <ele>39.6</ele>
        <time>2017-09-03T12:07:00Z</time>
      </trkpt>
      <trkpt lat="58.95468" lon="17.495131">
        <ele>39.4</ele>
        <time>2017-09-03T12:07:01Z</time>
      </trkpt>
      <trkpt lat="58.954717" lon="17.495289">
        <ele>39.4</ele>
        <time>2017-09-03T12:07:02Z</time>
      </trkpt>
      <trkpt lat="58.954756" lon="17.495449">
        <ele>39.4</ele>
        <time>2017-09-03T12:07:03Z</time>
      </trkpt>
      <trkpt lat="58.954799" lon="17.495608">
        <ele>39.2</ele>
        <time>2017-09-03T12:07:04Z</time>
      </trkpt>
      <trkpt lat="58.954841" lon="17.495761">
        <ele>39.2</ele>
        <time>2017-09-03T12:07:05Z</time>
      </trkpt>
      <trkpt lat="58.954877" lon="17.495907">
        <ele>39.2</ele>
        <time>2017-09-03T12:07:06Z</time>
      </trkpt>
      <trkpt lat="58.9549" lon="17.496051">
        <ele>39.6</ele>
        <time>2017-09-03T12:07:07Z</time>
      </trkpt>
      <trkpt lat="58.954899" lon="17.496197">
        <ele>39.8</ele>
        <time>2017-09-03T12:07:08Z</time>
      </trkpt>
      <trkpt lat="58.954869" lon="17.496335">
        <ele>40</ele>
        <time>2017-09-03T12:07:09Z</time>
      </trkpt>
      <trkpt lat="58.954815" lon="17.496454">
        <ele>40</ele>
        <time>2017-09-03T12:07:10Z</time>
      </trkpt>
      <trkpt lat="58.954746" lon="17.496566">
        <ele>40.2</ele>
        <time>2017-09-03T12:07:11Z</time>
      </trkpt>
      <trkpt lat="58.954664" lon="17.496681">
        <ele>40.8</ele>
        <time>2017-09-03T12:07:12Z</time>
      </trkpt>
      <trkpt lat="58.954577" lon="17.496792">
        <ele>41</ele>
        <time>2017-09-03T12:07:13Z</time>
      </trkpt>
      <trkpt lat="58.954485" lon="17.496905">
        <ele>41.6</ele>
        <time>2017-09-03T12:07:14Z</time>
      </trkpt>
      <trkpt lat="58.954387" lon="17.497023">
        <ele>42</ele>
        <time>2017-09-03T12:07:15Z</time>
      </trkpt>
      <trkpt lat="58.954284" lon="17.497146">
        <ele>42.4</ele>
        <time>2017-09-03T12:07:16Z</time>
      </trkpt>
      <trkpt lat="58.954184" lon="17.497273">
        <ele>42.4</ele>
        <time>2017-09-03T12:07:17Z</time>
      </trkpt>
      <trkpt lat="58.954083" lon="17.497403">
        <ele>42.6</ele>
        <time>2017-09-03T12:07:18Z</time>
      </trkpt>
      <trkpt lat="58.953981" lon="17.497538">
        <ele>42.6</ele>
        <time>2017-09-03T12:07:19Z</time>
      </trkpt>
      <trkpt lat="58.953878" lon="17.49767">
        <ele>42.6</ele>
        <time>2017-09-03T12:07:20Z</time>
      </trkpt>
      <trkpt lat="58.953774" lon="17.497798">
        <ele>42.6</ele>
        <time>2017-09-03T12:07:21Z</time>
      </trkpt>
      <trkpt lat="58.953669" lon="17.49793">
        <ele>42.6</ele>
        <time>2017-09-03T12:07:22Z</time>
      </trkpt>
      <trkpt lat="58.953562" lon="17.498065">
        <ele>42.6</ele>
        <time>2017-09-03T12:07:23Z</time>
      </trkpt>
      <trkpt lat="58.953452" lon="17.498203">
        <ele>42.6</ele>
        <time>2017-09-03T12:07:24Z</time>
      </trkpt>
      <trkpt lat="58.953343" lon="17.498342">
        <ele>42.4</ele>
        <time>2017-09-03T12:07:25Z</time>
      </trkpt>
      <trkpt lat="58.953231" lon="17.49848">
        <ele>41.6</ele>
        <time>2017-09-03T12:07:26Z</time>
      </trkpt>
      <trkpt lat="58.953117" lon="17.498614">
        <ele>41.2</ele>
        <time>2017-09-03T12:07:27Z</time>
      </trkpt>
      <trkpt lat="58.953001" lon="17.498746">
        <ele>40.4</ele>
        <time>2017-09-03T12:07:28Z</time>
      </trkpt>
      <trkpt lat="58.952885" lon="17.49888">
        <ele>40</ele>
        <time>2017-09-03T12:07:29Z</time>
      </trkpt>
      <trkpt lat="58.952767" lon="17.499013">
        <ele>39.8</ele>
        <time>2017-09-03T12:07:30Z</time>
      </trkpt>
      <trkpt lat="58.952648" lon="17.499142">
        <ele>39.4</ele>
        <time>2017-09-03T12:07:31Z</time>
      </trkpt>
      <trkpt lat="58.952527" lon="17.499268">
        <ele>39</ele>
        <time>2017-09-03T12:07:32Z</time>
      </trkpt>
      <trkpt lat="58.952406" lon="17.499392">
        <ele>38.4</ele>
        <time>2017-09-03T12:07:33Z</time>
      </trkpt>
      <trkpt lat="58.952286" lon="17.499513">
        <ele>38</ele>
        <time>2017-09-03T12:07:34Z</time>
      </trkpt>
      <trkpt lat="58.952167" lon="17.49963">
        <ele>37.4</ele>
        <time>2017-09-03T12:07:35Z</time>
      </trkpt>
      <trkpt lat="58.952049" lon="17.499742">
        <ele>36.8</ele>
        <time>2017-09-03T12:07:36Z</time>
      </trkpt>
      <trkpt lat="58.95193" lon="17.499852">
        <ele>36.4</ele>
        <time>2017-09-03T12:07:37Z</time>
      </trkpt>
      <trkpt lat="58.951811" lon="17.499961">
        <ele>36</ele>
        <time>2017-09-03T12:07:38Z</time>
      </trkpt>
      <trkpt lat="58.951689" lon="17.500062">
        <ele>35.8</ele>
        <time>2017-09-03T12:07:39Z</time>
      </trkpt>
      <trkpt lat="58.951565" lon="17.500159">
        <ele>35.6</ele>
        <time>2017-09-03T12:07:40Z</time>
      </trkpt>
      <trkpt lat="58.951442" lon="17.500258">
        <ele>35.2</ele>
        <time>2017-09-03T12:07:41Z</time>
      </trkpt>
      <trkpt lat="58.951318" lon="17.50035">
        <ele>34.6</ele>
        <time>2017-09-03T12:07:42Z</time>
      </trkpt>
      <trkpt lat="58.951196" lon="17.500436">
        <ele>34</ele>
        <time>2017-09-03T12:07:43Z</time>
      </trkpt>
      <trkpt lat="58.951075" lon="17.500519">
        <ele>33.4</ele>
        <time>2017-09-03T12:07:44Z</time>
      </trkpt>
      <trkpt lat="58.950956" lon="17.500599">
        <ele>33</ele>
        <time>2017-09-03T12:07:45Z</time>
      </trkpt>
      <trkpt lat="58.95084" lon="17.500674">
        <ele>32.8</ele>
        <time>2017-09-03T12:07:46Z</time>
      </trkpt>
      <trkpt lat="58.950726" lon="17.500748">
        <ele>32.4</ele>
        <time>2017-09-03T12:07:47Z</time>
      </trkpt>
      <trkpt lat="58.950612" lon="17.500821">
        <ele>32.2</ele>
        <time>2017-09-03T12:07:48Z</time>
      </trkpt>
      <trkpt lat="58.950497" lon="17.500891">
        <ele>32</ele>
        <time>2017-09-03T12:07:49Z</time>
      </trkpt>
      <trkpt lat="58.950379" lon="17.500961">
        <ele>31.8</ele>
        <time>2017-09-03T12:07:50Z</time>
      </trkpt>
      <trkpt lat="58.950258" lon="17.501031">
        <ele>31.6</ele>
        <time>2017-09-03T12:07:51Z</time>
      </trkpt>
      <trkpt lat="58.950138" lon="17.501104">
        <ele>31.6</ele>
        <time>2017-09-03T12:07:52Z</time>
      </trkpt>
      <trkpt lat="58.950018" lon="17.501178">
        <ele>31.4</ele>
        <time>2017-09-03T12:07:53Z</time>
      </trkpt>
      <trkpt lat="58.949897" lon="17.501253">
        <ele>31.2</ele>
        <time>2017-09-03T12:07:54Z</time>
      </trkpt>
      <trkpt lat="58.949778" lon="17.501335">
        <ele>30.6</ele>
        <time>2017-09-03T12:07:55Z</time>
      </trkpt>
      <trkpt lat="58.94966" lon="17.501417">
        <ele>30.4</ele>
        <time>2017-09-03T12:07:56Z</time>
      </trkpt>
      <trkpt lat="58.949544" lon="17.501493">
        <ele>30.2</ele>
        <time>2017-09-03T12:07:57Z</time>
      </trkpt>
      <trkpt lat="58.94943" lon="17.501565">
        <ele>30.2</ele>
        <time>2017-09-03T12:07:58Z</time>
      </trkpt>
      <trkpt lat="58.94932" lon="17.501635">
        <ele>29.8</ele>
        <time>2017-09-03T12:07:59Z</time>
      </trkpt>
      <trkpt lat="58.949211" lon="17.501698">
        <ele>30</ele>
        <time>2017-09-03T12:08:00Z</time>
      </trkpt>
      <trkpt lat="58.949104" lon="17.501757">
        <ele>30</ele>
        <time>2017-09-03T12:08:01Z</time>
      </trkpt>
      <trkpt lat="58.948998" lon="17.501816">
        <ele>29.8</ele>
        <time>2017-09-03T12:08:02Z</time>
      </trkpt>
      <trkpt lat="58.948894" lon="17.501873">
        <ele>29.8</ele>
        <time>2017-09-03T12:08:03Z</time>
      </trkpt>
      <trkpt lat="58.948792" lon="17.501929">
        <ele>29.8</ele>
        <time>2017-09-03T12:08:04Z</time>
      </trkpt>
      <trkpt lat="58.948692" lon="17.501984">
        <ele>29.8</ele>
        <time>2017-09-03T12:08:05Z</time>
      </trkpt>
      <trkpt lat="58.948594" lon="17.50204">
        <ele>29.8</ele>
        <time>2017-09-03T12:08:06Z</time>
      </trkpt>
      <trkpt lat="58.948498" lon="17.502095">
        <ele>29.8</ele>
        <time>2017-09-03T12:08:07Z</time>
      </trkpt>
      <trkpt lat="58.948403" lon="17.502149">
        <ele>29.8</ele>
        <time>2017-09-03T12:08:08Z</time>
      </trkpt>
      <trkpt lat="58.948311" lon="17.502208">
        <ele>29.8</ele>
        <time>2017-09-03T12:08:09Z</time>
      </trkpt>
      <trkpt lat="58.948219" lon="17.50227">
        <ele>30.2</ele>
        <time>2017-09-03T12:08:10Z</time>
      </trkpt>
      <trkpt lat="58.948128" lon="17.502333">
        <ele>30.6</ele>
        <time>2017-09-03T12:08:11Z</time>
      </trkpt>
      <trkpt lat="58.948038" lon="17.502406">
        <ele>31</ele>
        <time>2017-09-03T12:08:12Z</time>
      </trkpt>
      <trkpt lat="58.94795" lon="17.502493">
        <ele>31.2</ele>
        <time>2017-09-03T12:08:13Z</time>
      </trkpt>
      <trkpt lat="58.947863" lon="17.502591">
        <ele>31.8</ele>
        <time>2017-09-03T12:08:14Z</time>
      </trkpt>
      <trkpt lat="58.94778" lon="17.502699">
        <ele>32.2</ele>
        <time>2017-09-03T12:08:15Z</time>
      </trkpt>
      <trkpt lat="58.947701" lon="17.502819">
        <ele>32.8</ele>
        <time>2017-09-03T12:08:16Z</time>
      </trkpt>
      <trkpt lat="58.947628" lon="17.502949">
        <ele>33.4</ele>
        <time>2017-09-03T12:08:17Z</time>
      </trkpt>
      <trkpt lat="58.94756" lon="17.503087">
        <ele>33.8</ele>
        <time>2017-09-03T12:08:18Z</time>
      </trkpt>
      <trkpt lat="58.947499" lon="17.503235">
        <ele>34</ele>
        <time>2017-09-03T12:08:19Z</time>
      </trkpt>
      <trkpt lat="58.947443" lon="17.503391">
        <ele>34.2</ele>
        <time>2017-09-03T12:08:20Z</time>
      </trkpt>
      <trkpt lat="58.947394" lon="17.503553">
        <ele>34.6</ele>
        <time>2017-09-03T12:08:21Z</time>
      </trkpt>
      <trkpt lat="58.947351" lon="17.503721">
        <ele>34.8</ele>
        <time>2017-09-03T12:08:22Z</time>
      </trkpt>
      <trkpt lat="58.947312" lon="17.503892">
        <ele>35</ele>
        <time>2017-09-03T12:08:23Z</time>
      </trkpt>
      <trkpt lat="58.947275" lon="17.504065">
        <ele>35.4</ele>
        <time>2017-09-03T12:08:24Z</time>
      </trkpt>
      <trkpt lat="58.947242" lon="17.504239">
        <ele>35.6</ele>
        <time>2017-09-03T12:08:25Z</time>
      </trkpt>
      <trkpt lat="58.94721" lon="17.504414">
        <ele>35.8</ele>
        <time>2017-09-03T12:08:26Z</time>
      </trkpt>
      <trkpt lat="58.947181" lon="17.504589">
        <ele>36</ele>
        <time>2017-09-03T12:08:27Z</time>
      </trkpt>
      <trkpt lat="58.94715" lon="17.504767">
        <ele>36.2</ele>
        <time>2017-09-03T12:08:28Z</time>
      </trkpt>
      <trkpt lat="58.947117" lon="17.504944">
        <ele>36.4</ele>
        <time>2017-09-03T12:08:29Z</time>
      </trkpt>
      <trkpt lat="58.947082" lon="17.50512">
        <ele>36.6</ele>
        <time>2017-09-03T12:08:30Z</time>
      </trkpt>
      <trkpt lat="58.947046" lon="17.505297">
        <ele>36.8</ele>
        <time>2017-09-03T12:08:31Z</time>
      </trkpt>
      <trkpt lat="58.94701" lon="17.505474">
        <ele>36.8</ele>
        <time>2017-09-03T12:08:32Z</time>
      </trkpt>
      <trkpt lat="58.946974" lon="17.505656">
        <ele>36.8</ele>
        <time>2017-09-03T12:08:33Z</time>
      </trkpt>
      <trkpt lat="58.946936" lon="17.505843">
        <ele>37</ele>
        <time>2017-09-03T12:08:34Z</time>
      </trkpt>
      <trkpt lat="58.946897" lon="17.506036">
        <ele>37</ele>
        <time>2017-09-03T12:08:35Z</time>
      </trkpt>
      <trkpt lat="58.946856" lon="17.506235">
        <ele>37</ele>
        <time>2017-09-03T12:08:36Z</time>
      </trkpt>
      <trkpt lat="58.946815" lon="17.506439">
        <ele>37</ele>
        <time>2017-09-03T12:08:37Z</time>
      </trkpt>
      <trkpt lat="58.946775" lon="17.506647">
        <ele>37</ele>
        <time>2017-09-03T12:08:38Z</time>
      </trkpt>
      <trkpt lat="58.946734" lon="17.506858">
        <ele>37</ele>
        <time>2017-09-03T12:08:39Z</time>
      </trkpt>
      <trkpt lat="58.946691" lon="17.507072">
        <ele>36.8</ele>
        <time>2017-09-03T12:08:40Z</time>
      </trkpt>
      <trkpt lat="58.946647" lon="17.507291">
        <ele>36.4</ele>
        <time>2017-09-03T12:08:41Z</time>
      </trkpt>
      <trkpt lat="58.946601" lon="17.507515">
        <ele>35.8</ele>
        <time>2017-09-03T12:08:42Z</time>
      </trkpt>
      <trkpt lat="58.946555" lon="17.50774">
        <ele>35.4</ele>
        <time>2017-09-03T12:08:43Z</time>
      </trkpt>
      <trkpt lat="58.946508" lon="17.507969">
        <ele>35</ele>
        <time>2017-09-03T12:08:44Z</time>
      </trkpt>
      <trkpt lat="58.946462" lon="17.508201">
        <ele>35</ele>
        <time>2017-09-03T12:08:45Z</time>
      </trkpt>
      <trkpt lat="58.946414" lon="17.508434">
        <ele>34.8</ele>
        <time>2017-09-03T12:08:46Z</time>
      </trkpt>
      <trkpt lat="58.946368" lon="17.508668">
        <ele>34.4</ele>
        <time>2017-09-03T12:08:47Z</time>
      </trkpt>
      <trkpt lat="58.946324" lon="17.508898">
        <ele>33.4</ele>
        <time>2017-09-03T12:08:48Z</time>
      </trkpt>
      <trkpt lat="58.946284" lon="17.509122">
        <ele>32.4</ele>
        <time>2017-09-03T12:08:49Z</time>
      </trkpt>
      <trkpt lat="58.946246" lon="17.509343">
        <ele>31.6</ele>
        <time>2017-09-03T12:08:50Z</time>
      </trkpt>
      <trkpt lat="58.94621" lon="17.50956">
        <ele>31</ele>
        <time>2017-09-03T12:08:51Z</time>
      </trkpt>
      <trkpt lat="58.946175" lon="17.509776">
        <ele>30.4</ele>
        <time>2017-09-03T12:08:52Z</time>
      </trkpt>
      <trkpt lat="58.946142" lon="17.509995">
        <ele>30</ele>
        <time>2017-09-03T12:08:53Z</time>
      </trkpt>
      <trkpt lat="58.946112" lon="17.510216">
        <ele>28.6</ele>
        <time>2017-09-03T12:08:54Z</time>
      </trkpt>
      <trkpt lat="58.946085" lon="17.510439">
        <ele>28.2</ele>
        <time>2017-09-03T12:08:55Z</time>
      </trkpt>
      <trkpt lat="58.94606" lon="17.510662">
        <ele>28</ele>
        <time>2017-09-03T12:08:56Z</time>
      </trkpt>
      <trkpt lat="58.946034" lon="17.510885">
        <ele>27.6</ele>
        <time>2017-09-03T12:08:57Z</time>
      </trkpt>
      <trkpt lat="58.946011" lon="17.511108">
        <ele>27.4</ele>
        <time>2017-09-03T12:08:58Z</time>
      </trkpt>
      <trkpt lat="58.945988" lon="17.511331">
        <ele>27.2</ele>
        <time>2017-09-03T12:08:59Z</time>
      </trkpt>
      <trkpt lat="58.945969" lon="17.511553">
        <ele>27</ele>
        <time>2017-09-03T12:09:00Z</time>
      </trkpt>
      <trkpt lat="58.945955" lon="17.511773">
        <ele>26.8</ele>
        <time>2017-09-03T12:09:01Z</time>
      </trkpt>
      <trkpt lat="58.945944" lon="17.511989">
        <ele>26.6</ele>
        <time>2017-09-03T12:09:02Z</time>
      </trkpt>
      <trkpt lat="58.945934" lon="17.512202">
        <ele>26.2</ele>
        <time>2017-09-03T12:09:03Z</time>
      </trkpt>
      <trkpt lat="58.945925" lon="17.512414">
        <ele>26</ele>
        <time>2017-09-03T12:09:04Z</time>
      </trkpt>
      <trkpt lat="58.945919" lon="17.512626">
        <ele>25.8</ele>
        <time>2017-09-03T12:09:05Z</time>
      </trkpt>
      <trkpt lat="58.945916" lon="17.512838">
        <ele>25.6</ele>
        <time>2017-09-03T12:09:06Z</time>
      </trkpt>
      <trkpt lat="58.945915" lon="17.51305">
        <ele>25.4</ele>
        <time>2017-09-03T12:09:07Z</time>
      </trkpt>
      <trkpt lat="58.945916" lon="17.51326">
        <ele>25.4</ele>
        <time>2017-09-03T12:09:08Z</time>
      </trkpt>
      <trkpt lat="58.945918" lon="17.513468">
        <ele>25.4</ele>
        <time>2017-09-03T12:09:09Z</time>
      </trkpt>
      <trkpt lat="58.945924" lon="17.513676">
        <ele>25.4</ele>
        <time>2017-09-03T12:09:10Z</time>
      </trkpt>
      <trkpt lat="58.945931" lon="17.513882">
        <ele>25.4</ele>
        <time>2017-09-03T12:09:11Z</time>
      </trkpt>
      <trkpt lat="58.945938" lon="17.514089">
        <ele>25.4</ele>
        <time>2017-09-03T12:09:12Z</time>
      </trkpt>
      <trkpt lat="58.945943" lon="17.514296">
        <ele>25.2</ele>
        <time>2017-09-03T12:09:13Z</time>
      </trkpt>
      <trkpt lat="58.94595" lon="17.514502">
        <ele>25.2</ele>
        <time>2017-09-03T12:09:14Z</time>
      </trkpt>
      <trkpt lat="58.945958" lon="17.514706">
        <ele>25</ele>
        <time>2017-09-03T12:09:15Z</time>
      </trkpt>
      <trkpt lat="58.945966" lon="17.51491">
        <ele>25.2</ele>
        <time>2017-09-03T12:09:16Z</time>
      </trkpt>
      <trkpt lat="58.945973" lon="17.515111">
        <ele>25.2</ele>
        <time>2017-09-03T12:09:17Z</time>
      </trkpt>
      <trkpt lat="58.945978" lon="17.515312">
        <ele>25.2</ele>
        <time>2017-09-03T12:09:18Z</time>
      </trkpt>
      <trkpt lat="58.945979" lon="17.515514">
        <ele>25.2</ele>
        <time>2017-09-03T12:09:19Z</time>
      </trkpt>
      <trkpt lat="58.945975" lon="17.515716">
        <ele>25.2</ele>
        <time>2017-09-03T12:09:20Z</time>
      </trkpt>
      <trkpt lat="58.945967" lon="17.515917">
        <ele>25.2</ele>
        <time>2017-09-03T12:09:21Z</time>
      </trkpt>
      <trkpt lat="58.945957" lon="17.51612">
        <ele>25.2</ele>
        <time>2017-09-03T12:09:22Z</time>
      </trkpt>
      <trkpt lat="58.945941" lon="17.516322">
        <ele>25.2</ele>
        <time>2017-09-03T12:09:23Z</time>
      </trkpt>
      <trkpt lat="58.945919" lon="17.516524">
        <ele>25.4</ele>
        <time>2017-09-03T12:09:24Z</time>
      </trkpt>
      <trkpt lat="58.945894" lon="17.516724">
        <ele>25.4</ele>
        <time>2017-09-03T12:09:25Z</time>
      </trkpt>
      <trkpt lat="58.945861" lon="17.516915">
        <ele>25.4</ele>
        <time>2017-09-03T12:09:26Z</time>
      </trkpt>
      <trkpt lat="58.945822" lon="17.517095">
        <ele>25.4</ele>
        <time>2017-09-03T12:09:27Z</time>
      </trkpt>
      <trkpt lat="58.945779" lon="17.517273">
        <ele>25.4</ele>
        <time>2017-09-03T12:09:28Z</time>
      </trkpt>
      <trkpt lat="58.945733" lon="17.517445">
        <ele>25.4</ele>
        <time>2017-09-03T12:09:29Z</time>
      </trkpt>
      <trkpt lat="58.945681" lon="17.517612">
        <ele>25.4</ele>
        <time>2017-09-03T12:09:30Z</time>
      </trkpt>
      <trkpt lat="58.945624" lon="17.517775">
        <ele>25.4</ele>
        <time>2017-09-03T12:09:31Z</time>
      </trkpt>
      <trkpt lat="58.945563" lon="17.517931">
        <ele>25.4</ele>
        <time>2017-09-03T12:09:32Z</time>
      </trkpt>
      <trkpt lat="58.945499" lon="17.518079">
        <ele>25.4</ele>
        <time>2017-09-03T12:09:33Z</time>
      </trkpt>
      <trkpt lat="58.94543" lon="17.518221">
        <ele>25.4</ele>
        <time>2017-09-03T12:09:34Z</time>
      </trkpt>
      <trkpt lat="58.945358" lon="17.518359">
        <ele>25.4</ele>
        <time>2017-09-03T12:09:35Z</time>
      </trkpt>
      <trkpt lat="58.945283" lon="17.518495">
        <ele>25.4</ele>
        <time>2017-09-03T12:09:36Z</time>
      </trkpt>
      <trkpt lat="58.945205" lon="17.518626">
        <ele>25.4</ele>
        <time>2017-09-03T12:09:37Z</time>
      </trkpt>
      <trkpt lat="58.945123" lon="17.51875">
        <ele>25.2</ele>
        <time>2017-09-03T12:09:38Z</time>
      </trkpt>
      <trkpt lat="58.945032" lon="17.518865">
        <ele>25.2</ele>
        <time>2017-09-03T12:09:39Z</time>
      </trkpt>
      <trkpt lat="58.944936" lon="17.518972">
        <ele>25</ele>
        <time>2017-09-03T12:09:40Z</time>
      </trkpt>
      <trkpt lat="58.944835" lon="17.51907">
        <ele>25</ele>
        <time>2017-09-03T12:09:41Z</time>
      </trkpt>
      <trkpt lat="58.944729" lon="17.519154">
        <ele>24.6</ele>
        <time>2017-09-03T12:09:42Z</time>
      </trkpt>
      <trkpt lat="58.944623" lon="17.519224">
        <ele>24.4</ele>
        <time>2017-09-03T12:09:43Z</time>
      </trkpt>
      <trkpt lat="58.944516" lon="17.519277">
        <ele>24.2</ele>
        <time>2017-09-03T12:09:44Z</time>
      </trkpt>
      <trkpt lat="58.944407" lon="17.519322">
        <ele>24.2</ele>
        <time>2017-09-03T12:09:45Z</time>
      </trkpt>
      <trkpt lat="58.944297" lon="17.51936">
        <ele>24</ele>
        <time>2017-09-03T12:09:46Z</time>
      </trkpt>
      <trkpt lat="58.944186" lon="17.519395">
        <ele>24</ele>
        <time>2017-09-03T12:09:47Z</time>
      </trkpt>
      <trkpt lat="58.944075" lon="17.519428">
        <ele>24</ele>
        <time>2017-09-03T12:09:48Z</time>
      </trkpt>
      <trkpt lat="58.943964" lon="17.519456">
        <ele>24</ele>
        <time>2017-09-03T12:09:49Z</time>
      </trkpt>
      <trkpt lat="58.943854" lon="17.51948">
        <ele>24</ele>
        <time>2017-09-03T12:09:50Z</time>
      </trkpt>
      <trkpt lat="58.943745" lon="17.519499">
        <ele>24.2</ele>
        <time>2017-09-03T12:09:51Z</time>
      </trkpt>
      <trkpt lat="58.943634" lon="17.51952">
        <ele>24.2</ele>
        <time>2017-09-03T12:09:52Z</time>
      </trkpt>
      <trkpt lat="58.94352" lon="17.519538">
        <ele>24.4</ele>
        <time>2017-09-03T12:09:53Z</time>
      </trkpt>
      <trkpt lat="58.943402" lon="17.519544">
        <ele>24.4</ele>
        <time>2017-09-03T12:09:54Z</time>
      </trkpt>
      <trkpt lat="58.943281" lon="17.519547">
        <ele>24.6</ele>
        <time>2017-09-03T12:09:55Z</time>
      </trkpt>
      <trkpt lat="58.943155" lon="17.519548">
        <ele>24.6</ele>
        <time>2017-09-03T12:09:56Z</time>
      </trkpt>
      <trkpt lat="58.943033" lon="17.519538">
        <ele>25</ele>
        <time>2017-09-03T12:09:57Z</time>
      </trkpt>
      <trkpt lat="58.942908" lon="17.519521">
        <ele>25.2</ele>
        <time>2017-09-03T12:09:58Z</time>
      </trkpt>
      <trkpt lat="58.942782" lon="17.519496">
        <ele>25.4</ele>
        <time>2017-09-03T12:09:59Z</time>
      </trkpt>
      <trkpt lat="58.942656" lon="17.519468">
        <ele>25.6</ele>
        <time>2017-09-03T12:10:00Z</time>
      </trkpt>
      <trkpt lat="58.942526" lon="17.519441">
        <ele>25.8</ele>
        <time>2017-09-03T12:10:01Z</time>
      </trkpt>
      <trkpt lat="58.942397" lon="17.519418">
        <ele>25.8</ele>
        <time>2017-09-03T12:10:02Z</time>
      </trkpt>
      <trkpt lat="58.942266" lon="17.519399">
        <ele>26</ele>
        <time>2017-09-03T12:10:03Z</time>
      </trkpt>
      <trkpt lat="58.942132" lon="17.519386">
        <ele>26</ele>
        <time>2017-09-03T12:10:04Z</time>
      </trkpt>
      <trkpt lat="58.941996" lon="17.519378">
        <ele>26</ele>
        <time>2017-09-03T12:10:05Z</time>
      </trkpt>
      <trkpt lat="58.941858" lon="17.519373">
        <ele>26</ele>
        <time>2017-09-03T12:10:06Z</time>
      </trkpt>
      <trkpt lat="58.941722" lon="17.519373">
        <ele>26</ele>
        <time>2017-09-03T12:10:07Z</time>
      </trkpt>
      <trkpt lat="58.941589" lon="17.519379">
        <ele>26</ele>
        <time>2017-09-03T12:10:08Z</time>
      </trkpt>
      <trkpt lat="58.941457" lon="17.519389">
        <ele>26</ele>
        <time>2017-09-03T12:10:09Z</time>
      </trkpt>
      <trkpt lat="58.941325" lon="17.519401">
        <ele>26</ele>
        <time>2017-09-03T12:10:10Z</time>
      </trkpt>
      <trkpt lat="58.941193" lon="17.519416">
        <ele>26</ele>
        <time>2017-09-03T12:10:11Z</time>
      </trkpt>
      <trkpt lat="58.941061" lon="17.519436">
        <ele>25.8</ele>
        <time>2017-09-03T12:10:12Z</time>
      </trkpt>
      <trkpt lat="58.940931" lon="17.519459">
        <ele>25</ele>
        <time>2017-09-03T12:10:13Z</time>
      </trkpt>
      <trkpt lat="58.940802" lon="17.519487">
        <ele>24.4</ele>
        <time>2017-09-03T12:10:14Z</time>
      </trkpt>
      <trkpt lat="58.940674" lon="17.51952">
        <ele>23.8</ele>
        <time>2017-09-03T12:10:15Z</time>
      </trkpt>
      <trkpt lat="58.940548" lon="17.519554">
        <ele>23.6</ele>
        <time>2017-09-03T12:10:16Z</time>
      </trkpt>
      <trkpt lat="58.940424" lon="17.519588">
        <ele>23.4</ele>
        <time>2017-09-03T12:10:17Z</time>
      </trkpt>
      <trkpt lat="58.940301" lon="17.519622">
        <ele>23.2</ele>
        <time>2017-09-03T12:10:18Z</time>
      </trkpt>
      <trkpt lat="58.940182" lon="17.519661">
        <ele>23.2</ele>
        <time>2017-09-03T12:10:19Z</time>
      </trkpt>
      <trkpt lat="58.940065" lon="17.519707">
        <ele>23.2</ele>
        <time>2017-09-03T12:10:20Z</time>
      </trkpt>
      <trkpt lat="58.939951" lon="17.519756">
        <ele>23.2</ele>
        <time>2017-09-03T12:10:21Z</time>
      </trkpt>
      <trkpt lat="58.939839" lon="17.51981">
        <ele>23</ele>
        <time>2017-09-03T12:10:22Z</time>
      </trkpt>
      <trkpt lat="58.939727" lon="17.519869">
        <ele>23</ele>
        <time>2017-09-03T12:10:23Z</time>
      </trkpt>
      <trkpt lat="58.939613" lon="17.519928">
        <ele>23</ele>
        <time>2017-09-03T12:10:24Z</time>
      </trkpt>
      <trkpt lat="58.939497" lon="17.519989">
        <ele>22.8</ele>
        <time>2017-09-03T12:10:25Z</time>
      </trkpt>
      <trkpt lat="58.93938" lon="17.520059">
        <ele>22.8</ele>
        <time>2017-09-03T12:10:26Z</time>
      </trkpt>
      <trkpt lat="58.939264" lon="17.52014">
        <ele>22.6</ele>
        <time>2017-09-03T12:10:27Z</time>
      </trkpt>
      <trkpt lat="58.939149" lon="17.52023">
        <ele>22.6</ele>
        <time>2017-09-03T12:10:28Z</time>
      </trkpt>
      <trkpt lat="58.939031" lon="17.52033">
        <ele>22.8</ele>
        <time>2017-09-03T12:10:29Z</time>
      </trkpt>
      <trkpt lat="58.938912" lon="17.52044">
        <ele>22.6</ele>
        <time>2017-09-03T12:10:30Z</time>
      </trkpt>
      <trkpt lat="58.938795" lon="17.520556">
        <ele>22.8</ele>
        <time>2017-09-03T12:10:31Z</time>
      </trkpt>
      <trkpt lat="58.938681" lon="17.520679">
        <ele>23</ele>
        <time>2017-09-03T12:10:32Z</time>
      </trkpt>
      <trkpt lat="58.938569" lon="17.52081">
        <ele>23</ele>
        <time>2017-09-03T12:10:33Z</time>
      </trkpt>
      <trkpt lat="58.93846" lon="17.520951">
        <ele>22.8</ele>
        <time>2017-09-03T12:10:34Z</time>
      </trkpt>
      <trkpt lat="58.938352" lon="17.521102">
        <ele>23</ele>
        <time>2017-09-03T12:10:35Z</time>
      </trkpt>
      <trkpt lat="58.938246" lon="17.521255">
        <ele>23</ele>
        <time>2017-09-03T12:10:36Z</time>
      </trkpt>
      <trkpt lat="58.938144" lon="17.521407">
        <ele>23</ele>
        <time>2017-09-03T12:10:37Z</time>
      </trkpt>
      <trkpt lat="58.938049" lon="17.521563">
        <ele>23</ele>
        <time>2017-09-03T12:10:38Z</time>
      </trkpt>
      <trkpt lat="58.93796" lon="17.521728">
        <ele>23</ele>
        <time>2017-09-03T12:10:39Z</time>
      </trkpt>
      <trkpt lat="58.937874" lon="17.521899">
        <ele>23</ele>
        <time>2017-09-03T12:10:40Z</time>
      </trkpt>
      <trkpt lat="58.93779" lon="17.522074">
        <ele>23</ele>
        <time>2017-09-03T12:10:41Z</time>
      </trkpt>
      <trkpt lat="58.937708" lon="17.522255">
        <ele>23</ele>
        <time>2017-09-03T12:10:42Z</time>
      </trkpt>
      <trkpt lat="58.937627" lon="17.522439">
        <ele>23</ele>
        <time>2017-09-03T12:10:43Z</time>
      </trkpt>
      <trkpt lat="58.937552" lon="17.522626">
        <ele>23</ele>
        <time>2017-09-03T12:10:44Z</time>
      </trkpt>
      <trkpt lat="58.937482" lon="17.522814">
        <ele>23</ele>
        <time>2017-09-03T12:10:45Z</time>
      </trkpt>
      <trkpt lat="58.937416" lon="17.523004">
        <ele>23</ele>
        <time>2017-09-03T12:10:46Z</time>
      </trkpt>
      <trkpt lat="58.937355" lon="17.523198">
        <ele>23</ele>
        <time>2017-09-03T12:10:47Z</time>
      </trkpt>
      <trkpt lat="58.937299" lon="17.523393">
        <ele>23</ele>
        <time>2017-09-03T12:10:48Z</time>
      </trkpt>
      <trkpt lat="58.937248" lon="17.523584">
        <ele>23.2</ele>
        <time>2017-09-03T12:10:49Z</time>
      </trkpt>
      <trkpt lat="58.9372" lon="17.523769">
        <ele>23.2</ele>
        <time>2017-09-03T12:10:50Z</time>
      </trkpt>
      <trkpt lat="58.937152" lon="17.523936">
        <ele>23.2</ele>
        <time>2017-09-03T12:10:51Z</time>
      </trkpt>
      <trkpt lat="58.937097" lon="17.524077">
        <ele>23.4</ele>
        <time>2017-09-03T12:10:52Z</time>
      </trkpt>
      <trkpt lat="58.937032" lon="17.524176">
        <ele>23.4</ele>
        <time>2017-09-03T12:10:53Z</time>
      </trkpt>
      <trkpt lat="58.936959" lon="17.52422">
        <ele>23.4</ele>
        <time>2017-09-03T12:10:54Z</time>
      </trkpt>
      <trkpt lat="58.936882" lon="17.52423">
        <ele>23.4</ele>
        <time>2017-09-03T12:10:55Z</time>
      </trkpt>
      <trkpt lat="58.9368" lon="17.524234">
        <ele>23.6</ele>
        <time>2017-09-03T12:10:56Z</time>
      </trkpt>
      <trkpt lat="58.93671" lon="17.524244">
        <ele>24</ele>
        <time>2017-09-03T12:10:57Z</time>
      </trkpt>
      <trkpt lat="58.936611" lon="17.524271">
        <ele>24.4</ele>
        <time>2017-09-03T12:10:58Z</time>
      </trkpt>
      <trkpt lat="58.936503" lon="17.524318">
        <ele>24.8</ele>
        <time>2017-09-03T12:10:59Z</time>
      </trkpt>
      <trkpt lat="58.936392" lon="17.524359">
        <ele>25</ele>
        <time>2017-09-03T12:11:00Z</time>
      </trkpt>
      <trkpt lat="58.936277" lon="17.524383">
        <ele>25.2</ele>
        <time>2017-09-03T12:11:01Z</time>
      </trkpt>
      <trkpt lat="58.936156" lon="17.524388">
        <ele>25.2</ele>
        <time>2017-09-03T12:11:02Z</time>
      </trkpt>
      <trkpt lat="58.936032" lon="17.524385">
        <ele>25.2</ele>
        <time>2017-09-03T12:11:03Z</time>
      </trkpt>
      <trkpt lat="58.93591" lon="17.524382">
        <ele>25.2</ele>
        <time>2017-09-03T12:11:04Z</time>
      </trkpt>
      <trkpt lat="58.935786" lon="17.524376">
        <ele>25.2</ele>
        <time>2017-09-03T12:11:05Z</time>
      </trkpt>
      <trkpt lat="58.935662" lon="17.524364">
        <ele>25.2</ele>
        <time>2017-09-03T12:11:06Z</time>
      </trkpt>
      <trkpt lat="58.935539" lon="17.524351">
        <ele>25.2</ele>
        <time>2017-09-03T12:11:07Z</time>
      </trkpt>
      <trkpt lat="58.935417" lon="17.52434">
        <ele>25.2</ele>
        <time>2017-09-03T12:11:08Z</time>
      </trkpt>
      <trkpt lat="58.935299" lon="17.524332">
        <ele>24.8</ele>
        <time>2017-09-03T12:11:09Z</time>
      </trkpt>
      <trkpt lat="58.935186" lon="17.524318">
        <ele>24.4</ele>
        <time>2017-09-03T12:11:10Z</time>
      </trkpt>
      <trkpt lat="58.935079" lon="17.524301">
        <ele>24.2</ele>
        <time>2017-09-03T12:11:11Z</time>
      </trkpt>
      <trkpt lat="58.934977" lon="17.524287">
        <ele>23.8</ele>
        <time>2017-09-03T12:11:12Z</time>
      </trkpt>
      <trkpt lat="58.934879" lon="17.52428">
        <ele>23.6</ele>
        <time>2017-09-03T12:11:13Z</time>
      </trkpt>
      <trkpt lat="58.934788" lon="17.524273">
        <ele>23.6</ele>
        <time>2017-09-03T12:11:14Z</time>
      </trkpt>
      <trkpt lat="58.934702" lon="17.524266">
        <ele>23.6</ele>
        <time>2017-09-03T12:11:15Z</time>
      </trkpt>
      <trkpt lat="58.934619" lon="17.524258">
        <ele>23.6</ele>
        <time>2017-09-03T12:11:16Z</time>
      </trkpt>
      <trkpt lat="58.93454" lon="17.52425">
        <ele>23.6</ele>
        <time>2017-09-03T12:11:17Z</time>
      </trkpt>
      <trkpt lat="58.934466" lon="17.524246">
        <ele>23.6</ele>
        <time>2017-09-03T12:11:18Z</time>
      </trkpt>
      <trkpt lat="58.934398" lon="17.524241">
        <ele>23.6</ele>
        <time>2017-09-03T12:11:19Z</time>
      </trkpt>
      <trkpt lat="58.934334" lon="17.524237">
        <ele>24</ele>
        <time>2017-09-03T12:11:20Z</time>
      </trkpt>
      <trkpt lat="58.934272" lon="17.524237">
        <ele>24.4</ele>
        <time>2017-09-03T12:11:21Z</time>
      </trkpt>
      <trkpt lat="58.934212" lon="17.524242">
        <ele>24.4</ele>
        <time>2017-09-03T12:11:22Z</time>
      </trkpt>
      <trkpt lat="58.934155" lon="17.524247">
        <ele>24.6</ele>
        <time>2017-09-03T12:11:23Z</time>
      </trkpt>
      <trkpt lat="58.9341" lon="17.524253">
        <ele>24.6</ele>
        <time>2017-09-03T12:11:24Z</time>
      </trkpt>
      <trkpt lat="58.93405" lon="17.52426">
        <ele>24.8</ele>
        <time>2017-09-03T12:11:25Z</time>
      </trkpt>
      <trkpt lat="58.934001" lon="17.52427">
        <ele>24.8</ele>
        <time>2017-09-03T12:11:26Z</time>
      </trkpt>
      <trkpt lat="58.933955" lon="17.524285">
        <ele>25</ele>
        <time>2017-09-03T12:11:27Z</time>
      </trkpt>
      <trkpt lat="58.933913" lon="17.52431">
        <ele>25</ele>
        <time>2017-09-03T12:11:28Z</time>
      </trkpt>
      <trkpt lat="58.933872" lon="17.524339">
        <ele>25</ele>
        <time>2017-09-03T12:11:29Z</time>
      </trkpt>
      <trkpt lat="58.933833" lon="17.524361">
        <ele>25</ele>
        <time>2017-09-03T12:11:30Z</time>
      </trkpt>
      <trkpt lat="58.9338" lon="17.52438">
        <ele>25</ele>
        <time>2017-09-03T12:11:31Z</time>
      </trkpt>
      <trkpt lat="58.933768" lon="17.524402">
        <ele>25.2</ele>
        <time>2017-09-03T12:11:32Z</time>
      </trkpt>
      <trkpt lat="58.933734" lon="17.524428">
        <ele>25.2</ele>
        <time>2017-09-03T12:11:33Z</time>
      </trkpt>
      <trkpt lat="58.933703" lon="17.524453">
        <ele>25.2</ele>
        <time>2017-09-03T12:11:34Z</time>
      </trkpt>
      <trkpt lat="58.933671" lon="17.524481">
        <ele>25.4</ele>
        <time>2017-09-03T12:11:35Z</time>
      </trkpt>
      <trkpt lat="58.933642" lon="17.524509">
        <ele>25.4</ele>
        <time>2017-09-03T12:11:36Z</time>
      </trkpt>
      <trkpt lat="58.933614" lon="17.52453">
        <ele>25.4</ele>
        <time>2017-09-03T12:11:37Z</time>
      </trkpt>
      <trkpt lat="58.933588" lon="17.524549">
        <ele>25.4</ele>
        <time>2017-09-03T12:11:38Z</time>
      </trkpt>
      <trkpt lat="58.933568" lon="17.524573">
        <ele>25.6</ele>
        <time>2017-09-03T12:11:39Z</time>
      </trkpt>
      <trkpt lat="58.933552" lon="17.524601">
        <ele>25.6</ele>
        <time>2017-09-03T12:11:40Z</time>
      </trkpt>
      <trkpt lat="58.933535" lon="17.524627">
        <ele>25.8</ele>
        <time>2017-09-03T12:11:41Z</time>
      </trkpt>
      <trkpt lat="58.933519" lon="17.524646">
        <ele>25.8</ele>
        <time>2017-09-03T12:11:42Z</time>
      </trkpt>
      <trkpt lat="58.933503" lon="17.524663">
        <ele>26</ele>
        <time>2017-09-03T12:11:43Z</time>
      </trkpt>
      <trkpt lat="58.933489" lon="17.524684">
        <ele>26</ele>
        <time>2017-09-03T12:11:44Z</time>
      </trkpt>
      <trkpt lat="58.933478" lon="17.524698">
        <ele>26.2</ele>
        <time>2017-09-03T12:11:45Z</time>
      </trkpt>
      <trkpt lat="58.933474" lon="17.524697">
        <ele>26.2</ele>
        <time>2017-09-03T12:11:46Z</time>
      </trkpt>
      <trkpt lat="58.933473" lon="17.5247">
        <ele>26.4</ele>
        <time>2017-09-03T12:11:47Z</time>
      </trkpt>
    </trkseg>
  </trk>
</gpx>